<?xml version="1.0" encoding="UTF-8"?>
<gpx version="1.1" creator="https://www.youtrack.es" xsi:schemaLocation="http://www.topografix.com/GPX/1/1 http://www.topografix.com/GPX/1/1/gpx.xsd http://www.garmin.com/xmlschemas/GpxExtensions/v3 http://www.garmin.com/xmlschemas/GpxExtensionsv3.xsd http://www.garmin.com/xmlschemas/TrackPointExtension/v1 http://www.garmin.com/xmlschemas/TrackPointExtensionv1.xsd" xmlns:gpxtpx="http://www.garmin.com/xmlschemas/TrackPointExtension/v1" xmlns:gpxx="http://www.garmin.com/xmlschemas/GpxExtensions/v3" xmlns:xsi="http://www.w3.org/2001/XMLSchema-instance">
  <metadata>
    <link href="https://www.youtrack.es">
      <text>YouTrack.es</text>
    </link>
    <time>2026-05-08T10:44:32Z</time>
  </metadata>
  <trk>
    <src>https://www.youtrack.es</src>
    <link href="https://www.youtrack.es/ruta/20040-vp-y-sln">
      <text>YouTrack.es</text>
    </link>
    <trkseg>
      <trkpt lat="40.2747580" lon="-3.9040090">
        <ele>555.8</ele>
        <time>2021-02-28T07:58:42Z</time>
      </trkpt>
      <trkpt lat="40.2748080" lon="-3.9038830">
        <ele>556.2</ele>
        <time>2021-02-28T07:58:46Z</time>
      </trkpt>
      <trkpt lat="40.2748350" lon="-3.9038810">
        <ele>556.4</ele>
        <time>2021-02-28T07:58:47Z</time>
      </trkpt>
      <trkpt lat="40.2749370" lon="-3.9039460">
        <ele>556.0</ele>
        <time>2021-02-28T07:58:50Z</time>
      </trkpt>
      <trkpt lat="40.2749760" lon="-3.9039760">
        <ele>555.8</ele>
        <time>2021-02-28T07:58:51Z</time>
      </trkpt>
      <trkpt lat="40.2752330" lon="-3.9042210">
        <ele>554.6</ele>
        <time>2021-02-28T07:58:57Z</time>
      </trkpt>
      <trkpt lat="40.2754130" lon="-3.9044580">
        <ele>553.2</ele>
        <time>2021-02-28T07:59:01Z</time>
      </trkpt>
      <trkpt lat="40.2755000" lon="-3.9045840">
        <ele>552.6</ele>
        <time>2021-02-28T07:59:03Z</time>
      </trkpt>
      <trkpt lat="40.2756250" lon="-3.9047830">
        <ele>552.2</ele>
        <time>2021-02-28T07:59:06Z</time>
      </trkpt>
      <trkpt lat="40.2756990" lon="-3.9049050">
        <ele>551.8</ele>
        <time>2021-02-28T07:59:08Z</time>
      </trkpt>
      <trkpt lat="40.2757370" lon="-3.9049340">
        <ele>551.4</ele>
        <time>2021-02-28T07:59:09Z</time>
      </trkpt>
      <trkpt lat="40.2757770" lon="-3.9049480">
        <ele>551.2</ele>
        <time>2021-02-28T07:59:10Z</time>
      </trkpt>
      <trkpt lat="40.2758600" lon="-3.9049120">
        <ele>550.8</ele>
        <time>2021-02-28T07:59:12Z</time>
      </trkpt>
      <trkpt lat="40.2759020" lon="-3.9048860">
        <ele>550.8</ele>
        <time>2021-02-28T07:59:13Z</time>
      </trkpt>
      <trkpt lat="40.2761850" lon="-3.9046820">
        <ele>550.0</ele>
        <time>2021-02-28T07:59:20Z</time>
      </trkpt>
      <trkpt lat="40.2762150" lon="-3.9046380">
        <ele>549.4</ele>
        <time>2021-02-28T07:59:21Z</time>
      </trkpt>
      <trkpt lat="40.2762800" lon="-3.9044660">
        <ele>549.4</ele>
        <time>2021-02-28T07:59:24Z</time>
      </trkpt>
      <trkpt lat="40.2763070" lon="-3.9044100">
        <ele>549.6</ele>
        <time>2021-02-28T07:59:25Z</time>
      </trkpt>
      <trkpt lat="40.2764240" lon="-3.9042900">
        <ele>549.8</ele>
        <time>2021-02-28T07:59:28Z</time>
      </trkpt>
      <trkpt lat="40.2765830" lon="-3.9042910">
        <ele>549.8</ele>
        <time>2021-02-28T07:59:31Z</time>
      </trkpt>
      <trkpt lat="40.2767530" lon="-3.9043770">
        <ele>549.0</ele>
        <time>2021-02-28T07:59:34Z</time>
      </trkpt>
      <trkpt lat="40.2768140" lon="-3.9044040">
        <ele>548.8</ele>
        <time>2021-02-28T07:59:35Z</time>
      </trkpt>
      <trkpt lat="40.2770200" lon="-3.9044160">
        <ele>548.2</ele>
        <time>2021-02-28T07:59:38Z</time>
      </trkpt>
      <trkpt lat="40.2774360" lon="-3.9044870">
        <ele>547.4</ele>
        <time>2021-02-28T07:59:44Z</time>
      </trkpt>
      <trkpt lat="40.2776450" lon="-3.9045770">
        <ele>546.4</ele>
        <time>2021-02-28T07:59:47Z</time>
      </trkpt>
      <trkpt lat="40.2777840" lon="-3.9046610">
        <ele>546.0</ele>
        <time>2021-02-28T07:59:49Z</time>
      </trkpt>
      <trkpt lat="40.2779260" lon="-3.9047690">
        <ele>545.2</ele>
        <time>2021-02-28T07:59:51Z</time>
      </trkpt>
      <trkpt lat="40.2780750" lon="-3.9048860">
        <ele>543.8</ele>
        <time>2021-02-28T07:59:53Z</time>
      </trkpt>
      <trkpt lat="40.2781530" lon="-3.9049480">
        <ele>543.4</ele>
        <time>2021-02-28T07:59:54Z</time>
      </trkpt>
      <trkpt lat="40.2783120" lon="-3.9050800">
        <ele>542.4</ele>
        <time>2021-02-28T07:59:56Z</time>
      </trkpt>
      <trkpt lat="40.2784740" lon="-3.9052240">
        <ele>541.2</ele>
        <time>2021-02-28T07:59:58Z</time>
      </trkpt>
      <trkpt lat="40.2786400" lon="-3.9053780">
        <ele>540.0</ele>
        <time>2021-02-28T08:00:00Z</time>
      </trkpt>
      <trkpt lat="40.2787230" lon="-3.9054550">
        <ele>539.6</ele>
        <time>2021-02-28T08:00:01Z</time>
      </trkpt>
      <trkpt lat="40.2788060" lon="-3.9055340">
        <ele>539.0</ele>
        <time>2021-02-28T08:00:02Z</time>
      </trkpt>
      <trkpt lat="40.2790450" lon="-3.9057700">
        <ele>537.8</ele>
        <time>2021-02-28T08:00:05Z</time>
      </trkpt>
      <trkpt lat="40.2792520" lon="-3.9059920">
        <ele>537.8</ele>
        <time>2021-02-28T08:00:08Z</time>
      </trkpt>
      <trkpt lat="40.2795580" lon="-3.9063000">
        <ele>538.4</ele>
        <time>2021-02-28T08:00:13Z</time>
      </trkpt>
      <trkpt lat="40.2797100" lon="-3.9064640">
        <ele>538.8</ele>
        <time>2021-02-28T08:00:16Z</time>
      </trkpt>
      <trkpt lat="40.2797590" lon="-3.9065150">
        <ele>539.0</ele>
        <time>2021-02-28T08:00:17Z</time>
      </trkpt>
      <trkpt lat="40.2799000" lon="-3.9066610">
        <ele>539.6</ele>
        <time>2021-02-28T08:00:20Z</time>
      </trkpt>
      <trkpt lat="40.2800760" lon="-3.9068440">
        <ele>540.0</ele>
        <time>2021-02-28T08:00:24Z</time>
      </trkpt>
      <trkpt lat="40.2802100" lon="-3.9069520">
        <ele>540.4</ele>
        <time>2021-02-28T08:00:27Z</time>
      </trkpt>
      <trkpt lat="40.2802650" lon="-3.9069570">
        <ele>540.4</ele>
        <time>2021-02-28T08:00:28Z</time>
      </trkpt>
      <trkpt lat="40.2803730" lon="-3.9069690">
        <ele>540.4</ele>
        <time>2021-02-28T08:00:30Z</time>
      </trkpt>
      <trkpt lat="40.2804600" lon="-3.9070360">
        <ele>540.6</ele>
        <time>2021-02-28T08:00:32Z</time>
      </trkpt>
      <trkpt lat="40.2805240" lon="-3.9072200">
        <ele>540.6</ele>
        <time>2021-02-28T08:00:35Z</time>
      </trkpt>
      <trkpt lat="40.2805390" lon="-3.9072880">
        <ele>540.6</ele>
        <time>2021-02-28T08:00:36Z</time>
      </trkpt>
      <trkpt lat="40.2805600" lon="-3.9073530">
        <ele>540.6</ele>
        <time>2021-02-28T08:00:37Z</time>
      </trkpt>
      <trkpt lat="40.2806270" lon="-3.9074570">
        <ele>540.6</ele>
        <time>2021-02-28T08:00:39Z</time>
      </trkpt>
      <trkpt lat="40.2807430" lon="-3.9075900">
        <ele>541.0</ele>
        <time>2021-02-28T08:00:42Z</time>
      </trkpt>
      <trkpt lat="40.2809680" lon="-3.9078590">
        <ele>541.6</ele>
        <time>2021-02-28T08:00:48Z</time>
      </trkpt>
      <trkpt lat="40.2811160" lon="-3.9080240">
        <ele>542.2</ele>
        <time>2021-02-28T08:00:52Z</time>
      </trkpt>
      <trkpt lat="40.2813310" lon="-3.9082750">
        <ele>543.2</ele>
        <time>2021-02-28T08:00:58Z</time>
      </trkpt>
      <trkpt lat="40.2813680" lon="-3.9083140">
        <ele>543.2</ele>
        <time>2021-02-28T08:00:59Z</time>
      </trkpt>
      <trkpt lat="40.2816720" lon="-3.9086080">
        <ele>544.0</ele>
        <time>2021-02-28T08:01:07Z</time>
      </trkpt>
      <trkpt lat="40.2817490" lon="-3.9086740">
        <ele>544.2</ele>
        <time>2021-02-28T08:01:09Z</time>
      </trkpt>
      <trkpt lat="40.2820710" lon="-3.9089270">
        <ele>545.0</ele>
        <time>2021-02-28T08:01:17Z</time>
      </trkpt>
      <trkpt lat="40.2821580" lon="-3.9089820">
        <ele>545.0</ele>
        <time>2021-02-28T08:01:19Z</time>
      </trkpt>
      <trkpt lat="40.2822910" lon="-3.9090660">
        <ele>545.4</ele>
        <time>2021-02-28T08:01:22Z</time>
      </trkpt>
      <trkpt lat="40.2824690" lon="-3.9091730">
        <ele>545.0</ele>
        <time>2021-02-28T08:01:26Z</time>
      </trkpt>
      <trkpt lat="40.2828870" lon="-3.9093630">
        <ele>546.2</ele>
        <time>2021-02-28T08:01:35Z</time>
      </trkpt>
      <trkpt lat="40.2831280" lon="-3.9094650">
        <ele>546.6</ele>
        <time>2021-02-28T08:01:40Z</time>
      </trkpt>
      <trkpt lat="40.2834130" lon="-3.9095750">
        <ele>546.8</ele>
        <time>2021-02-28T08:01:46Z</time>
      </trkpt>
      <trkpt lat="40.2837900" lon="-3.9097310">
        <ele>546.8</ele>
        <time>2021-02-28T08:01:54Z</time>
      </trkpt>
      <trkpt lat="40.2838390" lon="-3.9097300">
        <ele>547.0</ele>
        <time>2021-02-28T08:01:55Z</time>
      </trkpt>
      <trkpt lat="40.2839400" lon="-3.9096870">
        <ele>547.0</ele>
        <time>2021-02-28T08:01:57Z</time>
      </trkpt>
      <trkpt lat="40.2840460" lon="-3.9096610">
        <ele>547.0</ele>
        <time>2021-02-28T08:01:59Z</time>
      </trkpt>
      <trkpt lat="40.2841990" lon="-3.9097320">
        <ele>547.2</ele>
        <time>2021-02-28T08:02:02Z</time>
      </trkpt>
      <trkpt lat="40.2843860" lon="-3.9097650">
        <ele>547.4</ele>
        <time>2021-02-28T08:02:06Z</time>
      </trkpt>
      <trkpt lat="40.2844320" lon="-3.9097490">
        <ele>547.6</ele>
        <time>2021-02-28T08:02:07Z</time>
      </trkpt>
      <trkpt lat="40.2845530" lon="-3.9097170">
        <ele>548.6</ele>
        <time>2021-02-28T08:02:10Z</time>
      </trkpt>
      <trkpt lat="40.2846630" lon="-3.9096940">
        <ele>549.0</ele>
        <time>2021-02-28T08:02:13Z</time>
      </trkpt>
      <trkpt lat="40.2848020" lon="-3.9096680">
        <ele>549.8</ele>
        <time>2021-02-28T08:02:17Z</time>
      </trkpt>
      <trkpt lat="40.2849730" lon="-3.9096350">
        <ele>550.4</ele>
        <time>2021-02-28T08:02:22Z</time>
      </trkpt>
      <trkpt lat="40.2850430" lon="-3.9096160">
        <ele>550.8</ele>
        <time>2021-02-28T08:02:24Z</time>
      </trkpt>
      <trkpt lat="40.2852660" lon="-3.9095750">
        <ele>552.0</ele>
        <time>2021-02-28T08:02:31Z</time>
      </trkpt>
      <trkpt lat="40.2854610" lon="-3.9095420">
        <ele>553.0</ele>
        <time>2021-02-28T08:02:37Z</time>
      </trkpt>
      <trkpt lat="40.2855610" lon="-3.9095240">
        <ele>553.4</ele>
        <time>2021-02-28T08:02:40Z</time>
      </trkpt>
      <trkpt lat="40.2857600" lon="-3.9094950">
        <ele>554.0</ele>
        <time>2021-02-28T08:02:46Z</time>
      </trkpt>
      <trkpt lat="40.2858610" lon="-3.9094790">
        <ele>554.4</ele>
        <time>2021-02-28T08:02:49Z</time>
      </trkpt>
      <trkpt lat="40.2860280" lon="-3.9094530">
        <ele>555.2</ele>
        <time>2021-02-28T08:02:54Z</time>
      </trkpt>
      <trkpt lat="40.2861890" lon="-3.9094200">
        <ele>556.0</ele>
        <time>2021-02-28T08:02:59Z</time>
      </trkpt>
      <trkpt lat="40.2862520" lon="-3.9094080">
        <ele>556.2</ele>
        <time>2021-02-28T08:03:01Z</time>
      </trkpt>
      <trkpt lat="40.2864720" lon="-3.9093680">
        <ele>557.2</ele>
        <time>2021-02-28T08:03:08Z</time>
      </trkpt>
      <trkpt lat="40.2866650" lon="-3.9093340">
        <ele>558.4</ele>
        <time>2021-02-28T08:03:14Z</time>
      </trkpt>
      <trkpt lat="40.2868600" lon="-3.9093070">
        <ele>559.4</ele>
        <time>2021-02-28T08:03:20Z</time>
      </trkpt>
      <trkpt lat="40.2868920" lon="-3.9093040">
        <ele>559.6</ele>
        <time>2021-02-28T08:03:21Z</time>
      </trkpt>
      <trkpt lat="40.2870900" lon="-3.9092810">
        <ele>560.6</ele>
        <time>2021-02-28T08:03:27Z</time>
      </trkpt>
      <trkpt lat="40.2871880" lon="-3.9092790">
        <ele>561.2</ele>
        <time>2021-02-28T08:03:30Z</time>
      </trkpt>
      <trkpt lat="40.2872880" lon="-3.9092780">
        <ele>561.6</ele>
        <time>2021-02-28T08:03:33Z</time>
      </trkpt>
      <trkpt lat="40.2875200" lon="-3.9092820">
        <ele>562.8</ele>
        <time>2021-02-28T08:03:40Z</time>
      </trkpt>
      <trkpt lat="40.2875520" lon="-3.9092840">
        <ele>562.8</ele>
        <time>2021-02-28T08:03:41Z</time>
      </trkpt>
      <trkpt lat="40.2877150" lon="-3.9092920">
        <ele>563.8</ele>
        <time>2021-02-28T08:03:46Z</time>
      </trkpt>
      <trkpt lat="40.2878420" lon="-3.9092770">
        <ele>564.4</ele>
        <time>2021-02-28T08:03:50Z</time>
      </trkpt>
      <trkpt lat="40.2879640" lon="-3.9091750">
        <ele>565.0</ele>
        <time>2021-02-28T08:03:54Z</time>
      </trkpt>
      <trkpt lat="40.2879930" lon="-3.9091560">
        <ele>565.2</ele>
        <time>2021-02-28T08:03:55Z</time>
      </trkpt>
      <trkpt lat="40.2881270" lon="-3.9091360">
        <ele>566.0</ele>
        <time>2021-02-28T08:03:59Z</time>
      </trkpt>
      <trkpt lat="40.2881590" lon="-3.9091500">
        <ele>566.2</ele>
        <time>2021-02-28T08:04:00Z</time>
      </trkpt>
      <trkpt lat="40.2883170" lon="-3.9093100">
        <ele>567.0</ele>
        <time>2021-02-28T08:04:06Z</time>
      </trkpt>
      <trkpt lat="40.2883730" lon="-3.9093590">
        <ele>567.2</ele>
        <time>2021-02-28T08:04:08Z</time>
      </trkpt>
      <trkpt lat="40.2884390" lon="-3.9093760">
        <ele>567.6</ele>
        <time>2021-02-28T08:04:10Z</time>
      </trkpt>
      <trkpt lat="40.2885330" lon="-3.9093790">
        <ele>568.2</ele>
        <time>2021-02-28T08:04:13Z</time>
      </trkpt>
      <trkpt lat="40.2887310" lon="-3.9094090">
        <ele>569.2</ele>
        <time>2021-02-28T08:04:19Z</time>
      </trkpt>
      <trkpt lat="40.2887990" lon="-3.9094220">
        <ele>569.4</ele>
        <time>2021-02-28T08:04:21Z</time>
      </trkpt>
      <trkpt lat="40.2890290" lon="-3.9094630">
        <ele>570.4</ele>
        <time>2021-02-28T08:04:28Z</time>
      </trkpt>
      <trkpt lat="40.2890950" lon="-3.9094730">
        <ele>570.8</ele>
        <time>2021-02-28T08:04:30Z</time>
      </trkpt>
      <trkpt lat="40.2891940" lon="-3.9094900">
        <ele>571.6</ele>
        <time>2021-02-28T08:04:33Z</time>
      </trkpt>
      <trkpt lat="40.2893530" lon="-3.9095300">
        <ele>572.6</ele>
        <time>2021-02-28T08:04:38Z</time>
      </trkpt>
      <trkpt lat="40.2894150" lon="-3.9095530">
        <ele>572.8</ele>
        <time>2021-02-28T08:04:40Z</time>
      </trkpt>
      <trkpt lat="40.2895770" lon="-3.9096050">
        <ele>573.6</ele>
        <time>2021-02-28T08:04:45Z</time>
      </trkpt>
      <trkpt lat="40.2897670" lon="-3.9096760">
        <ele>574.6</ele>
        <time>2021-02-28T08:04:51Z</time>
      </trkpt>
      <trkpt lat="40.2898020" lon="-3.9096880">
        <ele>574.8</ele>
        <time>2021-02-28T08:04:52Z</time>
      </trkpt>
      <trkpt lat="40.2899910" lon="-3.9097660">
        <ele>575.8</ele>
        <time>2021-02-28T08:04:58Z</time>
      </trkpt>
      <trkpt lat="40.2900560" lon="-3.9097930">
        <ele>576.0</ele>
        <time>2021-02-28T08:05:00Z</time>
      </trkpt>
      <trkpt lat="40.2902490" lon="-3.9098700">
        <ele>577.0</ele>
        <time>2021-02-28T08:05:06Z</time>
      </trkpt>
      <trkpt lat="40.2903750" lon="-3.9099200">
        <ele>577.8</ele>
        <time>2021-02-28T08:05:10Z</time>
      </trkpt>
      <trkpt lat="40.2904420" lon="-3.9099460">
        <ele>578.0</ele>
        <time>2021-02-28T08:05:12Z</time>
      </trkpt>
      <trkpt lat="40.2906250" lon="-3.9100360">
        <ele>579.0</ele>
        <time>2021-02-28T08:05:18Z</time>
      </trkpt>
      <trkpt lat="40.2907150" lon="-3.9100790">
        <ele>579.4</ele>
        <time>2021-02-28T08:05:21Z</time>
      </trkpt>
      <trkpt lat="40.2908090" lon="-3.9101250">
        <ele>580.0</ele>
        <time>2021-02-28T08:05:24Z</time>
      </trkpt>
      <trkpt lat="40.2909620" lon="-3.9101980">
        <ele>581.0</ele>
        <time>2021-02-28T08:05:29Z</time>
      </trkpt>
      <trkpt lat="40.2910200" lon="-3.9102250">
        <ele>581.2</ele>
        <time>2021-02-28T08:05:31Z</time>
      </trkpt>
      <trkpt lat="40.2911750" lon="-3.9103030">
        <ele>582.2</ele>
        <time>2021-02-28T08:05:36Z</time>
      </trkpt>
      <trkpt lat="40.2913220" lon="-3.9103790">
        <ele>582.8</ele>
        <time>2021-02-28T08:05:41Z</time>
      </trkpt>
      <trkpt lat="40.2913830" lon="-3.9104080">
        <ele>583.2</ele>
        <time>2021-02-28T08:05:43Z</time>
      </trkpt>
      <trkpt lat="40.2916520" lon="-3.9105160">
        <ele>584.0</ele>
        <time>2021-02-28T08:05:51Z</time>
      </trkpt>
      <trkpt lat="40.2916840" lon="-3.9105320">
        <ele>584.2</ele>
        <time>2021-02-28T08:05:52Z</time>
      </trkpt>
      <trkpt lat="40.2919630" lon="-3.9106560">
        <ele>584.4</ele>
        <time>2021-02-28T08:06:00Z</time>
      </trkpt>
      <trkpt lat="40.2921940" lon="-3.9107640">
        <ele>585.0</ele>
        <time>2021-02-28T08:06:06Z</time>
      </trkpt>
      <trkpt lat="40.2924310" lon="-3.9108730">
        <ele>585.0</ele>
        <time>2021-02-28T08:06:12Z</time>
      </trkpt>
      <trkpt lat="40.2925500" lon="-3.9109210">
        <ele>585.4</ele>
        <time>2021-02-28T08:06:15Z</time>
      </trkpt>
      <trkpt lat="40.2927680" lon="-3.9110260">
        <ele>585.8</ele>
        <time>2021-02-28T08:06:21Z</time>
      </trkpt>
      <trkpt lat="40.2928720" lon="-3.9110740">
        <ele>586.4</ele>
        <time>2021-02-28T08:06:24Z</time>
      </trkpt>
      <trkpt lat="40.2930740" lon="-3.9111680">
        <ele>587.4</ele>
        <time>2021-02-28T08:06:30Z</time>
      </trkpt>
      <trkpt lat="40.2932590" lon="-3.9112530">
        <ele>588.4</ele>
        <time>2021-02-28T08:06:36Z</time>
      </trkpt>
      <trkpt lat="40.2933820" lon="-3.9113150">
        <ele>589.2</ele>
        <time>2021-02-28T08:06:40Z</time>
      </trkpt>
      <trkpt lat="40.2934730" lon="-3.9113530">
        <ele>589.4</ele>
        <time>2021-02-28T08:06:43Z</time>
      </trkpt>
      <trkpt lat="40.2936590" lon="-3.9114370">
        <ele>590.6</ele>
        <time>2021-02-28T08:06:49Z</time>
      </trkpt>
      <trkpt lat="40.2938730" lon="-3.9115390">
        <ele>591.6</ele>
        <time>2021-02-28T08:06:56Z</time>
      </trkpt>
      <trkpt lat="40.2939960" lon="-3.9115950">
        <ele>592.8</ele>
        <time>2021-02-28T08:07:00Z</time>
      </trkpt>
      <trkpt lat="40.2941790" lon="-3.9116820">
        <ele>593.8</ele>
        <time>2021-02-28T08:07:06Z</time>
      </trkpt>
      <trkpt lat="40.2943030" lon="-3.9117400">
        <ele>594.4</ele>
        <time>2021-02-28T08:07:10Z</time>
      </trkpt>
      <trkpt lat="40.2943990" lon="-3.9117790">
        <ele>595.0</ele>
        <time>2021-02-28T08:07:13Z</time>
      </trkpt>
      <trkpt lat="40.2945530" lon="-3.9118460">
        <ele>596.0</ele>
        <time>2021-02-28T08:07:18Z</time>
      </trkpt>
      <trkpt lat="40.2946460" lon="-3.9118910">
        <ele>596.8</ele>
        <time>2021-02-28T08:07:21Z</time>
      </trkpt>
      <trkpt lat="40.2946770" lon="-3.9119050">
        <ele>597.2</ele>
        <time>2021-02-28T08:07:22Z</time>
      </trkpt>
      <trkpt lat="40.2948270" lon="-3.9119740">
        <ele>598.4</ele>
        <time>2021-02-28T08:07:27Z</time>
      </trkpt>
      <trkpt lat="40.2949480" lon="-3.9120330">
        <ele>599.4</ele>
        <time>2021-02-28T08:07:31Z</time>
      </trkpt>
      <trkpt lat="40.2950090" lon="-3.9120670">
        <ele>599.8</ele>
        <time>2021-02-28T08:07:33Z</time>
      </trkpt>
      <trkpt lat="40.2950680" lon="-3.9121060">
        <ele>600.4</ele>
        <time>2021-02-28T08:07:35Z</time>
      </trkpt>
      <trkpt lat="40.2952300" lon="-3.9122610">
        <ele>601.4</ele>
        <time>2021-02-28T08:07:41Z</time>
      </trkpt>
      <trkpt lat="40.2952640" lon="-3.9122750">
        <ele>601.6</ele>
        <time>2021-02-28T08:07:42Z</time>
      </trkpt>
      <trkpt lat="40.2954060" lon="-3.9122750">
        <ele>602.2</ele>
        <time>2021-02-28T08:07:46Z</time>
      </trkpt>
      <trkpt lat="40.2954830" lon="-3.9122360">
        <ele>602.2</ele>
        <time>2021-02-28T08:07:48Z</time>
      </trkpt>
      <trkpt lat="40.2955520" lon="-3.9121710">
        <ele>602.2</ele>
        <time>2021-02-28T08:07:50Z</time>
      </trkpt>
      <trkpt lat="40.2958440" lon="-3.9118640">
        <ele>602.4</ele>
        <time>2021-02-28T08:07:58Z</time>
      </trkpt>
      <trkpt lat="40.2961560" lon="-3.9115500">
        <ele>601.6</ele>
        <time>2021-02-28T08:08:06Z</time>
      </trkpt>
      <trkpt lat="40.2962360" lon="-3.9114680">
        <ele>601.8</ele>
        <time>2021-02-28T08:08:08Z</time>
      </trkpt>
      <trkpt lat="40.2965250" lon="-3.9111750">
        <ele>601.2</ele>
        <time>2021-02-28T08:08:15Z</time>
      </trkpt>
      <trkpt lat="40.2966500" lon="-3.9110500">
        <ele>600.8</ele>
        <time>2021-02-28T08:08:18Z</time>
      </trkpt>
      <trkpt lat="40.2969050" lon="-3.9107850">
        <ele>600.4</ele>
        <time>2021-02-28T08:08:24Z</time>
      </trkpt>
      <trkpt lat="40.2970360" lon="-3.9106520">
        <ele>600.2</ele>
        <time>2021-02-28T08:08:27Z</time>
      </trkpt>
      <trkpt lat="40.2974300" lon="-3.9102490">
        <ele>599.2</ele>
        <time>2021-02-28T08:08:36Z</time>
      </trkpt>
      <trkpt lat="40.2975720" lon="-3.9101020">
        <ele>599.0</ele>
        <time>2021-02-28T08:08:39Z</time>
      </trkpt>
      <trkpt lat="40.2977240" lon="-3.9099480">
        <ele>598.2</ele>
        <time>2021-02-28T08:08:42Z</time>
      </trkpt>
      <trkpt lat="40.2979490" lon="-3.9097210">
        <ele>597.0</ele>
        <time>2021-02-28T08:08:46Z</time>
      </trkpt>
      <trkpt lat="40.2981260" lon="-3.9095410">
        <ele>595.8</ele>
        <time>2021-02-28T08:08:49Z</time>
      </trkpt>
      <trkpt lat="40.2983070" lon="-3.9093640">
        <ele>594.6</ele>
        <time>2021-02-28T08:08:52Z</time>
      </trkpt>
      <trkpt lat="40.2984930" lon="-3.9091750">
        <ele>593.4</ele>
        <time>2021-02-28T08:08:55Z</time>
      </trkpt>
      <trkpt lat="40.2986870" lon="-3.9089780">
        <ele>591.8</ele>
        <time>2021-02-28T08:08:58Z</time>
      </trkpt>
      <trkpt lat="40.2988840" lon="-3.9087780">
        <ele>590.6</ele>
        <time>2021-02-28T08:09:01Z</time>
      </trkpt>
      <trkpt lat="40.2991380" lon="-3.9085190">
        <ele>589.4</ele>
        <time>2021-02-28T08:09:05Z</time>
      </trkpt>
      <trkpt lat="40.2993060" lon="-3.9083220">
        <ele>589.0</ele>
        <time>2021-02-28T08:09:08Z</time>
      </trkpt>
      <trkpt lat="40.2993780" lon="-3.9081680">
        <ele>589.2</ele>
        <time>2021-02-28T08:09:10Z</time>
      </trkpt>
      <trkpt lat="40.2995770" lon="-3.9079680">
        <ele>589.2</ele>
        <time>2021-02-28T08:09:14Z</time>
      </trkpt>
      <trkpt lat="40.2997670" lon="-3.9079400">
        <ele>589.2</ele>
        <time>2021-02-28T08:09:17Z</time>
      </trkpt>
      <trkpt lat="40.2998250" lon="-3.9079210">
        <ele>589.4</ele>
        <time>2021-02-28T08:09:18Z</time>
      </trkpt>
      <trkpt lat="40.2998800" lon="-3.9078980">
        <ele>589.6</ele>
        <time>2021-02-28T08:09:19Z</time>
      </trkpt>
      <trkpt lat="40.3001190" lon="-3.9078180">
        <ele>590.4</ele>
        <time>2021-02-28T08:09:24Z</time>
      </trkpt>
      <trkpt lat="40.3002450" lon="-3.9077900">
        <ele>591.2</ele>
        <time>2021-02-28T08:09:27Z</time>
      </trkpt>
      <trkpt lat="40.3003230" lon="-3.9077730">
        <ele>591.6</ele>
        <time>2021-02-28T08:09:29Z</time>
      </trkpt>
      <trkpt lat="40.3004370" lon="-3.9077510">
        <ele>592.4</ele>
        <time>2021-02-28T08:09:32Z</time>
      </trkpt>
      <trkpt lat="40.3005140" lon="-3.9077350">
        <ele>592.8</ele>
        <time>2021-02-28T08:09:34Z</time>
      </trkpt>
      <trkpt lat="40.3008340" lon="-3.9076820">
        <ele>593.6</ele>
        <time>2021-02-28T08:09:42Z</time>
      </trkpt>
      <trkpt lat="40.3008760" lon="-3.9076760">
        <ele>593.8</ele>
        <time>2021-02-28T08:09:43Z</time>
      </trkpt>
      <trkpt lat="40.3009200" lon="-3.9076700">
        <ele>593.8</ele>
        <time>2021-02-28T08:09:44Z</time>
      </trkpt>
      <trkpt lat="40.3010130" lon="-3.9076520">
        <ele>593.8</ele>
        <time>2021-02-28T08:09:46Z</time>
      </trkpt>
      <trkpt lat="40.3010600" lon="-3.9076430">
        <ele>593.8</ele>
        <time>2021-02-28T08:09:47Z</time>
      </trkpt>
      <trkpt lat="40.3011090" lon="-3.9076330">
        <ele>593.8</ele>
        <time>2021-02-28T08:09:48Z</time>
      </trkpt>
      <trkpt lat="40.3011570" lon="-3.9076190">
        <ele>593.6</ele>
        <time>2021-02-28T08:09:49Z</time>
      </trkpt>
      <trkpt lat="40.3012060" lon="-3.9076010">
        <ele>593.6</ele>
        <time>2021-02-28T08:09:50Z</time>
      </trkpt>
      <trkpt lat="40.3013080" lon="-3.9075660">
        <ele>593.4</ele>
        <time>2021-02-28T08:09:52Z</time>
      </trkpt>
      <trkpt lat="40.3013610" lon="-3.9075460">
        <ele>593.4</ele>
        <time>2021-02-28T08:09:53Z</time>
      </trkpt>
      <trkpt lat="40.3014140" lon="-3.9075240">
        <ele>593.4</ele>
        <time>2021-02-28T08:09:54Z</time>
      </trkpt>
      <trkpt lat="40.3015200" lon="-3.9074700">
        <ele>593.2</ele>
        <time>2021-02-28T08:09:56Z</time>
      </trkpt>
      <trkpt lat="40.3015750" lon="-3.9074420">
        <ele>593.2</ele>
        <time>2021-02-28T08:09:57Z</time>
      </trkpt>
      <trkpt lat="40.3016820" lon="-3.9073790">
        <ele>592.8</ele>
        <time>2021-02-28T08:09:59Z</time>
      </trkpt>
      <trkpt lat="40.3018410" lon="-3.9072620">
        <ele>592.4</ele>
        <time>2021-02-28T08:10:02Z</time>
      </trkpt>
      <trkpt lat="40.3019390" lon="-3.9071780">
        <ele>592.2</ele>
        <time>2021-02-28T08:10:04Z</time>
      </trkpt>
      <trkpt lat="40.3022720" lon="-3.9068150">
        <ele>592.6</ele>
        <time>2021-02-28T08:10:12Z</time>
      </trkpt>
      <trkpt lat="40.3025790" lon="-3.9064140">
        <ele>593.6</ele>
        <time>2021-02-28T08:10:21Z</time>
      </trkpt>
      <trkpt lat="40.3026220" lon="-3.9063100">
        <ele>594.0</ele>
        <time>2021-02-28T08:10:23Z</time>
      </trkpt>
      <trkpt lat="40.3026510" lon="-3.9061920">
        <ele>594.2</ele>
        <time>2021-02-28T08:10:25Z</time>
      </trkpt>
      <trkpt lat="40.3026740" lon="-3.9061400">
        <ele>594.0</ele>
        <time>2021-02-28T08:10:26Z</time>
      </trkpt>
      <trkpt lat="40.3027900" lon="-3.9060440">
        <ele>594.0</ele>
        <time>2021-02-28T08:10:29Z</time>
      </trkpt>
      <trkpt lat="40.3028380" lon="-3.9060230">
        <ele>593.8</ele>
        <time>2021-02-28T08:10:30Z</time>
      </trkpt>
      <trkpt lat="40.3029310" lon="-3.9059700">
        <ele>593.8</ele>
        <time>2021-02-28T08:10:32Z</time>
      </trkpt>
      <trkpt lat="40.3030390" lon="-3.9058510">
        <ele>594.4</ele>
        <time>2021-02-28T08:10:35Z</time>
      </trkpt>
      <trkpt lat="40.3031100" lon="-3.9057790">
        <ele>594.8</ele>
        <time>2021-02-28T08:10:37Z</time>
      </trkpt>
      <trkpt lat="40.3031860" lon="-3.9057200">
        <ele>595.2</ele>
        <time>2021-02-28T08:10:39Z</time>
      </trkpt>
      <trkpt lat="40.3032630" lon="-3.9056760">
        <ele>595.8</ele>
        <time>2021-02-28T08:10:41Z</time>
      </trkpt>
      <trkpt lat="40.3033410" lon="-3.9056440">
        <ele>596.2</ele>
        <time>2021-02-28T08:10:43Z</time>
      </trkpt>
      <trkpt lat="40.3034950" lon="-3.9056140">
        <ele>597.0</ele>
        <time>2021-02-28T08:10:47Z</time>
      </trkpt>
      <trkpt lat="40.3035330" lon="-3.9056160">
        <ele>597.2</ele>
        <time>2021-02-28T08:10:48Z</time>
      </trkpt>
      <trkpt lat="40.3037210" lon="-3.9056280">
        <ele>598.4</ele>
        <time>2021-02-28T08:10:53Z</time>
      </trkpt>
      <trkpt lat="40.3039170" lon="-3.9056320">
        <ele>599.2</ele>
        <time>2021-02-28T08:10:58Z</time>
      </trkpt>
      <trkpt lat="40.3039560" lon="-3.9056330">
        <ele>599.6</ele>
        <time>2021-02-28T08:10:59Z</time>
      </trkpt>
      <trkpt lat="40.3041320" lon="-3.9055350">
        <ele>600.2</ele>
        <time>2021-02-28T08:11:04Z</time>
      </trkpt>
      <trkpt lat="40.3041610" lon="-3.9054950">
        <ele>600.4</ele>
        <time>2021-02-28T08:11:05Z</time>
      </trkpt>
      <trkpt lat="40.3043600" lon="-3.9052670">
        <ele>600.6</ele>
        <time>2021-02-28T08:11:11Z</time>
      </trkpt>
      <trkpt lat="40.3045880" lon="-3.9051870">
        <ele>600.2</ele>
        <time>2021-02-28T08:11:16Z</time>
      </trkpt>
      <trkpt lat="40.3046870" lon="-3.9052080">
        <ele>600.2</ele>
        <time>2021-02-28T08:11:18Z</time>
      </trkpt>
      <trkpt lat="40.3047860" lon="-3.9052490">
        <ele>600.2</ele>
        <time>2021-02-28T08:11:20Z</time>
      </trkpt>
      <trkpt lat="40.3048320" lon="-3.9052810">
        <ele>600.2</ele>
        <time>2021-02-28T08:11:21Z</time>
      </trkpt>
      <trkpt lat="40.3049760" lon="-3.9054960">
        <ele>600.4</ele>
        <time>2021-02-28T08:11:25Z</time>
      </trkpt>
      <trkpt lat="40.3050200" lon="-3.9058070">
        <ele>600.4</ele>
        <time>2021-02-28T08:11:29Z</time>
      </trkpt>
      <trkpt lat="40.3050220" lon="-3.9058870">
        <ele>600.2</ele>
        <time>2021-02-28T08:11:30Z</time>
      </trkpt>
      <trkpt lat="40.3050670" lon="-3.9061890">
        <ele>600.4</ele>
        <time>2021-02-28T08:11:34Z</time>
      </trkpt>
      <trkpt lat="40.3051040" lon="-3.9062490">
        <ele>600.8</ele>
        <time>2021-02-28T08:11:35Z</time>
      </trkpt>
      <trkpt lat="40.3052850" lon="-3.9064440">
        <ele>601.8</ele>
        <time>2021-02-28T08:11:39Z</time>
      </trkpt>
      <trkpt lat="40.3053310" lon="-3.9064920">
        <ele>602.0</ele>
        <time>2021-02-28T08:11:40Z</time>
      </trkpt>
      <trkpt lat="40.3057680" lon="-3.9069440">
        <ele>600.8</ele>
        <time>2021-02-28T08:11:49Z</time>
      </trkpt>
      <trkpt lat="40.3059230" lon="-3.9071180">
        <ele>599.8</ele>
        <time>2021-02-28T08:11:52Z</time>
      </trkpt>
      <trkpt lat="40.3059770" lon="-3.9071720">
        <ele>599.6</ele>
        <time>2021-02-28T08:11:53Z</time>
      </trkpt>
      <trkpt lat="40.3060830" lon="-3.9072910">
        <ele>599.0</ele>
        <time>2021-02-28T08:11:55Z</time>
      </trkpt>
      <trkpt lat="40.3061300" lon="-3.9073570">
        <ele>598.8</ele>
        <time>2021-02-28T08:11:56Z</time>
      </trkpt>
      <trkpt lat="40.3061720" lon="-3.9074260">
        <ele>598.6</ele>
        <time>2021-02-28T08:11:57Z</time>
      </trkpt>
      <trkpt lat="40.3062330" lon="-3.9075670">
        <ele>598.4</ele>
        <time>2021-02-28T08:11:59Z</time>
      </trkpt>
      <trkpt lat="40.3062760" lon="-3.9077040">
        <ele>598.6</ele>
        <time>2021-02-28T08:12:01Z</time>
      </trkpt>
      <trkpt lat="40.3063010" lon="-3.9077660">
        <ele>598.8</ele>
        <time>2021-02-28T08:12:02Z</time>
      </trkpt>
      <trkpt lat="40.3063520" lon="-3.9078770">
        <ele>599.2</ele>
        <time>2021-02-28T08:12:04Z</time>
      </trkpt>
      <trkpt lat="40.3064320" lon="-3.9080180">
        <ele>599.4</ele>
        <time>2021-02-28T08:12:07Z</time>
      </trkpt>
      <trkpt lat="40.3064550" lon="-3.9080640">
        <ele>599.2</ele>
        <time>2021-02-28T08:12:09Z</time>
      </trkpt>
      <trkpt lat="40.3064120" lon="-3.9080780">
        <ele>599.2</ele>
        <time>2021-02-28T08:12:52Z</time>
      </trkpt>
      <trkpt lat="40.3063950" lon="-3.9081000">
        <ele>599.0</ele>
        <time>2021-02-28T08:12:53Z</time>
      </trkpt>
      <trkpt lat="40.3063810" lon="-3.9081960">
        <ele>599.0</ele>
        <time>2021-02-28T08:12:56Z</time>
      </trkpt>
      <trkpt lat="40.3063460" lon="-3.9084980">
        <ele>599.4</ele>
        <time>2021-02-28T08:13:04Z</time>
      </trkpt>
      <trkpt lat="40.3063240" lon="-3.9087200">
        <ele>598.6</ele>
        <time>2021-02-28T08:13:09Z</time>
      </trkpt>
      <trkpt lat="40.3063280" lon="-3.9087730">
        <ele>598.2</ele>
        <time>2021-02-28T08:13:10Z</time>
      </trkpt>
      <trkpt lat="40.3063360" lon="-3.9089210">
        <ele>597.2</ele>
        <time>2021-02-28T08:13:12Z</time>
      </trkpt>
      <trkpt lat="40.3063320" lon="-3.9091080">
        <ele>595.8</ele>
        <time>2021-02-28T08:13:14Z</time>
      </trkpt>
      <trkpt lat="40.3063260" lon="-3.9092980">
        <ele>594.6</ele>
        <time>2021-02-28T08:13:16Z</time>
      </trkpt>
      <trkpt lat="40.3063380" lon="-3.9097280">
        <ele>594.0</ele>
        <time>2021-02-28T08:13:21Z</time>
      </trkpt>
      <trkpt lat="40.3063630" lon="-3.9101160">
        <ele>593.8</ele>
        <time>2021-02-28T08:13:26Z</time>
      </trkpt>
      <trkpt lat="40.3063480" lon="-3.9101850">
        <ele>593.8</ele>
        <time>2021-02-28T08:13:27Z</time>
      </trkpt>
      <trkpt lat="40.3062880" lon="-3.9103640">
        <ele>594.2</ele>
        <time>2021-02-28T08:13:30Z</time>
      </trkpt>
      <trkpt lat="40.3062580" lon="-3.9104620">
        <ele>595.0</ele>
        <time>2021-02-28T08:13:32Z</time>
      </trkpt>
      <trkpt lat="40.3062510" lon="-3.9105630">
        <ele>595.8</ele>
        <time>2021-02-28T08:13:34Z</time>
      </trkpt>
      <trkpt lat="40.3062630" lon="-3.9106650">
        <ele>596.2</ele>
        <time>2021-02-28T08:13:36Z</time>
      </trkpt>
      <trkpt lat="40.3062760" lon="-3.9107230">
        <ele>596.4</ele>
        <time>2021-02-28T08:13:37Z</time>
      </trkpt>
      <trkpt lat="40.3063060" lon="-3.9108300">
        <ele>597.0</ele>
        <time>2021-02-28T08:13:39Z</time>
      </trkpt>
      <trkpt lat="40.3063440" lon="-3.9109370">
        <ele>597.2</ele>
        <time>2021-02-28T08:13:41Z</time>
      </trkpt>
      <trkpt lat="40.3063830" lon="-3.9110440">
        <ele>597.4</ele>
        <time>2021-02-28T08:13:43Z</time>
      </trkpt>
      <trkpt lat="40.3064030" lon="-3.9110990">
        <ele>597.6</ele>
        <time>2021-02-28T08:13:44Z</time>
      </trkpt>
      <trkpt lat="40.3064830" lon="-3.9113750">
        <ele>597.8</ele>
        <time>2021-02-28T08:13:49Z</time>
      </trkpt>
      <trkpt lat="40.3065200" lon="-3.9114800">
        <ele>598.0</ele>
        <time>2021-02-28T08:13:51Z</time>
      </trkpt>
      <trkpt lat="40.3065970" lon="-3.9116750">
        <ele>599.2</ele>
        <time>2021-02-28T08:13:55Z</time>
      </trkpt>
      <trkpt lat="40.3066920" lon="-3.9119080">
        <ele>600.2</ele>
        <time>2021-02-28T08:14:00Z</time>
      </trkpt>
      <trkpt lat="40.3067440" lon="-3.9120550">
        <ele>600.6</ele>
        <time>2021-02-28T08:14:03Z</time>
      </trkpt>
      <trkpt lat="40.3068080" lon="-3.9122830">
        <ele>600.0</ele>
        <time>2021-02-28T08:14:07Z</time>
      </trkpt>
      <trkpt lat="40.3068420" lon="-3.9124770">
        <ele>599.2</ele>
        <time>2021-02-28T08:14:10Z</time>
      </trkpt>
      <trkpt lat="40.3068550" lon="-3.9125420">
        <ele>599.0</ele>
        <time>2021-02-28T08:14:11Z</time>
      </trkpt>
      <trkpt lat="40.3068780" lon="-3.9126800">
        <ele>598.4</ele>
        <time>2021-02-28T08:14:13Z</time>
      </trkpt>
      <trkpt lat="40.3068900" lon="-3.9127540">
        <ele>598.0</ele>
        <time>2021-02-28T08:14:14Z</time>
      </trkpt>
      <trkpt lat="40.3069610" lon="-3.9131590">
        <ele>597.2</ele>
        <time>2021-02-28T08:14:19Z</time>
      </trkpt>
      <trkpt lat="40.3069870" lon="-3.9132410">
        <ele>596.8</ele>
        <time>2021-02-28T08:14:20Z</time>
      </trkpt>
      <trkpt lat="40.3070510" lon="-3.9135000">
        <ele>595.6</ele>
        <time>2021-02-28T08:14:23Z</time>
      </trkpt>
      <trkpt lat="40.3070730" lon="-3.9136860">
        <ele>595.4</ele>
        <time>2021-02-28T08:14:25Z</time>
      </trkpt>
      <trkpt lat="40.3071180" lon="-3.9140550">
        <ele>594.8</ele>
        <time>2021-02-28T08:14:29Z</time>
      </trkpt>
      <trkpt lat="40.3071640" lon="-3.9142290">
        <ele>594.4</ele>
        <time>2021-02-28T08:14:31Z</time>
      </trkpt>
      <trkpt lat="40.3072270" lon="-3.9143840">
        <ele>594.2</ele>
        <time>2021-02-28T08:14:33Z</time>
      </trkpt>
      <trkpt lat="40.3072980" lon="-3.9145290">
        <ele>594.6</ele>
        <time>2021-02-28T08:14:35Z</time>
      </trkpt>
      <trkpt lat="40.3073350" lon="-3.9145980">
        <ele>594.6</ele>
        <time>2021-02-28T08:14:36Z</time>
      </trkpt>
      <trkpt lat="40.3075110" lon="-3.9149100">
        <ele>594.4</ele>
        <time>2021-02-28T08:14:41Z</time>
      </trkpt>
      <trkpt lat="40.3075690" lon="-3.9150260">
        <ele>594.4</ele>
        <time>2021-02-28T08:14:43Z</time>
      </trkpt>
      <trkpt lat="40.3076380" lon="-3.9151330">
        <ele>594.4</ele>
        <time>2021-02-28T08:14:45Z</time>
      </trkpt>
      <trkpt lat="40.3077410" lon="-3.9152010">
        <ele>594.4</ele>
        <time>2021-02-28T08:14:47Z</time>
      </trkpt>
      <trkpt lat="40.3079200" lon="-3.9151990">
        <ele>594.2</ele>
        <time>2021-02-28T08:14:50Z</time>
      </trkpt>
      <trkpt lat="40.3081930" lon="-3.9151650">
        <ele>594.8</ele>
        <time>2021-02-28T08:14:55Z</time>
      </trkpt>
      <trkpt lat="40.3084030" lon="-3.9151440">
        <ele>594.6</ele>
        <time>2021-02-28T08:14:59Z</time>
      </trkpt>
      <trkpt lat="40.3087370" lon="-3.9151320">
        <ele>593.2</ele>
        <time>2021-02-28T08:15:05Z</time>
      </trkpt>
      <trkpt lat="40.3088570" lon="-3.9151320">
        <ele>593.0</ele>
        <time>2021-02-28T08:15:07Z</time>
      </trkpt>
      <trkpt lat="40.3090980" lon="-3.9151700">
        <ele>592.8</ele>
        <time>2021-02-28T08:15:11Z</time>
      </trkpt>
      <trkpt lat="40.3092010" lon="-3.9152090">
        <ele>593.0</ele>
        <time>2021-02-28T08:15:13Z</time>
      </trkpt>
      <trkpt lat="40.3092980" lon="-3.9152380">
        <ele>593.4</ele>
        <time>2021-02-28T08:15:15Z</time>
      </trkpt>
      <trkpt lat="40.3093950" lon="-3.9152900">
        <ele>593.6</ele>
        <time>2021-02-28T08:15:17Z</time>
      </trkpt>
      <trkpt lat="40.3096100" lon="-3.9153790">
        <ele>593.4</ele>
        <time>2021-02-28T08:15:21Z</time>
      </trkpt>
      <trkpt lat="40.3097160" lon="-3.9153650">
        <ele>593.6</ele>
        <time>2021-02-28T08:15:23Z</time>
      </trkpt>
      <trkpt lat="40.3097710" lon="-3.9153490">
        <ele>593.4</ele>
        <time>2021-02-28T08:15:24Z</time>
      </trkpt>
      <trkpt lat="40.3099940" lon="-3.9152990">
        <ele>592.6</ele>
        <time>2021-02-28T08:15:28Z</time>
      </trkpt>
      <trkpt lat="40.3100540" lon="-3.9153040">
        <ele>592.2</ele>
        <time>2021-02-28T08:15:29Z</time>
      </trkpt>
      <trkpt lat="40.3101150" lon="-3.9153180">
        <ele>591.8</ele>
        <time>2021-02-28T08:15:30Z</time>
      </trkpt>
      <trkpt lat="40.3102420" lon="-3.9153570">
        <ele>590.8</ele>
        <time>2021-02-28T08:15:32Z</time>
      </trkpt>
      <trkpt lat="40.3102990" lon="-3.9153810">
        <ele>590.4</ele>
        <time>2021-02-28T08:15:33Z</time>
      </trkpt>
      <trkpt lat="40.3103540" lon="-3.9154100">
        <ele>590.0</ele>
        <time>2021-02-28T08:15:34Z</time>
      </trkpt>
      <trkpt lat="40.3104690" lon="-3.9154430">
        <ele>589.4</ele>
        <time>2021-02-28T08:15:36Z</time>
      </trkpt>
      <trkpt lat="40.3106500" lon="-3.9154930">
        <ele>588.6</ele>
        <time>2021-02-28T08:15:39Z</time>
      </trkpt>
      <trkpt lat="40.3108240" lon="-3.9155460">
        <ele>588.4</ele>
        <time>2021-02-28T08:15:42Z</time>
      </trkpt>
      <trkpt lat="40.3110130" lon="-3.9156180">
        <ele>587.4</ele>
        <time>2021-02-28T08:15:45Z</time>
      </trkpt>
      <trkpt lat="40.3110830" lon="-3.9156460">
        <ele>586.2</ele>
        <time>2021-02-28T08:15:46Z</time>
      </trkpt>
      <trkpt lat="40.3112320" lon="-3.9157270">
        <ele>585.0</ele>
        <time>2021-02-28T08:15:48Z</time>
      </trkpt>
      <trkpt lat="40.3112940" lon="-3.9157820">
        <ele>584.2</ele>
        <time>2021-02-28T08:15:49Z</time>
      </trkpt>
      <trkpt lat="40.3113460" lon="-3.9158550">
        <ele>583.4</ele>
        <time>2021-02-28T08:15:50Z</time>
      </trkpt>
      <trkpt lat="40.3113930" lon="-3.9160380">
        <ele>582.0</ele>
        <time>2021-02-28T08:15:52Z</time>
      </trkpt>
      <trkpt lat="40.3113960" lon="-3.9161410">
        <ele>581.6</ele>
        <time>2021-02-28T08:15:53Z</time>
      </trkpt>
      <trkpt lat="40.3113800" lon="-3.9163490">
        <ele>580.8</ele>
        <time>2021-02-28T08:15:55Z</time>
      </trkpt>
      <trkpt lat="40.3113360" lon="-3.9165540">
        <ele>579.8</ele>
        <time>2021-02-28T08:15:57Z</time>
      </trkpt>
      <trkpt lat="40.3113020" lon="-3.9166500">
        <ele>579.4</ele>
        <time>2021-02-28T08:15:58Z</time>
      </trkpt>
      <trkpt lat="40.3112730" lon="-3.9167460">
        <ele>579.2</ele>
        <time>2021-02-28T08:15:59Z</time>
      </trkpt>
      <trkpt lat="40.3112700" lon="-3.9168440">
        <ele>578.8</ele>
        <time>2021-02-28T08:16:00Z</time>
      </trkpt>
      <trkpt lat="40.3112800" lon="-3.9169390">
        <ele>578.4</ele>
        <time>2021-02-28T08:16:01Z</time>
      </trkpt>
      <trkpt lat="40.3112790" lon="-3.9173210">
        <ele>579.4</ele>
        <time>2021-02-28T08:16:06Z</time>
      </trkpt>
      <trkpt lat="40.3112690" lon="-3.9173780">
        <ele>579.8</ele>
        <time>2021-02-28T08:16:07Z</time>
      </trkpt>
      <trkpt lat="40.3112710" lon="-3.9174780">
        <ele>580.8</ele>
        <time>2021-02-28T08:16:09Z</time>
      </trkpt>
      <trkpt lat="40.3112880" lon="-3.9175180">
        <ele>581.6</ele>
        <time>2021-02-28T08:16:10Z</time>
      </trkpt>
      <trkpt lat="40.3113750" lon="-3.9175630">
        <ele>581.8</ele>
        <time>2021-02-28T08:16:12Z</time>
      </trkpt>
      <trkpt lat="40.3114180" lon="-3.9175880">
        <ele>581.8</ele>
        <time>2021-02-28T08:16:13Z</time>
      </trkpt>
      <trkpt lat="40.3114650" lon="-3.9176040">
        <ele>581.8</ele>
        <time>2021-02-28T08:16:14Z</time>
      </trkpt>
      <trkpt lat="40.3116170" lon="-3.9176430">
        <ele>581.4</ele>
        <time>2021-02-28T08:16:17Z</time>
      </trkpt>
      <trkpt lat="40.3116710" lon="-3.9176520">
        <ele>581.4</ele>
        <time>2021-02-28T08:16:18Z</time>
      </trkpt>
      <trkpt lat="40.3117800" lon="-3.9176520">
        <ele>581.4</ele>
        <time>2021-02-28T08:16:20Z</time>
      </trkpt>
      <trkpt lat="40.3119440" lon="-3.9176240">
        <ele>581.8</ele>
        <time>2021-02-28T08:16:23Z</time>
      </trkpt>
      <trkpt lat="40.3123350" lon="-3.9175190">
        <ele>581.4</ele>
        <time>2021-02-28T08:16:30Z</time>
      </trkpt>
      <trkpt lat="40.3125410" lon="-3.9174340">
        <ele>580.4</ele>
        <time>2021-02-28T08:16:34Z</time>
      </trkpt>
      <trkpt lat="40.3125940" lon="-3.9174220">
        <ele>580.2</ele>
        <time>2021-02-28T08:16:35Z</time>
      </trkpt>
      <trkpt lat="40.3127130" lon="-3.9174170">
        <ele>579.6</ele>
        <time>2021-02-28T08:16:37Z</time>
      </trkpt>
      <trkpt lat="40.3127750" lon="-3.9174180">
        <ele>578.8</ele>
        <time>2021-02-28T08:16:38Z</time>
      </trkpt>
      <trkpt lat="40.3129230" lon="-3.9174240">
        <ele>577.4</ele>
        <time>2021-02-28T08:16:40Z</time>
      </trkpt>
      <trkpt lat="40.3129970" lon="-3.9174400">
        <ele>576.4</ele>
        <time>2021-02-28T08:16:41Z</time>
      </trkpt>
      <trkpt lat="40.3130740" lon="-3.9174600">
        <ele>575.8</ele>
        <time>2021-02-28T08:16:42Z</time>
      </trkpt>
      <trkpt lat="40.3132340" lon="-3.9174870">
        <ele>574.8</ele>
        <time>2021-02-28T08:16:44Z</time>
      </trkpt>
      <trkpt lat="40.3133810" lon="-3.9174810">
        <ele>573.6</ele>
        <time>2021-02-28T08:16:46Z</time>
      </trkpt>
      <trkpt lat="40.3134500" lon="-3.9174720">
        <ele>573.4</ele>
        <time>2021-02-28T08:16:47Z</time>
      </trkpt>
      <trkpt lat="40.3135850" lon="-3.9174670">
        <ele>573.4</ele>
        <time>2021-02-28T08:16:49Z</time>
      </trkpt>
      <trkpt lat="40.3137010" lon="-3.9174510">
        <ele>573.0</ele>
        <time>2021-02-28T08:16:51Z</time>
      </trkpt>
      <trkpt lat="40.3137490" lon="-3.9174260">
        <ele>573.2</ele>
        <time>2021-02-28T08:16:52Z</time>
      </trkpt>
      <trkpt lat="40.3138910" lon="-3.9172860">
        <ele>572.4</ele>
        <time>2021-02-28T08:16:56Z</time>
      </trkpt>
      <trkpt lat="40.3139440" lon="-3.9172490">
        <ele>572.0</ele>
        <time>2021-02-28T08:16:57Z</time>
      </trkpt>
      <trkpt lat="40.3140610" lon="-3.9171960">
        <ele>571.0</ele>
        <time>2021-02-28T08:16:59Z</time>
      </trkpt>
      <trkpt lat="40.3141320" lon="-3.9172070">
        <ele>570.2</ele>
        <time>2021-02-28T08:17:00Z</time>
      </trkpt>
      <trkpt lat="40.3142050" lon="-3.9172390">
        <ele>569.4</ele>
        <time>2021-02-28T08:17:01Z</time>
      </trkpt>
      <trkpt lat="40.3142690" lon="-3.9172890">
        <ele>568.4</ele>
        <time>2021-02-28T08:17:02Z</time>
      </trkpt>
      <trkpt lat="40.3143350" lon="-3.9173340">
        <ele>567.6</ele>
        <time>2021-02-28T08:17:03Z</time>
      </trkpt>
      <trkpt lat="40.3143990" lon="-3.9173880">
        <ele>567.0</ele>
        <time>2021-02-28T08:17:04Z</time>
      </trkpt>
      <trkpt lat="40.3145840" lon="-3.9175750">
        <ele>566.0</ele>
        <time>2021-02-28T08:17:07Z</time>
      </trkpt>
      <trkpt lat="40.3146490" lon="-3.9176300">
        <ele>565.6</ele>
        <time>2021-02-28T08:17:08Z</time>
      </trkpt>
      <trkpt lat="40.3147830" lon="-3.9177180">
        <ele>564.8</ele>
        <time>2021-02-28T08:17:10Z</time>
      </trkpt>
      <trkpt lat="40.3149820" lon="-3.9178210">
        <ele>564.2</ele>
        <time>2021-02-28T08:17:13Z</time>
      </trkpt>
      <trkpt lat="40.3152150" lon="-3.9179830">
        <ele>563.6</ele>
        <time>2021-02-28T08:17:17Z</time>
      </trkpt>
      <trkpt lat="40.3153460" lon="-3.9180740">
        <ele>563.0</ele>
        <time>2021-02-28T08:17:19Z</time>
      </trkpt>
      <trkpt lat="40.3154190" lon="-3.9181300">
        <ele>562.4</ele>
        <time>2021-02-28T08:17:20Z</time>
      </trkpt>
      <trkpt lat="40.3154910" lon="-3.9182010">
        <ele>561.8</ele>
        <time>2021-02-28T08:17:21Z</time>
      </trkpt>
      <trkpt lat="40.3155580" lon="-3.9182780">
        <ele>560.4</ele>
        <time>2021-02-28T08:17:22Z</time>
      </trkpt>
      <trkpt lat="40.3156230" lon="-3.9183550">
        <ele>559.8</ele>
        <time>2021-02-28T08:17:23Z</time>
      </trkpt>
      <trkpt lat="40.3157610" lon="-3.9184870">
        <ele>559.2</ele>
        <time>2021-02-28T08:17:25Z</time>
      </trkpt>
      <trkpt lat="40.3159060" lon="-3.9185910">
        <ele>558.6</ele>
        <time>2021-02-28T08:17:27Z</time>
      </trkpt>
      <trkpt lat="40.3159650" lon="-3.9186210">
        <ele>558.2</ele>
        <time>2021-02-28T08:17:28Z</time>
      </trkpt>
      <trkpt lat="40.3160070" lon="-3.9186380">
        <ele>557.4</ele>
        <time>2021-02-28T08:17:30Z</time>
      </trkpt>
      <trkpt lat="40.3159970" lon="-3.9186350">
        <ele>557.0</ele>
        <time>2021-02-28T08:17:31Z</time>
      </trkpt>
      <trkpt lat="40.3159350" lon="-3.9186030">
        <ele>557.0</ele>
        <time>2021-02-28T08:17:40Z</time>
      </trkpt>
      <trkpt lat="40.3159070" lon="-3.9185870">
        <ele>557.0</ele>
        <time>2021-02-28T08:17:41Z</time>
      </trkpt>
      <trkpt lat="40.3158420" lon="-3.9185630">
        <ele>557.2</ele>
        <time>2021-02-28T08:17:43Z</time>
      </trkpt>
      <trkpt lat="40.3157630" lon="-3.9185430">
        <ele>557.2</ele>
        <time>2021-02-28T08:17:45Z</time>
      </trkpt>
      <trkpt lat="40.3156220" lon="-3.9184100">
        <ele>558.0</ele>
        <time>2021-02-28T08:17:49Z</time>
      </trkpt>
      <trkpt lat="40.3155930" lon="-3.9183820">
        <ele>558.2</ele>
        <time>2021-02-28T08:17:50Z</time>
      </trkpt>
      <trkpt lat="40.3155200" lon="-3.9182910">
        <ele>558.2</ele>
        <time>2021-02-28T08:17:54Z</time>
      </trkpt>
      <trkpt lat="40.3154700" lon="-3.9182250">
        <ele>558.2</ele>
        <time>2021-02-28T08:18:00Z</time>
      </trkpt>
      <trkpt lat="40.3154580" lon="-3.9182230">
        <ele>558.2</ele>
        <time>2021-02-28T08:18:01Z</time>
      </trkpt>
      <trkpt lat="40.3154390" lon="-3.9182090">
        <ele>558.2</ele>
        <time>2021-02-28T08:18:04Z</time>
      </trkpt>
      <trkpt lat="40.3154390" lon="-3.9182060">
        <ele>558.4</ele>
        <time>2021-02-28T08:18:05Z</time>
      </trkpt>
      <trkpt lat="40.3154800" lon="-3.9182350">
        <ele>558.0</ele>
        <time>2021-02-28T08:20:30Z</time>
      </trkpt>
      <trkpt lat="40.3155000" lon="-3.9182550">
        <ele>557.8</ele>
        <time>2021-02-28T08:20:31Z</time>
      </trkpt>
      <trkpt lat="40.3155280" lon="-3.9182820">
        <ele>557.8</ele>
        <time>2021-02-28T08:20:32Z</time>
      </trkpt>
      <trkpt lat="40.3156670" lon="-3.9184340">
        <ele>557.8</ele>
        <time>2021-02-28T08:20:36Z</time>
      </trkpt>
      <trkpt lat="40.3157090" lon="-3.9184670">
        <ele>557.6</ele>
        <time>2021-02-28T08:20:37Z</time>
      </trkpt>
      <trkpt lat="40.3158960" lon="-3.9185950">
        <ele>557.2</ele>
        <time>2021-02-28T08:20:41Z</time>
      </trkpt>
      <trkpt lat="40.3159920" lon="-3.9186410">
        <ele>557.2</ele>
        <time>2021-02-28T08:20:43Z</time>
      </trkpt>
      <trkpt lat="40.3161350" lon="-3.9187280">
        <ele>557.2</ele>
        <time>2021-02-28T08:20:46Z</time>
      </trkpt>
      <trkpt lat="40.3162240" lon="-3.9187930">
        <ele>557.2</ele>
        <time>2021-02-28T08:20:48Z</time>
      </trkpt>
      <trkpt lat="40.3162640" lon="-3.9188320">
        <ele>557.0</ele>
        <time>2021-02-28T08:20:49Z</time>
      </trkpt>
      <trkpt lat="40.3163370" lon="-3.9189160">
        <ele>556.8</ele>
        <time>2021-02-28T08:20:51Z</time>
      </trkpt>
      <trkpt lat="40.3164320" lon="-3.9190400">
        <ele>556.4</ele>
        <time>2021-02-28T08:20:54Z</time>
      </trkpt>
      <trkpt lat="40.3164200" lon="-3.9190980">
        <ele>556.2</ele>
        <time>2021-02-28T08:20:55Z</time>
      </trkpt>
      <trkpt lat="40.3164060" lon="-3.9191580">
        <ele>555.8</ele>
        <time>2021-02-28T08:20:56Z</time>
      </trkpt>
      <trkpt lat="40.3163640" lon="-3.9193760">
        <ele>554.2</ele>
        <time>2021-02-28T08:20:59Z</time>
      </trkpt>
      <trkpt lat="40.3163450" lon="-3.9195750">
        <ele>553.0</ele>
        <time>2021-02-28T08:21:01Z</time>
      </trkpt>
      <trkpt lat="40.3163220" lon="-3.9197490">
        <ele>551.6</ele>
        <time>2021-02-28T08:21:03Z</time>
      </trkpt>
      <trkpt lat="40.3163040" lon="-3.9198990">
        <ele>550.0</ele>
        <time>2021-02-28T08:21:05Z</time>
      </trkpt>
      <trkpt lat="40.3163010" lon="-3.9199780">
        <ele>549.4</ele>
        <time>2021-02-28T08:21:06Z</time>
      </trkpt>
      <trkpt lat="40.3163020" lon="-3.9200630">
        <ele>548.8</ele>
        <time>2021-02-28T08:21:07Z</time>
      </trkpt>
      <trkpt lat="40.3163020" lon="-3.9201460">
        <ele>548.0</ele>
        <time>2021-02-28T08:21:08Z</time>
      </trkpt>
      <trkpt lat="40.3162780" lon="-3.9202300">
        <ele>547.2</ele>
        <time>2021-02-28T08:21:09Z</time>
      </trkpt>
      <trkpt lat="40.3161980" lon="-3.9203950">
        <ele>545.4</ele>
        <time>2021-02-28T08:21:11Z</time>
      </trkpt>
      <trkpt lat="40.3161100" lon="-3.9205380">
        <ele>543.8</ele>
        <time>2021-02-28T08:21:13Z</time>
      </trkpt>
      <trkpt lat="40.3160850" lon="-3.9206040">
        <ele>542.8</ele>
        <time>2021-02-28T08:21:14Z</time>
      </trkpt>
      <trkpt lat="40.3160770" lon="-3.9206680">
        <ele>542.2</ele>
        <time>2021-02-28T08:21:15Z</time>
      </trkpt>
      <trkpt lat="40.3161280" lon="-3.9207660">
        <ele>542.0</ele>
        <time>2021-02-28T08:21:17Z</time>
      </trkpt>
      <trkpt lat="40.3161550" lon="-3.9208200">
        <ele>542.0</ele>
        <time>2021-02-28T08:21:18Z</time>
      </trkpt>
      <trkpt lat="40.3161660" lon="-3.9208800">
        <ele>542.2</ele>
        <time>2021-02-28T08:21:19Z</time>
      </trkpt>
      <trkpt lat="40.3161430" lon="-3.9209860">
        <ele>542.6</ele>
        <time>2021-02-28T08:21:21Z</time>
      </trkpt>
      <trkpt lat="40.3161120" lon="-3.9210750">
        <ele>543.4</ele>
        <time>2021-02-28T08:21:23Z</time>
      </trkpt>
      <trkpt lat="40.3160670" lon="-3.9211970">
        <ele>544.4</ele>
        <time>2021-02-28T08:21:26Z</time>
      </trkpt>
      <trkpt lat="40.3160530" lon="-3.9212340">
        <ele>544.8</ele>
        <time>2021-02-28T08:21:27Z</time>
      </trkpt>
      <trkpt lat="40.3160220" lon="-3.9213040">
        <ele>545.8</ele>
        <time>2021-02-28T08:21:29Z</time>
      </trkpt>
      <trkpt lat="40.3159890" lon="-3.9214050">
        <ele>546.8</ele>
        <time>2021-02-28T08:21:32Z</time>
      </trkpt>
      <trkpt lat="40.3159530" lon="-3.9214950">
        <ele>548.0</ele>
        <time>2021-02-28T08:21:35Z</time>
      </trkpt>
      <trkpt lat="40.3159310" lon="-3.9215590">
        <ele>548.8</ele>
        <time>2021-02-28T08:21:37Z</time>
      </trkpt>
      <trkpt lat="40.3159190" lon="-3.9215930">
        <ele>549.2</ele>
        <time>2021-02-28T08:21:38Z</time>
      </trkpt>
      <trkpt lat="40.3158720" lon="-3.9216850">
        <ele>550.4</ele>
        <time>2021-02-28T08:21:41Z</time>
      </trkpt>
      <trkpt lat="40.3158560" lon="-3.9217140">
        <ele>550.8</ele>
        <time>2021-02-28T08:21:42Z</time>
      </trkpt>
      <trkpt lat="40.3158390" lon="-3.9217850">
        <ele>551.8</ele>
        <time>2021-02-28T08:21:44Z</time>
      </trkpt>
      <trkpt lat="40.3158090" lon="-3.9218880">
        <ele>553.6</ele>
        <time>2021-02-28T08:21:47Z</time>
      </trkpt>
      <trkpt lat="40.3157900" lon="-3.9220240">
        <ele>555.0</ele>
        <time>2021-02-28T08:21:51Z</time>
      </trkpt>
      <trkpt lat="40.3158120" lon="-3.9220510">
        <ele>555.4</ele>
        <time>2021-02-28T08:21:52Z</time>
      </trkpt>
      <trkpt lat="40.3159550" lon="-3.9221770">
        <ele>554.4</ele>
        <time>2021-02-28T08:21:56Z</time>
      </trkpt>
      <trkpt lat="40.3159750" lon="-3.9222170">
        <ele>554.0</ele>
        <time>2021-02-28T08:21:57Z</time>
      </trkpt>
      <trkpt lat="40.3159710" lon="-3.9223250">
        <ele>552.4</ele>
        <time>2021-02-28T08:21:59Z</time>
      </trkpt>
      <trkpt lat="40.3159660" lon="-3.9223840">
        <ele>552.0</ele>
        <time>2021-02-28T08:22:00Z</time>
      </trkpt>
      <trkpt lat="40.3159890" lon="-3.9224850">
        <ele>551.8</ele>
        <time>2021-02-28T08:22:03Z</time>
      </trkpt>
      <trkpt lat="40.3161410" lon="-3.9226460">
        <ele>551.4</ele>
        <time>2021-02-28T08:22:08Z</time>
      </trkpt>
      <trkpt lat="40.3162500" lon="-3.9227840">
        <ele>550.0</ele>
        <time>2021-02-28T08:22:11Z</time>
      </trkpt>
      <trkpt lat="40.3163710" lon="-3.9229550">
        <ele>549.4</ele>
        <time>2021-02-28T08:22:14Z</time>
      </trkpt>
      <trkpt lat="40.3164520" lon="-3.9230870">
        <ele>549.0</ele>
        <time>2021-02-28T08:22:16Z</time>
      </trkpt>
      <trkpt lat="40.3166190" lon="-3.9233820">
        <ele>547.6</ele>
        <time>2021-02-28T08:22:20Z</time>
      </trkpt>
      <trkpt lat="40.3167570" lon="-3.9236250">
        <ele>546.4</ele>
        <time>2021-02-28T08:22:23Z</time>
      </trkpt>
      <trkpt lat="40.3168580" lon="-3.9238000">
        <ele>545.6</ele>
        <time>2021-02-28T08:22:25Z</time>
      </trkpt>
      <trkpt lat="40.3169090" lon="-3.9238930">
        <ele>545.2</ele>
        <time>2021-02-28T08:22:26Z</time>
      </trkpt>
      <trkpt lat="40.3169620" lon="-3.9239870">
        <ele>545.0</ele>
        <time>2021-02-28T08:22:27Z</time>
      </trkpt>
      <trkpt lat="40.3170730" lon="-3.9241760">
        <ele>544.0</ele>
        <time>2021-02-28T08:22:29Z</time>
      </trkpt>
      <trkpt lat="40.3171850" lon="-3.9243780">
        <ele>543.4</ele>
        <time>2021-02-28T08:22:31Z</time>
      </trkpt>
      <trkpt lat="40.3172430" lon="-3.9244800">
        <ele>543.0</ele>
        <time>2021-02-28T08:22:32Z</time>
      </trkpt>
      <trkpt lat="40.3173600" lon="-3.9246870">
        <ele>542.0</ele>
        <time>2021-02-28T08:22:34Z</time>
      </trkpt>
      <trkpt lat="40.3174210" lon="-3.9247920">
        <ele>540.6</ele>
        <time>2021-02-28T08:22:35Z</time>
      </trkpt>
      <trkpt lat="40.3175440" lon="-3.9250050">
        <ele>539.0</ele>
        <time>2021-02-28T08:22:37Z</time>
      </trkpt>
      <trkpt lat="40.3176450" lon="-3.9252260">
        <ele>537.6</ele>
        <time>2021-02-28T08:22:39Z</time>
      </trkpt>
      <trkpt lat="40.3176790" lon="-3.9253320">
        <ele>536.8</ele>
        <time>2021-02-28T08:22:40Z</time>
      </trkpt>
      <trkpt lat="40.3176910" lon="-3.9254430">
        <ele>536.2</ele>
        <time>2021-02-28T08:22:41Z</time>
      </trkpt>
      <trkpt lat="40.3176370" lon="-3.9256620">
        <ele>535.2</ele>
        <time>2021-02-28T08:22:43Z</time>
      </trkpt>
      <trkpt lat="40.3175820" lon="-3.9257530">
        <ele>535.0</ele>
        <time>2021-02-28T08:22:44Z</time>
      </trkpt>
      <trkpt lat="40.3174200" lon="-3.9258770">
        <ele>534.2</ele>
        <time>2021-02-28T08:22:46Z</time>
      </trkpt>
      <trkpt lat="40.3173420" lon="-3.9259360">
        <ele>534.0</ele>
        <time>2021-02-28T08:22:47Z</time>
      </trkpt>
      <trkpt lat="40.3171150" lon="-3.9261250">
        <ele>533.4</ele>
        <time>2021-02-28T08:22:50Z</time>
      </trkpt>
      <trkpt lat="40.3170390" lon="-3.9261820">
        <ele>533.2</ele>
        <time>2021-02-28T08:22:51Z</time>
      </trkpt>
      <trkpt lat="40.3168960" lon="-3.9262900">
        <ele>533.2</ele>
        <time>2021-02-28T08:22:53Z</time>
      </trkpt>
      <trkpt lat="40.3165300" lon="-3.9265620">
        <ele>533.4</ele>
        <time>2021-02-28T08:22:59Z</time>
      </trkpt>
      <trkpt lat="40.3162460" lon="-3.9267810">
        <ele>533.6</ele>
        <time>2021-02-28T08:23:04Z</time>
      </trkpt>
      <trkpt lat="40.3160890" lon="-3.9269190">
        <ele>533.8</ele>
        <time>2021-02-28T08:23:07Z</time>
      </trkpt>
      <trkpt lat="40.3160340" lon="-3.9269650">
        <ele>533.8</ele>
        <time>2021-02-28T08:23:08Z</time>
      </trkpt>
      <trkpt lat="40.3158760" lon="-3.9271130">
        <ele>534.2</ele>
        <time>2021-02-28T08:23:11Z</time>
      </trkpt>
      <trkpt lat="40.3157940" lon="-3.9272490">
        <ele>534.0</ele>
        <time>2021-02-28T08:23:13Z</time>
      </trkpt>
      <trkpt lat="40.3156300" lon="-3.9275300">
        <ele>534.2</ele>
        <time>2021-02-28T08:23:17Z</time>
      </trkpt>
      <trkpt lat="40.3155910" lon="-3.9276010">
        <ele>534.2</ele>
        <time>2021-02-28T08:23:18Z</time>
      </trkpt>
      <trkpt lat="40.3154710" lon="-3.9278080">
        <ele>534.2</ele>
        <time>2021-02-28T08:23:21Z</time>
      </trkpt>
      <trkpt lat="40.3152090" lon="-3.9282200">
        <ele>534.0</ele>
        <time>2021-02-28T08:23:27Z</time>
      </trkpt>
      <trkpt lat="40.3149610" lon="-3.9285700">
        <ele>533.2</ele>
        <time>2021-02-28T08:23:32Z</time>
      </trkpt>
      <trkpt lat="40.3148460" lon="-3.9287030">
        <ele>532.6</ele>
        <time>2021-02-28T08:23:34Z</time>
      </trkpt>
      <trkpt lat="40.3146730" lon="-3.9289050">
        <ele>532.2</ele>
        <time>2021-02-28T08:23:37Z</time>
      </trkpt>
      <trkpt lat="40.3144540" lon="-3.9291930">
        <ele>531.2</ele>
        <time>2021-02-28T08:23:41Z</time>
      </trkpt>
      <trkpt lat="40.3144060" lon="-3.9292760">
        <ele>531.0</ele>
        <time>2021-02-28T08:23:42Z</time>
      </trkpt>
      <trkpt lat="40.3142380" lon="-3.9296170">
        <ele>530.2</ele>
        <time>2021-02-28T08:23:46Z</time>
      </trkpt>
      <trkpt lat="40.3142080" lon="-3.9297080">
        <ele>530.0</ele>
        <time>2021-02-28T08:23:47Z</time>
      </trkpt>
      <trkpt lat="40.3141820" lon="-3.9298020">
        <ele>529.8</ele>
        <time>2021-02-28T08:23:48Z</time>
      </trkpt>
      <trkpt lat="40.3140880" lon="-3.9303010">
        <ele>529.2</ele>
        <time>2021-02-28T08:23:53Z</time>
      </trkpt>
      <trkpt lat="40.3140030" lon="-3.9306980">
        <ele>528.8</ele>
        <time>2021-02-28T08:23:57Z</time>
      </trkpt>
      <trkpt lat="40.3138900" lon="-3.9310610">
        <ele>528.2</ele>
        <time>2021-02-28T08:24:01Z</time>
      </trkpt>
      <trkpt lat="40.3138280" lon="-3.9312360">
        <ele>527.8</ele>
        <time>2021-02-28T08:24:03Z</time>
      </trkpt>
      <trkpt lat="40.3136290" lon="-3.9316610">
        <ele>526.4</ele>
        <time>2021-02-28T08:24:08Z</time>
      </trkpt>
      <trkpt lat="40.3135860" lon="-3.9317410">
        <ele>526.2</ele>
        <time>2021-02-28T08:24:09Z</time>
      </trkpt>
      <trkpt lat="40.3133870" lon="-3.9320440">
        <ele>525.4</ele>
        <time>2021-02-28T08:24:13Z</time>
      </trkpt>
      <trkpt lat="40.3132110" lon="-3.9322580">
        <ele>525.0</ele>
        <time>2021-02-28T08:24:16Z</time>
      </trkpt>
      <trkpt lat="40.3130220" lon="-3.9324600">
        <ele>524.2</ele>
        <time>2021-02-28T08:24:19Z</time>
      </trkpt>
      <trkpt lat="40.3127720" lon="-3.9327520">
        <ele>523.2</ele>
        <time>2021-02-28T08:24:23Z</time>
      </trkpt>
      <trkpt lat="40.3127090" lon="-3.9328270">
        <ele>523.0</ele>
        <time>2021-02-28T08:24:24Z</time>
      </trkpt>
      <trkpt lat="40.3125280" lon="-3.9330700">
        <ele>522.0</ele>
        <time>2021-02-28T08:24:27Z</time>
      </trkpt>
      <trkpt lat="40.3123730" lon="-3.9333310">
        <ele>521.4</ele>
        <time>2021-02-28T08:24:30Z</time>
      </trkpt>
      <trkpt lat="40.3122140" lon="-3.9337890">
        <ele>522.0</ele>
        <time>2021-02-28T08:24:35Z</time>
      </trkpt>
      <trkpt lat="40.3120550" lon="-3.9342860">
        <ele>522.6</ele>
        <time>2021-02-28T08:24:41Z</time>
      </trkpt>
      <trkpt lat="40.3120260" lon="-3.9343610">
        <ele>522.6</ele>
        <time>2021-02-28T08:24:42Z</time>
      </trkpt>
      <trkpt lat="40.3119190" lon="-3.9345500">
        <ele>522.8</ele>
        <time>2021-02-28T08:24:45Z</time>
      </trkpt>
      <trkpt lat="40.3118750" lon="-3.9346030">
        <ele>523.0</ele>
        <time>2021-02-28T08:24:46Z</time>
      </trkpt>
      <trkpt lat="40.3118300" lon="-3.9346470">
        <ele>523.2</ele>
        <time>2021-02-28T08:24:47Z</time>
      </trkpt>
      <trkpt lat="40.3116850" lon="-3.9347780">
        <ele>523.6</ele>
        <time>2021-02-28T08:24:50Z</time>
      </trkpt>
      <trkpt lat="40.3114420" lon="-3.9349830">
        <ele>524.0</ele>
        <time>2021-02-28T08:24:55Z</time>
      </trkpt>
      <trkpt lat="40.3113480" lon="-3.9350650">
        <ele>524.0</ele>
        <time>2021-02-28T08:24:57Z</time>
      </trkpt>
      <trkpt lat="40.3110810" lon="-3.9353580">
        <ele>524.0</ele>
        <time>2021-02-28T08:25:03Z</time>
      </trkpt>
      <trkpt lat="40.3109340" lon="-3.9356290">
        <ele>523.2</ele>
        <time>2021-02-28T08:25:07Z</time>
      </trkpt>
      <trkpt lat="40.3108690" lon="-3.9357720">
        <ele>523.0</ele>
        <time>2021-02-28T08:25:09Z</time>
      </trkpt>
      <trkpt lat="40.3107720" lon="-3.9359910">
        <ele>522.6</ele>
        <time>2021-02-28T08:25:12Z</time>
      </trkpt>
      <trkpt lat="40.3106410" lon="-3.9362910">
        <ele>522.0</ele>
        <time>2021-02-28T08:25:16Z</time>
      </trkpt>
      <trkpt lat="40.3106050" lon="-3.9363630">
        <ele>522.0</ele>
        <time>2021-02-28T08:25:17Z</time>
      </trkpt>
      <trkpt lat="40.3105370" lon="-3.9365110">
        <ele>521.6</ele>
        <time>2021-02-28T08:25:19Z</time>
      </trkpt>
      <trkpt lat="40.3104340" lon="-3.9367340">
        <ele>521.2</ele>
        <time>2021-02-28T08:25:22Z</time>
      </trkpt>
      <trkpt lat="40.3103990" lon="-3.9368110">
        <ele>520.8</ele>
        <time>2021-02-28T08:25:23Z</time>
      </trkpt>
      <trkpt lat="40.3101530" lon="-3.9373390">
        <ele>519.8</ele>
        <time>2021-02-28T08:25:30Z</time>
      </trkpt>
      <trkpt lat="40.3101160" lon="-3.9374160">
        <ele>519.6</ele>
        <time>2021-02-28T08:25:31Z</time>
      </trkpt>
      <trkpt lat="40.3100790" lon="-3.9374910">
        <ele>519.6</ele>
        <time>2021-02-28T08:25:32Z</time>
      </trkpt>
      <trkpt lat="40.3099710" lon="-3.9377170">
        <ele>519.0</ele>
        <time>2021-02-28T08:25:35Z</time>
      </trkpt>
      <trkpt lat="40.3099480" lon="-3.9378010">
        <ele>519.0</ele>
        <time>2021-02-28T08:25:36Z</time>
      </trkpt>
      <trkpt lat="40.3099360" lon="-3.9378780">
        <ele>518.8</ele>
        <time>2021-02-28T08:25:37Z</time>
      </trkpt>
      <trkpt lat="40.3099300" lon="-3.9379460">
        <ele>518.4</ele>
        <time>2021-02-28T08:25:38Z</time>
      </trkpt>
      <trkpt lat="40.3098860" lon="-3.9380060">
        <ele>517.8</ele>
        <time>2021-02-28T08:25:40Z</time>
      </trkpt>
      <trkpt lat="40.3098670" lon="-3.9379200">
        <ele>517.8</ele>
        <time>2021-02-28T08:25:43Z</time>
      </trkpt>
      <trkpt lat="40.3099300" lon="-3.9379090">
        <ele>518.0</ele>
        <time>2021-02-28T08:25:45Z</time>
      </trkpt>
      <trkpt lat="40.3099680" lon="-3.9379440">
        <ele>518.0</ele>
        <time>2021-02-28T08:25:46Z</time>
      </trkpt>
      <trkpt lat="40.3100040" lon="-3.9381050">
        <ele>517.6</ele>
        <time>2021-02-28T08:25:49Z</time>
      </trkpt>
      <trkpt lat="40.3099920" lon="-3.9381740">
        <ele>517.2</ele>
        <time>2021-02-28T08:25:50Z</time>
      </trkpt>
      <trkpt lat="40.3099810" lon="-3.9382520">
        <ele>517.0</ele>
        <time>2021-02-28T08:25:51Z</time>
      </trkpt>
      <trkpt lat="40.3099550" lon="-3.9384150">
        <ele>516.2</ele>
        <time>2021-02-28T08:25:53Z</time>
      </trkpt>
      <trkpt lat="40.3099550" lon="-3.9384950">
        <ele>515.8</ele>
        <time>2021-02-28T08:25:54Z</time>
      </trkpt>
      <trkpt lat="40.3099710" lon="-3.9385760">
        <ele>515.2</ele>
        <time>2021-02-28T08:25:55Z</time>
      </trkpt>
      <trkpt lat="40.3100020" lon="-3.9387540">
        <ele>514.4</ele>
        <time>2021-02-28T08:25:57Z</time>
      </trkpt>
      <trkpt lat="40.3100220" lon="-3.9388420">
        <ele>514.2</ele>
        <time>2021-02-28T08:25:58Z</time>
      </trkpt>
      <trkpt lat="40.3100540" lon="-3.9389350">
        <ele>513.6</ele>
        <time>2021-02-28T08:25:59Z</time>
      </trkpt>
      <trkpt lat="40.3101350" lon="-3.9390980">
        <ele>512.6</ele>
        <time>2021-02-28T08:26:01Z</time>
      </trkpt>
      <trkpt lat="40.3102400" lon="-3.9392140">
        <ele>511.4</ele>
        <time>2021-02-28T08:26:03Z</time>
      </trkpt>
      <trkpt lat="40.3103030" lon="-3.9392610">
        <ele>510.8</ele>
        <time>2021-02-28T08:26:04Z</time>
      </trkpt>
      <trkpt lat="40.3103630" lon="-3.9393180">
        <ele>510.0</ele>
        <time>2021-02-28T08:26:05Z</time>
      </trkpt>
      <trkpt lat="40.3104220" lon="-3.9393640">
        <ele>509.0</ele>
        <time>2021-02-28T08:26:06Z</time>
      </trkpt>
      <trkpt lat="40.3104890" lon="-3.9393920">
        <ele>508.2</ele>
        <time>2021-02-28T08:26:07Z</time>
      </trkpt>
      <trkpt lat="40.3105500" lon="-3.9394170">
        <ele>507.8</ele>
        <time>2021-02-28T08:26:08Z</time>
      </trkpt>
      <trkpt lat="40.3108420" lon="-3.9395460">
        <ele>507.6</ele>
        <time>2021-02-28T08:26:13Z</time>
      </trkpt>
      <trkpt lat="40.3110110" lon="-3.9396250">
        <ele>507.8</ele>
        <time>2021-02-28T08:26:16Z</time>
      </trkpt>
      <trkpt lat="40.3110660" lon="-3.9396530">
        <ele>507.8</ele>
        <time>2021-02-28T08:26:17Z</time>
      </trkpt>
      <trkpt lat="40.3113020" lon="-3.9397650">
        <ele>507.2</ele>
        <time>2021-02-28T08:26:23Z</time>
      </trkpt>
      <trkpt lat="40.3113410" lon="-3.9398440">
        <ele>507.2</ele>
        <time>2021-02-28T08:26:27Z</time>
      </trkpt>
      <trkpt lat="40.3113300" lon="-3.9398850">
        <ele>507.4</ele>
        <time>2021-02-28T08:26:28Z</time>
      </trkpt>
      <trkpt lat="40.3112500" lon="-3.9400990">
        <ele>507.6</ele>
        <time>2021-02-28T08:26:32Z</time>
      </trkpt>
      <trkpt lat="40.3112220" lon="-3.9402350">
        <ele>507.6</ele>
        <time>2021-02-28T08:26:34Z</time>
      </trkpt>
      <trkpt lat="40.3112140" lon="-3.9404490">
        <ele>507.4</ele>
        <time>2021-02-28T08:26:37Z</time>
      </trkpt>
      <trkpt lat="40.3111910" lon="-3.9408870">
        <ele>506.6</ele>
        <time>2021-02-28T08:26:43Z</time>
      </trkpt>
      <trkpt lat="40.3112010" lon="-3.9410340">
        <ele>506.2</ele>
        <time>2021-02-28T08:26:45Z</time>
      </trkpt>
      <trkpt lat="40.3112130" lon="-3.9410960">
        <ele>506.2</ele>
        <time>2021-02-28T08:26:46Z</time>
      </trkpt>
      <trkpt lat="40.3112500" lon="-3.9412350">
        <ele>506.4</ele>
        <time>2021-02-28T08:26:49Z</time>
      </trkpt>
      <trkpt lat="40.3112670" lon="-3.9412970">
        <ele>506.4</ele>
        <time>2021-02-28T08:26:50Z</time>
      </trkpt>
      <trkpt lat="40.3113730" lon="-3.9417100">
        <ele>505.6</ele>
        <time>2021-02-28T08:26:56Z</time>
      </trkpt>
      <trkpt lat="40.3114820" lon="-3.9420680">
        <ele>505.0</ele>
        <time>2021-02-28T08:27:01Z</time>
      </trkpt>
      <trkpt lat="40.3115170" lon="-3.9421950">
        <ele>504.8</ele>
        <time>2021-02-28T08:27:03Z</time>
      </trkpt>
      <trkpt lat="40.3115540" lon="-3.9423210">
        <ele>504.6</ele>
        <time>2021-02-28T08:27:05Z</time>
      </trkpt>
      <trkpt lat="40.3116990" lon="-3.9427820">
        <ele>504.0</ele>
        <time>2021-02-28T08:27:12Z</time>
      </trkpt>
      <trkpt lat="40.3117210" lon="-3.9428500">
        <ele>503.8</ele>
        <time>2021-02-28T08:27:13Z</time>
      </trkpt>
      <trkpt lat="40.3118530" lon="-3.9433400">
        <ele>503.2</ele>
        <time>2021-02-28T08:27:20Z</time>
      </trkpt>
      <trkpt lat="40.3118850" lon="-3.9435590">
        <ele>502.6</ele>
        <time>2021-02-28T08:27:23Z</time>
      </trkpt>
      <trkpt lat="40.3118960" lon="-3.9437880">
        <ele>501.8</ele>
        <time>2021-02-28T08:27:26Z</time>
      </trkpt>
      <trkpt lat="40.3118980" lon="-3.9439040">
        <ele>501.4</ele>
        <time>2021-02-28T08:27:28Z</time>
      </trkpt>
      <trkpt lat="40.3119030" lon="-3.9439700">
        <ele>501.2</ele>
        <time>2021-02-28T08:27:30Z</time>
      </trkpt>
      <trkpt lat="40.3118930" lon="-3.9441040">
        <ele>501.0</ele>
        <time>2021-02-28T08:27:34Z</time>
      </trkpt>
      <trkpt lat="40.3118840" lon="-3.9441370">
        <ele>501.0</ele>
        <time>2021-02-28T08:27:35Z</time>
      </trkpt>
      <trkpt lat="40.3118740" lon="-3.9442820">
        <ele>501.0</ele>
        <time>2021-02-28T08:27:39Z</time>
      </trkpt>
      <trkpt lat="40.3118740" lon="-3.9443080">
        <ele>501.0</ele>
        <time>2021-02-28T08:27:40Z</time>
      </trkpt>
      <trkpt lat="40.3118600" lon="-3.9444750">
        <ele>501.0</ele>
        <time>2021-02-28T08:27:45Z</time>
      </trkpt>
      <trkpt lat="40.3118430" lon="-3.9446670">
        <ele>501.0</ele>
        <time>2021-02-28T08:27:49Z</time>
      </trkpt>
      <trkpt lat="40.3118290" lon="-3.9447290">
        <ele>501.0</ele>
        <time>2021-02-28T08:27:50Z</time>
      </trkpt>
      <trkpt lat="40.3118140" lon="-3.9448660">
        <ele>501.0</ele>
        <time>2021-02-28T08:27:52Z</time>
      </trkpt>
      <trkpt lat="40.3117800" lon="-3.9451210">
        <ele>500.8</ele>
        <time>2021-02-28T08:27:56Z</time>
      </trkpt>
      <trkpt lat="40.3117660" lon="-3.9452390">
        <ele>501.0</ele>
        <time>2021-02-28T08:27:58Z</time>
      </trkpt>
      <trkpt lat="40.3117070" lon="-3.9457060">
        <ele>500.8</ele>
        <time>2021-02-28T08:28:06Z</time>
      </trkpt>
      <trkpt lat="40.3116710" lon="-3.9459850">
        <ele>500.6</ele>
        <time>2021-02-28T08:28:11Z</time>
      </trkpt>
      <trkpt lat="40.3116090" lon="-3.9463440">
        <ele>500.6</ele>
        <time>2021-02-28T08:28:16Z</time>
      </trkpt>
      <trkpt lat="40.3115930" lon="-3.9464050">
        <ele>500.6</ele>
        <time>2021-02-28T08:28:17Z</time>
      </trkpt>
      <trkpt lat="40.3115550" lon="-3.9465120">
        <ele>500.6</ele>
        <time>2021-02-28T08:28:19Z</time>
      </trkpt>
      <trkpt lat="40.3114720" lon="-3.9467150">
        <ele>500.6</ele>
        <time>2021-02-28T08:28:23Z</time>
      </trkpt>
      <trkpt lat="40.3114460" lon="-3.9467950">
        <ele>500.6</ele>
        <time>2021-02-28T08:28:25Z</time>
      </trkpt>
      <trkpt lat="40.3114400" lon="-3.9468310">
        <ele>500.6</ele>
        <time>2021-02-28T08:28:26Z</time>
      </trkpt>
      <trkpt lat="40.3114370" lon="-3.9468650">
        <ele>500.6</ele>
        <time>2021-02-28T08:28:27Z</time>
      </trkpt>
      <trkpt lat="40.3114400" lon="-3.9469030">
        <ele>500.4</ele>
        <time>2021-02-28T08:28:28Z</time>
      </trkpt>
      <trkpt lat="40.3114530" lon="-3.9469350">
        <ele>500.2</ele>
        <time>2021-02-28T08:28:29Z</time>
      </trkpt>
      <trkpt lat="40.3114890" lon="-3.9469550">
        <ele>500.2</ele>
        <time>2021-02-28T08:28:30Z</time>
      </trkpt>
      <trkpt lat="40.3115340" lon="-3.9469710">
        <ele>500.2</ele>
        <time>2021-02-28T08:28:31Z</time>
      </trkpt>
      <trkpt lat="40.3116830" lon="-3.9470120">
        <ele>500.4</ele>
        <time>2021-02-28T08:28:34Z</time>
      </trkpt>
      <trkpt lat="40.3117360" lon="-3.9470270">
        <ele>500.0</ele>
        <time>2021-02-28T08:28:35Z</time>
      </trkpt>
      <trkpt lat="40.3117900" lon="-3.9470430">
        <ele>500.0</ele>
        <time>2021-02-28T08:28:36Z</time>
      </trkpt>
      <trkpt lat="40.3118870" lon="-3.9470690">
        <ele>500.2</ele>
        <time>2021-02-28T08:28:38Z</time>
      </trkpt>
      <trkpt lat="40.3120280" lon="-3.9471140">
        <ele>500.6</ele>
        <time>2021-02-28T08:28:41Z</time>
      </trkpt>
      <trkpt lat="40.3121250" lon="-3.9471500">
        <ele>500.8</ele>
        <time>2021-02-28T08:28:43Z</time>
      </trkpt>
      <trkpt lat="40.3123280" lon="-3.9472130">
        <ele>501.0</ele>
        <time>2021-02-28T08:28:47Z</time>
      </trkpt>
      <trkpt lat="40.3124670" lon="-3.9472770">
        <ele>501.2</ele>
        <time>2021-02-28T08:28:50Z</time>
      </trkpt>
      <trkpt lat="40.3128610" lon="-3.9475180">
        <ele>502.0</ele>
        <time>2021-02-28T08:28:59Z</time>
      </trkpt>
      <trkpt lat="40.3129380" lon="-3.9475840">
        <ele>502.4</ele>
        <time>2021-02-28T08:29:01Z</time>
      </trkpt>
      <trkpt lat="40.3131120" lon="-3.9477820">
        <ele>503.0</ele>
        <time>2021-02-28T08:29:06Z</time>
      </trkpt>
      <trkpt lat="40.3132040" lon="-3.9479130">
        <ele>503.2</ele>
        <time>2021-02-28T08:29:09Z</time>
      </trkpt>
      <trkpt lat="40.3132630" lon="-3.9480050">
        <ele>503.4</ele>
        <time>2021-02-28T08:29:11Z</time>
      </trkpt>
      <trkpt lat="40.3133180" lon="-3.9480960">
        <ele>503.6</ele>
        <time>2021-02-28T08:29:13Z</time>
      </trkpt>
      <trkpt lat="40.3135570" lon="-3.9483730">
        <ele>504.4</ele>
        <time>2021-02-28T08:29:20Z</time>
      </trkpt>
      <trkpt lat="40.3135940" lon="-3.9484080">
        <ele>504.4</ele>
        <time>2021-02-28T08:29:21Z</time>
      </trkpt>
      <trkpt lat="40.3137040" lon="-3.9485160">
        <ele>504.8</ele>
        <time>2021-02-28T08:29:24Z</time>
      </trkpt>
      <trkpt lat="40.3138690" lon="-3.9486200">
        <ele>505.0</ele>
        <time>2021-02-28T08:29:28Z</time>
      </trkpt>
      <trkpt lat="40.3141220" lon="-3.9486610">
        <ele>505.2</ele>
        <time>2021-02-28T08:29:33Z</time>
      </trkpt>
      <trkpt lat="40.3141730" lon="-3.9486690">
        <ele>505.4</ele>
        <time>2021-02-28T08:29:34Z</time>
      </trkpt>
      <trkpt lat="40.3145190" lon="-3.9487480">
        <ele>506.2</ele>
        <time>2021-02-28T08:29:41Z</time>
      </trkpt>
      <trkpt lat="40.3147150" lon="-3.9488140">
        <ele>506.6</ele>
        <time>2021-02-28T08:29:45Z</time>
      </trkpt>
      <trkpt lat="40.3148150" lon="-3.9488430">
        <ele>506.6</ele>
        <time>2021-02-28T08:29:47Z</time>
      </trkpt>
      <trkpt lat="40.3152380" lon="-3.9490050">
        <ele>507.0</ele>
        <time>2021-02-28T08:29:56Z</time>
      </trkpt>
      <trkpt lat="40.3152820" lon="-3.9490370">
        <ele>507.0</ele>
        <time>2021-02-28T08:29:57Z</time>
      </trkpt>
      <trkpt lat="40.3154760" lon="-3.9491190">
        <ele>506.6</ele>
        <time>2021-02-28T08:30:01Z</time>
      </trkpt>
      <trkpt lat="40.3158940" lon="-3.9493320">
        <ele>506.2</ele>
        <time>2021-02-28T08:30:09Z</time>
      </trkpt>
      <trkpt lat="40.3159430" lon="-3.9493540">
        <ele>506.0</ele>
        <time>2021-02-28T08:30:10Z</time>
      </trkpt>
      <trkpt lat="40.3160510" lon="-3.9493940">
        <ele>505.4</ele>
        <time>2021-02-28T08:30:12Z</time>
      </trkpt>
      <trkpt lat="40.3161650" lon="-3.9494230">
        <ele>505.4</ele>
        <time>2021-02-28T08:30:14Z</time>
      </trkpt>
      <trkpt lat="40.3164640" lon="-3.9494780">
        <ele>505.4</ele>
        <time>2021-02-28T08:30:19Z</time>
      </trkpt>
      <trkpt lat="40.3166420" lon="-3.9494980">
        <ele>505.6</ele>
        <time>2021-02-28T08:30:22Z</time>
      </trkpt>
      <trkpt lat="40.3169280" lon="-3.9495440">
        <ele>505.8</ele>
        <time>2021-02-28T08:30:27Z</time>
      </trkpt>
      <trkpt lat="40.3171540" lon="-3.9495750">
        <ele>505.6</ele>
        <time>2021-02-28T08:30:31Z</time>
      </trkpt>
      <trkpt lat="40.3176490" lon="-3.9496580">
        <ele>506.2</ele>
        <time>2021-02-28T08:30:40Z</time>
      </trkpt>
      <trkpt lat="40.3178080" lon="-3.9496990">
        <ele>506.4</ele>
        <time>2021-02-28T08:30:43Z</time>
      </trkpt>
      <trkpt lat="40.3179120" lon="-3.9497350">
        <ele>506.4</ele>
        <time>2021-02-28T08:30:45Z</time>
      </trkpt>
      <trkpt lat="40.3180120" lon="-3.9497850">
        <ele>506.2</ele>
        <time>2021-02-28T08:30:47Z</time>
      </trkpt>
      <trkpt lat="40.3182080" lon="-3.9498510">
        <ele>506.6</ele>
        <time>2021-02-28T08:30:51Z</time>
      </trkpt>
      <trkpt lat="40.3182970" lon="-3.9498910">
        <ele>506.4</ele>
        <time>2021-02-28T08:30:53Z</time>
      </trkpt>
      <trkpt lat="40.3185530" lon="-3.9499860">
        <ele>506.2</ele>
        <time>2021-02-28T08:30:58Z</time>
      </trkpt>
      <trkpt lat="40.3186090" lon="-3.9499840">
        <ele>506.2</ele>
        <time>2021-02-28T08:30:59Z</time>
      </trkpt>
      <trkpt lat="40.3189520" lon="-3.9499520">
        <ele>506.4</ele>
        <time>2021-02-28T08:31:05Z</time>
      </trkpt>
      <trkpt lat="40.3190640" lon="-3.9499280">
        <ele>506.4</ele>
        <time>2021-02-28T08:31:07Z</time>
      </trkpt>
      <trkpt lat="40.3192300" lon="-3.9498810">
        <ele>506.6</ele>
        <time>2021-02-28T08:31:10Z</time>
      </trkpt>
      <trkpt lat="40.3196420" lon="-3.9497700">
        <ele>507.0</ele>
        <time>2021-02-28T08:31:18Z</time>
      </trkpt>
      <trkpt lat="40.3197970" lon="-3.9497480">
        <ele>507.0</ele>
        <time>2021-02-28T08:31:21Z</time>
      </trkpt>
      <trkpt lat="40.3199550" lon="-3.9497630">
        <ele>507.0</ele>
        <time>2021-02-28T08:31:24Z</time>
      </trkpt>
      <trkpt lat="40.3202160" lon="-3.9498270">
        <ele>507.6</ele>
        <time>2021-02-28T08:31:29Z</time>
      </trkpt>
      <trkpt lat="40.3203120" lon="-3.9498480">
        <ele>507.8</ele>
        <time>2021-02-28T08:31:31Z</time>
      </trkpt>
      <trkpt lat="40.3205490" lon="-3.9499180">
        <ele>506.2</ele>
        <time>2021-02-28T08:31:35Z</time>
      </trkpt>
      <trkpt lat="40.3206220" lon="-3.9499300">
        <ele>505.6</ele>
        <time>2021-02-28T08:31:36Z</time>
      </trkpt>
      <trkpt lat="40.3207010" lon="-3.9499380">
        <ele>505.0</ele>
        <time>2021-02-28T08:31:37Z</time>
      </trkpt>
      <trkpt lat="40.3207850" lon="-3.9499340">
        <ele>504.8</ele>
        <time>2021-02-28T08:31:38Z</time>
      </trkpt>
      <trkpt lat="40.3209330" lon="-3.9499170">
        <ele>504.6</ele>
        <time>2021-02-28T08:31:40Z</time>
      </trkpt>
      <trkpt lat="40.3211980" lon="-3.9498890">
        <ele>506.2</ele>
        <time>2021-02-28T08:31:45Z</time>
      </trkpt>
      <trkpt lat="40.3212800" lon="-3.9498670">
        <ele>507.2</ele>
        <time>2021-02-28T08:31:47Z</time>
      </trkpt>
      <trkpt lat="40.3214010" lon="-3.9498380">
        <ele>508.6</ele>
        <time>2021-02-28T08:31:50Z</time>
      </trkpt>
      <trkpt lat="40.3214910" lon="-3.9498330">
        <ele>508.6</ele>
        <time>2021-02-28T08:31:52Z</time>
      </trkpt>
      <trkpt lat="40.3217410" lon="-3.9498550">
        <ele>508.8</ele>
        <time>2021-02-28T08:31:57Z</time>
      </trkpt>
      <trkpt lat="40.3218470" lon="-3.9498670">
        <ele>508.8</ele>
        <time>2021-02-28T08:31:59Z</time>
      </trkpt>
      <trkpt lat="40.3223190" lon="-3.9499280">
        <ele>507.8</ele>
        <time>2021-02-28T08:32:08Z</time>
      </trkpt>
      <trkpt lat="40.3223710" lon="-3.9499340">
        <ele>507.6</ele>
        <time>2021-02-28T08:32:09Z</time>
      </trkpt>
      <trkpt lat="40.3225190" lon="-3.9499520">
        <ele>507.2</ele>
        <time>2021-02-28T08:32:12Z</time>
      </trkpt>
      <trkpt lat="40.3227850" lon="-3.9500080">
        <ele>507.2</ele>
        <time>2021-02-28T08:32:17Z</time>
      </trkpt>
      <trkpt lat="40.3231450" lon="-3.9500930">
        <ele>506.4</ele>
        <time>2021-02-28T08:32:24Z</time>
      </trkpt>
      <trkpt lat="40.3232340" lon="-3.9501150">
        <ele>506.2</ele>
        <time>2021-02-28T08:32:26Z</time>
      </trkpt>
      <trkpt lat="40.3233840" lon="-3.9501620">
        <ele>506.0</ele>
        <time>2021-02-28T08:32:30Z</time>
      </trkpt>
      <trkpt lat="40.3235030" lon="-3.9502300">
        <ele>505.8</ele>
        <time>2021-02-28T08:32:33Z</time>
      </trkpt>
      <trkpt lat="40.3236470" lon="-3.9503100">
        <ele>505.8</ele>
        <time>2021-02-28T08:32:36Z</time>
      </trkpt>
      <trkpt lat="40.3239860" lon="-3.9503760">
        <ele>505.6</ele>
        <time>2021-02-28T08:32:42Z</time>
      </trkpt>
      <trkpt lat="40.3242840" lon="-3.9504270">
        <ele>505.2</ele>
        <time>2021-02-28T08:32:47Z</time>
      </trkpt>
      <trkpt lat="40.3244710" lon="-3.9504440">
        <ele>504.8</ele>
        <time>2021-02-28T08:32:50Z</time>
      </trkpt>
      <trkpt lat="40.3247710" lon="-3.9504620">
        <ele>504.2</ele>
        <time>2021-02-28T08:32:55Z</time>
      </trkpt>
      <trkpt lat="40.3248940" lon="-3.9504720">
        <ele>504.2</ele>
        <time>2021-02-28T08:32:57Z</time>
      </trkpt>
      <trkpt lat="40.3253870" lon="-3.9505920">
        <ele>504.2</ele>
        <time>2021-02-28T08:33:05Z</time>
      </trkpt>
      <trkpt lat="40.3259040" lon="-3.9507890">
        <ele>504.4</ele>
        <time>2021-02-28T08:33:14Z</time>
      </trkpt>
      <trkpt lat="40.3260670" lon="-3.9508550">
        <ele>504.2</ele>
        <time>2021-02-28T08:33:17Z</time>
      </trkpt>
      <trkpt lat="40.3261650" lon="-3.9509140">
        <ele>504.4</ele>
        <time>2021-02-28T08:33:19Z</time>
      </trkpt>
      <trkpt lat="40.3265290" lon="-3.9510980">
        <ele>505.0</ele>
        <time>2021-02-28T08:33:26Z</time>
      </trkpt>
      <trkpt lat="40.3268710" lon="-3.9511870">
        <ele>504.6</ele>
        <time>2021-02-28T08:33:32Z</time>
      </trkpt>
      <trkpt lat="40.3273440" lon="-3.9512130">
        <ele>504.8</ele>
        <time>2021-02-28T08:33:40Z</time>
      </trkpt>
      <trkpt lat="40.3277300" lon="-3.9511630">
        <ele>505.0</ele>
        <time>2021-02-28T08:33:47Z</time>
      </trkpt>
      <trkpt lat="40.3279380" lon="-3.9511260">
        <ele>505.2</ele>
        <time>2021-02-28T08:33:51Z</time>
      </trkpt>
      <trkpt lat="40.3280410" lon="-3.9511200">
        <ele>505.4</ele>
        <time>2021-02-28T08:33:53Z</time>
      </trkpt>
      <trkpt lat="40.3282980" lon="-3.9511650">
        <ele>506.2</ele>
        <time>2021-02-28T08:33:58Z</time>
      </trkpt>
      <trkpt lat="40.3284570" lon="-3.9511980">
        <ele>506.6</ele>
        <time>2021-02-28T08:34:01Z</time>
      </trkpt>
      <trkpt lat="40.3287310" lon="-3.9512510">
        <ele>507.2</ele>
        <time>2021-02-28T08:34:06Z</time>
      </trkpt>
      <trkpt lat="40.3287850" lon="-3.9512510">
        <ele>507.2</ele>
        <time>2021-02-28T08:34:07Z</time>
      </trkpt>
      <trkpt lat="40.3291170" lon="-3.9512200">
        <ele>507.6</ele>
        <time>2021-02-28T08:34:13Z</time>
      </trkpt>
      <trkpt lat="40.3293240" lon="-3.9512580">
        <ele>508.2</ele>
        <time>2021-02-28T08:34:17Z</time>
      </trkpt>
      <trkpt lat="40.3293750" lon="-3.9512570">
        <ele>508.4</ele>
        <time>2021-02-28T08:34:18Z</time>
      </trkpt>
      <trkpt lat="40.3296980" lon="-3.9512000">
        <ele>508.6</ele>
        <time>2021-02-28T08:34:24Z</time>
      </trkpt>
      <trkpt lat="40.3298040" lon="-3.9512220">
        <ele>508.6</ele>
        <time>2021-02-28T08:34:26Z</time>
      </trkpt>
      <trkpt lat="40.3299530" lon="-3.9512980">
        <ele>508.6</ele>
        <time>2021-02-28T08:34:29Z</time>
      </trkpt>
      <trkpt lat="40.3302840" lon="-3.9515400">
        <ele>507.0</ele>
        <time>2021-02-28T08:34:35Z</time>
      </trkpt>
      <trkpt lat="40.3303450" lon="-3.9515990">
        <ele>505.8</ele>
        <time>2021-02-28T08:34:36Z</time>
      </trkpt>
      <trkpt lat="40.3304730" lon="-3.9517150">
        <ele>505.2</ele>
        <time>2021-02-28T08:34:38Z</time>
      </trkpt>
      <trkpt lat="40.3305490" lon="-3.9517440">
        <ele>504.8</ele>
        <time>2021-02-28T08:34:39Z</time>
      </trkpt>
      <trkpt lat="40.3307010" lon="-3.9517260">
        <ele>504.4</ele>
        <time>2021-02-28T08:34:41Z</time>
      </trkpt>
      <trkpt lat="40.3308430" lon="-3.9516790">
        <ele>504.4</ele>
        <time>2021-02-28T08:34:43Z</time>
      </trkpt>
      <trkpt lat="40.3313000" lon="-3.9515510">
        <ele>504.8</ele>
        <time>2021-02-28T08:34:50Z</time>
      </trkpt>
      <trkpt lat="40.3313530" lon="-3.9515380">
        <ele>505.0</ele>
        <time>2021-02-28T08:34:51Z</time>
      </trkpt>
      <trkpt lat="40.3315040" lon="-3.9515230">
        <ele>505.8</ele>
        <time>2021-02-28T08:34:54Z</time>
      </trkpt>
      <trkpt lat="40.3315470" lon="-3.9515320">
        <ele>506.2</ele>
        <time>2021-02-28T08:34:55Z</time>
      </trkpt>
      <trkpt lat="40.3316180" lon="-3.9515820">
        <ele>507.2</ele>
        <time>2021-02-28T08:34:57Z</time>
      </trkpt>
      <trkpt lat="40.3316460" lon="-3.9516310">
        <ele>507.6</ele>
        <time>2021-02-28T08:34:58Z</time>
      </trkpt>
      <trkpt lat="40.3316780" lon="-3.9516720">
        <ele>508.4</ele>
        <time>2021-02-28T08:34:59Z</time>
      </trkpt>
      <trkpt lat="40.3317130" lon="-3.9517070">
        <ele>508.6</ele>
        <time>2021-02-28T08:35:00Z</time>
      </trkpt>
      <trkpt lat="40.3318280" lon="-3.9517980">
        <ele>509.2</ele>
        <time>2021-02-28T08:35:03Z</time>
      </trkpt>
      <trkpt lat="40.3318680" lon="-3.9518290">
        <ele>509.2</ele>
        <time>2021-02-28T08:35:04Z</time>
      </trkpt>
      <trkpt lat="40.3319090" lon="-3.9518610">
        <ele>509.4</ele>
        <time>2021-02-28T08:35:05Z</time>
      </trkpt>
      <trkpt lat="40.3321160" lon="-3.9520170">
        <ele>509.8</ele>
        <time>2021-02-28T08:35:10Z</time>
      </trkpt>
      <trkpt lat="40.3322080" lon="-3.9520760">
        <ele>509.6</ele>
        <time>2021-02-28T08:35:12Z</time>
      </trkpt>
      <trkpt lat="40.3322580" lon="-3.9520960">
        <ele>509.6</ele>
        <time>2021-02-28T08:35:13Z</time>
      </trkpt>
      <trkpt lat="40.3324450" lon="-3.9521730">
        <ele>509.8</ele>
        <time>2021-02-28T08:35:17Z</time>
      </trkpt>
      <trkpt lat="40.3327380" lon="-3.9522600">
        <ele>509.8</ele>
        <time>2021-02-28T08:35:23Z</time>
      </trkpt>
      <trkpt lat="40.3332510" lon="-3.9524340">
        <ele>510.0</ele>
        <time>2021-02-28T08:35:33Z</time>
      </trkpt>
      <trkpt lat="40.3336520" lon="-3.9525750">
        <ele>510.2</ele>
        <time>2021-02-28T08:35:41Z</time>
      </trkpt>
      <trkpt lat="40.3337010" lon="-3.9525920">
        <ele>510.4</ele>
        <time>2021-02-28T08:35:42Z</time>
      </trkpt>
      <trkpt lat="40.3340970" lon="-3.9527370">
        <ele>511.4</ele>
        <time>2021-02-28T08:35:50Z</time>
      </trkpt>
      <trkpt lat="40.3344480" lon="-3.9528330">
        <ele>512.4</ele>
        <time>2021-02-28T08:35:57Z</time>
      </trkpt>
      <trkpt lat="40.3345000" lon="-3.9528340">
        <ele>512.4</ele>
        <time>2021-02-28T08:35:58Z</time>
      </trkpt>
      <trkpt lat="40.3346060" lon="-3.9528280">
        <ele>512.4</ele>
        <time>2021-02-28T08:36:00Z</time>
      </trkpt>
      <trkpt lat="40.3347640" lon="-3.9527940">
        <ele>512.8</ele>
        <time>2021-02-28T08:36:03Z</time>
      </trkpt>
      <trkpt lat="40.3350340" lon="-3.9527870">
        <ele>512.6</ele>
        <time>2021-02-28T08:36:08Z</time>
      </trkpt>
      <trkpt lat="40.3350850" lon="-3.9528000">
        <ele>512.6</ele>
        <time>2021-02-28T08:36:09Z</time>
      </trkpt>
      <trkpt lat="40.3352440" lon="-3.9527780">
        <ele>511.8</ele>
        <time>2021-02-28T08:36:12Z</time>
      </trkpt>
      <trkpt lat="40.3352910" lon="-3.9527260">
        <ele>511.4</ele>
        <time>2021-02-28T08:36:13Z</time>
      </trkpt>
      <trkpt lat="40.3353540" lon="-3.9525800">
        <ele>510.2</ele>
        <time>2021-02-28T08:36:15Z</time>
      </trkpt>
      <trkpt lat="40.3353640" lon="-3.9524030">
        <ele>509.4</ele>
        <time>2021-02-28T08:36:17Z</time>
      </trkpt>
      <trkpt lat="40.3353610" lon="-3.9523060">
        <ele>509.2</ele>
        <time>2021-02-28T08:36:18Z</time>
      </trkpt>
      <trkpt lat="40.3353570" lon="-3.9520090">
        <ele>508.0</ele>
        <time>2021-02-28T08:36:21Z</time>
      </trkpt>
      <trkpt lat="40.3353800" lon="-3.9517160">
        <ele>506.6</ele>
        <time>2021-02-28T08:36:24Z</time>
      </trkpt>
      <trkpt lat="40.3353940" lon="-3.9516140">
        <ele>506.2</ele>
        <time>2021-02-28T08:36:25Z</time>
      </trkpt>
      <trkpt lat="40.3354360" lon="-3.9514140">
        <ele>505.6</ele>
        <time>2021-02-28T08:36:27Z</time>
      </trkpt>
      <trkpt lat="40.3354950" lon="-3.9512320">
        <ele>505.0</ele>
        <time>2021-02-28T08:36:29Z</time>
      </trkpt>
      <trkpt lat="40.3355400" lon="-3.9511660">
        <ele>504.6</ele>
        <time>2021-02-28T08:36:30Z</time>
      </trkpt>
      <trkpt lat="40.3356660" lon="-3.9511210">
        <ele>504.4</ele>
        <time>2021-02-28T08:36:32Z</time>
      </trkpt>
      <trkpt lat="40.3358650" lon="-3.9510440">
        <ele>503.0</ele>
        <time>2021-02-28T08:36:35Z</time>
      </trkpt>
      <trkpt lat="40.3359240" lon="-3.9510010">
        <ele>502.4</ele>
        <time>2021-02-28T08:36:36Z</time>
      </trkpt>
      <trkpt lat="40.3360360" lon="-3.9509300">
        <ele>502.0</ele>
        <time>2021-02-28T08:36:38Z</time>
      </trkpt>
      <trkpt lat="40.3361350" lon="-3.9509200">
        <ele>501.4</ele>
        <time>2021-02-28T08:36:40Z</time>
      </trkpt>
      <trkpt lat="40.3361790" lon="-3.9509290">
        <ele>501.2</ele>
        <time>2021-02-28T08:36:41Z</time>
      </trkpt>
      <trkpt lat="40.3362410" lon="-3.9509740">
        <ele>501.0</ele>
        <time>2021-02-28T08:36:43Z</time>
      </trkpt>
      <trkpt lat="40.3362550" lon="-3.9510020">
        <ele>500.8</ele>
        <time>2021-02-28T08:36:44Z</time>
      </trkpt>
      <trkpt lat="40.3362700" lon="-3.9510840">
        <ele>500.6</ele>
        <time>2021-02-28T08:36:46Z</time>
      </trkpt>
      <trkpt lat="40.3363240" lon="-3.9512440">
        <ele>501.2</ele>
        <time>2021-02-28T08:36:49Z</time>
      </trkpt>
      <trkpt lat="40.3363580" lon="-3.9512630">
        <ele>501.2</ele>
        <time>2021-02-28T08:36:50Z</time>
      </trkpt>
      <trkpt lat="40.3364180" lon="-3.9512080">
        <ele>501.6</ele>
        <time>2021-02-28T08:36:52Z</time>
      </trkpt>
      <trkpt lat="40.3364450" lon="-3.9511610">
        <ele>501.8</ele>
        <time>2021-02-28T08:36:53Z</time>
      </trkpt>
      <trkpt lat="40.3364720" lon="-3.9511140">
        <ele>502.0</ele>
        <time>2021-02-28T08:36:54Z</time>
      </trkpt>
      <trkpt lat="40.3365630" lon="-3.9509900">
        <ele>502.4</ele>
        <time>2021-02-28T08:36:57Z</time>
      </trkpt>
      <trkpt lat="40.3366270" lon="-3.9509230">
        <ele>503.0</ele>
        <time>2021-02-28T08:36:59Z</time>
      </trkpt>
      <trkpt lat="40.3367360" lon="-3.9508210">
        <ele>503.6</ele>
        <time>2021-02-28T08:37:02Z</time>
      </trkpt>
      <trkpt lat="40.3367780" lon="-3.9507920">
        <ele>503.4</ele>
        <time>2021-02-28T08:37:03Z</time>
      </trkpt>
      <trkpt lat="40.3368730" lon="-3.9507540">
        <ele>503.2</ele>
        <time>2021-02-28T08:37:05Z</time>
      </trkpt>
      <trkpt lat="40.3372580" lon="-3.9506740">
        <ele>503.6</ele>
        <time>2021-02-28T08:37:13Z</time>
      </trkpt>
      <trkpt lat="40.3374020" lon="-3.9507050">
        <ele>504.0</ele>
        <time>2021-02-28T08:37:16Z</time>
      </trkpt>
      <trkpt lat="40.3375450" lon="-3.9507620">
        <ele>504.2</ele>
        <time>2021-02-28T08:37:19Z</time>
      </trkpt>
      <trkpt lat="40.3376860" lon="-3.9508160">
        <ele>504.4</ele>
        <time>2021-02-28T08:37:22Z</time>
      </trkpt>
      <trkpt lat="40.3378310" lon="-3.9508500">
        <ele>504.8</ele>
        <time>2021-02-28T08:37:25Z</time>
      </trkpt>
      <trkpt lat="40.3379250" lon="-3.9508930">
        <ele>504.6</ele>
        <time>2021-02-28T08:37:27Z</time>
      </trkpt>
      <trkpt lat="40.3380830" lon="-3.9509400">
        <ele>504.4</ele>
        <time>2021-02-28T08:37:30Z</time>
      </trkpt>
      <trkpt lat="40.3383350" lon="-3.9510100">
        <ele>502.8</ele>
        <time>2021-02-28T08:37:34Z</time>
      </trkpt>
      <trkpt lat="40.3384090" lon="-3.9510270">
        <ele>502.2</ele>
        <time>2021-02-28T08:37:35Z</time>
      </trkpt>
      <trkpt lat="40.3385580" lon="-3.9510690">
        <ele>501.4</ele>
        <time>2021-02-28T08:37:37Z</time>
      </trkpt>
      <trkpt lat="40.3386940" lon="-3.9511360">
        <ele>501.0</ele>
        <time>2021-02-28T08:37:39Z</time>
      </trkpt>
      <trkpt lat="40.3388230" lon="-3.9511080">
        <ele>500.8</ele>
        <time>2021-02-28T08:37:41Z</time>
      </trkpt>
      <trkpt lat="40.3390230" lon="-3.9509110">
        <ele>500.8</ele>
        <time>2021-02-28T08:37:45Z</time>
      </trkpt>
      <trkpt lat="40.3391150" lon="-3.9508260">
        <ele>500.6</ele>
        <time>2021-02-28T08:37:47Z</time>
      </trkpt>
      <trkpt lat="40.3392250" lon="-3.9507900">
        <ele>500.6</ele>
        <time>2021-02-28T08:37:49Z</time>
      </trkpt>
      <trkpt lat="40.3393440" lon="-3.9507880">
        <ele>500.6</ele>
        <time>2021-02-28T08:37:51Z</time>
      </trkpt>
      <trkpt lat="40.3394440" lon="-3.9508290">
        <ele>500.6</ele>
        <time>2021-02-28T08:37:53Z</time>
      </trkpt>
      <trkpt lat="40.3396200" lon="-3.9508870">
        <ele>500.8</ele>
        <time>2021-02-28T08:37:57Z</time>
      </trkpt>
      <trkpt lat="40.3396680" lon="-3.9508900">
        <ele>500.8</ele>
        <time>2021-02-28T08:37:58Z</time>
      </trkpt>
      <trkpt lat="40.3397580" lon="-3.9509320">
        <ele>500.8</ele>
        <time>2021-02-28T08:38:00Z</time>
      </trkpt>
      <trkpt lat="40.3399460" lon="-3.9510290">
        <ele>501.6</ele>
        <time>2021-02-28T08:38:05Z</time>
      </trkpt>
      <trkpt lat="40.3400380" lon="-3.9509540">
        <ele>502.4</ele>
        <time>2021-02-28T08:38:08Z</time>
      </trkpt>
      <trkpt lat="40.3401030" lon="-3.9509040">
        <ele>503.4</ele>
        <time>2021-02-28T08:38:10Z</time>
      </trkpt>
      <trkpt lat="40.3401720" lon="-3.9508670">
        <ele>504.2</ele>
        <time>2021-02-28T08:38:12Z</time>
      </trkpt>
      <trkpt lat="40.3402070" lon="-3.9508450">
        <ele>504.4</ele>
        <time>2021-02-28T08:38:13Z</time>
      </trkpt>
      <trkpt lat="40.3403200" lon="-3.9507630">
        <ele>504.6</ele>
        <time>2021-02-28T08:38:16Z</time>
      </trkpt>
      <trkpt lat="40.3404570" lon="-3.9507080">
        <ele>504.2</ele>
        <time>2021-02-28T08:38:19Z</time>
      </trkpt>
      <trkpt lat="40.3405650" lon="-3.9506810">
        <ele>503.8</ele>
        <time>2021-02-28T08:38:21Z</time>
      </trkpt>
      <trkpt lat="40.3406250" lon="-3.9506750">
        <ele>503.4</ele>
        <time>2021-02-28T08:38:22Z</time>
      </trkpt>
      <trkpt lat="40.3408100" lon="-3.9506830">
        <ele>502.4</ele>
        <time>2021-02-28T08:38:25Z</time>
      </trkpt>
      <trkpt lat="40.3408640" lon="-3.9506550">
        <ele>502.4</ele>
        <time>2021-02-28T08:38:26Z</time>
      </trkpt>
      <trkpt lat="40.3409970" lon="-3.9505220">
        <ele>502.6</ele>
        <time>2021-02-28T08:38:29Z</time>
      </trkpt>
      <trkpt lat="40.3410390" lon="-3.9504900">
        <ele>502.8</ele>
        <time>2021-02-28T08:38:30Z</time>
      </trkpt>
      <trkpt lat="40.3411580" lon="-3.9504140">
        <ele>503.8</ele>
        <time>2021-02-28T08:38:33Z</time>
      </trkpt>
      <trkpt lat="40.3412720" lon="-3.9503550">
        <ele>504.8</ele>
        <time>2021-02-28T08:38:36Z</time>
      </trkpt>
      <trkpt lat="40.3413110" lon="-3.9503420">
        <ele>505.0</ele>
        <time>2021-02-28T08:38:37Z</time>
      </trkpt>
      <trkpt lat="40.3414390" lon="-3.9503230">
        <ele>505.2</ele>
        <time>2021-02-28T08:38:40Z</time>
      </trkpt>
      <trkpt lat="40.3415320" lon="-3.9503380">
        <ele>505.0</ele>
        <time>2021-02-28T08:38:42Z</time>
      </trkpt>
      <trkpt lat="40.3417770" lon="-3.9503840">
        <ele>505.2</ele>
        <time>2021-02-28T08:38:47Z</time>
      </trkpt>
      <trkpt lat="40.3418250" lon="-3.9503960">
        <ele>505.0</ele>
        <time>2021-02-28T08:38:48Z</time>
      </trkpt>
      <trkpt lat="40.3419180" lon="-3.9504210">
        <ele>505.0</ele>
        <time>2021-02-28T08:38:50Z</time>
      </trkpt>
      <trkpt lat="40.3421570" lon="-3.9505120">
        <ele>505.0</ele>
        <time>2021-02-28T08:38:55Z</time>
      </trkpt>
      <trkpt lat="40.3422590" lon="-3.9505280">
        <ele>505.0</ele>
        <time>2021-02-28T08:38:57Z</time>
      </trkpt>
      <trkpt lat="40.3423630" lon="-3.9504950">
        <ele>504.8</ele>
        <time>2021-02-28T08:38:59Z</time>
      </trkpt>
      <trkpt lat="40.3425790" lon="-3.9503870">
        <ele>504.4</ele>
        <time>2021-02-28T08:39:03Z</time>
      </trkpt>
      <trkpt lat="40.3426370" lon="-3.9503620">
        <ele>504.4</ele>
        <time>2021-02-28T08:39:04Z</time>
      </trkpt>
      <trkpt lat="40.3429170" lon="-3.9502160">
        <ele>503.4</ele>
        <time>2021-02-28T08:39:09Z</time>
      </trkpt>
      <trkpt lat="40.3430330" lon="-3.9501860">
        <ele>502.4</ele>
        <time>2021-02-28T08:39:12Z</time>
      </trkpt>
      <trkpt lat="40.3430730" lon="-3.9501730">
        <ele>502.2</ele>
        <time>2021-02-28T08:39:13Z</time>
      </trkpt>
      <trkpt lat="40.3433630" lon="-3.9500630">
        <ele>502.4</ele>
        <time>2021-02-28T08:39:19Z</time>
      </trkpt>
      <trkpt lat="40.3437430" lon="-3.9499790">
        <ele>502.2</ele>
        <time>2021-02-28T08:39:26Z</time>
      </trkpt>
      <trkpt lat="40.3442420" lon="-3.9499220">
        <ele>502.2</ele>
        <time>2021-02-28T08:39:35Z</time>
      </trkpt>
      <trkpt lat="40.3444610" lon="-3.9498850">
        <ele>502.0</ele>
        <time>2021-02-28T08:39:39Z</time>
      </trkpt>
      <trkpt lat="40.3446140" lon="-3.9497930">
        <ele>502.0</ele>
        <time>2021-02-28T08:39:42Z</time>
      </trkpt>
      <trkpt lat="40.3446910" lon="-3.9496950">
        <ele>501.6</ele>
        <time>2021-02-28T08:39:44Z</time>
      </trkpt>
      <trkpt lat="40.3447310" lon="-3.9496500">
        <ele>501.6</ele>
        <time>2021-02-28T08:39:45Z</time>
      </trkpt>
      <trkpt lat="40.3447760" lon="-3.9496110">
        <ele>501.6</ele>
        <time>2021-02-28T08:39:46Z</time>
      </trkpt>
      <trkpt lat="40.3449850" lon="-3.9494970">
        <ele>502.2</ele>
        <time>2021-02-28T08:39:50Z</time>
      </trkpt>
      <trkpt lat="40.3450400" lon="-3.9494780">
        <ele>502.2</ele>
        <time>2021-02-28T08:39:51Z</time>
      </trkpt>
      <trkpt lat="40.3452610" lon="-3.9494500">
        <ele>502.2</ele>
        <time>2021-02-28T08:39:55Z</time>
      </trkpt>
      <trkpt lat="40.3453730" lon="-3.9494580">
        <ele>502.4</ele>
        <time>2021-02-28T08:39:57Z</time>
      </trkpt>
      <trkpt lat="40.3457560" lon="-3.9494950">
        <ele>502.6</ele>
        <time>2021-02-28T08:40:04Z</time>
      </trkpt>
      <trkpt lat="40.3458650" lon="-3.9494870">
        <ele>502.6</ele>
        <time>2021-02-28T08:40:06Z</time>
      </trkpt>
      <trkpt lat="40.3459760" lon="-3.9494810">
        <ele>502.6</ele>
        <time>2021-02-28T08:40:08Z</time>
      </trkpt>
      <trkpt lat="40.3460890" lon="-3.9495130">
        <ele>502.6</ele>
        <time>2021-02-28T08:40:10Z</time>
      </trkpt>
      <trkpt lat="40.3461970" lon="-3.9495660">
        <ele>502.4</ele>
        <time>2021-02-28T08:40:12Z</time>
      </trkpt>
      <trkpt lat="40.3464070" lon="-3.9496780">
        <ele>502.2</ele>
        <time>2021-02-28T08:40:16Z</time>
      </trkpt>
      <trkpt lat="40.3465010" lon="-3.9497530">
        <ele>502.0</ele>
        <time>2021-02-28T08:40:18Z</time>
      </trkpt>
      <trkpt lat="40.3466230" lon="-3.9499110">
        <ele>501.6</ele>
        <time>2021-02-28T08:40:21Z</time>
      </trkpt>
      <trkpt lat="40.3467130" lon="-3.9500960">
        <ele>502.0</ele>
        <time>2021-02-28T08:40:24Z</time>
      </trkpt>
      <trkpt lat="40.3467710" lon="-3.9502200">
        <ele>502.0</ele>
        <time>2021-02-28T08:40:26Z</time>
      </trkpt>
      <trkpt lat="40.3468460" lon="-3.9503280">
        <ele>502.4</ele>
        <time>2021-02-28T08:40:28Z</time>
      </trkpt>
      <trkpt lat="40.3469430" lon="-3.9503940">
        <ele>502.4</ele>
        <time>2021-02-28T08:40:30Z</time>
      </trkpt>
      <trkpt lat="40.3470550" lon="-3.9504370">
        <ele>502.6</ele>
        <time>2021-02-28T08:40:32Z</time>
      </trkpt>
      <trkpt lat="40.3472850" lon="-3.9505540">
        <ele>501.6</ele>
        <time>2021-02-28T08:40:36Z</time>
      </trkpt>
      <trkpt lat="40.3473970" lon="-3.9506220">
        <ele>501.4</ele>
        <time>2021-02-28T08:40:38Z</time>
      </trkpt>
      <trkpt lat="40.3476730" lon="-3.9507730">
        <ele>502.0</ele>
        <time>2021-02-28T08:40:43Z</time>
      </trkpt>
      <trkpt lat="40.3477270" lon="-3.9507890">
        <ele>502.0</ele>
        <time>2021-02-28T08:40:44Z</time>
      </trkpt>
      <trkpt lat="40.3479640" lon="-3.9507810">
        <ele>502.0</ele>
        <time>2021-02-28T08:40:48Z</time>
      </trkpt>
      <trkpt lat="40.3480200" lon="-3.9507710">
        <ele>502.0</ele>
        <time>2021-02-28T08:40:49Z</time>
      </trkpt>
      <trkpt lat="40.3481810" lon="-3.9507330">
        <ele>502.4</ele>
        <time>2021-02-28T08:40:52Z</time>
      </trkpt>
      <trkpt lat="40.3483330" lon="-3.9507240">
        <ele>503.0</ele>
        <time>2021-02-28T08:40:55Z</time>
      </trkpt>
      <trkpt lat="40.3483870" lon="-3.9507370">
        <ele>502.8</ele>
        <time>2021-02-28T08:40:56Z</time>
      </trkpt>
      <trkpt lat="40.3487270" lon="-3.9508300">
        <ele>502.4</ele>
        <time>2021-02-28T08:41:02Z</time>
      </trkpt>
      <trkpt lat="40.3487860" lon="-3.9508330">
        <ele>502.4</ele>
        <time>2021-02-28T08:41:03Z</time>
      </trkpt>
      <trkpt lat="40.3489530" lon="-3.9507760">
        <ele>502.4</ele>
        <time>2021-02-28T08:41:06Z</time>
      </trkpt>
      <trkpt lat="40.3490030" lon="-3.9507410">
        <ele>502.6</ele>
        <time>2021-02-28T08:41:07Z</time>
      </trkpt>
      <trkpt lat="40.3493160" lon="-3.9505860">
        <ele>502.8</ele>
        <time>2021-02-28T08:41:13Z</time>
      </trkpt>
      <trkpt lat="40.3495800" lon="-3.9505290">
        <ele>502.8</ele>
        <time>2021-02-28T08:41:18Z</time>
      </trkpt>
      <trkpt lat="40.3496810" lon="-3.9505140">
        <ele>502.8</ele>
        <time>2021-02-28T08:41:20Z</time>
      </trkpt>
      <trkpt lat="40.3498330" lon="-3.9504950">
        <ele>502.4</ele>
        <time>2021-02-28T08:41:23Z</time>
      </trkpt>
      <trkpt lat="40.3499380" lon="-3.9504740">
        <ele>501.4</ele>
        <time>2021-02-28T08:41:25Z</time>
      </trkpt>
      <trkpt lat="40.3499900" lon="-3.9504670">
        <ele>501.2</ele>
        <time>2021-02-28T08:41:26Z</time>
      </trkpt>
      <trkpt lat="40.3501280" lon="-3.9504570">
        <ele>502.6</ele>
        <time>2021-02-28T08:41:29Z</time>
      </trkpt>
      <trkpt lat="40.3502650" lon="-3.9504380">
        <ele>502.6</ele>
        <time>2021-02-28T08:41:32Z</time>
      </trkpt>
      <trkpt lat="40.3504980" lon="-3.9504590">
        <ele>503.0</ele>
        <time>2021-02-28T08:41:37Z</time>
      </trkpt>
      <trkpt lat="40.3505370" lon="-3.9504670">
        <ele>503.2</ele>
        <time>2021-02-28T08:41:38Z</time>
      </trkpt>
      <trkpt lat="40.3505760" lon="-3.9504680">
        <ele>503.6</ele>
        <time>2021-02-28T08:41:39Z</time>
      </trkpt>
      <trkpt lat="40.3507200" lon="-3.9504770">
        <ele>504.8</ele>
        <time>2021-02-28T08:41:43Z</time>
      </trkpt>
      <trkpt lat="40.3508280" lon="-3.9505960">
        <ele>505.6</ele>
        <time>2021-02-28T08:41:47Z</time>
      </trkpt>
      <trkpt lat="40.3508430" lon="-3.9506440">
        <ele>505.4</ele>
        <time>2021-02-28T08:41:48Z</time>
      </trkpt>
      <trkpt lat="40.3509050" lon="-3.9508700">
        <ele>505.6</ele>
        <time>2021-02-28T08:41:52Z</time>
      </trkpt>
      <trkpt lat="40.3509640" lon="-3.9509680">
        <ele>505.8</ele>
        <time>2021-02-28T08:41:54Z</time>
      </trkpt>
      <trkpt lat="40.3510480" lon="-3.9510330">
        <ele>505.8</ele>
        <time>2021-02-28T08:41:56Z</time>
      </trkpt>
      <trkpt lat="40.3511370" lon="-3.9510800">
        <ele>505.8</ele>
        <time>2021-02-28T08:41:58Z</time>
      </trkpt>
      <trkpt lat="40.3513460" lon="-3.9512180">
        <ele>506.2</ele>
        <time>2021-02-28T08:42:03Z</time>
      </trkpt>
      <trkpt lat="40.3514180" lon="-3.9512800">
        <ele>506.4</ele>
        <time>2021-02-28T08:42:05Z</time>
      </trkpt>
      <trkpt lat="40.3514890" lon="-3.9513990">
        <ele>506.8</ele>
        <time>2021-02-28T08:42:08Z</time>
      </trkpt>
      <trkpt lat="40.3514910" lon="-3.9515810">
        <ele>508.0</ele>
        <time>2021-02-28T08:42:12Z</time>
      </trkpt>
      <trkpt lat="40.3514530" lon="-3.9517340">
        <ele>509.2</ele>
        <time>2021-02-28T08:42:16Z</time>
      </trkpt>
      <trkpt lat="40.3514070" lon="-3.9518320">
        <ele>510.0</ele>
        <time>2021-02-28T08:42:19Z</time>
      </trkpt>
      <trkpt lat="40.3513860" lon="-3.9518590">
        <ele>510.4</ele>
        <time>2021-02-28T08:42:20Z</time>
      </trkpt>
      <trkpt lat="40.3512520" lon="-3.9519640">
        <ele>511.2</ele>
        <time>2021-02-28T08:42:25Z</time>
      </trkpt>
      <trkpt lat="40.3512230" lon="-3.9519840">
        <ele>511.4</ele>
        <time>2021-02-28T08:42:26Z</time>
      </trkpt>
      <trkpt lat="40.3510420" lon="-3.9521650">
        <ele>512.4</ele>
        <time>2021-02-28T08:42:33Z</time>
      </trkpt>
      <trkpt lat="40.3510140" lon="-3.9523700">
        <ele>513.4</ele>
        <time>2021-02-28T08:42:38Z</time>
      </trkpt>
      <trkpt lat="40.3510180" lon="-3.9524130">
        <ele>513.6</ele>
        <time>2021-02-28T08:42:39Z</time>
      </trkpt>
      <trkpt lat="40.3510750" lon="-3.9526590">
        <ele>514.6</ele>
        <time>2021-02-28T08:42:45Z</time>
      </trkpt>
      <trkpt lat="40.3510820" lon="-3.9526990">
        <ele>514.6</ele>
        <time>2021-02-28T08:42:46Z</time>
      </trkpt>
      <trkpt lat="40.3510560" lon="-3.9528550">
        <ele>515.2</ele>
        <time>2021-02-28T08:42:50Z</time>
      </trkpt>
      <trkpt lat="40.3510210" lon="-3.9529200">
        <ele>515.8</ele>
        <time>2021-02-28T08:42:52Z</time>
      </trkpt>
      <trkpt lat="40.3509370" lon="-3.9530200">
        <ele>517.0</ele>
        <time>2021-02-28T08:42:56Z</time>
      </trkpt>
      <trkpt lat="40.3507950" lon="-3.9531200">
        <ele>518.0</ele>
        <time>2021-02-28T08:43:01Z</time>
      </trkpt>
      <trkpt lat="40.3507710" lon="-3.9531460">
        <ele>518.4</ele>
        <time>2021-02-28T08:43:02Z</time>
      </trkpt>
      <trkpt lat="40.3507120" lon="-3.9532380">
        <ele>519.2</ele>
        <time>2021-02-28T08:43:05Z</time>
      </trkpt>
      <trkpt lat="40.3506670" lon="-3.9533820">
        <ele>520.2</ele>
        <time>2021-02-28T08:43:09Z</time>
      </trkpt>
      <trkpt lat="40.3506550" lon="-3.9534800">
        <ele>521.2</ele>
        <time>2021-02-28T08:43:12Z</time>
      </trkpt>
      <trkpt lat="40.3506480" lon="-3.9535770">
        <ele>522.4</ele>
        <time>2021-02-28T08:43:15Z</time>
      </trkpt>
      <trkpt lat="40.3506480" lon="-3.9536090">
        <ele>522.6</ele>
        <time>2021-02-28T08:43:16Z</time>
      </trkpt>
      <trkpt lat="40.3506480" lon="-3.9536740">
        <ele>523.4</ele>
        <time>2021-02-28T08:43:18Z</time>
      </trkpt>
      <trkpt lat="40.3506480" lon="-3.9538110">
        <ele>524.6</ele>
        <time>2021-02-28T08:43:22Z</time>
      </trkpt>
      <trkpt lat="40.3506470" lon="-3.9538820">
        <ele>525.6</ele>
        <time>2021-02-28T08:43:24Z</time>
      </trkpt>
      <trkpt lat="40.3506460" lon="-3.9539180">
        <ele>525.8</ele>
        <time>2021-02-28T08:43:25Z</time>
      </trkpt>
      <trkpt lat="40.3506400" lon="-3.9541720">
        <ele>526.8</ele>
        <time>2021-02-28T08:43:32Z</time>
      </trkpt>
      <trkpt lat="40.3506390" lon="-3.9542050">
        <ele>527.0</ele>
        <time>2021-02-28T08:43:33Z</time>
      </trkpt>
      <trkpt lat="40.3506530" lon="-3.9543430">
        <ele>528.2</ele>
        <time>2021-02-28T08:43:37Z</time>
      </trkpt>
      <trkpt lat="40.3506740" lon="-3.9544410">
        <ele>529.0</ele>
        <time>2021-02-28T08:43:40Z</time>
      </trkpt>
      <trkpt lat="40.3506830" lon="-3.9544720">
        <ele>529.4</ele>
        <time>2021-02-28T08:43:41Z</time>
      </trkpt>
      <trkpt lat="40.3507400" lon="-3.9545850">
        <ele>530.4</ele>
        <time>2021-02-28T08:43:45Z</time>
      </trkpt>
      <trkpt lat="40.3507740" lon="-3.9546400">
        <ele>531.2</ele>
        <time>2021-02-28T08:43:47Z</time>
      </trkpt>
      <trkpt lat="40.3507910" lon="-3.9546670">
        <ele>531.8</ele>
        <time>2021-02-28T08:43:48Z</time>
      </trkpt>
      <trkpt lat="40.3508520" lon="-3.9547810">
        <ele>533.0</ele>
        <time>2021-02-28T08:43:52Z</time>
      </trkpt>
      <trkpt lat="40.3509090" lon="-3.9548980">
        <ele>534.0</ele>
        <time>2021-02-28T08:43:56Z</time>
      </trkpt>
      <trkpt lat="40.3509850" lon="-3.9550910">
        <ele>535.2</ele>
        <time>2021-02-28T08:44:02Z</time>
      </trkpt>
      <trkpt lat="40.3510510" lon="-3.9552090">
        <ele>536.0</ele>
        <time>2021-02-28T08:44:06Z</time>
      </trkpt>
      <trkpt lat="40.3511220" lon="-3.9552690">
        <ele>536.4</ele>
        <time>2021-02-28T08:44:09Z</time>
      </trkpt>
      <trkpt lat="40.3512050" lon="-3.9553050">
        <ele>537.4</ele>
        <time>2021-02-28T08:44:12Z</time>
      </trkpt>
      <trkpt lat="40.3512340" lon="-3.9553120">
        <ele>537.4</ele>
        <time>2021-02-28T08:44:13Z</time>
      </trkpt>
      <trkpt lat="40.3513950" lon="-3.9553670">
        <ele>538.6</ele>
        <time>2021-02-28T08:44:19Z</time>
      </trkpt>
      <trkpt lat="40.3515620" lon="-3.9554640">
        <ele>539.6</ele>
        <time>2021-02-28T08:44:25Z</time>
      </trkpt>
      <trkpt lat="40.3516170" lon="-3.9554910">
        <ele>540.0</ele>
        <time>2021-02-28T08:44:27Z</time>
      </trkpt>
      <trkpt lat="40.3517330" lon="-3.9555570">
        <ele>540.8</ele>
        <time>2021-02-28T08:44:31Z</time>
      </trkpt>
      <trkpt lat="40.3518390" lon="-3.9556270">
        <ele>541.4</ele>
        <time>2021-02-28T08:44:35Z</time>
      </trkpt>
      <trkpt lat="40.3518900" lon="-3.9556700">
        <ele>541.8</ele>
        <time>2021-02-28T08:44:37Z</time>
      </trkpt>
      <trkpt lat="40.3519650" lon="-3.9558130">
        <ele>542.4</ele>
        <time>2021-02-28T08:44:41Z</time>
      </trkpt>
      <trkpt lat="40.3520680" lon="-3.9562090">
        <ele>542.6</ele>
        <time>2021-02-28T08:44:49Z</time>
      </trkpt>
      <trkpt lat="40.3520930" lon="-3.9564090">
        <ele>542.6</ele>
        <time>2021-02-28T08:44:53Z</time>
      </trkpt>
      <trkpt lat="40.3521170" lon="-3.9565580">
        <ele>542.8</ele>
        <time>2021-02-28T08:44:56Z</time>
      </trkpt>
      <trkpt lat="40.3521350" lon="-3.9566620">
        <ele>543.0</ele>
        <time>2021-02-28T08:44:58Z</time>
      </trkpt>
      <trkpt lat="40.3521730" lon="-3.9569230">
        <ele>543.4</ele>
        <time>2021-02-28T08:45:03Z</time>
      </trkpt>
      <trkpt lat="40.3522060" lon="-3.9571320">
        <ele>543.6</ele>
        <time>2021-02-28T08:45:07Z</time>
      </trkpt>
      <trkpt lat="40.3522210" lon="-3.9572440">
        <ele>543.8</ele>
        <time>2021-02-28T08:45:09Z</time>
      </trkpt>
      <trkpt lat="40.3522280" lon="-3.9573000">
        <ele>544.0</ele>
        <time>2021-02-28T08:45:10Z</time>
      </trkpt>
      <trkpt lat="40.3522830" lon="-3.9577440">
        <ele>544.4</ele>
        <time>2021-02-28T08:45:18Z</time>
      </trkpt>
      <trkpt lat="40.3522830" lon="-3.9578010">
        <ele>544.6</ele>
        <time>2021-02-28T08:45:19Z</time>
      </trkpt>
      <trkpt lat="40.3522740" lon="-3.9581380">
        <ele>545.0</ele>
        <time>2021-02-28T08:45:25Z</time>
      </trkpt>
      <trkpt lat="40.3522860" lon="-3.9583160">
        <ele>545.4</ele>
        <time>2021-02-28T08:45:28Z</time>
      </trkpt>
      <trkpt lat="40.3523180" lon="-3.9587920">
        <ele>545.8</ele>
        <time>2021-02-28T08:45:36Z</time>
      </trkpt>
      <trkpt lat="40.3523370" lon="-3.9589710">
        <ele>546.0</ele>
        <time>2021-02-28T08:45:39Z</time>
      </trkpt>
      <trkpt lat="40.3523640" lon="-3.9593930">
        <ele>546.4</ele>
        <time>2021-02-28T08:45:46Z</time>
      </trkpt>
      <trkpt lat="40.3524190" lon="-3.9597540">
        <ele>547.2</ele>
        <time>2021-02-28T08:45:52Z</time>
      </trkpt>
      <trkpt lat="40.3524300" lon="-3.9598140">
        <ele>547.2</ele>
        <time>2021-02-28T08:45:53Z</time>
      </trkpt>
      <trkpt lat="40.3525380" lon="-3.9602310">
        <ele>547.8</ele>
        <time>2021-02-28T08:46:00Z</time>
      </trkpt>
      <trkpt lat="40.3526130" lon="-3.9604730">
        <ele>548.2</ele>
        <time>2021-02-28T08:46:04Z</time>
      </trkpt>
      <trkpt lat="40.3526860" lon="-3.9606450">
        <ele>548.2</ele>
        <time>2021-02-28T08:46:07Z</time>
      </trkpt>
      <trkpt lat="40.3528970" lon="-3.9610870">
        <ele>549.2</ele>
        <time>2021-02-28T08:46:15Z</time>
      </trkpt>
      <trkpt lat="40.3529200" lon="-3.9611420">
        <ele>549.4</ele>
        <time>2021-02-28T08:46:16Z</time>
      </trkpt>
      <trkpt lat="40.3530760" lon="-3.9615260">
        <ele>550.2</ele>
        <time>2021-02-28T08:46:23Z</time>
      </trkpt>
      <trkpt lat="40.3531030" lon="-3.9615830">
        <ele>550.2</ele>
        <time>2021-02-28T08:46:24Z</time>
      </trkpt>
      <trkpt lat="40.3533120" lon="-3.9620270">
        <ele>550.4</ele>
        <time>2021-02-28T08:46:32Z</time>
      </trkpt>
      <trkpt lat="40.3533250" lon="-3.9620900">
        <ele>550.6</ele>
        <time>2021-02-28T08:46:33Z</time>
      </trkpt>
      <trkpt lat="40.3533350" lon="-3.9623480">
        <ele>551.4</ele>
        <time>2021-02-28T08:46:37Z</time>
      </trkpt>
      <trkpt lat="40.3532960" lon="-3.9627790">
        <ele>552.4</ele>
        <time>2021-02-28T08:46:44Z</time>
      </trkpt>
      <trkpt lat="40.3533080" lon="-3.9628400">
        <ele>552.6</ele>
        <time>2021-02-28T08:46:45Z</time>
      </trkpt>
      <trkpt lat="40.3533670" lon="-3.9630830">
        <ele>553.0</ele>
        <time>2021-02-28T08:46:49Z</time>
      </trkpt>
      <trkpt lat="40.3534050" lon="-3.9632010">
        <ele>553.0</ele>
        <time>2021-02-28T08:46:51Z</time>
      </trkpt>
      <trkpt lat="40.3534970" lon="-3.9634950">
        <ele>553.6</ele>
        <time>2021-02-28T08:46:56Z</time>
      </trkpt>
      <trkpt lat="40.3536080" lon="-3.9638520">
        <ele>554.2</ele>
        <time>2021-02-28T08:47:02Z</time>
      </trkpt>
      <trkpt lat="40.3536770" lon="-3.9640830">
        <ele>554.6</ele>
        <time>2021-02-28T08:47:06Z</time>
      </trkpt>
      <trkpt lat="40.3537690" lon="-3.9644070">
        <ele>555.8</ele>
        <time>2021-02-28T08:47:12Z</time>
      </trkpt>
      <trkpt lat="40.3538230" lon="-3.9646790">
        <ele>556.8</ele>
        <time>2021-02-28T08:47:17Z</time>
      </trkpt>
      <trkpt lat="40.3538590" lon="-3.9648920">
        <ele>558.0</ele>
        <time>2021-02-28T08:47:21Z</time>
      </trkpt>
      <trkpt lat="40.3538930" lon="-3.9650540">
        <ele>558.8</ele>
        <time>2021-02-28T08:47:24Z</time>
      </trkpt>
      <trkpt lat="40.3539080" lon="-3.9651070">
        <ele>559.0</ele>
        <time>2021-02-28T08:47:25Z</time>
      </trkpt>
      <trkpt lat="40.3539620" lon="-3.9652600">
        <ele>559.6</ele>
        <time>2021-02-28T08:47:28Z</time>
      </trkpt>
      <trkpt lat="40.3540180" lon="-3.9654120">
        <ele>560.0</ele>
        <time>2021-02-28T08:47:31Z</time>
      </trkpt>
      <trkpt lat="40.3541010" lon="-3.9656760">
        <ele>560.8</ele>
        <time>2021-02-28T08:47:36Z</time>
      </trkpt>
      <trkpt lat="40.3541170" lon="-3.9657300">
        <ele>560.8</ele>
        <time>2021-02-28T08:47:37Z</time>
      </trkpt>
      <trkpt lat="40.3541320" lon="-3.9657830">
        <ele>561.0</ele>
        <time>2021-02-28T08:47:38Z</time>
      </trkpt>
      <trkpt lat="40.3541990" lon="-3.9659880">
        <ele>562.2</ele>
        <time>2021-02-28T08:47:42Z</time>
      </trkpt>
      <trkpt lat="40.3542620" lon="-3.9661370">
        <ele>562.8</ele>
        <time>2021-02-28T08:47:45Z</time>
      </trkpt>
      <trkpt lat="40.3542850" lon="-3.9661840">
        <ele>563.0</ele>
        <time>2021-02-28T08:47:46Z</time>
      </trkpt>
      <trkpt lat="40.3543080" lon="-3.9662350">
        <ele>563.2</ele>
        <time>2021-02-28T08:47:47Z</time>
      </trkpt>
      <trkpt lat="40.3544240" lon="-3.9664780">
        <ele>564.2</ele>
        <time>2021-02-28T08:47:52Z</time>
      </trkpt>
      <trkpt lat="40.3544470" lon="-3.9665250">
        <ele>564.2</ele>
        <time>2021-02-28T08:47:53Z</time>
      </trkpt>
      <trkpt lat="40.3545770" lon="-3.9668890">
        <ele>565.4</ele>
        <time>2021-02-28T08:48:00Z</time>
      </trkpt>
      <trkpt lat="40.3545940" lon="-3.9669440">
        <ele>565.4</ele>
        <time>2021-02-28T08:48:01Z</time>
      </trkpt>
      <trkpt lat="40.3546910" lon="-3.9673310">
        <ele>566.4</ele>
        <time>2021-02-28T08:48:08Z</time>
      </trkpt>
      <trkpt lat="40.3546970" lon="-3.9673870">
        <ele>566.4</ele>
        <time>2021-02-28T08:48:09Z</time>
      </trkpt>
      <trkpt lat="40.3546890" lon="-3.9676750">
        <ele>567.4</ele>
        <time>2021-02-28T08:48:14Z</time>
      </trkpt>
      <trkpt lat="40.3546760" lon="-3.9677850">
        <ele>568.0</ele>
        <time>2021-02-28T08:48:16Z</time>
      </trkpt>
      <trkpt lat="40.3546520" lon="-3.9679520">
        <ele>568.4</ele>
        <time>2021-02-28T08:48:19Z</time>
      </trkpt>
      <trkpt lat="40.3546080" lon="-3.9682330">
        <ele>569.4</ele>
        <time>2021-02-28T08:48:24Z</time>
      </trkpt>
      <trkpt lat="40.3545960" lon="-3.9682860">
        <ele>569.6</ele>
        <time>2021-02-28T08:48:25Z</time>
      </trkpt>
      <trkpt lat="40.3545850" lon="-3.9683400">
        <ele>569.8</ele>
        <time>2021-02-28T08:48:26Z</time>
      </trkpt>
      <trkpt lat="40.3545660" lon="-3.9684510">
        <ele>570.2</ele>
        <time>2021-02-28T08:48:28Z</time>
      </trkpt>
      <trkpt lat="40.3545770" lon="-3.9686300">
        <ele>570.2</ele>
        <time>2021-02-28T08:48:31Z</time>
      </trkpt>
      <trkpt lat="40.3546250" lon="-3.9688160">
        <ele>570.2</ele>
        <time>2021-02-28T08:48:34Z</time>
      </trkpt>
      <trkpt lat="40.3546840" lon="-3.9690090">
        <ele>570.0</ele>
        <time>2021-02-28T08:48:37Z</time>
      </trkpt>
      <trkpt lat="40.3546940" lon="-3.9690750">
        <ele>570.0</ele>
        <time>2021-02-28T08:48:38Z</time>
      </trkpt>
      <trkpt lat="40.3546770" lon="-3.9692690">
        <ele>569.8</ele>
        <time>2021-02-28T08:48:41Z</time>
      </trkpt>
      <trkpt lat="40.3546460" lon="-3.9693970">
        <ele>569.8</ele>
        <time>2021-02-28T08:48:43Z</time>
      </trkpt>
      <trkpt lat="40.3545740" lon="-3.9696520">
        <ele>570.0</ele>
        <time>2021-02-28T08:48:47Z</time>
      </trkpt>
      <trkpt lat="40.3544650" lon="-3.9701470">
        <ele>569.6</ele>
        <time>2021-02-28T08:48:54Z</time>
      </trkpt>
      <trkpt lat="40.3544060" lon="-3.9705260">
        <ele>569.2</ele>
        <time>2021-02-28T08:48:59Z</time>
      </trkpt>
      <trkpt lat="40.3544050" lon="-3.9707660">
        <ele>569.0</ele>
        <time>2021-02-28T08:49:02Z</time>
      </trkpt>
      <trkpt lat="40.3544240" lon="-3.9710030">
        <ele>568.8</ele>
        <time>2021-02-28T08:49:05Z</time>
      </trkpt>
      <trkpt lat="40.3544480" lon="-3.9712270">
        <ele>568.6</ele>
        <time>2021-02-28T08:49:08Z</time>
      </trkpt>
      <trkpt lat="40.3544590" lon="-3.9712970">
        <ele>568.6</ele>
        <time>2021-02-28T08:49:09Z</time>
      </trkpt>
      <trkpt lat="40.3545100" lon="-3.9715000">
        <ele>569.2</ele>
        <time>2021-02-28T08:49:12Z</time>
      </trkpt>
      <trkpt lat="40.3545690" lon="-3.9716300">
        <ele>569.6</ele>
        <time>2021-02-28T08:49:14Z</time>
      </trkpt>
      <trkpt lat="40.3548490" lon="-3.9723010">
        <ele>569.2</ele>
        <time>2021-02-28T08:49:24Z</time>
      </trkpt>
      <trkpt lat="40.3548960" lon="-3.9725160">
        <ele>569.4</ele>
        <time>2021-02-28T08:49:27Z</time>
      </trkpt>
      <trkpt lat="40.3549110" lon="-3.9726620">
        <ele>569.2</ele>
        <time>2021-02-28T08:49:29Z</time>
      </trkpt>
      <trkpt lat="40.3549120" lon="-3.9727330">
        <ele>569.2</ele>
        <time>2021-02-28T08:49:30Z</time>
      </trkpt>
      <trkpt lat="40.3548750" lon="-3.9729580">
        <ele>569.2</ele>
        <time>2021-02-28T08:49:33Z</time>
      </trkpt>
      <trkpt lat="40.3547360" lon="-3.9734800">
        <ele>568.8</ele>
        <time>2021-02-28T08:49:40Z</time>
      </trkpt>
      <trkpt lat="40.3547280" lon="-3.9735580">
        <ele>568.6</ele>
        <time>2021-02-28T08:49:41Z</time>
      </trkpt>
      <trkpt lat="40.3547290" lon="-3.9737110">
        <ele>568.4</ele>
        <time>2021-02-28T08:49:43Z</time>
      </trkpt>
      <trkpt lat="40.3547290" lon="-3.9737900">
        <ele>568.4</ele>
        <time>2021-02-28T08:49:44Z</time>
      </trkpt>
      <trkpt lat="40.3547370" lon="-3.9744020">
        <ele>568.2</ele>
        <time>2021-02-28T08:49:52Z</time>
      </trkpt>
      <trkpt lat="40.3547800" lon="-3.9747330">
        <ele>567.6</ele>
        <time>2021-02-28T08:49:56Z</time>
      </trkpt>
      <trkpt lat="40.3547980" lon="-3.9748200">
        <ele>567.4</ele>
        <time>2021-02-28T08:49:57Z</time>
      </trkpt>
      <trkpt lat="40.3548410" lon="-3.9750830">
        <ele>566.8</ele>
        <time>2021-02-28T08:50:00Z</time>
      </trkpt>
      <trkpt lat="40.3548710" lon="-3.9752620">
        <ele>566.0</ele>
        <time>2021-02-28T08:50:02Z</time>
      </trkpt>
      <trkpt lat="40.3549200" lon="-3.9755230">
        <ele>565.6</ele>
        <time>2021-02-28T08:50:05Z</time>
      </trkpt>
      <trkpt lat="40.3549950" lon="-3.9757740">
        <ele>565.0</ele>
        <time>2021-02-28T08:50:08Z</time>
      </trkpt>
      <trkpt lat="40.3550270" lon="-3.9758530">
        <ele>565.0</ele>
        <time>2021-02-28T08:50:09Z</time>
      </trkpt>
      <trkpt lat="40.3550630" lon="-3.9759260">
        <ele>565.0</ele>
        <time>2021-02-28T08:50:10Z</time>
      </trkpt>
      <trkpt lat="40.3551950" lon="-3.9762090">
        <ele>565.4</ele>
        <time>2021-02-28T08:50:14Z</time>
      </trkpt>
      <trkpt lat="40.3552390" lon="-3.9763560">
        <ele>565.4</ele>
        <time>2021-02-28T08:50:16Z</time>
      </trkpt>
      <trkpt lat="40.3552510" lon="-3.9764290">
        <ele>565.6</ele>
        <time>2021-02-28T08:50:17Z</time>
      </trkpt>
      <trkpt lat="40.3552640" lon="-3.9766530">
        <ele>566.0</ele>
        <time>2021-02-28T08:50:20Z</time>
      </trkpt>
      <trkpt lat="40.3552470" lon="-3.9768000">
        <ele>566.2</ele>
        <time>2021-02-28T08:50:22Z</time>
      </trkpt>
      <trkpt lat="40.3552320" lon="-3.9768730">
        <ele>566.2</ele>
        <time>2021-02-28T08:50:23Z</time>
      </trkpt>
      <trkpt lat="40.3551840" lon="-3.9771740">
        <ele>566.4</ele>
        <time>2021-02-28T08:50:27Z</time>
      </trkpt>
      <trkpt lat="40.3551780" lon="-3.9773290">
        <ele>566.6</ele>
        <time>2021-02-28T08:50:29Z</time>
      </trkpt>
      <trkpt lat="40.3551810" lon="-3.9774090">
        <ele>566.6</ele>
        <time>2021-02-28T08:50:30Z</time>
      </trkpt>
      <trkpt lat="40.3552280" lon="-3.9777160">
        <ele>566.8</ele>
        <time>2021-02-28T08:50:34Z</time>
      </trkpt>
      <trkpt lat="40.3553900" lon="-3.9782150">
        <ele>567.0</ele>
        <time>2021-02-28T08:50:41Z</time>
      </trkpt>
      <trkpt lat="40.3555510" lon="-3.9785270">
        <ele>567.2</ele>
        <time>2021-02-28T08:50:46Z</time>
      </trkpt>
      <trkpt lat="40.3557910" lon="-3.9790460">
        <ele>567.6</ele>
        <time>2021-02-28T08:50:54Z</time>
      </trkpt>
      <trkpt lat="40.3558760" lon="-3.9794100">
        <ele>567.8</ele>
        <time>2021-02-28T08:50:59Z</time>
      </trkpt>
      <trkpt lat="40.3559430" lon="-3.9799420">
        <ele>568.2</ele>
        <time>2021-02-28T08:51:06Z</time>
      </trkpt>
      <trkpt lat="40.3559570" lon="-3.9800160">
        <ele>568.2</ele>
        <time>2021-02-28T08:51:07Z</time>
      </trkpt>
      <trkpt lat="40.3559750" lon="-3.9800880">
        <ele>568.2</ele>
        <time>2021-02-28T08:51:08Z</time>
      </trkpt>
      <trkpt lat="40.3560860" lon="-3.9804330">
        <ele>568.8</ele>
        <time>2021-02-28T08:51:13Z</time>
      </trkpt>
      <trkpt lat="40.3561980" lon="-3.9807660">
        <ele>569.6</ele>
        <time>2021-02-28T08:51:18Z</time>
      </trkpt>
      <trkpt lat="40.3562960" lon="-3.9811040">
        <ele>569.8</ele>
        <time>2021-02-28T08:51:23Z</time>
      </trkpt>
      <trkpt lat="40.3564310" lon="-3.9815800">
        <ele>570.6</ele>
        <time>2021-02-28T08:51:30Z</time>
      </trkpt>
      <trkpt lat="40.3565220" lon="-3.9818530">
        <ele>571.0</ele>
        <time>2021-02-28T08:51:34Z</time>
      </trkpt>
      <trkpt lat="40.3566680" lon="-3.9823360">
        <ele>571.4</ele>
        <time>2021-02-28T08:51:41Z</time>
      </trkpt>
      <trkpt lat="40.3566830" lon="-3.9824080">
        <ele>571.4</ele>
        <time>2021-02-28T08:51:42Z</time>
      </trkpt>
      <trkpt lat="40.3567310" lon="-3.9826200">
        <ele>571.6</ele>
        <time>2021-02-28T08:51:45Z</time>
      </trkpt>
      <trkpt lat="40.3568160" lon="-3.9830020">
        <ele>570.8</ele>
        <time>2021-02-28T08:51:50Z</time>
      </trkpt>
      <trkpt lat="40.3568470" lon="-3.9831550">
        <ele>570.6</ele>
        <time>2021-02-28T08:51:52Z</time>
      </trkpt>
      <trkpt lat="40.3568990" lon="-3.9835390">
        <ele>570.8</ele>
        <time>2021-02-28T08:51:57Z</time>
      </trkpt>
      <trkpt lat="40.3569410" lon="-3.9837590">
        <ele>571.0</ele>
        <time>2021-02-28T08:52:00Z</time>
      </trkpt>
      <trkpt lat="40.3569860" lon="-3.9839160">
        <ele>570.2</ele>
        <time>2021-02-28T08:52:02Z</time>
      </trkpt>
      <trkpt lat="40.3570270" lon="-3.9840740">
        <ele>569.4</ele>
        <time>2021-02-28T08:52:04Z</time>
      </trkpt>
      <trkpt lat="40.3570490" lon="-3.9842330">
        <ele>569.0</ele>
        <time>2021-02-28T08:52:06Z</time>
      </trkpt>
      <trkpt lat="40.3570410" lon="-3.9843990">
        <ele>569.0</ele>
        <time>2021-02-28T08:52:08Z</time>
      </trkpt>
      <trkpt lat="40.3570070" lon="-3.9848560">
        <ele>569.0</ele>
        <time>2021-02-28T08:52:14Z</time>
      </trkpt>
      <trkpt lat="40.3570160" lon="-3.9850340">
        <ele>568.2</ele>
        <time>2021-02-28T08:52:16Z</time>
      </trkpt>
      <trkpt lat="40.3570290" lon="-3.9853080">
        <ele>567.4</ele>
        <time>2021-02-28T08:52:19Z</time>
      </trkpt>
      <trkpt lat="40.3570240" lon="-3.9853950">
        <ele>567.4</ele>
        <time>2021-02-28T08:52:20Z</time>
      </trkpt>
      <trkpt lat="40.3570170" lon="-3.9854850">
        <ele>567.2</ele>
        <time>2021-02-28T08:52:21Z</time>
      </trkpt>
      <trkpt lat="40.3569740" lon="-3.9858720">
        <ele>566.4</ele>
        <time>2021-02-28T08:52:25Z</time>
      </trkpt>
      <trkpt lat="40.3569650" lon="-3.9860410">
        <ele>566.6</ele>
        <time>2021-02-28T08:52:27Z</time>
      </trkpt>
      <trkpt lat="40.3569760" lon="-3.9862010">
        <ele>566.8</ele>
        <time>2021-02-28T08:52:29Z</time>
      </trkpt>
      <trkpt lat="40.3569880" lon="-3.9862800">
        <ele>566.6</ele>
        <time>2021-02-28T08:52:30Z</time>
      </trkpt>
      <trkpt lat="40.3570690" lon="-3.9865930">
        <ele>566.6</ele>
        <time>2021-02-28T08:52:34Z</time>
      </trkpt>
      <trkpt lat="40.3572690" lon="-3.9871770">
        <ele>567.0</ele>
        <time>2021-02-28T08:52:42Z</time>
      </trkpt>
      <trkpt lat="40.3573750" lon="-3.9874950">
        <ele>568.2</ele>
        <time>2021-02-28T08:52:47Z</time>
      </trkpt>
      <trkpt lat="40.3573990" lon="-3.9875520">
        <ele>568.2</ele>
        <time>2021-02-28T08:52:48Z</time>
      </trkpt>
      <trkpt lat="40.3574240" lon="-3.9876140">
        <ele>568.4</ele>
        <time>2021-02-28T08:52:49Z</time>
      </trkpt>
      <trkpt lat="40.3575060" lon="-3.9878850">
        <ele>568.6</ele>
        <time>2021-02-28T08:52:53Z</time>
      </trkpt>
      <trkpt lat="40.3575230" lon="-3.9880300">
        <ele>568.8</ele>
        <time>2021-02-28T08:52:55Z</time>
      </trkpt>
      <trkpt lat="40.3575610" lon="-3.9884000">
        <ele>568.8</ele>
        <time>2021-02-28T08:53:00Z</time>
      </trkpt>
      <trkpt lat="40.3575760" lon="-3.9885420">
        <ele>569.4</ele>
        <time>2021-02-28T08:53:02Z</time>
      </trkpt>
      <trkpt lat="40.3575850" lon="-3.9886870">
        <ele>569.4</ele>
        <time>2021-02-28T08:53:04Z</time>
      </trkpt>
      <trkpt lat="40.3575850" lon="-3.9887550">
        <ele>569.4</ele>
        <time>2021-02-28T08:53:05Z</time>
      </trkpt>
      <trkpt lat="40.3575840" lon="-3.9888930">
        <ele>569.4</ele>
        <time>2021-02-28T08:53:07Z</time>
      </trkpt>
      <trkpt lat="40.3575660" lon="-3.9890310">
        <ele>569.8</ele>
        <time>2021-02-28T08:53:09Z</time>
      </trkpt>
      <trkpt lat="40.3575350" lon="-3.9891650">
        <ele>570.4</ele>
        <time>2021-02-28T08:53:11Z</time>
      </trkpt>
      <trkpt lat="40.3574440" lon="-3.9894840">
        <ele>571.0</ele>
        <time>2021-02-28T08:53:16Z</time>
      </trkpt>
      <trkpt lat="40.3574190" lon="-3.9896720">
        <ele>571.4</ele>
        <time>2021-02-28T08:53:19Z</time>
      </trkpt>
      <trkpt lat="40.3573810" lon="-3.9899150">
        <ele>571.6</ele>
        <time>2021-02-28T08:53:23Z</time>
      </trkpt>
      <trkpt lat="40.3573250" lon="-3.9901590">
        <ele>572.8</ele>
        <time>2021-02-28T08:53:27Z</time>
      </trkpt>
      <trkpt lat="40.3573040" lon="-3.9903410">
        <ele>573.6</ele>
        <time>2021-02-28T08:53:30Z</time>
      </trkpt>
      <trkpt lat="40.3573040" lon="-3.9904010">
        <ele>573.8</ele>
        <time>2021-02-28T08:53:31Z</time>
      </trkpt>
      <trkpt lat="40.3573230" lon="-3.9907600">
        <ele>574.8</ele>
        <time>2021-02-28T08:53:37Z</time>
      </trkpt>
      <trkpt lat="40.3573230" lon="-3.9910550">
        <ele>575.8</ele>
        <time>2021-02-28T08:53:42Z</time>
      </trkpt>
      <trkpt lat="40.3573140" lon="-3.9911140">
        <ele>576.2</ele>
        <time>2021-02-28T08:53:43Z</time>
      </trkpt>
      <trkpt lat="40.3572880" lon="-3.9912270">
        <ele>576.6</ele>
        <time>2021-02-28T08:53:45Z</time>
      </trkpt>
      <trkpt lat="40.3571480" lon="-3.9915680">
        <ele>576.8</ele>
        <time>2021-02-28T08:53:51Z</time>
      </trkpt>
      <trkpt lat="40.3569110" lon="-3.9921170">
        <ele>575.8</ele>
        <time>2021-02-28T08:53:59Z</time>
      </trkpt>
      <trkpt lat="40.3568790" lon="-3.9922630">
        <ele>576.0</ele>
        <time>2021-02-28T08:54:01Z</time>
      </trkpt>
      <trkpt lat="40.3568690" lon="-3.9924810">
        <ele>576.2</ele>
        <time>2021-02-28T08:54:04Z</time>
      </trkpt>
      <trkpt lat="40.3568490" lon="-3.9927680">
        <ele>576.4</ele>
        <time>2021-02-28T08:54:08Z</time>
      </trkpt>
      <trkpt lat="40.3568140" lon="-3.9929820">
        <ele>576.6</ele>
        <time>2021-02-28T08:54:11Z</time>
      </trkpt>
      <trkpt lat="40.3566770" lon="-3.9933510">
        <ele>577.2</ele>
        <time>2021-02-28T08:54:17Z</time>
      </trkpt>
      <trkpt lat="40.3566440" lon="-3.9934050">
        <ele>577.4</ele>
        <time>2021-02-28T08:54:18Z</time>
      </trkpt>
      <trkpt lat="40.3564110" lon="-3.9938480">
        <ele>578.2</ele>
        <time>2021-02-28T08:54:26Z</time>
      </trkpt>
      <trkpt lat="40.3563890" lon="-3.9939090">
        <ele>578.2</ele>
        <time>2021-02-28T08:54:27Z</time>
      </trkpt>
      <trkpt lat="40.3562270" lon="-3.9942780">
        <ele>579.0</ele>
        <time>2021-02-28T08:54:33Z</time>
      </trkpt>
      <trkpt lat="40.3560050" lon="-3.9947040">
        <ele>578.0</ele>
        <time>2021-02-28T08:54:40Z</time>
      </trkpt>
      <trkpt lat="40.3558060" lon="-3.9951290">
        <ele>578.8</ele>
        <time>2021-02-28T08:54:47Z</time>
      </trkpt>
      <trkpt lat="40.3557730" lon="-3.9951860">
        <ele>579.0</ele>
        <time>2021-02-28T08:54:48Z</time>
      </trkpt>
      <trkpt lat="40.3557060" lon="-3.9952950">
        <ele>579.4</ele>
        <time>2021-02-28T08:54:50Z</time>
      </trkpt>
      <trkpt lat="40.3555300" lon="-3.9956330">
        <ele>579.4</ele>
        <time>2021-02-28T08:54:56Z</time>
      </trkpt>
      <trkpt lat="40.3554700" lon="-3.9958240">
        <ele>580.0</ele>
        <time>2021-02-28T08:54:59Z</time>
      </trkpt>
      <trkpt lat="40.3554390" lon="-3.9959550">
        <ele>580.4</ele>
        <time>2021-02-28T08:55:01Z</time>
      </trkpt>
      <trkpt lat="40.3554060" lon="-3.9960810">
        <ele>580.8</ele>
        <time>2021-02-28T08:55:03Z</time>
      </trkpt>
      <trkpt lat="40.3553130" lon="-3.9964570">
        <ele>581.6</ele>
        <time>2021-02-28T08:55:09Z</time>
      </trkpt>
      <trkpt lat="40.3552570" lon="-3.9967150">
        <ele>582.2</ele>
        <time>2021-02-28T08:55:13Z</time>
      </trkpt>
      <trkpt lat="40.3552310" lon="-3.9969130">
        <ele>582.6</ele>
        <time>2021-02-28T08:55:16Z</time>
      </trkpt>
      <trkpt lat="40.3552160" lon="-3.9972530">
        <ele>583.4</ele>
        <time>2021-02-28T08:55:21Z</time>
      </trkpt>
      <trkpt lat="40.3552160" lon="-3.9976220">
        <ele>583.4</ele>
        <time>2021-02-28T08:55:26Z</time>
      </trkpt>
      <trkpt lat="40.3552300" lon="-3.9977700">
        <ele>583.2</ele>
        <time>2021-02-28T08:55:28Z</time>
      </trkpt>
      <trkpt lat="40.3552340" lon="-3.9978450">
        <ele>583.4</ele>
        <time>2021-02-28T08:55:29Z</time>
      </trkpt>
      <trkpt lat="40.3552560" lon="-3.9982130">
        <ele>583.6</ele>
        <time>2021-02-28T08:55:34Z</time>
      </trkpt>
      <trkpt lat="40.3552560" lon="-3.9983650">
        <ele>583.8</ele>
        <time>2021-02-28T08:55:36Z</time>
      </trkpt>
      <trkpt lat="40.3552440" lon="-3.9987420">
        <ele>584.0</ele>
        <time>2021-02-28T08:55:41Z</time>
      </trkpt>
      <trkpt lat="40.3551720" lon="-3.9994110">
        <ele>584.6</ele>
        <time>2021-02-28T08:55:50Z</time>
      </trkpt>
      <trkpt lat="40.3551590" lon="-3.9994820">
        <ele>584.8</ele>
        <time>2021-02-28T08:55:51Z</time>
      </trkpt>
      <trkpt lat="40.3550880" lon="-3.9999270">
        <ele>585.0</ele>
        <time>2021-02-28T08:55:57Z</time>
      </trkpt>
      <trkpt lat="40.3549770" lon="-4.0005830">
        <ele>585.8</ele>
        <time>2021-02-28T08:56:06Z</time>
      </trkpt>
      <trkpt lat="40.3549740" lon="-4.0006540">
        <ele>585.8</ele>
        <time>2021-02-28T08:56:07Z</time>
      </trkpt>
      <trkpt lat="40.3549520" lon="-4.0009730">
        <ele>586.2</ele>
        <time>2021-02-28T08:56:12Z</time>
      </trkpt>
      <trkpt lat="40.3549380" lon="-4.0010290">
        <ele>586.2</ele>
        <time>2021-02-28T08:56:13Z</time>
      </trkpt>
      <trkpt lat="40.3549150" lon="-4.0011450">
        <ele>586.2</ele>
        <time>2021-02-28T08:56:15Z</time>
      </trkpt>
      <trkpt lat="40.3549560" lon="-4.0012840">
        <ele>586.0</ele>
        <time>2021-02-28T08:56:18Z</time>
      </trkpt>
      <trkpt lat="40.3550390" lon="-4.0013410">
        <ele>585.6</ele>
        <time>2021-02-28T08:56:20Z</time>
      </trkpt>
      <trkpt lat="40.3550860" lon="-4.0013660">
        <ele>585.2</ele>
        <time>2021-02-28T08:56:21Z</time>
      </trkpt>
      <trkpt lat="40.3551340" lon="-4.0013890">
        <ele>585.2</ele>
        <time>2021-02-28T08:56:22Z</time>
      </trkpt>
      <trkpt lat="40.3552370" lon="-4.0014340">
        <ele>584.6</ele>
        <time>2021-02-28T08:56:24Z</time>
      </trkpt>
      <trkpt lat="40.3555310" lon="-4.0015650">
        <ele>583.6</ele>
        <time>2021-02-28T08:56:29Z</time>
      </trkpt>
      <trkpt lat="40.3558430" lon="-4.0016950">
        <ele>582.4</ele>
        <time>2021-02-28T08:56:35Z</time>
      </trkpt>
      <trkpt lat="40.3559120" lon="-4.0017090">
        <ele>582.0</ele>
        <time>2021-02-28T08:56:36Z</time>
      </trkpt>
      <trkpt lat="40.3560550" lon="-4.0017320">
        <ele>581.2</ele>
        <time>2021-02-28T08:56:38Z</time>
      </trkpt>
      <trkpt lat="40.3563550" lon="-4.0017460">
        <ele>580.2</ele>
        <time>2021-02-28T08:56:42Z</time>
      </trkpt>
      <trkpt lat="40.3565030" lon="-4.0017330">
        <ele>579.8</ele>
        <time>2021-02-28T08:56:44Z</time>
      </trkpt>
      <trkpt lat="40.3565720" lon="-4.0017170">
        <ele>579.6</ele>
        <time>2021-02-28T08:56:45Z</time>
      </trkpt>
      <trkpt lat="40.3566430" lon="-4.0016960">
        <ele>579.2</ele>
        <time>2021-02-28T08:56:46Z</time>
      </trkpt>
      <trkpt lat="40.3567140" lon="-4.0016730">
        <ele>578.8</ele>
        <time>2021-02-28T08:56:47Z</time>
      </trkpt>
      <trkpt lat="40.3570010" lon="-4.0015580">
        <ele>578.2</ele>
        <time>2021-02-28T08:56:51Z</time>
      </trkpt>
      <trkpt lat="40.3570700" lon="-4.0015250">
        <ele>578.0</ele>
        <time>2021-02-28T08:56:52Z</time>
      </trkpt>
      <trkpt lat="40.3571440" lon="-4.0014960">
        <ele>578.0</ele>
        <time>2021-02-28T08:56:53Z</time>
      </trkpt>
      <trkpt lat="40.3572860" lon="-4.0014430">
        <ele>577.8</ele>
        <time>2021-02-28T08:56:55Z</time>
      </trkpt>
      <trkpt lat="40.3574770" lon="-4.0013900">
        <ele>577.6</ele>
        <time>2021-02-28T08:56:58Z</time>
      </trkpt>
      <trkpt lat="40.3576800" lon="-4.0013490">
        <ele>579.2</ele>
        <time>2021-02-28T08:57:02Z</time>
      </trkpt>
      <trkpt lat="40.3577260" lon="-4.0013410">
        <ele>579.6</ele>
        <time>2021-02-28T08:57:03Z</time>
      </trkpt>
      <trkpt lat="40.3578600" lon="-4.0013300">
        <ele>580.4</ele>
        <time>2021-02-28T08:57:06Z</time>
      </trkpt>
      <trkpt lat="40.3579580" lon="-4.0013210">
        <ele>580.6</ele>
        <time>2021-02-28T08:57:09Z</time>
      </trkpt>
      <trkpt lat="40.3580850" lon="-4.0012680">
        <ele>579.8</ele>
        <time>2021-02-28T08:57:13Z</time>
      </trkpt>
      <trkpt lat="40.3582590" lon="-4.0013480">
        <ele>580.0</ele>
        <time>2021-02-28T08:57:17Z</time>
      </trkpt>
      <trkpt lat="40.3583620" lon="-4.0013750">
        <ele>580.4</ele>
        <time>2021-02-28T08:57:19Z</time>
      </trkpt>
      <trkpt lat="40.3585120" lon="-4.0014070">
        <ele>581.0</ele>
        <time>2021-02-28T08:57:22Z</time>
      </trkpt>
      <trkpt lat="40.3585590" lon="-4.0014240">
        <ele>581.4</ele>
        <time>2021-02-28T08:57:23Z</time>
      </trkpt>
      <trkpt lat="40.3586860" lon="-4.0014750">
        <ele>582.6</ele>
        <time>2021-02-28T08:57:26Z</time>
      </trkpt>
      <trkpt lat="40.3587730" lon="-4.0014910">
        <ele>582.8</ele>
        <time>2021-02-28T08:57:28Z</time>
      </trkpt>
      <trkpt lat="40.3589070" lon="-4.0015390">
        <ele>582.8</ele>
        <time>2021-02-28T08:57:31Z</time>
      </trkpt>
      <trkpt lat="40.3590610" lon="-4.0016000">
        <ele>582.4</ele>
        <time>2021-02-28T08:57:34Z</time>
      </trkpt>
      <trkpt lat="40.3592900" lon="-4.0016840">
        <ele>581.2</ele>
        <time>2021-02-28T08:57:38Z</time>
      </trkpt>
      <trkpt lat="40.3594290" lon="-4.0017190">
        <ele>580.2</ele>
        <time>2021-02-28T08:57:40Z</time>
      </trkpt>
      <trkpt lat="40.3595030" lon="-4.0017250">
        <ele>580.0</ele>
        <time>2021-02-28T08:57:41Z</time>
      </trkpt>
      <trkpt lat="40.3597290" lon="-4.0017130">
        <ele>578.6</ele>
        <time>2021-02-28T08:57:44Z</time>
      </trkpt>
      <trkpt lat="40.3598030" lon="-4.0016950">
        <ele>578.4</ele>
        <time>2021-02-28T08:57:45Z</time>
      </trkpt>
      <trkpt lat="40.3600250" lon="-4.0016510">
        <ele>577.8</ele>
        <time>2021-02-28T08:57:48Z</time>
      </trkpt>
      <trkpt lat="40.3601560" lon="-4.0016220">
        <ele>578.4</ele>
        <time>2021-02-28T08:57:50Z</time>
      </trkpt>
      <trkpt lat="40.3603810" lon="-4.0016560">
        <ele>579.4</ele>
        <time>2021-02-28T08:57:54Z</time>
      </trkpt>
      <trkpt lat="40.3604350" lon="-4.0016680">
        <ele>580.0</ele>
        <time>2021-02-28T08:57:55Z</time>
      </trkpt>
      <trkpt lat="40.3604870" lon="-4.0016720">
        <ele>580.4</ele>
        <time>2021-02-28T08:57:56Z</time>
      </trkpt>
      <trkpt lat="40.3606360" lon="-4.0016950">
        <ele>580.8</ele>
        <time>2021-02-28T08:57:59Z</time>
      </trkpt>
      <trkpt lat="40.3607320" lon="-4.0017190">
        <ele>581.2</ele>
        <time>2021-02-28T08:58:01Z</time>
      </trkpt>
      <trkpt lat="40.3608710" lon="-4.0017500">
        <ele>582.2</ele>
        <time>2021-02-28T08:58:04Z</time>
      </trkpt>
      <trkpt lat="40.3610120" lon="-4.0017690">
        <ele>582.4</ele>
        <time>2021-02-28T08:58:07Z</time>
      </trkpt>
      <trkpt lat="40.3613380" lon="-4.0017950">
        <ele>583.0</ele>
        <time>2021-02-28T08:58:14Z</time>
      </trkpt>
      <trkpt lat="40.3613780" lon="-4.0017910">
        <ele>583.2</ele>
        <time>2021-02-28T08:58:15Z</time>
      </trkpt>
      <trkpt lat="40.3614170" lon="-4.0017840">
        <ele>583.2</ele>
        <time>2021-02-28T08:58:16Z</time>
      </trkpt>
      <trkpt lat="40.3615530" lon="-4.0017900">
        <ele>583.0</ele>
        <time>2021-02-28T08:58:20Z</time>
      </trkpt>
      <trkpt lat="40.3616780" lon="-4.0018420">
        <ele>581.8</ele>
        <time>2021-02-28T08:58:24Z</time>
      </trkpt>
      <trkpt lat="40.3617270" lon="-4.0018540">
        <ele>581.0</ele>
        <time>2021-02-28T08:58:25Z</time>
      </trkpt>
      <trkpt lat="40.3617830" lon="-4.0018580">
        <ele>580.6</ele>
        <time>2021-02-28T08:58:26Z</time>
      </trkpt>
      <trkpt lat="40.3619860" lon="-4.0018600">
        <ele>579.2</ele>
        <time>2021-02-28T08:58:29Z</time>
      </trkpt>
      <trkpt lat="40.3622050" lon="-4.0018310">
        <ele>578.2</ele>
        <time>2021-02-28T08:58:32Z</time>
      </trkpt>
      <trkpt lat="40.3623660" lon="-4.0018000">
        <ele>577.0</ele>
        <time>2021-02-28T08:58:34Z</time>
      </trkpt>
      <trkpt lat="40.3624480" lon="-4.0017760">
        <ele>576.4</ele>
        <time>2021-02-28T08:58:35Z</time>
      </trkpt>
      <trkpt lat="40.3625290" lon="-4.0017420">
        <ele>576.0</ele>
        <time>2021-02-28T08:58:36Z</time>
      </trkpt>
      <trkpt lat="40.3626890" lon="-4.0016720">
        <ele>575.0</ele>
        <time>2021-02-28T08:58:38Z</time>
      </trkpt>
      <trkpt lat="40.3628480" lon="-4.0016160">
        <ele>574.4</ele>
        <time>2021-02-28T08:58:40Z</time>
      </trkpt>
      <trkpt lat="40.3630030" lon="-4.0015560">
        <ele>574.0</ele>
        <time>2021-02-28T08:58:42Z</time>
      </trkpt>
      <trkpt lat="40.3634440" lon="-4.0013850">
        <ele>573.2</ele>
        <time>2021-02-28T08:58:48Z</time>
      </trkpt>
      <trkpt lat="40.3635170" lon="-4.0013520">
        <ele>572.8</ele>
        <time>2021-02-28T08:58:49Z</time>
      </trkpt>
      <trkpt lat="40.3638800" lon="-4.0011590">
        <ele>572.0</ele>
        <time>2021-02-28T08:58:54Z</time>
      </trkpt>
      <trkpt lat="40.3639450" lon="-4.0011350">
        <ele>571.8</ele>
        <time>2021-02-28T08:58:55Z</time>
      </trkpt>
      <trkpt lat="40.3641920" lon="-4.0010560">
        <ele>572.0</ele>
        <time>2021-02-28T08:58:59Z</time>
      </trkpt>
      <trkpt lat="40.3644860" lon="-4.0009380">
        <ele>571.4</ele>
        <time>2021-02-28T08:59:04Z</time>
      </trkpt>
      <trkpt lat="40.3647880" lon="-4.0008570">
        <ele>572.0</ele>
        <time>2021-02-28T08:59:09Z</time>
      </trkpt>
      <trkpt lat="40.3649500" lon="-4.0008510">
        <ele>572.4</ele>
        <time>2021-02-28T08:59:12Z</time>
      </trkpt>
      <trkpt lat="40.3650060" lon="-4.0008400">
        <ele>572.4</ele>
        <time>2021-02-28T08:59:13Z</time>
      </trkpt>
      <trkpt lat="40.3651220" lon="-4.0008090">
        <ele>572.0</ele>
        <time>2021-02-28T08:59:15Z</time>
      </trkpt>
      <trkpt lat="40.3651780" lon="-4.0008050">
        <ele>572.0</ele>
        <time>2021-02-28T08:59:16Z</time>
      </trkpt>
      <trkpt lat="40.3653790" lon="-4.0007780">
        <ele>572.0</ele>
        <time>2021-02-28T08:59:20Z</time>
      </trkpt>
      <trkpt lat="40.3655750" lon="-4.0007520">
        <ele>572.2</ele>
        <time>2021-02-28T08:59:24Z</time>
      </trkpt>
      <trkpt lat="40.3656730" lon="-4.0007240">
        <ele>573.0</ele>
        <time>2021-02-28T08:59:26Z</time>
      </trkpt>
      <trkpt lat="40.3657150" lon="-4.0007050">
        <ele>573.6</ele>
        <time>2021-02-28T08:59:27Z</time>
      </trkpt>
      <trkpt lat="40.3658360" lon="-4.0006460">
        <ele>574.0</ele>
        <time>2021-02-28T08:59:30Z</time>
      </trkpt>
      <trkpt lat="40.3658730" lon="-4.0006200">
        <ele>574.2</ele>
        <time>2021-02-28T08:59:31Z</time>
      </trkpt>
      <trkpt lat="40.3659830" lon="-4.0005300">
        <ele>574.8</ele>
        <time>2021-02-28T08:59:34Z</time>
      </trkpt>
      <trkpt lat="40.3660150" lon="-4.0005000">
        <ele>575.0</ele>
        <time>2021-02-28T08:59:35Z</time>
      </trkpt>
      <trkpt lat="40.3661150" lon="-4.0003770">
        <ele>576.4</ele>
        <time>2021-02-28T08:59:39Z</time>
      </trkpt>
      <trkpt lat="40.3661360" lon="-4.0003470">
        <ele>576.8</ele>
        <time>2021-02-28T08:59:40Z</time>
      </trkpt>
      <trkpt lat="40.3661800" lon="-4.0002930">
        <ele>577.6</ele>
        <time>2021-02-28T08:59:42Z</time>
      </trkpt>
      <trkpt lat="40.3662570" lon="-4.0002190">
        <ele>578.8</ele>
        <time>2021-02-28T08:59:45Z</time>
      </trkpt>
      <trkpt lat="40.3663430" lon="-4.0001410">
        <ele>580.0</ele>
        <time>2021-02-28T08:59:48Z</time>
      </trkpt>
      <trkpt lat="40.3664110" lon="-4.0001030">
        <ele>581.0</ele>
        <time>2021-02-28T08:59:50Z</time>
      </trkpt>
      <trkpt lat="40.3665920" lon="-4.0000180">
        <ele>580.2</ele>
        <time>2021-02-28T08:59:54Z</time>
      </trkpt>
      <trkpt lat="40.3666450" lon="-4.0000000">
        <ele>579.8</ele>
        <time>2021-02-28T08:59:55Z</time>
      </trkpt>
      <trkpt lat="40.3668110" lon="-3.9999400">
        <ele>579.0</ele>
        <time>2021-02-28T08:59:58Z</time>
      </trkpt>
      <trkpt lat="40.3670810" lon="-3.9998220">
        <ele>578.8</ele>
        <time>2021-02-28T09:00:03Z</time>
      </trkpt>
      <trkpt lat="40.3673800" lon="-3.9996830">
        <ele>579.2</ele>
        <time>2021-02-28T09:00:09Z</time>
      </trkpt>
      <trkpt lat="40.3674770" lon="-3.9996490">
        <ele>579.6</ele>
        <time>2021-02-28T09:00:11Z</time>
      </trkpt>
      <trkpt lat="40.3676730" lon="-3.9996300">
        <ele>580.2</ele>
        <time>2021-02-28T09:00:15Z</time>
      </trkpt>
      <trkpt lat="40.3677770" lon="-3.9996230">
        <ele>580.2</ele>
        <time>2021-02-28T09:00:17Z</time>
      </trkpt>
      <trkpt lat="40.3681490" lon="-3.9995730">
        <ele>579.2</ele>
        <time>2021-02-28T09:00:24Z</time>
      </trkpt>
      <trkpt lat="40.3683080" lon="-3.9995340">
        <ele>579.4</ele>
        <time>2021-02-28T09:00:27Z</time>
      </trkpt>
      <trkpt lat="40.3686140" lon="-3.9994990">
        <ele>580.4</ele>
        <time>2021-02-28T09:00:33Z</time>
      </trkpt>
      <trkpt lat="40.3687690" lon="-3.9995000">
        <ele>580.2</ele>
        <time>2021-02-28T09:00:36Z</time>
      </trkpt>
      <trkpt lat="40.3690480" lon="-3.9995110">
        <ele>579.2</ele>
        <time>2021-02-28T09:00:41Z</time>
      </trkpt>
      <trkpt lat="40.3691100" lon="-3.9995150">
        <ele>578.8</ele>
        <time>2021-02-28T09:00:42Z</time>
      </trkpt>
      <trkpt lat="40.3692420" lon="-3.9995270">
        <ele>577.8</ele>
        <time>2021-02-28T09:00:44Z</time>
      </trkpt>
      <trkpt lat="40.3693790" lon="-3.9995380">
        <ele>577.2</ele>
        <time>2021-02-28T09:00:46Z</time>
      </trkpt>
      <trkpt lat="40.3694500" lon="-3.9995400">
        <ele>576.4</ele>
        <time>2021-02-28T09:00:47Z</time>
      </trkpt>
      <trkpt lat="40.3695920" lon="-3.9995380">
        <ele>575.8</ele>
        <time>2021-02-28T09:00:49Z</time>
      </trkpt>
      <trkpt lat="40.3697310" lon="-3.9995370">
        <ele>575.4</ele>
        <time>2021-02-28T09:00:51Z</time>
      </trkpt>
      <trkpt lat="40.3698530" lon="-3.9995380">
        <ele>575.2</ele>
        <time>2021-02-28T09:00:53Z</time>
      </trkpt>
      <trkpt lat="40.3699570" lon="-3.9995120">
        <ele>575.0</ele>
        <time>2021-02-28T09:00:55Z</time>
      </trkpt>
      <trkpt lat="40.3700620" lon="-3.9994860">
        <ele>575.2</ele>
        <time>2021-02-28T09:00:57Z</time>
      </trkpt>
      <trkpt lat="40.3702210" lon="-3.9994880">
        <ele>575.8</ele>
        <time>2021-02-28T09:01:00Z</time>
      </trkpt>
      <trkpt lat="40.3704450" lon="-3.9995590">
        <ele>575.4</ele>
        <time>2021-02-28T09:01:04Z</time>
      </trkpt>
      <trkpt lat="40.3705040" lon="-3.9995850">
        <ele>575.0</ele>
        <time>2021-02-28T09:01:05Z</time>
      </trkpt>
      <trkpt lat="40.3708350" lon="-3.9997270">
        <ele>575.0</ele>
        <time>2021-02-28T09:01:11Z</time>
      </trkpt>
      <trkpt lat="40.3711370" lon="-3.9998400">
        <ele>575.6</ele>
        <time>2021-02-28T09:01:17Z</time>
      </trkpt>
      <trkpt lat="40.3712490" lon="-3.9998640">
        <ele>575.4</ele>
        <time>2021-02-28T09:01:19Z</time>
      </trkpt>
      <trkpt lat="40.3713050" lon="-3.9998650">
        <ele>575.2</ele>
        <time>2021-02-28T09:01:20Z</time>
      </trkpt>
      <trkpt lat="40.3714580" lon="-3.9998080">
        <ele>574.8</ele>
        <time>2021-02-28T09:01:23Z</time>
      </trkpt>
      <trkpt lat="40.3715530" lon="-3.9997280">
        <ele>574.6</ele>
        <time>2021-02-28T09:01:25Z</time>
      </trkpt>
      <trkpt lat="40.3716010" lon="-3.9996800">
        <ele>574.4</ele>
        <time>2021-02-28T09:01:26Z</time>
      </trkpt>
      <trkpt lat="40.3716920" lon="-3.9995680">
        <ele>573.4</ele>
        <time>2021-02-28T09:01:28Z</time>
      </trkpt>
      <trkpt lat="40.3717400" lon="-3.9995090">
        <ele>573.2</ele>
        <time>2021-02-28T09:01:29Z</time>
      </trkpt>
      <trkpt lat="40.3719110" lon="-3.9993150">
        <ele>572.4</ele>
        <time>2021-02-28T09:01:33Z</time>
      </trkpt>
      <trkpt lat="40.3719520" lon="-3.9992730">
        <ele>572.0</ele>
        <time>2021-02-28T09:01:34Z</time>
      </trkpt>
      <trkpt lat="40.3720920" lon="-3.9991360">
        <ele>571.2</ele>
        <time>2021-02-28T09:01:37Z</time>
      </trkpt>
      <trkpt lat="40.3721960" lon="-3.9990530">
        <ele>570.8</ele>
        <time>2021-02-28T09:01:39Z</time>
      </trkpt>
      <trkpt lat="40.3722500" lon="-3.9990210">
        <ele>570.8</ele>
        <time>2021-02-28T09:01:40Z</time>
      </trkpt>
      <trkpt lat="40.3725460" lon="-3.9988890">
        <ele>569.6</ele>
        <time>2021-02-28T09:01:45Z</time>
      </trkpt>
      <trkpt lat="40.3726090" lon="-3.9988610">
        <ele>569.4</ele>
        <time>2021-02-28T09:01:46Z</time>
      </trkpt>
      <trkpt lat="40.3727340" lon="-3.9987970">
        <ele>568.4</ele>
        <time>2021-02-28T09:01:48Z</time>
      </trkpt>
      <trkpt lat="40.3729300" lon="-3.9986970">
        <ele>566.4</ele>
        <time>2021-02-28T09:01:51Z</time>
      </trkpt>
      <trkpt lat="40.3730560" lon="-3.9986120">
        <ele>566.0</ele>
        <time>2021-02-28T09:01:53Z</time>
      </trkpt>
      <trkpt lat="40.3731560" lon="-3.9985620">
        <ele>565.2</ele>
        <time>2021-02-28T09:01:55Z</time>
      </trkpt>
      <trkpt lat="40.3732080" lon="-3.9985600">
        <ele>564.6</ele>
        <time>2021-02-28T09:01:56Z</time>
      </trkpt>
      <trkpt lat="40.3732980" lon="-3.9985440">
        <ele>564.0</ele>
        <time>2021-02-28T09:01:58Z</time>
      </trkpt>
      <trkpt lat="40.3734200" lon="-3.9985110">
        <ele>564.0</ele>
        <time>2021-02-28T09:02:01Z</time>
      </trkpt>
      <trkpt lat="40.3734690" lon="-3.9985090">
        <ele>564.2</ele>
        <time>2021-02-28T09:02:02Z</time>
      </trkpt>
      <trkpt lat="40.3735750" lon="-3.9985100">
        <ele>564.6</ele>
        <time>2021-02-28T09:02:04Z</time>
      </trkpt>
      <trkpt lat="40.3736260" lon="-3.9985210">
        <ele>565.0</ele>
        <time>2021-02-28T09:02:05Z</time>
      </trkpt>
      <trkpt lat="40.3736770" lon="-3.9985300">
        <ele>565.2</ele>
        <time>2021-02-28T09:02:06Z</time>
      </trkpt>
      <trkpt lat="40.3737810" lon="-3.9985470">
        <ele>565.6</ele>
        <time>2021-02-28T09:02:08Z</time>
      </trkpt>
      <trkpt lat="40.3738860" lon="-3.9985770">
        <ele>566.0</ele>
        <time>2021-02-28T09:02:10Z</time>
      </trkpt>
      <trkpt lat="40.3739910" lon="-3.9985880">
        <ele>565.8</ele>
        <time>2021-02-28T09:02:12Z</time>
      </trkpt>
      <trkpt lat="40.3741430" lon="-3.9986010">
        <ele>565.2</ele>
        <time>2021-02-28T09:02:15Z</time>
      </trkpt>
      <trkpt lat="40.3742450" lon="-3.9985940">
        <ele>565.2</ele>
        <time>2021-02-28T09:02:17Z</time>
      </trkpt>
      <trkpt lat="40.3742970" lon="-3.9985890">
        <ele>565.4</ele>
        <time>2021-02-28T09:02:18Z</time>
      </trkpt>
      <trkpt lat="40.3744520" lon="-3.9985620">
        <ele>565.4</ele>
        <time>2021-02-28T09:02:21Z</time>
      </trkpt>
      <trkpt lat="40.3745550" lon="-3.9985720">
        <ele>565.8</ele>
        <time>2021-02-28T09:02:23Z</time>
      </trkpt>
      <trkpt lat="40.3747970" lon="-3.9986160">
        <ele>566.2</ele>
        <time>2021-02-28T09:02:28Z</time>
      </trkpt>
      <trkpt lat="40.3748430" lon="-3.9986230">
        <ele>566.2</ele>
        <time>2021-02-28T09:02:29Z</time>
      </trkpt>
      <trkpt lat="40.3749370" lon="-3.9986460">
        <ele>566.6</ele>
        <time>2021-02-28T09:02:31Z</time>
      </trkpt>
      <trkpt lat="40.3751510" lon="-3.9987350">
        <ele>567.0</ele>
        <time>2021-02-28T09:02:36Z</time>
      </trkpt>
      <trkpt lat="40.3752420" lon="-3.9987800">
        <ele>567.0</ele>
        <time>2021-02-28T09:02:38Z</time>
      </trkpt>
      <trkpt lat="40.3755500" lon="-3.9989660">
        <ele>567.4</ele>
        <time>2021-02-28T09:02:45Z</time>
      </trkpt>
      <trkpt lat="40.3756400" lon="-3.9990110">
        <ele>567.6</ele>
        <time>2021-02-28T09:02:47Z</time>
      </trkpt>
      <trkpt lat="40.3757840" lon="-3.9990220">
        <ele>568.0</ele>
        <time>2021-02-28T09:02:50Z</time>
      </trkpt>
      <trkpt lat="40.3759140" lon="-3.9989680">
        <ele>568.6</ele>
        <time>2021-02-28T09:02:53Z</time>
      </trkpt>
      <trkpt lat="40.3759970" lon="-3.9989170">
        <ele>569.0</ele>
        <time>2021-02-28T09:02:55Z</time>
      </trkpt>
      <trkpt lat="40.3762150" lon="-3.9987930">
        <ele>569.6</ele>
        <time>2021-02-28T09:03:00Z</time>
      </trkpt>
      <trkpt lat="40.3762630" lon="-3.9987790">
        <ele>569.8</ele>
        <time>2021-02-28T09:03:01Z</time>
      </trkpt>
      <trkpt lat="40.3763120" lon="-3.9987740">
        <ele>569.8</ele>
        <time>2021-02-28T09:03:02Z</time>
      </trkpt>
      <trkpt lat="40.3765590" lon="-3.9988070">
        <ele>570.2</ele>
        <time>2021-02-28T09:03:07Z</time>
      </trkpt>
      <trkpt lat="40.3767510" lon="-3.9988540">
        <ele>570.8</ele>
        <time>2021-02-28T09:03:11Z</time>
      </trkpt>
      <trkpt lat="40.3769810" lon="-3.9989110">
        <ele>571.4</ele>
        <time>2021-02-28T09:03:16Z</time>
      </trkpt>
      <trkpt lat="40.3770740" lon="-3.9989100">
        <ele>571.6</ele>
        <time>2021-02-28T09:03:18Z</time>
      </trkpt>
      <trkpt lat="40.3771660" lon="-3.9988850">
        <ele>572.0</ele>
        <time>2021-02-28T09:03:20Z</time>
      </trkpt>
      <trkpt lat="40.3772110" lon="-3.9988670">
        <ele>572.0</ele>
        <time>2021-02-28T09:03:21Z</time>
      </trkpt>
      <trkpt lat="40.3773380" lon="-3.9988000">
        <ele>572.6</ele>
        <time>2021-02-28T09:03:24Z</time>
      </trkpt>
      <trkpt lat="40.3774490" lon="-3.9986950">
        <ele>573.2</ele>
        <time>2021-02-28T09:03:27Z</time>
      </trkpt>
      <trkpt lat="40.3775390" lon="-3.9985750">
        <ele>574.4</ele>
        <time>2021-02-28T09:03:30Z</time>
      </trkpt>
      <trkpt lat="40.3776300" lon="-3.9984600">
        <ele>575.0</ele>
        <time>2021-02-28T09:03:33Z</time>
      </trkpt>
      <trkpt lat="40.3778170" lon="-3.9983750">
        <ele>575.0</ele>
        <time>2021-02-28T09:03:38Z</time>
      </trkpt>
      <trkpt lat="40.3778980" lon="-3.9983720">
        <ele>575.2</ele>
        <time>2021-02-28T09:03:40Z</time>
      </trkpt>
      <trkpt lat="40.3780680" lon="-3.9983640">
        <ele>575.4</ele>
        <time>2021-02-28T09:03:44Z</time>
      </trkpt>
      <trkpt lat="40.3782440" lon="-3.9983580">
        <ele>575.6</ele>
        <time>2021-02-28T09:03:48Z</time>
      </trkpt>
      <trkpt lat="40.3784260" lon="-3.9983610">
        <ele>576.0</ele>
        <time>2021-02-28T09:03:52Z</time>
      </trkpt>
      <trkpt lat="40.3786080" lon="-3.9983970">
        <ele>576.6</ele>
        <time>2021-02-28T09:03:56Z</time>
      </trkpt>
      <trkpt lat="40.3786930" lon="-3.9984250">
        <ele>577.2</ele>
        <time>2021-02-28T09:03:58Z</time>
      </trkpt>
      <trkpt lat="40.3787780" lon="-3.9984520">
        <ele>577.4</ele>
        <time>2021-02-28T09:04:00Z</time>
      </trkpt>
      <trkpt lat="40.3788600" lon="-3.9984820">
        <ele>577.8</ele>
        <time>2021-02-28T09:04:02Z</time>
      </trkpt>
      <trkpt lat="40.3791110" lon="-3.9985950">
        <ele>578.6</ele>
        <time>2021-02-28T09:04:08Z</time>
      </trkpt>
      <trkpt lat="40.3791490" lon="-3.9986250">
        <ele>578.8</ele>
        <time>2021-02-28T09:04:09Z</time>
      </trkpt>
      <trkpt lat="40.3791900" lon="-3.9986550">
        <ele>579.0</ele>
        <time>2021-02-28T09:04:10Z</time>
      </trkpt>
      <trkpt lat="40.3792710" lon="-3.9987220">
        <ele>579.0</ele>
        <time>2021-02-28T09:04:12Z</time>
      </trkpt>
      <trkpt lat="40.3793440" lon="-3.9988020">
        <ele>579.4</ele>
        <time>2021-02-28T09:04:14Z</time>
      </trkpt>
      <trkpt lat="40.3795740" lon="-3.9990300">
        <ele>579.6</ele>
        <time>2021-02-28T09:04:20Z</time>
      </trkpt>
      <trkpt lat="40.3796480" lon="-3.9991090">
        <ele>579.8</ele>
        <time>2021-02-28T09:04:22Z</time>
      </trkpt>
      <trkpt lat="40.3798370" lon="-3.9993010">
        <ele>580.0</ele>
        <time>2021-02-28T09:04:27Z</time>
      </trkpt>
      <trkpt lat="40.3799480" lon="-3.9994180">
        <ele>580.4</ele>
        <time>2021-02-28T09:04:30Z</time>
      </trkpt>
      <trkpt lat="40.3800710" lon="-3.9995160">
        <ele>580.8</ele>
        <time>2021-02-28T09:04:33Z</time>
      </trkpt>
      <trkpt lat="40.3801140" lon="-3.9995420">
        <ele>580.8</ele>
        <time>2021-02-28T09:04:34Z</time>
      </trkpt>
      <trkpt lat="40.3801600" lon="-3.9995630">
        <ele>581.0</ele>
        <time>2021-02-28T09:04:35Z</time>
      </trkpt>
      <trkpt lat="40.3803410" lon="-3.9996240">
        <ele>582.2</ele>
        <time>2021-02-28T09:04:39Z</time>
      </trkpt>
      <trkpt lat="40.3803870" lon="-3.9996260">
        <ele>582.4</ele>
        <time>2021-02-28T09:04:40Z</time>
      </trkpt>
      <trkpt lat="40.3807530" lon="-3.9996040">
        <ele>583.0</ele>
        <time>2021-02-28T09:04:48Z</time>
      </trkpt>
      <trkpt lat="40.3807950" lon="-3.9995950">
        <ele>583.2</ele>
        <time>2021-02-28T09:04:49Z</time>
      </trkpt>
      <trkpt lat="40.3809940" lon="-3.9995320">
        <ele>583.0</ele>
        <time>2021-02-28T09:04:54Z</time>
      </trkpt>
      <trkpt lat="40.3810350" lon="-3.9995230">
        <ele>583.4</ele>
        <time>2021-02-28T09:04:55Z</time>
      </trkpt>
      <trkpt lat="40.3811220" lon="-3.9995090">
        <ele>583.6</ele>
        <time>2021-02-28T09:04:57Z</time>
      </trkpt>
      <trkpt lat="40.3812560" lon="-3.9995050">
        <ele>584.2</ele>
        <time>2021-02-28T09:05:00Z</time>
      </trkpt>
      <trkpt lat="40.3813900" lon="-3.9995140">
        <ele>585.0</ele>
        <time>2021-02-28T09:05:03Z</time>
      </trkpt>
      <trkpt lat="40.3814330" lon="-3.9995220">
        <ele>585.4</ele>
        <time>2021-02-28T09:05:04Z</time>
      </trkpt>
      <trkpt lat="40.3814760" lon="-3.9995240">
        <ele>585.6</ele>
        <time>2021-02-28T09:05:05Z</time>
      </trkpt>
      <trkpt lat="40.3815160" lon="-3.9995290">
        <ele>586.0</ele>
        <time>2021-02-28T09:05:06Z</time>
      </trkpt>
      <trkpt lat="40.3815570" lon="-3.9995360">
        <ele>586.2</ele>
        <time>2021-02-28T09:05:07Z</time>
      </trkpt>
      <trkpt lat="40.3815970" lon="-3.9995430">
        <ele>586.4</ele>
        <time>2021-02-28T09:05:08Z</time>
      </trkpt>
      <trkpt lat="40.3817160" lon="-3.9995680">
        <ele>587.0</ele>
        <time>2021-02-28T09:05:11Z</time>
      </trkpt>
      <trkpt lat="40.3817560" lon="-3.9995730">
        <ele>587.2</ele>
        <time>2021-02-28T09:05:12Z</time>
      </trkpt>
      <trkpt lat="40.3817960" lon="-3.9995750">
        <ele>587.4</ele>
        <time>2021-02-28T09:05:13Z</time>
      </trkpt>
      <trkpt lat="40.3818370" lon="-3.9995800">
        <ele>587.6</ele>
        <time>2021-02-28T09:05:14Z</time>
      </trkpt>
      <trkpt lat="40.3818770" lon="-3.9995870">
        <ele>587.6</ele>
        <time>2021-02-28T09:05:15Z</time>
      </trkpt>
      <trkpt lat="40.3819150" lon="-3.9995940">
        <ele>587.8</ele>
        <time>2021-02-28T09:05:16Z</time>
      </trkpt>
      <trkpt lat="40.3819550" lon="-3.9996030">
        <ele>588.0</ele>
        <time>2021-02-28T09:05:17Z</time>
      </trkpt>
      <trkpt lat="40.3819910" lon="-3.9996120">
        <ele>588.4</ele>
        <time>2021-02-28T09:05:18Z</time>
      </trkpt>
      <trkpt lat="40.3820250" lon="-3.9996230">
        <ele>588.6</ele>
        <time>2021-02-28T09:05:19Z</time>
      </trkpt>
      <trkpt lat="40.3820540" lon="-3.9996340">
        <ele>588.8</ele>
        <time>2021-02-28T09:05:20Z</time>
      </trkpt>
      <trkpt lat="40.3821040" lon="-3.9996490">
        <ele>589.2</ele>
        <time>2021-02-28T09:05:22Z</time>
      </trkpt>
      <trkpt lat="40.3821350" lon="-3.9996670">
        <ele>589.4</ele>
        <time>2021-02-28T09:05:24Z</time>
      </trkpt>
      <trkpt lat="40.3821490" lon="-3.9996680">
        <ele>589.6</ele>
        <time>2021-02-28T09:05:25Z</time>
      </trkpt>
      <trkpt lat="40.3821540" lon="-3.9996700">
        <ele>589.6</ele>
        <time>2021-02-28T09:05:26Z</time>
      </trkpt>
      <trkpt lat="40.3822000" lon="-3.9997040">
        <ele>590.0</ele>
        <time>2021-02-28T09:06:22Z</time>
      </trkpt>
      <trkpt lat="40.3822220" lon="-3.9997230">
        <ele>590.2</ele>
        <time>2021-02-28T09:06:23Z</time>
      </trkpt>
      <trkpt lat="40.3822570" lon="-3.9997410">
        <ele>590.2</ele>
        <time>2021-02-28T09:06:24Z</time>
      </trkpt>
      <trkpt lat="40.3823370" lon="-3.9997720">
        <ele>590.2</ele>
        <time>2021-02-28T09:06:26Z</time>
      </trkpt>
      <trkpt lat="40.3823790" lon="-3.9997800">
        <ele>590.2</ele>
        <time>2021-02-28T09:06:27Z</time>
      </trkpt>
      <trkpt lat="40.3825100" lon="-3.9997880">
        <ele>590.4</ele>
        <time>2021-02-28T09:06:30Z</time>
      </trkpt>
      <trkpt lat="40.3827420" lon="-3.9997790">
        <ele>590.4</ele>
        <time>2021-02-28T09:06:35Z</time>
      </trkpt>
      <trkpt lat="40.3828440" lon="-3.9997890">
        <ele>590.0</ele>
        <time>2021-02-28T09:06:37Z</time>
      </trkpt>
      <trkpt lat="40.3830070" lon="-3.9998110">
        <ele>589.0</ele>
        <time>2021-02-28T09:06:40Z</time>
      </trkpt>
      <trkpt lat="40.3831170" lon="-3.9998280">
        <ele>588.6</ele>
        <time>2021-02-28T09:06:42Z</time>
      </trkpt>
      <trkpt lat="40.3832950" lon="-3.9998500">
        <ele>588.0</ele>
        <time>2021-02-28T09:06:45Z</time>
      </trkpt>
      <trkpt lat="40.3835360" lon="-3.9998820">
        <ele>587.6</ele>
        <time>2021-02-28T09:06:49Z</time>
      </trkpt>
      <trkpt lat="40.3839040" lon="-3.9999210">
        <ele>587.2</ele>
        <time>2021-02-28T09:06:55Z</time>
      </trkpt>
      <trkpt lat="40.3841490" lon="-3.9999320">
        <ele>586.4</ele>
        <time>2021-02-28T09:06:59Z</time>
      </trkpt>
      <trkpt lat="40.3843280" lon="-3.9999150">
        <ele>586.8</ele>
        <time>2021-02-28T09:07:02Z</time>
      </trkpt>
      <trkpt lat="40.3844420" lon="-3.9998750">
        <ele>586.8</ele>
        <time>2021-02-28T09:07:04Z</time>
      </trkpt>
      <trkpt lat="40.3846120" lon="-3.9998090">
        <ele>586.4</ele>
        <time>2021-02-28T09:07:07Z</time>
      </trkpt>
      <trkpt lat="40.3848470" lon="-3.9997350">
        <ele>586.2</ele>
        <time>2021-02-28T09:07:11Z</time>
      </trkpt>
      <trkpt lat="40.3850890" lon="-3.9996750">
        <ele>585.4</ele>
        <time>2021-02-28T09:07:15Z</time>
      </trkpt>
      <trkpt lat="40.3852170" lon="-3.9996660">
        <ele>585.2</ele>
        <time>2021-02-28T09:07:17Z</time>
      </trkpt>
      <trkpt lat="40.3854740" lon="-3.9996680">
        <ele>584.4</ele>
        <time>2021-02-28T09:07:21Z</time>
      </trkpt>
      <trkpt lat="40.3857290" lon="-3.9996790">
        <ele>583.8</ele>
        <time>2021-02-28T09:07:25Z</time>
      </trkpt>
      <trkpt lat="40.3858540" lon="-3.9996780">
        <ele>583.6</ele>
        <time>2021-02-28T09:07:27Z</time>
      </trkpt>
      <trkpt lat="40.3860370" lon="-3.9996580">
        <ele>583.4</ele>
        <time>2021-02-28T09:07:30Z</time>
      </trkpt>
      <trkpt lat="40.3860950" lon="-3.9996450">
        <ele>583.4</ele>
        <time>2021-02-28T09:07:31Z</time>
      </trkpt>
      <trkpt lat="40.3861570" lon="-3.9996340">
        <ele>583.2</ele>
        <time>2021-02-28T09:07:32Z</time>
      </trkpt>
      <trkpt lat="40.3865360" lon="-3.9995640">
        <ele>582.0</ele>
        <time>2021-02-28T09:07:38Z</time>
      </trkpt>
      <trkpt lat="40.3866780" lon="-3.9995160">
        <ele>580.8</ele>
        <time>2021-02-28T09:07:40Z</time>
      </trkpt>
      <trkpt lat="40.3869650" lon="-3.9994230">
        <ele>580.2</ele>
        <time>2021-02-28T09:07:44Z</time>
      </trkpt>
      <trkpt lat="40.3871610" lon="-3.9993490">
        <ele>579.6</ele>
        <time>2021-02-28T09:07:47Z</time>
      </trkpt>
      <trkpt lat="40.3873430" lon="-3.9992590">
        <ele>579.0</ele>
        <time>2021-02-28T09:07:50Z</time>
      </trkpt>
      <trkpt lat="40.3874040" lon="-3.9992280">
        <ele>579.2</ele>
        <time>2021-02-28T09:07:51Z</time>
      </trkpt>
      <trkpt lat="40.3878400" lon="-3.9990500">
        <ele>578.6</ele>
        <time>2021-02-28T09:07:58Z</time>
      </trkpt>
      <trkpt lat="40.3879590" lon="-3.9990010">
        <ele>578.6</ele>
        <time>2021-02-28T09:08:00Z</time>
      </trkpt>
      <trkpt lat="40.3882450" lon="-3.9988720">
        <ele>577.8</ele>
        <time>2021-02-28T09:08:05Z</time>
      </trkpt>
      <trkpt lat="40.3887040" lon="-3.9987180">
        <ele>578.0</ele>
        <time>2021-02-28T09:08:13Z</time>
      </trkpt>
      <trkpt lat="40.3888680" lon="-3.9986910">
        <ele>578.2</ele>
        <time>2021-02-28T09:08:16Z</time>
      </trkpt>
      <trkpt lat="40.3889800" lon="-3.9987010">
        <ele>578.4</ele>
        <time>2021-02-28T09:08:18Z</time>
      </trkpt>
      <trkpt lat="40.3891360" lon="-3.9987160">
        <ele>578.4</ele>
        <time>2021-02-28T09:08:21Z</time>
      </trkpt>
      <trkpt lat="40.3892490" lon="-3.9986810">
        <ele>578.2</ele>
        <time>2021-02-28T09:08:23Z</time>
      </trkpt>
      <trkpt lat="40.3893700" lon="-3.9986570">
        <ele>577.2</ele>
        <time>2021-02-28T09:08:25Z</time>
      </trkpt>
      <trkpt lat="40.3895710" lon="-3.9986350">
        <ele>576.2</ele>
        <time>2021-02-28T09:08:28Z</time>
      </trkpt>
      <trkpt lat="40.3898410" lon="-3.9986530">
        <ele>575.0</ele>
        <time>2021-02-28T09:08:32Z</time>
      </trkpt>
      <trkpt lat="40.3899770" lon="-3.9986720">
        <ele>574.6</ele>
        <time>2021-02-28T09:08:34Z</time>
      </trkpt>
      <trkpt lat="40.3901790" lon="-3.9987140">
        <ele>573.8</ele>
        <time>2021-02-28T09:08:37Z</time>
      </trkpt>
      <trkpt lat="40.3904470" lon="-3.9987770">
        <ele>573.2</ele>
        <time>2021-02-28T09:08:41Z</time>
      </trkpt>
      <trkpt lat="40.3905140" lon="-3.9987890">
        <ele>572.8</ele>
        <time>2021-02-28T09:08:42Z</time>
      </trkpt>
      <trkpt lat="40.3907160" lon="-3.9987970">
        <ele>572.2</ele>
        <time>2021-02-28T09:08:45Z</time>
      </trkpt>
      <trkpt lat="40.3908540" lon="-3.9987800">
        <ele>572.0</ele>
        <time>2021-02-28T09:08:47Z</time>
      </trkpt>
      <trkpt lat="40.3909240" lon="-3.9987660">
        <ele>571.8</ele>
        <time>2021-02-28T09:08:48Z</time>
      </trkpt>
      <trkpt lat="40.3909950" lon="-3.9987530">
        <ele>571.6</ele>
        <time>2021-02-28T09:08:49Z</time>
      </trkpt>
      <trkpt lat="40.3913920" lon="-3.9985970">
        <ele>570.8</ele>
        <time>2021-02-28T09:08:55Z</time>
      </trkpt>
      <trkpt lat="40.3914520" lon="-3.9985660">
        <ele>570.4</ele>
        <time>2021-02-28T09:08:56Z</time>
      </trkpt>
      <trkpt lat="40.3915100" lon="-3.9985480">
        <ele>570.4</ele>
        <time>2021-02-28T09:08:57Z</time>
      </trkpt>
      <trkpt lat="40.3915740" lon="-3.9985470">
        <ele>570.4</ele>
        <time>2021-02-28T09:08:58Z</time>
      </trkpt>
      <trkpt lat="40.3916400" lon="-3.9985580">
        <ele>570.4</ele>
        <time>2021-02-28T09:08:59Z</time>
      </trkpt>
      <trkpt lat="40.3917560" lon="-3.9985860">
        <ele>570.4</ele>
        <time>2021-02-28T09:09:01Z</time>
      </trkpt>
      <trkpt lat="40.3919290" lon="-3.9986100">
        <ele>570.8</ele>
        <time>2021-02-28T09:09:04Z</time>
      </trkpt>
      <trkpt lat="40.3920340" lon="-3.9986430">
        <ele>570.8</ele>
        <time>2021-02-28T09:09:06Z</time>
      </trkpt>
      <trkpt lat="40.3921410" lon="-3.9986790">
        <ele>570.6</ele>
        <time>2021-02-28T09:09:08Z</time>
      </trkpt>
      <trkpt lat="40.3921970" lon="-3.9986920">
        <ele>570.8</ele>
        <time>2021-02-28T09:09:09Z</time>
      </trkpt>
      <trkpt lat="40.3924030" lon="-3.9987240">
        <ele>571.4</ele>
        <time>2021-02-28T09:09:13Z</time>
      </trkpt>
      <trkpt lat="40.3925000" lon="-3.9987350">
        <ele>571.4</ele>
        <time>2021-02-28T09:09:15Z</time>
      </trkpt>
      <trkpt lat="40.3926000" lon="-3.9987500">
        <ele>571.6</ele>
        <time>2021-02-28T09:09:17Z</time>
      </trkpt>
      <trkpt lat="40.3928000" lon="-3.9987650">
        <ele>572.2</ele>
        <time>2021-02-28T09:09:21Z</time>
      </trkpt>
      <trkpt lat="40.3929610" lon="-3.9987810">
        <ele>572.6</ele>
        <time>2021-02-28T09:09:24Z</time>
      </trkpt>
      <trkpt lat="40.3930150" lon="-3.9987800">
        <ele>572.6</ele>
        <time>2021-02-28T09:09:25Z</time>
      </trkpt>
      <trkpt lat="40.3931540" lon="-3.9987910">
        <ele>574.2</ele>
        <time>2021-02-28T09:09:28Z</time>
      </trkpt>
      <trkpt lat="40.3932360" lon="-3.9988040">
        <ele>574.8</ele>
        <time>2021-02-28T09:09:30Z</time>
      </trkpt>
      <trkpt lat="40.3933120" lon="-3.9988200">
        <ele>575.4</ele>
        <time>2021-02-28T09:09:32Z</time>
      </trkpt>
      <trkpt lat="40.3934250" lon="-3.9988470">
        <ele>576.2</ele>
        <time>2021-02-28T09:09:35Z</time>
      </trkpt>
      <trkpt lat="40.3934630" lon="-3.9988560">
        <ele>576.4</ele>
        <time>2021-02-28T09:09:36Z</time>
      </trkpt>
      <trkpt lat="40.3935410" lon="-3.9988720">
        <ele>577.0</ele>
        <time>2021-02-28T09:09:38Z</time>
      </trkpt>
      <trkpt lat="40.3936160" lon="-3.9988910">
        <ele>577.6</ele>
        <time>2021-02-28T09:09:40Z</time>
      </trkpt>
      <trkpt lat="40.3938090" lon="-3.9989460">
        <ele>578.6</ele>
        <time>2021-02-28T09:09:45Z</time>
      </trkpt>
      <trkpt lat="40.3939000" lon="-3.9989740">
        <ele>578.4</ele>
        <time>2021-02-28T09:09:47Z</time>
      </trkpt>
      <trkpt lat="40.3942500" lon="-3.9990460">
        <ele>577.6</ele>
        <time>2021-02-28T09:09:54Z</time>
      </trkpt>
      <trkpt lat="40.3944610" lon="-3.9990710">
        <ele>577.2</ele>
        <time>2021-02-28T09:09:58Z</time>
      </trkpt>
      <trkpt lat="40.3945580" lon="-3.9990760">
        <ele>576.8</ele>
        <time>2021-02-28T09:10:00Z</time>
      </trkpt>
      <trkpt lat="40.3946110" lon="-3.9990820">
        <ele>576.8</ele>
        <time>2021-02-28T09:10:01Z</time>
      </trkpt>
      <trkpt lat="40.3950130" lon="-3.9990920">
        <ele>577.2</ele>
        <time>2021-02-28T09:10:09Z</time>
      </trkpt>
      <trkpt lat="40.3953330" lon="-3.9991300">
        <ele>578.6</ele>
        <time>2021-02-28T09:10:16Z</time>
      </trkpt>
      <trkpt lat="40.3954260" lon="-3.9991430">
        <ele>578.8</ele>
        <time>2021-02-28T09:10:18Z</time>
      </trkpt>
      <trkpt lat="40.3957590" lon="-3.9992520">
        <ele>579.0</ele>
        <time>2021-02-28T09:10:25Z</time>
      </trkpt>
      <trkpt lat="40.3958030" lon="-3.9992820">
        <ele>579.0</ele>
        <time>2021-02-28T09:10:26Z</time>
      </trkpt>
      <trkpt lat="40.3959730" lon="-3.9993890">
        <ele>579.4</ele>
        <time>2021-02-28T09:10:30Z</time>
      </trkpt>
      <trkpt lat="40.3962160" lon="-3.9994360">
        <ele>579.2</ele>
        <time>2021-02-28T09:10:35Z</time>
      </trkpt>
      <trkpt lat="40.3962640" lon="-3.9994400">
        <ele>579.6</ele>
        <time>2021-02-28T09:10:36Z</time>
      </trkpt>
      <trkpt lat="40.3965330" lon="-3.9994590">
        <ele>580.6</ele>
        <time>2021-02-28T09:10:42Z</time>
      </trkpt>
      <trkpt lat="40.3965770" lon="-3.9994610">
        <ele>580.6</ele>
        <time>2021-02-28T09:10:43Z</time>
      </trkpt>
      <trkpt lat="40.3969190" lon="-3.9995100">
        <ele>580.2</ele>
        <time>2021-02-28T09:10:50Z</time>
      </trkpt>
      <trkpt lat="40.3970340" lon="-3.9995210">
        <ele>579.6</ele>
        <time>2021-02-28T09:10:52Z</time>
      </trkpt>
      <trkpt lat="40.3972840" lon="-3.9995400">
        <ele>578.6</ele>
        <time>2021-02-28T09:10:56Z</time>
      </trkpt>
      <trkpt lat="40.3973480" lon="-3.9995520">
        <ele>578.4</ele>
        <time>2021-02-28T09:10:57Z</time>
      </trkpt>
      <trkpt lat="40.3974700" lon="-3.9995930">
        <ele>577.8</ele>
        <time>2021-02-28T09:10:59Z</time>
      </trkpt>
      <trkpt lat="40.3976270" lon="-3.9997070">
        <ele>577.2</ele>
        <time>2021-02-28T09:11:02Z</time>
      </trkpt>
      <trkpt lat="40.3976770" lon="-3.9997470">
        <ele>577.0</ele>
        <time>2021-02-28T09:11:03Z</time>
      </trkpt>
      <trkpt lat="40.3979000" lon="-3.9999240">
        <ele>576.2</ele>
        <time>2021-02-28T09:11:07Z</time>
      </trkpt>
      <trkpt lat="40.3979540" lon="-3.9999710">
        <ele>576.2</ele>
        <time>2021-02-28T09:11:08Z</time>
      </trkpt>
      <trkpt lat="40.3980100" lon="-4.0000210">
        <ele>575.8</ele>
        <time>2021-02-28T09:11:09Z</time>
      </trkpt>
      <trkpt lat="40.3981260" lon="-4.0001130">
        <ele>575.0</ele>
        <time>2021-02-28T09:11:11Z</time>
      </trkpt>
      <trkpt lat="40.3982400" lon="-4.0002100">
        <ele>574.6</ele>
        <time>2021-02-28T09:11:13Z</time>
      </trkpt>
      <trkpt lat="40.3983520" lon="-4.0003250">
        <ele>574.0</ele>
        <time>2021-02-28T09:11:15Z</time>
      </trkpt>
      <trkpt lat="40.3984120" lon="-4.0003840">
        <ele>573.6</ele>
        <time>2021-02-28T09:11:16Z</time>
      </trkpt>
      <trkpt lat="40.3985340" lon="-4.0005400">
        <ele>572.4</ele>
        <time>2021-02-28T09:11:18Z</time>
      </trkpt>
      <trkpt lat="40.3986570" lon="-4.0007220">
        <ele>570.6</ele>
        <time>2021-02-28T09:11:20Z</time>
      </trkpt>
      <trkpt lat="40.3988050" lon="-4.0008820">
        <ele>569.0</ele>
        <time>2021-02-28T09:11:22Z</time>
      </trkpt>
      <trkpt lat="40.3989710" lon="-4.0009970">
        <ele>568.0</ele>
        <time>2021-02-28T09:11:24Z</time>
      </trkpt>
      <trkpt lat="40.3990550" lon="-4.0010340">
        <ele>568.0</ele>
        <time>2021-02-28T09:11:25Z</time>
      </trkpt>
      <trkpt lat="40.3992110" lon="-4.0011150">
        <ele>567.8</ele>
        <time>2021-02-28T09:11:27Z</time>
      </trkpt>
      <trkpt lat="40.3992820" lon="-4.0011630">
        <ele>567.6</ele>
        <time>2021-02-28T09:11:28Z</time>
      </trkpt>
      <trkpt lat="40.3995870" lon="-4.0014360">
        <ele>567.8</ele>
        <time>2021-02-28T09:11:33Z</time>
      </trkpt>
      <trkpt lat="40.3998110" lon="-4.0016620">
        <ele>567.4</ele>
        <time>2021-02-28T09:11:37Z</time>
      </trkpt>
      <trkpt lat="40.4000170" lon="-4.0018970">
        <ele>567.2</ele>
        <time>2021-02-28T09:11:41Z</time>
      </trkpt>
      <trkpt lat="40.4001670" lon="-4.0020860">
        <ele>566.8</ele>
        <time>2021-02-28T09:11:44Z</time>
      </trkpt>
      <trkpt lat="40.4004740" lon="-4.0024670">
        <ele>566.8</ele>
        <time>2021-02-28T09:11:50Z</time>
      </trkpt>
      <trkpt lat="40.4006510" lon="-4.0027310">
        <ele>567.2</ele>
        <time>2021-02-28T09:11:54Z</time>
      </trkpt>
      <trkpt lat="40.4008160" lon="-4.0029960">
        <ele>567.6</ele>
        <time>2021-02-28T09:11:58Z</time>
      </trkpt>
      <trkpt lat="40.4009310" lon="-4.0032000">
        <ele>567.8</ele>
        <time>2021-02-28T09:12:01Z</time>
      </trkpt>
      <trkpt lat="40.4011230" lon="-4.0035480">
        <ele>568.2</ele>
        <time>2021-02-28T09:12:06Z</time>
      </trkpt>
      <trkpt lat="40.4011610" lon="-4.0036190">
        <ele>568.2</ele>
        <time>2021-02-28T09:12:07Z</time>
      </trkpt>
      <trkpt lat="40.4013980" lon="-4.0040680">
        <ele>568.8</ele>
        <time>2021-02-28T09:12:14Z</time>
      </trkpt>
      <trkpt lat="40.4014270" lon="-4.0041890">
        <ele>568.6</ele>
        <time>2021-02-28T09:12:16Z</time>
      </trkpt>
      <trkpt lat="40.4013780" lon="-4.0042940">
        <ele>568.2</ele>
        <time>2021-02-28T09:12:18Z</time>
      </trkpt>
      <trkpt lat="40.4012170" lon="-4.0043570">
        <ele>567.6</ele>
        <time>2021-02-28T09:12:21Z</time>
      </trkpt>
      <trkpt lat="40.4010250" lon="-4.0044330">
        <ele>566.6</ele>
        <time>2021-02-28T09:12:24Z</time>
      </trkpt>
      <trkpt lat="40.4008210" lon="-4.0045150">
        <ele>565.4</ele>
        <time>2021-02-28T09:12:27Z</time>
      </trkpt>
      <trkpt lat="40.4006120" lon="-4.0046280">
        <ele>564.4</ele>
        <time>2021-02-28T09:12:30Z</time>
      </trkpt>
      <trkpt lat="40.4004090" lon="-4.0047520">
        <ele>563.6</ele>
        <time>2021-02-28T09:12:33Z</time>
      </trkpt>
      <trkpt lat="40.4002760" lon="-4.0048550">
        <ele>562.8</ele>
        <time>2021-02-28T09:12:35Z</time>
      </trkpt>
      <trkpt lat="40.4000430" lon="-4.0050640">
        <ele>562.0</ele>
        <time>2021-02-28T09:12:39Z</time>
      </trkpt>
      <trkpt lat="40.3999430" lon="-4.0051690">
        <ele>562.4</ele>
        <time>2021-02-28T09:12:41Z</time>
      </trkpt>
      <trkpt lat="40.3998100" lon="-4.0053370">
        <ele>562.4</ele>
        <time>2021-02-28T09:12:44Z</time>
      </trkpt>
      <trkpt lat="40.3995870" lon="-4.0056820">
        <ele>563.2</ele>
        <time>2021-02-28T09:12:50Z</time>
      </trkpt>
      <trkpt lat="40.3995260" lon="-4.0057960">
        <ele>563.8</ele>
        <time>2021-02-28T09:12:52Z</time>
      </trkpt>
      <trkpt lat="40.3994990" lon="-4.0058520">
        <ele>564.0</ele>
        <time>2021-02-28T09:12:53Z</time>
      </trkpt>
      <trkpt lat="40.3994040" lon="-4.0060030">
        <ele>564.8</ele>
        <time>2021-02-28T09:12:56Z</time>
      </trkpt>
      <trkpt lat="40.3993690" lon="-4.0060490">
        <ele>565.2</ele>
        <time>2021-02-28T09:12:57Z</time>
      </trkpt>
      <trkpt lat="40.3993330" lon="-4.0060930">
        <ele>565.4</ele>
        <time>2021-02-28T09:12:58Z</time>
      </trkpt>
      <trkpt lat="40.3992640" lon="-4.0061830">
        <ele>565.4</ele>
        <time>2021-02-28T09:13:00Z</time>
      </trkpt>
      <trkpt lat="40.3991610" lon="-4.0063370">
        <ele>565.6</ele>
        <time>2021-02-28T09:13:03Z</time>
      </trkpt>
      <trkpt lat="40.3991300" lon="-4.0063970">
        <ele>565.6</ele>
        <time>2021-02-28T09:13:04Z</time>
      </trkpt>
      <trkpt lat="40.3990200" lon="-4.0066390">
        <ele>566.0</ele>
        <time>2021-02-28T09:13:08Z</time>
      </trkpt>
      <trkpt lat="40.3989450" lon="-4.0068380">
        <ele>566.0</ele>
        <time>2021-02-28T09:13:11Z</time>
      </trkpt>
      <trkpt lat="40.3989220" lon="-4.0069100">
        <ele>565.8</ele>
        <time>2021-02-28T09:13:12Z</time>
      </trkpt>
      <trkpt lat="40.3988850" lon="-4.0070550">
        <ele>565.8</ele>
        <time>2021-02-28T09:13:14Z</time>
      </trkpt>
      <trkpt lat="40.3988140" lon="-4.0074180">
        <ele>565.8</ele>
        <time>2021-02-28T09:13:19Z</time>
      </trkpt>
      <trkpt lat="40.3987720" lon="-4.0075500">
        <ele>566.0</ele>
        <time>2021-02-28T09:13:21Z</time>
      </trkpt>
      <trkpt lat="40.3986450" lon="-4.0077930">
        <ele>566.0</ele>
        <time>2021-02-28T09:13:25Z</time>
      </trkpt>
      <trkpt lat="40.3986050" lon="-4.0078500">
        <ele>566.2</ele>
        <time>2021-02-28T09:13:26Z</time>
      </trkpt>
      <trkpt lat="40.3983940" lon="-4.0081070">
        <ele>566.2</ele>
        <time>2021-02-28T09:13:31Z</time>
      </trkpt>
      <trkpt lat="40.3983010" lon="-4.0081820">
        <ele>566.4</ele>
        <time>2021-02-28T09:13:33Z</time>
      </trkpt>
      <trkpt lat="40.3981590" lon="-4.0082460">
        <ele>566.8</ele>
        <time>2021-02-28T09:13:36Z</time>
      </trkpt>
      <trkpt lat="40.3978620" lon="-4.0083780">
        <ele>565.4</ele>
        <time>2021-02-28T09:13:41Z</time>
      </trkpt>
      <trkpt lat="40.3977990" lon="-4.0084200">
        <ele>565.0</ele>
        <time>2021-02-28T09:13:42Z</time>
      </trkpt>
      <trkpt lat="40.3977430" lon="-4.0084760">
        <ele>564.6</ele>
        <time>2021-02-28T09:13:43Z</time>
      </trkpt>
      <trkpt lat="40.3976300" lon="-4.0086160">
        <ele>563.4</ele>
        <time>2021-02-28T09:13:45Z</time>
      </trkpt>
      <trkpt lat="40.3974930" lon="-4.0087630">
        <ele>561.8</ele>
        <time>2021-02-28T09:13:47Z</time>
      </trkpt>
      <trkpt lat="40.3973310" lon="-4.0088910">
        <ele>560.2</ele>
        <time>2021-02-28T09:13:49Z</time>
      </trkpt>
      <trkpt lat="40.3971890" lon="-4.0090330">
        <ele>558.4</ele>
        <time>2021-02-28T09:13:51Z</time>
      </trkpt>
      <trkpt lat="40.3971260" lon="-4.0091200">
        <ele>556.8</ele>
        <time>2021-02-28T09:13:52Z</time>
      </trkpt>
      <trkpt lat="40.3970690" lon="-4.0092160">
        <ele>556.0</ele>
        <time>2021-02-28T09:13:53Z</time>
      </trkpt>
      <trkpt lat="40.3970150" lon="-4.0093140">
        <ele>555.4</ele>
        <time>2021-02-28T09:13:54Z</time>
      </trkpt>
      <trkpt lat="40.3969200" lon="-4.0095240">
        <ele>554.4</ele>
        <time>2021-02-28T09:13:56Z</time>
      </trkpt>
      <trkpt lat="40.3968160" lon="-4.0097250">
        <ele>553.6</ele>
        <time>2021-02-28T09:13:58Z</time>
      </trkpt>
      <trkpt lat="40.3967060" lon="-4.0099060">
        <ele>553.4</ele>
        <time>2021-02-28T09:14:00Z</time>
      </trkpt>
      <trkpt lat="40.3966130" lon="-4.0100370">
        <ele>553.0</ele>
        <time>2021-02-28T09:14:02Z</time>
      </trkpt>
      <trkpt lat="40.3964270" lon="-4.0102300">
        <ele>552.4</ele>
        <time>2021-02-28T09:14:06Z</time>
      </trkpt>
      <trkpt lat="40.3963740" lon="-4.0102820">
        <ele>552.4</ele>
        <time>2021-02-28T09:14:07Z</time>
      </trkpt>
      <trkpt lat="40.3962130" lon="-4.0104250">
        <ele>552.8</ele>
        <time>2021-02-28T09:14:10Z</time>
      </trkpt>
      <trkpt lat="40.3960750" lon="-4.0105580">
        <ele>553.4</ele>
        <time>2021-02-28T09:14:13Z</time>
      </trkpt>
      <trkpt lat="40.3959820" lon="-4.0106930">
        <ele>554.4</ele>
        <time>2021-02-28T09:14:16Z</time>
      </trkpt>
      <trkpt lat="40.3959540" lon="-4.0107910">
        <ele>555.4</ele>
        <time>2021-02-28T09:14:18Z</time>
      </trkpt>
      <trkpt lat="40.3959450" lon="-4.0108400">
        <ele>555.6</ele>
        <time>2021-02-28T09:14:19Z</time>
      </trkpt>
      <trkpt lat="40.3958990" lon="-4.0109700">
        <ele>556.2</ele>
        <time>2021-02-28T09:14:22Z</time>
      </trkpt>
      <trkpt lat="40.3958600" lon="-4.0110580">
        <ele>556.6</ele>
        <time>2021-02-28T09:14:24Z</time>
      </trkpt>
      <trkpt lat="40.3958360" lon="-4.0111010">
        <ele>556.6</ele>
        <time>2021-02-28T09:14:25Z</time>
      </trkpt>
      <trkpt lat="40.3957680" lon="-4.0112340">
        <ele>557.2</ele>
        <time>2021-02-28T09:14:28Z</time>
      </trkpt>
      <trkpt lat="40.3957230" lon="-4.0113190">
        <ele>557.6</ele>
        <time>2021-02-28T09:14:30Z</time>
      </trkpt>
      <trkpt lat="40.3956510" lon="-4.0114410">
        <ele>558.2</ele>
        <time>2021-02-28T09:14:33Z</time>
      </trkpt>
      <trkpt lat="40.3956100" lon="-4.0115210">
        <ele>558.8</ele>
        <time>2021-02-28T09:14:35Z</time>
      </trkpt>
      <trkpt lat="40.3955250" lon="-4.0116740">
        <ele>559.8</ele>
        <time>2021-02-28T09:14:39Z</time>
      </trkpt>
      <trkpt lat="40.3954860" lon="-4.0117480">
        <ele>560.6</ele>
        <time>2021-02-28T09:14:41Z</time>
      </trkpt>
      <trkpt lat="40.3954670" lon="-4.0117850">
        <ele>561.0</ele>
        <time>2021-02-28T09:14:42Z</time>
      </trkpt>
      <trkpt lat="40.3954090" lon="-4.0119020">
        <ele>562.0</ele>
        <time>2021-02-28T09:14:45Z</time>
      </trkpt>
      <trkpt lat="40.3953520" lon="-4.0120210">
        <ele>563.0</ele>
        <time>2021-02-28T09:14:48Z</time>
      </trkpt>
      <trkpt lat="40.3953330" lon="-4.0120650">
        <ele>563.6</ele>
        <time>2021-02-28T09:14:49Z</time>
      </trkpt>
      <trkpt lat="40.3952940" lon="-4.0121510">
        <ele>564.2</ele>
        <time>2021-02-28T09:14:51Z</time>
      </trkpt>
      <trkpt lat="40.3952120" lon="-4.0123280">
        <ele>564.8</ele>
        <time>2021-02-28T09:14:55Z</time>
      </trkpt>
      <trkpt lat="40.3951580" lon="-4.0124210">
        <ele>564.6</ele>
        <time>2021-02-28T09:14:57Z</time>
      </trkpt>
      <trkpt lat="40.3950980" lon="-4.0125080">
        <ele>564.6</ele>
        <time>2021-02-28T09:14:59Z</time>
      </trkpt>
      <trkpt lat="40.3950480" lon="-4.0126020">
        <ele>564.6</ele>
        <time>2021-02-28T09:15:01Z</time>
      </trkpt>
      <trkpt lat="40.3950050" lon="-4.0127750">
        <ele>564.4</ele>
        <time>2021-02-28T09:15:04Z</time>
      </trkpt>
      <trkpt lat="40.3949060" lon="-4.0130930">
        <ele>565.2</ele>
        <time>2021-02-28T09:15:10Z</time>
      </trkpt>
      <trkpt lat="40.3948590" lon="-4.0131850">
        <ele>565.6</ele>
        <time>2021-02-28T09:15:12Z</time>
      </trkpt>
      <trkpt lat="40.3947890" lon="-4.0133180">
        <ele>566.4</ele>
        <time>2021-02-28T09:15:15Z</time>
      </trkpt>
      <trkpt lat="40.3946480" lon="-4.0135760">
        <ele>566.8</ele>
        <time>2021-02-28T09:15:21Z</time>
      </trkpt>
      <trkpt lat="40.3945790" lon="-4.0137220">
        <ele>565.8</ele>
        <time>2021-02-28T09:15:25Z</time>
      </trkpt>
      <trkpt lat="40.3945570" lon="-4.0137620">
        <ele>565.2</ele>
        <time>2021-02-28T09:15:28Z</time>
      </trkpt>
      <trkpt lat="40.3945610" lon="-4.0137760">
        <ele>565.4</ele>
        <time>2021-02-28T09:15:31Z</time>
      </trkpt>
      <trkpt lat="40.3945470" lon="-4.0137950">
        <ele>565.2</ele>
        <time>2021-02-28T09:15:33Z</time>
      </trkpt>
      <trkpt lat="40.3945110" lon="-4.0138150">
        <ele>565.2</ele>
        <time>2021-02-28T09:15:36Z</time>
      </trkpt>
      <trkpt lat="40.3944750" lon="-4.0138620">
        <ele>565.2</ele>
        <time>2021-02-28T09:15:41Z</time>
      </trkpt>
      <trkpt lat="40.3944600" lon="-4.0138820">
        <ele>565.2</ele>
        <time>2021-02-28T09:15:42Z</time>
      </trkpt>
      <trkpt lat="40.3943860" lon="-4.0140020">
        <ele>565.4</ele>
        <time>2021-02-28T09:15:45Z</time>
      </trkpt>
      <trkpt lat="40.3943580" lon="-4.0140490">
        <ele>565.6</ele>
        <time>2021-02-28T09:15:46Z</time>
      </trkpt>
      <trkpt lat="40.3942380" lon="-4.0142310">
        <ele>566.2</ele>
        <time>2021-02-28T09:15:50Z</time>
      </trkpt>
      <trkpt lat="40.3941420" lon="-4.0143550">
        <ele>567.4</ele>
        <time>2021-02-28T09:15:53Z</time>
      </trkpt>
      <trkpt lat="40.3941070" lon="-4.0143940">
        <ele>567.6</ele>
        <time>2021-02-28T09:15:54Z</time>
      </trkpt>
      <trkpt lat="40.3939690" lon="-4.0145300">
        <ele>568.6</ele>
        <time>2021-02-28T09:15:58Z</time>
      </trkpt>
      <trkpt lat="40.3938240" lon="-4.0146590">
        <ele>568.8</ele>
        <time>2021-02-28T09:16:02Z</time>
      </trkpt>
      <trkpt lat="40.3936000" lon="-4.0148290">
        <ele>567.2</ele>
        <time>2021-02-28T09:16:06Z</time>
      </trkpt>
      <trkpt lat="40.3933400" lon="-4.0150230">
        <ele>566.0</ele>
        <time>2021-02-28T09:16:10Z</time>
      </trkpt>
      <trkpt lat="40.3931420" lon="-4.0151680">
        <ele>565.2</ele>
        <time>2021-02-28T09:16:13Z</time>
      </trkpt>
      <trkpt lat="40.3930780" lon="-4.0152120">
        <ele>565.0</ele>
        <time>2021-02-28T09:16:14Z</time>
      </trkpt>
      <trkpt lat="40.3929860" lon="-4.0153020">
        <ele>564.0</ele>
        <time>2021-02-28T09:16:16Z</time>
      </trkpt>
      <trkpt lat="40.3929590" lon="-4.0153640">
        <ele>564.0</ele>
        <time>2021-02-28T09:16:17Z</time>
      </trkpt>
      <trkpt lat="40.3928440" lon="-4.0156170">
        <ele>563.8</ele>
        <time>2021-02-28T09:16:21Z</time>
      </trkpt>
      <trkpt lat="40.3928070" lon="-4.0156720">
        <ele>563.6</ele>
        <time>2021-02-28T09:16:22Z</time>
      </trkpt>
      <trkpt lat="40.3927360" lon="-4.0157860">
        <ele>563.6</ele>
        <time>2021-02-28T09:16:24Z</time>
      </trkpt>
      <trkpt lat="40.3925650" lon="-4.0160760">
        <ele>563.8</ele>
        <time>2021-02-28T09:16:29Z</time>
      </trkpt>
      <trkpt lat="40.3923440" lon="-4.0163900">
        <ele>564.4</ele>
        <time>2021-02-28T09:16:35Z</time>
      </trkpt>
      <trkpt lat="40.3923000" lon="-4.0164630">
        <ele>564.4</ele>
        <time>2021-02-28T09:16:38Z</time>
      </trkpt>
      <trkpt lat="40.3922150" lon="-4.0165270">
        <ele>564.8</ele>
        <time>2021-02-28T09:16:44Z</time>
      </trkpt>
      <trkpt lat="40.3921090" lon="-4.0166480">
        <ele>565.0</ele>
        <time>2021-02-28T09:16:48Z</time>
      </trkpt>
      <trkpt lat="40.3919950" lon="-4.0167450">
        <ele>565.0</ele>
        <time>2021-02-28T09:16:51Z</time>
      </trkpt>
      <trkpt lat="40.3918990" lon="-4.0168190">
        <ele>564.4</ele>
        <time>2021-02-28T09:16:53Z</time>
      </trkpt>
      <trkpt lat="40.3918450" lon="-4.0168720">
        <ele>563.8</ele>
        <time>2021-02-28T09:16:54Z</time>
      </trkpt>
      <trkpt lat="40.3917380" lon="-4.0170130">
        <ele>562.8</ele>
        <time>2021-02-28T09:16:56Z</time>
      </trkpt>
      <trkpt lat="40.3916870" lon="-4.0170980">
        <ele>562.4</ele>
        <time>2021-02-28T09:16:57Z</time>
      </trkpt>
      <trkpt lat="40.3915110" lon="-4.0173380">
        <ele>561.0</ele>
        <time>2021-02-28T09:17:00Z</time>
      </trkpt>
      <trkpt lat="40.3914080" lon="-4.0174620">
        <ele>560.4</ele>
        <time>2021-02-28T09:17:02Z</time>
      </trkpt>
      <trkpt lat="40.3913630" lon="-4.0175160">
        <ele>560.0</ele>
        <time>2021-02-28T09:17:03Z</time>
      </trkpt>
      <trkpt lat="40.3913100" lon="-4.0175640">
        <ele>558.8</ele>
        <time>2021-02-28T09:17:04Z</time>
      </trkpt>
      <trkpt lat="40.3912510" lon="-4.0176300">
        <ele>557.8</ele>
        <time>2021-02-28T09:17:05Z</time>
      </trkpt>
      <trkpt lat="40.3911960" lon="-4.0176930">
        <ele>556.6</ele>
        <time>2021-02-28T09:17:06Z</time>
      </trkpt>
      <trkpt lat="40.3911330" lon="-4.0177590">
        <ele>555.6</ele>
        <time>2021-02-28T09:17:07Z</time>
      </trkpt>
      <trkpt lat="40.3910710" lon="-4.0178280">
        <ele>554.4</ele>
        <time>2021-02-28T09:17:08Z</time>
      </trkpt>
      <trkpt lat="40.3910170" lon="-4.0178860">
        <ele>553.2</ele>
        <time>2021-02-28T09:17:09Z</time>
      </trkpt>
      <trkpt lat="40.3909760" lon="-4.0179380">
        <ele>552.0</ele>
        <time>2021-02-28T09:17:10Z</time>
      </trkpt>
      <trkpt lat="40.3909600" lon="-4.0179820">
        <ele>550.8</ele>
        <time>2021-02-28T09:17:12Z</time>
      </trkpt>
      <trkpt lat="40.3909670" lon="-4.0180110">
        <ele>550.8</ele>
        <time>2021-02-28T09:17:16Z</time>
      </trkpt>
      <trkpt lat="40.3909740" lon="-4.0180840">
        <ele>550.8</ele>
        <time>2021-02-28T09:17:23Z</time>
      </trkpt>
      <trkpt lat="40.3909530" lon="-4.0182110">
        <ele>551.0</ele>
        <time>2021-02-28T09:17:31Z</time>
      </trkpt>
      <trkpt lat="40.3908920" lon="-4.0183260">
        <ele>551.4</ele>
        <time>2021-02-28T09:17:34Z</time>
      </trkpt>
      <trkpt lat="40.3908280" lon="-4.0183910">
        <ele>552.0</ele>
        <time>2021-02-28T09:17:36Z</time>
      </trkpt>
      <trkpt lat="40.3907220" lon="-4.0184870">
        <ele>553.0</ele>
        <time>2021-02-28T09:17:39Z</time>
      </trkpt>
      <trkpt lat="40.3906860" lon="-4.0185160">
        <ele>553.2</ele>
        <time>2021-02-28T09:17:40Z</time>
      </trkpt>
      <trkpt lat="40.3905470" lon="-4.0186430">
        <ele>552.8</ele>
        <time>2021-02-28T09:17:44Z</time>
      </trkpt>
      <trkpt lat="40.3904800" lon="-4.0187820">
        <ele>553.0</ele>
        <time>2021-02-28T09:17:47Z</time>
      </trkpt>
      <trkpt lat="40.3904640" lon="-4.0188290">
        <ele>553.2</ele>
        <time>2021-02-28T09:17:48Z</time>
      </trkpt>
      <trkpt lat="40.3904420" lon="-4.0189130">
        <ele>554.0</ele>
        <time>2021-02-28T09:17:50Z</time>
      </trkpt>
      <trkpt lat="40.3904210" lon="-4.0189820">
        <ele>555.4</ele>
        <time>2021-02-28T09:17:52Z</time>
      </trkpt>
      <trkpt lat="40.3904080" lon="-4.0190240">
        <ele>556.0</ele>
        <time>2021-02-28T09:17:53Z</time>
      </trkpt>
      <trkpt lat="40.3903830" lon="-4.0190950">
        <ele>556.8</ele>
        <time>2021-02-28T09:17:55Z</time>
      </trkpt>
      <trkpt lat="40.3903330" lon="-4.0192080">
        <ele>557.6</ele>
        <time>2021-02-28T09:17:58Z</time>
      </trkpt>
      <trkpt lat="40.3903160" lon="-4.0192470">
        <ele>557.8</ele>
        <time>2021-02-28T09:17:59Z</time>
      </trkpt>
      <trkpt lat="40.3902780" lon="-4.0193270">
        <ele>558.2</ele>
        <time>2021-02-28T09:18:01Z</time>
      </trkpt>
      <trkpt lat="40.3902090" lon="-4.0194810">
        <ele>558.8</ele>
        <time>2021-02-28T09:18:05Z</time>
      </trkpt>
      <trkpt lat="40.3901530" lon="-4.0196220">
        <ele>557.8</ele>
        <time>2021-02-28T09:18:07Z</time>
      </trkpt>
      <trkpt lat="40.3901140" lon="-4.0198130">
        <ele>556.0</ele>
        <time>2021-02-28T09:18:09Z</time>
      </trkpt>
      <trkpt lat="40.3900570" lon="-4.0200220">
        <ele>554.2</ele>
        <time>2021-02-28T09:18:11Z</time>
      </trkpt>
      <trkpt lat="40.3900140" lon="-4.0201100">
        <ele>552.8</ele>
        <time>2021-02-28T09:18:12Z</time>
      </trkpt>
      <trkpt lat="40.3899660" lon="-4.0201850">
        <ele>551.8</ele>
        <time>2021-02-28T09:18:13Z</time>
      </trkpt>
      <trkpt lat="40.3899310" lon="-4.0202320">
        <ele>550.8</ele>
        <time>2021-02-28T09:18:14Z</time>
      </trkpt>
      <trkpt lat="40.3899080" lon="-4.0202610">
        <ele>550.2</ele>
        <time>2021-02-28T09:18:15Z</time>
      </trkpt>
      <trkpt lat="40.3898740" lon="-4.0203300">
        <ele>549.4</ele>
        <time>2021-02-28T09:18:17Z</time>
      </trkpt>
      <trkpt lat="40.3898570" lon="-4.0203480">
        <ele>549.2</ele>
        <time>2021-02-28T09:18:18Z</time>
      </trkpt>
      <trkpt lat="40.3897850" lon="-4.0204080">
        <ele>549.6</ele>
        <time>2021-02-28T09:18:21Z</time>
      </trkpt>
      <trkpt lat="40.3896430" lon="-4.0205260">
        <ele>550.4</ele>
        <time>2021-02-28T09:18:26Z</time>
      </trkpt>
      <trkpt lat="40.3895890" lon="-4.0205780">
        <ele>551.0</ele>
        <time>2021-02-28T09:18:28Z</time>
      </trkpt>
      <trkpt lat="40.3895420" lon="-4.0206360">
        <ele>551.6</ele>
        <time>2021-02-28T09:18:30Z</time>
      </trkpt>
      <trkpt lat="40.3894810" lon="-4.0207340">
        <ele>552.6</ele>
        <time>2021-02-28T09:18:33Z</time>
      </trkpt>
      <trkpt lat="40.3894260" lon="-4.0208380">
        <ele>553.6</ele>
        <time>2021-02-28T09:18:36Z</time>
      </trkpt>
      <trkpt lat="40.3894100" lon="-4.0208720">
        <ele>553.8</ele>
        <time>2021-02-28T09:18:37Z</time>
      </trkpt>
      <trkpt lat="40.3893580" lon="-4.0209790">
        <ele>555.4</ele>
        <time>2021-02-28T09:18:40Z</time>
      </trkpt>
      <trkpt lat="40.3893030" lon="-4.0210880">
        <ele>556.6</ele>
        <time>2021-02-28T09:18:43Z</time>
      </trkpt>
      <trkpt lat="40.3892680" lon="-4.0211610">
        <ele>557.4</ele>
        <time>2021-02-28T09:18:45Z</time>
      </trkpt>
      <trkpt lat="40.3892470" lon="-4.0211940">
        <ele>557.8</ele>
        <time>2021-02-28T09:18:46Z</time>
      </trkpt>
      <trkpt lat="40.3891790" lon="-4.0212880">
        <ele>559.2</ele>
        <time>2021-02-28T09:18:49Z</time>
      </trkpt>
      <trkpt lat="40.3891040" lon="-4.0213790">
        <ele>560.4</ele>
        <time>2021-02-28T09:18:52Z</time>
      </trkpt>
      <trkpt lat="40.3890780" lon="-4.0214050">
        <ele>560.6</ele>
        <time>2021-02-28T09:18:53Z</time>
      </trkpt>
      <trkpt lat="40.3888700" lon="-4.0216320">
        <ele>560.2</ele>
        <time>2021-02-28T09:18:59Z</time>
      </trkpt>
      <trkpt lat="40.3887400" lon="-4.0218210">
        <ele>559.2</ele>
        <time>2021-02-28T09:19:02Z</time>
      </trkpt>
      <trkpt lat="40.3886670" lon="-4.0219570">
        <ele>559.0</ele>
        <time>2021-02-28T09:19:04Z</time>
      </trkpt>
      <trkpt lat="40.3884110" lon="-4.0224530">
        <ele>558.8</ele>
        <time>2021-02-28T09:19:11Z</time>
      </trkpt>
      <trkpt lat="40.3883660" lon="-4.0225850">
        <ele>559.4</ele>
        <time>2021-02-28T09:19:13Z</time>
      </trkpt>
      <trkpt lat="40.3883980" lon="-4.0227350">
        <ele>559.8</ele>
        <time>2021-02-28T09:19:15Z</time>
      </trkpt>
      <trkpt lat="40.3884680" lon="-4.0229510">
        <ele>560.2</ele>
        <time>2021-02-28T09:19:18Z</time>
      </trkpt>
      <trkpt lat="40.3884780" lon="-4.0231700">
        <ele>559.8</ele>
        <time>2021-02-28T09:19:21Z</time>
      </trkpt>
      <trkpt lat="40.3884740" lon="-4.0234040">
        <ele>560.0</ele>
        <time>2021-02-28T09:19:24Z</time>
      </trkpt>
      <trkpt lat="40.3884770" lon="-4.0235490">
        <ele>560.4</ele>
        <time>2021-02-28T09:19:26Z</time>
      </trkpt>
      <trkpt lat="40.3885090" lon="-4.0240220">
        <ele>561.0</ele>
        <time>2021-02-28T09:19:33Z</time>
      </trkpt>
      <trkpt lat="40.3885140" lon="-4.0240930">
        <ele>560.8</ele>
        <time>2021-02-28T09:19:34Z</time>
      </trkpt>
      <trkpt lat="40.3885490" lon="-4.0244050">
        <ele>560.2</ele>
        <time>2021-02-28T09:19:38Z</time>
      </trkpt>
      <trkpt lat="40.3885630" lon="-4.0244830">
        <ele>560.0</ele>
        <time>2021-02-28T09:19:39Z</time>
      </trkpt>
      <trkpt lat="40.3886010" lon="-4.0247090">
        <ele>559.6</ele>
        <time>2021-02-28T09:19:42Z</time>
      </trkpt>
      <trkpt lat="40.3886060" lon="-4.0247890">
        <ele>559.4</ele>
        <time>2021-02-28T09:19:43Z</time>
      </trkpt>
      <trkpt lat="40.3885970" lon="-4.0249510">
        <ele>558.8</ele>
        <time>2021-02-28T09:19:45Z</time>
      </trkpt>
      <trkpt lat="40.3885720" lon="-4.0251140">
        <ele>558.6</ele>
        <time>2021-02-28T09:19:47Z</time>
      </trkpt>
      <trkpt lat="40.3885470" lon="-4.0252780">
        <ele>558.2</ele>
        <time>2021-02-28T09:19:49Z</time>
      </trkpt>
      <trkpt lat="40.3885090" lon="-4.0255340">
        <ele>557.2</ele>
        <time>2021-02-28T09:19:52Z</time>
      </trkpt>
      <trkpt lat="40.3884580" lon="-4.0257980">
        <ele>556.0</ele>
        <time>2021-02-28T09:19:55Z</time>
      </trkpt>
      <trkpt lat="40.3884300" lon="-4.0260880">
        <ele>555.0</ele>
        <time>2021-02-28T09:19:58Z</time>
      </trkpt>
      <trkpt lat="40.3884400" lon="-4.0261910">
        <ele>554.8</ele>
        <time>2021-02-28T09:19:59Z</time>
      </trkpt>
      <trkpt lat="40.3885470" lon="-4.0264340">
        <ele>554.6</ele>
        <time>2021-02-28T09:20:02Z</time>
      </trkpt>
      <trkpt lat="40.3886720" lon="-4.0266490">
        <ele>554.2</ele>
        <time>2021-02-28T09:20:05Z</time>
      </trkpt>
      <trkpt lat="40.3886960" lon="-4.0267290">
        <ele>554.0</ele>
        <time>2021-02-28T09:20:06Z</time>
      </trkpt>
      <trkpt lat="40.3887300" lon="-4.0268350">
        <ele>553.8</ele>
        <time>2021-02-28T09:20:08Z</time>
      </trkpt>
      <trkpt lat="40.3887460" lon="-4.0268600">
        <ele>553.6</ele>
        <time>2021-02-28T09:20:09Z</time>
      </trkpt>
      <trkpt lat="40.3887890" lon="-4.0270000">
        <ele>553.4</ele>
        <time>2021-02-28T09:20:13Z</time>
      </trkpt>
      <trkpt lat="40.3887780" lon="-4.0271120">
        <ele>553.0</ele>
        <time>2021-02-28T09:20:15Z</time>
      </trkpt>
      <trkpt lat="40.3887340" lon="-4.0272140">
        <ele>552.6</ele>
        <time>2021-02-28T09:20:17Z</time>
      </trkpt>
      <trkpt lat="40.3886370" lon="-4.0275290">
        <ele>551.4</ele>
        <time>2021-02-28T09:20:22Z</time>
      </trkpt>
      <trkpt lat="40.3886860" lon="-4.0277720">
        <ele>550.8</ele>
        <time>2021-02-28T09:20:25Z</time>
      </trkpt>
      <trkpt lat="40.3886780" lon="-4.0278540">
        <ele>550.2</ele>
        <time>2021-02-28T09:20:26Z</time>
      </trkpt>
      <trkpt lat="40.3886050" lon="-4.0279740">
        <ele>549.6</ele>
        <time>2021-02-28T09:20:28Z</time>
      </trkpt>
      <trkpt lat="40.3884340" lon="-4.0281180">
        <ele>549.0</ele>
        <time>2021-02-28T09:20:31Z</time>
      </trkpt>
      <trkpt lat="40.3883730" lon="-4.0281690">
        <ele>548.4</ele>
        <time>2021-02-28T09:20:32Z</time>
      </trkpt>
      <trkpt lat="40.3883060" lon="-4.0282080">
        <ele>547.8</ele>
        <time>2021-02-28T09:20:33Z</time>
      </trkpt>
      <trkpt lat="40.3881670" lon="-4.0282500">
        <ele>546.0</ele>
        <time>2021-02-28T09:20:35Z</time>
      </trkpt>
      <trkpt lat="40.3880920" lon="-4.0282510">
        <ele>545.4</ele>
        <time>2021-02-28T09:20:36Z</time>
      </trkpt>
      <trkpt lat="40.3880090" lon="-4.0282630">
        <ele>544.8</ele>
        <time>2021-02-28T09:20:37Z</time>
      </trkpt>
      <trkpt lat="40.3878330" lon="-4.0282960">
        <ele>543.2</ele>
        <time>2021-02-28T09:20:39Z</time>
      </trkpt>
      <trkpt lat="40.3876440" lon="-4.0283110">
        <ele>541.2</ele>
        <time>2021-02-28T09:20:41Z</time>
      </trkpt>
      <trkpt lat="40.3874360" lon="-4.0283290">
        <ele>539.6</ele>
        <time>2021-02-28T09:20:43Z</time>
      </trkpt>
      <trkpt lat="40.3872250" lon="-4.0283630">
        <ele>538.4</ele>
        <time>2021-02-28T09:20:45Z</time>
      </trkpt>
      <trkpt lat="40.3871260" lon="-4.0283780">
        <ele>537.8</ele>
        <time>2021-02-28T09:20:46Z</time>
      </trkpt>
      <trkpt lat="40.3870510" lon="-4.0283920">
        <ele>537.0</ele>
        <time>2021-02-28T09:20:47Z</time>
      </trkpt>
      <trkpt lat="40.3869440" lon="-4.0284300">
        <ele>535.2</ele>
        <time>2021-02-28T09:20:49Z</time>
      </trkpt>
      <trkpt lat="40.3868740" lon="-4.0285130">
        <ele>534.2</ele>
        <time>2021-02-28T09:20:51Z</time>
      </trkpt>
      <trkpt lat="40.3868620" lon="-4.0285770">
        <ele>533.8</ele>
        <time>2021-02-28T09:20:52Z</time>
      </trkpt>
      <trkpt lat="40.3869090" lon="-4.0287770">
        <ele>533.2</ele>
        <time>2021-02-28T09:20:55Z</time>
      </trkpt>
      <trkpt lat="40.3869790" lon="-4.0289140">
        <ele>533.2</ele>
        <time>2021-02-28T09:20:57Z</time>
      </trkpt>
      <trkpt lat="40.3869890" lon="-4.0290050">
        <ele>533.2</ele>
        <time>2021-02-28T09:20:58Z</time>
      </trkpt>
      <trkpt lat="40.3870000" lon="-4.0290890">
        <ele>533.0</ele>
        <time>2021-02-28T09:20:59Z</time>
      </trkpt>
      <trkpt lat="40.3869990" lon="-4.0291800">
        <ele>533.0</ele>
        <time>2021-02-28T09:21:00Z</time>
      </trkpt>
      <trkpt lat="40.3869380" lon="-4.0294440">
        <ele>532.6</ele>
        <time>2021-02-28T09:21:03Z</time>
      </trkpt>
      <trkpt lat="40.3868540" lon="-4.0295840">
        <ele>532.0</ele>
        <time>2021-02-28T09:21:05Z</time>
      </trkpt>
      <trkpt lat="40.3868060" lon="-4.0296330">
        <ele>531.8</ele>
        <time>2021-02-28T09:21:06Z</time>
      </trkpt>
      <trkpt lat="40.3867650" lon="-4.0296800">
        <ele>531.6</ele>
        <time>2021-02-28T09:21:07Z</time>
      </trkpt>
      <trkpt lat="40.3867390" lon="-4.0297340">
        <ele>531.6</ele>
        <time>2021-02-28T09:21:08Z</time>
      </trkpt>
      <trkpt lat="40.3867170" lon="-4.0298540">
        <ele>531.2</ele>
        <time>2021-02-28T09:21:10Z</time>
      </trkpt>
      <trkpt lat="40.3867140" lon="-4.0299020">
        <ele>531.0</ele>
        <time>2021-02-28T09:21:11Z</time>
      </trkpt>
      <trkpt lat="40.3867070" lon="-4.0300710">
        <ele>530.6</ele>
        <time>2021-02-28T09:21:15Z</time>
      </trkpt>
      <trkpt lat="40.3867180" lon="-4.0301880">
        <ele>530.8</ele>
        <time>2021-02-28T09:21:17Z</time>
      </trkpt>
      <trkpt lat="40.3867620" lon="-4.0303050">
        <ele>530.8</ele>
        <time>2021-02-28T09:21:19Z</time>
      </trkpt>
      <trkpt lat="40.3867760" lon="-4.0303740">
        <ele>531.0</ele>
        <time>2021-02-28T09:21:20Z</time>
      </trkpt>
      <trkpt lat="40.3867970" lon="-4.0305800">
        <ele>532.0</ele>
        <time>2021-02-28T09:21:23Z</time>
      </trkpt>
      <trkpt lat="40.3867870" lon="-4.0306450">
        <ele>532.4</ele>
        <time>2021-02-28T09:21:24Z</time>
      </trkpt>
      <trkpt lat="40.3867550" lon="-4.0307710">
        <ele>532.6</ele>
        <time>2021-02-28T09:21:26Z</time>
      </trkpt>
      <trkpt lat="40.3867080" lon="-4.0309580">
        <ele>532.8</ele>
        <time>2021-02-28T09:21:29Z</time>
      </trkpt>
      <trkpt lat="40.3865550" lon="-4.0313090">
        <ele>533.0</ele>
        <time>2021-02-28T09:21:35Z</time>
      </trkpt>
      <trkpt lat="40.3865260" lon="-4.0313660">
        <ele>533.0</ele>
        <time>2021-02-28T09:21:36Z</time>
      </trkpt>
      <trkpt lat="40.3863330" lon="-4.0316700">
        <ele>532.8</ele>
        <time>2021-02-28T09:21:42Z</time>
      </trkpt>
      <trkpt lat="40.3862920" lon="-4.0317140">
        <ele>532.8</ele>
        <time>2021-02-28T09:21:43Z</time>
      </trkpt>
      <trkpt lat="40.3862090" lon="-4.0317910">
        <ele>533.0</ele>
        <time>2021-02-28T09:21:45Z</time>
      </trkpt>
      <trkpt lat="40.3860340" lon="-4.0318620">
        <ele>533.2</ele>
        <time>2021-02-28T09:21:49Z</time>
      </trkpt>
      <trkpt lat="40.3859620" lon="-4.0318470">
        <ele>533.2</ele>
        <time>2021-02-28T09:21:52Z</time>
      </trkpt>
      <trkpt lat="40.3859410" lon="-4.0318430">
        <ele>533.2</ele>
        <time>2021-02-28T09:21:53Z</time>
      </trkpt>
      <trkpt lat="40.3858210" lon="-4.0318600">
        <ele>533.4</ele>
        <time>2021-02-28T09:21:57Z</time>
      </trkpt>
      <trkpt lat="40.3856450" lon="-4.0318460">
        <ele>534.0</ele>
        <time>2021-02-28T09:22:01Z</time>
      </trkpt>
      <trkpt lat="40.3855130" lon="-4.0318460">
        <ele>534.4</ele>
        <time>2021-02-28T09:22:04Z</time>
      </trkpt>
      <trkpt lat="40.3851930" lon="-4.0318360">
        <ele>535.0</ele>
        <time>2021-02-28T09:22:11Z</time>
      </trkpt>
      <trkpt lat="40.3849630" lon="-4.0318530">
        <ele>535.8</ele>
        <time>2021-02-28T09:22:16Z</time>
      </trkpt>
      <trkpt lat="40.3849170" lon="-4.0318590">
        <ele>536.0</ele>
        <time>2021-02-28T09:22:17Z</time>
      </trkpt>
      <trkpt lat="40.3846090" lon="-4.0319270">
        <ele>537.2</ele>
        <time>2021-02-28T09:22:24Z</time>
      </trkpt>
      <trkpt lat="40.3845640" lon="-4.0319340">
        <ele>537.2</ele>
        <time>2021-02-28T09:22:25Z</time>
      </trkpt>
      <trkpt lat="40.3842490" lon="-4.0319520">
        <ele>538.0</ele>
        <time>2021-02-28T09:22:32Z</time>
      </trkpt>
      <trkpt lat="40.3841600" lon="-4.0319680">
        <ele>538.2</ele>
        <time>2021-02-28T09:22:34Z</time>
      </trkpt>
      <trkpt lat="40.3839880" lon="-4.0320340">
        <ele>538.8</ele>
        <time>2021-02-28T09:22:38Z</time>
      </trkpt>
      <trkpt lat="40.3839040" lon="-4.0320740">
        <ele>539.4</ele>
        <time>2021-02-28T09:22:40Z</time>
      </trkpt>
      <trkpt lat="40.3837070" lon="-4.0321870">
        <ele>540.6</ele>
        <time>2021-02-28T09:22:45Z</time>
      </trkpt>
      <trkpt lat="40.3836340" lon="-4.0322350">
        <ele>541.2</ele>
        <time>2021-02-28T09:22:47Z</time>
      </trkpt>
      <trkpt lat="40.3835630" lon="-4.0322890">
        <ele>541.8</ele>
        <time>2021-02-28T09:22:49Z</time>
      </trkpt>
      <trkpt lat="40.3834270" lon="-4.0323950">
        <ele>543.0</ele>
        <time>2021-02-28T09:22:53Z</time>
      </trkpt>
      <trkpt lat="40.3832920" lon="-4.0325070">
        <ele>544.4</ele>
        <time>2021-02-28T09:22:57Z</time>
      </trkpt>
      <trkpt lat="40.3831890" lon="-4.0325750">
        <ele>545.6</ele>
        <time>2021-02-28T09:23:00Z</time>
      </trkpt>
      <trkpt lat="40.3830900" lon="-4.0326260">
        <ele>546.6</ele>
        <time>2021-02-28T09:23:03Z</time>
      </trkpt>
      <trkpt lat="40.3830590" lon="-4.0326390">
        <ele>547.0</ele>
        <time>2021-02-28T09:23:04Z</time>
      </trkpt>
      <trkpt lat="40.3830270" lon="-4.0326460">
        <ele>547.8</ele>
        <time>2021-02-28T09:23:05Z</time>
      </trkpt>
      <trkpt lat="40.3829110" lon="-4.0326950">
        <ele>548.6</ele>
        <time>2021-02-28T09:23:09Z</time>
      </trkpt>
      <trkpt lat="40.3828840" lon="-4.0327200">
        <ele>548.6</ele>
        <time>2021-02-28T09:23:10Z</time>
      </trkpt>
      <trkpt lat="40.3828530" lon="-4.0327560">
        <ele>548.4</ele>
        <time>2021-02-28T09:23:11Z</time>
      </trkpt>
      <trkpt lat="40.3827830" lon="-4.0328410">
        <ele>547.8</ele>
        <time>2021-02-28T09:23:13Z</time>
      </trkpt>
      <trkpt lat="40.3827490" lon="-4.0328960">
        <ele>547.4</ele>
        <time>2021-02-28T09:23:14Z</time>
      </trkpt>
      <trkpt lat="40.3826820" lon="-4.0330270">
        <ele>546.6</ele>
        <time>2021-02-28T09:23:16Z</time>
      </trkpt>
      <trkpt lat="40.3826210" lon="-4.0331810">
        <ele>546.0</ele>
        <time>2021-02-28T09:23:18Z</time>
      </trkpt>
      <trkpt lat="40.3825990" lon="-4.0332630">
        <ele>545.4</ele>
        <time>2021-02-28T09:23:19Z</time>
      </trkpt>
      <trkpt lat="40.3825340" lon="-4.0335930">
        <ele>544.2</ele>
        <time>2021-02-28T09:23:23Z</time>
      </trkpt>
      <trkpt lat="40.3824750" lon="-4.0338300">
        <ele>544.2</ele>
        <time>2021-02-28T09:23:26Z</time>
      </trkpt>
      <trkpt lat="40.3824560" lon="-4.0339080">
        <ele>544.0</ele>
        <time>2021-02-28T09:23:27Z</time>
      </trkpt>
      <trkpt lat="40.3824130" lon="-4.0340670">
        <ele>543.4</ele>
        <time>2021-02-28T09:23:29Z</time>
      </trkpt>
      <trkpt lat="40.3823840" lon="-4.0341460">
        <ele>542.8</ele>
        <time>2021-02-28T09:23:30Z</time>
      </trkpt>
      <trkpt lat="40.3823160" lon="-4.0343060">
        <ele>542.2</ele>
        <time>2021-02-28T09:23:32Z</time>
      </trkpt>
      <trkpt lat="40.3822060" lon="-4.0345450">
        <ele>542.0</ele>
        <time>2021-02-28T09:23:35Z</time>
      </trkpt>
      <trkpt lat="40.3821680" lon="-4.0346310">
        <ele>541.6</ele>
        <time>2021-02-28T09:23:36Z</time>
      </trkpt>
      <trkpt lat="40.3820970" lon="-4.0348090">
        <ele>540.6</ele>
        <time>2021-02-28T09:23:38Z</time>
      </trkpt>
      <trkpt lat="40.3820630" lon="-4.0348970">
        <ele>540.6</ele>
        <time>2021-02-28T09:23:39Z</time>
      </trkpt>
      <trkpt lat="40.3820280" lon="-4.0349810">
        <ele>540.6</ele>
        <time>2021-02-28T09:23:40Z</time>
      </trkpt>
      <trkpt lat="40.3819940" lon="-4.0350630">
        <ele>540.6</ele>
        <time>2021-02-28T09:23:41Z</time>
      </trkpt>
      <trkpt lat="40.3819650" lon="-4.0351420">
        <ele>540.6</ele>
        <time>2021-02-28T09:23:42Z</time>
      </trkpt>
      <trkpt lat="40.3819210" lon="-4.0352980">
        <ele>540.8</ele>
        <time>2021-02-28T09:23:44Z</time>
      </trkpt>
      <trkpt lat="40.3819080" lon="-4.0353770">
        <ele>541.0</ele>
        <time>2021-02-28T09:23:45Z</time>
      </trkpt>
      <trkpt lat="40.3819050" lon="-4.0356980">
        <ele>541.2</ele>
        <time>2021-02-28T09:23:49Z</time>
      </trkpt>
      <trkpt lat="40.3819300" lon="-4.0358660">
        <ele>541.0</ele>
        <time>2021-02-28T09:23:51Z</time>
      </trkpt>
      <trkpt lat="40.3819440" lon="-4.0359580">
        <ele>540.4</ele>
        <time>2021-02-28T09:23:52Z</time>
      </trkpt>
      <trkpt lat="40.3819550" lon="-4.0360550">
        <ele>539.4</ele>
        <time>2021-02-28T09:23:53Z</time>
      </trkpt>
      <trkpt lat="40.3819680" lon="-4.0361550">
        <ele>538.8</ele>
        <time>2021-02-28T09:23:54Z</time>
      </trkpt>
      <trkpt lat="40.3820260" lon="-4.0364550">
        <ele>537.8</ele>
        <time>2021-02-28T09:23:57Z</time>
      </trkpt>
      <trkpt lat="40.3820540" lon="-4.0366330">
        <ele>537.2</ele>
        <time>2021-02-28T09:23:59Z</time>
      </trkpt>
      <trkpt lat="40.3820580" lon="-4.0368080">
        <ele>536.8</ele>
        <time>2021-02-28T09:24:01Z</time>
      </trkpt>
      <trkpt lat="40.3820530" lon="-4.0368950">
        <ele>536.6</ele>
        <time>2021-02-28T09:24:02Z</time>
      </trkpt>
      <trkpt lat="40.3820330" lon="-4.0370550">
        <ele>536.6</ele>
        <time>2021-02-28T09:24:04Z</time>
      </trkpt>
      <trkpt lat="40.3819370" lon="-4.0372480">
        <ele>535.8</ele>
        <time>2021-02-28T09:24:07Z</time>
      </trkpt>
      <trkpt lat="40.3818920" lon="-4.0373070">
        <ele>535.2</ele>
        <time>2021-02-28T09:24:08Z</time>
      </trkpt>
      <trkpt lat="40.3817850" lon="-4.0374450">
        <ele>534.2</ele>
        <time>2021-02-28T09:24:10Z</time>
      </trkpt>
      <trkpt lat="40.3817270" lon="-4.0375230">
        <ele>533.4</ele>
        <time>2021-02-28T09:24:11Z</time>
      </trkpt>
      <trkpt lat="40.3816630" lon="-4.0376030">
        <ele>532.8</ele>
        <time>2021-02-28T09:24:12Z</time>
      </trkpt>
      <trkpt lat="40.3815200" lon="-4.0377560">
        <ele>531.4</ele>
        <time>2021-02-28T09:24:14Z</time>
      </trkpt>
      <trkpt lat="40.3813610" lon="-4.0378870">
        <ele>530.0</ele>
        <time>2021-02-28T09:24:16Z</time>
      </trkpt>
      <trkpt lat="40.3812750" lon="-4.0379430">
        <ele>528.6</ele>
        <time>2021-02-28T09:24:17Z</time>
      </trkpt>
      <trkpt lat="40.3810070" lon="-4.0380860">
        <ele>527.4</ele>
        <time>2021-02-28T09:24:20Z</time>
      </trkpt>
      <trkpt lat="40.3808440" lon="-4.0381890">
        <ele>526.4</ele>
        <time>2021-02-28T09:24:22Z</time>
      </trkpt>
      <trkpt lat="40.3807700" lon="-4.0382530">
        <ele>525.8</ele>
        <time>2021-02-28T09:24:23Z</time>
      </trkpt>
      <trkpt lat="40.3807010" lon="-4.0383320">
        <ele>525.2</ele>
        <time>2021-02-28T09:24:24Z</time>
      </trkpt>
      <trkpt lat="40.3805830" lon="-4.0384930">
        <ele>524.0</ele>
        <time>2021-02-28T09:24:26Z</time>
      </trkpt>
      <trkpt lat="40.3805320" lon="-4.0385520">
        <ele>523.4</ele>
        <time>2021-02-28T09:24:27Z</time>
      </trkpt>
      <trkpt lat="40.3804890" lon="-4.0385880">
        <ele>523.0</ele>
        <time>2021-02-28T09:24:28Z</time>
      </trkpt>
      <trkpt lat="40.3804560" lon="-4.0386050">
        <ele>522.6</ele>
        <time>2021-02-28T09:24:29Z</time>
      </trkpt>
      <trkpt lat="40.3804040" lon="-4.0386160">
        <ele>522.2</ele>
        <time>2021-02-28T09:24:31Z</time>
      </trkpt>
      <trkpt lat="40.3803300" lon="-4.0386500">
        <ele>522.0</ele>
        <time>2021-02-28T09:24:36Z</time>
      </trkpt>
      <trkpt lat="40.3803140" lon="-4.0386520">
        <ele>521.8</ele>
        <time>2021-02-28T09:24:37Z</time>
      </trkpt>
      <trkpt lat="40.3801850" lon="-4.0386490">
        <ele>522.2</ele>
        <time>2021-02-28T09:24:42Z</time>
      </trkpt>
      <trkpt lat="40.3798880" lon="-4.0386840">
        <ele>522.4</ele>
        <time>2021-02-28T09:24:50Z</time>
      </trkpt>
      <trkpt lat="40.3797000" lon="-4.0386820">
        <ele>523.4</ele>
        <time>2021-02-28T09:24:55Z</time>
      </trkpt>
      <trkpt lat="40.3796640" lon="-4.0386880">
        <ele>523.6</ele>
        <time>2021-02-28T09:24:56Z</time>
      </trkpt>
      <trkpt lat="40.3796270" lon="-4.0386990">
        <ele>523.8</ele>
        <time>2021-02-28T09:24:57Z</time>
      </trkpt>
      <trkpt lat="40.3795170" lon="-4.0387450">
        <ele>524.6</ele>
        <time>2021-02-28T09:25:00Z</time>
      </trkpt>
      <trkpt lat="40.3794440" lon="-4.0387770">
        <ele>525.0</ele>
        <time>2021-02-28T09:25:02Z</time>
      </trkpt>
      <trkpt lat="40.3793740" lon="-4.0388130">
        <ele>525.6</ele>
        <time>2021-02-28T09:25:04Z</time>
      </trkpt>
      <trkpt lat="40.3793400" lon="-4.0388320">
        <ele>526.2</ele>
        <time>2021-02-28T09:25:05Z</time>
      </trkpt>
      <trkpt lat="40.3792810" lon="-4.0388690">
        <ele>526.8</ele>
        <time>2021-02-28T09:25:07Z</time>
      </trkpt>
      <trkpt lat="40.3792130" lon="-4.0388990">
        <ele>527.6</ele>
        <time>2021-02-28T09:25:09Z</time>
      </trkpt>
      <trkpt lat="40.3791780" lon="-4.0389130">
        <ele>527.6</ele>
        <time>2021-02-28T09:25:10Z</time>
      </trkpt>
      <trkpt lat="40.3791110" lon="-4.0389260">
        <ele>528.0</ele>
        <time>2021-02-28T09:25:12Z</time>
      </trkpt>
      <trkpt lat="40.3790080" lon="-4.0389340">
        <ele>528.6</ele>
        <time>2021-02-28T09:25:15Z</time>
      </trkpt>
      <trkpt lat="40.3789050" lon="-4.0388910">
        <ele>528.8</ele>
        <time>2021-02-28T09:25:19Z</time>
      </trkpt>
      <trkpt lat="40.3788810" lon="-4.0388760">
        <ele>529.0</ele>
        <time>2021-02-28T09:25:20Z</time>
      </trkpt>
      <trkpt lat="40.3787380" lon="-4.0387930">
        <ele>529.6</ele>
        <time>2021-02-28T09:25:25Z</time>
      </trkpt>
      <trkpt lat="40.3786850" lon="-4.0387520">
        <ele>530.0</ele>
        <time>2021-02-28T09:25:27Z</time>
      </trkpt>
      <trkpt lat="40.3786270" lon="-4.0387140">
        <ele>530.8</ele>
        <time>2021-02-28T09:25:29Z</time>
      </trkpt>
      <trkpt lat="40.3784950" lon="-4.0386810">
        <ele>532.0</ele>
        <time>2021-02-28T09:25:33Z</time>
      </trkpt>
      <trkpt lat="40.3781650" lon="-4.0386420">
        <ele>532.6</ele>
        <time>2021-02-28T09:25:42Z</time>
      </trkpt>
      <trkpt lat="40.3778670" lon="-4.0386190">
        <ele>532.2</ele>
        <time>2021-02-28T09:25:49Z</time>
      </trkpt>
      <trkpt lat="40.3776490" lon="-4.0386210">
        <ele>532.6</ele>
        <time>2021-02-28T09:25:54Z</time>
      </trkpt>
      <trkpt lat="40.3775730" lon="-4.0386290">
        <ele>533.2</ele>
        <time>2021-02-28T09:25:56Z</time>
      </trkpt>
      <trkpt lat="40.3774540" lon="-4.0386460">
        <ele>534.2</ele>
        <time>2021-02-28T09:26:00Z</time>
      </trkpt>
      <trkpt lat="40.3774040" lon="-4.0386500">
        <ele>534.8</ele>
        <time>2021-02-28T09:26:02Z</time>
      </trkpt>
      <trkpt lat="40.3773500" lon="-4.0386450">
        <ele>535.6</ele>
        <time>2021-02-28T09:26:04Z</time>
      </trkpt>
      <trkpt lat="40.3772610" lon="-4.0386290">
        <ele>536.8</ele>
        <time>2021-02-28T09:26:07Z</time>
      </trkpt>
      <trkpt lat="40.3771980" lon="-4.0386080">
        <ele>537.2</ele>
        <time>2021-02-28T09:26:09Z</time>
      </trkpt>
      <trkpt lat="40.3771330" lon="-4.0385780">
        <ele>537.8</ele>
        <time>2021-02-28T09:26:11Z</time>
      </trkpt>
      <trkpt lat="40.3769720" lon="-4.0384830">
        <ele>538.0</ele>
        <time>2021-02-28T09:26:16Z</time>
      </trkpt>
      <trkpt lat="40.3767540" lon="-4.0383130">
        <ele>537.6</ele>
        <time>2021-02-28T09:26:22Z</time>
      </trkpt>
      <trkpt lat="40.3765390" lon="-4.0381200">
        <ele>537.6</ele>
        <time>2021-02-28T09:26:28Z</time>
      </trkpt>
      <trkpt lat="40.3764160" lon="-4.0380760">
        <ele>538.8</ele>
        <time>2021-02-28T09:26:32Z</time>
      </trkpt>
      <trkpt lat="40.3763900" lon="-4.0380690">
        <ele>539.0</ele>
        <time>2021-02-28T09:26:33Z</time>
      </trkpt>
      <trkpt lat="40.3763110" lon="-4.0380450">
        <ele>539.8</ele>
        <time>2021-02-28T09:26:36Z</time>
      </trkpt>
      <trkpt lat="40.3762880" lon="-4.0380230">
        <ele>540.0</ele>
        <time>2021-02-28T09:26:37Z</time>
      </trkpt>
      <trkpt lat="40.3762490" lon="-4.0379660">
        <ele>540.8</ele>
        <time>2021-02-28T09:26:39Z</time>
      </trkpt>
      <trkpt lat="40.3762350" lon="-4.0379410">
        <ele>541.4</ele>
        <time>2021-02-28T09:26:40Z</time>
      </trkpt>
      <trkpt lat="40.3762210" lon="-4.0379210">
        <ele>542.0</ele>
        <time>2021-02-28T09:26:41Z</time>
      </trkpt>
      <trkpt lat="40.3761910" lon="-4.0378790">
        <ele>542.4</ele>
        <time>2021-02-28T09:26:43Z</time>
      </trkpt>
      <trkpt lat="40.3761660" lon="-4.0378310">
        <ele>542.8</ele>
        <time>2021-02-28T09:26:45Z</time>
      </trkpt>
      <trkpt lat="40.3761460" lon="-4.0377700">
        <ele>543.4</ele>
        <time>2021-02-28T09:26:47Z</time>
      </trkpt>
      <trkpt lat="40.3760630" lon="-4.0376530">
        <ele>543.2</ele>
        <time>2021-02-28T09:26:51Z</time>
      </trkpt>
      <trkpt lat="40.3759030" lon="-4.0375440">
        <ele>542.2</ele>
        <time>2021-02-28T09:26:55Z</time>
      </trkpt>
      <trkpt lat="40.3758580" lon="-4.0375130">
        <ele>542.2</ele>
        <time>2021-02-28T09:26:56Z</time>
      </trkpt>
      <trkpt lat="40.3758170" lon="-4.0374780">
        <ele>542.0</ele>
        <time>2021-02-28T09:26:57Z</time>
      </trkpt>
      <trkpt lat="40.3757510" lon="-4.0373310">
        <ele>541.8</ele>
        <time>2021-02-28T09:27:00Z</time>
      </trkpt>
      <trkpt lat="40.3757590" lon="-4.0372030">
        <ele>541.8</ele>
        <time>2021-02-28T09:27:02Z</time>
      </trkpt>
      <trkpt lat="40.3757700" lon="-4.0370250">
        <ele>541.0</ele>
        <time>2021-02-28T09:27:05Z</time>
      </trkpt>
      <trkpt lat="40.3757540" lon="-4.0368130">
        <ele>539.8</ele>
        <time>2021-02-28T09:27:08Z</time>
      </trkpt>
      <trkpt lat="40.3757530" lon="-4.0367300">
        <ele>539.4</ele>
        <time>2021-02-28T09:27:09Z</time>
      </trkpt>
      <trkpt lat="40.3757570" lon="-4.0366440">
        <ele>538.8</ele>
        <time>2021-02-28T09:27:10Z</time>
      </trkpt>
      <trkpt lat="40.3757910" lon="-4.0364760">
        <ele>537.2</ele>
        <time>2021-02-28T09:27:12Z</time>
      </trkpt>
      <trkpt lat="40.3758260" lon="-4.0363910">
        <ele>536.0</ele>
        <time>2021-02-28T09:27:13Z</time>
      </trkpt>
      <trkpt lat="40.3758760" lon="-4.0363110">
        <ele>534.8</ele>
        <time>2021-02-28T09:27:14Z</time>
      </trkpt>
      <trkpt lat="40.3759390" lon="-4.0362480">
        <ele>533.6</ele>
        <time>2021-02-28T09:27:15Z</time>
      </trkpt>
      <trkpt lat="40.3760080" lon="-4.0362000">
        <ele>532.8</ele>
        <time>2021-02-28T09:27:16Z</time>
      </trkpt>
      <trkpt lat="40.3760730" lon="-4.0361620">
        <ele>531.8</ele>
        <time>2021-02-28T09:27:17Z</time>
      </trkpt>
      <trkpt lat="40.3761240" lon="-4.0361240">
        <ele>531.0</ele>
        <time>2021-02-28T09:27:18Z</time>
      </trkpt>
      <trkpt lat="40.3761540" lon="-4.0360800">
        <ele>530.6</ele>
        <time>2021-02-28T09:27:19Z</time>
      </trkpt>
      <trkpt lat="40.3761430" lon="-4.0359140">
        <ele>530.4</ele>
        <time>2021-02-28T09:27:22Z</time>
      </trkpt>
      <trkpt lat="40.3760910" lon="-4.0357990">
        <ele>530.6</ele>
        <time>2021-02-28T09:27:24Z</time>
      </trkpt>
      <trkpt lat="40.3759930" lon="-4.0355780">
        <ele>531.0</ele>
        <time>2021-02-28T09:27:28Z</time>
      </trkpt>
      <trkpt lat="40.3759450" lon="-4.0354740">
        <ele>531.4</ele>
        <time>2021-02-28T09:27:30Z</time>
      </trkpt>
      <trkpt lat="40.3758500" lon="-4.0353520">
        <ele>531.2</ele>
        <time>2021-02-28T09:27:33Z</time>
      </trkpt>
      <trkpt lat="40.3756100" lon="-4.0351420">
        <ele>531.4</ele>
        <time>2021-02-28T09:27:39Z</time>
      </trkpt>
      <trkpt lat="40.3755720" lon="-4.0351080">
        <ele>531.8</ele>
        <time>2021-02-28T09:27:40Z</time>
      </trkpt>
      <trkpt lat="40.3752850" lon="-4.0348780">
        <ele>531.8</ele>
        <time>2021-02-28T09:27:47Z</time>
      </trkpt>
      <trkpt lat="40.3751750" lon="-4.0348630">
        <ele>531.8</ele>
        <time>2021-02-28T09:27:51Z</time>
      </trkpt>
      <trkpt lat="40.3751050" lon="-4.0349600">
        <ele>532.6</ele>
        <time>2021-02-28T09:27:56Z</time>
      </trkpt>
      <trkpt lat="40.3750640" lon="-4.0349350">
        <ele>532.8</ele>
        <time>2021-02-28T09:27:58Z</time>
      </trkpt>
      <trkpt lat="40.3750400" lon="-4.0348990">
        <ele>532.8</ele>
        <time>2021-02-28T09:27:59Z</time>
      </trkpt>
      <trkpt lat="40.3750160" lon="-4.0348560">
        <ele>532.8</ele>
        <time>2021-02-28T09:28:00Z</time>
      </trkpt>
      <trkpt lat="40.3749880" lon="-4.0348090">
        <ele>532.8</ele>
        <time>2021-02-28T09:28:01Z</time>
      </trkpt>
      <trkpt lat="40.3749070" lon="-4.0347150">
        <ele>532.4</ele>
        <time>2021-02-28T09:28:03Z</time>
      </trkpt>
      <trkpt lat="40.3747170" lon="-4.0345670">
        <ele>532.6</ele>
        <time>2021-02-28T09:28:07Z</time>
      </trkpt>
      <trkpt lat="40.3746220" lon="-4.0345200">
        <ele>533.0</ele>
        <time>2021-02-28T09:28:09Z</time>
      </trkpt>
      <trkpt lat="40.3744360" lon="-4.0344650">
        <ele>533.8</ele>
        <time>2021-02-28T09:28:13Z</time>
      </trkpt>
      <trkpt lat="40.3743440" lon="-4.0344520">
        <ele>533.8</ele>
        <time>2021-02-28T09:28:15Z</time>
      </trkpt>
      <trkpt lat="40.3742510" lon="-4.0344380">
        <ele>534.2</ele>
        <time>2021-02-28T09:28:17Z</time>
      </trkpt>
      <trkpt lat="40.3741560" lon="-4.0344060">
        <ele>534.0</ele>
        <time>2021-02-28T09:28:19Z</time>
      </trkpt>
      <trkpt lat="40.3740240" lon="-4.0343440">
        <ele>533.6</ele>
        <time>2021-02-28T09:28:22Z</time>
      </trkpt>
      <trkpt lat="40.3739800" lon="-4.0343290">
        <ele>533.6</ele>
        <time>2021-02-28T09:28:23Z</time>
      </trkpt>
      <trkpt lat="40.3738030" lon="-4.0343150">
        <ele>534.2</ele>
        <time>2021-02-28T09:28:27Z</time>
      </trkpt>
      <trkpt lat="40.3735800" lon="-4.0341840">
        <ele>534.4</ele>
        <time>2021-02-28T09:28:32Z</time>
      </trkpt>
      <trkpt lat="40.3735480" lon="-4.0341420">
        <ele>534.4</ele>
        <time>2021-02-28T09:28:33Z</time>
      </trkpt>
      <trkpt lat="40.3734440" lon="-4.0340770">
        <ele>534.4</ele>
        <time>2021-02-28T09:28:36Z</time>
      </trkpt>
      <trkpt lat="40.3733280" lon="-4.0340990">
        <ele>534.8</ele>
        <time>2021-02-28T09:28:39Z</time>
      </trkpt>
      <trkpt lat="40.3732400" lon="-4.0341110">
        <ele>535.0</ele>
        <time>2021-02-28T09:28:41Z</time>
      </trkpt>
      <trkpt lat="40.3730970" lon="-4.0340980">
        <ele>535.4</ele>
        <time>2021-02-28T09:28:44Z</time>
      </trkpt>
      <trkpt lat="40.3730010" lon="-4.0341030">
        <ele>535.6</ele>
        <time>2021-02-28T09:28:46Z</time>
      </trkpt>
      <trkpt lat="40.3729540" lon="-4.0341090">
        <ele>535.4</ele>
        <time>2021-02-28T09:28:47Z</time>
      </trkpt>
      <trkpt lat="40.3728280" lon="-4.0341850">
        <ele>535.6</ele>
        <time>2021-02-28T09:28:50Z</time>
      </trkpt>
      <trkpt lat="40.3727910" lon="-4.0342190">
        <ele>535.8</ele>
        <time>2021-02-28T09:28:51Z</time>
      </trkpt>
      <trkpt lat="40.3727170" lon="-4.0342910">
        <ele>536.0</ele>
        <time>2021-02-28T09:28:53Z</time>
      </trkpt>
      <trkpt lat="40.3725570" lon="-4.0344220">
        <ele>536.0</ele>
        <time>2021-02-28T09:28:57Z</time>
      </trkpt>
      <trkpt lat="40.3722550" lon="-4.0346090">
        <ele>536.6</ele>
        <time>2021-02-28T09:29:04Z</time>
      </trkpt>
      <trkpt lat="40.3721640" lon="-4.0346420">
        <ele>537.0</ele>
        <time>2021-02-28T09:29:06Z</time>
      </trkpt>
      <trkpt lat="40.3720300" lon="-4.0346790">
        <ele>537.2</ele>
        <time>2021-02-28T09:29:09Z</time>
      </trkpt>
      <trkpt lat="40.3718370" lon="-4.0347260">
        <ele>537.4</ele>
        <time>2021-02-28T09:29:14Z</time>
      </trkpt>
      <trkpt lat="40.3718080" lon="-4.0347590">
        <ele>537.4</ele>
        <time>2021-02-28T09:29:15Z</time>
      </trkpt>
      <trkpt lat="40.3717370" lon="-4.0348990">
        <ele>538.0</ele>
        <time>2021-02-28T09:29:18Z</time>
      </trkpt>
      <trkpt lat="40.3716820" lon="-4.0350930">
        <ele>539.2</ele>
        <time>2021-02-28T09:29:22Z</time>
      </trkpt>
      <trkpt lat="40.3716720" lon="-4.0351910">
        <ele>539.8</ele>
        <time>2021-02-28T09:29:24Z</time>
      </trkpt>
      <trkpt lat="40.3716690" lon="-4.0352400">
        <ele>540.4</ele>
        <time>2021-02-28T09:29:25Z</time>
      </trkpt>
      <trkpt lat="40.3716560" lon="-4.0353260">
        <ele>541.4</ele>
        <time>2021-02-28T09:29:27Z</time>
      </trkpt>
      <trkpt lat="40.3716250" lon="-4.0354300">
        <ele>543.2</ele>
        <time>2021-02-28T09:29:30Z</time>
      </trkpt>
      <trkpt lat="40.3715750" lon="-4.0354990">
        <ele>543.8</ele>
        <time>2021-02-28T09:29:33Z</time>
      </trkpt>
      <trkpt lat="40.3715350" lon="-4.0355350">
        <ele>543.8</ele>
        <time>2021-02-28T09:29:36Z</time>
      </trkpt>
      <trkpt lat="40.3715000" lon="-4.0355730">
        <ele>543.6</ele>
        <time>2021-02-28T09:35:18Z</time>
      </trkpt>
      <trkpt lat="40.3714840" lon="-4.0355970">
        <ele>543.4</ele>
        <time>2021-02-28T09:35:19Z</time>
      </trkpt>
      <trkpt lat="40.3713820" lon="-4.0357770">
        <ele>543.6</ele>
        <time>2021-02-28T09:35:24Z</time>
      </trkpt>
      <trkpt lat="40.3713520" lon="-4.0358590">
        <ele>543.6</ele>
        <time>2021-02-28T09:35:26Z</time>
      </trkpt>
      <trkpt lat="40.3713390" lon="-4.0359850">
        <ele>544.0</ele>
        <time>2021-02-28T09:35:29Z</time>
      </trkpt>
      <trkpt lat="40.3713430" lon="-4.0360250">
        <ele>544.0</ele>
        <time>2021-02-28T09:35:30Z</time>
      </trkpt>
      <trkpt lat="40.3713700" lon="-4.0360930">
        <ele>544.4</ele>
        <time>2021-02-28T09:35:32Z</time>
      </trkpt>
      <trkpt lat="40.3713940" lon="-4.0361180">
        <ele>544.6</ele>
        <time>2021-02-28T09:35:33Z</time>
      </trkpt>
      <trkpt lat="40.3714200" lon="-4.0361350">
        <ele>545.0</ele>
        <time>2021-02-28T09:35:34Z</time>
      </trkpt>
      <trkpt lat="40.3714740" lon="-4.0361610">
        <ele>545.6</ele>
        <time>2021-02-28T09:35:36Z</time>
      </trkpt>
      <trkpt lat="40.3715520" lon="-4.0362090">
        <ele>546.6</ele>
        <time>2021-02-28T09:35:39Z</time>
      </trkpt>
      <trkpt lat="40.3715990" lon="-4.0362560">
        <ele>547.4</ele>
        <time>2021-02-28T09:35:41Z</time>
      </trkpt>
      <trkpt lat="40.3716190" lon="-4.0362840">
        <ele>547.8</ele>
        <time>2021-02-28T09:35:42Z</time>
      </trkpt>
      <trkpt lat="40.3716500" lon="-4.0363490">
        <ele>548.2</ele>
        <time>2021-02-28T09:35:44Z</time>
      </trkpt>
      <trkpt lat="40.3716720" lon="-4.0364210">
        <ele>548.4</ele>
        <time>2021-02-28T09:35:46Z</time>
      </trkpt>
      <trkpt lat="40.3716810" lon="-4.0364580">
        <ele>548.4</ele>
        <time>2021-02-28T09:35:47Z</time>
      </trkpt>
      <trkpt lat="40.3716980" lon="-4.0365360">
        <ele>548.8</ele>
        <time>2021-02-28T09:35:49Z</time>
      </trkpt>
      <trkpt lat="40.3717040" lon="-4.0365740">
        <ele>549.0</ele>
        <time>2021-02-28T09:35:50Z</time>
      </trkpt>
      <trkpt lat="40.3717160" lon="-4.0366480">
        <ele>549.2</ele>
        <time>2021-02-28T09:35:52Z</time>
      </trkpt>
      <trkpt lat="40.3717340" lon="-4.0367600">
        <ele>550.0</ele>
        <time>2021-02-28T09:35:55Z</time>
      </trkpt>
      <trkpt lat="40.3717390" lon="-4.0367960">
        <ele>550.2</ele>
        <time>2021-02-28T09:35:56Z</time>
      </trkpt>
      <trkpt lat="40.3717620" lon="-4.0369310">
        <ele>551.4</ele>
        <time>2021-02-28T09:36:00Z</time>
      </trkpt>
      <trkpt lat="40.3717730" lon="-4.0370300">
        <ele>552.4</ele>
        <time>2021-02-28T09:36:03Z</time>
      </trkpt>
      <trkpt lat="40.3717830" lon="-4.0371330">
        <ele>553.8</ele>
        <time>2021-02-28T09:36:06Z</time>
      </trkpt>
      <trkpt lat="40.3718000" lon="-4.0372370">
        <ele>554.8</ele>
        <time>2021-02-28T09:36:09Z</time>
      </trkpt>
      <trkpt lat="40.3718240" lon="-4.0373410">
        <ele>556.0</ele>
        <time>2021-02-28T09:36:12Z</time>
      </trkpt>
      <trkpt lat="40.3718400" lon="-4.0374080">
        <ele>556.8</ele>
        <time>2021-02-28T09:36:14Z</time>
      </trkpt>
      <trkpt lat="40.3718480" lon="-4.0374430">
        <ele>557.2</ele>
        <time>2021-02-28T09:36:15Z</time>
      </trkpt>
      <trkpt lat="40.3718700" lon="-4.0375480">
        <ele>558.6</ele>
        <time>2021-02-28T09:36:18Z</time>
      </trkpt>
      <trkpt lat="40.3718770" lon="-4.0376570">
        <ele>559.6</ele>
        <time>2021-02-28T09:36:21Z</time>
      </trkpt>
      <trkpt lat="40.3718740" lon="-4.0376940">
        <ele>560.0</ele>
        <time>2021-02-28T09:36:22Z</time>
      </trkpt>
      <trkpt lat="40.3717950" lon="-4.0378570">
        <ele>560.6</ele>
        <time>2021-02-28T09:36:27Z</time>
      </trkpt>
      <trkpt lat="40.3717730" lon="-4.0378850">
        <ele>560.6</ele>
        <time>2021-02-28T09:36:28Z</time>
      </trkpt>
      <trkpt lat="40.3716640" lon="-4.0380450">
        <ele>561.8</ele>
        <time>2021-02-28T09:36:33Z</time>
      </trkpt>
      <trkpt lat="40.3716260" lon="-4.0381170">
        <ele>561.8</ele>
        <time>2021-02-28T09:36:35Z</time>
      </trkpt>
      <trkpt lat="40.3714840" lon="-4.0383990">
        <ele>562.6</ele>
        <time>2021-02-28T09:36:42Z</time>
      </trkpt>
      <trkpt lat="40.3714670" lon="-4.0384410">
        <ele>562.8</ele>
        <time>2021-02-28T09:36:43Z</time>
      </trkpt>
      <trkpt lat="40.3713990" lon="-4.0385860">
        <ele>564.0</ele>
        <time>2021-02-28T09:36:47Z</time>
      </trkpt>
      <trkpt lat="40.3713590" lon="-4.0386550">
        <ele>564.6</ele>
        <time>2021-02-28T09:36:49Z</time>
      </trkpt>
      <trkpt lat="40.3713270" lon="-4.0387380">
        <ele>565.2</ele>
        <time>2021-02-28T09:36:51Z</time>
      </trkpt>
      <trkpt lat="40.3712790" lon="-4.0388000">
        <ele>565.4</ele>
        <time>2021-02-28T09:36:53Z</time>
      </trkpt>
      <trkpt lat="40.3711790" lon="-4.0388540">
        <ele>566.2</ele>
        <time>2021-02-28T09:36:56Z</time>
      </trkpt>
      <trkpt lat="40.3711130" lon="-4.0389100">
        <ele>566.4</ele>
        <time>2021-02-28T09:36:58Z</time>
      </trkpt>
      <trkpt lat="40.3710130" lon="-4.0390050">
        <ele>566.2</ele>
        <time>2021-02-28T09:37:01Z</time>
      </trkpt>
      <trkpt lat="40.3709760" lon="-4.0390270">
        <ele>566.2</ele>
        <time>2021-02-28T09:37:02Z</time>
      </trkpt>
      <trkpt lat="40.3709380" lon="-4.0390450">
        <ele>566.2</ele>
        <time>2021-02-28T09:37:03Z</time>
      </trkpt>
      <trkpt lat="40.3708950" lon="-4.0390620">
        <ele>566.0</ele>
        <time>2021-02-28T09:37:04Z</time>
      </trkpt>
      <trkpt lat="40.3708510" lon="-4.0390860">
        <ele>566.0</ele>
        <time>2021-02-28T09:37:05Z</time>
      </trkpt>
      <trkpt lat="40.3708120" lon="-4.0391210">
        <ele>565.6</ele>
        <time>2021-02-28T09:37:06Z</time>
      </trkpt>
      <trkpt lat="40.3707810" lon="-4.0391660">
        <ele>565.2</ele>
        <time>2021-02-28T09:37:07Z</time>
      </trkpt>
      <trkpt lat="40.3707510" lon="-4.0392130">
        <ele>565.2</ele>
        <time>2021-02-28T09:37:08Z</time>
      </trkpt>
      <trkpt lat="40.3706860" lon="-4.0393090">
        <ele>565.2</ele>
        <time>2021-02-28T09:37:10Z</time>
      </trkpt>
      <trkpt lat="40.3706270" lon="-4.0394080">
        <ele>565.6</ele>
        <time>2021-02-28T09:37:12Z</time>
      </trkpt>
      <trkpt lat="40.3705980" lon="-4.0394600">
        <ele>565.8</ele>
        <time>2021-02-28T09:37:13Z</time>
      </trkpt>
      <trkpt lat="40.3705670" lon="-4.0395140">
        <ele>566.0</ele>
        <time>2021-02-28T09:37:14Z</time>
      </trkpt>
      <trkpt lat="40.3704950" lon="-4.0396140">
        <ele>566.2</ele>
        <time>2021-02-28T09:37:16Z</time>
      </trkpt>
      <trkpt lat="40.3703750" lon="-4.0397400">
        <ele>566.0</ele>
        <time>2021-02-28T09:37:19Z</time>
      </trkpt>
      <trkpt lat="40.3703300" lon="-4.0397690">
        <ele>565.8</ele>
        <time>2021-02-28T09:37:20Z</time>
      </trkpt>
      <trkpt lat="40.3701810" lon="-4.0398250">
        <ele>565.6</ele>
        <time>2021-02-28T09:37:23Z</time>
      </trkpt>
      <trkpt lat="40.3700730" lon="-4.0398480">
        <ele>565.4</ele>
        <time>2021-02-28T09:37:25Z</time>
      </trkpt>
      <trkpt lat="40.3698450" lon="-4.0398880">
        <ele>564.6</ele>
        <time>2021-02-28T09:37:29Z</time>
      </trkpt>
      <trkpt lat="40.3697960" lon="-4.0399020">
        <ele>564.0</ele>
        <time>2021-02-28T09:37:30Z</time>
      </trkpt>
      <trkpt lat="40.3697440" lon="-4.0399160">
        <ele>563.8</ele>
        <time>2021-02-28T09:37:31Z</time>
      </trkpt>
      <trkpt lat="40.3696910" lon="-4.0399240">
        <ele>563.4</ele>
        <time>2021-02-28T09:37:32Z</time>
      </trkpt>
      <trkpt lat="40.3694670" lon="-4.0399500">
        <ele>564.2</ele>
        <time>2021-02-28T09:37:36Z</time>
      </trkpt>
      <trkpt lat="40.3693500" lon="-4.0399860">
        <ele>564.2</ele>
        <time>2021-02-28T09:37:38Z</time>
      </trkpt>
      <trkpt lat="40.3692420" lon="-4.0400280">
        <ele>564.6</ele>
        <time>2021-02-28T09:37:40Z</time>
      </trkpt>
      <trkpt lat="40.3691890" lon="-4.0400230">
        <ele>565.0</ele>
        <time>2021-02-28T09:37:41Z</time>
      </trkpt>
      <trkpt lat="40.3691410" lon="-4.0399990">
        <ele>565.2</ele>
        <time>2021-02-28T09:37:42Z</time>
      </trkpt>
      <trkpt lat="40.3690060" lon="-4.0399170">
        <ele>566.0</ele>
        <time>2021-02-28T09:37:45Z</time>
      </trkpt>
      <trkpt lat="40.3689620" lon="-4.0398930">
        <ele>566.4</ele>
        <time>2021-02-28T09:37:46Z</time>
      </trkpt>
      <trkpt lat="40.3689180" lon="-4.0398760">
        <ele>566.8</ele>
        <time>2021-02-28T09:37:47Z</time>
      </trkpt>
      <trkpt lat="40.3688220" lon="-4.0398790">
        <ele>567.4</ele>
        <time>2021-02-28T09:37:49Z</time>
      </trkpt>
      <trkpt lat="40.3687260" lon="-4.0399080">
        <ele>567.6</ele>
        <time>2021-02-28T09:37:51Z</time>
      </trkpt>
      <trkpt lat="40.3685830" lon="-4.0399540">
        <ele>568.4</ele>
        <time>2021-02-28T09:37:54Z</time>
      </trkpt>
      <trkpt lat="40.3684920" lon="-4.0399920">
        <ele>569.0</ele>
        <time>2021-02-28T09:37:56Z</time>
      </trkpt>
      <trkpt lat="40.3683630" lon="-4.0400610">
        <ele>569.6</ele>
        <time>2021-02-28T09:37:59Z</time>
      </trkpt>
      <trkpt lat="40.3682280" lon="-4.0401020">
        <ele>570.4</ele>
        <time>2021-02-28T09:38:02Z</time>
      </trkpt>
      <trkpt lat="40.3681810" lon="-4.0401030">
        <ele>570.4</ele>
        <time>2021-02-28T09:38:03Z</time>
      </trkpt>
      <trkpt lat="40.3679860" lon="-4.0401580">
        <ele>570.2</ele>
        <time>2021-02-28T09:38:07Z</time>
      </trkpt>
      <trkpt lat="40.3679350" lon="-4.0401740">
        <ele>570.0</ele>
        <time>2021-02-28T09:38:08Z</time>
      </trkpt>
      <trkpt lat="40.3677750" lon="-4.0401400">
        <ele>569.8</ele>
        <time>2021-02-28T09:38:11Z</time>
      </trkpt>
      <trkpt lat="40.3676210" lon="-4.0400470">
        <ele>569.2</ele>
        <time>2021-02-28T09:38:14Z</time>
      </trkpt>
      <trkpt lat="40.3675490" lon="-4.0399230">
        <ele>569.0</ele>
        <time>2021-02-28T09:38:16Z</time>
      </trkpt>
      <trkpt lat="40.3675210" lon="-4.0397710">
        <ele>568.0</ele>
        <time>2021-02-28T09:38:18Z</time>
      </trkpt>
      <trkpt lat="40.3675110" lon="-4.0396970">
        <ele>567.6</ele>
        <time>2021-02-28T09:38:19Z</time>
      </trkpt>
      <trkpt lat="40.3675010" lon="-4.0396270">
        <ele>567.4</ele>
        <time>2021-02-28T09:38:20Z</time>
      </trkpt>
      <trkpt lat="40.3674910" lon="-4.0395610">
        <ele>567.0</ele>
        <time>2021-02-28T09:38:21Z</time>
      </trkpt>
      <trkpt lat="40.3674660" lon="-4.0394330">
        <ele>566.8</ele>
        <time>2021-02-28T09:38:23Z</time>
      </trkpt>
      <trkpt lat="40.3674110" lon="-4.0393220">
        <ele>567.0</ele>
        <time>2021-02-28T09:38:25Z</time>
      </trkpt>
      <trkpt lat="40.3673190" lon="-4.0392260">
        <ele>566.0</ele>
        <time>2021-02-28T09:38:27Z</time>
      </trkpt>
      <trkpt lat="40.3672640" lon="-4.0391790">
        <ele>565.4</ele>
        <time>2021-02-28T09:38:28Z</time>
      </trkpt>
      <trkpt lat="40.3672150" lon="-4.0391390">
        <ele>564.8</ele>
        <time>2021-02-28T09:38:29Z</time>
      </trkpt>
      <trkpt lat="40.3671160" lon="-4.0390460">
        <ele>563.0</ele>
        <time>2021-02-28T09:38:31Z</time>
      </trkpt>
      <trkpt lat="40.3670230" lon="-4.0389300">
        <ele>562.2</ele>
        <time>2021-02-28T09:38:33Z</time>
      </trkpt>
      <trkpt lat="40.3669780" lon="-4.0388630">
        <ele>562.0</ele>
        <time>2021-02-28T09:38:34Z</time>
      </trkpt>
      <trkpt lat="40.3669340" lon="-4.0387920">
        <ele>561.6</ele>
        <time>2021-02-28T09:38:35Z</time>
      </trkpt>
      <trkpt lat="40.3668520" lon="-4.0386500">
        <ele>560.0</ele>
        <time>2021-02-28T09:38:37Z</time>
      </trkpt>
      <trkpt lat="40.3668190" lon="-4.0385830">
        <ele>559.0</ele>
        <time>2021-02-28T09:38:38Z</time>
      </trkpt>
      <trkpt lat="40.3667920" lon="-4.0385140">
        <ele>558.2</ele>
        <time>2021-02-28T09:38:39Z</time>
      </trkpt>
      <trkpt lat="40.3667690" lon="-4.0384430">
        <ele>557.4</ele>
        <time>2021-02-28T09:38:40Z</time>
      </trkpt>
      <trkpt lat="40.3667080" lon="-4.0382980">
        <ele>555.6</ele>
        <time>2021-02-28T09:38:42Z</time>
      </trkpt>
      <trkpt lat="40.3666650" lon="-4.0382480">
        <ele>555.4</ele>
        <time>2021-02-28T09:38:43Z</time>
      </trkpt>
      <trkpt lat="40.3664850" lon="-4.0381360">
        <ele>556.0</ele>
        <time>2021-02-28T09:38:47Z</time>
      </trkpt>
      <trkpt lat="40.3663850" lon="-4.0381270">
        <ele>557.0</ele>
        <time>2021-02-28T09:38:49Z</time>
      </trkpt>
      <trkpt lat="40.3662940" lon="-4.0381250">
        <ele>557.8</ele>
        <time>2021-02-28T09:38:51Z</time>
      </trkpt>
      <trkpt lat="40.3662580" lon="-4.0381100">
        <ele>558.4</ele>
        <time>2021-02-28T09:38:52Z</time>
      </trkpt>
      <trkpt lat="40.3662290" lon="-4.0380780">
        <ele>559.2</ele>
        <time>2021-02-28T09:38:53Z</time>
      </trkpt>
      <trkpt lat="40.3662020" lon="-4.0380400">
        <ele>559.8</ele>
        <time>2021-02-28T09:38:54Z</time>
      </trkpt>
      <trkpt lat="40.3661760" lon="-4.0380010">
        <ele>560.4</ele>
        <time>2021-02-28T09:38:55Z</time>
      </trkpt>
      <trkpt lat="40.3661550" lon="-4.0379590">
        <ele>561.2</ele>
        <time>2021-02-28T09:38:56Z</time>
      </trkpt>
      <trkpt lat="40.3661320" lon="-4.0379200">
        <ele>561.8</ele>
        <time>2021-02-28T09:38:57Z</time>
      </trkpt>
      <trkpt lat="40.3661060" lon="-4.0378820">
        <ele>562.4</ele>
        <time>2021-02-28T09:38:58Z</time>
      </trkpt>
      <trkpt lat="40.3660530" lon="-4.0378130">
        <ele>563.2</ele>
        <time>2021-02-28T09:39:00Z</time>
      </trkpt>
      <trkpt lat="40.3660240" lon="-4.0377820">
        <ele>564.0</ele>
        <time>2021-02-28T09:39:01Z</time>
      </trkpt>
      <trkpt lat="40.3659560" lon="-4.0377120">
        <ele>564.6</ele>
        <time>2021-02-28T09:39:03Z</time>
      </trkpt>
      <trkpt lat="40.3659060" lon="-4.0376760">
        <ele>564.4</ele>
        <time>2021-02-28T09:39:04Z</time>
      </trkpt>
      <trkpt lat="40.3658510" lon="-4.0376450">
        <ele>563.8</ele>
        <time>2021-02-28T09:39:05Z</time>
      </trkpt>
      <trkpt lat="40.3657890" lon="-4.0376230">
        <ele>562.6</ele>
        <time>2021-02-28T09:39:06Z</time>
      </trkpt>
      <trkpt lat="40.3655890" lon="-4.0375680">
        <ele>561.2</ele>
        <time>2021-02-28T09:39:09Z</time>
      </trkpt>
      <trkpt lat="40.3655280" lon="-4.0375500">
        <ele>560.6</ele>
        <time>2021-02-28T09:39:10Z</time>
      </trkpt>
      <trkpt lat="40.3654740" lon="-4.0375200">
        <ele>560.2</ele>
        <time>2021-02-28T09:39:11Z</time>
      </trkpt>
      <trkpt lat="40.3654340" lon="-4.0374740">
        <ele>559.6</ele>
        <time>2021-02-28T09:39:12Z</time>
      </trkpt>
      <trkpt lat="40.3653940" lon="-4.0372840">
        <ele>559.2</ele>
        <time>2021-02-28T09:39:15Z</time>
      </trkpt>
      <trkpt lat="40.3653850" lon="-4.0372200">
        <ele>559.2</ele>
        <time>2021-02-28T09:39:16Z</time>
      </trkpt>
      <trkpt lat="40.3653230" lon="-4.0370810">
        <ele>560.0</ele>
        <time>2021-02-28T09:39:19Z</time>
      </trkpt>
      <trkpt lat="40.3652970" lon="-4.0370540">
        <ele>560.6</ele>
        <time>2021-02-28T09:39:20Z</time>
      </trkpt>
      <trkpt lat="40.3652740" lon="-4.0370320">
        <ele>561.0</ele>
        <time>2021-02-28T09:39:21Z</time>
      </trkpt>
      <trkpt lat="40.3652500" lon="-4.0370160">
        <ele>561.6</ele>
        <time>2021-02-28T09:39:22Z</time>
      </trkpt>
      <trkpt lat="40.3652020" lon="-4.0369920">
        <ele>562.8</ele>
        <time>2021-02-28T09:39:24Z</time>
      </trkpt>
      <trkpt lat="40.3651550" lon="-4.0369610">
        <ele>563.8</ele>
        <time>2021-02-28T09:39:26Z</time>
      </trkpt>
      <trkpt lat="40.3650820" lon="-4.0368970">
        <ele>565.0</ele>
        <time>2021-02-28T09:39:29Z</time>
      </trkpt>
      <trkpt lat="40.3650340" lon="-4.0368350">
        <ele>565.2</ele>
        <time>2021-02-28T09:39:31Z</time>
      </trkpt>
      <trkpt lat="40.3649050" lon="-4.0367310">
        <ele>563.8</ele>
        <time>2021-02-28T09:39:35Z</time>
      </trkpt>
      <trkpt lat="40.3648660" lon="-4.0367180">
        <ele>563.4</ele>
        <time>2021-02-28T09:39:36Z</time>
      </trkpt>
      <trkpt lat="40.3647700" lon="-4.0367110">
        <ele>562.4</ele>
        <time>2021-02-28T09:39:38Z</time>
      </trkpt>
      <trkpt lat="40.3646480" lon="-4.0367120">
        <ele>561.0</ele>
        <time>2021-02-28T09:39:40Z</time>
      </trkpt>
      <trkpt lat="40.3645180" lon="-4.0367280">
        <ele>560.0</ele>
        <time>2021-02-28T09:39:42Z</time>
      </trkpt>
      <trkpt lat="40.3643260" lon="-4.0367890">
        <ele>559.2</ele>
        <time>2021-02-28T09:39:45Z</time>
      </trkpt>
      <trkpt lat="40.3642210" lon="-4.0368090">
        <ele>559.0</ele>
        <time>2021-02-28T09:39:47Z</time>
      </trkpt>
      <trkpt lat="40.3641760" lon="-4.0367870">
        <ele>559.0</ele>
        <time>2021-02-28T09:39:48Z</time>
      </trkpt>
      <trkpt lat="40.3641060" lon="-4.0366450">
        <ele>558.2</ele>
        <time>2021-02-28T09:39:51Z</time>
      </trkpt>
      <trkpt lat="40.3641080" lon="-4.0365250">
        <ele>558.0</ele>
        <time>2021-02-28T09:39:53Z</time>
      </trkpt>
      <trkpt lat="40.3641440" lon="-4.0363140">
        <ele>560.0</ele>
        <time>2021-02-28T09:39:57Z</time>
      </trkpt>
      <trkpt lat="40.3641810" lon="-4.0362570">
        <ele>560.2</ele>
        <time>2021-02-28T09:39:58Z</time>
      </trkpt>
      <trkpt lat="40.3643330" lon="-4.0361150">
        <ele>558.8</ele>
        <time>2021-02-28T09:40:01Z</time>
      </trkpt>
      <trkpt lat="40.3644710" lon="-4.0360310">
        <ele>557.8</ele>
        <time>2021-02-28T09:40:03Z</time>
      </trkpt>
      <trkpt lat="40.3645350" lon="-4.0359730">
        <ele>557.2</ele>
        <time>2021-02-28T09:40:04Z</time>
      </trkpt>
      <trkpt lat="40.3645950" lon="-4.0359120">
        <ele>557.0</ele>
        <time>2021-02-28T09:40:05Z</time>
      </trkpt>
      <trkpt lat="40.3647110" lon="-4.0358190">
        <ele>556.8</ele>
        <time>2021-02-28T09:40:07Z</time>
      </trkpt>
      <trkpt lat="40.3648250" lon="-4.0357380">
        <ele>556.6</ele>
        <time>2021-02-28T09:40:09Z</time>
      </trkpt>
      <trkpt lat="40.3648720" lon="-4.0356820">
        <ele>556.4</ele>
        <time>2021-02-28T09:40:10Z</time>
      </trkpt>
      <trkpt lat="40.3649210" lon="-4.0355500">
        <ele>556.6</ele>
        <time>2021-02-28T09:40:12Z</time>
      </trkpt>
      <trkpt lat="40.3649460" lon="-4.0353560">
        <ele>558.0</ele>
        <time>2021-02-28T09:40:15Z</time>
      </trkpt>
      <trkpt lat="40.3649460" lon="-4.0352330">
        <ele>558.8</ele>
        <time>2021-02-28T09:40:17Z</time>
      </trkpt>
      <trkpt lat="40.3649380" lon="-4.0351630">
        <ele>559.0</ele>
        <time>2021-02-28T09:40:18Z</time>
      </trkpt>
      <trkpt lat="40.3648770" lon="-4.0349620">
        <ele>558.4</ele>
        <time>2021-02-28T09:40:21Z</time>
      </trkpt>
      <trkpt lat="40.3648380" lon="-4.0348470">
        <ele>557.4</ele>
        <time>2021-02-28T09:40:23Z</time>
      </trkpt>
      <trkpt lat="40.3648090" lon="-4.0347790">
        <ele>556.4</ele>
        <time>2021-02-28T09:40:25Z</time>
      </trkpt>
      <trkpt lat="40.3647680" lon="-4.0347290">
        <ele>556.4</ele>
        <time>2021-02-28T09:40:27Z</time>
      </trkpt>
      <trkpt lat="40.3647410" lon="-4.0347190">
        <ele>556.4</ele>
        <time>2021-02-28T09:40:28Z</time>
      </trkpt>
      <trkpt lat="40.3646770" lon="-4.0347080">
        <ele>556.8</ele>
        <time>2021-02-28T09:40:30Z</time>
      </trkpt>
      <trkpt lat="40.3646020" lon="-4.0346750">
        <ele>557.6</ele>
        <time>2021-02-28T09:40:32Z</time>
      </trkpt>
      <trkpt lat="40.3645290" lon="-4.0346140">
        <ele>558.2</ele>
        <time>2021-02-28T09:40:34Z</time>
      </trkpt>
      <trkpt lat="40.3644960" lon="-4.0345770">
        <ele>558.4</ele>
        <time>2021-02-28T09:40:35Z</time>
      </trkpt>
      <trkpt lat="40.3643270" lon="-4.0343540">
        <ele>558.2</ele>
        <time>2021-02-28T09:40:40Z</time>
      </trkpt>
      <trkpt lat="40.3642890" lon="-4.0343160">
        <ele>558.4</ele>
        <time>2021-02-28T09:40:41Z</time>
      </trkpt>
      <trkpt lat="40.3641110" lon="-4.0342120">
        <ele>558.6</ele>
        <time>2021-02-28T09:40:45Z</time>
      </trkpt>
      <trkpt lat="40.3638760" lon="-4.0340770">
        <ele>559.8</ele>
        <time>2021-02-28T09:40:50Z</time>
      </trkpt>
      <trkpt lat="40.3637330" lon="-4.0340030">
        <ele>560.2</ele>
        <time>2021-02-28T09:40:53Z</time>
      </trkpt>
      <trkpt lat="40.3634230" lon="-4.0338940">
        <ele>560.6</ele>
        <time>2021-02-28T09:40:59Z</time>
      </trkpt>
      <trkpt lat="40.3632580" lon="-4.0338760">
        <ele>561.0</ele>
        <time>2021-02-28T09:41:02Z</time>
      </trkpt>
      <trkpt lat="40.3632110" lon="-4.0338570">
        <ele>561.0</ele>
        <time>2021-02-28T09:41:03Z</time>
      </trkpt>
      <trkpt lat="40.3631330" lon="-4.0337720">
        <ele>561.6</ele>
        <time>2021-02-28T09:41:05Z</time>
      </trkpt>
      <trkpt lat="40.3629640" lon="-4.0336010">
        <ele>561.4</ele>
        <time>2021-02-28T09:41:09Z</time>
      </trkpt>
      <trkpt lat="40.3629210" lon="-4.0335630">
        <ele>561.6</ele>
        <time>2021-02-28T09:41:10Z</time>
      </trkpt>
      <trkpt lat="40.3628340" lon="-4.0334950">
        <ele>562.0</ele>
        <time>2021-02-28T09:41:12Z</time>
      </trkpt>
      <trkpt lat="40.3627520" lon="-4.0334170">
        <ele>562.6</ele>
        <time>2021-02-28T09:41:14Z</time>
      </trkpt>
      <trkpt lat="40.3626820" lon="-4.0333340">
        <ele>562.6</ele>
        <time>2021-02-28T09:41:16Z</time>
      </trkpt>
      <trkpt lat="40.3626080" lon="-4.0332630">
        <ele>562.8</ele>
        <time>2021-02-28T09:41:18Z</time>
      </trkpt>
      <trkpt lat="40.3624750" lon="-4.0332110">
        <ele>563.0</ele>
        <time>2021-02-28T09:41:21Z</time>
      </trkpt>
      <trkpt lat="40.3624260" lon="-4.0332010">
        <ele>563.2</ele>
        <time>2021-02-28T09:41:22Z</time>
      </trkpt>
      <trkpt lat="40.3622220" lon="-4.0331650">
        <ele>564.0</ele>
        <time>2021-02-28T09:41:26Z</time>
      </trkpt>
      <trkpt lat="40.3621740" lon="-4.0331570">
        <ele>564.2</ele>
        <time>2021-02-28T09:41:27Z</time>
      </trkpt>
      <trkpt lat="40.3620760" lon="-4.0331560">
        <ele>564.4</ele>
        <time>2021-02-28T09:41:29Z</time>
      </trkpt>
      <trkpt lat="40.3619790" lon="-4.0331750">
        <ele>565.2</ele>
        <time>2021-02-28T09:41:31Z</time>
      </trkpt>
      <trkpt lat="40.3619310" lon="-4.0331910">
        <ele>565.4</ele>
        <time>2021-02-28T09:41:32Z</time>
      </trkpt>
      <trkpt lat="40.3618840" lon="-4.0332060">
        <ele>565.6</ele>
        <time>2021-02-28T09:41:33Z</time>
      </trkpt>
      <trkpt lat="40.3616960" lon="-4.0332540">
        <ele>566.0</ele>
        <time>2021-02-28T09:41:37Z</time>
      </trkpt>
      <trkpt lat="40.3615250" lon="-4.0333810">
        <ele>566.2</ele>
        <time>2021-02-28T09:41:41Z</time>
      </trkpt>
      <trkpt lat="40.3614840" lon="-4.0334140">
        <ele>566.4</ele>
        <time>2021-02-28T09:41:42Z</time>
      </trkpt>
      <trkpt lat="40.3614440" lon="-4.0334440">
        <ele>566.6</ele>
        <time>2021-02-28T09:41:43Z</time>
      </trkpt>
      <trkpt lat="40.3611730" lon="-4.0336030">
        <ele>567.4</ele>
        <time>2021-02-28T09:41:49Z</time>
      </trkpt>
      <trkpt lat="40.3609350" lon="-4.0337190">
        <ele>567.8</ele>
        <time>2021-02-28T09:41:54Z</time>
      </trkpt>
      <trkpt lat="40.3607900" lon="-4.0337860">
        <ele>568.4</ele>
        <time>2021-02-28T09:41:57Z</time>
      </trkpt>
      <trkpt lat="40.3606990" lon="-4.0338370">
        <ele>569.0</ele>
        <time>2021-02-28T09:41:59Z</time>
      </trkpt>
      <trkpt lat="40.3604310" lon="-4.0339880">
        <ele>569.6</ele>
        <time>2021-02-28T09:42:05Z</time>
      </trkpt>
      <trkpt lat="40.3602250" lon="-4.0340550">
        <ele>569.8</ele>
        <time>2021-02-28T09:42:09Z</time>
      </trkpt>
      <trkpt lat="40.3601720" lon="-4.0340720">
        <ele>570.0</ele>
        <time>2021-02-28T09:42:10Z</time>
      </trkpt>
      <trkpt lat="40.3601220" lon="-4.0340950">
        <ele>570.2</ele>
        <time>2021-02-28T09:42:11Z</time>
      </trkpt>
      <trkpt lat="40.3600280" lon="-4.0341520">
        <ele>570.2</ele>
        <time>2021-02-28T09:42:13Z</time>
      </trkpt>
      <trkpt lat="40.3599310" lon="-4.0342900">
        <ele>571.0</ele>
        <time>2021-02-28T09:42:16Z</time>
      </trkpt>
      <trkpt lat="40.3599130" lon="-4.0343460">
        <ele>571.2</ele>
        <time>2021-02-28T09:42:17Z</time>
      </trkpt>
      <trkpt lat="40.3598600" lon="-4.0345770">
        <ele>571.8</ele>
        <time>2021-02-28T09:42:21Z</time>
      </trkpt>
      <trkpt lat="40.3597620" lon="-4.0346830">
        <ele>572.4</ele>
        <time>2021-02-28T09:42:24Z</time>
      </trkpt>
      <trkpt lat="40.3596390" lon="-4.0346670">
        <ele>572.6</ele>
        <time>2021-02-28T09:42:27Z</time>
      </trkpt>
      <trkpt lat="40.3595050" lon="-4.0345430">
        <ele>573.4</ele>
        <time>2021-02-28T09:42:31Z</time>
      </trkpt>
      <trkpt lat="40.3594780" lon="-4.0345090">
        <ele>573.6</ele>
        <time>2021-02-28T09:42:32Z</time>
      </trkpt>
      <trkpt lat="40.3594130" lon="-4.0343370">
        <ele>574.8</ele>
        <time>2021-02-28T09:42:36Z</time>
      </trkpt>
      <trkpt lat="40.3594050" lon="-4.0342350">
        <ele>575.2</ele>
        <time>2021-02-28T09:42:38Z</time>
      </trkpt>
      <trkpt lat="40.3594040" lon="-4.0340530">
        <ele>575.0</ele>
        <time>2021-02-28T09:42:41Z</time>
      </trkpt>
      <trkpt lat="40.3593720" lon="-4.0337670">
        <ele>575.0</ele>
        <time>2021-02-28T09:42:46Z</time>
      </trkpt>
      <trkpt lat="40.3593030" lon="-4.0335790">
        <ele>576.0</ele>
        <time>2021-02-28T09:42:50Z</time>
      </trkpt>
      <trkpt lat="40.3592660" lon="-4.0334990">
        <ele>576.6</ele>
        <time>2021-02-28T09:42:52Z</time>
      </trkpt>
      <trkpt lat="40.3592500" lon="-4.0334610">
        <ele>577.2</ele>
        <time>2021-02-28T09:42:53Z</time>
      </trkpt>
      <trkpt lat="40.3592060" lon="-4.0333550">
        <ele>578.4</ele>
        <time>2021-02-28T09:42:56Z</time>
      </trkpt>
      <trkpt lat="40.3591650" lon="-4.0332370">
        <ele>579.4</ele>
        <time>2021-02-28T09:42:59Z</time>
      </trkpt>
      <trkpt lat="40.3591500" lon="-4.0331940">
        <ele>579.6</ele>
        <time>2021-02-28T09:43:00Z</time>
      </trkpt>
      <trkpt lat="40.3590980" lon="-4.0329970">
        <ele>580.0</ele>
        <time>2021-02-28T09:43:04Z</time>
      </trkpt>
      <trkpt lat="40.3590850" lon="-4.0329450">
        <ele>580.0</ele>
        <time>2021-02-28T09:43:05Z</time>
      </trkpt>
      <trkpt lat="40.3590230" lon="-4.0328630">
        <ele>580.6</ele>
        <time>2021-02-28T09:43:08Z</time>
      </trkpt>
      <trkpt lat="40.3589900" lon="-4.0328760">
        <ele>580.8</ele>
        <time>2021-02-28T09:43:09Z</time>
      </trkpt>
      <trkpt lat="40.3588980" lon="-4.0329340">
        <ele>581.6</ele>
        <time>2021-02-28T09:43:12Z</time>
      </trkpt>
      <trkpt lat="40.3588350" lon="-4.0329770">
        <ele>582.0</ele>
        <time>2021-02-28T09:43:14Z</time>
      </trkpt>
      <trkpt lat="40.3588000" lon="-4.0330020">
        <ele>582.2</ele>
        <time>2021-02-28T09:43:15Z</time>
      </trkpt>
      <trkpt lat="40.3586970" lon="-4.0330960">
        <ele>582.8</ele>
        <time>2021-02-28T09:43:18Z</time>
      </trkpt>
      <trkpt lat="40.3585700" lon="-4.0332250">
        <ele>583.2</ele>
        <time>2021-02-28T09:43:22Z</time>
      </trkpt>
      <trkpt lat="40.3584740" lon="-4.0333170">
        <ele>583.8</ele>
        <time>2021-02-28T09:43:25Z</time>
      </trkpt>
      <trkpt lat="40.3583060" lon="-4.0334710">
        <ele>584.8</ele>
        <time>2021-02-28T09:43:30Z</time>
      </trkpt>
      <trkpt lat="40.3581830" lon="-4.0336100">
        <ele>586.0</ele>
        <time>2021-02-28T09:43:34Z</time>
      </trkpt>
      <trkpt lat="40.3580940" lon="-4.0336880">
        <ele>586.8</ele>
        <time>2021-02-28T09:43:37Z</time>
      </trkpt>
      <trkpt lat="40.3580640" lon="-4.0337160">
        <ele>587.2</ele>
        <time>2021-02-28T09:43:38Z</time>
      </trkpt>
      <trkpt lat="40.3579390" lon="-4.0338240">
        <ele>588.2</ele>
        <time>2021-02-28T09:43:42Z</time>
      </trkpt>
      <trkpt lat="40.3578560" lon="-4.0338870">
        <ele>589.0</ele>
        <time>2021-02-28T09:43:45Z</time>
      </trkpt>
      <trkpt lat="40.3577960" lon="-4.0339250">
        <ele>589.4</ele>
        <time>2021-02-28T09:43:47Z</time>
      </trkpt>
      <trkpt lat="40.3576850" lon="-4.0340040">
        <ele>590.8</ele>
        <time>2021-02-28T09:43:51Z</time>
      </trkpt>
      <trkpt lat="40.3576590" lon="-4.0340190">
        <ele>591.2</ele>
        <time>2021-02-28T09:43:52Z</time>
      </trkpt>
      <trkpt lat="40.3575890" lon="-4.0340640">
        <ele>592.4</ele>
        <time>2021-02-28T09:43:55Z</time>
      </trkpt>
      <trkpt lat="40.3574870" lon="-4.0340960">
        <ele>593.4</ele>
        <time>2021-02-28T09:43:59Z</time>
      </trkpt>
      <trkpt lat="40.3574640" lon="-4.0341060">
        <ele>593.4</ele>
        <time>2021-02-28T09:44:00Z</time>
      </trkpt>
      <trkpt lat="40.3573580" lon="-4.0341270">
        <ele>594.6</ele>
        <time>2021-02-28T09:44:04Z</time>
      </trkpt>
      <trkpt lat="40.3573040" lon="-4.0341400">
        <ele>595.0</ele>
        <time>2021-02-28T09:44:06Z</time>
      </trkpt>
      <trkpt lat="40.3572290" lon="-4.0341770">
        <ele>595.8</ele>
        <time>2021-02-28T09:44:09Z</time>
      </trkpt>
      <trkpt lat="40.3571400" lon="-4.0342550">
        <ele>596.8</ele>
        <time>2021-02-28T09:44:13Z</time>
      </trkpt>
      <trkpt lat="40.3571180" lon="-4.0342740">
        <ele>597.0</ele>
        <time>2021-02-28T09:44:14Z</time>
      </trkpt>
      <trkpt lat="40.3570290" lon="-4.0343480">
        <ele>598.2</ele>
        <time>2021-02-28T09:44:18Z</time>
      </trkpt>
      <trkpt lat="40.3569520" lon="-4.0343900">
        <ele>599.4</ele>
        <time>2021-02-28T09:44:21Z</time>
      </trkpt>
      <trkpt lat="40.3569250" lon="-4.0344020">
        <ele>599.6</ele>
        <time>2021-02-28T09:44:22Z</time>
      </trkpt>
      <trkpt lat="40.3568150" lon="-4.0344420">
        <ele>600.4</ele>
        <time>2021-02-28T09:44:26Z</time>
      </trkpt>
      <trkpt lat="40.3567280" lon="-4.0344740">
        <ele>601.4</ele>
        <time>2021-02-28T09:44:29Z</time>
      </trkpt>
      <trkpt lat="40.3566970" lon="-4.0344890">
        <ele>601.6</ele>
        <time>2021-02-28T09:44:30Z</time>
      </trkpt>
      <trkpt lat="40.3565740" lon="-4.0345490">
        <ele>602.6</ele>
        <time>2021-02-28T09:44:35Z</time>
      </trkpt>
      <trkpt lat="40.3564890" lon="-4.0346020">
        <ele>603.2</ele>
        <time>2021-02-28T09:44:38Z</time>
      </trkpt>
      <trkpt lat="40.3563470" lon="-4.0347200">
        <ele>603.6</ele>
        <time>2021-02-28T09:44:43Z</time>
      </trkpt>
      <trkpt lat="40.3562920" lon="-4.0347690">
        <ele>603.6</ele>
        <time>2021-02-28T09:44:45Z</time>
      </trkpt>
      <trkpt lat="40.3561210" lon="-4.0348760">
        <ele>604.2</ele>
        <time>2021-02-28T09:44:51Z</time>
      </trkpt>
      <trkpt lat="40.3559930" lon="-4.0349080">
        <ele>604.8</ele>
        <time>2021-02-28T09:44:55Z</time>
      </trkpt>
      <trkpt lat="40.3558840" lon="-4.0349150">
        <ele>604.8</ele>
        <time>2021-02-28T09:44:58Z</time>
      </trkpt>
      <trkpt lat="40.3557110" lon="-4.0348780">
        <ele>605.4</ele>
        <time>2021-02-28T09:45:03Z</time>
      </trkpt>
      <trkpt lat="40.3556480" lon="-4.0348000">
        <ele>605.8</ele>
        <time>2021-02-28T09:45:06Z</time>
      </trkpt>
      <trkpt lat="40.3556130" lon="-4.0347380">
        <ele>605.4</ele>
        <time>2021-02-28T09:45:08Z</time>
      </trkpt>
      <trkpt lat="40.3554960" lon="-4.0345670">
        <ele>604.8</ele>
        <time>2021-02-28T09:45:12Z</time>
      </trkpt>
      <trkpt lat="40.3554630" lon="-4.0345210">
        <ele>604.6</ele>
        <time>2021-02-28T09:45:13Z</time>
      </trkpt>
      <trkpt lat="40.3553430" lon="-4.0343160">
        <ele>604.2</ele>
        <time>2021-02-28T09:45:17Z</time>
      </trkpt>
      <trkpt lat="40.3553060" lon="-4.0342720">
        <ele>604.0</ele>
        <time>2021-02-28T09:45:18Z</time>
      </trkpt>
      <trkpt lat="40.3552670" lon="-4.0342300">
        <ele>603.8</ele>
        <time>2021-02-28T09:45:19Z</time>
      </trkpt>
      <trkpt lat="40.3551510" lon="-4.0340980">
        <ele>603.4</ele>
        <time>2021-02-28T09:45:22Z</time>
      </trkpt>
      <trkpt lat="40.3550400" lon="-4.0339690">
        <ele>603.4</ele>
        <time>2021-02-28T09:45:25Z</time>
      </trkpt>
      <trkpt lat="40.3548610" lon="-4.0337760">
        <ele>604.0</ele>
        <time>2021-02-28T09:45:30Z</time>
      </trkpt>
      <trkpt lat="40.3547490" lon="-4.0336590">
        <ele>604.4</ele>
        <time>2021-02-28T09:45:33Z</time>
      </trkpt>
      <trkpt lat="40.3545790" lon="-4.0334860">
        <ele>604.8</ele>
        <time>2021-02-28T09:45:38Z</time>
      </trkpt>
      <trkpt lat="40.3545120" lon="-4.0334190">
        <ele>604.8</ele>
        <time>2021-02-28T09:45:40Z</time>
      </trkpt>
      <trkpt lat="40.3543570" lon="-4.0333050">
        <ele>605.0</ele>
        <time>2021-02-28T09:45:45Z</time>
      </trkpt>
      <trkpt lat="40.3543310" lon="-4.0332890">
        <ele>605.0</ele>
        <time>2021-02-28T09:45:46Z</time>
      </trkpt>
      <trkpt lat="40.3541510" lon="-4.0331820">
        <ele>605.2</ele>
        <time>2021-02-28T09:45:51Z</time>
      </trkpt>
      <trkpt lat="40.3540140" lon="-4.0331220">
        <ele>606.0</ele>
        <time>2021-02-28T09:45:54Z</time>
      </trkpt>
      <trkpt lat="40.3538290" lon="-4.0330590">
        <ele>606.8</ele>
        <time>2021-02-28T09:45:58Z</time>
      </trkpt>
      <trkpt lat="40.3537820" lon="-4.0330420">
        <ele>606.8</ele>
        <time>2021-02-28T09:45:59Z</time>
      </trkpt>
      <trkpt lat="40.3535500" lon="-4.0329350">
        <ele>607.0</ele>
        <time>2021-02-28T09:46:04Z</time>
      </trkpt>
      <trkpt lat="40.3534550" lon="-4.0328870">
        <ele>607.0</ele>
        <time>2021-02-28T09:46:06Z</time>
      </trkpt>
      <trkpt lat="40.3534090" lon="-4.0328630">
        <ele>607.4</ele>
        <time>2021-02-28T09:46:07Z</time>
      </trkpt>
      <trkpt lat="40.3530450" lon="-4.0327020">
        <ele>607.4</ele>
        <time>2021-02-28T09:46:15Z</time>
      </trkpt>
      <trkpt lat="40.3527260" lon="-4.0325990">
        <ele>608.0</ele>
        <time>2021-02-28T09:46:22Z</time>
      </trkpt>
      <trkpt lat="40.3526360" lon="-4.0325610">
        <ele>608.4</ele>
        <time>2021-02-28T09:46:24Z</time>
      </trkpt>
      <trkpt lat="40.3525920" lon="-4.0325390">
        <ele>608.6</ele>
        <time>2021-02-28T09:46:25Z</time>
      </trkpt>
      <trkpt lat="40.3523740" lon="-4.0324410">
        <ele>609.6</ele>
        <time>2021-02-28T09:46:30Z</time>
      </trkpt>
      <trkpt lat="40.3523320" lon="-4.0324230">
        <ele>609.8</ele>
        <time>2021-02-28T09:46:31Z</time>
      </trkpt>
      <trkpt lat="40.3519770" lon="-4.0322820">
        <ele>610.2</ele>
        <time>2021-02-28T09:46:39Z</time>
      </trkpt>
      <trkpt lat="40.3517790" lon="-4.0321780">
        <ele>609.8</ele>
        <time>2021-02-28T09:46:43Z</time>
      </trkpt>
      <trkpt lat="40.3516810" lon="-4.0321080">
        <ele>609.8</ele>
        <time>2021-02-28T09:46:45Z</time>
      </trkpt>
      <trkpt lat="40.3514250" lon="-4.0318740">
        <ele>611.0</ele>
        <time>2021-02-28T09:46:51Z</time>
      </trkpt>
      <trkpt lat="40.3511810" lon="-4.0315960">
        <ele>611.0</ele>
        <time>2021-02-28T09:46:57Z</time>
      </trkpt>
      <trkpt lat="40.3511150" lon="-4.0314990">
        <ele>610.8</ele>
        <time>2021-02-28T09:46:59Z</time>
      </trkpt>
      <trkpt lat="40.3510890" lon="-4.0314500">
        <ele>610.8</ele>
        <time>2021-02-28T09:47:00Z</time>
      </trkpt>
      <trkpt lat="40.3510670" lon="-4.0313990">
        <ele>610.8</ele>
        <time>2021-02-28T09:47:01Z</time>
      </trkpt>
      <trkpt lat="40.3510500" lon="-4.0313470">
        <ele>611.0</ele>
        <time>2021-02-28T09:47:02Z</time>
      </trkpt>
      <trkpt lat="40.3510330" lon="-4.0312220">
        <ele>610.6</ele>
        <time>2021-02-28T09:47:05Z</time>
      </trkpt>
      <trkpt lat="40.3510560" lon="-4.0311810">
        <ele>610.2</ele>
        <time>2021-02-28T09:47:06Z</time>
      </trkpt>
      <trkpt lat="40.3510890" lon="-4.0311340">
        <ele>609.8</ele>
        <time>2021-02-28T09:47:07Z</time>
      </trkpt>
      <trkpt lat="40.3511290" lon="-4.0310850">
        <ele>609.6</ele>
        <time>2021-02-28T09:47:08Z</time>
      </trkpt>
      <trkpt lat="40.3511700" lon="-4.0310330">
        <ele>609.6</ele>
        <time>2021-02-28T09:47:09Z</time>
      </trkpt>
      <trkpt lat="40.3512150" lon="-4.0309790">
        <ele>609.4</ele>
        <time>2021-02-28T09:47:10Z</time>
      </trkpt>
      <trkpt lat="40.3512600" lon="-4.0309200">
        <ele>609.2</ele>
        <time>2021-02-28T09:47:11Z</time>
      </trkpt>
      <trkpt lat="40.3513030" lon="-4.0308580">
        <ele>608.8</ele>
        <time>2021-02-28T09:47:12Z</time>
      </trkpt>
      <trkpt lat="40.3513950" lon="-4.0307490">
        <ele>608.4</ele>
        <time>2021-02-28T09:47:14Z</time>
      </trkpt>
      <trkpt lat="40.3514870" lon="-4.0306480">
        <ele>608.2</ele>
        <time>2021-02-28T09:47:16Z</time>
      </trkpt>
      <trkpt lat="40.3517210" lon="-4.0303460">
        <ele>608.0</ele>
        <time>2021-02-28T09:47:22Z</time>
      </trkpt>
      <trkpt lat="40.3517530" lon="-4.0302890">
        <ele>607.8</ele>
        <time>2021-02-28T09:47:23Z</time>
      </trkpt>
      <trkpt lat="40.3518120" lon="-4.0301640">
        <ele>607.6</ele>
        <time>2021-02-28T09:47:25Z</time>
      </trkpt>
      <trkpt lat="40.3518570" lon="-4.0299460">
        <ele>607.2</ele>
        <time>2021-02-28T09:47:28Z</time>
      </trkpt>
      <trkpt lat="40.3518550" lon="-4.0297200">
        <ele>607.0</ele>
        <time>2021-02-28T09:47:31Z</time>
      </trkpt>
      <trkpt lat="40.3518530" lon="-4.0295800">
        <ele>607.2</ele>
        <time>2021-02-28T09:47:33Z</time>
      </trkpt>
      <trkpt lat="40.3518420" lon="-4.0290090">
        <ele>607.2</ele>
        <time>2021-02-28T09:47:41Z</time>
      </trkpt>
      <trkpt lat="40.3518390" lon="-4.0286510">
        <ele>606.4</ele>
        <time>2021-02-28T09:47:46Z</time>
      </trkpt>
      <trkpt lat="40.3518410" lon="-4.0285130">
        <ele>605.6</ele>
        <time>2021-02-28T09:47:48Z</time>
      </trkpt>
      <trkpt lat="40.3518550" lon="-4.0284570">
        <ele>605.2</ele>
        <time>2021-02-28T09:47:49Z</time>
      </trkpt>
      <trkpt lat="40.3519120" lon="-4.0283810">
        <ele>604.6</ele>
        <time>2021-02-28T09:47:51Z</time>
      </trkpt>
      <trkpt lat="40.3520430" lon="-4.0284230">
        <ele>604.4</ele>
        <time>2021-02-28T09:47:54Z</time>
      </trkpt>
      <trkpt lat="40.3523350" lon="-4.0285110">
        <ele>604.0</ele>
        <time>2021-02-28T09:47:59Z</time>
      </trkpt>
      <trkpt lat="40.3526080" lon="-4.0285840">
        <ele>602.8</ele>
        <time>2021-02-28T09:48:03Z</time>
      </trkpt>
      <trkpt lat="40.3526720" lon="-4.0286000">
        <ele>602.8</ele>
        <time>2021-02-28T09:48:04Z</time>
      </trkpt>
      <trkpt lat="40.3529380" lon="-4.0286610">
        <ele>601.4</ele>
        <time>2021-02-28T09:48:08Z</time>
      </trkpt>
      <trkpt lat="40.3532030" lon="-4.0286970">
        <ele>600.0</ele>
        <time>2021-02-28T09:48:12Z</time>
      </trkpt>
      <trkpt lat="40.3533310" lon="-4.0287160">
        <ele>598.2</ele>
        <time>2021-02-28T09:48:14Z</time>
      </trkpt>
      <trkpt lat="40.3534470" lon="-4.0287310">
        <ele>596.8</ele>
        <time>2021-02-28T09:48:16Z</time>
      </trkpt>
      <trkpt lat="40.3535780" lon="-4.0287500">
        <ele>595.2</ele>
        <time>2021-02-28T09:48:18Z</time>
      </trkpt>
      <trkpt lat="40.3537110" lon="-4.0287930">
        <ele>593.2</ele>
        <time>2021-02-28T09:48:20Z</time>
      </trkpt>
      <trkpt lat="40.3537800" lon="-4.0288020">
        <ele>592.8</ele>
        <time>2021-02-28T09:48:21Z</time>
      </trkpt>
      <trkpt lat="40.3538510" lon="-4.0288000">
        <ele>592.2</ele>
        <time>2021-02-28T09:48:22Z</time>
      </trkpt>
      <trkpt lat="40.3540620" lon="-4.0287980">
        <ele>591.0</ele>
        <time>2021-02-28T09:48:25Z</time>
      </trkpt>
      <trkpt lat="40.3541360" lon="-4.0287960">
        <ele>590.8</ele>
        <time>2021-02-28T09:48:26Z</time>
      </trkpt>
      <trkpt lat="40.3543610" lon="-4.0287780">
        <ele>590.2</ele>
        <time>2021-02-28T09:48:29Z</time>
      </trkpt>
      <trkpt lat="40.3544370" lon="-4.0287620">
        <ele>589.8</ele>
        <time>2021-02-28T09:48:30Z</time>
      </trkpt>
      <trkpt lat="40.3545100" lon="-4.0287350">
        <ele>589.6</ele>
        <time>2021-02-28T09:48:31Z</time>
      </trkpt>
      <trkpt lat="40.3545820" lon="-4.0287120">
        <ele>589.4</ele>
        <time>2021-02-28T09:48:32Z</time>
      </trkpt>
      <trkpt lat="40.3547280" lon="-4.0286620">
        <ele>589.0</ele>
        <time>2021-02-28T09:48:34Z</time>
      </trkpt>
      <trkpt lat="40.3547990" lon="-4.0286330">
        <ele>588.4</ele>
        <time>2021-02-28T09:48:35Z</time>
      </trkpt>
      <trkpt lat="40.3549390" lon="-4.0285670">
        <ele>587.6</ele>
        <time>2021-02-28T09:48:37Z</time>
      </trkpt>
      <trkpt lat="40.3550050" lon="-4.0285450">
        <ele>587.4</ele>
        <time>2021-02-28T09:48:38Z</time>
      </trkpt>
      <trkpt lat="40.3552220" lon="-4.0284760">
        <ele>586.8</ele>
        <time>2021-02-28T09:48:41Z</time>
      </trkpt>
      <trkpt lat="40.3552970" lon="-4.0284540">
        <ele>586.6</ele>
        <time>2021-02-28T09:48:42Z</time>
      </trkpt>
      <trkpt lat="40.3553710" lon="-4.0284360">
        <ele>586.4</ele>
        <time>2021-02-28T09:48:43Z</time>
      </trkpt>
      <trkpt lat="40.3555170" lon="-4.0284140">
        <ele>585.4</ele>
        <time>2021-02-28T09:48:45Z</time>
      </trkpt>
      <trkpt lat="40.3556750" lon="-4.0283870">
        <ele>584.4</ele>
        <time>2021-02-28T09:48:47Z</time>
      </trkpt>
      <trkpt lat="40.3559030" lon="-4.0283350">
        <ele>583.0</ele>
        <time>2021-02-28T09:48:50Z</time>
      </trkpt>
      <trkpt lat="40.3560310" lon="-4.0283070">
        <ele>582.4</ele>
        <time>2021-02-28T09:48:52Z</time>
      </trkpt>
      <trkpt lat="40.3561550" lon="-4.0282930">
        <ele>582.0</ele>
        <time>2021-02-28T09:48:54Z</time>
      </trkpt>
      <trkpt lat="40.3562200" lon="-4.0282740">
        <ele>581.8</ele>
        <time>2021-02-28T09:48:55Z</time>
      </trkpt>
      <trkpt lat="40.3562890" lon="-4.0282540">
        <ele>581.6</ele>
        <time>2021-02-28T09:48:56Z</time>
      </trkpt>
      <trkpt lat="40.3564220" lon="-4.0282410">
        <ele>581.2</ele>
        <time>2021-02-28T09:48:58Z</time>
      </trkpt>
      <trkpt lat="40.3564900" lon="-4.0282340">
        <ele>581.0</ele>
        <time>2021-02-28T09:48:59Z</time>
      </trkpt>
      <trkpt lat="40.3565590" lon="-4.0282190">
        <ele>580.6</ele>
        <time>2021-02-28T09:49:00Z</time>
      </trkpt>
      <trkpt lat="40.3568420" lon="-4.0281870">
        <ele>580.0</ele>
        <time>2021-02-28T09:49:04Z</time>
      </trkpt>
      <trkpt lat="40.3569140" lon="-4.0281820">
        <ele>579.8</ele>
        <time>2021-02-28T09:49:05Z</time>
      </trkpt>
      <trkpt lat="40.3569820" lon="-4.0281720">
        <ele>580.0</ele>
        <time>2021-02-28T09:49:06Z</time>
      </trkpt>
      <trkpt lat="40.3570330" lon="-4.0281500">
        <ele>580.0</ele>
        <time>2021-02-28T09:49:07Z</time>
      </trkpt>
      <trkpt lat="40.3570930" lon="-4.0281500">
        <ele>578.8</ele>
        <time>2021-02-28T09:49:09Z</time>
      </trkpt>
      <trkpt lat="40.3571210" lon="-4.0281520">
        <ele>578.8</ele>
        <time>2021-02-28T09:49:10Z</time>
      </trkpt>
      <trkpt lat="40.3572490" lon="-4.0281620">
        <ele>578.8</ele>
        <time>2021-02-28T09:49:13Z</time>
      </trkpt>
      <trkpt lat="40.3573020" lon="-4.0281560">
        <ele>578.8</ele>
        <time>2021-02-28T09:49:14Z</time>
      </trkpt>
      <trkpt lat="40.3574830" lon="-4.0281380">
        <ele>579.2</ele>
        <time>2021-02-28T09:49:17Z</time>
      </trkpt>
      <trkpt lat="40.3576180" lon="-4.0281480">
        <ele>579.2</ele>
        <time>2021-02-28T09:49:19Z</time>
      </trkpt>
      <trkpt lat="40.3576840" lon="-4.0281430">
        <ele>579.2</ele>
        <time>2021-02-28T09:49:20Z</time>
      </trkpt>
      <trkpt lat="40.3577400" lon="-4.0281040">
        <ele>579.0</ele>
        <time>2021-02-28T09:49:21Z</time>
      </trkpt>
      <trkpt lat="40.3579080" lon="-4.0279770">
        <ele>577.8</ele>
        <time>2021-02-28T09:49:24Z</time>
      </trkpt>
      <trkpt lat="40.3579390" lon="-4.0279170">
        <ele>577.4</ele>
        <time>2021-02-28T09:49:25Z</time>
      </trkpt>
      <trkpt lat="40.3579850" lon="-4.0276840">
        <ele>576.8</ele>
        <time>2021-02-28T09:49:28Z</time>
      </trkpt>
      <trkpt lat="40.3581170" lon="-4.0273820">
        <ele>576.4</ele>
        <time>2021-02-28T09:49:32Z</time>
      </trkpt>
      <trkpt lat="40.3581330" lon="-4.0273100">
        <ele>577.0</ele>
        <time>2021-02-28T09:49:34Z</time>
      </trkpt>
      <trkpt lat="40.3581190" lon="-4.0272740">
        <ele>578.0</ele>
        <time>2021-02-28T09:49:36Z</time>
      </trkpt>
      <trkpt lat="40.3580920" lon="-4.0272330">
        <ele>578.8</ele>
        <time>2021-02-28T09:49:38Z</time>
      </trkpt>
      <trkpt lat="40.3580780" lon="-4.0272070">
        <ele>579.2</ele>
        <time>2021-02-28T09:49:39Z</time>
      </trkpt>
      <trkpt lat="40.3580550" lon="-4.0270690">
        <ele>580.6</ele>
        <time>2021-02-28T09:49:43Z</time>
      </trkpt>
      <trkpt lat="40.3580310" lon="-4.0269690">
        <ele>582.0</ele>
        <time>2021-02-28T09:49:46Z</time>
      </trkpt>
      <trkpt lat="40.3580000" lon="-4.0268920">
        <ele>583.4</ele>
        <time>2021-02-28T09:49:49Z</time>
      </trkpt>
      <trkpt lat="40.3579810" lon="-4.0268270">
        <ele>584.6</ele>
        <time>2021-02-28T09:49:52Z</time>
      </trkpt>
      <trkpt lat="40.3579800" lon="-4.0268060">
        <ele>585.0</ele>
        <time>2021-02-28T09:49:53Z</time>
      </trkpt>
      <trkpt lat="40.3579740" lon="-4.0267570">
        <ele>585.8</ele>
        <time>2021-02-28T09:49:55Z</time>
      </trkpt>
      <trkpt lat="40.3579660" lon="-4.0267310">
        <ele>586.6</ele>
        <time>2021-02-28T09:49:56Z</time>
      </trkpt>
      <trkpt lat="40.3579500" lon="-4.0267090">
        <ele>587.0</ele>
        <time>2021-02-28T09:49:57Z</time>
      </trkpt>
      <trkpt lat="40.3579340" lon="-4.0266880">
        <ele>587.2</ele>
        <time>2021-02-28T09:49:58Z</time>
      </trkpt>
      <trkpt lat="40.3579190" lon="-4.0266370">
        <ele>588.2</ele>
        <time>2021-02-28T09:50:00Z</time>
      </trkpt>
      <trkpt lat="40.3579100" lon="-4.0266100">
        <ele>588.6</ele>
        <time>2021-02-28T09:50:01Z</time>
      </trkpt>
      <trkpt lat="40.3578990" lon="-4.0265550">
        <ele>589.4</ele>
        <time>2021-02-28T09:50:03Z</time>
      </trkpt>
      <trkpt lat="40.3578870" lon="-4.0264190">
        <ele>590.0</ele>
        <time>2021-02-28T09:50:07Z</time>
      </trkpt>
      <trkpt lat="40.3578710" lon="-4.0263560">
        <ele>590.4</ele>
        <time>2021-02-28T09:50:09Z</time>
      </trkpt>
      <trkpt lat="40.3578690" lon="-4.0262990">
        <ele>591.0</ele>
        <time>2021-02-28T09:50:11Z</time>
      </trkpt>
      <trkpt lat="40.3578710" lon="-4.0262630">
        <ele>591.2</ele>
        <time>2021-02-28T09:50:12Z</time>
      </trkpt>
      <trkpt lat="40.3578470" lon="-4.0261810">
        <ele>590.6</ele>
        <time>2021-02-28T09:50:15Z</time>
      </trkpt>
      <trkpt lat="40.3578290" lon="-4.0261660">
        <ele>590.6</ele>
        <time>2021-02-28T09:50:16Z</time>
      </trkpt>
      <trkpt lat="40.3577030" lon="-4.0261900">
        <ele>591.2</ele>
        <time>2021-02-28T09:50:20Z</time>
      </trkpt>
      <trkpt lat="40.3574680" lon="-4.0263120">
        <ele>591.4</ele>
        <time>2021-02-28T09:50:26Z</time>
      </trkpt>
      <trkpt lat="40.3573520" lon="-4.0264090">
        <ele>591.6</ele>
        <time>2021-02-28T09:50:29Z</time>
      </trkpt>
      <trkpt lat="40.3571840" lon="-4.0265420">
        <ele>591.8</ele>
        <time>2021-02-28T09:50:33Z</time>
      </trkpt>
      <trkpt lat="40.3571410" lon="-4.0265760">
        <ele>592.0</ele>
        <time>2021-02-28T09:50:34Z</time>
      </trkpt>
      <trkpt lat="40.3570540" lon="-4.0266340">
        <ele>592.4</ele>
        <time>2021-02-28T09:50:36Z</time>
      </trkpt>
      <trkpt lat="40.3569640" lon="-4.0266790">
        <ele>592.6</ele>
        <time>2021-02-28T09:50:38Z</time>
      </trkpt>
      <trkpt lat="40.3568270" lon="-4.0267510">
        <ele>593.2</ele>
        <time>2021-02-28T09:50:41Z</time>
      </trkpt>
      <trkpt lat="40.3567400" lon="-4.0267990">
        <ele>593.8</ele>
        <time>2021-02-28T09:50:43Z</time>
      </trkpt>
      <trkpt lat="40.3564000" lon="-4.0269860">
        <ele>593.6</ele>
        <time>2021-02-28T09:50:50Z</time>
      </trkpt>
      <trkpt lat="40.3563440" lon="-4.0270020">
        <ele>593.6</ele>
        <time>2021-02-28T09:50:51Z</time>
      </trkpt>
      <trkpt lat="40.3561190" lon="-4.0270350">
        <ele>593.8</ele>
        <time>2021-02-28T09:50:55Z</time>
      </trkpt>
      <trkpt lat="40.3557980" lon="-4.0270920">
        <ele>594.8</ele>
        <time>2021-02-28T09:51:01Z</time>
      </trkpt>
      <trkpt lat="40.3555730" lon="-4.0270940">
        <ele>595.8</ele>
        <time>2021-02-28T09:51:06Z</time>
      </trkpt>
      <trkpt lat="40.3554930" lon="-4.0270770">
        <ele>596.6</ele>
        <time>2021-02-28T09:51:08Z</time>
      </trkpt>
      <trkpt lat="40.3554190" lon="-4.0270580">
        <ele>597.0</ele>
        <time>2021-02-28T09:51:10Z</time>
      </trkpt>
      <trkpt lat="40.3551950" lon="-4.0270340">
        <ele>598.0</ele>
        <time>2021-02-28T09:51:16Z</time>
      </trkpt>
      <trkpt lat="40.3551570" lon="-4.0270380">
        <ele>598.2</ele>
        <time>2021-02-28T09:51:17Z</time>
      </trkpt>
      <trkpt lat="40.3549670" lon="-4.0270390">
        <ele>599.4</ele>
        <time>2021-02-28T09:51:22Z</time>
      </trkpt>
      <trkpt lat="40.3548860" lon="-4.0270380">
        <ele>599.8</ele>
        <time>2021-02-28T09:51:24Z</time>
      </trkpt>
      <trkpt lat="40.3545530" lon="-4.0270180">
        <ele>600.4</ele>
        <time>2021-02-28T09:51:32Z</time>
      </trkpt>
      <trkpt lat="40.3542650" lon="-4.0269590">
        <ele>601.6</ele>
        <time>2021-02-28T09:51:39Z</time>
      </trkpt>
      <trkpt lat="40.3541400" lon="-4.0269370">
        <ele>601.8</ele>
        <time>2021-02-28T09:51:42Z</time>
      </trkpt>
      <trkpt lat="40.3539660" lon="-4.0269130">
        <ele>602.2</ele>
        <time>2021-02-28T09:51:46Z</time>
      </trkpt>
      <trkpt lat="40.3538790" lon="-4.0269020">
        <ele>602.2</ele>
        <time>2021-02-28T09:51:48Z</time>
      </trkpt>
      <trkpt lat="40.3537940" lon="-4.0268920">
        <ele>602.4</ele>
        <time>2021-02-28T09:51:50Z</time>
      </trkpt>
      <trkpt lat="40.3536640" lon="-4.0268860">
        <ele>602.6</ele>
        <time>2021-02-28T09:51:53Z</time>
      </trkpt>
      <trkpt lat="40.3533990" lon="-4.0269010">
        <ele>603.0</ele>
        <time>2021-02-28T09:51:59Z</time>
      </trkpt>
      <trkpt lat="40.3532430" lon="-4.0269490">
        <ele>603.8</ele>
        <time>2021-02-28T09:52:04Z</time>
      </trkpt>
      <trkpt lat="40.3532320" lon="-4.0268560">
        <ele>604.0</ele>
        <time>2021-02-28T09:52:07Z</time>
      </trkpt>
      <trkpt lat="40.3532260" lon="-4.0267830">
        <ele>604.6</ele>
        <time>2021-02-28T09:52:11Z</time>
      </trkpt>
      <trkpt lat="40.3532360" lon="-4.0267480">
        <ele>604.8</ele>
        <time>2021-02-28T09:52:12Z</time>
      </trkpt>
      <trkpt lat="40.3532610" lon="-4.0266570">
        <ele>605.2</ele>
        <time>2021-02-28T09:52:14Z</time>
      </trkpt>
      <trkpt lat="40.3532820" lon="-4.0263910">
        <ele>605.2</ele>
        <time>2021-02-28T09:52:19Z</time>
      </trkpt>
      <trkpt lat="40.3532750" lon="-4.0263400">
        <ele>605.0</ele>
        <time>2021-02-28T09:52:20Z</time>
      </trkpt>
      <trkpt lat="40.3531720" lon="-4.0261010">
        <ele>604.8</ele>
        <time>2021-02-28T09:52:25Z</time>
      </trkpt>
      <trkpt lat="40.3531040" lon="-4.0260200">
        <ele>604.6</ele>
        <time>2021-02-28T09:52:27Z</time>
      </trkpt>
      <trkpt lat="40.3529560" lon="-4.0258540">
        <ele>604.6</ele>
        <time>2021-02-28T09:52:31Z</time>
      </trkpt>
      <trkpt lat="40.3528780" lon="-4.0257650">
        <ele>604.4</ele>
        <time>2021-02-28T09:52:33Z</time>
      </trkpt>
      <trkpt lat="40.3526610" lon="-4.0255040">
        <ele>604.2</ele>
        <time>2021-02-28T09:52:39Z</time>
      </trkpt>
      <trkpt lat="40.3525930" lon="-4.0254090">
        <ele>603.8</ele>
        <time>2021-02-28T09:52:41Z</time>
      </trkpt>
      <trkpt lat="40.3525680" lon="-4.0253590">
        <ele>603.8</ele>
        <time>2021-02-28T09:52:42Z</time>
      </trkpt>
      <trkpt lat="40.3526030" lon="-4.0252040">
        <ele>603.0</ele>
        <time>2021-02-28T09:52:45Z</time>
      </trkpt>
      <trkpt lat="40.3526670" lon="-4.0251210">
        <ele>602.6</ele>
        <time>2021-02-28T09:52:47Z</time>
      </trkpt>
      <trkpt lat="40.3527020" lon="-4.0250710">
        <ele>602.4</ele>
        <time>2021-02-28T09:52:48Z</time>
      </trkpt>
      <trkpt lat="40.3527680" lon="-4.0249570">
        <ele>602.2</ele>
        <time>2021-02-28T09:52:50Z</time>
      </trkpt>
      <trkpt lat="40.3527960" lon="-4.0248940">
        <ele>602.2</ele>
        <time>2021-02-28T09:52:51Z</time>
      </trkpt>
      <trkpt lat="40.3528930" lon="-4.0246340">
        <ele>602.4</ele>
        <time>2021-02-28T09:52:55Z</time>
      </trkpt>
      <trkpt lat="40.3531390" lon="-4.0240810">
        <ele>602.0</ele>
        <time>2021-02-28T09:53:04Z</time>
      </trkpt>
      <trkpt lat="40.3532220" lon="-4.0238680">
        <ele>601.6</ele>
        <time>2021-02-28T09:53:07Z</time>
      </trkpt>
      <trkpt lat="40.3533990" lon="-4.0234590">
        <ele>600.8</ele>
        <time>2021-02-28T09:53:13Z</time>
      </trkpt>
      <trkpt lat="40.3536270" lon="-4.0228550">
        <ele>601.2</ele>
        <time>2021-02-28T09:53:22Z</time>
      </trkpt>
      <trkpt lat="40.3536330" lon="-4.0227820">
        <ele>601.2</ele>
        <time>2021-02-28T09:53:23Z</time>
      </trkpt>
      <trkpt lat="40.3535940" lon="-4.0225800">
        <ele>601.2</ele>
        <time>2021-02-28T09:53:26Z</time>
      </trkpt>
      <trkpt lat="40.3535270" lon="-4.0224280">
        <ele>600.4</ele>
        <time>2021-02-28T09:53:29Z</time>
      </trkpt>
      <trkpt lat="40.3535050" lon="-4.0223860">
        <ele>600.4</ele>
        <time>2021-02-28T09:53:30Z</time>
      </trkpt>
      <trkpt lat="40.3534730" lon="-4.0222910">
        <ele>599.8</ele>
        <time>2021-02-28T09:53:32Z</time>
      </trkpt>
      <trkpt lat="40.3534460" lon="-4.0221690">
        <ele>599.4</ele>
        <time>2021-02-28T09:53:34Z</time>
      </trkpt>
      <trkpt lat="40.3534300" lon="-4.0221000">
        <ele>599.4</ele>
        <time>2021-02-28T09:53:35Z</time>
      </trkpt>
      <trkpt lat="40.3533740" lon="-4.0216410">
        <ele>599.2</ele>
        <time>2021-02-28T09:53:41Z</time>
      </trkpt>
      <trkpt lat="40.3533910" lon="-4.0211440">
        <ele>599.0</ele>
        <time>2021-02-28T09:53:48Z</time>
      </trkpt>
      <trkpt lat="40.3533900" lon="-4.0208810">
        <ele>599.6</ele>
        <time>2021-02-28T09:53:53Z</time>
      </trkpt>
      <trkpt lat="40.3533560" lon="-4.0207840">
        <ele>599.6</ele>
        <time>2021-02-28T09:53:55Z</time>
      </trkpt>
      <trkpt lat="40.3533200" lon="-4.0206780">
        <ele>600.2</ele>
        <time>2021-02-28T09:53:57Z</time>
      </trkpt>
      <trkpt lat="40.3532970" lon="-4.0206280">
        <ele>600.4</ele>
        <time>2021-02-28T09:53:58Z</time>
      </trkpt>
      <trkpt lat="40.3532650" lon="-4.0205430">
        <ele>600.6</ele>
        <time>2021-02-28T09:54:00Z</time>
      </trkpt>
      <trkpt lat="40.3532730" lon="-4.0204980">
        <ele>600.8</ele>
        <time>2021-02-28T09:54:01Z</time>
      </trkpt>
      <trkpt lat="40.3532460" lon="-4.0203320">
        <ele>601.4</ele>
        <time>2021-02-28T09:54:05Z</time>
      </trkpt>
      <trkpt lat="40.3532410" lon="-4.0203020">
        <ele>602.0</ele>
        <time>2021-02-28T09:54:06Z</time>
      </trkpt>
      <trkpt lat="40.3532320" lon="-4.0202470">
        <ele>601.4</ele>
        <time>2021-02-28T09:54:18Z</time>
      </trkpt>
      <trkpt lat="40.3531730" lon="-4.0200110">
        <ele>602.0</ele>
        <time>2021-02-28T09:54:23Z</time>
      </trkpt>
      <trkpt lat="40.3531490" lon="-4.0198880">
        <ele>602.0</ele>
        <time>2021-02-28T09:54:25Z</time>
      </trkpt>
      <trkpt lat="40.3531350" lon="-4.0196240">
        <ele>602.6</ele>
        <time>2021-02-28T09:54:29Z</time>
      </trkpt>
      <trkpt lat="40.3531380" lon="-4.0195560">
        <ele>603.0</ele>
        <time>2021-02-28T09:54:30Z</time>
      </trkpt>
      <trkpt lat="40.3531520" lon="-4.0192810">
        <ele>603.6</ele>
        <time>2021-02-28T09:54:34Z</time>
      </trkpt>
      <trkpt lat="40.3531440" lon="-4.0190620">
        <ele>603.6</ele>
        <time>2021-02-28T09:54:37Z</time>
      </trkpt>
      <trkpt lat="40.3531310" lon="-4.0188770">
        <ele>603.0</ele>
        <time>2021-02-28T09:54:40Z</time>
      </trkpt>
      <trkpt lat="40.3530950" lon="-4.0188530">
        <ele>602.6</ele>
        <time>2021-02-28T09:54:41Z</time>
      </trkpt>
      <trkpt lat="40.3529420" lon="-4.0188440">
        <ele>602.2</ele>
        <time>2021-02-28T09:54:44Z</time>
      </trkpt>
      <trkpt lat="40.3528840" lon="-4.0188420">
        <ele>602.0</ele>
        <time>2021-02-28T09:54:45Z</time>
      </trkpt>
      <trkpt lat="40.3527670" lon="-4.0188390">
        <ele>602.0</ele>
        <time>2021-02-28T09:54:47Z</time>
      </trkpt>
      <trkpt lat="40.3526490" lon="-4.0188160">
        <ele>601.6</ele>
        <time>2021-02-28T09:54:49Z</time>
      </trkpt>
      <trkpt lat="40.3525850" lon="-4.0188190">
        <ele>601.0</ele>
        <time>2021-02-28T09:54:50Z</time>
      </trkpt>
      <trkpt lat="40.3523610" lon="-4.0187890">
        <ele>599.8</ele>
        <time>2021-02-28T09:54:53Z</time>
      </trkpt>
      <trkpt lat="40.3521140" lon="-4.0187580">
        <ele>600.0</ele>
        <time>2021-02-28T09:54:57Z</time>
      </trkpt>
      <trkpt lat="40.3520580" lon="-4.0187410">
        <ele>600.0</ele>
        <time>2021-02-28T09:54:58Z</time>
      </trkpt>
      <trkpt lat="40.3519390" lon="-4.0187470">
        <ele>600.0</ele>
        <time>2021-02-28T09:55:00Z</time>
      </trkpt>
      <trkpt lat="40.3518750" lon="-4.0187770">
        <ele>599.8</ele>
        <time>2021-02-28T09:55:01Z</time>
      </trkpt>
      <trkpt lat="40.3517340" lon="-4.0188410">
        <ele>598.6</ele>
        <time>2021-02-28T09:55:03Z</time>
      </trkpt>
      <trkpt lat="40.3516590" lon="-4.0188590">
        <ele>597.6</ele>
        <time>2021-02-28T09:55:04Z</time>
      </trkpt>
      <trkpt lat="40.3515830" lon="-4.0188900">
        <ele>596.8</ele>
        <time>2021-02-28T09:55:05Z</time>
      </trkpt>
      <trkpt lat="40.3514360" lon="-4.0189770">
        <ele>595.4</ele>
        <time>2021-02-28T09:55:07Z</time>
      </trkpt>
      <trkpt lat="40.3513720" lon="-4.0190150">
        <ele>594.8</ele>
        <time>2021-02-28T09:55:08Z</time>
      </trkpt>
      <trkpt lat="40.3513040" lon="-4.0190270">
        <ele>593.2</ele>
        <time>2021-02-28T09:55:09Z</time>
      </trkpt>
      <trkpt lat="40.3511700" lon="-4.0189930">
        <ele>592.0</ele>
        <time>2021-02-28T09:55:11Z</time>
      </trkpt>
      <trkpt lat="40.3511140" lon="-4.0189790">
        <ele>591.2</ele>
        <time>2021-02-28T09:55:12Z</time>
      </trkpt>
      <trkpt lat="40.3510580" lon="-4.0189740">
        <ele>590.2</ele>
        <time>2021-02-28T09:55:13Z</time>
      </trkpt>
      <trkpt lat="40.3509680" lon="-4.0190220">
        <ele>589.2</ele>
        <time>2021-02-28T09:55:15Z</time>
      </trkpt>
      <trkpt lat="40.3509350" lon="-4.0190160">
        <ele>589.4</ele>
        <time>2021-02-28T09:55:16Z</time>
      </trkpt>
      <trkpt lat="40.3508350" lon="-4.0189540">
        <ele>589.2</ele>
        <time>2021-02-28T09:55:18Z</time>
      </trkpt>
      <trkpt lat="40.3506390" lon="-4.0188150">
        <ele>589.8</ele>
        <time>2021-02-28T09:55:22Z</time>
      </trkpt>
      <trkpt lat="40.3505870" lon="-4.0188340">
        <ele>589.8</ele>
        <time>2021-02-28T09:55:23Z</time>
      </trkpt>
      <trkpt lat="40.3504020" lon="-4.0189130">
        <ele>589.0</ele>
        <time>2021-02-28T09:55:26Z</time>
      </trkpt>
      <trkpt lat="40.3503310" lon="-4.0189330">
        <ele>588.2</ele>
        <time>2021-02-28T09:55:27Z</time>
      </trkpt>
      <trkpt lat="40.3502640" lon="-4.0189190">
        <ele>587.8</ele>
        <time>2021-02-28T09:55:28Z</time>
      </trkpt>
      <trkpt lat="40.3501500" lon="-4.0188850">
        <ele>587.2</ele>
        <time>2021-02-28T09:55:30Z</time>
      </trkpt>
      <trkpt lat="40.3500480" lon="-4.0189630">
        <ele>586.4</ele>
        <time>2021-02-28T09:55:32Z</time>
      </trkpt>
      <trkpt lat="40.3499980" lon="-4.0189760">
        <ele>586.0</ele>
        <time>2021-02-28T09:55:33Z</time>
      </trkpt>
      <trkpt lat="40.3498620" lon="-4.0189280">
        <ele>586.6</ele>
        <time>2021-02-28T09:55:36Z</time>
      </trkpt>
      <trkpt lat="40.3496900" lon="-4.0188840">
        <ele>587.0</ele>
        <time>2021-02-28T09:55:39Z</time>
      </trkpt>
      <trkpt lat="40.3496330" lon="-4.0188720">
        <ele>587.2</ele>
        <time>2021-02-28T09:55:40Z</time>
      </trkpt>
      <trkpt lat="40.3495200" lon="-4.0188410">
        <ele>587.4</ele>
        <time>2021-02-28T09:55:42Z</time>
      </trkpt>
      <trkpt lat="40.3492910" lon="-4.0188120">
        <ele>588.0</ele>
        <time>2021-02-28T09:55:46Z</time>
      </trkpt>
      <trkpt lat="40.3491170" lon="-4.0187670">
        <ele>588.4</ele>
        <time>2021-02-28T09:55:49Z</time>
      </trkpt>
      <trkpt lat="40.3490600" lon="-4.0187620">
        <ele>588.6</ele>
        <time>2021-02-28T09:55:50Z</time>
      </trkpt>
      <trkpt lat="40.3489460" lon="-4.0187570">
        <ele>589.0</ele>
        <time>2021-02-28T09:55:52Z</time>
      </trkpt>
      <trkpt lat="40.3485880" lon="-4.0187370">
        <ele>588.8</ele>
        <time>2021-02-28T09:55:58Z</time>
      </trkpt>
      <trkpt lat="40.3484630" lon="-4.0187310">
        <ele>588.8</ele>
        <time>2021-02-28T09:56:00Z</time>
      </trkpt>
      <trkpt lat="40.3480660" lon="-4.0187230">
        <ele>587.2</ele>
        <time>2021-02-28T09:56:06Z</time>
      </trkpt>
      <trkpt lat="40.3479220" lon="-4.0187430">
        <ele>586.4</ele>
        <time>2021-02-28T09:56:08Z</time>
      </trkpt>
      <trkpt lat="40.3477650" lon="-4.0187580">
        <ele>585.8</ele>
        <time>2021-02-28T09:56:10Z</time>
      </trkpt>
      <trkpt lat="40.3476120" lon="-4.0187630">
        <ele>584.6</ele>
        <time>2021-02-28T09:56:12Z</time>
      </trkpt>
      <trkpt lat="40.3475540" lon="-4.0187430">
        <ele>583.8</ele>
        <time>2021-02-28T09:56:13Z</time>
      </trkpt>
      <trkpt lat="40.3475110" lon="-4.0187020">
        <ele>583.2</ele>
        <time>2021-02-28T09:56:14Z</time>
      </trkpt>
      <trkpt lat="40.3474790" lon="-4.0186300">
        <ele>581.6</ele>
        <time>2021-02-28T09:56:16Z</time>
      </trkpt>
      <trkpt lat="40.3474570" lon="-4.0185610">
        <ele>581.0</ele>
        <time>2021-02-28T09:56:18Z</time>
      </trkpt>
      <trkpt lat="40.3474440" lon="-4.0184070">
        <ele>581.8</ele>
        <time>2021-02-28T09:56:21Z</time>
      </trkpt>
      <trkpt lat="40.3474310" lon="-4.0183760">
        <ele>581.8</ele>
        <time>2021-02-28T09:56:22Z</time>
      </trkpt>
      <trkpt lat="40.3473980" lon="-4.0183750">
        <ele>581.6</ele>
        <time>2021-02-28T09:56:24Z</time>
      </trkpt>
      <trkpt lat="40.3473430" lon="-4.0183780">
        <ele>582.2</ele>
        <time>2021-02-28T09:56:26Z</time>
      </trkpt>
      <trkpt lat="40.3473170" lon="-4.0183870">
        <ele>582.8</ele>
        <time>2021-02-28T09:56:27Z</time>
      </trkpt>
      <trkpt lat="40.3473010" lon="-4.0183760">
        <ele>583.4</ele>
        <time>2021-02-28T09:56:28Z</time>
      </trkpt>
      <trkpt lat="40.3472820" lon="-4.0183530">
        <ele>584.0</ele>
        <time>2021-02-28T09:56:29Z</time>
      </trkpt>
      <trkpt lat="40.3472390" lon="-4.0183120">
        <ele>585.0</ele>
        <time>2021-02-28T09:56:31Z</time>
      </trkpt>
      <trkpt lat="40.3472000" lon="-4.0182640">
        <ele>586.2</ele>
        <time>2021-02-28T09:56:33Z</time>
      </trkpt>
      <trkpt lat="40.3471540" lon="-4.0182260">
        <ele>586.8</ele>
        <time>2021-02-28T09:56:35Z</time>
      </trkpt>
      <trkpt lat="40.3471260" lon="-4.0182110">
        <ele>587.2</ele>
        <time>2021-02-28T09:56:36Z</time>
      </trkpt>
      <trkpt lat="40.3470670" lon="-4.0182020">
        <ele>588.2</ele>
        <time>2021-02-28T09:56:38Z</time>
      </trkpt>
      <trkpt lat="40.3470060" lon="-4.0182090">
        <ele>589.0</ele>
        <time>2021-02-28T09:56:40Z</time>
      </trkpt>
      <trkpt lat="40.3469450" lon="-4.0182180">
        <ele>589.4</ele>
        <time>2021-02-28T09:56:42Z</time>
      </trkpt>
      <trkpt lat="40.3467800" lon="-4.0182420">
        <ele>590.6</ele>
        <time>2021-02-28T09:56:47Z</time>
      </trkpt>
      <trkpt lat="40.3466690" lon="-4.0182520">
        <ele>591.0</ele>
        <time>2021-02-28T09:56:50Z</time>
      </trkpt>
      <trkpt lat="40.3464650" lon="-4.0182640">
        <ele>591.4</ele>
        <time>2021-02-28T09:56:55Z</time>
      </trkpt>
      <trkpt lat="40.3464280" lon="-4.0182190">
        <ele>591.4</ele>
        <time>2021-02-28T09:56:56Z</time>
      </trkpt>
      <trkpt lat="40.3464240" lon="-4.0180540">
        <ele>591.2</ele>
        <time>2021-02-28T09:56:59Z</time>
      </trkpt>
      <trkpt lat="40.3464560" lon="-4.0178550">
        <ele>590.8</ele>
        <time>2021-02-28T09:57:02Z</time>
      </trkpt>
      <trkpt lat="40.3464730" lon="-4.0177120">
        <ele>591.0</ele>
        <time>2021-02-28T09:57:04Z</time>
      </trkpt>
      <trkpt lat="40.3465130" lon="-4.0173080">
        <ele>589.2</ele>
        <time>2021-02-28T09:57:09Z</time>
      </trkpt>
      <trkpt lat="40.3465140" lon="-4.0172200">
        <ele>588.6</ele>
        <time>2021-02-28T09:57:10Z</time>
      </trkpt>
      <trkpt lat="40.3465090" lon="-4.0171300">
        <ele>588.0</ele>
        <time>2021-02-28T09:57:11Z</time>
      </trkpt>
      <trkpt lat="40.3464740" lon="-4.0167550">
        <ele>587.4</ele>
        <time>2021-02-28T09:57:15Z</time>
      </trkpt>
      <trkpt lat="40.3464630" lon="-4.0166630">
        <ele>586.8</ele>
        <time>2021-02-28T09:57:16Z</time>
      </trkpt>
      <trkpt lat="40.3464440" lon="-4.0165710">
        <ele>586.0</ele>
        <time>2021-02-28T09:57:17Z</time>
      </trkpt>
      <trkpt lat="40.3464190" lon="-4.0164810">
        <ele>585.6</ele>
        <time>2021-02-28T09:57:18Z</time>
      </trkpt>
      <trkpt lat="40.3463460" lon="-4.0163070">
        <ele>585.6</ele>
        <time>2021-02-28T09:57:20Z</time>
      </trkpt>
      <trkpt lat="40.3462460" lon="-4.0161440">
        <ele>584.0</ele>
        <time>2021-02-28T09:57:22Z</time>
      </trkpt>
      <trkpt lat="40.3461210" lon="-4.0159920">
        <ele>582.2</ele>
        <time>2021-02-28T09:57:24Z</time>
      </trkpt>
      <trkpt lat="40.3460550" lon="-4.0159130">
        <ele>581.4</ele>
        <time>2021-02-28T09:57:25Z</time>
      </trkpt>
      <trkpt lat="40.3459860" lon="-4.0158360">
        <ele>580.8</ele>
        <time>2021-02-28T09:57:26Z</time>
      </trkpt>
      <trkpt lat="40.3458550" lon="-4.0156760">
        <ele>579.8</ele>
        <time>2021-02-28T09:57:28Z</time>
      </trkpt>
      <trkpt lat="40.3456500" lon="-4.0154500">
        <ele>578.6</ele>
        <time>2021-02-28T09:57:31Z</time>
      </trkpt>
      <trkpt lat="40.3455060" lon="-4.0153200">
        <ele>577.4</ele>
        <time>2021-02-28T09:57:33Z</time>
      </trkpt>
      <trkpt lat="40.3452720" lon="-4.0151730">
        <ele>576.6</ele>
        <time>2021-02-28T09:57:36Z</time>
      </trkpt>
      <trkpt lat="40.3449620" lon="-4.0150140">
        <ele>576.6</ele>
        <time>2021-02-28T09:57:40Z</time>
      </trkpt>
      <trkpt lat="40.3449120" lon="-4.0149490">
        <ele>576.4</ele>
        <time>2021-02-28T09:57:41Z</time>
      </trkpt>
      <trkpt lat="40.3448850" lon="-4.0148700">
        <ele>576.4</ele>
        <time>2021-02-28T09:57:42Z</time>
      </trkpt>
      <trkpt lat="40.3448800" lon="-4.0147960">
        <ele>576.4</ele>
        <time>2021-02-28T09:57:43Z</time>
      </trkpt>
      <trkpt lat="40.3449310" lon="-4.0146960">
        <ele>576.0</ele>
        <time>2021-02-28T09:57:45Z</time>
      </trkpt>
      <trkpt lat="40.3450670" lon="-4.0147100">
        <ele>575.4</ele>
        <time>2021-02-28T09:57:48Z</time>
      </trkpt>
      <trkpt lat="40.3452380" lon="-4.0147520">
        <ele>575.4</ele>
        <time>2021-02-28T09:57:51Z</time>
      </trkpt>
      <trkpt lat="40.3452980" lon="-4.0147460">
        <ele>575.6</ele>
        <time>2021-02-28T09:57:52Z</time>
      </trkpt>
      <trkpt lat="40.3454850" lon="-4.0147390">
        <ele>576.0</ele>
        <time>2021-02-28T09:57:55Z</time>
      </trkpt>
      <trkpt lat="40.3456770" lon="-4.0147090">
        <ele>577.0</ele>
        <time>2021-02-28T09:57:58Z</time>
      </trkpt>
      <trkpt lat="40.3457940" lon="-4.0146600">
        <ele>577.4</ele>
        <time>2021-02-28T09:58:00Z</time>
      </trkpt>
      <trkpt lat="40.3458480" lon="-4.0146340">
        <ele>577.4</ele>
        <time>2021-02-28T09:58:01Z</time>
      </trkpt>
      <trkpt lat="40.3459570" lon="-4.0145900">
        <ele>577.6</ele>
        <time>2021-02-28T09:58:03Z</time>
      </trkpt>
      <trkpt lat="40.3460080" lon="-4.0145800">
        <ele>577.6</ele>
        <time>2021-02-28T09:58:04Z</time>
      </trkpt>
      <trkpt lat="40.3460870" lon="-4.0146360">
        <ele>577.4</ele>
        <time>2021-02-28T09:58:06Z</time>
      </trkpt>
      <trkpt lat="40.3461950" lon="-4.0146260">
        <ele>577.2</ele>
        <time>2021-02-28T09:58:09Z</time>
      </trkpt>
      <trkpt lat="40.3462610" lon="-4.0145340">
        <ele>577.4</ele>
        <time>2021-02-28T09:58:11Z</time>
      </trkpt>
      <trkpt lat="40.3463050" lon="-4.0145210">
        <ele>577.6</ele>
        <time>2021-02-28T09:58:12Z</time>
      </trkpt>
      <trkpt lat="40.3464900" lon="-4.0145310">
        <ele>578.0</ele>
        <time>2021-02-28T09:58:16Z</time>
      </trkpt>
      <trkpt lat="40.3465690" lon="-4.0144270">
        <ele>578.0</ele>
        <time>2021-02-28T09:58:19Z</time>
      </trkpt>
      <trkpt lat="40.3466420" lon="-4.0143720">
        <ele>578.6</ele>
        <time>2021-02-28T09:58:21Z</time>
      </trkpt>
      <trkpt lat="40.3467050" lon="-4.0142970">
        <ele>579.0</ele>
        <time>2021-02-28T09:58:23Z</time>
      </trkpt>
      <trkpt lat="40.3468040" lon="-4.0141900">
        <ele>579.8</ele>
        <time>2021-02-28T09:58:26Z</time>
      </trkpt>
      <trkpt lat="40.3468740" lon="-4.0141320">
        <ele>580.6</ele>
        <time>2021-02-28T09:58:28Z</time>
      </trkpt>
      <trkpt lat="40.3469470" lon="-4.0140800">
        <ele>581.0</ele>
        <time>2021-02-28T09:58:30Z</time>
      </trkpt>
      <trkpt lat="40.3470460" lon="-4.0139200">
        <ele>581.6</ele>
        <time>2021-02-28T09:58:34Z</time>
      </trkpt>
      <trkpt lat="40.3470540" lon="-4.0137610">
        <ele>582.0</ele>
        <time>2021-02-28T09:58:37Z</time>
      </trkpt>
      <trkpt lat="40.3470530" lon="-4.0137110">
        <ele>582.0</ele>
        <time>2021-02-28T09:58:38Z</time>
      </trkpt>
      <trkpt lat="40.3470520" lon="-4.0135740">
        <ele>583.0</ele>
        <time>2021-02-28T09:58:41Z</time>
      </trkpt>
      <trkpt lat="40.3470470" lon="-4.0134490">
        <ele>584.2</ele>
        <time>2021-02-28T09:58:44Z</time>
      </trkpt>
      <trkpt lat="40.3470470" lon="-4.0133660">
        <ele>585.0</ele>
        <time>2021-02-28T09:58:46Z</time>
      </trkpt>
      <trkpt lat="40.3470460" lon="-4.0133240">
        <ele>585.4</ele>
        <time>2021-02-28T09:58:47Z</time>
      </trkpt>
      <trkpt lat="40.3470710" lon="-4.0131660">
        <ele>586.4</ele>
        <time>2021-02-28T09:58:51Z</time>
      </trkpt>
      <trkpt lat="40.3470990" lon="-4.0131010">
        <ele>587.0</ele>
        <time>2021-02-28T09:58:53Z</time>
      </trkpt>
      <trkpt lat="40.3471330" lon="-4.0130310">
        <ele>587.8</ele>
        <time>2021-02-28T09:58:55Z</time>
      </trkpt>
      <trkpt lat="40.3471740" lon="-4.0129410">
        <ele>588.8</ele>
        <time>2021-02-28T09:58:58Z</time>
      </trkpt>
      <trkpt lat="40.3472050" lon="-4.0128560">
        <ele>590.0</ele>
        <time>2021-02-28T09:59:01Z</time>
      </trkpt>
      <trkpt lat="40.3472400" lon="-4.0127760">
        <ele>591.4</ele>
        <time>2021-02-28T09:59:04Z</time>
      </trkpt>
      <trkpt lat="40.3472640" lon="-4.0127240">
        <ele>592.4</ele>
        <time>2021-02-28T09:59:06Z</time>
      </trkpt>
      <trkpt lat="40.3473090" lon="-4.0126450">
        <ele>594.0</ele>
        <time>2021-02-28T09:59:09Z</time>
      </trkpt>
      <trkpt lat="40.3473110" lon="-4.0125380">
        <ele>594.6</ele>
        <time>2021-02-28T09:59:12Z</time>
      </trkpt>
      <trkpt lat="40.3472170" lon="-4.0124750">
        <ele>594.4</ele>
        <time>2021-02-28T09:59:15Z</time>
      </trkpt>
      <trkpt lat="40.3471800" lon="-4.0124540">
        <ele>594.4</ele>
        <time>2021-02-28T09:59:16Z</time>
      </trkpt>
      <trkpt lat="40.3469620" lon="-4.0123160">
        <ele>594.4</ele>
        <time>2021-02-28T09:59:21Z</time>
      </trkpt>
      <trkpt lat="40.3468430" lon="-4.0122110">
        <ele>594.6</ele>
        <time>2021-02-28T09:59:24Z</time>
      </trkpt>
      <trkpt lat="40.3468070" lon="-4.0121710">
        <ele>595.0</ele>
        <time>2021-02-28T09:59:25Z</time>
      </trkpt>
      <trkpt lat="40.3467080" lon="-4.0120510">
        <ele>595.2</ele>
        <time>2021-02-28T09:59:28Z</time>
      </trkpt>
      <trkpt lat="40.3464890" lon="-4.0118590">
        <ele>593.4</ele>
        <time>2021-02-28T09:59:33Z</time>
      </trkpt>
      <trkpt lat="40.3464380" lon="-4.0118040">
        <ele>593.0</ele>
        <time>2021-02-28T09:59:34Z</time>
      </trkpt>
      <trkpt lat="40.3463300" lon="-4.0116860">
        <ele>592.0</ele>
        <time>2021-02-28T09:59:36Z</time>
      </trkpt>
      <trkpt lat="40.3461540" lon="-4.0114890">
        <ele>590.6</ele>
        <time>2021-02-28T09:59:39Z</time>
      </trkpt>
      <trkpt lat="40.3460880" lon="-4.0114470">
        <ele>589.8</ele>
        <time>2021-02-28T09:59:40Z</time>
      </trkpt>
      <trkpt lat="40.3460160" lon="-4.0114090">
        <ele>589.0</ele>
        <time>2021-02-28T09:59:41Z</time>
      </trkpt>
      <trkpt lat="40.3459510" lon="-4.0113580">
        <ele>588.2</ele>
        <time>2021-02-28T09:59:42Z</time>
      </trkpt>
      <trkpt lat="40.3458830" lon="-4.0113100">
        <ele>587.8</ele>
        <time>2021-02-28T09:59:43Z</time>
      </trkpt>
      <trkpt lat="40.3457590" lon="-4.0112100">
        <ele>587.4</ele>
        <time>2021-02-28T09:59:45Z</time>
      </trkpt>
      <trkpt lat="40.3456690" lon="-4.0111420">
        <ele>586.6</ele>
        <time>2021-02-28T09:59:47Z</time>
      </trkpt>
      <trkpt lat="40.3456300" lon="-4.0111270">
        <ele>586.2</ele>
        <time>2021-02-28T09:59:48Z</time>
      </trkpt>
      <trkpt lat="40.3455170" lon="-4.0111190">
        <ele>585.6</ele>
        <time>2021-02-28T09:59:51Z</time>
      </trkpt>
      <trkpt lat="40.3454490" lon="-4.0111400">
        <ele>585.0</ele>
        <time>2021-02-28T09:59:53Z</time>
      </trkpt>
      <trkpt lat="40.3453500" lon="-4.0111400">
        <ele>585.4</ele>
        <time>2021-02-28T09:59:56Z</time>
      </trkpt>
      <trkpt lat="40.3451930" lon="-4.0111430">
        <ele>586.8</ele>
        <time>2021-02-28T10:00:02Z</time>
      </trkpt>
      <trkpt lat="40.3451700" lon="-4.0111410">
        <ele>587.0</ele>
        <time>2021-02-28T10:00:03Z</time>
      </trkpt>
      <trkpt lat="40.3450390" lon="-4.0111320">
        <ele>588.0</ele>
        <time>2021-02-28T10:00:08Z</time>
      </trkpt>
      <trkpt lat="40.3449840" lon="-4.0111190">
        <ele>588.2</ele>
        <time>2021-02-28T10:00:10Z</time>
      </trkpt>
      <trkpt lat="40.3449010" lon="-4.0111040">
        <ele>589.0</ele>
        <time>2021-02-28T10:00:13Z</time>
      </trkpt>
      <trkpt lat="40.3448100" lon="-4.0110950">
        <ele>589.4</ele>
        <time>2021-02-28T10:00:17Z</time>
      </trkpt>
      <trkpt lat="40.3447370" lon="-4.0111100">
        <ele>589.4</ele>
        <time>2021-02-28T10:00:20Z</time>
      </trkpt>
      <trkpt lat="40.3446850" lon="-4.0111570">
        <ele>589.6</ele>
        <time>2021-02-28T10:00:22Z</time>
      </trkpt>
      <trkpt lat="40.3445780" lon="-4.0112490">
        <ele>590.0</ele>
        <time>2021-02-28T10:00:26Z</time>
      </trkpt>
      <trkpt lat="40.3444870" lon="-4.0112910">
        <ele>590.2</ele>
        <time>2021-02-28T10:00:29Z</time>
      </trkpt>
      <trkpt lat="40.3444330" lon="-4.0112570">
        <ele>590.6</ele>
        <time>2021-02-28T10:00:31Z</time>
      </trkpt>
      <trkpt lat="40.3444030" lon="-4.0112360">
        <ele>590.6</ele>
        <time>2021-02-28T10:00:32Z</time>
      </trkpt>
      <trkpt lat="40.3443110" lon="-4.0112450">
        <ele>589.8</ele>
        <time>2021-02-28T10:00:35Z</time>
      </trkpt>
      <trkpt lat="40.3442790" lon="-4.0112480">
        <ele>590.0</ele>
        <time>2021-02-28T10:00:36Z</time>
      </trkpt>
      <trkpt lat="40.3441570" lon="-4.0112430">
        <ele>591.4</ele>
        <time>2021-02-28T10:00:40Z</time>
      </trkpt>
      <trkpt lat="40.3440660" lon="-4.0111960">
        <ele>592.2</ele>
        <time>2021-02-28T10:00:43Z</time>
      </trkpt>
      <trkpt lat="40.3440330" lon="-4.0111810">
        <ele>592.4</ele>
        <time>2021-02-28T10:00:44Z</time>
      </trkpt>
      <trkpt lat="40.3437640" lon="-4.0110360">
        <ele>592.8</ele>
        <time>2021-02-28T10:00:52Z</time>
      </trkpt>
      <trkpt lat="40.3436520" lon="-4.0108400">
        <ele>592.2</ele>
        <time>2021-02-28T10:00:57Z</time>
      </trkpt>
      <trkpt lat="40.3435660" lon="-4.0105380">
        <ele>591.2</ele>
        <time>2021-02-28T10:01:03Z</time>
      </trkpt>
      <trkpt lat="40.3435490" lon="-4.0104800">
        <ele>591.0</ele>
        <time>2021-02-28T10:01:04Z</time>
      </trkpt>
      <trkpt lat="40.3435130" lon="-4.0102950">
        <ele>590.4</ele>
        <time>2021-02-28T10:01:07Z</time>
      </trkpt>
      <trkpt lat="40.3435240" lon="-4.0102400">
        <ele>590.2</ele>
        <time>2021-02-28T10:01:08Z</time>
      </trkpt>
      <trkpt lat="40.3435530" lon="-4.0101970">
        <ele>590.0</ele>
        <time>2021-02-28T10:01:09Z</time>
      </trkpt>
      <trkpt lat="40.3436220" lon="-4.0101170">
        <ele>590.2</ele>
        <time>2021-02-28T10:01:11Z</time>
      </trkpt>
      <trkpt lat="40.3436790" lon="-4.0100080">
        <ele>590.0</ele>
        <time>2021-02-28T10:01:13Z</time>
      </trkpt>
      <trkpt lat="40.3436970" lon="-4.0097880">
        <ele>589.2</ele>
        <time>2021-02-28T10:01:16Z</time>
      </trkpt>
      <trkpt lat="40.3437030" lon="-4.0097120">
        <ele>589.2</ele>
        <time>2021-02-28T10:01:17Z</time>
      </trkpt>
      <trkpt lat="40.3437220" lon="-4.0095550">
        <ele>588.8</ele>
        <time>2021-02-28T10:01:19Z</time>
      </trkpt>
      <trkpt lat="40.3437270" lon="-4.0093900">
        <ele>588.6</ele>
        <time>2021-02-28T10:01:21Z</time>
      </trkpt>
      <trkpt lat="40.3437330" lon="-4.0092230">
        <ele>588.0</ele>
        <time>2021-02-28T10:01:23Z</time>
      </trkpt>
      <trkpt lat="40.3437120" lon="-4.0088310">
        <ele>588.2</ele>
        <time>2021-02-28T10:01:28Z</time>
      </trkpt>
      <trkpt lat="40.3437070" lon="-4.0085940">
        <ele>587.4</ele>
        <time>2021-02-28T10:01:31Z</time>
      </trkpt>
      <trkpt lat="40.3437130" lon="-4.0085210">
        <ele>586.8</ele>
        <time>2021-02-28T10:01:32Z</time>
      </trkpt>
      <trkpt lat="40.3437160" lon="-4.0084490">
        <ele>586.6</ele>
        <time>2021-02-28T10:01:33Z</time>
      </trkpt>
      <trkpt lat="40.3437570" lon="-4.0080370">
        <ele>586.8</ele>
        <time>2021-02-28T10:01:39Z</time>
      </trkpt>
      <trkpt lat="40.3437060" lon="-4.0077370">
        <ele>586.4</ele>
        <time>2021-02-28T10:01:43Z</time>
      </trkpt>
      <trkpt lat="40.3436740" lon="-4.0075280">
        <ele>586.4</ele>
        <time>2021-02-28T10:01:46Z</time>
      </trkpt>
      <trkpt lat="40.3436810" lon="-4.0073830">
        <ele>586.0</ele>
        <time>2021-02-28T10:01:48Z</time>
      </trkpt>
      <trkpt lat="40.3436630" lon="-4.0073120">
        <ele>585.6</ele>
        <time>2021-02-28T10:01:49Z</time>
      </trkpt>
      <trkpt lat="40.3436250" lon="-4.0071680">
        <ele>585.4</ele>
        <time>2021-02-28T10:01:51Z</time>
      </trkpt>
      <trkpt lat="40.3436140" lon="-4.0070900">
        <ele>585.2</ele>
        <time>2021-02-28T10:01:52Z</time>
      </trkpt>
      <trkpt lat="40.3435860" lon="-4.0069280">
        <ele>584.6</ele>
        <time>2021-02-28T10:01:54Z</time>
      </trkpt>
      <trkpt lat="40.3435370" lon="-4.0065150">
        <ele>583.8</ele>
        <time>2021-02-28T10:01:59Z</time>
      </trkpt>
      <trkpt lat="40.3435240" lon="-4.0063730">
        <ele>583.6</ele>
        <time>2021-02-28T10:02:01Z</time>
      </trkpt>
      <trkpt lat="40.3435680" lon="-4.0062340">
        <ele>583.2</ele>
        <time>2021-02-28T10:02:03Z</time>
      </trkpt>
      <trkpt lat="40.3436230" lon="-4.0060770">
        <ele>582.8</ele>
        <time>2021-02-28T10:02:05Z</time>
      </trkpt>
      <trkpt lat="40.3436470" lon="-4.0059390">
        <ele>582.4</ele>
        <time>2021-02-28T10:02:07Z</time>
      </trkpt>
      <trkpt lat="40.3435670" lon="-4.0057340">
        <ele>580.6</ele>
        <time>2021-02-28T10:02:10Z</time>
      </trkpt>
      <trkpt lat="40.3435020" lon="-4.0056360">
        <ele>578.8</ele>
        <time>2021-02-28T10:02:12Z</time>
      </trkpt>
      <trkpt lat="40.3434720" lon="-4.0055720">
        <ele>577.8</ele>
        <time>2021-02-28T10:02:13Z</time>
      </trkpt>
      <trkpt lat="40.3434520" lon="-4.0055110">
        <ele>576.8</ele>
        <time>2021-02-28T10:02:14Z</time>
      </trkpt>
      <trkpt lat="40.3433930" lon="-4.0053920">
        <ele>575.0</ele>
        <time>2021-02-28T10:02:16Z</time>
      </trkpt>
      <trkpt lat="40.3432970" lon="-4.0053080">
        <ele>573.4</ele>
        <time>2021-02-28T10:02:18Z</time>
      </trkpt>
      <trkpt lat="40.3432030" lon="-4.0052430">
        <ele>572.0</ele>
        <time>2021-02-28T10:02:20Z</time>
      </trkpt>
      <trkpt lat="40.3431600" lon="-4.0052190">
        <ele>570.4</ele>
        <time>2021-02-28T10:02:21Z</time>
      </trkpt>
      <trkpt lat="40.3430620" lon="-4.0051790">
        <ele>569.0</ele>
        <time>2021-02-28T10:02:23Z</time>
      </trkpt>
      <trkpt lat="40.3429340" lon="-4.0051230">
        <ele>567.6</ele>
        <time>2021-02-28T10:02:25Z</time>
      </trkpt>
      <trkpt lat="40.3428850" lon="-4.0051020">
        <ele>567.0</ele>
        <time>2021-02-28T10:02:26Z</time>
      </trkpt>
      <trkpt lat="40.3428320" lon="-4.0050910">
        <ele>566.6</ele>
        <time>2021-02-28T10:02:27Z</time>
      </trkpt>
      <trkpt lat="40.3427850" lon="-4.0050820">
        <ele>566.0</ele>
        <time>2021-02-28T10:02:28Z</time>
      </trkpt>
      <trkpt lat="40.3427520" lon="-4.0050670">
        <ele>565.4</ele>
        <time>2021-02-28T10:02:29Z</time>
      </trkpt>
      <trkpt lat="40.3427240" lon="-4.0050540">
        <ele>564.8</ele>
        <time>2021-02-28T10:02:30Z</time>
      </trkpt>
      <trkpt lat="40.3427000" lon="-4.0050660">
        <ele>564.2</ele>
        <time>2021-02-28T10:02:31Z</time>
      </trkpt>
      <trkpt lat="40.3426450" lon="-4.0051130">
        <ele>563.8</ele>
        <time>2021-02-28T10:02:33Z</time>
      </trkpt>
      <trkpt lat="40.3425510" lon="-4.0050760">
        <ele>563.6</ele>
        <time>2021-02-28T10:02:37Z</time>
      </trkpt>
      <trkpt lat="40.3425380" lon="-4.0049120">
        <ele>563.6</ele>
        <time>2021-02-28T10:02:40Z</time>
      </trkpt>
      <trkpt lat="40.3424610" lon="-4.0046770">
        <ele>563.6</ele>
        <time>2021-02-28T10:02:44Z</time>
      </trkpt>
      <trkpt lat="40.3424380" lon="-4.0046150">
        <ele>563.4</ele>
        <time>2021-02-28T10:02:45Z</time>
      </trkpt>
      <trkpt lat="40.3423310" lon="-4.0042710">
        <ele>563.2</ele>
        <time>2021-02-28T10:02:50Z</time>
      </trkpt>
      <trkpt lat="40.3423040" lon="-4.0041440">
        <ele>563.0</ele>
        <time>2021-02-28T10:02:52Z</time>
      </trkpt>
      <trkpt lat="40.3423010" lon="-4.0040800">
        <ele>562.8</ele>
        <time>2021-02-28T10:02:53Z</time>
      </trkpt>
      <trkpt lat="40.3422690" lon="-4.0037290">
        <ele>562.8</ele>
        <time>2021-02-28T10:02:58Z</time>
      </trkpt>
      <trkpt lat="40.3422410" lon="-4.0033140">
        <ele>562.4</ele>
        <time>2021-02-28T10:03:04Z</time>
      </trkpt>
      <trkpt lat="40.3421710" lon="-4.0030160">
        <ele>562.2</ele>
        <time>2021-02-28T10:03:09Z</time>
      </trkpt>
      <trkpt lat="40.3421480" lon="-4.0029670">
        <ele>562.2</ele>
        <time>2021-02-28T10:03:10Z</time>
      </trkpt>
      <trkpt lat="40.3420320" lon="-4.0026720">
        <ele>561.8</ele>
        <time>2021-02-28T10:03:15Z</time>
      </trkpt>
      <trkpt lat="40.3420230" lon="-4.0026090">
        <ele>561.6</ele>
        <time>2021-02-28T10:03:16Z</time>
      </trkpt>
      <trkpt lat="40.3420060" lon="-4.0023510">
        <ele>561.6</ele>
        <time>2021-02-28T10:03:20Z</time>
      </trkpt>
      <trkpt lat="40.3420470" lon="-4.0022330">
        <ele>561.2</ele>
        <time>2021-02-28T10:03:22Z</time>
      </trkpt>
      <trkpt lat="40.3421040" lon="-4.0021330">
        <ele>561.2</ele>
        <time>2021-02-28T10:03:24Z</time>
      </trkpt>
      <trkpt lat="40.3421130" lon="-4.0019950">
        <ele>560.8</ele>
        <time>2021-02-28T10:03:26Z</time>
      </trkpt>
      <trkpt lat="40.3421150" lon="-4.0019250">
        <ele>560.8</ele>
        <time>2021-02-28T10:03:27Z</time>
      </trkpt>
      <trkpt lat="40.3421380" lon="-4.0017890">
        <ele>561.0</ele>
        <time>2021-02-28T10:03:29Z</time>
      </trkpt>
      <trkpt lat="40.3422050" lon="-4.0016680">
        <ele>561.0</ele>
        <time>2021-02-28T10:03:31Z</time>
      </trkpt>
      <trkpt lat="40.3422930" lon="-4.0015580">
        <ele>560.4</ele>
        <time>2021-02-28T10:03:33Z</time>
      </trkpt>
      <trkpt lat="40.3424240" lon="-4.0013870">
        <ele>560.2</ele>
        <time>2021-02-28T10:03:36Z</time>
      </trkpt>
      <trkpt lat="40.3424530" lon="-4.0013460">
        <ele>559.8</ele>
        <time>2021-02-28T10:03:37Z</time>
      </trkpt>
      <trkpt lat="40.3424850" lon="-4.0013100">
        <ele>558.8</ele>
        <time>2021-02-28T10:03:39Z</time>
      </trkpt>
      <trkpt lat="40.3425000" lon="-4.0012910">
        <ele>558.6</ele>
        <time>2021-02-28T10:03:40Z</time>
      </trkpt>
      <trkpt lat="40.3426470" lon="-4.0012370">
        <ele>558.8</ele>
        <time>2021-02-28T10:03:44Z</time>
      </trkpt>
      <trkpt lat="40.3427100" lon="-4.0010560">
        <ele>558.6</ele>
        <time>2021-02-28T10:03:47Z</time>
      </trkpt>
      <trkpt lat="40.3428160" lon="-4.0008490">
        <ele>558.2</ele>
        <time>2021-02-28T10:03:51Z</time>
      </trkpt>
      <trkpt lat="40.3428040" lon="-4.0007940">
        <ele>558.4</ele>
        <time>2021-02-28T10:03:52Z</time>
      </trkpt>
      <trkpt lat="40.3427360" lon="-4.0007410">
        <ele>558.2</ele>
        <time>2021-02-28T10:03:54Z</time>
      </trkpt>
      <trkpt lat="40.3425990" lon="-4.0007550">
        <ele>558.2</ele>
        <time>2021-02-28T10:03:57Z</time>
      </trkpt>
      <trkpt lat="40.3425520" lon="-4.0007610">
        <ele>558.4</ele>
        <time>2021-02-28T10:03:58Z</time>
      </trkpt>
      <trkpt lat="40.3423510" lon="-4.0007530">
        <ele>559.4</ele>
        <time>2021-02-28T10:04:03Z</time>
      </trkpt>
      <trkpt lat="40.3423150" lon="-4.0007460">
        <ele>559.6</ele>
        <time>2021-02-28T10:04:04Z</time>
      </trkpt>
      <trkpt lat="40.3422790" lon="-4.0007360">
        <ele>559.8</ele>
        <time>2021-02-28T10:04:05Z</time>
      </trkpt>
      <trkpt lat="40.3421750" lon="-4.0007310">
        <ele>561.0</ele>
        <time>2021-02-28T10:04:08Z</time>
      </trkpt>
      <trkpt lat="40.3421050" lon="-4.0007460">
        <ele>561.8</ele>
        <time>2021-02-28T10:04:10Z</time>
      </trkpt>
      <trkpt lat="40.3420690" lon="-4.0007580">
        <ele>562.0</ele>
        <time>2021-02-28T10:04:11Z</time>
      </trkpt>
      <trkpt lat="40.3419740" lon="-4.0007870">
        <ele>563.4</ele>
        <time>2021-02-28T10:04:14Z</time>
      </trkpt>
      <trkpt lat="40.3418830" lon="-4.0008140">
        <ele>564.6</ele>
        <time>2021-02-28T10:04:17Z</time>
      </trkpt>
      <trkpt lat="40.3418180" lon="-4.0008320">
        <ele>565.6</ele>
        <time>2021-02-28T10:04:19Z</time>
      </trkpt>
      <trkpt lat="40.3417860" lon="-4.0008440">
        <ele>566.4</ele>
        <time>2021-02-28T10:04:20Z</time>
      </trkpt>
      <trkpt lat="40.3417170" lon="-4.0008610">
        <ele>567.8</ele>
        <time>2021-02-28T10:04:22Z</time>
      </trkpt>
      <trkpt lat="40.3416460" lon="-4.0008840">
        <ele>568.6</ele>
        <time>2021-02-28T10:04:24Z</time>
      </trkpt>
      <trkpt lat="40.3416120" lon="-4.0008880">
        <ele>569.0</ele>
        <time>2021-02-28T10:04:25Z</time>
      </trkpt>
      <trkpt lat="40.3415480" lon="-4.0009080">
        <ele>570.0</ele>
        <time>2021-02-28T10:04:27Z</time>
      </trkpt>
      <trkpt lat="40.3415160" lon="-4.0009210">
        <ele>570.4</ele>
        <time>2021-02-28T10:04:28Z</time>
      </trkpt>
      <trkpt lat="40.3414460" lon="-4.0009400">
        <ele>571.2</ele>
        <time>2021-02-28T10:04:30Z</time>
      </trkpt>
      <trkpt lat="40.3414090" lon="-4.0009520">
        <ele>571.6</ele>
        <time>2021-02-28T10:04:31Z</time>
      </trkpt>
      <trkpt lat="40.3412520" lon="-4.0009950">
        <ele>572.6</ele>
        <time>2021-02-28T10:04:35Z</time>
      </trkpt>
      <trkpt lat="40.3412090" lon="-4.0010010">
        <ele>572.8</ele>
        <time>2021-02-28T10:04:36Z</time>
      </trkpt>
      <trkpt lat="40.3411230" lon="-4.0010180">
        <ele>572.6</ele>
        <time>2021-02-28T10:04:38Z</time>
      </trkpt>
      <trkpt lat="40.3408090" lon="-4.0010890">
        <ele>573.6</ele>
        <time>2021-02-28T10:04:45Z</time>
      </trkpt>
      <trkpt lat="40.3404190" lon="-4.0011430">
        <ele>572.2</ele>
        <time>2021-02-28T10:04:53Z</time>
      </trkpt>
      <trkpt lat="40.3403080" lon="-4.0011620">
        <ele>571.6</ele>
        <time>2021-02-28T10:04:55Z</time>
      </trkpt>
      <trkpt lat="40.3401530" lon="-4.0011510">
        <ele>571.4</ele>
        <time>2021-02-28T10:04:58Z</time>
      </trkpt>
      <trkpt lat="40.3400980" lon="-4.0011370">
        <ele>571.6</ele>
        <time>2021-02-28T10:04:59Z</time>
      </trkpt>
      <trkpt lat="40.3398620" lon="-4.0010500">
        <ele>571.8</ele>
        <time>2021-02-28T10:05:04Z</time>
      </trkpt>
      <trkpt lat="40.3398140" lon="-4.0010400">
        <ele>572.0</ele>
        <time>2021-02-28T10:05:05Z</time>
      </trkpt>
      <trkpt lat="40.3396770" lon="-4.0010250">
        <ele>572.0</ele>
        <time>2021-02-28T10:05:08Z</time>
      </trkpt>
      <trkpt lat="40.3395320" lon="-4.0009930">
        <ele>572.6</ele>
        <time>2021-02-28T10:05:11Z</time>
      </trkpt>
      <trkpt lat="40.3394320" lon="-4.0009760">
        <ele>572.8</ele>
        <time>2021-02-28T10:05:13Z</time>
      </trkpt>
      <trkpt lat="40.3392400" lon="-4.0009380">
        <ele>573.4</ele>
        <time>2021-02-28T10:05:17Z</time>
      </trkpt>
      <trkpt lat="40.3391000" lon="-4.0008880">
        <ele>574.0</ele>
        <time>2021-02-28T10:05:20Z</time>
      </trkpt>
      <trkpt lat="40.3389050" lon="-4.0008290">
        <ele>574.6</ele>
        <time>2021-02-28T10:05:24Z</time>
      </trkpt>
      <trkpt lat="40.3388590" lon="-4.0008060">
        <ele>574.8</ele>
        <time>2021-02-28T10:05:25Z</time>
      </trkpt>
      <trkpt lat="40.3387340" lon="-4.0007860">
        <ele>575.0</ele>
        <time>2021-02-28T10:05:28Z</time>
      </trkpt>
      <trkpt lat="40.3386900" lon="-4.0007720">
        <ele>575.0</ele>
        <time>2021-02-28T10:05:29Z</time>
      </trkpt>
      <trkpt lat="40.3386420" lon="-4.0007660">
        <ele>575.0</ele>
        <time>2021-02-28T10:05:30Z</time>
      </trkpt>
      <trkpt lat="40.3385960" lon="-4.0007510">
        <ele>575.0</ele>
        <time>2021-02-28T10:05:31Z</time>
      </trkpt>
      <trkpt lat="40.3385080" lon="-4.0007150">
        <ele>575.4</ele>
        <time>2021-02-28T10:05:33Z</time>
      </trkpt>
      <trkpt lat="40.3384610" lon="-4.0007150">
        <ele>575.6</ele>
        <time>2021-02-28T10:05:34Z</time>
      </trkpt>
      <trkpt lat="40.3383120" lon="-4.0007510">
        <ele>575.8</ele>
        <time>2021-02-28T10:05:37Z</time>
      </trkpt>
      <trkpt lat="40.3382170" lon="-4.0007970">
        <ele>576.0</ele>
        <time>2021-02-28T10:05:39Z</time>
      </trkpt>
      <trkpt lat="40.3381700" lon="-4.0008190">
        <ele>576.0</ele>
        <time>2021-02-28T10:05:40Z</time>
      </trkpt>
      <trkpt lat="40.3380330" lon="-4.0009000">
        <ele>576.0</ele>
        <time>2021-02-28T10:05:43Z</time>
      </trkpt>
      <trkpt lat="40.3377960" lon="-4.0010710">
        <ele>577.2</ele>
        <time>2021-02-28T10:05:49Z</time>
      </trkpt>
      <trkpt lat="40.3377610" lon="-4.0011150">
        <ele>577.4</ele>
        <time>2021-02-28T10:05:50Z</time>
      </trkpt>
      <trkpt lat="40.3375800" lon="-4.0013610">
        <ele>578.6</ele>
        <time>2021-02-28T10:05:55Z</time>
      </trkpt>
      <trkpt lat="40.3375410" lon="-4.0014020">
        <ele>578.8</ele>
        <time>2021-02-28T10:05:56Z</time>
      </trkpt>
      <trkpt lat="40.3373790" lon="-4.0015570">
        <ele>579.6</ele>
        <time>2021-02-28T10:06:00Z</time>
      </trkpt>
      <trkpt lat="40.3372600" lon="-4.0016690">
        <ele>580.6</ele>
        <time>2021-02-28T10:06:03Z</time>
      </trkpt>
      <trkpt lat="40.3372180" lon="-4.0017020">
        <ele>580.8</ele>
        <time>2021-02-28T10:06:04Z</time>
      </trkpt>
      <trkpt lat="40.3371250" lon="-4.0017520">
        <ele>581.0</ele>
        <time>2021-02-28T10:06:06Z</time>
      </trkpt>
      <trkpt lat="40.3369780" lon="-4.0018300">
        <ele>581.2</ele>
        <time>2021-02-28T10:06:09Z</time>
      </trkpt>
      <trkpt lat="40.3367490" lon="-4.0019720">
        <ele>582.0</ele>
        <time>2021-02-28T10:06:14Z</time>
      </trkpt>
      <trkpt lat="40.3366120" lon="-4.0020580">
        <ele>582.8</ele>
        <time>2021-02-28T10:06:17Z</time>
      </trkpt>
      <trkpt lat="40.3365180" lon="-4.0021130">
        <ele>583.0</ele>
        <time>2021-02-28T10:06:19Z</time>
      </trkpt>
      <trkpt lat="40.3362160" lon="-4.0022900">
        <ele>584.2</ele>
        <time>2021-02-28T10:06:25Z</time>
      </trkpt>
      <trkpt lat="40.3361660" lon="-4.0023240">
        <ele>584.4</ele>
        <time>2021-02-28T10:06:26Z</time>
      </trkpt>
      <trkpt lat="40.3360240" lon="-4.0024430">
        <ele>584.6</ele>
        <time>2021-02-28T10:06:29Z</time>
      </trkpt>
      <trkpt lat="40.3359000" lon="-4.0025820">
        <ele>585.2</ele>
        <time>2021-02-28T10:06:32Z</time>
      </trkpt>
      <trkpt lat="40.3357320" lon="-4.0027380">
        <ele>586.2</ele>
        <time>2021-02-28T10:06:36Z</time>
      </trkpt>
      <trkpt lat="40.3356520" lon="-4.0028110">
        <ele>586.8</ele>
        <time>2021-02-28T10:06:38Z</time>
      </trkpt>
      <trkpt lat="40.3355700" lon="-4.0028760">
        <ele>587.4</ele>
        <time>2021-02-28T10:06:40Z</time>
      </trkpt>
      <trkpt lat="40.3354000" lon="-4.0030100">
        <ele>588.4</ele>
        <time>2021-02-28T10:06:44Z</time>
      </trkpt>
      <trkpt lat="40.3353630" lon="-4.0030600">
        <ele>588.6</ele>
        <time>2021-02-28T10:06:45Z</time>
      </trkpt>
      <trkpt lat="40.3352840" lon="-4.0031490">
        <ele>589.4</ele>
        <time>2021-02-28T10:06:47Z</time>
      </trkpt>
      <trkpt lat="40.3351140" lon="-4.0032820">
        <ele>590.4</ele>
        <time>2021-02-28T10:06:51Z</time>
      </trkpt>
      <trkpt lat="40.3350700" lon="-4.0033170">
        <ele>590.6</ele>
        <time>2021-02-28T10:06:52Z</time>
      </trkpt>
      <trkpt lat="40.3348380" lon="-4.0034690">
        <ele>591.6</ele>
        <time>2021-02-28T10:06:57Z</time>
      </trkpt>
      <trkpt lat="40.3347500" lon="-4.0035250">
        <ele>592.0</ele>
        <time>2021-02-28T10:06:59Z</time>
      </trkpt>
      <trkpt lat="40.3345450" lon="-4.0037000">
        <ele>591.6</ele>
        <time>2021-02-28T10:07:04Z</time>
      </trkpt>
      <trkpt lat="40.3344670" lon="-4.0037850">
        <ele>591.4</ele>
        <time>2021-02-28T10:07:06Z</time>
      </trkpt>
      <trkpt lat="40.3343520" lon="-4.0039400">
        <ele>591.0</ele>
        <time>2021-02-28T10:07:09Z</time>
      </trkpt>
      <trkpt lat="40.3342500" lon="-4.0040950">
        <ele>591.0</ele>
        <time>2021-02-28T10:07:12Z</time>
      </trkpt>
      <trkpt lat="40.3341250" lon="-4.0042970">
        <ele>591.0</ele>
        <time>2021-02-28T10:07:16Z</time>
      </trkpt>
      <trkpt lat="40.3340020" lon="-4.0045040">
        <ele>591.6</ele>
        <time>2021-02-28T10:07:20Z</time>
      </trkpt>
      <trkpt lat="40.3338020" lon="-4.0048390">
        <ele>591.0</ele>
        <time>2021-02-28T10:07:26Z</time>
      </trkpt>
      <trkpt lat="40.3337390" lon="-4.0049600">
        <ele>590.8</ele>
        <time>2021-02-28T10:07:28Z</time>
      </trkpt>
      <trkpt lat="40.3335450" lon="-4.0052830">
        <ele>591.4</ele>
        <time>2021-02-28T10:07:34Z</time>
      </trkpt>
      <trkpt lat="40.3334870" lon="-4.0053810">
        <ele>591.6</ele>
        <time>2021-02-28T10:07:36Z</time>
      </trkpt>
      <trkpt lat="40.3334020" lon="-4.0055210">
        <ele>592.0</ele>
        <time>2021-02-28T10:07:39Z</time>
      </trkpt>
      <trkpt lat="40.3332720" lon="-4.0057200">
        <ele>592.2</ele>
        <time>2021-02-28T10:07:43Z</time>
      </trkpt>
      <trkpt lat="40.3329930" lon="-4.0061060">
        <ele>591.4</ele>
        <time>2021-02-28T10:07:50Z</time>
      </trkpt>
      <trkpt lat="40.3327380" lon="-4.0063890">
        <ele>591.6</ele>
        <time>2021-02-28T10:07:56Z</time>
      </trkpt>
      <trkpt lat="40.3326970" lon="-4.0064360">
        <ele>591.8</ele>
        <time>2021-02-28T10:07:57Z</time>
      </trkpt>
      <trkpt lat="40.3324890" lon="-4.0067330">
        <ele>592.2</ele>
        <time>2021-02-28T10:08:03Z</time>
      </trkpt>
      <trkpt lat="40.3324560" lon="-4.0067820">
        <ele>592.4</ele>
        <time>2021-02-28T10:08:04Z</time>
      </trkpt>
      <trkpt lat="40.3323880" lon="-4.0068760">
        <ele>592.8</ele>
        <time>2021-02-28T10:08:06Z</time>
      </trkpt>
      <trkpt lat="40.3322280" lon="-4.0070930">
        <ele>593.2</ele>
        <time>2021-02-28T10:08:11Z</time>
      </trkpt>
      <trkpt lat="40.3320030" lon="-4.0073760">
        <ele>593.6</ele>
        <time>2021-02-28T10:08:18Z</time>
      </trkpt>
      <trkpt lat="40.3317860" lon="-4.0077290">
        <ele>593.0</ele>
        <time>2021-02-28T10:08:24Z</time>
      </trkpt>
      <trkpt lat="40.3315300" lon="-4.0080720">
        <ele>593.4</ele>
        <time>2021-02-28T10:08:30Z</time>
      </trkpt>
      <trkpt lat="40.3313610" lon="-4.0082730">
        <ele>594.0</ele>
        <time>2021-02-28T10:08:34Z</time>
      </trkpt>
      <trkpt lat="40.3311550" lon="-4.0085060">
        <ele>594.6</ele>
        <time>2021-02-28T10:08:39Z</time>
      </trkpt>
      <trkpt lat="40.3310820" lon="-4.0085780">
        <ele>594.8</ele>
        <time>2021-02-28T10:08:41Z</time>
      </trkpt>
      <trkpt lat="40.3310500" lon="-4.0085690">
        <ele>595.0</ele>
        <time>2021-02-28T10:08:42Z</time>
      </trkpt>
      <trkpt lat="40.3310290" lon="-4.0085350">
        <ele>595.4</ele>
        <time>2021-02-28T10:08:43Z</time>
      </trkpt>
      <trkpt lat="40.3310020" lon="-4.0084470">
        <ele>596.0</ele>
        <time>2021-02-28T10:08:45Z</time>
      </trkpt>
      <trkpt lat="40.3309660" lon="-4.0083460">
        <ele>596.0</ele>
        <time>2021-02-28T10:08:47Z</time>
      </trkpt>
      <trkpt lat="40.3308840" lon="-4.0081990">
        <ele>596.2</ele>
        <time>2021-02-28T10:08:50Z</time>
      </trkpt>
      <trkpt lat="40.3308590" lon="-4.0081410">
        <ele>596.2</ele>
        <time>2021-02-28T10:08:51Z</time>
      </trkpt>
      <trkpt lat="40.3308330" lon="-4.0080850">
        <ele>596.2</ele>
        <time>2021-02-28T10:08:52Z</time>
      </trkpt>
      <trkpt lat="40.3307990" lon="-4.0080340">
        <ele>596.2</ele>
        <time>2021-02-28T10:08:53Z</time>
      </trkpt>
      <trkpt lat="40.3307370" lon="-4.0079270">
        <ele>595.8</ele>
        <time>2021-02-28T10:08:55Z</time>
      </trkpt>
      <trkpt lat="40.3306700" lon="-4.0078220">
        <ele>595.0</ele>
        <time>2021-02-28T10:08:57Z</time>
      </trkpt>
      <trkpt lat="40.3306390" lon="-4.0077700">
        <ele>594.8</ele>
        <time>2021-02-28T10:08:58Z</time>
      </trkpt>
      <trkpt lat="40.3306080" lon="-4.0077170">
        <ele>595.0</ele>
        <time>2021-02-28T10:08:59Z</time>
      </trkpt>
      <trkpt lat="40.3305050" lon="-4.0075500">
        <ele>593.8</ele>
        <time>2021-02-28T10:09:02Z</time>
      </trkpt>
      <trkpt lat="40.3304650" lon="-4.0074870">
        <ele>593.0</ele>
        <time>2021-02-28T10:09:03Z</time>
      </trkpt>
      <trkpt lat="40.3304200" lon="-4.0074250">
        <ele>592.6</ele>
        <time>2021-02-28T10:09:04Z</time>
      </trkpt>
      <trkpt lat="40.3303190" lon="-4.0072960">
        <ele>591.8</ele>
        <time>2021-02-28T10:09:06Z</time>
      </trkpt>
      <trkpt lat="40.3302670" lon="-4.0072100">
        <ele>590.8</ele>
        <time>2021-02-28T10:09:07Z</time>
      </trkpt>
      <trkpt lat="40.3302200" lon="-4.0071250">
        <ele>590.4</ele>
        <time>2021-02-28T10:09:08Z</time>
      </trkpt>
      <trkpt lat="40.3301840" lon="-4.0070310">
        <ele>589.4</ele>
        <time>2021-02-28T10:09:09Z</time>
      </trkpt>
      <trkpt lat="40.3301430" lon="-4.0069620">
        <ele>587.4</ele>
        <time>2021-02-28T10:09:10Z</time>
      </trkpt>
      <trkpt lat="40.3301100" lon="-4.0069140">
        <ele>586.6</ele>
        <time>2021-02-28T10:09:11Z</time>
      </trkpt>
      <trkpt lat="40.3300700" lon="-4.0069030">
        <ele>586.0</ele>
        <time>2021-02-28T10:09:12Z</time>
      </trkpt>
      <trkpt lat="40.3300320" lon="-4.0069200">
        <ele>585.8</ele>
        <time>2021-02-28T10:09:13Z</time>
      </trkpt>
      <trkpt lat="40.3299880" lon="-4.0069230">
        <ele>585.6</ele>
        <time>2021-02-28T10:09:14Z</time>
      </trkpt>
      <trkpt lat="40.3299330" lon="-4.0068680">
        <ele>585.2</ele>
        <time>2021-02-28T10:09:16Z</time>
      </trkpt>
      <trkpt lat="40.3299160" lon="-4.0068310">
        <ele>585.2</ele>
        <time>2021-02-28T10:09:17Z</time>
      </trkpt>
      <trkpt lat="40.3299320" lon="-4.0067180">
        <ele>585.8</ele>
        <time>2021-02-28T10:09:20Z</time>
      </trkpt>
      <trkpt lat="40.3298990" lon="-4.0066110">
        <ele>586.2</ele>
        <time>2021-02-28T10:09:23Z</time>
      </trkpt>
      <trkpt lat="40.3298580" lon="-4.0065070">
        <ele>587.4</ele>
        <time>2021-02-28T10:09:26Z</time>
      </trkpt>
      <trkpt lat="40.3298280" lon="-4.0063950">
        <ele>588.6</ele>
        <time>2021-02-28T10:09:29Z</time>
      </trkpt>
      <trkpt lat="40.3298200" lon="-4.0063550">
        <ele>589.0</ele>
        <time>2021-02-28T10:09:30Z</time>
      </trkpt>
      <trkpt lat="40.3297880" lon="-4.0062520">
        <ele>589.8</ele>
        <time>2021-02-28T10:09:33Z</time>
      </trkpt>
      <trkpt lat="40.3297620" lon="-4.0061840">
        <ele>591.4</ele>
        <time>2021-02-28T10:09:35Z</time>
      </trkpt>
      <trkpt lat="40.3297150" lon="-4.0061460">
        <ele>592.2</ele>
        <time>2021-02-28T10:09:37Z</time>
      </trkpt>
      <trkpt lat="40.3296960" lon="-4.0061310">
        <ele>592.4</ele>
        <time>2021-02-28T10:09:38Z</time>
      </trkpt>
      <trkpt lat="40.3296880" lon="-4.0060830">
        <ele>592.6</ele>
        <time>2021-02-28T10:09:40Z</time>
      </trkpt>
      <trkpt lat="40.3297100" lon="-4.0060610">
        <ele>592.8</ele>
        <time>2021-02-28T10:09:41Z</time>
      </trkpt>
      <trkpt lat="40.3297870" lon="-4.0059620">
        <ele>593.0</ele>
        <time>2021-02-28T10:09:44Z</time>
      </trkpt>
      <trkpt lat="40.3298330" lon="-4.0058820">
        <ele>593.2</ele>
        <time>2021-02-28T10:09:46Z</time>
      </trkpt>
      <trkpt lat="40.3298550" lon="-4.0058400">
        <ele>593.4</ele>
        <time>2021-02-28T10:09:47Z</time>
      </trkpt>
      <trkpt lat="40.3300140" lon="-4.0055280">
        <ele>593.8</ele>
        <time>2021-02-28T10:09:54Z</time>
      </trkpt>
      <trkpt lat="40.3301300" lon="-4.0052820">
        <ele>593.8</ele>
        <time>2021-02-28T10:09:59Z</time>
      </trkpt>
      <trkpt lat="40.3301870" lon="-4.0051100">
        <ele>593.6</ele>
        <time>2021-02-28T10:10:02Z</time>
      </trkpt>
      <trkpt lat="40.3302610" lon="-4.0047950">
        <ele>593.6</ele>
        <time>2021-02-28T10:10:08Z</time>
      </trkpt>
      <trkpt lat="40.3304030" lon="-4.0044390">
        <ele>592.4</ele>
        <time>2021-02-28T10:10:15Z</time>
      </trkpt>
      <trkpt lat="40.3304210" lon="-4.0043830">
        <ele>592.2</ele>
        <time>2021-02-28T10:10:16Z</time>
      </trkpt>
      <trkpt lat="40.3304420" lon="-4.0043290">
        <ele>592.0</ele>
        <time>2021-02-28T10:10:17Z</time>
      </trkpt>
      <trkpt lat="40.3304920" lon="-4.0042180">
        <ele>591.8</ele>
        <time>2021-02-28T10:10:19Z</time>
      </trkpt>
      <trkpt lat="40.3305530" lon="-4.0041000">
        <ele>591.2</ele>
        <time>2021-02-28T10:10:21Z</time>
      </trkpt>
      <trkpt lat="40.3305850" lon="-4.0040400">
        <ele>591.0</ele>
        <time>2021-02-28T10:10:22Z</time>
      </trkpt>
      <trkpt lat="40.3306510" lon="-4.0039180">
        <ele>590.6</ele>
        <time>2021-02-28T10:10:24Z</time>
      </trkpt>
      <trkpt lat="40.3306730" lon="-4.0037860">
        <ele>590.0</ele>
        <time>2021-02-28T10:10:26Z</time>
      </trkpt>
      <trkpt lat="40.3306570" lon="-4.0037190">
        <ele>589.6</ele>
        <time>2021-02-28T10:10:27Z</time>
      </trkpt>
      <trkpt lat="40.3305850" lon="-4.0036180">
        <ele>589.2</ele>
        <time>2021-02-28T10:10:29Z</time>
      </trkpt>
      <trkpt lat="40.3305510" lon="-4.0035710">
        <ele>589.0</ele>
        <time>2021-02-28T10:10:30Z</time>
      </trkpt>
      <trkpt lat="40.3305070" lon="-4.0034700">
        <ele>588.6</ele>
        <time>2021-02-28T10:10:32Z</time>
      </trkpt>
      <trkpt lat="40.3304840" lon="-4.0034190">
        <ele>588.6</ele>
        <time>2021-02-28T10:10:33Z</time>
      </trkpt>
      <trkpt lat="40.3303720" lon="-4.0032810">
        <ele>587.4</ele>
        <time>2021-02-28T10:10:36Z</time>
      </trkpt>
      <trkpt lat="40.3303410" lon="-4.0032280">
        <ele>586.6</ele>
        <time>2021-02-28T10:10:37Z</time>
      </trkpt>
      <trkpt lat="40.3303120" lon="-4.0031710">
        <ele>586.0</ele>
        <time>2021-02-28T10:10:38Z</time>
      </trkpt>
      <trkpt lat="40.3302450" lon="-4.0030550">
        <ele>585.0</ele>
        <time>2021-02-28T10:10:40Z</time>
      </trkpt>
      <trkpt lat="40.3301930" lon="-4.0030150">
        <ele>584.2</ele>
        <time>2021-02-28T10:10:41Z</time>
      </trkpt>
      <trkpt lat="40.3301450" lon="-4.0029690">
        <ele>583.4</ele>
        <time>2021-02-28T10:10:42Z</time>
      </trkpt>
      <trkpt lat="40.3300620" lon="-4.0028560">
        <ele>582.0</ele>
        <time>2021-02-28T10:10:44Z</time>
      </trkpt>
      <trkpt lat="40.3300290" lon="-4.0027730">
        <ele>581.4</ele>
        <time>2021-02-28T10:10:45Z</time>
      </trkpt>
      <trkpt lat="40.3299820" lon="-4.0026870">
        <ele>579.6</ele>
        <time>2021-02-28T10:10:46Z</time>
      </trkpt>
      <trkpt lat="40.3298830" lon="-4.0025280">
        <ele>578.4</ele>
        <time>2021-02-28T10:10:48Z</time>
      </trkpt>
      <trkpt lat="40.3297450" lon="-4.0023300">
        <ele>578.0</ele>
        <time>2021-02-28T10:10:51Z</time>
      </trkpt>
      <trkpt lat="40.3296140" lon="-4.0022150">
        <ele>577.6</ele>
        <time>2021-02-28T10:10:54Z</time>
      </trkpt>
      <trkpt lat="40.3295820" lon="-4.0021720">
        <ele>577.4</ele>
        <time>2021-02-28T10:10:55Z</time>
      </trkpt>
      <trkpt lat="40.3294860" lon="-4.0020270">
        <ele>578.4</ele>
        <time>2021-02-28T10:10:59Z</time>
      </trkpt>
      <trkpt lat="40.3294570" lon="-4.0020120">
        <ele>578.6</ele>
        <time>2021-02-28T10:11:00Z</time>
      </trkpt>
      <trkpt lat="40.3293830" lon="-4.0019730">
        <ele>579.4</ele>
        <time>2021-02-28T10:11:03Z</time>
      </trkpt>
      <trkpt lat="40.3293350" lon="-4.0019460">
        <ele>579.6</ele>
        <time>2021-02-28T10:11:06Z</time>
      </trkpt>
      <trkpt lat="40.3292680" lon="-4.0018840">
        <ele>580.4</ele>
        <time>2021-02-28T10:11:10Z</time>
      </trkpt>
      <trkpt lat="40.3292490" lon="-4.0018600">
        <ele>580.6</ele>
        <time>2021-02-28T10:11:11Z</time>
      </trkpt>
      <trkpt lat="40.3292010" lon="-4.0017830">
        <ele>581.6</ele>
        <time>2021-02-28T10:11:14Z</time>
      </trkpt>
      <trkpt lat="40.3291690" lon="-4.0016980">
        <ele>582.8</ele>
        <time>2021-02-28T10:11:17Z</time>
      </trkpt>
      <trkpt lat="40.3291510" lon="-4.0016550">
        <ele>584.2</ele>
        <time>2021-02-28T10:11:19Z</time>
      </trkpt>
      <trkpt lat="40.3291320" lon="-4.0016300">
        <ele>585.0</ele>
        <time>2021-02-28T10:11:21Z</time>
      </trkpt>
      <trkpt lat="40.3291330" lon="-4.0016310">
        <ele>585.2</ele>
        <time>2021-02-28T10:11:22Z</time>
      </trkpt>
      <trkpt lat="40.3290050" lon="-4.0014050">
        <ele>590.0</ele>
        <time>2021-02-28T10:13:16Z</time>
      </trkpt>
      <trkpt lat="40.3289990" lon="-4.0013820">
        <ele>590.2</ele>
        <time>2021-02-28T10:13:17Z</time>
      </trkpt>
      <trkpt lat="40.3289950" lon="-4.0013530">
        <ele>590.4</ele>
        <time>2021-02-28T10:13:18Z</time>
      </trkpt>
      <trkpt lat="40.3289880" lon="-4.0012830">
        <ele>590.6</ele>
        <time>2021-02-28T10:13:20Z</time>
      </trkpt>
      <trkpt lat="40.3289810" lon="-4.0011740">
        <ele>590.8</ele>
        <time>2021-02-28T10:13:23Z</time>
      </trkpt>
      <trkpt lat="40.3289810" lon="-4.0010660">
        <ele>591.0</ele>
        <time>2021-02-28T10:13:26Z</time>
      </trkpt>
      <trkpt lat="40.3290120" lon="-4.0008600">
        <ele>591.4</ele>
        <time>2021-02-28T10:13:32Z</time>
      </trkpt>
      <trkpt lat="40.3289740" lon="-4.0006930">
        <ele>591.6</ele>
        <time>2021-02-28T10:13:36Z</time>
      </trkpt>
      <trkpt lat="40.3289490" lon="-4.0006160">
        <ele>592.2</ele>
        <time>2021-02-28T10:13:38Z</time>
      </trkpt>
      <trkpt lat="40.3288770" lon="-4.0004690">
        <ele>592.8</ele>
        <time>2021-02-28T10:13:42Z</time>
      </trkpt>
      <trkpt lat="40.3288410" lon="-4.0003910">
        <ele>592.8</ele>
        <time>2021-02-28T10:13:44Z</time>
      </trkpt>
      <trkpt lat="40.3288160" lon="-4.0002460">
        <ele>592.4</ele>
        <time>2021-02-28T10:13:47Z</time>
      </trkpt>
      <trkpt lat="40.3288170" lon="-4.0001900">
        <ele>592.2</ele>
        <time>2021-02-28T10:13:48Z</time>
      </trkpt>
      <trkpt lat="40.3288130" lon="-4.0000050">
        <ele>591.4</ele>
        <time>2021-02-28T10:13:51Z</time>
      </trkpt>
      <trkpt lat="40.3288020" lon="-3.9999370">
        <ele>591.0</ele>
        <time>2021-02-28T10:13:52Z</time>
      </trkpt>
      <trkpt lat="40.3287790" lon="-3.9998720">
        <ele>591.0</ele>
        <time>2021-02-28T10:13:53Z</time>
      </trkpt>
      <trkpt lat="40.3286950" lon="-3.9995980">
        <ele>590.0</ele>
        <time>2021-02-28T10:13:57Z</time>
      </trkpt>
      <trkpt lat="40.3286790" lon="-3.9995140">
        <ele>588.8</ele>
        <time>2021-02-28T10:13:58Z</time>
      </trkpt>
      <trkpt lat="40.3285890" lon="-3.9993220">
        <ele>587.6</ele>
        <time>2021-02-28T10:14:01Z</time>
      </trkpt>
      <trkpt lat="40.3284500" lon="-3.9992830">
        <ele>587.6</ele>
        <time>2021-02-28T10:14:04Z</time>
      </trkpt>
      <trkpt lat="40.3282680" lon="-3.9991770">
        <ele>588.2</ele>
        <time>2021-02-28T10:14:08Z</time>
      </trkpt>
      <trkpt lat="40.3281360" lon="-3.9990740">
        <ele>589.0</ele>
        <time>2021-02-28T10:14:11Z</time>
      </trkpt>
      <trkpt lat="40.3280210" lon="-3.9989950">
        <ele>590.2</ele>
        <time>2021-02-28T10:14:14Z</time>
      </trkpt>
      <trkpt lat="40.3279120" lon="-3.9989340">
        <ele>591.4</ele>
        <time>2021-02-28T10:14:17Z</time>
      </trkpt>
      <trkpt lat="40.3278360" lon="-3.9988670">
        <ele>592.2</ele>
        <time>2021-02-28T10:14:20Z</time>
      </trkpt>
      <trkpt lat="40.3278660" lon="-3.9987850">
        <ele>592.8</ele>
        <time>2021-02-28T10:14:22Z</time>
      </trkpt>
      <trkpt lat="40.3278890" lon="-3.9987340">
        <ele>592.8</ele>
        <time>2021-02-28T10:14:23Z</time>
      </trkpt>
      <trkpt lat="40.3279060" lon="-3.9986780">
        <ele>592.8</ele>
        <time>2021-02-28T10:14:24Z</time>
      </trkpt>
      <trkpt lat="40.3279540" lon="-3.9984370">
        <ele>592.6</ele>
        <time>2021-02-28T10:14:28Z</time>
      </trkpt>
      <trkpt lat="40.3279810" lon="-3.9983100">
        <ele>592.8</ele>
        <time>2021-02-28T10:14:30Z</time>
      </trkpt>
      <trkpt lat="40.3280970" lon="-3.9978670">
        <ele>592.8</ele>
        <time>2021-02-28T10:14:37Z</time>
      </trkpt>
      <trkpt lat="40.3282810" lon="-3.9973140">
        <ele>592.2</ele>
        <time>2021-02-28T10:14:46Z</time>
      </trkpt>
      <trkpt lat="40.3284250" lon="-3.9968860">
        <ele>592.2</ele>
        <time>2021-02-28T10:14:53Z</time>
      </trkpt>
      <trkpt lat="40.3285390" lon="-3.9964330">
        <ele>592.2</ele>
        <time>2021-02-28T10:15:00Z</time>
      </trkpt>
      <trkpt lat="40.3286120" lon="-3.9958110">
        <ele>594.2</ele>
        <time>2021-02-28T10:15:10Z</time>
      </trkpt>
      <trkpt lat="40.3286610" lon="-3.9952180">
        <ele>593.4</ele>
        <time>2021-02-28T10:15:19Z</time>
      </trkpt>
      <trkpt lat="40.3286820" lon="-3.9950750">
        <ele>593.0</ele>
        <time>2021-02-28T10:15:21Z</time>
      </trkpt>
      <trkpt lat="40.3287260" lon="-3.9948410">
        <ele>591.8</ele>
        <time>2021-02-28T10:15:24Z</time>
      </trkpt>
      <trkpt lat="40.3287420" lon="-3.9947630">
        <ele>591.2</ele>
        <time>2021-02-28T10:15:25Z</time>
      </trkpt>
      <trkpt lat="40.3287590" lon="-3.9946880">
        <ele>590.6</ele>
        <time>2021-02-28T10:15:26Z</time>
      </trkpt>
      <trkpt lat="40.3288270" lon="-3.9943980">
        <ele>589.4</ele>
        <time>2021-02-28T10:15:30Z</time>
      </trkpt>
      <trkpt lat="40.3288880" lon="-3.9941650">
        <ele>588.8</ele>
        <time>2021-02-28T10:15:33Z</time>
      </trkpt>
      <trkpt lat="40.3289060" lon="-3.9940810">
        <ele>588.4</ele>
        <time>2021-02-28T10:15:34Z</time>
      </trkpt>
      <trkpt lat="40.3290230" lon="-3.9935940">
        <ele>588.2</ele>
        <time>2021-02-28T10:15:40Z</time>
      </trkpt>
      <trkpt lat="40.3291030" lon="-3.9933370">
        <ele>589.6</ele>
        <time>2021-02-28T10:15:44Z</time>
      </trkpt>
      <trkpt lat="40.3291430" lon="-3.9932290">
        <ele>590.0</ele>
        <time>2021-02-28T10:15:46Z</time>
      </trkpt>
      <trkpt lat="40.3292280" lon="-3.9930210">
        <ele>590.6</ele>
        <time>2021-02-28T10:15:50Z</time>
      </trkpt>
      <trkpt lat="40.3293250" lon="-3.9928120">
        <ele>590.8</ele>
        <time>2021-02-28T10:15:54Z</time>
      </trkpt>
      <trkpt lat="40.3295160" lon="-3.9924980">
        <ele>589.6</ele>
        <time>2021-02-28T10:16:00Z</time>
      </trkpt>
      <trkpt lat="40.3295560" lon="-3.9924500">
        <ele>589.4</ele>
        <time>2021-02-28T10:16:01Z</time>
      </trkpt>
      <trkpt lat="40.3298270" lon="-3.9921910">
        <ele>589.0</ele>
        <time>2021-02-28T10:16:07Z</time>
      </trkpt>
      <trkpt lat="40.3298690" lon="-3.9921410">
        <ele>589.0</ele>
        <time>2021-02-28T10:16:08Z</time>
      </trkpt>
      <trkpt lat="40.3300350" lon="-3.9919430">
        <ele>588.4</ele>
        <time>2021-02-28T10:16:12Z</time>
      </trkpt>
      <trkpt lat="40.3300790" lon="-3.9918970">
        <ele>588.4</ele>
        <time>2021-02-28T10:16:13Z</time>
      </trkpt>
      <trkpt lat="40.3303220" lon="-3.9917110">
        <ele>587.8</ele>
        <time>2021-02-28T10:16:18Z</time>
      </trkpt>
      <trkpt lat="40.3303750" lon="-3.9916900">
        <ele>587.8</ele>
        <time>2021-02-28T10:16:19Z</time>
      </trkpt>
      <trkpt lat="40.3307780" lon="-3.9915460">
        <ele>588.6</ele>
        <time>2021-02-28T10:16:27Z</time>
      </trkpt>
      <trkpt lat="40.3310660" lon="-3.9914320">
        <ele>589.6</ele>
        <time>2021-02-28T10:16:33Z</time>
      </trkpt>
      <trkpt lat="40.3312570" lon="-3.9913510">
        <ele>589.4</ele>
        <time>2021-02-28T10:16:37Z</time>
      </trkpt>
      <trkpt lat="40.3315300" lon="-3.9912680">
        <ele>588.4</ele>
        <time>2021-02-28T10:16:42Z</time>
      </trkpt>
      <trkpt lat="40.3316490" lon="-3.9912560">
        <ele>588.0</ele>
        <time>2021-02-28T10:16:44Z</time>
      </trkpt>
      <trkpt lat="40.3318830" lon="-3.9912440">
        <ele>587.4</ele>
        <time>2021-02-28T10:16:48Z</time>
      </trkpt>
      <trkpt lat="40.3321160" lon="-3.9912180">
        <ele>586.8</ele>
        <time>2021-02-28T10:16:52Z</time>
      </trkpt>
      <trkpt lat="40.3322760" lon="-3.9911480">
        <ele>586.2</ele>
        <time>2021-02-28T10:16:55Z</time>
      </trkpt>
      <trkpt lat="40.3323820" lon="-3.9910850">
        <ele>586.0</ele>
        <time>2021-02-28T10:16:57Z</time>
      </trkpt>
      <trkpt lat="40.3324820" lon="-3.9910020">
        <ele>585.6</ele>
        <time>2021-02-28T10:16:59Z</time>
      </trkpt>
      <trkpt lat="40.3325620" lon="-3.9908830">
        <ele>585.4</ele>
        <time>2021-02-28T10:17:01Z</time>
      </trkpt>
      <trkpt lat="40.3326400" lon="-3.9905820">
        <ele>585.6</ele>
        <time>2021-02-28T10:17:05Z</time>
      </trkpt>
      <trkpt lat="40.3326890" lon="-3.9902980">
        <ele>586.2</ele>
        <time>2021-02-28T10:17:09Z</time>
      </trkpt>
      <trkpt lat="40.3327370" lon="-3.9901750">
        <ele>586.8</ele>
        <time>2021-02-28T10:17:11Z</time>
      </trkpt>
      <trkpt lat="40.3329120" lon="-3.9897940">
        <ele>586.2</ele>
        <time>2021-02-28T10:17:17Z</time>
      </trkpt>
      <trkpt lat="40.3329370" lon="-3.9897270">
        <ele>586.2</ele>
        <time>2021-02-28T10:17:18Z</time>
      </trkpt>
      <trkpt lat="40.3329830" lon="-3.9895250">
        <ele>586.6</ele>
        <time>2021-02-28T10:17:21Z</time>
      </trkpt>
      <trkpt lat="40.3330090" lon="-3.9893190">
        <ele>586.8</ele>
        <time>2021-02-28T10:17:24Z</time>
      </trkpt>
      <trkpt lat="40.3330150" lon="-3.9888590">
        <ele>585.4</ele>
        <time>2021-02-28T10:17:30Z</time>
      </trkpt>
      <trkpt lat="40.3330100" lon="-3.9887800">
        <ele>585.0</ele>
        <time>2021-02-28T10:17:31Z</time>
      </trkpt>
      <trkpt lat="40.3330080" lon="-3.9884760">
        <ele>584.2</ele>
        <time>2021-02-28T10:17:35Z</time>
      </trkpt>
      <trkpt lat="40.3330350" lon="-3.9883310">
        <ele>584.0</ele>
        <time>2021-02-28T10:17:37Z</time>
      </trkpt>
      <trkpt lat="40.3331100" lon="-3.9881300">
        <ele>583.8</ele>
        <time>2021-02-28T10:17:40Z</time>
      </trkpt>
      <trkpt lat="40.3331440" lon="-3.9880670">
        <ele>583.6</ele>
        <time>2021-02-28T10:17:41Z</time>
      </trkpt>
      <trkpt lat="40.3331780" lon="-3.9880060">
        <ele>583.6</ele>
        <time>2021-02-28T10:17:42Z</time>
      </trkpt>
      <trkpt lat="40.3333570" lon="-3.9876240">
        <ele>583.2</ele>
        <time>2021-02-28T10:17:48Z</time>
      </trkpt>
      <trkpt lat="40.3333810" lon="-3.9875560">
        <ele>583.0</ele>
        <time>2021-02-28T10:17:49Z</time>
      </trkpt>
      <trkpt lat="40.3333990" lon="-3.9874860">
        <ele>582.8</ele>
        <time>2021-02-28T10:17:50Z</time>
      </trkpt>
      <trkpt lat="40.3334720" lon="-3.9870440">
        <ele>582.4</ele>
        <time>2021-02-28T10:17:56Z</time>
      </trkpt>
      <trkpt lat="40.3335900" lon="-3.9865530">
        <ele>582.4</ele>
        <time>2021-02-28T10:18:03Z</time>
      </trkpt>
      <trkpt lat="40.3337280" lon="-3.9863270">
        <ele>582.4</ele>
        <time>2021-02-28T10:18:07Z</time>
      </trkpt>
      <trkpt lat="40.3339410" lon="-3.9859360">
        <ele>583.2</ele>
        <time>2021-02-28T10:18:14Z</time>
      </trkpt>
      <trkpt lat="40.3341420" lon="-3.9854570">
        <ele>583.6</ele>
        <time>2021-02-28T10:18:22Z</time>
      </trkpt>
      <trkpt lat="40.3342750" lon="-3.9850160">
        <ele>583.2</ele>
        <time>2021-02-28T10:18:29Z</time>
      </trkpt>
      <trkpt lat="40.3343880" lon="-3.9846040">
        <ele>584.0</ele>
        <time>2021-02-28T10:18:36Z</time>
      </trkpt>
      <trkpt lat="40.3345320" lon="-3.9840900">
        <ele>584.6</ele>
        <time>2021-02-28T10:18:45Z</time>
      </trkpt>
      <trkpt lat="40.3345960" lon="-3.9838490">
        <ele>584.2</ele>
        <time>2021-02-28T10:18:49Z</time>
      </trkpt>
      <trkpt lat="40.3346600" lon="-3.9836750">
        <ele>584.2</ele>
        <time>2021-02-28T10:18:52Z</time>
      </trkpt>
      <trkpt lat="40.3348420" lon="-3.9832740">
        <ele>584.0</ele>
        <time>2021-02-28T10:18:59Z</time>
      </trkpt>
      <trkpt lat="40.3348830" lon="-3.9832230">
        <ele>583.8</ele>
        <time>2021-02-28T10:19:00Z</time>
      </trkpt>
      <trkpt lat="40.3350760" lon="-3.9829070">
        <ele>583.0</ele>
        <time>2021-02-28T10:19:05Z</time>
      </trkpt>
      <trkpt lat="40.3351070" lon="-3.9828290">
        <ele>582.8</ele>
        <time>2021-02-28T10:19:06Z</time>
      </trkpt>
      <trkpt lat="40.3351640" lon="-3.9825640">
        <ele>582.0</ele>
        <time>2021-02-28T10:19:09Z</time>
      </trkpt>
      <trkpt lat="40.3351680" lon="-3.9824700">
        <ele>581.6</ele>
        <time>2021-02-28T10:19:10Z</time>
      </trkpt>
      <trkpt lat="40.3351610" lon="-3.9822880">
        <ele>581.0</ele>
        <time>2021-02-28T10:19:12Z</time>
      </trkpt>
      <trkpt lat="40.3351630" lon="-3.9821980">
        <ele>580.8</ele>
        <time>2021-02-28T10:19:13Z</time>
      </trkpt>
      <trkpt lat="40.3351720" lon="-3.9821100">
        <ele>580.6</ele>
        <time>2021-02-28T10:19:14Z</time>
      </trkpt>
      <trkpt lat="40.3352430" lon="-3.9818670">
        <ele>579.8</ele>
        <time>2021-02-28T10:19:17Z</time>
      </trkpt>
      <trkpt lat="40.3353580" lon="-3.9816670">
        <ele>579.6</ele>
        <time>2021-02-28T10:19:20Z</time>
      </trkpt>
      <trkpt lat="40.3354330" lon="-3.9815390">
        <ele>579.6</ele>
        <time>2021-02-28T10:19:22Z</time>
      </trkpt>
      <trkpt lat="40.3354690" lon="-3.9814710">
        <ele>579.4</ele>
        <time>2021-02-28T10:19:23Z</time>
      </trkpt>
      <trkpt lat="40.3356260" lon="-3.9811160">
        <ele>578.6</ele>
        <time>2021-02-28T10:19:28Z</time>
      </trkpt>
      <trkpt lat="40.3356680" lon="-3.9810540">
        <ele>578.4</ele>
        <time>2021-02-28T10:19:29Z</time>
      </trkpt>
      <trkpt lat="40.3357740" lon="-3.9809760">
        <ele>578.4</ele>
        <time>2021-02-28T10:19:31Z</time>
      </trkpt>
      <trkpt lat="40.3359410" lon="-3.9808790">
        <ele>579.0</ele>
        <time>2021-02-28T10:19:34Z</time>
      </trkpt>
      <trkpt lat="40.3360390" lon="-3.9807880">
        <ele>579.0</ele>
        <time>2021-02-28T10:19:36Z</time>
      </trkpt>
      <trkpt lat="40.3361350" lon="-3.9806920">
        <ele>579.0</ele>
        <time>2021-02-28T10:19:38Z</time>
      </trkpt>
      <trkpt lat="40.3363180" lon="-3.9804830">
        <ele>579.0</ele>
        <time>2021-02-28T10:19:42Z</time>
      </trkpt>
      <trkpt lat="40.3366330" lon="-3.9801000">
        <ele>578.8</ele>
        <time>2021-02-28T10:19:49Z</time>
      </trkpt>
      <trkpt lat="40.3367720" lon="-3.9799280">
        <ele>578.4</ele>
        <time>2021-02-28T10:19:52Z</time>
      </trkpt>
      <trkpt lat="40.3369180" lon="-3.9797600">
        <ele>578.2</ele>
        <time>2021-02-28T10:19:55Z</time>
      </trkpt>
      <trkpt lat="40.3370200" lon="-3.9796530">
        <ele>577.8</ele>
        <time>2021-02-28T10:19:57Z</time>
      </trkpt>
      <trkpt lat="40.3371400" lon="-3.9793750">
        <ele>577.8</ele>
        <time>2021-02-28T10:20:01Z</time>
      </trkpt>
      <trkpt lat="40.3372870" lon="-3.9789160">
        <ele>578.2</ele>
        <time>2021-02-28T10:20:08Z</time>
      </trkpt>
      <trkpt lat="40.3375010" lon="-3.9783740">
        <ele>579.4</ele>
        <time>2021-02-28T10:20:17Z</time>
      </trkpt>
      <trkpt lat="40.3375500" lon="-3.9782480">
        <ele>579.6</ele>
        <time>2021-02-28T10:20:19Z</time>
      </trkpt>
      <trkpt lat="40.3376450" lon="-3.9779880">
        <ele>578.8</ele>
        <time>2021-02-28T10:20:23Z</time>
      </trkpt>
      <trkpt lat="40.3376760" lon="-3.9779220">
        <ele>578.6</ele>
        <time>2021-02-28T10:20:24Z</time>
      </trkpt>
      <trkpt lat="40.3377760" lon="-3.9777270">
        <ele>577.8</ele>
        <time>2021-02-28T10:20:27Z</time>
      </trkpt>
      <trkpt lat="40.3378180" lon="-3.9776680">
        <ele>577.2</ele>
        <time>2021-02-28T10:20:28Z</time>
      </trkpt>
      <trkpt lat="40.3378560" lon="-3.9776070">
        <ele>576.8</ele>
        <time>2021-02-28T10:20:29Z</time>
      </trkpt>
      <trkpt lat="40.3379650" lon="-3.9774130">
        <ele>576.0</ele>
        <time>2021-02-28T10:20:32Z</time>
      </trkpt>
      <trkpt lat="40.3380390" lon="-3.9772760">
        <ele>575.8</ele>
        <time>2021-02-28T10:20:34Z</time>
      </trkpt>
      <trkpt lat="40.3380830" lon="-3.9772080">
        <ele>575.6</ele>
        <time>2021-02-28T10:20:35Z</time>
      </trkpt>
      <trkpt lat="40.3381720" lon="-3.9770660">
        <ele>575.0</ele>
        <time>2021-02-28T10:20:37Z</time>
      </trkpt>
      <trkpt lat="40.3383520" lon="-3.9767610">
        <ele>574.2</ele>
        <time>2021-02-28T10:20:41Z</time>
      </trkpt>
      <trkpt lat="40.3384320" lon="-3.9765960">
        <ele>573.8</ele>
        <time>2021-02-28T10:20:43Z</time>
      </trkpt>
      <trkpt lat="40.3385250" lon="-3.9763430">
        <ele>573.0</ele>
        <time>2021-02-28T10:20:46Z</time>
      </trkpt>
      <trkpt lat="40.3385800" lon="-3.9760790">
        <ele>572.6</ele>
        <time>2021-02-28T10:20:49Z</time>
      </trkpt>
      <trkpt lat="40.3385860" lon="-3.9758890">
        <ele>572.0</ele>
        <time>2021-02-28T10:20:51Z</time>
      </trkpt>
      <trkpt lat="40.3386330" lon="-3.9752420">
        <ele>571.8</ele>
        <time>2021-02-28T10:20:58Z</time>
      </trkpt>
      <trkpt lat="40.3386740" lon="-3.9748880">
        <ele>571.6</ele>
        <time>2021-02-28T10:21:02Z</time>
      </trkpt>
      <trkpt lat="40.3386930" lon="-3.9746320">
        <ele>571.8</ele>
        <time>2021-02-28T10:21:05Z</time>
      </trkpt>
      <trkpt lat="40.3386630" lon="-3.9741390">
        <ele>571.0</ele>
        <time>2021-02-28T10:21:11Z</time>
      </trkpt>
      <trkpt lat="40.3385560" lon="-3.9735060">
        <ele>570.8</ele>
        <time>2021-02-28T10:21:19Z</time>
      </trkpt>
      <trkpt lat="40.3385290" lon="-3.9733410">
        <ele>570.4</ele>
        <time>2021-02-28T10:21:21Z</time>
      </trkpt>
      <trkpt lat="40.3385120" lon="-3.9729150">
        <ele>569.4</ele>
        <time>2021-02-28T10:21:26Z</time>
      </trkpt>
      <trkpt lat="40.3384910" lon="-3.9725690">
        <ele>568.6</ele>
        <time>2021-02-28T10:21:31Z</time>
      </trkpt>
      <trkpt lat="40.3384740" lon="-3.9723630">
        <ele>568.6</ele>
        <time>2021-02-28T10:21:34Z</time>
      </trkpt>
      <trkpt lat="40.3384710" lon="-3.9722100">
        <ele>568.8</ele>
        <time>2021-02-28T10:21:36Z</time>
      </trkpt>
      <trkpt lat="40.3385300" lon="-3.9718990">
        <ele>568.6</ele>
        <time>2021-02-28T10:21:40Z</time>
      </trkpt>
      <trkpt lat="40.3385520" lon="-3.9718250">
        <ele>568.6</ele>
        <time>2021-02-28T10:21:41Z</time>
      </trkpt>
      <trkpt lat="40.3387070" lon="-3.9714720">
        <ele>568.2</ele>
        <time>2021-02-28T10:21:46Z</time>
      </trkpt>
      <trkpt lat="40.3387390" lon="-3.9714010">
        <ele>567.8</ele>
        <time>2021-02-28T10:21:47Z</time>
      </trkpt>
      <trkpt lat="40.3387870" lon="-3.9712480">
        <ele>567.6</ele>
        <time>2021-02-28T10:21:49Z</time>
      </trkpt>
      <trkpt lat="40.3388110" lon="-3.9710880">
        <ele>566.8</ele>
        <time>2021-02-28T10:21:51Z</time>
      </trkpt>
      <trkpt lat="40.3388490" lon="-3.9709350">
        <ele>566.4</ele>
        <time>2021-02-28T10:21:53Z</time>
      </trkpt>
      <trkpt lat="40.3389000" lon="-3.9706310">
        <ele>565.8</ele>
        <time>2021-02-28T10:21:57Z</time>
      </trkpt>
      <trkpt lat="40.3389200" lon="-3.9704760">
        <ele>565.6</ele>
        <time>2021-02-28T10:21:59Z</time>
      </trkpt>
      <trkpt lat="40.3389550" lon="-3.9700860">
        <ele>565.6</ele>
        <time>2021-02-28T10:22:04Z</time>
      </trkpt>
      <trkpt lat="40.3389690" lon="-3.9699310">
        <ele>565.8</ele>
        <time>2021-02-28T10:22:06Z</time>
      </trkpt>
      <trkpt lat="40.3389510" lon="-3.9698020">
        <ele>565.6</ele>
        <time>2021-02-28T10:22:08Z</time>
      </trkpt>
      <trkpt lat="40.3389440" lon="-3.9696720">
        <ele>565.0</ele>
        <time>2021-02-28T10:22:10Z</time>
      </trkpt>
      <trkpt lat="40.3389650" lon="-3.9695240">
        <ele>564.4</ele>
        <time>2021-02-28T10:22:12Z</time>
      </trkpt>
      <trkpt lat="40.3390040" lon="-3.9693690">
        <ele>564.0</ele>
        <time>2021-02-28T10:22:14Z</time>
      </trkpt>
      <trkpt lat="40.3391090" lon="-3.9690660">
        <ele>563.6</ele>
        <time>2021-02-28T10:22:18Z</time>
      </trkpt>
      <trkpt lat="40.3391700" lon="-3.9689180">
        <ele>563.4</ele>
        <time>2021-02-28T10:22:20Z</time>
      </trkpt>
      <trkpt lat="40.3393520" lon="-3.9684590">
        <ele>562.6</ele>
        <time>2021-02-28T10:22:26Z</time>
      </trkpt>
      <trkpt lat="40.3395270" lon="-3.9681600">
        <ele>563.8</ele>
        <time>2021-02-28T10:22:31Z</time>
      </trkpt>
      <trkpt lat="40.3397020" lon="-3.9679120">
        <ele>563.4</ele>
        <time>2021-02-28T10:22:35Z</time>
      </trkpt>
      <trkpt lat="40.3397740" lon="-3.9677530">
        <ele>562.2</ele>
        <time>2021-02-28T10:22:37Z</time>
      </trkpt>
      <trkpt lat="40.3399800" lon="-3.9673080">
        <ele>561.0</ele>
        <time>2021-02-28T10:22:43Z</time>
      </trkpt>
      <trkpt lat="40.3400200" lon="-3.9672370">
        <ele>561.0</ele>
        <time>2021-02-28T10:22:44Z</time>
      </trkpt>
      <trkpt lat="40.3402600" lon="-3.9668640">
        <ele>560.8</ele>
        <time>2021-02-28T10:22:50Z</time>
      </trkpt>
      <trkpt lat="40.3404480" lon="-3.9665830">
        <ele>562.2</ele>
        <time>2021-02-28T10:22:56Z</time>
      </trkpt>
      <trkpt lat="40.3404800" lon="-3.9665400">
        <ele>562.6</ele>
        <time>2021-02-28T10:22:57Z</time>
      </trkpt>
      <trkpt lat="40.3405150" lon="-3.9664990">
        <ele>563.0</ele>
        <time>2021-02-28T10:22:58Z</time>
      </trkpt>
      <trkpt lat="40.3406680" lon="-3.9663380">
        <ele>563.4</ele>
        <time>2021-02-28T10:23:02Z</time>
      </trkpt>
      <trkpt lat="40.3407980" lon="-3.9662200">
        <ele>564.6</ele>
        <time>2021-02-28T10:23:05Z</time>
      </trkpt>
      <trkpt lat="40.3408850" lon="-3.9661460">
        <ele>565.8</ele>
        <time>2021-02-28T10:23:07Z</time>
      </trkpt>
      <trkpt lat="40.3409730" lon="-3.9660710">
        <ele>566.0</ele>
        <time>2021-02-28T10:23:09Z</time>
      </trkpt>
      <trkpt lat="40.3411630" lon="-3.9659180">
        <ele>566.0</ele>
        <time>2021-02-28T10:23:13Z</time>
      </trkpt>
      <trkpt lat="40.3412610" lon="-3.9658410">
        <ele>566.2</ele>
        <time>2021-02-28T10:23:15Z</time>
      </trkpt>
      <trkpt lat="40.3416580" lon="-3.9655780">
        <ele>566.0</ele>
        <time>2021-02-28T10:23:23Z</time>
      </trkpt>
      <trkpt lat="40.3421380" lon="-3.9653730">
        <ele>565.8</ele>
        <time>2021-02-28T10:23:32Z</time>
      </trkpt>
      <trkpt lat="40.3423180" lon="-3.9653420">
        <ele>564.6</ele>
        <time>2021-02-28T10:23:35Z</time>
      </trkpt>
      <trkpt lat="40.3425070" lon="-3.9653180">
        <ele>563.6</ele>
        <time>2021-02-28T10:23:38Z</time>
      </trkpt>
      <trkpt lat="40.3426350" lon="-3.9652790">
        <ele>563.0</ele>
        <time>2021-02-28T10:23:40Z</time>
      </trkpt>
      <trkpt lat="40.3426930" lon="-3.9652350">
        <ele>562.4</ele>
        <time>2021-02-28T10:23:41Z</time>
      </trkpt>
      <trkpt lat="40.3427440" lon="-3.9651760">
        <ele>562.0</ele>
        <time>2021-02-28T10:23:42Z</time>
      </trkpt>
      <trkpt lat="40.3429340" lon="-3.9649400">
        <ele>561.6</ele>
        <time>2021-02-28T10:23:46Z</time>
      </trkpt>
      <trkpt lat="40.3429840" lon="-3.9648890">
        <ele>561.2</ele>
        <time>2021-02-28T10:23:47Z</time>
      </trkpt>
      <trkpt lat="40.3430420" lon="-3.9648490">
        <ele>561.0</ele>
        <time>2021-02-28T10:23:48Z</time>
      </trkpt>
      <trkpt lat="40.3432320" lon="-3.9648190">
        <ele>560.6</ele>
        <time>2021-02-28T10:23:51Z</time>
      </trkpt>
      <trkpt lat="40.3432950" lon="-3.9648230">
        <ele>560.4</ele>
        <time>2021-02-28T10:23:52Z</time>
      </trkpt>
      <trkpt lat="40.3433600" lon="-3.9648240">
        <ele>559.8</ele>
        <time>2021-02-28T10:23:53Z</time>
      </trkpt>
      <trkpt lat="40.3434270" lon="-3.9648110">
        <ele>559.8</ele>
        <time>2021-02-28T10:23:54Z</time>
      </trkpt>
      <trkpt lat="40.3435620" lon="-3.9647540">
        <ele>559.0</ele>
        <time>2021-02-28T10:23:56Z</time>
      </trkpt>
      <trkpt lat="40.3436140" lon="-3.9647040">
        <ele>558.6</ele>
        <time>2021-02-28T10:23:57Z</time>
      </trkpt>
      <trkpt lat="40.3436500" lon="-3.9645500">
        <ele>557.6</ele>
        <time>2021-02-28T10:23:59Z</time>
      </trkpt>
      <trkpt lat="40.3436430" lon="-3.9644630">
        <ele>557.6</ele>
        <time>2021-02-28T10:24:00Z</time>
      </trkpt>
      <trkpt lat="40.3436760" lon="-3.9642090">
        <ele>557.2</ele>
        <time>2021-02-28T10:24:03Z</time>
      </trkpt>
      <trkpt lat="40.3437680" lon="-3.9638790">
        <ele>556.8</ele>
        <time>2021-02-28T10:24:07Z</time>
      </trkpt>
      <trkpt lat="40.3437900" lon="-3.9637970">
        <ele>556.6</ele>
        <time>2021-02-28T10:24:08Z</time>
      </trkpt>
      <trkpt lat="40.3438100" lon="-3.9637090">
        <ele>556.4</ele>
        <time>2021-02-28T10:24:09Z</time>
      </trkpt>
      <trkpt lat="40.3438140" lon="-3.9636150">
        <ele>556.0</ele>
        <time>2021-02-28T10:24:10Z</time>
      </trkpt>
      <trkpt lat="40.3438060" lon="-3.9635240">
        <ele>555.6</ele>
        <time>2021-02-28T10:24:11Z</time>
      </trkpt>
      <trkpt lat="40.3437410" lon="-3.9632840">
        <ele>555.4</ele>
        <time>2021-02-28T10:24:14Z</time>
      </trkpt>
      <trkpt lat="40.3436950" lon="-3.9629660">
        <ele>555.2</ele>
        <time>2021-02-28T10:24:18Z</time>
      </trkpt>
      <trkpt lat="40.3436950" lon="-3.9628800">
        <ele>555.0</ele>
        <time>2021-02-28T10:24:19Z</time>
      </trkpt>
      <trkpt lat="40.3437430" lon="-3.9626370">
        <ele>555.2</ele>
        <time>2021-02-28T10:24:22Z</time>
      </trkpt>
      <trkpt lat="40.3437550" lon="-3.9625590">
        <ele>554.8</ele>
        <time>2021-02-28T10:24:23Z</time>
      </trkpt>
      <trkpt lat="40.3438010" lon="-3.9623480">
        <ele>555.6</ele>
        <time>2021-02-28T10:24:26Z</time>
      </trkpt>
      <trkpt lat="40.3438610" lon="-3.9622270">
        <ele>555.8</ele>
        <time>2021-02-28T10:24:28Z</time>
      </trkpt>
      <trkpt lat="40.3440390" lon="-3.9619580">
        <ele>555.2</ele>
        <time>2021-02-28T10:24:33Z</time>
      </trkpt>
      <trkpt lat="40.3442030" lon="-3.9618040">
        <ele>554.4</ele>
        <time>2021-02-28T10:24:37Z</time>
      </trkpt>
      <trkpt lat="40.3442410" lon="-3.9617430">
        <ele>554.2</ele>
        <time>2021-02-28T10:24:38Z</time>
      </trkpt>
      <trkpt lat="40.3443110" lon="-3.9616130">
        <ele>554.8</ele>
        <time>2021-02-28T10:24:40Z</time>
      </trkpt>
      <trkpt lat="40.3443670" lon="-3.9614800">
        <ele>555.4</ele>
        <time>2021-02-28T10:24:42Z</time>
      </trkpt>
      <trkpt lat="40.3443920" lon="-3.9614160">
        <ele>555.8</ele>
        <time>2021-02-28T10:24:43Z</time>
      </trkpt>
      <trkpt lat="40.3444200" lon="-3.9613610">
        <ele>556.4</ele>
        <time>2021-02-28T10:24:44Z</time>
      </trkpt>
      <trkpt lat="40.3444520" lon="-3.9613150">
        <ele>556.8</ele>
        <time>2021-02-28T10:24:45Z</time>
      </trkpt>
      <trkpt lat="40.3445230" lon="-3.9612350">
        <ele>557.4</ele>
        <time>2021-02-28T10:24:47Z</time>
      </trkpt>
      <trkpt lat="40.3445600" lon="-3.9611970">
        <ele>557.8</ele>
        <time>2021-02-28T10:24:48Z</time>
      </trkpt>
      <trkpt lat="40.3446610" lon="-3.9610590">
        <ele>557.6</ele>
        <time>2021-02-28T10:24:51Z</time>
      </trkpt>
      <trkpt lat="40.3447380" lon="-3.9609560">
        <ele>557.2</ele>
        <time>2021-02-28T10:24:53Z</time>
      </trkpt>
      <trkpt lat="40.3448310" lon="-3.9608490">
        <ele>556.6</ele>
        <time>2021-02-28T10:24:55Z</time>
      </trkpt>
      <trkpt lat="40.3449370" lon="-3.9607490">
        <ele>555.8</ele>
        <time>2021-02-28T10:24:57Z</time>
      </trkpt>
      <trkpt lat="40.3449950" lon="-3.9607030">
        <ele>555.2</ele>
        <time>2021-02-28T10:24:58Z</time>
      </trkpt>
      <trkpt lat="40.3451140" lon="-3.9606010">
        <ele>554.4</ele>
        <time>2021-02-28T10:25:00Z</time>
      </trkpt>
      <trkpt lat="40.3451730" lon="-3.9605400">
        <ele>554.0</ele>
        <time>2021-02-28T10:25:01Z</time>
      </trkpt>
      <trkpt lat="40.3452930" lon="-3.9604170">
        <ele>553.2</ele>
        <time>2021-02-28T10:25:03Z</time>
      </trkpt>
      <trkpt lat="40.3454140" lon="-3.9603010">
        <ele>553.0</ele>
        <time>2021-02-28T10:25:05Z</time>
      </trkpt>
      <trkpt lat="40.3455190" lon="-3.9601700">
        <ele>552.6</ele>
        <time>2021-02-28T10:25:07Z</time>
      </trkpt>
      <trkpt lat="40.3455640" lon="-3.9600980">
        <ele>552.4</ele>
        <time>2021-02-28T10:25:08Z</time>
      </trkpt>
      <trkpt lat="40.3456560" lon="-3.9599470">
        <ele>551.8</ele>
        <time>2021-02-28T10:25:10Z</time>
      </trkpt>
      <trkpt lat="40.3458080" lon="-3.9597270">
        <ele>550.6</ele>
        <time>2021-02-28T10:25:13Z</time>
      </trkpt>
      <trkpt lat="40.3458680" lon="-3.9596700">
        <ele>550.4</ele>
        <time>2021-02-28T10:25:14Z</time>
      </trkpt>
      <trkpt lat="40.3460650" lon="-3.9595280">
        <ele>549.4</ele>
        <time>2021-02-28T10:25:17Z</time>
      </trkpt>
      <trkpt lat="40.3461220" lon="-3.9594680">
        <ele>549.0</ele>
        <time>2021-02-28T10:25:18Z</time>
      </trkpt>
      <trkpt lat="40.3462290" lon="-3.9593280">
        <ele>548.6</ele>
        <time>2021-02-28T10:25:20Z</time>
      </trkpt>
      <trkpt lat="40.3463880" lon="-3.9591310">
        <ele>548.6</ele>
        <time>2021-02-28T10:25:23Z</time>
      </trkpt>
      <trkpt lat="40.3464440" lon="-3.9590670">
        <ele>548.4</ele>
        <time>2021-02-28T10:25:24Z</time>
      </trkpt>
      <trkpt lat="40.3464910" lon="-3.9589940">
        <ele>548.4</ele>
        <time>2021-02-28T10:25:25Z</time>
      </trkpt>
      <trkpt lat="40.3466130" lon="-3.9587620">
        <ele>548.4</ele>
        <time>2021-02-28T10:25:28Z</time>
      </trkpt>
      <trkpt lat="40.3467880" lon="-3.9586040">
        <ele>548.2</ele>
        <time>2021-02-28T10:25:31Z</time>
      </trkpt>
      <trkpt lat="40.3468540" lon="-3.9585640">
        <ele>548.4</ele>
        <time>2021-02-28T10:25:32Z</time>
      </trkpt>
      <trkpt lat="40.3471840" lon="-3.9583160">
        <ele>547.4</ele>
        <time>2021-02-28T10:25:37Z</time>
      </trkpt>
      <trkpt lat="40.3473690" lon="-3.9581710">
        <ele>547.2</ele>
        <time>2021-02-28T10:25:40Z</time>
      </trkpt>
      <trkpt lat="40.3474150" lon="-3.9581050">
        <ele>547.4</ele>
        <time>2021-02-28T10:25:41Z</time>
      </trkpt>
      <trkpt lat="40.3474680" lon="-3.9578490">
        <ele>546.8</ele>
        <time>2021-02-28T10:25:44Z</time>
      </trkpt>
      <trkpt lat="40.3474720" lon="-3.9577620">
        <ele>546.4</ele>
        <time>2021-02-28T10:25:45Z</time>
      </trkpt>
      <trkpt lat="40.3475060" lon="-3.9574720">
        <ele>545.4</ele>
        <time>2021-02-28T10:25:48Z</time>
      </trkpt>
      <trkpt lat="40.3475430" lon="-3.9573760">
        <ele>544.8</ele>
        <time>2021-02-28T10:25:49Z</time>
      </trkpt>
      <trkpt lat="40.3475900" lon="-3.9572820">
        <ele>544.0</ele>
        <time>2021-02-28T10:25:50Z</time>
      </trkpt>
      <trkpt lat="40.3476660" lon="-3.9570770">
        <ele>542.6</ele>
        <time>2021-02-28T10:25:52Z</time>
      </trkpt>
      <trkpt lat="40.3476880" lon="-3.9569700">
        <ele>542.0</ele>
        <time>2021-02-28T10:25:53Z</time>
      </trkpt>
      <trkpt lat="40.3477050" lon="-3.9568650">
        <ele>541.4</ele>
        <time>2021-02-28T10:25:54Z</time>
      </trkpt>
      <trkpt lat="40.3477360" lon="-3.9564420">
        <ele>540.8</ele>
        <time>2021-02-28T10:25:58Z</time>
      </trkpt>
      <trkpt lat="40.3477400" lon="-3.9563380">
        <ele>540.2</ele>
        <time>2021-02-28T10:25:59Z</time>
      </trkpt>
      <trkpt lat="40.3478190" lon="-3.9558400">
        <ele>540.2</ele>
        <time>2021-02-28T10:26:04Z</time>
      </trkpt>
      <trkpt lat="40.3478450" lon="-3.9557530">
        <ele>540.0</ele>
        <time>2021-02-28T10:26:05Z</time>
      </trkpt>
      <trkpt lat="40.3479250" lon="-3.9554850">
        <ele>539.2</ele>
        <time>2021-02-28T10:26:08Z</time>
      </trkpt>
      <trkpt lat="40.3479400" lon="-3.9552710">
        <ele>537.8</ele>
        <time>2021-02-28T10:26:10Z</time>
      </trkpt>
      <trkpt lat="40.3479280" lon="-3.9551620">
        <ele>537.0</ele>
        <time>2021-02-28T10:26:11Z</time>
      </trkpt>
      <trkpt lat="40.3479110" lon="-3.9550530">
        <ele>536.4</ele>
        <time>2021-02-28T10:26:12Z</time>
      </trkpt>
      <trkpt lat="40.3478900" lon="-3.9548400">
        <ele>535.6</ele>
        <time>2021-02-28T10:26:14Z</time>
      </trkpt>
      <trkpt lat="40.3478840" lon="-3.9546400">
        <ele>535.2</ele>
        <time>2021-02-28T10:26:16Z</time>
      </trkpt>
      <trkpt lat="40.3478550" lon="-3.9544900">
        <ele>534.2</ele>
        <time>2021-02-28T10:26:18Z</time>
      </trkpt>
      <trkpt lat="40.3478510" lon="-3.9544200">
        <ele>533.6</ele>
        <time>2021-02-28T10:26:19Z</time>
      </trkpt>
      <trkpt lat="40.3478670" lon="-3.9542570">
        <ele>532.6</ele>
        <time>2021-02-28T10:26:21Z</time>
      </trkpt>
      <trkpt lat="40.3478740" lon="-3.9541680">
        <ele>531.8</ele>
        <time>2021-02-28T10:26:22Z</time>
      </trkpt>
      <trkpt lat="40.3479040" lon="-3.9540850">
        <ele>531.2</ele>
        <time>2021-02-28T10:26:23Z</time>
      </trkpt>
      <trkpt lat="40.3479520" lon="-3.9540090">
        <ele>530.6</ele>
        <time>2021-02-28T10:26:24Z</time>
      </trkpt>
      <trkpt lat="40.3480030" lon="-3.9539260">
        <ele>530.0</ele>
        <time>2021-02-28T10:26:25Z</time>
      </trkpt>
      <trkpt lat="40.3481100" lon="-3.9537560">
        <ele>528.8</ele>
        <time>2021-02-28T10:26:27Z</time>
      </trkpt>
      <trkpt lat="40.3481410" lon="-3.9536660">
        <ele>528.0</ele>
        <time>2021-02-28T10:26:28Z</time>
      </trkpt>
      <trkpt lat="40.3481520" lon="-3.9535730">
        <ele>527.0</ele>
        <time>2021-02-28T10:26:29Z</time>
      </trkpt>
      <trkpt lat="40.3481580" lon="-3.9533920">
        <ele>525.4</ele>
        <time>2021-02-28T10:26:31Z</time>
      </trkpt>
      <trkpt lat="40.3482080" lon="-3.9532430">
        <ele>523.4</ele>
        <time>2021-02-28T10:26:33Z</time>
      </trkpt>
      <trkpt lat="40.3483420" lon="-3.9530410">
        <ele>522.0</ele>
        <time>2021-02-28T10:26:36Z</time>
      </trkpt>
      <trkpt lat="40.3483860" lon="-3.9529630">
        <ele>521.6</ele>
        <time>2021-02-28T10:26:37Z</time>
      </trkpt>
      <trkpt lat="40.3484220" lon="-3.9528750">
        <ele>521.0</ele>
        <time>2021-02-28T10:26:38Z</time>
      </trkpt>
      <trkpt lat="40.3484760" lon="-3.9526810">
        <ele>520.0</ele>
        <time>2021-02-28T10:26:40Z</time>
      </trkpt>
      <trkpt lat="40.3484880" lon="-3.9525800">
        <ele>519.4</ele>
        <time>2021-02-28T10:26:41Z</time>
      </trkpt>
      <trkpt lat="40.3484900" lon="-3.9524760">
        <ele>518.4</ele>
        <time>2021-02-28T10:26:42Z</time>
      </trkpt>
      <trkpt lat="40.3485080" lon="-3.9522750">
        <ele>516.8</ele>
        <time>2021-02-28T10:26:44Z</time>
      </trkpt>
      <trkpt lat="40.3485300" lon="-3.9521810">
        <ele>516.4</ele>
        <time>2021-02-28T10:26:45Z</time>
      </trkpt>
      <trkpt lat="40.3485960" lon="-3.9520060">
        <ele>515.4</ele>
        <time>2021-02-28T10:26:47Z</time>
      </trkpt>
      <trkpt lat="40.3486370" lon="-3.9519220">
        <ele>514.6</ele>
        <time>2021-02-28T10:26:48Z</time>
      </trkpt>
      <trkpt lat="40.3486680" lon="-3.9518290">
        <ele>514.0</ele>
        <time>2021-02-28T10:26:49Z</time>
      </trkpt>
      <trkpt lat="40.3487050" lon="-3.9514640">
        <ele>512.6</ele>
        <time>2021-02-28T10:26:53Z</time>
      </trkpt>
      <trkpt lat="40.3487040" lon="-3.9512800">
        <ele>511.2</ele>
        <time>2021-02-28T10:26:55Z</time>
      </trkpt>
      <trkpt lat="40.3486920" lon="-3.9511940">
        <ele>510.4</ele>
        <time>2021-02-28T10:26:56Z</time>
      </trkpt>
      <trkpt lat="40.3486670" lon="-3.9511140">
        <ele>509.4</ele>
        <time>2021-02-28T10:26:57Z</time>
      </trkpt>
      <trkpt lat="40.3485810" lon="-3.9509470">
        <ele>507.6</ele>
        <time>2021-02-28T10:26:59Z</time>
      </trkpt>
      <trkpt lat="40.3485250" lon="-3.9508600">
        <ele>506.6</ele>
        <time>2021-02-28T10:27:00Z</time>
      </trkpt>
      <trkpt lat="40.3484620" lon="-3.9507820">
        <ele>505.6</ele>
        <time>2021-02-28T10:27:01Z</time>
      </trkpt>
      <trkpt lat="40.3483080" lon="-3.9506920">
        <ele>504.8</ele>
        <time>2021-02-28T10:27:03Z</time>
      </trkpt>
      <trkpt lat="40.3482260" lon="-3.9506890">
        <ele>504.6</ele>
        <time>2021-02-28T10:27:04Z</time>
      </trkpt>
      <trkpt lat="40.3480700" lon="-3.9507140">
        <ele>504.2</ele>
        <time>2021-02-28T10:27:06Z</time>
      </trkpt>
      <trkpt lat="40.3479950" lon="-3.9507330">
        <ele>504.2</ele>
        <time>2021-02-28T10:27:07Z</time>
      </trkpt>
      <trkpt lat="40.3477800" lon="-3.9507650">
        <ele>503.4</ele>
        <time>2021-02-28T10:27:10Z</time>
      </trkpt>
      <trkpt lat="40.3477090" lon="-3.9507640">
        <ele>503.2</ele>
        <time>2021-02-28T10:27:11Z</time>
      </trkpt>
      <trkpt lat="40.3476430" lon="-3.9507550">
        <ele>503.2</ele>
        <time>2021-02-28T10:27:12Z</time>
      </trkpt>
      <trkpt lat="40.3473950" lon="-3.9506440">
        <ele>502.6</ele>
        <time>2021-02-28T10:27:16Z</time>
      </trkpt>
      <trkpt lat="40.3473370" lon="-3.9506090">
        <ele>502.6</ele>
        <time>2021-02-28T10:27:17Z</time>
      </trkpt>
      <trkpt lat="40.3471220" lon="-3.9504740">
        <ele>502.4</ele>
        <time>2021-02-28T10:27:21Z</time>
      </trkpt>
      <trkpt lat="40.3470140" lon="-3.9504250">
        <ele>502.6</ele>
        <time>2021-02-28T10:27:23Z</time>
      </trkpt>
      <trkpt lat="40.3468200" lon="-3.9503370">
        <ele>503.4</ele>
        <time>2021-02-28T10:27:27Z</time>
      </trkpt>
      <trkpt lat="40.3467740" lon="-3.9502990">
        <ele>503.4</ele>
        <time>2021-02-28T10:27:28Z</time>
      </trkpt>
      <trkpt lat="40.3467340" lon="-3.9502470">
        <ele>503.6</ele>
        <time>2021-02-28T10:27:29Z</time>
      </trkpt>
      <trkpt lat="40.3466060" lon="-3.9499740">
        <ele>503.4</ele>
        <time>2021-02-28T10:27:33Z</time>
      </trkpt>
      <trkpt lat="40.3465750" lon="-3.9499030">
        <ele>503.2</ele>
        <time>2021-02-28T10:27:34Z</time>
      </trkpt>
      <trkpt lat="40.3465370" lon="-3.9498370">
        <ele>502.8</ele>
        <time>2021-02-28T10:27:35Z</time>
      </trkpt>
      <trkpt lat="40.3463980" lon="-3.9496700">
        <ele>503.0</ele>
        <time>2021-02-28T10:27:38Z</time>
      </trkpt>
      <trkpt lat="40.3462330" lon="-3.9495630">
        <ele>503.2</ele>
        <time>2021-02-28T10:27:41Z</time>
      </trkpt>
      <trkpt lat="40.3461140" lon="-3.9495010">
        <ele>503.2</ele>
        <time>2021-02-28T10:27:43Z</time>
      </trkpt>
      <trkpt lat="40.3459950" lon="-3.9494430">
        <ele>503.4</ele>
        <time>2021-02-28T10:27:45Z</time>
      </trkpt>
      <trkpt lat="40.3458020" lon="-3.9494430">
        <ele>503.6</ele>
        <time>2021-02-28T10:27:48Z</time>
      </trkpt>
      <trkpt lat="40.3457370" lon="-3.9494560">
        <ele>503.6</ele>
        <time>2021-02-28T10:27:49Z</time>
      </trkpt>
      <trkpt lat="40.3455390" lon="-3.9494760">
        <ele>503.4</ele>
        <time>2021-02-28T10:27:52Z</time>
      </trkpt>
      <trkpt lat="40.3454050" lon="-3.9494560">
        <ele>503.4</ele>
        <time>2021-02-28T10:27:54Z</time>
      </trkpt>
      <trkpt lat="40.3450620" lon="-3.9494640">
        <ele>503.4</ele>
        <time>2021-02-28T10:27:59Z</time>
      </trkpt>
      <trkpt lat="40.3449930" lon="-3.9494820">
        <ele>503.4</ele>
        <time>2021-02-28T10:28:00Z</time>
      </trkpt>
      <trkpt lat="40.3446590" lon="-3.9496630">
        <ele>502.6</ele>
        <time>2021-02-28T10:28:05Z</time>
      </trkpt>
      <trkpt lat="40.3445980" lon="-3.9497250">
        <ele>502.4</ele>
        <time>2021-02-28T10:28:06Z</time>
      </trkpt>
      <trkpt lat="40.3444240" lon="-3.9498810">
        <ele>502.8</ele>
        <time>2021-02-28T10:28:09Z</time>
      </trkpt>
      <trkpt lat="40.3442900" lon="-3.9499030">
        <ele>503.4</ele>
        <time>2021-02-28T10:28:11Z</time>
      </trkpt>
      <trkpt lat="40.3442220" lon="-3.9499110">
        <ele>503.6</ele>
        <time>2021-02-28T10:28:12Z</time>
      </trkpt>
      <trkpt lat="40.3436590" lon="-3.9499750">
        <ele>503.4</ele>
        <time>2021-02-28T10:28:20Z</time>
      </trkpt>
      <trkpt lat="40.3432040" lon="-3.9501020">
        <ele>503.8</ele>
        <time>2021-02-28T10:28:27Z</time>
      </trkpt>
      <trkpt lat="40.3430780" lon="-3.9501460">
        <ele>503.8</ele>
        <time>2021-02-28T10:28:29Z</time>
      </trkpt>
      <trkpt lat="40.3429000" lon="-3.9501860">
        <ele>504.0</ele>
        <time>2021-02-28T10:28:32Z</time>
      </trkpt>
      <trkpt lat="40.3428490" lon="-3.9502060">
        <ele>504.2</ele>
        <time>2021-02-28T10:28:33Z</time>
      </trkpt>
      <trkpt lat="40.3426620" lon="-3.9503140">
        <ele>504.6</ele>
        <time>2021-02-28T10:28:37Z</time>
      </trkpt>
      <trkpt lat="40.3425640" lon="-3.9503590">
        <ele>504.8</ele>
        <time>2021-02-28T10:28:39Z</time>
      </trkpt>
      <trkpt lat="40.3422680" lon="-3.9505190">
        <ele>505.4</ele>
        <time>2021-02-28T10:28:45Z</time>
      </trkpt>
      <trkpt lat="40.3422170" lon="-3.9505350">
        <ele>505.6</ele>
        <time>2021-02-28T10:28:46Z</time>
      </trkpt>
      <trkpt lat="40.3421630" lon="-3.9505420">
        <ele>505.8</ele>
        <time>2021-02-28T10:28:47Z</time>
      </trkpt>
      <trkpt lat="40.3420590" lon="-3.9505210">
        <ele>506.2</ele>
        <time>2021-02-28T10:28:49Z</time>
      </trkpt>
      <trkpt lat="40.3420020" lon="-3.9505010">
        <ele>506.6</ele>
        <time>2021-02-28T10:28:50Z</time>
      </trkpt>
      <trkpt lat="40.3418240" lon="-3.9504290">
        <ele>506.6</ele>
        <time>2021-02-28T10:28:53Z</time>
      </trkpt>
      <trkpt lat="40.3417630" lon="-3.9504110">
        <ele>506.8</ele>
        <time>2021-02-28T10:28:54Z</time>
      </trkpt>
      <trkpt lat="40.3417030" lon="-3.9503890">
        <ele>506.8</ele>
        <time>2021-02-28T10:28:55Z</time>
      </trkpt>
      <trkpt lat="40.3416430" lon="-3.9503770">
        <ele>507.0</ele>
        <time>2021-02-28T10:28:56Z</time>
      </trkpt>
      <trkpt lat="40.3414560" lon="-3.9503390">
        <ele>506.6</ele>
        <time>2021-02-28T10:28:59Z</time>
      </trkpt>
      <trkpt lat="40.3413330" lon="-3.9503330">
        <ele>506.6</ele>
        <time>2021-02-28T10:29:01Z</time>
      </trkpt>
      <trkpt lat="40.3412110" lon="-3.9503730">
        <ele>506.6</ele>
        <time>2021-02-28T10:29:03Z</time>
      </trkpt>
      <trkpt lat="40.3411520" lon="-3.9504080">
        <ele>506.6</ele>
        <time>2021-02-28T10:29:04Z</time>
      </trkpt>
      <trkpt lat="40.3409620" lon="-3.9505430">
        <ele>505.8</ele>
        <time>2021-02-28T10:29:07Z</time>
      </trkpt>
      <trkpt lat="40.3407530" lon="-3.9506810">
        <ele>504.4</ele>
        <time>2021-02-28T10:29:10Z</time>
      </trkpt>
      <trkpt lat="40.3406750" lon="-3.9506870">
        <ele>504.2</ele>
        <time>2021-02-28T10:29:11Z</time>
      </trkpt>
      <trkpt lat="40.3403890" lon="-3.9507210">
        <ele>505.0</ele>
        <time>2021-02-28T10:29:15Z</time>
      </trkpt>
      <trkpt lat="40.3403300" lon="-3.9507460">
        <ele>505.6</ele>
        <time>2021-02-28T10:29:16Z</time>
      </trkpt>
      <trkpt lat="40.3402720" lon="-3.9507740">
        <ele>506.0</ele>
        <time>2021-02-28T10:29:17Z</time>
      </trkpt>
      <trkpt lat="40.3401070" lon="-3.9508800">
        <ele>506.6</ele>
        <time>2021-02-28T10:29:20Z</time>
      </trkpt>
      <trkpt lat="40.3399430" lon="-3.9509970">
        <ele>505.8</ele>
        <time>2021-02-28T10:29:23Z</time>
      </trkpt>
      <trkpt lat="40.3398140" lon="-3.9510450">
        <ele>504.8</ele>
        <time>2021-02-28T10:29:25Z</time>
      </trkpt>
      <trkpt lat="40.3397390" lon="-3.9510240">
        <ele>504.2</ele>
        <time>2021-02-28T10:29:26Z</time>
      </trkpt>
      <trkpt lat="40.3396090" lon="-3.9509370">
        <ele>503.0</ele>
        <time>2021-02-28T10:29:28Z</time>
      </trkpt>
      <trkpt lat="40.3394410" lon="-3.9508950">
        <ele>502.2</ele>
        <time>2021-02-28T10:29:31Z</time>
      </trkpt>
      <trkpt lat="40.3393490" lon="-3.9508320">
        <ele>502.2</ele>
        <time>2021-02-28T10:29:33Z</time>
      </trkpt>
      <trkpt lat="40.3392950" lon="-3.9508050">
        <ele>502.4</ele>
        <time>2021-02-28T10:29:34Z</time>
      </trkpt>
      <trkpt lat="40.3392370" lon="-3.9507870">
        <ele>502.2</ele>
        <time>2021-02-28T10:29:35Z</time>
      </trkpt>
      <trkpt lat="40.3390510" lon="-3.9508020">
        <ele>502.0</ele>
        <time>2021-02-28T10:29:38Z</time>
      </trkpt>
      <trkpt lat="40.3388900" lon="-3.9509360">
        <ele>501.8</ele>
        <time>2021-02-28T10:29:41Z</time>
      </trkpt>
      <trkpt lat="40.3388450" lon="-3.9509940">
        <ele>502.0</ele>
        <time>2021-02-28T10:29:42Z</time>
      </trkpt>
      <trkpt lat="40.3387530" lon="-3.9510930">
        <ele>502.2</ele>
        <time>2021-02-28T10:29:44Z</time>
      </trkpt>
      <trkpt lat="40.3386350" lon="-3.9511410">
        <ele>502.2</ele>
        <time>2021-02-28T10:29:46Z</time>
      </trkpt>
      <trkpt lat="40.3384560" lon="-3.9510840">
        <ele>502.4</ele>
        <time>2021-02-28T10:29:49Z</time>
      </trkpt>
      <trkpt lat="40.3383960" lon="-3.9510630">
        <ele>502.4</ele>
        <time>2021-02-28T10:29:50Z</time>
      </trkpt>
      <trkpt lat="40.3381730" lon="-3.9510030">
        <ele>503.2</ele>
        <time>2021-02-28T10:29:54Z</time>
      </trkpt>
      <trkpt lat="40.3380350" lon="-3.9509680">
        <ele>504.4</ele>
        <time>2021-02-28T10:29:57Z</time>
      </trkpt>
      <trkpt lat="40.3379470" lon="-3.9509380">
        <ele>505.4</ele>
        <time>2021-02-28T10:29:59Z</time>
      </trkpt>
      <trkpt lat="40.3377110" lon="-3.9508670">
        <ele>506.4</ele>
        <time>2021-02-28T10:30:04Z</time>
      </trkpt>
      <trkpt lat="40.3376140" lon="-3.9508300">
        <ele>506.4</ele>
        <time>2021-02-28T10:30:06Z</time>
      </trkpt>
      <trkpt lat="40.3374620" lon="-3.9507670">
        <ele>506.0</ele>
        <time>2021-02-28T10:30:09Z</time>
      </trkpt>
      <trkpt lat="40.3372450" lon="-3.9506950">
        <ele>505.8</ele>
        <time>2021-02-28T10:30:13Z</time>
      </trkpt>
      <trkpt lat="40.3371250" lon="-3.9506870">
        <ele>505.4</ele>
        <time>2021-02-28T10:30:15Z</time>
      </trkpt>
      <trkpt lat="40.3370640" lon="-3.9506950">
        <ele>505.4</ele>
        <time>2021-02-28T10:30:16Z</time>
      </trkpt>
      <trkpt lat="40.3368840" lon="-3.9507510">
        <ele>505.2</ele>
        <time>2021-02-28T10:30:19Z</time>
      </trkpt>
      <trkpt lat="40.3367090" lon="-3.9508230">
        <ele>504.8</ele>
        <time>2021-02-28T10:30:22Z</time>
      </trkpt>
      <trkpt lat="40.3365300" lon="-3.9510070">
        <ele>504.8</ele>
        <time>2021-02-28T10:30:26Z</time>
      </trkpt>
      <trkpt lat="40.3364390" lon="-3.9511160">
        <ele>504.4</ele>
        <time>2021-02-28T10:30:28Z</time>
      </trkpt>
      <trkpt lat="40.3363160" lon="-3.9512850">
        <ele>503.4</ele>
        <time>2021-02-28T10:30:31Z</time>
      </trkpt>
      <trkpt lat="40.3362710" lon="-3.9513010">
        <ele>503.2</ele>
        <time>2021-02-28T10:30:32Z</time>
      </trkpt>
      <trkpt lat="40.3362290" lon="-3.9512820">
        <ele>503.0</ele>
        <time>2021-02-28T10:30:33Z</time>
      </trkpt>
      <trkpt lat="40.3361360" lon="-3.9511210">
        <ele>502.8</ele>
        <time>2021-02-28T10:30:36Z</time>
      </trkpt>
      <trkpt lat="40.3361030" lon="-3.9510720">
        <ele>502.4</ele>
        <time>2021-02-28T10:30:37Z</time>
      </trkpt>
      <trkpt lat="40.3360570" lon="-3.9510300">
        <ele>502.2</ele>
        <time>2021-02-28T10:30:38Z</time>
      </trkpt>
      <trkpt lat="40.3359590" lon="-3.9509930">
        <ele>502.4</ele>
        <time>2021-02-28T10:30:40Z</time>
      </trkpt>
      <trkpt lat="40.3358190" lon="-3.9510630">
        <ele>502.8</ele>
        <time>2021-02-28T10:30:43Z</time>
      </trkpt>
      <trkpt lat="40.3356190" lon="-3.9511430">
        <ele>503.8</ele>
        <time>2021-02-28T10:30:47Z</time>
      </trkpt>
      <trkpt lat="40.3355690" lon="-3.9511550">
        <ele>504.2</ele>
        <time>2021-02-28T10:30:48Z</time>
      </trkpt>
      <trkpt lat="40.3355200" lon="-3.9511620">
        <ele>504.4</ele>
        <time>2021-02-28T10:30:49Z</time>
      </trkpt>
      <trkpt lat="40.3354770" lon="-3.9511880">
        <ele>504.8</ele>
        <time>2021-02-28T10:30:50Z</time>
      </trkpt>
      <trkpt lat="40.3354420" lon="-3.9512410">
        <ele>505.0</ele>
        <time>2021-02-28T10:30:51Z</time>
      </trkpt>
      <trkpt lat="40.3354020" lon="-3.9513730">
        <ele>505.6</ele>
        <time>2021-02-28T10:30:53Z</time>
      </trkpt>
      <trkpt lat="40.3353840" lon="-3.9514390">
        <ele>505.6</ele>
        <time>2021-02-28T10:30:54Z</time>
      </trkpt>
      <trkpt lat="40.3353450" lon="-3.9516370">
        <ele>505.6</ele>
        <time>2021-02-28T10:30:57Z</time>
      </trkpt>
      <trkpt lat="40.3353280" lon="-3.9517570">
        <ele>506.0</ele>
        <time>2021-02-28T10:30:59Z</time>
      </trkpt>
      <trkpt lat="40.3353190" lon="-3.9518700">
        <ele>506.4</ele>
        <time>2021-02-28T10:31:01Z</time>
      </trkpt>
      <trkpt lat="40.3353160" lon="-3.9519260">
        <ele>506.6</ele>
        <time>2021-02-28T10:31:02Z</time>
      </trkpt>
      <trkpt lat="40.3352890" lon="-3.9522790">
        <ele>507.8</ele>
        <time>2021-02-28T10:31:08Z</time>
      </trkpt>
      <trkpt lat="40.3352870" lon="-3.9523970">
        <ele>508.2</ele>
        <time>2021-02-28T10:31:10Z</time>
      </trkpt>
      <trkpt lat="40.3352900" lon="-3.9525120">
        <ele>509.0</ele>
        <time>2021-02-28T10:31:12Z</time>
      </trkpt>
      <trkpt lat="40.3352890" lon="-3.9526230">
        <ele>509.6</ele>
        <time>2021-02-28T10:31:14Z</time>
      </trkpt>
      <trkpt lat="40.3352770" lon="-3.9526790">
        <ele>509.8</ele>
        <time>2021-02-28T10:31:15Z</time>
      </trkpt>
      <trkpt lat="40.3352520" lon="-3.9527260">
        <ele>510.0</ele>
        <time>2021-02-28T10:31:16Z</time>
      </trkpt>
      <trkpt lat="40.3351860" lon="-3.9527960">
        <ele>511.0</ele>
        <time>2021-02-28T10:31:18Z</time>
      </trkpt>
      <trkpt lat="40.3351030" lon="-3.9528010">
        <ele>512.2</ele>
        <time>2021-02-28T10:31:20Z</time>
      </trkpt>
      <trkpt lat="40.3350560" lon="-3.9527870">
        <ele>512.6</ele>
        <time>2021-02-28T10:31:21Z</time>
      </trkpt>
      <trkpt lat="40.3350090" lon="-3.9527720">
        <ele>513.0</ele>
        <time>2021-02-28T10:31:22Z</time>
      </trkpt>
      <trkpt lat="40.3349610" lon="-3.9527610">
        <ele>513.2</ele>
        <time>2021-02-28T10:31:23Z</time>
      </trkpt>
      <trkpt lat="40.3349110" lon="-3.9527540">
        <ele>513.4</ele>
        <time>2021-02-28T10:31:24Z</time>
      </trkpt>
      <trkpt lat="40.3347600" lon="-3.9527580">
        <ele>513.6</ele>
        <time>2021-02-28T10:31:27Z</time>
      </trkpt>
      <trkpt lat="40.3346640" lon="-3.9527800">
        <ele>513.6</ele>
        <time>2021-02-28T10:31:29Z</time>
      </trkpt>
      <trkpt lat="40.3344590" lon="-3.9528240">
        <ele>513.8</ele>
        <time>2021-02-28T10:31:33Z</time>
      </trkpt>
      <trkpt lat="40.3343500" lon="-3.9528180">
        <ele>513.8</ele>
        <time>2021-02-28T10:31:35Z</time>
      </trkpt>
      <trkpt lat="40.3341780" lon="-3.9527690">
        <ele>513.4</ele>
        <time>2021-02-28T10:31:38Z</time>
      </trkpt>
      <trkpt lat="40.3340000" lon="-3.9527030">
        <ele>512.8</ele>
        <time>2021-02-28T10:31:41Z</time>
      </trkpt>
      <trkpt lat="40.3338140" lon="-3.9526310">
        <ele>512.6</ele>
        <time>2021-02-28T10:31:44Z</time>
      </trkpt>
      <trkpt lat="40.3336030" lon="-3.9525500">
        <ele>512.0</ele>
        <time>2021-02-28T10:31:47Z</time>
      </trkpt>
      <trkpt lat="40.3333770" lon="-3.9524750">
        <ele>511.4</ele>
        <time>2021-02-28T10:31:50Z</time>
      </trkpt>
      <trkpt lat="40.3331300" lon="-3.9523890">
        <ele>511.2</ele>
        <time>2021-02-28T10:31:54Z</time>
      </trkpt>
      <trkpt lat="40.3330640" lon="-3.9523710">
        <ele>511.0</ele>
        <time>2021-02-28T10:31:55Z</time>
      </trkpt>
      <trkpt lat="40.3329240" lon="-3.9523190">
        <ele>511.2</ele>
        <time>2021-02-28T10:31:57Z</time>
      </trkpt>
      <trkpt lat="40.3328540" lon="-3.9522870">
        <ele>511.4</ele>
        <time>2021-02-28T10:31:58Z</time>
      </trkpt>
      <trkpt lat="40.3324480" lon="-3.9521520">
        <ele>511.8</ele>
        <time>2021-02-28T10:32:04Z</time>
      </trkpt>
      <trkpt lat="40.3321140" lon="-3.9520010">
        <ele>511.4</ele>
        <time>2021-02-28T10:32:09Z</time>
      </trkpt>
      <trkpt lat="40.3317530" lon="-3.9517690">
        <ele>511.2</ele>
        <time>2021-02-28T10:32:15Z</time>
      </trkpt>
      <trkpt lat="40.3315910" lon="-3.9516270">
        <ele>511.0</ele>
        <time>2021-02-28T10:32:18Z</time>
      </trkpt>
      <trkpt lat="40.3314800" lon="-3.9515350">
        <ele>510.4</ele>
        <time>2021-02-28T10:32:20Z</time>
      </trkpt>
      <trkpt lat="40.3314080" lon="-3.9515230">
        <ele>509.8</ele>
        <time>2021-02-28T10:32:21Z</time>
      </trkpt>
      <trkpt lat="40.3312390" lon="-3.9515450">
        <ele>507.4</ele>
        <time>2021-02-28T10:32:23Z</time>
      </trkpt>
      <trkpt lat="40.3310570" lon="-3.9515930">
        <ele>506.4</ele>
        <time>2021-02-28T10:32:26Z</time>
      </trkpt>
      <trkpt lat="40.3307820" lon="-3.9516530">
        <ele>505.8</ele>
        <time>2021-02-28T10:32:29Z</time>
      </trkpt>
      <trkpt lat="40.3304440" lon="-3.9517020">
        <ele>506.0</ele>
        <time>2021-02-28T10:32:33Z</time>
      </trkpt>
      <trkpt lat="40.3303710" lon="-3.9516690">
        <ele>506.2</ele>
        <time>2021-02-28T10:32:34Z</time>
      </trkpt>
      <trkpt lat="40.3302010" lon="-3.9515170">
        <ele>506.2</ele>
        <time>2021-02-28T10:32:37Z</time>
      </trkpt>
      <trkpt lat="40.3300470" lon="-3.9513770">
        <ele>507.4</ele>
        <time>2021-02-28T10:32:40Z</time>
      </trkpt>
      <trkpt lat="40.3299530" lon="-3.9513100">
        <ele>508.4</ele>
        <time>2021-02-28T10:32:42Z</time>
      </trkpt>
      <trkpt lat="40.3299060" lon="-3.9512820">
        <ele>508.8</ele>
        <time>2021-02-28T10:32:43Z</time>
      </trkpt>
      <trkpt lat="40.3297000" lon="-3.9511820">
        <ele>509.6</ele>
        <time>2021-02-28T10:32:47Z</time>
      </trkpt>
      <trkpt lat="40.3295840" lon="-3.9511830">
        <ele>509.8</ele>
        <time>2021-02-28T10:32:49Z</time>
      </trkpt>
      <trkpt lat="40.3292170" lon="-3.9512290">
        <ele>509.2</ele>
        <time>2021-02-28T10:32:55Z</time>
      </trkpt>
      <trkpt lat="40.3289440" lon="-3.9512220">
        <ele>508.8</ele>
        <time>2021-02-28T10:32:59Z</time>
      </trkpt>
      <trkpt lat="40.3288070" lon="-3.9512470">
        <ele>508.6</ele>
        <time>2021-02-28T10:33:01Z</time>
      </trkpt>
      <trkpt lat="40.3287390" lon="-3.9512510">
        <ele>508.6</ele>
        <time>2021-02-28T10:33:02Z</time>
      </trkpt>
      <trkpt lat="40.3285320" lon="-3.9512260">
        <ele>508.6</ele>
        <time>2021-02-28T10:33:05Z</time>
      </trkpt>
      <trkpt lat="40.3281380" lon="-3.9511290">
        <ele>508.0</ele>
        <time>2021-02-28T10:33:11Z</time>
      </trkpt>
      <trkpt lat="40.3280700" lon="-3.9511170">
        <ele>507.8</ele>
        <time>2021-02-28T10:33:12Z</time>
      </trkpt>
      <trkpt lat="40.3277280" lon="-3.9511420">
        <ele>506.8</ele>
        <time>2021-02-28T10:33:17Z</time>
      </trkpt>
      <trkpt lat="40.3276570" lon="-3.9511570">
        <ele>506.6</ele>
        <time>2021-02-28T10:33:18Z</time>
      </trkpt>
      <trkpt lat="40.3272540" lon="-3.9512100">
        <ele>506.6</ele>
        <time>2021-02-28T10:33:24Z</time>
      </trkpt>
      <trkpt lat="40.3267320" lon="-3.9511620">
        <ele>506.2</ele>
        <time>2021-02-28T10:33:32Z</time>
      </trkpt>
      <trkpt lat="40.3265420" lon="-3.9511130">
        <ele>506.4</ele>
        <time>2021-02-28T10:33:35Z</time>
      </trkpt>
      <trkpt lat="40.3264200" lon="-3.9510570">
        <ele>506.4</ele>
        <time>2021-02-28T10:33:37Z</time>
      </trkpt>
      <trkpt lat="40.3261810" lon="-3.9509340">
        <ele>506.4</ele>
        <time>2021-02-28T10:33:41Z</time>
      </trkpt>
      <trkpt lat="40.3259430" lon="-3.9508140">
        <ele>506.2</ele>
        <time>2021-02-28T10:33:45Z</time>
      </trkpt>
      <trkpt lat="40.3257540" lon="-3.9507470">
        <ele>505.4</ele>
        <time>2021-02-28T10:33:48Z</time>
      </trkpt>
      <trkpt lat="40.3255040" lon="-3.9506590">
        <ele>505.6</ele>
        <time>2021-02-28T10:33:52Z</time>
      </trkpt>
      <trkpt lat="40.3250040" lon="-3.9504920">
        <ele>505.0</ele>
        <time>2021-02-28T10:34:00Z</time>
      </trkpt>
      <trkpt lat="40.3245050" lon="-3.9504390">
        <ele>506.4</ele>
        <time>2021-02-28T10:34:08Z</time>
      </trkpt>
      <trkpt lat="40.3241990" lon="-3.9504210">
        <ele>506.2</ele>
        <time>2021-02-28T10:34:13Z</time>
      </trkpt>
      <trkpt lat="40.3239630" lon="-3.9503690">
        <ele>506.6</ele>
        <time>2021-02-28T10:34:17Z</time>
      </trkpt>
      <trkpt lat="40.3239050" lon="-3.9503620">
        <ele>506.6</ele>
        <time>2021-02-28T10:34:18Z</time>
      </trkpt>
      <trkpt lat="40.3237830" lon="-3.9503390">
        <ele>507.0</ele>
        <time>2021-02-28T10:34:20Z</time>
      </trkpt>
      <trkpt lat="40.3236060" lon="-3.9503020">
        <ele>507.6</ele>
        <time>2021-02-28T10:34:23Z</time>
      </trkpt>
      <trkpt lat="40.3233890" lon="-3.9502190">
        <ele>508.0</ele>
        <time>2021-02-28T10:34:27Z</time>
      </trkpt>
      <trkpt lat="40.3229910" lon="-3.9500860">
        <ele>508.0</ele>
        <time>2021-02-28T10:34:34Z</time>
      </trkpt>
      <trkpt lat="40.3225880" lon="-3.9499910">
        <ele>508.6</ele>
        <time>2021-02-28T10:34:41Z</time>
      </trkpt>
      <trkpt lat="40.3225270" lon="-3.9499790">
        <ele>509.0</ele>
        <time>2021-02-28T10:34:42Z</time>
      </trkpt>
      <trkpt lat="40.3222370" lon="-3.9499340">
        <ele>509.6</ele>
        <time>2021-02-28T10:34:47Z</time>
      </trkpt>
      <trkpt lat="40.3220080" lon="-3.9499100">
        <ele>509.8</ele>
        <time>2021-02-28T10:34:51Z</time>
      </trkpt>
      <trkpt lat="40.3214870" lon="-3.9498650">
        <ele>510.2</ele>
        <time>2021-02-28T10:35:00Z</time>
      </trkpt>
      <trkpt lat="40.3211500" lon="-3.9498850">
        <ele>509.8</ele>
        <time>2021-02-28T10:35:06Z</time>
      </trkpt>
      <trkpt lat="40.3210830" lon="-3.9499010">
        <ele>509.4</ele>
        <time>2021-02-28T10:35:07Z</time>
      </trkpt>
      <trkpt lat="40.3209420" lon="-3.9499250">
        <ele>508.4</ele>
        <time>2021-02-28T10:35:09Z</time>
      </trkpt>
      <trkpt lat="40.3207010" lon="-3.9499510">
        <ele>507.0</ele>
        <time>2021-02-28T10:35:12Z</time>
      </trkpt>
      <trkpt lat="40.3206240" lon="-3.9499570">
        <ele>506.6</ele>
        <time>2021-02-28T10:35:13Z</time>
      </trkpt>
      <trkpt lat="40.3205520" lon="-3.9499480">
        <ele>506.4</ele>
        <time>2021-02-28T10:35:14Z</time>
      </trkpt>
      <trkpt lat="40.3203640" lon="-3.9498850">
        <ele>506.6</ele>
        <time>2021-02-28T10:35:17Z</time>
      </trkpt>
      <trkpt lat="40.3202080" lon="-3.9498440">
        <ele>508.0</ele>
        <time>2021-02-28T10:35:20Z</time>
      </trkpt>
      <trkpt lat="40.3201570" lon="-3.9498440">
        <ele>508.6</ele>
        <time>2021-02-28T10:35:21Z</time>
      </trkpt>
      <trkpt lat="40.3201040" lon="-3.9498370">
        <ele>508.8</ele>
        <time>2021-02-28T10:35:22Z</time>
      </trkpt>
      <trkpt lat="40.3197540" lon="-3.9497700">
        <ele>508.6</ele>
        <time>2021-02-28T10:35:28Z</time>
      </trkpt>
      <trkpt lat="40.3195760" lon="-3.9497700">
        <ele>508.4</ele>
        <time>2021-02-28T10:35:31Z</time>
      </trkpt>
      <trkpt lat="40.3194610" lon="-3.9498060">
        <ele>508.2</ele>
        <time>2021-02-28T10:35:33Z</time>
      </trkpt>
      <trkpt lat="40.3190400" lon="-3.9499320">
        <ele>508.0</ele>
        <time>2021-02-28T10:35:40Z</time>
      </trkpt>
      <trkpt lat="40.3186750" lon="-3.9499930">
        <ele>507.8</ele>
        <time>2021-02-28T10:35:46Z</time>
      </trkpt>
      <trkpt lat="40.3183590" lon="-3.9499700">
        <ele>508.0</ele>
        <time>2021-02-28T10:35:51Z</time>
      </trkpt>
      <trkpt lat="40.3180050" lon="-3.9498160">
        <ele>508.0</ele>
        <time>2021-02-28T10:35:57Z</time>
      </trkpt>
      <trkpt lat="40.3177420" lon="-3.9497270">
        <ele>507.4</ele>
        <time>2021-02-28T10:36:01Z</time>
      </trkpt>
      <trkpt lat="40.3174840" lon="-3.9496530">
        <ele>507.6</ele>
        <time>2021-02-28T10:36:05Z</time>
      </trkpt>
      <trkpt lat="40.3169280" lon="-3.9495760">
        <ele>507.2</ele>
        <time>2021-02-28T10:36:13Z</time>
      </trkpt>
      <trkpt lat="40.3165760" lon="-3.9494980">
        <ele>507.0</ele>
        <time>2021-02-28T10:36:18Z</time>
      </trkpt>
      <trkpt lat="40.3161040" lon="-3.9493980">
        <ele>507.2</ele>
        <time>2021-02-28T10:36:25Z</time>
      </trkpt>
      <trkpt lat="40.3156810" lon="-3.9492460">
        <ele>507.6</ele>
        <time>2021-02-28T10:36:32Z</time>
      </trkpt>
      <trkpt lat="40.3152370" lon="-3.9490520">
        <ele>508.6</ele>
        <time>2021-02-28T10:36:40Z</time>
      </trkpt>
      <trkpt lat="40.3148640" lon="-3.9488920">
        <ele>508.8</ele>
        <time>2021-02-28T10:36:47Z</time>
      </trkpt>
      <trkpt lat="40.3148090" lon="-3.9488690">
        <ele>508.6</ele>
        <time>2021-02-28T10:36:48Z</time>
      </trkpt>
      <trkpt lat="40.3143010" lon="-3.9487090">
        <ele>507.6</ele>
        <time>2021-02-28T10:36:57Z</time>
      </trkpt>
      <trkpt lat="40.3142370" lon="-3.9486950">
        <ele>507.6</ele>
        <time>2021-02-28T10:36:58Z</time>
      </trkpt>
      <trkpt lat="40.3139260" lon="-3.9486400">
        <ele>507.0</ele>
        <time>2021-02-28T10:37:03Z</time>
      </trkpt>
      <trkpt lat="40.3136320" lon="-3.9484930">
        <ele>506.4</ele>
        <time>2021-02-28T10:37:08Z</time>
      </trkpt>
      <trkpt lat="40.3133830" lon="-3.9482150">
        <ele>505.6</ele>
        <time>2021-02-28T10:37:13Z</time>
      </trkpt>
      <trkpt lat="40.3132850" lon="-3.9480920">
        <ele>505.4</ele>
        <time>2021-02-28T10:37:15Z</time>
      </trkpt>
      <trkpt lat="40.3132420" lon="-3.9480260">
        <ele>505.2</ele>
        <time>2021-02-28T10:37:16Z</time>
      </trkpt>
      <trkpt lat="40.3131060" lon="-3.9478350">
        <ele>504.8</ele>
        <time>2021-02-28T10:37:19Z</time>
      </trkpt>
      <trkpt lat="40.3129570" lon="-3.9476480">
        <ele>504.4</ele>
        <time>2021-02-28T10:37:22Z</time>
      </trkpt>
      <trkpt lat="40.3127900" lon="-3.9474940">
        <ele>503.6</ele>
        <time>2021-02-28T10:37:25Z</time>
      </trkpt>
      <trkpt lat="40.3124610" lon="-3.9473060">
        <ele>503.2</ele>
        <time>2021-02-28T10:37:30Z</time>
      </trkpt>
      <trkpt lat="40.3120400" lon="-3.9471440">
        <ele>502.4</ele>
        <time>2021-02-28T10:37:36Z</time>
      </trkpt>
      <trkpt lat="40.3119110" lon="-3.9471120">
        <ele>502.2</ele>
        <time>2021-02-28T10:37:38Z</time>
      </trkpt>
      <trkpt lat="40.3117360" lon="-3.9470640">
        <ele>501.6</ele>
        <time>2021-02-28T10:37:41Z</time>
      </trkpt>
      <trkpt lat="40.3113590" lon="-3.9469380">
        <ele>501.8</ele>
        <time>2021-02-28T10:37:48Z</time>
      </trkpt>
      <trkpt lat="40.3110990" lon="-3.9467910">
        <ele>501.2</ele>
        <time>2021-02-28T10:37:53Z</time>
      </trkpt>
      <trkpt lat="40.3110370" lon="-3.9467590">
        <ele>501.0</ele>
        <time>2021-02-28T10:37:54Z</time>
      </trkpt>
      <trkpt lat="40.3107560" lon="-3.9466510">
        <ele>499.8</ele>
        <time>2021-02-28T10:37:58Z</time>
      </trkpt>
      <trkpt lat="40.3106810" lon="-3.9466320">
        <ele>499.6</ele>
        <time>2021-02-28T10:37:59Z</time>
      </trkpt>
      <trkpt lat="40.3102640" lon="-3.9465030">
        <ele>499.2</ele>
        <time>2021-02-28T10:38:05Z</time>
      </trkpt>
      <trkpt lat="40.3098720" lon="-3.9464100">
        <ele>500.2</ele>
        <time>2021-02-28T10:38:11Z</time>
      </trkpt>
      <trkpt lat="40.3095640" lon="-3.9463890">
        <ele>500.6</ele>
        <time>2021-02-28T10:38:16Z</time>
      </trkpt>
      <trkpt lat="40.3094430" lon="-3.9463940">
        <ele>500.6</ele>
        <time>2021-02-28T10:38:18Z</time>
      </trkpt>
      <trkpt lat="40.3090730" lon="-3.9464100">
        <ele>500.8</ele>
        <time>2021-02-28T10:38:24Z</time>
      </trkpt>
      <trkpt lat="40.3089500" lon="-3.9464030">
        <ele>500.8</ele>
        <time>2021-02-28T10:38:26Z</time>
      </trkpt>
      <trkpt lat="40.3085780" lon="-3.9463030">
        <ele>501.0</ele>
        <time>2021-02-28T10:38:32Z</time>
      </trkpt>
      <trkpt lat="40.3080450" lon="-3.9461660">
        <ele>501.2</ele>
        <time>2021-02-28T10:38:41Z</time>
      </trkpt>
      <trkpt lat="40.3078650" lon="-3.9461410">
        <ele>501.6</ele>
        <time>2021-02-28T10:38:44Z</time>
      </trkpt>
      <trkpt lat="40.3077410" lon="-3.9461270">
        <ele>502.0</ele>
        <time>2021-02-28T10:38:46Z</time>
      </trkpt>
      <trkpt lat="40.3076830" lon="-3.9461170">
        <ele>502.0</ele>
        <time>2021-02-28T10:38:47Z</time>
      </trkpt>
      <trkpt lat="40.3072510" lon="-3.9461330">
        <ele>501.6</ele>
        <time>2021-02-28T10:38:54Z</time>
      </trkpt>
      <trkpt lat="40.3067550" lon="-3.9461690">
        <ele>502.0</ele>
        <time>2021-02-28T10:39:02Z</time>
      </trkpt>
      <trkpt lat="40.3065040" lon="-3.9461250">
        <ele>501.8</ele>
        <time>2021-02-28T10:39:06Z</time>
      </trkpt>
      <trkpt lat="40.3063270" lon="-3.9460790">
        <ele>501.6</ele>
        <time>2021-02-28T10:39:09Z</time>
      </trkpt>
      <trkpt lat="40.3057840" lon="-3.9459320">
        <ele>501.2</ele>
        <time>2021-02-28T10:39:18Z</time>
      </trkpt>
      <trkpt lat="40.3056610" lon="-3.9458950">
        <ele>501.0</ele>
        <time>2021-02-28T10:39:20Z</time>
      </trkpt>
      <trkpt lat="40.3054720" lon="-3.9458440">
        <ele>500.8</ele>
        <time>2021-02-28T10:39:23Z</time>
      </trkpt>
      <trkpt lat="40.3050860" lon="-3.9457580">
        <ele>500.0</ele>
        <time>2021-02-28T10:39:29Z</time>
      </trkpt>
      <trkpt lat="40.3049490" lon="-3.9457570">
        <ele>499.8</ele>
        <time>2021-02-28T10:39:31Z</time>
      </trkpt>
      <trkpt lat="40.3047400" lon="-3.9457330">
        <ele>500.0</ele>
        <time>2021-02-28T10:39:34Z</time>
      </trkpt>
      <trkpt lat="40.3045940" lon="-3.9456740">
        <ele>499.2</ele>
        <time>2021-02-28T10:39:36Z</time>
      </trkpt>
      <trkpt lat="40.3043980" lon="-3.9455460">
        <ele>499.6</ele>
        <time>2021-02-28T10:39:39Z</time>
      </trkpt>
      <trkpt lat="40.3043420" lon="-3.9454990">
        <ele>499.6</ele>
        <time>2021-02-28T10:39:40Z</time>
      </trkpt>
      <trkpt lat="40.3040290" lon="-3.9452450">
        <ele>500.4</ele>
        <time>2021-02-28T10:39:46Z</time>
      </trkpt>
      <trkpt lat="40.3037540" lon="-3.9450910">
        <ele>501.0</ele>
        <time>2021-02-28T10:39:51Z</time>
      </trkpt>
      <trkpt lat="40.3036910" lon="-3.9450770">
        <ele>501.2</ele>
        <time>2021-02-28T10:39:52Z</time>
      </trkpt>
      <trkpt lat="40.3036280" lon="-3.9450610">
        <ele>501.2</ele>
        <time>2021-02-28T10:39:53Z</time>
      </trkpt>
      <trkpt lat="40.3032600" lon="-3.9449490">
        <ele>501.0</ele>
        <time>2021-02-28T10:39:59Z</time>
      </trkpt>
      <trkpt lat="40.3028830" lon="-3.9448320">
        <ele>500.6</ele>
        <time>2021-02-28T10:40:05Z</time>
      </trkpt>
      <trkpt lat="40.3024100" lon="-3.9447280">
        <ele>500.0</ele>
        <time>2021-02-28T10:40:12Z</time>
      </trkpt>
      <trkpt lat="40.3020510" lon="-3.9446790">
        <ele>499.0</ele>
        <time>2021-02-28T10:40:17Z</time>
      </trkpt>
      <trkpt lat="40.3019110" lon="-3.9446610">
        <ele>499.0</ele>
        <time>2021-02-28T10:40:19Z</time>
      </trkpt>
      <trkpt lat="40.3014830" lon="-3.9445540">
        <ele>497.6</ele>
        <time>2021-02-28T10:40:25Z</time>
      </trkpt>
      <trkpt lat="40.3010820" lon="-3.9443360">
        <ele>496.6</ele>
        <time>2021-02-28T10:40:31Z</time>
      </trkpt>
      <trkpt lat="40.3010180" lon="-3.9442940">
        <ele>496.4</ele>
        <time>2021-02-28T10:40:32Z</time>
      </trkpt>
      <trkpt lat="40.3005600" lon="-3.9440830">
        <ele>496.6</ele>
        <time>2021-02-28T10:40:39Z</time>
      </trkpt>
      <trkpt lat="40.3004990" lon="-3.9440780">
        <ele>496.6</ele>
        <time>2021-02-28T10:40:40Z</time>
      </trkpt>
      <trkpt lat="40.3003950" lon="-3.9440530">
        <ele>496.2</ele>
        <time>2021-02-28T10:40:42Z</time>
      </trkpt>
      <trkpt lat="40.3003490" lon="-3.9440210">
        <ele>496.0</ele>
        <time>2021-02-28T10:40:43Z</time>
      </trkpt>
      <trkpt lat="40.3002840" lon="-3.9438900">
        <ele>495.4</ele>
        <time>2021-02-28T10:40:45Z</time>
      </trkpt>
      <trkpt lat="40.3002610" lon="-3.9438190">
        <ele>495.0</ele>
        <time>2021-02-28T10:40:46Z</time>
      </trkpt>
      <trkpt lat="40.3002340" lon="-3.9437500">
        <ele>494.8</ele>
        <time>2021-02-28T10:40:47Z</time>
      </trkpt>
      <trkpt lat="40.3001720" lon="-3.9436060">
        <ele>494.8</ele>
        <time>2021-02-28T10:40:49Z</time>
      </trkpt>
      <trkpt lat="40.3001500" lon="-3.9434410">
        <ele>494.8</ele>
        <time>2021-02-28T10:40:51Z</time>
      </trkpt>
      <trkpt lat="40.3001680" lon="-3.9431910">
        <ele>494.4</ele>
        <time>2021-02-28T10:40:54Z</time>
      </trkpt>
      <trkpt lat="40.3001820" lon="-3.9430200">
        <ele>494.4</ele>
        <time>2021-02-28T10:40:56Z</time>
      </trkpt>
      <trkpt lat="40.3001840" lon="-3.9429330">
        <ele>494.2</ele>
        <time>2021-02-28T10:40:57Z</time>
      </trkpt>
      <trkpt lat="40.3001760" lon="-3.9428530">
        <ele>493.8</ele>
        <time>2021-02-28T10:40:58Z</time>
      </trkpt>
      <trkpt lat="40.3001210" lon="-3.9427280">
        <ele>493.2</ele>
        <time>2021-02-28T10:41:00Z</time>
      </trkpt>
      <trkpt lat="40.2999220" lon="-3.9425700">
        <ele>493.0</ele>
        <time>2021-02-28T10:41:04Z</time>
      </trkpt>
      <trkpt lat="40.2998610" lon="-3.9425480">
        <ele>493.0</ele>
        <time>2021-02-28T10:41:05Z</time>
      </trkpt>
      <trkpt lat="40.2995710" lon="-3.9424370">
        <ele>492.8</ele>
        <time>2021-02-28T10:41:10Z</time>
      </trkpt>
      <trkpt lat="40.2993890" lon="-3.9424570">
        <ele>492.8</ele>
        <time>2021-02-28T10:41:13Z</time>
      </trkpt>
      <trkpt lat="40.2993320" lon="-3.9424380">
        <ele>492.8</ele>
        <time>2021-02-28T10:41:14Z</time>
      </trkpt>
      <trkpt lat="40.2992000" lon="-3.9423300">
        <ele>492.6</ele>
        <time>2021-02-28T10:41:17Z</time>
      </trkpt>
      <trkpt lat="40.2989950" lon="-3.9421540">
        <ele>492.4</ele>
        <time>2021-02-28T10:41:22Z</time>
      </trkpt>
      <trkpt lat="40.2989050" lon="-3.9420820">
        <ele>492.0</ele>
        <time>2021-02-28T10:41:26Z</time>
      </trkpt>
      <trkpt lat="40.2988470" lon="-3.9420610">
        <ele>492.2</ele>
        <time>2021-02-28T10:41:31Z</time>
      </trkpt>
      <trkpt lat="40.2986880" lon="-3.9419540">
        <ele>492.4</ele>
        <time>2021-02-28T10:41:35Z</time>
      </trkpt>
      <trkpt lat="40.2985880" lon="-3.9419130">
        <ele>491.8</ele>
        <time>2021-02-28T10:41:37Z</time>
      </trkpt>
      <trkpt lat="40.2984660" lon="-3.9418930">
        <ele>492.0</ele>
        <time>2021-02-28T10:41:39Z</time>
      </trkpt>
      <trkpt lat="40.2983970" lon="-3.9418990">
        <ele>492.2</ele>
        <time>2021-02-28T10:41:40Z</time>
      </trkpt>
      <trkpt lat="40.2981810" lon="-3.9420310">
        <ele>492.8</ele>
        <time>2021-02-28T10:41:44Z</time>
      </trkpt>
      <trkpt lat="40.2981630" lon="-3.9420930">
        <ele>493.2</ele>
        <time>2021-02-28T10:41:45Z</time>
      </trkpt>
      <trkpt lat="40.2981600" lon="-3.9422060">
        <ele>494.0</ele>
        <time>2021-02-28T10:41:47Z</time>
      </trkpt>
      <trkpt lat="40.2981670" lon="-3.9422510">
        <ele>494.4</ele>
        <time>2021-02-28T10:41:48Z</time>
      </trkpt>
      <trkpt lat="40.2982330" lon="-3.9423120">
        <ele>495.6</ele>
        <time>2021-02-28T10:41:51Z</time>
      </trkpt>
      <trkpt lat="40.2982710" lon="-3.9422370">
        <ele>496.8</ele>
        <time>2021-02-28T10:41:54Z</time>
      </trkpt>
      <trkpt lat="40.2982820" lon="-3.9422110">
        <ele>497.4</ele>
        <time>2021-02-28T10:41:55Z</time>
      </trkpt>
      <trkpt lat="40.2982900" lon="-3.9421840">
        <ele>498.0</ele>
        <time>2021-02-28T10:41:56Z</time>
      </trkpt>
      <trkpt lat="40.2982990" lon="-3.9420930">
        <ele>498.6</ele>
        <time>2021-02-28T10:41:58Z</time>
      </trkpt>
      <trkpt lat="40.2983020" lon="-3.9420440">
        <ele>498.6</ele>
        <time>2021-02-28T10:41:59Z</time>
      </trkpt>
      <trkpt lat="40.2983110" lon="-3.9418420">
        <ele>498.8</ele>
        <time>2021-02-28T10:42:03Z</time>
      </trkpt>
      <trkpt lat="40.2983180" lon="-3.9416090">
        <ele>498.6</ele>
        <time>2021-02-28T10:42:08Z</time>
      </trkpt>
      <trkpt lat="40.2983250" lon="-3.9414810">
        <ele>498.6</ele>
        <time>2021-02-28T10:42:20Z</time>
      </trkpt>
      <trkpt lat="40.2983320" lon="-3.9412310">
        <ele>498.8</ele>
        <time>2021-02-28T10:42:25Z</time>
      </trkpt>
      <trkpt lat="40.2983320" lon="-3.9411210">
        <ele>499.0</ele>
        <time>2021-02-28T10:42:27Z</time>
      </trkpt>
      <trkpt lat="40.2983400" lon="-3.9407880">
        <ele>499.4</ele>
        <time>2021-02-28T10:42:33Z</time>
      </trkpt>
      <trkpt lat="40.2983420" lon="-3.9407340">
        <ele>499.2</ele>
        <time>2021-02-28T10:42:34Z</time>
      </trkpt>
      <trkpt lat="40.2983430" lon="-3.9404630">
        <ele>499.6</ele>
        <time>2021-02-28T10:42:39Z</time>
      </trkpt>
      <trkpt lat="40.2983470" lon="-3.9402530">
        <ele>500.0</ele>
        <time>2021-02-28T10:42:43Z</time>
      </trkpt>
      <trkpt lat="40.2983450" lon="-3.9400950">
        <ele>500.6</ele>
        <time>2021-02-28T10:42:46Z</time>
      </trkpt>
      <trkpt lat="40.2983390" lon="-3.9399340">
        <ele>501.2</ele>
        <time>2021-02-28T10:42:49Z</time>
      </trkpt>
      <trkpt lat="40.2983300" lon="-3.9398770">
        <ele>501.2</ele>
        <time>2021-02-28T10:42:50Z</time>
      </trkpt>
      <trkpt lat="40.2983190" lon="-3.9396170">
        <ele>502.2</ele>
        <time>2021-02-28T10:42:55Z</time>
      </trkpt>
      <trkpt lat="40.2983060" lon="-3.9395700">
        <ele>502.4</ele>
        <time>2021-02-28T10:42:56Z</time>
      </trkpt>
      <trkpt lat="40.2982900" lon="-3.9395220">
        <ele>502.6</ele>
        <time>2021-02-28T10:42:57Z</time>
      </trkpt>
      <trkpt lat="40.2982620" lon="-3.9394420">
        <ele>503.4</ele>
        <time>2021-02-28T10:42:59Z</time>
      </trkpt>
      <trkpt lat="40.2982500" lon="-3.9393080">
        <ele>504.4</ele>
        <time>2021-02-28T10:43:02Z</time>
      </trkpt>
      <trkpt lat="40.2982460" lon="-3.9392650">
        <ele>504.6</ele>
        <time>2021-02-28T10:43:03Z</time>
      </trkpt>
      <trkpt lat="40.2982540" lon="-3.9391300">
        <ele>505.6</ele>
        <time>2021-02-28T10:43:06Z</time>
      </trkpt>
      <trkpt lat="40.2982680" lon="-3.9390410">
        <ele>505.8</ele>
        <time>2021-02-28T10:43:08Z</time>
      </trkpt>
      <trkpt lat="40.2982790" lon="-3.9388080">
        <ele>507.0</ele>
        <time>2021-02-28T10:43:13Z</time>
      </trkpt>
      <trkpt lat="40.2982640" lon="-3.9386760">
        <ele>508.0</ele>
        <time>2021-02-28T10:43:16Z</time>
      </trkpt>
      <trkpt lat="40.2982610" lon="-3.9386340">
        <ele>508.2</ele>
        <time>2021-02-28T10:43:17Z</time>
      </trkpt>
      <trkpt lat="40.2982070" lon="-3.9383900">
        <ele>509.4</ele>
        <time>2021-02-28T10:43:23Z</time>
      </trkpt>
      <trkpt lat="40.2981570" lon="-3.9381940">
        <ele>510.6</ele>
        <time>2021-02-28T10:43:28Z</time>
      </trkpt>
      <trkpt lat="40.2980690" lon="-3.9379750">
        <ele>511.6</ele>
        <time>2021-02-28T10:43:34Z</time>
      </trkpt>
      <trkpt lat="40.2980070" lon="-3.9378710">
        <ele>513.0</ele>
        <time>2021-02-28T10:43:37Z</time>
      </trkpt>
      <trkpt lat="40.2979380" lon="-3.9377750">
        <ele>513.8</ele>
        <time>2021-02-28T10:43:40Z</time>
      </trkpt>
      <trkpt lat="40.2978760" lon="-3.9376810">
        <ele>514.2</ele>
        <time>2021-02-28T10:43:43Z</time>
      </trkpt>
      <trkpt lat="40.2977750" lon="-3.9375690">
        <ele>515.0</ele>
        <time>2021-02-28T10:43:47Z</time>
      </trkpt>
      <trkpt lat="40.2977090" lon="-3.9375310">
        <ele>515.2</ele>
        <time>2021-02-28T10:43:49Z</time>
      </trkpt>
      <trkpt lat="40.2976200" lon="-3.9374670">
        <ele>515.8</ele>
        <time>2021-02-28T10:43:52Z</time>
      </trkpt>
      <trkpt lat="40.2974360" lon="-3.9374090">
        <ele>515.8</ele>
        <time>2021-02-28T10:43:57Z</time>
      </trkpt>
      <trkpt lat="40.2973500" lon="-3.9373920">
        <ele>515.8</ele>
        <time>2021-02-28T10:43:59Z</time>
      </trkpt>
      <trkpt lat="40.2972010" lon="-3.9374010">
        <ele>515.2</ele>
        <time>2021-02-28T10:44:02Z</time>
      </trkpt>
      <trkpt lat="40.2969930" lon="-3.9374230">
        <ele>515.0</ele>
        <time>2021-02-28T10:44:06Z</time>
      </trkpt>
      <trkpt lat="40.2968890" lon="-3.9374520">
        <ele>514.8</ele>
        <time>2021-02-28T10:44:08Z</time>
      </trkpt>
      <trkpt lat="40.2967390" lon="-3.9374950">
        <ele>515.0</ele>
        <time>2021-02-28T10:44:11Z</time>
      </trkpt>
      <trkpt lat="40.2965890" lon="-3.9375580">
        <ele>515.2</ele>
        <time>2021-02-28T10:44:14Z</time>
      </trkpt>
      <trkpt lat="40.2964350" lon="-3.9376050">
        <ele>515.6</ele>
        <time>2021-02-28T10:44:17Z</time>
      </trkpt>
      <trkpt lat="40.2963310" lon="-3.9376490">
        <ele>515.6</ele>
        <time>2021-02-28T10:44:19Z</time>
      </trkpt>
      <trkpt lat="40.2960520" lon="-3.9376760">
        <ele>515.6</ele>
        <time>2021-02-28T10:44:24Z</time>
      </trkpt>
      <trkpt lat="40.2958390" lon="-3.9376970">
        <ele>515.8</ele>
        <time>2021-02-28T10:44:28Z</time>
      </trkpt>
      <trkpt lat="40.2957870" lon="-3.9377100">
        <ele>516.0</ele>
        <time>2021-02-28T10:44:29Z</time>
      </trkpt>
      <trkpt lat="40.2956850" lon="-3.9377070">
        <ele>516.6</ele>
        <time>2021-02-28T10:44:31Z</time>
      </trkpt>
      <trkpt lat="40.2956410" lon="-3.9376950">
        <ele>517.0</ele>
        <time>2021-02-28T10:44:32Z</time>
      </trkpt>
      <trkpt lat="40.2955520" lon="-3.9376900">
        <ele>517.4</ele>
        <time>2021-02-28T10:44:34Z</time>
      </trkpt>
      <trkpt lat="40.2955160" lon="-3.9376790">
        <ele>517.6</ele>
        <time>2021-02-28T10:44:35Z</time>
      </trkpt>
      <trkpt lat="40.2954900" lon="-3.9376710">
        <ele>517.8</ele>
        <time>2021-02-28T10:44:36Z</time>
      </trkpt>
      <trkpt lat="40.2953490" lon="-3.9376610">
        <ele>518.2</ele>
        <time>2021-02-28T10:44:41Z</time>
      </trkpt>
      <trkpt lat="40.2953030" lon="-3.9376540">
        <ele>518.4</ele>
        <time>2021-02-28T10:44:42Z</time>
      </trkpt>
      <trkpt lat="40.2952620" lon="-3.9376510">
        <ele>518.8</ele>
        <time>2021-02-28T10:44:43Z</time>
      </trkpt>
      <trkpt lat="40.2951470" lon="-3.9376390">
        <ele>519.4</ele>
        <time>2021-02-28T10:44:46Z</time>
      </trkpt>
      <trkpt lat="40.2950830" lon="-3.9376220">
        <ele>520.2</ele>
        <time>2021-02-28T10:44:48Z</time>
      </trkpt>
      <trkpt lat="40.2949160" lon="-3.9375870">
        <ele>520.2</ele>
        <time>2021-02-28T10:44:52Z</time>
      </trkpt>
      <trkpt lat="40.2948240" lon="-3.9375530">
        <ele>520.4</ele>
        <time>2021-02-28T10:44:54Z</time>
      </trkpt>
      <trkpt lat="40.2947600" lon="-3.9375030">
        <ele>521.2</ele>
        <time>2021-02-28T10:44:56Z</time>
      </trkpt>
      <trkpt lat="40.2946210" lon="-3.9374630">
        <ele>521.8</ele>
        <time>2021-02-28T10:45:00Z</time>
      </trkpt>
      <trkpt lat="40.2944650" lon="-3.9374410">
        <ele>521.8</ele>
        <time>2021-02-28T10:45:04Z</time>
      </trkpt>
      <trkpt lat="40.2943810" lon="-3.9374440">
        <ele>522.2</ele>
        <time>2021-02-28T10:45:06Z</time>
      </trkpt>
      <trkpt lat="40.2942970" lon="-3.9374770">
        <ele>522.6</ele>
        <time>2021-02-28T10:45:08Z</time>
      </trkpt>
      <trkpt lat="40.2942050" lon="-3.9375010">
        <ele>522.8</ele>
        <time>2021-02-28T10:45:10Z</time>
      </trkpt>
      <trkpt lat="40.2940600" lon="-3.9374780">
        <ele>523.2</ele>
        <time>2021-02-28T10:45:13Z</time>
      </trkpt>
      <trkpt lat="40.2939360" lon="-3.9373770">
        <ele>523.4</ele>
        <time>2021-02-28T10:45:16Z</time>
      </trkpt>
      <trkpt lat="40.2938950" lon="-3.9373430">
        <ele>523.4</ele>
        <time>2021-02-28T10:45:17Z</time>
      </trkpt>
      <trkpt lat="40.2935610" lon="-3.9371350">
        <ele>522.8</ele>
        <time>2021-02-28T10:45:24Z</time>
      </trkpt>
      <trkpt lat="40.2933300" lon="-3.9370450">
        <ele>521.8</ele>
        <time>2021-02-28T10:45:28Z</time>
      </trkpt>
      <trkpt lat="40.2932070" lon="-3.9370130">
        <ele>522.0</ele>
        <time>2021-02-28T10:45:30Z</time>
      </trkpt>
      <trkpt lat="40.2929000" lon="-3.9369180">
        <ele>521.4</ele>
        <time>2021-02-28T10:45:35Z</time>
      </trkpt>
      <trkpt lat="40.2928340" lon="-3.9369150">
        <ele>521.2</ele>
        <time>2021-02-28T10:45:36Z</time>
      </trkpt>
      <trkpt lat="40.2926610" lon="-3.9369200">
        <ele>521.2</ele>
        <time>2021-02-28T10:45:39Z</time>
      </trkpt>
      <trkpt lat="40.2925540" lon="-3.9369430">
        <ele>521.2</ele>
        <time>2021-02-28T10:45:41Z</time>
      </trkpt>
      <trkpt lat="40.2921950" lon="-3.9369660">
        <ele>521.8</ele>
        <time>2021-02-28T10:45:47Z</time>
      </trkpt>
      <trkpt lat="40.2920730" lon="-3.9369870">
        <ele>521.8</ele>
        <time>2021-02-28T10:45:49Z</time>
      </trkpt>
      <trkpt lat="40.2918870" lon="-3.9370360">
        <ele>521.8</ele>
        <time>2021-02-28T10:45:52Z</time>
      </trkpt>
      <trkpt lat="40.2914990" lon="-3.9371410">
        <ele>522.2</ele>
        <time>2021-02-28T10:45:58Z</time>
      </trkpt>
      <trkpt lat="40.2911310" lon="-3.9372220">
        <ele>523.2</ele>
        <time>2021-02-28T10:46:04Z</time>
      </trkpt>
      <trkpt lat="40.2910800" lon="-3.9372340">
        <ele>523.8</ele>
        <time>2021-02-28T10:46:05Z</time>
      </trkpt>
      <trkpt lat="40.2908620" lon="-3.9372930">
        <ele>524.6</ele>
        <time>2021-02-28T10:46:09Z</time>
      </trkpt>
      <trkpt lat="40.2908120" lon="-3.9373200">
        <ele>524.8</ele>
        <time>2021-02-28T10:46:10Z</time>
      </trkpt>
      <trkpt lat="40.2905700" lon="-3.9373750">
        <ele>523.8</ele>
        <time>2021-02-28T10:46:14Z</time>
      </trkpt>
      <trkpt lat="40.2905100" lon="-3.9374020">
        <ele>523.6</ele>
        <time>2021-02-28T10:46:15Z</time>
      </trkpt>
      <trkpt lat="40.2903490" lon="-3.9374490">
        <ele>524.4</ele>
        <time>2021-02-28T10:46:18Z</time>
      </trkpt>
      <trkpt lat="40.2902140" lon="-3.9374770">
        <ele>525.8</ele>
        <time>2021-02-28T10:46:21Z</time>
      </trkpt>
      <trkpt lat="40.2901280" lon="-3.9374890">
        <ele>526.6</ele>
        <time>2021-02-28T10:46:23Z</time>
      </trkpt>
      <trkpt lat="40.2900760" lon="-3.9374890">
        <ele>527.0</ele>
        <time>2021-02-28T10:46:24Z</time>
      </trkpt>
      <trkpt lat="40.2898420" lon="-3.9374790">
        <ele>526.6</ele>
        <time>2021-02-28T10:46:28Z</time>
      </trkpt>
      <trkpt lat="40.2897250" lon="-3.9374740">
        <ele>526.8</ele>
        <time>2021-02-28T10:46:30Z</time>
      </trkpt>
      <trkpt lat="40.2895360" lon="-3.9374270">
        <ele>528.4</ele>
        <time>2021-02-28T10:46:34Z</time>
      </trkpt>
      <trkpt lat="40.2895050" lon="-3.9374120">
        <ele>529.0</ele>
        <time>2021-02-28T10:46:35Z</time>
      </trkpt>
      <trkpt lat="40.2893120" lon="-3.9374340">
        <ele>528.0</ele>
        <time>2021-02-28T10:46:39Z</time>
      </trkpt>
      <trkpt lat="40.2892550" lon="-3.9374110">
        <ele>527.2</ele>
        <time>2021-02-28T10:46:40Z</time>
      </trkpt>
      <trkpt lat="40.2891340" lon="-3.9373260">
        <ele>525.2</ele>
        <time>2021-02-28T10:46:42Z</time>
      </trkpt>
      <trkpt lat="40.2890640" lon="-3.9373150">
        <ele>524.4</ele>
        <time>2021-02-28T10:46:43Z</time>
      </trkpt>
      <trkpt lat="40.2889930" lon="-3.9373260">
        <ele>523.2</ele>
        <time>2021-02-28T10:46:44Z</time>
      </trkpt>
      <trkpt lat="40.2889240" lon="-3.9373370">
        <ele>522.4</ele>
        <time>2021-02-28T10:46:45Z</time>
      </trkpt>
      <trkpt lat="40.2888550" lon="-3.9373370">
        <ele>521.6</ele>
        <time>2021-02-28T10:46:46Z</time>
      </trkpt>
      <trkpt lat="40.2887100" lon="-3.9372960">
        <ele>520.2</ele>
        <time>2021-02-28T10:46:48Z</time>
      </trkpt>
      <trkpt lat="40.2886370" lon="-3.9372660">
        <ele>518.4</ele>
        <time>2021-02-28T10:46:49Z</time>
      </trkpt>
      <trkpt lat="40.2885600" lon="-3.9372140">
        <ele>517.2</ele>
        <time>2021-02-28T10:46:50Z</time>
      </trkpt>
      <trkpt lat="40.2884140" lon="-3.9371420">
        <ele>515.6</ele>
        <time>2021-02-28T10:46:52Z</time>
      </trkpt>
      <trkpt lat="40.2882980" lon="-3.9370910">
        <ele>514.2</ele>
        <time>2021-02-28T10:46:54Z</time>
      </trkpt>
      <trkpt lat="40.2882540" lon="-3.9370460">
        <ele>513.8</ele>
        <time>2021-02-28T10:46:55Z</time>
      </trkpt>
      <trkpt lat="40.2882040" lon="-3.9369900">
        <ele>513.2</ele>
        <time>2021-02-28T10:46:56Z</time>
      </trkpt>
      <trkpt lat="40.2880600" lon="-3.9368160">
        <ele>512.4</ele>
        <time>2021-02-28T10:46:59Z</time>
      </trkpt>
      <trkpt lat="40.2880340" lon="-3.9367230">
        <ele>512.2</ele>
        <time>2021-02-28T10:47:01Z</time>
      </trkpt>
      <trkpt lat="40.2880290" lon="-3.9366840">
        <ele>512.4</ele>
        <time>2021-02-28T10:47:02Z</time>
      </trkpt>
      <trkpt lat="40.2880010" lon="-3.9366310">
        <ele>512.6</ele>
        <time>2021-02-28T10:47:05Z</time>
      </trkpt>
      <trkpt lat="40.2880070" lon="-3.9366390">
        <ele>512.4</ele>
        <time>2021-02-28T10:47:06Z</time>
      </trkpt>
      <trkpt lat="40.2879810" lon="-3.9365770">
        <ele>512.6</ele>
        <time>2021-02-28T10:47:18Z</time>
      </trkpt>
      <trkpt lat="40.2879800" lon="-3.9365440">
        <ele>512.6</ele>
        <time>2021-02-28T10:47:19Z</time>
      </trkpt>
      <trkpt lat="40.2879800" lon="-3.9365110">
        <ele>512.8</ele>
        <time>2021-02-28T10:47:20Z</time>
      </trkpt>
      <trkpt lat="40.2879950" lon="-3.9362140">
        <ele>513.4</ele>
        <time>2021-02-28T10:47:27Z</time>
      </trkpt>
      <trkpt lat="40.2881320" lon="-3.9360930">
        <ele>514.0</ele>
        <time>2021-02-28T10:47:31Z</time>
      </trkpt>
      <trkpt lat="40.2882260" lon="-3.9359900">
        <ele>514.4</ele>
        <time>2021-02-28T10:47:36Z</time>
      </trkpt>
      <trkpt lat="40.2882510" lon="-3.9359700">
        <ele>514.6</ele>
        <time>2021-02-28T10:47:37Z</time>
      </trkpt>
      <trkpt lat="40.2883530" lon="-3.9359020">
        <ele>515.6</ele>
        <time>2021-02-28T10:47:41Z</time>
      </trkpt>
      <trkpt lat="40.2883790" lon="-3.9358860">
        <ele>516.0</ele>
        <time>2021-02-28T10:47:42Z</time>
      </trkpt>
      <trkpt lat="40.2884600" lon="-3.9358360">
        <ele>516.8</ele>
        <time>2021-02-28T10:47:45Z</time>
      </trkpt>
      <trkpt lat="40.2885710" lon="-3.9357860">
        <ele>518.0</ele>
        <time>2021-02-28T10:47:49Z</time>
      </trkpt>
      <trkpt lat="40.2885980" lon="-3.9357850">
        <ele>518.2</ele>
        <time>2021-02-28T10:47:50Z</time>
      </trkpt>
      <trkpt lat="40.2886810" lon="-3.9357880">
        <ele>519.2</ele>
        <time>2021-02-28T10:47:53Z</time>
      </trkpt>
      <trkpt lat="40.2887580" lon="-3.9357890">
        <ele>520.4</ele>
        <time>2021-02-28T10:47:56Z</time>
      </trkpt>
      <trkpt lat="40.2887820" lon="-3.9357870">
        <ele>521.0</ele>
        <time>2021-02-28T10:47:57Z</time>
      </trkpt>
      <trkpt lat="40.2888300" lon="-3.9357870">
        <ele>521.6</ele>
        <time>2021-02-28T10:47:59Z</time>
      </trkpt>
      <trkpt lat="40.2889500" lon="-3.9357740">
        <ele>522.6</ele>
        <time>2021-02-28T10:48:04Z</time>
      </trkpt>
      <trkpt lat="40.2889740" lon="-3.9357790">
        <ele>522.8</ele>
        <time>2021-02-28T10:48:05Z</time>
      </trkpt>
      <trkpt lat="40.2890810" lon="-3.9358190">
        <ele>524.0</ele>
        <time>2021-02-28T10:48:10Z</time>
      </trkpt>
      <trkpt lat="40.2891190" lon="-3.9358490">
        <ele>524.4</ele>
        <time>2021-02-28T10:48:12Z</time>
      </trkpt>
      <trkpt lat="40.2891780" lon="-3.9358940">
        <ele>525.2</ele>
        <time>2021-02-28T10:48:15Z</time>
      </trkpt>
      <trkpt lat="40.2892740" lon="-3.9359350">
        <ele>526.2</ele>
        <time>2021-02-28T10:48:20Z</time>
      </trkpt>
      <trkpt lat="40.2893540" lon="-3.9360580">
        <ele>527.4</ele>
        <time>2021-02-28T10:48:25Z</time>
      </trkpt>
      <trkpt lat="40.2895030" lon="-3.9361510">
        <ele>528.8</ele>
        <time>2021-02-28T10:48:32Z</time>
      </trkpt>
      <trkpt lat="40.2895760" lon="-3.9361580">
        <ele>529.8</ele>
        <time>2021-02-28T10:48:35Z</time>
      </trkpt>
      <trkpt lat="40.2896680" lon="-3.9361640">
        <ele>530.8</ele>
        <time>2021-02-28T10:48:39Z</time>
      </trkpt>
      <trkpt lat="40.2897500" lon="-3.9361490">
        <ele>532.2</ele>
        <time>2021-02-28T10:48:43Z</time>
      </trkpt>
      <trkpt lat="40.2898560" lon="-3.9361060">
        <ele>533.4</ele>
        <time>2021-02-28T10:48:48Z</time>
      </trkpt>
      <trkpt lat="40.2899120" lon="-3.9360660">
        <ele>534.6</ele>
        <time>2021-02-28T10:48:51Z</time>
      </trkpt>
      <trkpt lat="40.2899770" lon="-3.9360110">
        <ele>535.8</ele>
        <time>2021-02-28T10:48:55Z</time>
      </trkpt>
      <trkpt lat="40.2899920" lon="-3.9359940">
        <ele>536.0</ele>
        <time>2021-02-28T10:48:56Z</time>
      </trkpt>
      <trkpt lat="40.2900440" lon="-3.9359490">
        <ele>537.2</ele>
        <time>2021-02-28T10:48:59Z</time>
      </trkpt>
      <trkpt lat="40.2901050" lon="-3.9358750">
        <ele>538.6</ele>
        <time>2021-02-28T10:49:03Z</time>
      </trkpt>
      <trkpt lat="40.2901570" lon="-3.9357810">
        <ele>539.6</ele>
        <time>2021-02-28T10:49:07Z</time>
      </trkpt>
      <trkpt lat="40.2902260" lon="-3.9356740">
        <ele>540.6</ele>
        <time>2021-02-28T10:49:12Z</time>
      </trkpt>
      <trkpt lat="40.2903560" lon="-3.9355270">
        <ele>541.4</ele>
        <time>2021-02-28T10:49:19Z</time>
      </trkpt>
      <trkpt lat="40.2903780" lon="-3.9355070">
        <ele>541.6</ele>
        <time>2021-02-28T10:49:20Z</time>
      </trkpt>
      <trkpt lat="40.2905410" lon="-3.9353170">
        <ele>542.8</ele>
        <time>2021-02-28T10:49:28Z</time>
      </trkpt>
      <trkpt lat="40.2906450" lon="-3.9351740">
        <ele>544.0</ele>
        <time>2021-02-28T10:49:34Z</time>
      </trkpt>
      <trkpt lat="40.2906790" lon="-3.9351230">
        <ele>544.6</ele>
        <time>2021-02-28T10:49:36Z</time>
      </trkpt>
      <trkpt lat="40.2907100" lon="-3.9350760">
        <ele>545.2</ele>
        <time>2021-02-28T10:49:38Z</time>
      </trkpt>
      <trkpt lat="40.2907960" lon="-3.9349520">
        <ele>546.4</ele>
        <time>2021-02-28T10:49:43Z</time>
      </trkpt>
      <trkpt lat="40.2908550" lon="-3.9348900">
        <ele>546.8</ele>
        <time>2021-02-28T10:49:46Z</time>
      </trkpt>
      <trkpt lat="40.2909560" lon="-3.9348310">
        <ele>547.4</ele>
        <time>2021-02-28T10:49:50Z</time>
      </trkpt>
      <trkpt lat="40.2910020" lon="-3.9348060">
        <ele>547.8</ele>
        <time>2021-02-28T10:49:52Z</time>
      </trkpt>
      <trkpt lat="40.2910380" lon="-3.9347560">
        <ele>548.6</ele>
        <time>2021-02-28T10:49:54Z</time>
      </trkpt>
      <trkpt lat="40.2910720" lon="-3.9346720">
        <ele>549.6</ele>
        <time>2021-02-28T10:49:57Z</time>
      </trkpt>
      <trkpt lat="40.2910650" lon="-3.9345270">
        <ele>550.8</ele>
        <time>2021-02-28T10:50:01Z</time>
      </trkpt>
      <trkpt lat="40.2910640" lon="-3.9344880">
        <ele>551.0</ele>
        <time>2021-02-28T10:50:02Z</time>
      </trkpt>
      <trkpt lat="40.2910720" lon="-3.9343550">
        <ele>551.8</ele>
        <time>2021-02-28T10:50:06Z</time>
      </trkpt>
      <trkpt lat="40.2911010" lon="-3.9342270">
        <ele>552.6</ele>
        <time>2021-02-28T10:50:10Z</time>
      </trkpt>
      <trkpt lat="40.2911020" lon="-3.9341620">
        <ele>553.0</ele>
        <time>2021-02-28T10:50:12Z</time>
      </trkpt>
      <trkpt lat="40.2910830" lon="-3.9340690">
        <ele>554.4</ele>
        <time>2021-02-28T10:50:15Z</time>
      </trkpt>
      <trkpt lat="40.2910790" lon="-3.9340370">
        <ele>554.4</ele>
        <time>2021-02-28T10:50:16Z</time>
      </trkpt>
      <trkpt lat="40.2910480" lon="-3.9339520">
        <ele>555.6</ele>
        <time>2021-02-28T10:50:19Z</time>
      </trkpt>
      <trkpt lat="40.2909950" lon="-3.9338660">
        <ele>556.0</ele>
        <time>2021-02-28T10:50:22Z</time>
      </trkpt>
      <trkpt lat="40.2909210" lon="-3.9337400">
        <ele>556.8</ele>
        <time>2021-02-28T10:50:26Z</time>
      </trkpt>
      <trkpt lat="40.2908690" lon="-3.9335610">
        <ele>557.8</ele>
        <time>2021-02-28T10:50:31Z</time>
      </trkpt>
      <trkpt lat="40.2908640" lon="-3.9335250">
        <ele>557.8</ele>
        <time>2021-02-28T10:50:32Z</time>
      </trkpt>
      <trkpt lat="40.2908600" lon="-3.9332940">
        <ele>558.6</ele>
        <time>2021-02-28T10:50:38Z</time>
      </trkpt>
      <trkpt lat="40.2908650" lon="-3.9332580">
        <ele>559.0</ele>
        <time>2021-02-28T10:50:39Z</time>
      </trkpt>
      <trkpt lat="40.2908810" lon="-3.9331600">
        <ele>560.2</ele>
        <time>2021-02-28T10:50:42Z</time>
      </trkpt>
      <trkpt lat="40.2908900" lon="-3.9330980">
        <ele>561.2</ele>
        <time>2021-02-28T10:50:44Z</time>
      </trkpt>
      <trkpt lat="40.2908970" lon="-3.9330670">
        <ele>561.8</ele>
        <time>2021-02-28T10:50:45Z</time>
      </trkpt>
      <trkpt lat="40.2908960" lon="-3.9330010">
        <ele>562.4</ele>
        <time>2021-02-28T10:50:47Z</time>
      </trkpt>
      <trkpt lat="40.2908980" lon="-3.9328630">
        <ele>562.2</ele>
        <time>2021-02-28T10:50:50Z</time>
      </trkpt>
      <trkpt lat="40.2908850" lon="-3.9326770">
        <ele>561.4</ele>
        <time>2021-02-28T10:50:53Z</time>
      </trkpt>
      <trkpt lat="40.2908820" lon="-3.9325630">
        <ele>561.4</ele>
        <time>2021-02-28T10:50:55Z</time>
      </trkpt>
      <trkpt lat="40.2909120" lon="-3.9322730">
        <ele>562.6</ele>
        <time>2021-02-28T10:51:01Z</time>
      </trkpt>
      <trkpt lat="40.2909240" lon="-3.9322330">
        <ele>563.0</ele>
        <time>2021-02-28T10:51:02Z</time>
      </trkpt>
      <trkpt lat="40.2909550" lon="-3.9321580">
        <ele>564.0</ele>
        <time>2021-02-28T10:51:04Z</time>
      </trkpt>
      <trkpt lat="40.2910020" lon="-3.9320600">
        <ele>565.0</ele>
        <time>2021-02-28T10:51:07Z</time>
      </trkpt>
      <trkpt lat="40.2910540" lon="-3.9319670">
        <ele>566.0</ele>
        <time>2021-02-28T10:51:10Z</time>
      </trkpt>
      <trkpt lat="40.2911160" lon="-3.9318800">
        <ele>567.4</ele>
        <time>2021-02-28T10:51:13Z</time>
      </trkpt>
      <trkpt lat="40.2911720" lon="-3.9316810">
        <ele>567.6</ele>
        <time>2021-02-28T10:51:18Z</time>
      </trkpt>
      <trkpt lat="40.2912550" lon="-3.9312710">
        <ele>567.8</ele>
        <time>2021-02-28T10:51:26Z</time>
      </trkpt>
      <trkpt lat="40.2913460" lon="-3.9309890">
        <ele>568.4</ele>
        <time>2021-02-28T10:51:32Z</time>
      </trkpt>
      <trkpt lat="40.2913670" lon="-3.9309470">
        <ele>568.4</ele>
        <time>2021-02-28T10:51:33Z</time>
      </trkpt>
      <trkpt lat="40.2914660" lon="-3.9307240">
        <ele>569.4</ele>
        <time>2021-02-28T10:51:38Z</time>
      </trkpt>
      <trkpt lat="40.2915540" lon="-3.9305470">
        <ele>569.8</ele>
        <time>2021-02-28T10:51:42Z</time>
      </trkpt>
      <trkpt lat="40.2916510" lon="-3.9303100">
        <ele>570.4</ele>
        <time>2021-02-28T10:51:47Z</time>
      </trkpt>
      <trkpt lat="40.2916870" lon="-3.9301540">
        <ele>570.4</ele>
        <time>2021-02-28T10:51:50Z</time>
      </trkpt>
      <trkpt lat="40.2916530" lon="-3.9299220">
        <ele>570.2</ele>
        <time>2021-02-28T10:51:54Z</time>
      </trkpt>
      <trkpt lat="40.2916440" lon="-3.9298600">
        <ele>570.2</ele>
        <time>2021-02-28T10:51:55Z</time>
      </trkpt>
      <trkpt lat="40.2916080" lon="-3.9295310">
        <ele>570.4</ele>
        <time>2021-02-28T10:52:01Z</time>
      </trkpt>
      <trkpt lat="40.2915860" lon="-3.9294260">
        <ele>571.0</ele>
        <time>2021-02-28T10:52:03Z</time>
      </trkpt>
      <trkpt lat="40.2915140" lon="-3.9291730">
        <ele>571.6</ele>
        <time>2021-02-28T10:52:08Z</time>
      </trkpt>
      <trkpt lat="40.2914460" lon="-3.9289630">
        <ele>571.2</ele>
        <time>2021-02-28T10:52:12Z</time>
      </trkpt>
      <trkpt lat="40.2913440" lon="-3.9286850">
        <ele>571.4</ele>
        <time>2021-02-28T10:52:17Z</time>
      </trkpt>
      <trkpt lat="40.2913290" lon="-3.9286220">
        <ele>571.0</ele>
        <time>2021-02-28T10:52:18Z</time>
      </trkpt>
      <trkpt lat="40.2912990" lon="-3.9284790">
        <ele>570.2</ele>
        <time>2021-02-28T10:52:20Z</time>
      </trkpt>
      <trkpt lat="40.2913150" lon="-3.9283490">
        <ele>570.2</ele>
        <time>2021-02-28T10:52:22Z</time>
      </trkpt>
      <trkpt lat="40.2912870" lon="-3.9281100">
        <ele>570.8</ele>
        <time>2021-02-28T10:52:26Z</time>
      </trkpt>
      <trkpt lat="40.2912730" lon="-3.9280540">
        <ele>571.0</ele>
        <time>2021-02-28T10:52:27Z</time>
      </trkpt>
      <trkpt lat="40.2912400" lon="-3.9279470">
        <ele>571.4</ele>
        <time>2021-02-28T10:52:29Z</time>
      </trkpt>
      <trkpt lat="40.2912300" lon="-3.9278900">
        <ele>571.6</ele>
        <time>2021-02-28T10:52:30Z</time>
      </trkpt>
      <trkpt lat="40.2912190" lon="-3.9277230">
        <ele>572.4</ele>
        <time>2021-02-28T10:52:33Z</time>
      </trkpt>
      <trkpt lat="40.2912320" lon="-3.9276710">
        <ele>572.4</ele>
        <time>2021-02-28T10:52:34Z</time>
      </trkpt>
      <trkpt lat="40.2912350" lon="-3.9275200">
        <ele>573.4</ele>
        <time>2021-02-28T10:52:37Z</time>
      </trkpt>
      <trkpt lat="40.2912280" lon="-3.9274730">
        <ele>573.6</ele>
        <time>2021-02-28T10:52:38Z</time>
      </trkpt>
      <trkpt lat="40.2912140" lon="-3.9273330">
        <ele>574.8</ele>
        <time>2021-02-28T10:52:41Z</time>
      </trkpt>
      <trkpt lat="40.2912120" lon="-3.9271920">
        <ele>575.6</ele>
        <time>2021-02-28T10:52:44Z</time>
      </trkpt>
      <trkpt lat="40.2912150" lon="-3.9271480">
        <ele>576.2</ele>
        <time>2021-02-28T10:52:45Z</time>
      </trkpt>
      <trkpt lat="40.2912100" lon="-3.9270050">
        <ele>577.2</ele>
        <time>2021-02-28T10:52:48Z</time>
      </trkpt>
      <trkpt lat="40.2912150" lon="-3.9268650">
        <ele>578.4</ele>
        <time>2021-02-28T10:52:51Z</time>
      </trkpt>
      <trkpt lat="40.2912370" lon="-3.9267390">
        <ele>579.0</ele>
        <time>2021-02-28T10:52:54Z</time>
      </trkpt>
      <trkpt lat="40.2912540" lon="-3.9266640">
        <ele>579.6</ele>
        <time>2021-02-28T10:52:56Z</time>
      </trkpt>
      <trkpt lat="40.2912960" lon="-3.9265690">
        <ele>580.6</ele>
        <time>2021-02-28T10:52:59Z</time>
      </trkpt>
      <trkpt lat="40.2913110" lon="-3.9265380">
        <ele>580.6</ele>
        <time>2021-02-28T10:53:00Z</time>
      </trkpt>
      <trkpt lat="40.2913890" lon="-3.9263730">
        <ele>581.8</ele>
        <time>2021-02-28T10:53:05Z</time>
      </trkpt>
      <trkpt lat="40.2914070" lon="-3.9263030">
        <ele>582.2</ele>
        <time>2021-02-28T10:53:07Z</time>
      </trkpt>
      <trkpt lat="40.2914220" lon="-3.9262310">
        <ele>583.0</ele>
        <time>2021-02-28T10:53:09Z</time>
      </trkpt>
      <trkpt lat="40.2914430" lon="-3.9260430">
        <ele>584.4</ele>
        <time>2021-02-28T10:53:14Z</time>
      </trkpt>
      <trkpt lat="40.2914710" lon="-3.9258880">
        <ele>585.4</ele>
        <time>2021-02-28T10:53:18Z</time>
      </trkpt>
      <trkpt lat="40.2914820" lon="-3.9257230">
        <ele>586.0</ele>
        <time>2021-02-28T10:53:22Z</time>
      </trkpt>
      <trkpt lat="40.2914880" lon="-3.9256410">
        <ele>586.6</ele>
        <time>2021-02-28T10:53:24Z</time>
      </trkpt>
      <trkpt lat="40.2914700" lon="-3.9254780">
        <ele>587.2</ele>
        <time>2021-02-28T10:53:28Z</time>
      </trkpt>
      <trkpt lat="40.2914310" lon="-3.9252860">
        <ele>587.8</ele>
        <time>2021-02-28T10:53:33Z</time>
      </trkpt>
      <trkpt lat="40.2914060" lon="-3.9251750">
        <ele>588.2</ele>
        <time>2021-02-28T10:53:36Z</time>
      </trkpt>
      <trkpt lat="40.2913340" lon="-3.9249590">
        <ele>588.6</ele>
        <time>2021-02-28T10:53:41Z</time>
      </trkpt>
      <trkpt lat="40.2912950" lon="-3.9248580">
        <ele>588.4</ele>
        <time>2021-02-28T10:53:43Z</time>
      </trkpt>
      <trkpt lat="40.2911930" lon="-3.9245950">
        <ele>588.6</ele>
        <time>2021-02-28T10:53:48Z</time>
      </trkpt>
      <trkpt lat="40.2911710" lon="-3.9245460">
        <ele>588.8</ele>
        <time>2021-02-28T10:53:49Z</time>
      </trkpt>
      <trkpt lat="40.2911200" lon="-3.9244440">
        <ele>589.0</ele>
        <time>2021-02-28T10:53:51Z</time>
      </trkpt>
      <trkpt lat="40.2908900" lon="-3.9240910">
        <ele>588.4</ele>
        <time>2021-02-28T10:53:58Z</time>
      </trkpt>
      <trkpt lat="40.2906350" lon="-3.9237040">
        <ele>588.6</ele>
        <time>2021-02-28T10:54:06Z</time>
      </trkpt>
      <trkpt lat="40.2905060" lon="-3.9235080">
        <ele>589.0</ele>
        <time>2021-02-28T10:54:10Z</time>
      </trkpt>
      <trkpt lat="40.2904540" lon="-3.9234040">
        <ele>589.0</ele>
        <time>2021-02-28T10:54:12Z</time>
      </trkpt>
      <trkpt lat="40.2904240" lon="-3.9233590">
        <ele>589.0</ele>
        <time>2021-02-28T10:54:13Z</time>
      </trkpt>
      <trkpt lat="40.2902640" lon="-3.9231160">
        <ele>589.8</ele>
        <time>2021-02-28T10:54:18Z</time>
      </trkpt>
      <trkpt lat="40.2902110" lon="-3.9230010">
        <ele>590.0</ele>
        <time>2021-02-28T10:54:20Z</time>
      </trkpt>
      <trkpt lat="40.2901760" lon="-3.9228810">
        <ele>590.4</ele>
        <time>2021-02-28T10:54:22Z</time>
      </trkpt>
      <trkpt lat="40.2901490" lon="-3.9227570">
        <ele>590.8</ele>
        <time>2021-02-28T10:54:24Z</time>
      </trkpt>
      <trkpt lat="40.2901250" lon="-3.9226350">
        <ele>591.2</ele>
        <time>2021-02-28T10:54:26Z</time>
      </trkpt>
      <trkpt lat="40.2900850" lon="-3.9223940">
        <ele>592.0</ele>
        <time>2021-02-28T10:54:30Z</time>
      </trkpt>
      <trkpt lat="40.2900750" lon="-3.9223310">
        <ele>592.2</ele>
        <time>2021-02-28T10:54:31Z</time>
      </trkpt>
      <trkpt lat="40.2900330" lon="-3.9219560">
        <ele>592.8</ele>
        <time>2021-02-28T10:54:37Z</time>
      </trkpt>
      <trkpt lat="40.2900390" lon="-3.9217680">
        <ele>593.2</ele>
        <time>2021-02-28T10:54:40Z</time>
      </trkpt>
      <trkpt lat="40.2900900" lon="-3.9212450">
        <ele>593.8</ele>
        <time>2021-02-28T10:54:48Z</time>
      </trkpt>
      <trkpt lat="40.2901020" lon="-3.9211220">
        <ele>594.4</ele>
        <time>2021-02-28T10:54:50Z</time>
      </trkpt>
      <trkpt lat="40.2901110" lon="-3.9209260">
        <ele>594.6</ele>
        <time>2021-02-28T10:54:53Z</time>
      </trkpt>
      <trkpt lat="40.2900960" lon="-3.9207910">
        <ele>594.4</ele>
        <time>2021-02-28T10:54:55Z</time>
      </trkpt>
      <trkpt lat="40.2900720" lon="-3.9206690">
        <ele>594.6</ele>
        <time>2021-02-28T10:54:57Z</time>
      </trkpt>
      <trkpt lat="40.2899930" lon="-3.9204480">
        <ele>595.6</ele>
        <time>2021-02-28T10:55:01Z</time>
      </trkpt>
      <trkpt lat="40.2898750" lon="-3.9200470">
        <ele>596.2</ele>
        <time>2021-02-28T10:55:08Z</time>
      </trkpt>
      <trkpt lat="40.2897640" lon="-3.9198290">
        <ele>596.6</ele>
        <time>2021-02-28T10:55:12Z</time>
      </trkpt>
      <trkpt lat="40.2896830" lon="-3.9196510">
        <ele>596.2</ele>
        <time>2021-02-28T10:55:15Z</time>
      </trkpt>
      <trkpt lat="40.2895920" lon="-3.9194730">
        <ele>596.2</ele>
        <time>2021-02-28T10:55:18Z</time>
      </trkpt>
      <trkpt lat="40.2895370" lon="-3.9193530">
        <ele>596.4</ele>
        <time>2021-02-28T10:55:20Z</time>
      </trkpt>
      <trkpt lat="40.2894400" lon="-3.9190510">
        <ele>596.4</ele>
        <time>2021-02-28T10:55:25Z</time>
      </trkpt>
      <trkpt lat="40.2894300" lon="-3.9189850">
        <ele>596.4</ele>
        <time>2021-02-28T10:55:26Z</time>
      </trkpt>
      <trkpt lat="40.2894110" lon="-3.9185770">
        <ele>596.4</ele>
        <time>2021-02-28T10:55:32Z</time>
      </trkpt>
      <trkpt lat="40.2893490" lon="-3.9180970">
        <ele>596.2</ele>
        <time>2021-02-28T10:55:39Z</time>
      </trkpt>
      <trkpt lat="40.2893460" lon="-3.9179530">
        <ele>595.6</ele>
        <time>2021-02-28T10:55:41Z</time>
      </trkpt>
      <trkpt lat="40.2893800" lon="-3.9177520">
        <ele>595.8</ele>
        <time>2021-02-28T10:55:44Z</time>
      </trkpt>
      <trkpt lat="40.2893940" lon="-3.9176930">
        <ele>595.8</ele>
        <time>2021-02-28T10:55:45Z</time>
      </trkpt>
      <trkpt lat="40.2894190" lon="-3.9176400">
        <ele>595.8</ele>
        <time>2021-02-28T10:55:46Z</time>
      </trkpt>
      <trkpt lat="40.2894620" lon="-3.9175400">
        <ele>595.6</ele>
        <time>2021-02-28T10:55:48Z</time>
      </trkpt>
      <trkpt lat="40.2894670" lon="-3.9174460">
        <ele>594.8</ele>
        <time>2021-02-28T10:55:51Z</time>
      </trkpt>
      <trkpt lat="40.2895060" lon="-3.9174530">
        <ele>594.6</ele>
        <time>2021-02-28T10:55:53Z</time>
      </trkpt>
      <trkpt lat="40.2895280" lon="-3.9174510">
        <ele>594.2</ele>
        <time>2021-02-28T10:55:55Z</time>
      </trkpt>
      <trkpt lat="40.2895280" lon="-3.9173350">
        <ele>594.4</ele>
        <time>2021-02-28T10:55:58Z</time>
      </trkpt>
      <trkpt lat="40.2895060" lon="-3.9172490">
        <ele>594.6</ele>
        <time>2021-02-28T10:56:00Z</time>
      </trkpt>
      <trkpt lat="40.2894780" lon="-3.9172290">
        <ele>594.6</ele>
        <time>2021-02-28T10:56:01Z</time>
      </trkpt>
      <trkpt lat="40.2894420" lon="-3.9172340">
        <ele>594.0</ele>
        <time>2021-02-28T10:56:02Z</time>
      </trkpt>
      <trkpt lat="40.2893040" lon="-3.9172820">
        <ele>593.6</ele>
        <time>2021-02-28T10:56:05Z</time>
      </trkpt>
      <trkpt lat="40.2891910" lon="-3.9172950">
        <ele>593.6</ele>
        <time>2021-02-28T10:56:07Z</time>
      </trkpt>
      <trkpt lat="40.2889510" lon="-3.9173090">
        <ele>593.2</ele>
        <time>2021-02-28T10:56:11Z</time>
      </trkpt>
      <trkpt lat="40.2887570" lon="-3.9173360">
        <ele>592.6</ele>
        <time>2021-02-28T10:56:14Z</time>
      </trkpt>
      <trkpt lat="40.2884750" lon="-3.9173590">
        <ele>592.0</ele>
        <time>2021-02-28T10:56:18Z</time>
      </trkpt>
      <trkpt lat="40.2880210" lon="-3.9174120">
        <ele>591.4</ele>
        <time>2021-02-28T10:56:24Z</time>
      </trkpt>
      <trkpt lat="40.2877970" lon="-3.9174410">
        <ele>590.8</ele>
        <time>2021-02-28T10:56:27Z</time>
      </trkpt>
      <trkpt lat="40.2877280" lon="-3.9174620">
        <ele>590.8</ele>
        <time>2021-02-28T10:56:28Z</time>
      </trkpt>
      <trkpt lat="40.2876000" lon="-3.9175500">
        <ele>590.2</ele>
        <time>2021-02-28T10:56:30Z</time>
      </trkpt>
      <trkpt lat="40.2875400" lon="-3.9175960">
        <ele>589.8</ele>
        <time>2021-02-28T10:56:31Z</time>
      </trkpt>
      <trkpt lat="40.2874720" lon="-3.9176160">
        <ele>589.4</ele>
        <time>2021-02-28T10:56:32Z</time>
      </trkpt>
      <trkpt lat="40.2873430" lon="-3.9175630">
        <ele>589.6</ele>
        <time>2021-02-28T10:56:34Z</time>
      </trkpt>
      <trkpt lat="40.2872830" lon="-3.9174160">
        <ele>590.0</ele>
        <time>2021-02-28T10:56:36Z</time>
      </trkpt>
      <trkpt lat="40.2873420" lon="-3.9171780">
        <ele>590.0</ele>
        <time>2021-02-28T10:56:39Z</time>
      </trkpt>
      <trkpt lat="40.2873710" lon="-3.9171050">
        <ele>590.2</ele>
        <time>2021-02-28T10:56:40Z</time>
      </trkpt>
      <trkpt lat="40.2874150" lon="-3.9169480">
        <ele>590.0</ele>
        <time>2021-02-28T10:56:42Z</time>
      </trkpt>
      <trkpt lat="40.2874180" lon="-3.9167810">
        <ele>590.0</ele>
        <time>2021-02-28T10:56:44Z</time>
      </trkpt>
      <trkpt lat="40.2874040" lon="-3.9164500">
        <ele>589.6</ele>
        <time>2021-02-28T10:56:48Z</time>
      </trkpt>
      <trkpt lat="40.2874000" lon="-3.9163670">
        <ele>589.6</ele>
        <time>2021-02-28T10:56:49Z</time>
      </trkpt>
      <trkpt lat="40.2873890" lon="-3.9161110">
        <ele>588.8</ele>
        <time>2021-02-28T10:56:52Z</time>
      </trkpt>
      <trkpt lat="40.2873790" lon="-3.9158450">
        <ele>587.6</ele>
        <time>2021-02-28T10:56:55Z</time>
      </trkpt>
      <trkpt lat="40.2873870" lon="-3.9156630">
        <ele>587.0</ele>
        <time>2021-02-28T10:56:57Z</time>
      </trkpt>
      <trkpt lat="40.2873890" lon="-3.9155680">
        <ele>586.6</ele>
        <time>2021-02-28T10:56:58Z</time>
      </trkpt>
      <trkpt lat="40.2874300" lon="-3.9149910">
        <ele>585.4</ele>
        <time>2021-02-28T10:57:04Z</time>
      </trkpt>
      <trkpt lat="40.2874520" lon="-3.9147950">
        <ele>584.6</ele>
        <time>2021-02-28T10:57:06Z</time>
      </trkpt>
      <trkpt lat="40.2874800" lon="-3.9146010">
        <ele>584.2</ele>
        <time>2021-02-28T10:57:08Z</time>
      </trkpt>
      <trkpt lat="40.2875220" lon="-3.9143190">
        <ele>583.0</ele>
        <time>2021-02-28T10:57:11Z</time>
      </trkpt>
      <trkpt lat="40.2875550" lon="-3.9140330">
        <ele>581.6</ele>
        <time>2021-02-28T10:57:14Z</time>
      </trkpt>
      <trkpt lat="40.2875770" lon="-3.9136600">
        <ele>580.4</ele>
        <time>2021-02-28T10:57:18Z</time>
      </trkpt>
      <trkpt lat="40.2876010" lon="-3.9132730">
        <ele>579.4</ele>
        <time>2021-02-28T10:57:22Z</time>
      </trkpt>
      <trkpt lat="40.2876060" lon="-3.9131740">
        <ele>579.0</ele>
        <time>2021-02-28T10:57:23Z</time>
      </trkpt>
      <trkpt lat="40.2876150" lon="-3.9129720">
        <ele>578.2</ele>
        <time>2021-02-28T10:57:25Z</time>
      </trkpt>
      <trkpt lat="40.2876340" lon="-3.9125640">
        <ele>577.0</ele>
        <time>2021-02-28T10:57:29Z</time>
      </trkpt>
      <trkpt lat="40.2876540" lon="-3.9122660">
        <ele>576.0</ele>
        <time>2021-02-28T10:57:32Z</time>
      </trkpt>
      <trkpt lat="40.2876620" lon="-3.9121660">
        <ele>575.6</ele>
        <time>2021-02-28T10:57:33Z</time>
      </trkpt>
      <trkpt lat="40.2876840" lon="-3.9119680">
        <ele>574.8</ele>
        <time>2021-02-28T10:57:35Z</time>
      </trkpt>
      <trkpt lat="40.2877220" lon="-3.9116780">
        <ele>573.4</ele>
        <time>2021-02-28T10:57:38Z</time>
      </trkpt>
      <trkpt lat="40.2877690" lon="-3.9113810">
        <ele>572.8</ele>
        <time>2021-02-28T10:57:41Z</time>
      </trkpt>
      <trkpt lat="40.2878040" lon="-3.9111910">
        <ele>572.2</ele>
        <time>2021-02-28T10:57:43Z</time>
      </trkpt>
      <trkpt lat="40.2878730" lon="-3.9108110">
        <ele>571.0</ele>
        <time>2021-02-28T10:57:47Z</time>
      </trkpt>
      <trkpt lat="40.2879140" lon="-3.9105310">
        <ele>570.0</ele>
        <time>2021-02-28T10:57:50Z</time>
      </trkpt>
      <trkpt lat="40.2879250" lon="-3.9104360">
        <ele>569.4</ele>
        <time>2021-02-28T10:57:51Z</time>
      </trkpt>
      <trkpt lat="40.2879770" lon="-3.9100550">
        <ele>568.4</ele>
        <time>2021-02-28T10:57:55Z</time>
      </trkpt>
      <trkpt lat="40.2880050" lon="-3.9097730">
        <ele>567.6</ele>
        <time>2021-02-28T10:57:58Z</time>
      </trkpt>
      <trkpt lat="40.2879980" lon="-3.9096970">
        <ele>567.4</ele>
        <time>2021-02-28T10:57:59Z</time>
      </trkpt>
      <trkpt lat="40.2879300" lon="-3.9095830">
        <ele>567.6</ele>
        <time>2021-02-28T10:58:01Z</time>
      </trkpt>
      <trkpt lat="40.2878920" lon="-3.9095270">
        <ele>567.2</ele>
        <time>2021-02-28T10:58:02Z</time>
      </trkpt>
      <trkpt lat="40.2878490" lon="-3.9094710">
        <ele>566.8</ele>
        <time>2021-02-28T10:58:03Z</time>
      </trkpt>
      <trkpt lat="40.2877380" lon="-3.9093890">
        <ele>566.4</ele>
        <time>2021-02-28T10:58:05Z</time>
      </trkpt>
      <trkpt lat="40.2876630" lon="-3.9093950">
        <ele>566.0</ele>
        <time>2021-02-28T10:58:06Z</time>
      </trkpt>
      <trkpt lat="40.2875930" lon="-3.9093930">
        <ele>565.8</ele>
        <time>2021-02-28T10:58:07Z</time>
      </trkpt>
      <trkpt lat="40.2873640" lon="-3.9094070">
        <ele>564.8</ele>
        <time>2021-02-28T10:58:10Z</time>
      </trkpt>
      <trkpt lat="40.2871150" lon="-3.9094180">
        <ele>563.6</ele>
        <time>2021-02-28T10:58:13Z</time>
      </trkpt>
      <trkpt lat="40.2868550" lon="-3.9094440">
        <ele>562.4</ele>
        <time>2021-02-28T10:58:16Z</time>
      </trkpt>
      <trkpt lat="40.2867690" lon="-3.9094550">
        <ele>562.0</ele>
        <time>2021-02-28T10:58:17Z</time>
      </trkpt>
      <trkpt lat="40.2865880" lon="-3.9094840">
        <ele>560.8</ele>
        <time>2021-02-28T10:58:19Z</time>
      </trkpt>
      <trkpt lat="40.2863040" lon="-3.9095360">
        <ele>559.6</ele>
        <time>2021-02-28T10:58:22Z</time>
      </trkpt>
      <trkpt lat="40.2861110" lon="-3.9095680">
        <ele>558.8</ele>
        <time>2021-02-28T10:58:24Z</time>
      </trkpt>
      <trkpt lat="40.2860150" lon="-3.9095850">
        <ele>558.4</ele>
        <time>2021-02-28T10:58:25Z</time>
      </trkpt>
      <trkpt lat="40.2858200" lon="-3.9096210">
        <ele>557.2</ele>
        <time>2021-02-28T10:58:27Z</time>
      </trkpt>
      <trkpt lat="40.2855210" lon="-3.9096690">
        <ele>556.0</ele>
        <time>2021-02-28T10:58:30Z</time>
      </trkpt>
      <trkpt lat="40.2852210" lon="-3.9097210">
        <ele>554.6</ele>
        <time>2021-02-28T10:58:33Z</time>
      </trkpt>
      <trkpt lat="40.2849140" lon="-3.9097670">
        <ele>553.4</ele>
        <time>2021-02-28T10:58:36Z</time>
      </trkpt>
      <trkpt lat="40.2847050" lon="-3.9098010">
        <ele>552.6</ele>
        <time>2021-02-28T10:58:38Z</time>
      </trkpt>
      <trkpt lat="40.2846030" lon="-3.9098200">
        <ele>552.0</ele>
        <time>2021-02-28T10:58:39Z</time>
      </trkpt>
      <trkpt lat="40.2844980" lon="-3.9098370">
        <ele>551.6</ele>
        <time>2021-02-28T10:58:40Z</time>
      </trkpt>
      <trkpt lat="40.2842980" lon="-3.9098850">
        <ele>550.8</ele>
        <time>2021-02-28T10:58:42Z</time>
      </trkpt>
      <trkpt lat="40.2841390" lon="-3.9099980">
        <ele>549.4</ele>
        <time>2021-02-28T10:58:44Z</time>
      </trkpt>
      <trkpt lat="40.2839190" lon="-3.9100850">
        <ele>549.2</ele>
        <time>2021-02-28T10:58:47Z</time>
      </trkpt>
      <trkpt lat="40.2837980" lon="-3.9099780">
        <ele>549.4</ele>
        <time>2021-02-28T10:58:49Z</time>
      </trkpt>
      <trkpt lat="40.2837150" lon="-3.9098200">
        <ele>549.2</ele>
        <time>2021-02-28T10:58:51Z</time>
      </trkpt>
      <trkpt lat="40.2836510" lon="-3.9097840">
        <ele>548.8</ele>
        <time>2021-02-28T10:58:52Z</time>
      </trkpt>
      <trkpt lat="40.2835820" lon="-3.9097550">
        <ele>548.8</ele>
        <time>2021-02-28T10:58:53Z</time>
      </trkpt>
      <trkpt lat="40.2833730" lon="-3.9096790">
        <ele>548.2</ele>
        <time>2021-02-28T10:58:56Z</time>
      </trkpt>
      <trkpt lat="40.2830940" lon="-3.9095660">
        <ele>547.6</ele>
        <time>2021-02-28T10:59:00Z</time>
      </trkpt>
      <trkpt lat="40.2828820" lon="-3.9094700">
        <ele>547.2</ele>
        <time>2021-02-28T10:59:03Z</time>
      </trkpt>
      <trkpt lat="40.2825890" lon="-3.9093550">
        <ele>546.8</ele>
        <time>2021-02-28T10:59:07Z</time>
      </trkpt>
      <trkpt lat="40.2822300" lon="-3.9091720">
        <ele>547.2</ele>
        <time>2021-02-28T10:59:12Z</time>
      </trkpt>
      <trkpt lat="40.2818950" lon="-3.9089540">
        <ele>546.2</ele>
        <time>2021-02-28T10:59:17Z</time>
      </trkpt>
      <trkpt lat="40.2817650" lon="-3.9088580">
        <ele>546.4</ele>
        <time>2021-02-28T10:59:19Z</time>
      </trkpt>
      <trkpt lat="40.2813890" lon="-3.9085320">
        <ele>545.2</ele>
        <time>2021-02-28T10:59:25Z</time>
      </trkpt>
      <trkpt lat="40.2812090" lon="-3.9083510">
        <ele>544.2</ele>
        <time>2021-02-28T10:59:28Z</time>
      </trkpt>
      <trkpt lat="40.2810900" lon="-3.9082240">
        <ele>544.0</ele>
        <time>2021-02-28T10:59:30Z</time>
      </trkpt>
      <trkpt lat="40.2807250" lon="-3.9078130">
        <ele>543.4</ele>
        <time>2021-02-28T10:59:36Z</time>
      </trkpt>
      <trkpt lat="40.2806060" lon="-3.9076750">
        <ele>542.4</ele>
        <time>2021-02-28T10:59:38Z</time>
      </trkpt>
      <trkpt lat="40.2804230" lon="-3.9074780">
        <ele>541.8</ele>
        <time>2021-02-28T10:59:41Z</time>
      </trkpt>
      <trkpt lat="40.2803510" lon="-3.9074400">
        <ele>541.8</ele>
        <time>2021-02-28T10:59:42Z</time>
      </trkpt>
      <trkpt lat="40.2802060" lon="-3.9073860">
        <ele>541.6</ele>
        <time>2021-02-28T10:59:44Z</time>
      </trkpt>
      <trkpt lat="40.2800890" lon="-3.9072700">
        <ele>541.6</ele>
        <time>2021-02-28T10:59:46Z</time>
      </trkpt>
      <trkpt lat="40.2800020" lon="-3.9070130">
        <ele>541.4</ele>
        <time>2021-02-28T10:59:49Z</time>
      </trkpt>
      <trkpt lat="40.2798480" lon="-3.9068290">
        <ele>541.2</ele>
        <time>2021-02-28T10:59:52Z</time>
      </trkpt>
      <trkpt lat="40.2794880" lon="-3.9064560">
        <ele>540.2</ele>
        <time>2021-02-28T10:59:58Z</time>
      </trkpt>
      <trkpt lat="40.2793630" lon="-3.9063240">
        <ele>539.8</ele>
        <time>2021-02-28T11:00:00Z</time>
      </trkpt>
      <trkpt lat="40.2789350" lon="-3.9058850">
        <ele>539.8</ele>
        <time>2021-02-28T11:00:07Z</time>
      </trkpt>
      <trkpt lat="40.2788770" lon="-3.9058240">
        <ele>539.6</ele>
        <time>2021-02-28T11:00:08Z</time>
      </trkpt>
      <trkpt lat="40.2788190" lon="-3.9057660">
        <ele>539.0</ele>
        <time>2021-02-28T11:00:09Z</time>
      </trkpt>
      <trkpt lat="40.2785080" lon="-3.9054690">
        <ele>538.8</ele>
        <time>2021-02-28T11:00:15Z</time>
      </trkpt>
      <trkpt lat="40.2782830" lon="-3.9052650">
        <ele>540.2</ele>
        <time>2021-02-28T11:00:21Z</time>
      </trkpt>
      <trkpt lat="40.2781080" lon="-3.9051190">
        <ele>541.8</ele>
        <time>2021-02-28T11:00:26Z</time>
      </trkpt>
      <trkpt lat="40.2780050" lon="-3.9050350">
        <ele>543.2</ele>
        <time>2021-02-28T11:00:29Z</time>
      </trkpt>
      <trkpt lat="40.2779010" lon="-3.9049560">
        <ele>543.4</ele>
        <time>2021-02-28T11:00:32Z</time>
      </trkpt>
      <trkpt lat="40.2778030" lon="-3.9048800">
        <ele>544.2</ele>
        <time>2021-02-28T11:00:35Z</time>
      </trkpt>
      <trkpt lat="40.2776770" lon="-3.9047850">
        <ele>545.2</ele>
        <time>2021-02-28T11:00:39Z</time>
      </trkpt>
      <trkpt lat="40.2776100" lon="-3.9047400">
        <ele>545.6</ele>
        <time>2021-02-28T11:00:41Z</time>
      </trkpt>
      <trkpt lat="40.2774760" lon="-3.9046680">
        <ele>546.4</ele>
        <time>2021-02-28T11:00:45Z</time>
      </trkpt>
      <trkpt lat="40.2772960" lon="-3.9045960">
        <ele>547.6</ele>
        <time>2021-02-28T11:00:50Z</time>
      </trkpt>
      <trkpt lat="40.2770200" lon="-3.9045570">
        <ele>548.0</ele>
        <time>2021-02-28T11:00:57Z</time>
      </trkpt>
      <trkpt lat="40.2768220" lon="-3.9045870">
        <ele>548.4</ele>
        <time>2021-02-28T11:01:02Z</time>
      </trkpt>
      <trkpt lat="40.2767870" lon="-3.9046190">
        <ele>548.4</ele>
        <time>2021-02-28T11:01:03Z</time>
      </trkpt>
      <trkpt lat="40.2766390" lon="-3.9048630">
        <ele>548.4</ele>
        <time>2021-02-28T11:01:08Z</time>
      </trkpt>
      <trkpt lat="40.2765010" lon="-3.9049380">
        <ele>548.4</ele>
        <time>2021-02-28T11:01:11Z</time>
      </trkpt>
      <trkpt lat="40.2763550" lon="-3.9049120">
        <ele>549.0</ele>
        <time>2021-02-28T11:01:14Z</time>
      </trkpt>
      <trkpt lat="40.2763110" lon="-3.9048900">
        <ele>549.0</ele>
        <time>2021-02-28T11:01:15Z</time>
      </trkpt>
      <trkpt lat="40.2762690" lon="-3.9048650">
        <ele>549.2</ele>
        <time>2021-02-28T11:01:16Z</time>
      </trkpt>
      <trkpt lat="40.2761850" lon="-3.9048240">
        <ele>549.6</ele>
        <time>2021-02-28T11:01:18Z</time>
      </trkpt>
      <trkpt lat="40.2760990" lon="-3.9048420">
        <ele>549.8</ele>
        <time>2021-02-28T11:01:20Z</time>
      </trkpt>
      <trkpt lat="40.2760560" lon="-3.9048620">
        <ele>550.0</ele>
        <time>2021-02-28T11:01:21Z</time>
      </trkpt>
      <trkpt lat="40.2758270" lon="-3.9049610">
        <ele>550.4</ele>
        <time>2021-02-28T11:01:26Z</time>
      </trkpt>
      <trkpt lat="40.2757780" lon="-3.9049630">
        <ele>550.6</ele>
        <time>2021-02-28T11:01:27Z</time>
      </trkpt>
      <trkpt lat="40.2756870" lon="-3.9049290">
        <ele>551.2</ele>
        <time>2021-02-28T11:01:29Z</time>
      </trkpt>
      <trkpt lat="40.2756160" lon="-3.9048560">
        <ele>551.6</ele>
        <time>2021-02-28T11:01:31Z</time>
      </trkpt>
      <trkpt lat="40.2755580" lon="-3.9047580">
        <ele>551.8</ele>
        <time>2021-02-28T11:01:33Z</time>
      </trkpt>
      <trkpt lat="40.2755060" lon="-3.9046560">
        <ele>552.2</ele>
        <time>2021-02-28T11:01:35Z</time>
      </trkpt>
      <trkpt lat="40.2754510" lon="-3.9045620">
        <ele>552.6</ele>
        <time>2021-02-28T11:01:37Z</time>
      </trkpt>
      <trkpt lat="40.2753360" lon="-3.9043820">
        <ele>553.4</ele>
        <time>2021-02-28T11:01:41Z</time>
      </trkpt>
      <trkpt lat="40.2752080" lon="-3.9042240">
        <ele>554.0</ele>
        <time>2021-02-28T11:01:45Z</time>
      </trkpt>
      <trkpt lat="40.2751430" lon="-3.9041510">
        <ele>554.8</ele>
        <time>2021-02-28T11:01:47Z</time>
      </trkpt>
      <trkpt lat="40.2749480" lon="-3.9039660">
        <ele>556.0</ele>
        <time>2021-02-28T11:01:53Z</time>
      </trkpt>
      <trkpt lat="40.2749170" lon="-3.9039410">
        <ele>556.2</ele>
        <time>2021-02-28T11:01:54Z</time>
      </trkpt>
      <trkpt lat="40.2748220" lon="-3.9038970">
        <ele>556.8</ele>
        <time>2021-02-28T11:01:57Z</time>
      </trkpt>
      <trkpt lat="40.2747910" lon="-3.9039130">
        <ele>556.8</ele>
        <time>2021-02-28T11:01:58Z</time>
      </trkpt>
      <trkpt lat="40.2747430" lon="-3.9040400">
        <ele>556.6</ele>
        <time>2021-02-28T11:02:01Z</time>
      </trkpt>
      <trkpt lat="40.2747390" lon="-3.9040950">
        <ele>556.4</ele>
        <time>2021-02-28T11:02:02Z</time>
      </trkpt>
      <trkpt lat="40.2747320" lon="-3.9041540">
        <ele>556.2</ele>
        <time>2021-02-28T11:02:03Z</time>
      </trkpt>
      <trkpt lat="40.2746860" lon="-3.9043400">
        <ele>555.8</ele>
        <time>2021-02-28T11:02:06Z</time>
      </trkpt>
      <trkpt lat="40.2746730" lon="-3.9044070">
        <ele>555.6</ele>
        <time>2021-02-28T11:02:07Z</time>
      </trkpt>
      <trkpt lat="40.2746570" lon="-3.9044720">
        <ele>555.4</ele>
        <time>2021-02-28T11:02:08Z</time>
      </trkpt>
      <trkpt lat="40.2746120" lon="-3.9046180">
        <ele>554.8</ele>
        <time>2021-02-28T11:02:11Z</time>
      </trkpt>
      <trkpt lat="40.2745680" lon="-3.9046230">
        <ele>554.6</ele>
        <time>2021-02-28T11:02:13Z</time>
      </trkpt>
      <trkpt lat="40.2745610" lon="-3.9045970">
        <ele>554.8</ele>
        <time>2021-02-28T11:02:14Z</time>
      </trkpt>
      <trkpt lat="40.2745900" lon="-3.9044570">
        <ele>555.2</ele>
        <time>2021-02-28T11:02:18Z</time>
      </trkpt>
      <trkpt lat="40.2746020" lon="-3.9044210">
        <ele>555.4</ele>
        <time>2021-02-28T11:02:19Z</time>
      </trkpt>
      <trkpt lat="40.2746430" lon="-3.9042760">
        <ele>555.8</ele>
        <time>2021-02-28T11:02:23Z</time>
      </trkpt>
      <trkpt lat="40.2746710" lon="-3.9041770">
        <ele>556.2</ele>
        <time>2021-02-28T11:02:26Z</time>
      </trkpt>
      <trkpt lat="40.2747310" lon="-3.9040980">
        <ele>625.0</ele>
        <time>2021-02-20T07:43:45Z</time>
      </trkpt>
      <trkpt lat="40.2747460" lon="-3.9040690">
        <ele>625.0</ele>
        <time>2021-02-20T07:43:46Z</time>
      </trkpt>
      <trkpt lat="40.2747910" lon="-3.9039170">
        <ele>625.4</ele>
        <time>2021-02-20T07:43:50Z</time>
      </trkpt>
      <trkpt lat="40.2748190" lon="-3.9039020">
        <ele>625.4</ele>
        <time>2021-02-20T07:43:51Z</time>
      </trkpt>
      <trkpt lat="40.2748900" lon="-3.9039210">
        <ele>625.2</ele>
        <time>2021-02-20T07:43:53Z</time>
      </trkpt>
      <trkpt lat="40.2749230" lon="-3.9039470">
        <ele>625.2</ele>
        <time>2021-02-20T07:43:54Z</time>
      </trkpt>
      <trkpt lat="40.2749600" lon="-3.9039780">
        <ele>624.8</ele>
        <time>2021-02-20T07:43:55Z</time>
      </trkpt>
      <trkpt lat="40.2750760" lon="-3.9040930">
        <ele>624.4</ele>
        <time>2021-02-20T07:43:58Z</time>
      </trkpt>
      <trkpt lat="40.2751610" lon="-3.9041760">
        <ele>623.8</ele>
        <time>2021-02-20T07:44:00Z</time>
      </trkpt>
      <trkpt lat="40.2752500" lon="-3.9042780">
        <ele>623.2</ele>
        <time>2021-02-20T07:44:02Z</time>
      </trkpt>
      <trkpt lat="40.2753430" lon="-3.9043960">
        <ele>622.6</ele>
        <time>2021-02-20T07:44:04Z</time>
      </trkpt>
      <trkpt lat="40.2755280" lon="-3.9046610">
        <ele>621.4</ele>
        <time>2021-02-20T07:44:08Z</time>
      </trkpt>
      <trkpt lat="40.2756120" lon="-3.9048050">
        <ele>621.0</ele>
        <time>2021-02-20T07:44:10Z</time>
      </trkpt>
      <trkpt lat="40.2756780" lon="-3.9049070">
        <ele>620.6</ele>
        <time>2021-02-20T07:44:12Z</time>
      </trkpt>
      <trkpt lat="40.2757070" lon="-3.9049280">
        <ele>620.4</ele>
        <time>2021-02-20T07:44:13Z</time>
      </trkpt>
      <trkpt lat="40.2757810" lon="-3.9049250">
        <ele>620.0</ele>
        <time>2021-02-20T07:44:15Z</time>
      </trkpt>
      <trkpt lat="40.2758200" lon="-3.9049030">
        <ele>620.0</ele>
        <time>2021-02-20T07:44:16Z</time>
      </trkpt>
      <trkpt lat="40.2758610" lon="-3.9048780">
        <ele>619.8</ele>
        <time>2021-02-20T07:44:17Z</time>
      </trkpt>
      <trkpt lat="40.2760370" lon="-3.9047710">
        <ele>619.4</ele>
        <time>2021-02-20T07:44:21Z</time>
      </trkpt>
      <trkpt lat="40.2761280" lon="-3.9047030">
        <ele>619.2</ele>
        <time>2021-02-20T07:44:23Z</time>
      </trkpt>
      <trkpt lat="40.2762690" lon="-3.9044750">
        <ele>618.8</ele>
        <time>2021-02-20T07:44:27Z</time>
      </trkpt>
      <trkpt lat="40.2763900" lon="-3.9043290">
        <ele>618.8</ele>
        <time>2021-02-20T07:44:30Z</time>
      </trkpt>
      <trkpt lat="40.2764410" lon="-3.9043020">
        <ele>618.8</ele>
        <time>2021-02-20T07:44:31Z</time>
      </trkpt>
      <trkpt lat="40.2766070" lon="-3.9043000">
        <ele>618.4</ele>
        <time>2021-02-20T07:44:34Z</time>
      </trkpt>
      <trkpt lat="40.2766640" lon="-3.9043300">
        <ele>618.2</ele>
        <time>2021-02-20T07:44:35Z</time>
      </trkpt>
      <trkpt lat="40.2767220" lon="-3.9043640">
        <ele>618.0</ele>
        <time>2021-02-20T07:44:36Z</time>
      </trkpt>
      <trkpt lat="40.2768550" lon="-3.9044160">
        <ele>617.6</ele>
        <time>2021-02-20T07:44:38Z</time>
      </trkpt>
      <trkpt lat="40.2769900" lon="-3.9044180">
        <ele>617.0</ele>
        <time>2021-02-20T07:44:40Z</time>
      </trkpt>
      <trkpt lat="40.2771250" lon="-3.9044240">
        <ele>616.8</ele>
        <time>2021-02-20T07:44:42Z</time>
      </trkpt>
      <trkpt lat="40.2774650" lon="-3.9045110">
        <ele>616.0</ele>
        <time>2021-02-20T07:44:47Z</time>
      </trkpt>
      <trkpt lat="40.2775340" lon="-3.9045420">
        <ele>615.6</ele>
        <time>2021-02-20T07:44:48Z</time>
      </trkpt>
      <trkpt lat="40.2777480" lon="-3.9046650">
        <ele>614.4</ele>
        <time>2021-02-20T07:44:51Z</time>
      </trkpt>
      <trkpt lat="40.2779040" lon="-3.9047710">
        <ele>613.6</ele>
        <time>2021-02-20T07:44:53Z</time>
      </trkpt>
      <trkpt lat="40.2779820" lon="-3.9048300">
        <ele>613.0</ele>
        <time>2021-02-20T07:44:54Z</time>
      </trkpt>
      <trkpt lat="40.2781360" lon="-3.9049530">
        <ele>611.8</ele>
        <time>2021-02-20T07:44:56Z</time>
      </trkpt>
      <trkpt lat="40.2782960" lon="-3.9050890">
        <ele>610.6</ele>
        <time>2021-02-20T07:44:58Z</time>
      </trkpt>
      <trkpt lat="40.2783800" lon="-3.9051600">
        <ele>610.0</ele>
        <time>2021-02-20T07:44:59Z</time>
      </trkpt>
      <trkpt lat="40.2784640" lon="-3.9052340">
        <ele>609.2</ele>
        <time>2021-02-20T07:45:00Z</time>
      </trkpt>
      <trkpt lat="40.2786340" lon="-3.9053880">
        <ele>608.2</ele>
        <time>2021-02-20T07:45:02Z</time>
      </trkpt>
      <trkpt lat="40.2788040" lon="-3.9055520">
        <ele>607.0</ele>
        <time>2021-02-20T07:45:04Z</time>
      </trkpt>
      <trkpt lat="40.2790390" lon="-3.9057940">
        <ele>606.0</ele>
        <time>2021-02-20T07:45:07Z</time>
      </trkpt>
      <trkpt lat="40.2794400" lon="-3.9062090">
        <ele>606.8</ele>
        <time>2021-02-20T07:45:13Z</time>
      </trkpt>
      <trkpt lat="40.2794980" lon="-3.9062710">
        <ele>607.0</ele>
        <time>2021-02-20T07:45:14Z</time>
      </trkpt>
      <trkpt lat="40.2797540" lon="-3.9065410">
        <ele>608.0</ele>
        <time>2021-02-20T07:45:19Z</time>
      </trkpt>
      <trkpt lat="40.2797990" lon="-3.9065910">
        <ele>608.2</ele>
        <time>2021-02-20T07:45:20Z</time>
      </trkpt>
      <trkpt lat="40.2799730" lon="-3.9067680">
        <ele>608.6</ele>
        <time>2021-02-20T07:45:24Z</time>
      </trkpt>
      <trkpt lat="40.2800950" lon="-3.9069000">
        <ele>609.0</ele>
        <time>2021-02-20T07:45:27Z</time>
      </trkpt>
      <trkpt lat="40.2801800" lon="-3.9069760">
        <ele>609.2</ele>
        <time>2021-02-20T07:45:29Z</time>
      </trkpt>
      <trkpt lat="40.2802320" lon="-3.9069860">
        <ele>609.2</ele>
        <time>2021-02-20T07:45:30Z</time>
      </trkpt>
      <trkpt lat="40.2802900" lon="-3.9069790">
        <ele>609.2</ele>
        <time>2021-02-20T07:45:31Z</time>
      </trkpt>
      <trkpt lat="40.2804350" lon="-3.9070500">
        <ele>609.4</ele>
        <time>2021-02-20T07:45:34Z</time>
      </trkpt>
      <trkpt lat="40.2805060" lon="-3.9072270">
        <ele>609.6</ele>
        <time>2021-02-20T07:45:37Z</time>
      </trkpt>
      <trkpt lat="40.2805880" lon="-3.9074750">
        <ele>610.0</ele>
        <time>2021-02-20T07:45:41Z</time>
      </trkpt>
      <trkpt lat="40.2807020" lon="-3.9076020">
        <ele>610.2</ele>
        <time>2021-02-20T07:45:44Z</time>
      </trkpt>
      <trkpt lat="40.2807770" lon="-3.9076870">
        <ele>610.4</ele>
        <time>2021-02-20T07:45:46Z</time>
      </trkpt>
      <trkpt lat="40.2808130" lon="-3.9077320">
        <ele>610.4</ele>
        <time>2021-02-20T07:45:47Z</time>
      </trkpt>
      <trkpt lat="40.2809210" lon="-3.9078580">
        <ele>611.0</ele>
        <time>2021-02-20T07:45:50Z</time>
      </trkpt>
      <trkpt lat="40.2810600" lon="-3.9080180">
        <ele>611.4</ele>
        <time>2021-02-20T07:45:54Z</time>
      </trkpt>
      <trkpt lat="40.2811650" lon="-3.9081300">
        <ele>611.8</ele>
        <time>2021-02-20T07:45:57Z</time>
      </trkpt>
      <trkpt lat="40.2812770" lon="-3.9082340">
        <ele>612.2</ele>
        <time>2021-02-20T07:46:00Z</time>
      </trkpt>
      <trkpt lat="40.2813520" lon="-3.9083060">
        <ele>612.4</ele>
        <time>2021-02-20T07:46:02Z</time>
      </trkpt>
      <trkpt lat="40.2814230" lon="-3.9083840">
        <ele>612.6</ele>
        <time>2021-02-20T07:46:04Z</time>
      </trkpt>
      <trkpt lat="40.2817550" lon="-3.9086960">
        <ele>613.4</ele>
        <time>2021-02-20T07:46:13Z</time>
      </trkpt>
      <trkpt lat="40.2817940" lon="-3.9087270">
        <ele>613.4</ele>
        <time>2021-02-20T07:46:14Z</time>
      </trkpt>
      <trkpt lat="40.2821240" lon="-3.9089590">
        <ele>614.2</ele>
        <time>2021-02-20T07:46:22Z</time>
      </trkpt>
      <trkpt lat="40.2822110" lon="-3.9090130">
        <ele>614.4</ele>
        <time>2021-02-20T07:46:24Z</time>
      </trkpt>
      <trkpt lat="40.2826180" lon="-3.9092310">
        <ele>615.0</ele>
        <time>2021-02-20T07:46:33Z</time>
      </trkpt>
      <trkpt lat="40.2831580" lon="-3.9094670">
        <ele>615.6</ele>
        <time>2021-02-20T07:46:44Z</time>
      </trkpt>
      <trkpt lat="40.2837070" lon="-3.9096910">
        <ele>616.2</ele>
        <time>2021-02-20T07:46:55Z</time>
      </trkpt>
      <trkpt lat="40.2837590" lon="-3.9097100">
        <ele>616.2</ele>
        <time>2021-02-20T07:46:56Z</time>
      </trkpt>
      <trkpt lat="40.2838120" lon="-3.9097210">
        <ele>616.2</ele>
        <time>2021-02-20T07:46:57Z</time>
      </trkpt>
      <trkpt lat="40.2839680" lon="-3.9096730">
        <ele>616.2</ele>
        <time>2021-02-20T07:47:00Z</time>
      </trkpt>
      <trkpt lat="40.2841270" lon="-3.9097010">
        <ele>616.4</ele>
        <time>2021-02-20T07:47:03Z</time>
      </trkpt>
      <trkpt lat="40.2842270" lon="-3.9097590">
        <ele>616.4</ele>
        <time>2021-02-20T07:47:05Z</time>
      </trkpt>
      <trkpt lat="40.2842810" lon="-3.9097770">
        <ele>616.4</ele>
        <time>2021-02-20T07:47:06Z</time>
      </trkpt>
      <trkpt lat="40.2843870" lon="-3.9097660">
        <ele>616.8</ele>
        <time>2021-02-20T07:47:08Z</time>
      </trkpt>
      <trkpt lat="40.2845680" lon="-3.9097200">
        <ele>617.8</ele>
        <time>2021-02-20T07:47:12Z</time>
      </trkpt>
      <trkpt lat="40.2846970" lon="-3.9096930">
        <ele>618.4</ele>
        <time>2021-02-20T07:47:15Z</time>
      </trkpt>
      <trkpt lat="40.2847830" lon="-3.9096760">
        <ele>619.0</ele>
        <time>2021-02-20T07:47:17Z</time>
      </trkpt>
      <trkpt lat="40.2849850" lon="-3.9096420">
        <ele>620.0</ele>
        <time>2021-02-20T07:47:22Z</time>
      </trkpt>
      <trkpt lat="40.2851360" lon="-3.9096130">
        <ele>620.6</ele>
        <time>2021-02-20T07:47:26Z</time>
      </trkpt>
      <trkpt lat="40.2852080" lon="-3.9095930">
        <ele>621.0</ele>
        <time>2021-02-20T07:47:28Z</time>
      </trkpt>
      <trkpt lat="40.2854640" lon="-3.9095450">
        <ele>622.2</ele>
        <time>2021-02-20T07:47:35Z</time>
      </trkpt>
      <trkpt lat="40.2855400" lon="-3.9095320">
        <ele>622.8</ele>
        <time>2021-02-20T07:47:37Z</time>
      </trkpt>
      <trkpt lat="40.2857340" lon="-3.9094950">
        <ele>623.4</ele>
        <time>2021-02-20T07:47:42Z</time>
      </trkpt>
      <trkpt lat="40.2858900" lon="-3.9094710">
        <ele>624.0</ele>
        <time>2021-02-20T07:47:46Z</time>
      </trkpt>
      <trkpt lat="40.2859690" lon="-3.9094620">
        <ele>624.4</ele>
        <time>2021-02-20T07:47:48Z</time>
      </trkpt>
      <trkpt lat="40.2862440" lon="-3.9094180">
        <ele>625.4</ele>
        <time>2021-02-20T07:47:55Z</time>
      </trkpt>
      <trkpt lat="40.2862820" lon="-3.9094110">
        <ele>625.6</ele>
        <time>2021-02-20T07:47:56Z</time>
      </trkpt>
      <trkpt lat="40.2864670" lon="-3.9093800">
        <ele>626.6</ele>
        <time>2021-02-20T07:48:01Z</time>
      </trkpt>
      <trkpt lat="40.2865410" lon="-3.9093700">
        <ele>627.0</ele>
        <time>2021-02-20T07:48:03Z</time>
      </trkpt>
      <trkpt lat="40.2866890" lon="-3.9093400">
        <ele>627.8</ele>
        <time>2021-02-20T07:48:07Z</time>
      </trkpt>
      <trkpt lat="40.2868810" lon="-3.9093050">
        <ele>628.8</ele>
        <time>2021-02-20T07:48:12Z</time>
      </trkpt>
      <trkpt lat="40.2869180" lon="-3.9093040">
        <ele>628.8</ele>
        <time>2021-02-20T07:48:13Z</time>
      </trkpt>
      <trkpt lat="40.2871080" lon="-3.9092980">
        <ele>629.8</ele>
        <time>2021-02-20T07:48:18Z</time>
      </trkpt>
      <trkpt lat="40.2871870" lon="-3.9092950">
        <ele>630.2</ele>
        <time>2021-02-20T07:48:20Z</time>
      </trkpt>
      <trkpt lat="40.2873390" lon="-3.9092930">
        <ele>631.0</ele>
        <time>2021-02-20T07:48:24Z</time>
      </trkpt>
      <trkpt lat="40.2875300" lon="-3.9092920">
        <ele>632.0</ele>
        <time>2021-02-20T07:48:29Z</time>
      </trkpt>
      <trkpt lat="40.2875690" lon="-3.9092920">
        <ele>632.2</ele>
        <time>2021-02-20T07:48:30Z</time>
      </trkpt>
      <trkpt lat="40.2877880" lon="-3.9092990">
        <ele>633.2</ele>
        <time>2021-02-20T07:48:36Z</time>
      </trkpt>
      <trkpt lat="40.2878250" lon="-3.9092930">
        <ele>633.4</ele>
        <time>2021-02-20T07:48:37Z</time>
      </trkpt>
      <trkpt lat="40.2879570" lon="-3.9091850">
        <ele>634.2</ele>
        <time>2021-02-20T07:48:41Z</time>
      </trkpt>
      <trkpt lat="40.2880300" lon="-3.9091450">
        <ele>634.4</ele>
        <time>2021-02-20T07:48:43Z</time>
      </trkpt>
      <trkpt lat="40.2881060" lon="-3.9091380">
        <ele>634.8</ele>
        <time>2021-02-20T07:48:45Z</time>
      </trkpt>
      <trkpt lat="40.2882160" lon="-3.9091890">
        <ele>635.4</ele>
        <time>2021-02-20T07:48:48Z</time>
      </trkpt>
      <trkpt lat="40.2882500" lon="-3.9092250">
        <ele>635.6</ele>
        <time>2021-02-20T07:48:49Z</time>
      </trkpt>
      <trkpt lat="40.2884100" lon="-3.9093830">
        <ele>636.6</ele>
        <time>2021-02-20T07:48:54Z</time>
      </trkpt>
      <trkpt lat="40.2886350" lon="-3.9094060">
        <ele>637.4</ele>
        <time>2021-02-20T07:49:00Z</time>
      </trkpt>
      <trkpt lat="40.2886730" lon="-3.9094090">
        <ele>637.8</ele>
        <time>2021-02-20T07:49:01Z</time>
      </trkpt>
      <trkpt lat="40.2888960" lon="-3.9094390">
        <ele>639.0</ele>
        <time>2021-02-20T07:49:07Z</time>
      </trkpt>
      <trkpt lat="40.2889680" lon="-3.9094580">
        <ele>639.2</ele>
        <time>2021-02-20T07:49:09Z</time>
      </trkpt>
      <trkpt lat="40.2890800" lon="-3.9094800">
        <ele>640.0</ele>
        <time>2021-02-20T07:49:12Z</time>
      </trkpt>
      <trkpt lat="40.2892970" lon="-3.9095310">
        <ele>641.0</ele>
        <time>2021-02-20T07:49:18Z</time>
      </trkpt>
      <trkpt lat="40.2893320" lon="-3.9095420">
        <ele>641.2</ele>
        <time>2021-02-20T07:49:19Z</time>
      </trkpt>
      <trkpt lat="40.2895190" lon="-3.9095920">
        <ele>642.2</ele>
        <time>2021-02-20T07:49:24Z</time>
      </trkpt>
      <trkpt lat="40.2897040" lon="-3.9096520">
        <ele>643.0</ele>
        <time>2021-02-20T07:49:29Z</time>
      </trkpt>
      <trkpt lat="40.2897740" lon="-3.9096750">
        <ele>643.4</ele>
        <time>2021-02-20T07:49:31Z</time>
      </trkpt>
      <trkpt lat="40.2899560" lon="-3.9097400">
        <ele>644.6</ele>
        <time>2021-02-20T07:49:36Z</time>
      </trkpt>
      <trkpt lat="40.2901380" lon="-3.9098150">
        <ele>645.4</ele>
        <time>2021-02-20T07:49:41Z</time>
      </trkpt>
      <trkpt lat="40.2901740" lon="-3.9098280">
        <ele>645.6</ele>
        <time>2021-02-20T07:49:42Z</time>
      </trkpt>
      <trkpt lat="40.2903890" lon="-3.9099180">
        <ele>646.8</ele>
        <time>2021-02-20T07:49:48Z</time>
      </trkpt>
      <trkpt lat="40.2904570" lon="-3.9099520">
        <ele>647.2</ele>
        <time>2021-02-20T07:49:50Z</time>
      </trkpt>
      <trkpt lat="40.2904920" lon="-3.9099690">
        <ele>647.2</ele>
        <time>2021-02-20T07:49:51Z</time>
      </trkpt>
      <trkpt lat="40.2905950" lon="-3.9100150">
        <ele>648.0</ele>
        <time>2021-02-20T07:49:54Z</time>
      </trkpt>
      <trkpt lat="40.2908090" lon="-3.9101120">
        <ele>649.0</ele>
        <time>2021-02-20T07:50:00Z</time>
      </trkpt>
      <trkpt lat="40.2910200" lon="-3.9102070">
        <ele>650.0</ele>
        <time>2021-02-20T07:50:06Z</time>
      </trkpt>
      <trkpt lat="40.2911610" lon="-3.9102780">
        <ele>650.8</ele>
        <time>2021-02-20T07:50:10Z</time>
      </trkpt>
      <trkpt lat="40.2911970" lon="-3.9102960">
        <ele>651.0</ele>
        <time>2021-02-20T07:50:11Z</time>
      </trkpt>
      <trkpt lat="40.2914170" lon="-3.9103900">
        <ele>652.2</ele>
        <time>2021-02-20T07:50:17Z</time>
      </trkpt>
      <trkpt lat="40.2915310" lon="-3.9104380">
        <ele>652.4</ele>
        <time>2021-02-20T07:50:20Z</time>
      </trkpt>
      <trkpt lat="40.2918440" lon="-3.9105910">
        <ele>653.2</ele>
        <time>2021-02-20T07:50:28Z</time>
      </trkpt>
      <trkpt lat="40.2919280" lon="-3.9106300">
        <ele>653.2</ele>
        <time>2021-02-20T07:50:30Z</time>
      </trkpt>
      <trkpt lat="40.2922330" lon="-3.9107780">
        <ele>653.6</ele>
        <time>2021-02-20T07:50:37Z</time>
      </trkpt>
      <trkpt lat="40.2927240" lon="-3.9109940">
        <ele>654.4</ele>
        <time>2021-02-20T07:50:48Z</time>
      </trkpt>
      <trkpt lat="40.2929680" lon="-3.9111040">
        <ele>655.6</ele>
        <time>2021-02-20T07:50:54Z</time>
      </trkpt>
      <trkpt lat="40.2930870" lon="-3.9111590">
        <ele>656.4</ele>
        <time>2021-02-20T07:50:57Z</time>
      </trkpt>
      <trkpt lat="40.2931620" lon="-3.9111920">
        <ele>656.8</ele>
        <time>2021-02-20T07:50:59Z</time>
      </trkpt>
      <trkpt lat="40.2933500" lon="-3.9112810">
        <ele>657.8</ele>
        <time>2021-02-20T07:51:04Z</time>
      </trkpt>
      <trkpt lat="40.2935010" lon="-3.9113550">
        <ele>658.4</ele>
        <time>2021-02-20T07:51:08Z</time>
      </trkpt>
      <trkpt lat="40.2935740" lon="-3.9113920">
        <ele>658.8</ele>
        <time>2021-02-20T07:51:10Z</time>
      </trkpt>
      <trkpt lat="40.2937180" lon="-3.9114600">
        <ele>659.8</ele>
        <time>2021-02-20T07:51:14Z</time>
      </trkpt>
      <trkpt lat="40.2937920" lon="-3.9114890">
        <ele>660.2</ele>
        <time>2021-02-20T07:51:16Z</time>
      </trkpt>
      <trkpt lat="40.2939420" lon="-3.9115540">
        <ele>661.0</ele>
        <time>2021-02-20T07:51:20Z</time>
      </trkpt>
      <trkpt lat="40.2941560" lon="-3.9116580">
        <ele>662.2</ele>
        <time>2021-02-20T07:51:26Z</time>
      </trkpt>
      <trkpt lat="40.2943370" lon="-3.9117410">
        <ele>663.2</ele>
        <time>2021-02-20T07:51:31Z</time>
      </trkpt>
      <trkpt lat="40.2945190" lon="-3.9118250">
        <ele>664.4</ele>
        <time>2021-02-20T07:51:36Z</time>
      </trkpt>
      <trkpt lat="40.2945920" lon="-3.9118540">
        <ele>665.2</ele>
        <time>2021-02-20T07:51:38Z</time>
      </trkpt>
      <trkpt lat="40.2946290" lon="-3.9118680">
        <ele>665.6</ele>
        <time>2021-02-20T07:51:39Z</time>
      </trkpt>
      <trkpt lat="40.2947970" lon="-3.9119510">
        <ele>666.8</ele>
        <time>2021-02-20T07:51:44Z</time>
      </trkpt>
      <trkpt lat="40.2948960" lon="-3.9120000">
        <ele>667.8</ele>
        <time>2021-02-20T07:51:47Z</time>
      </trkpt>
      <trkpt lat="40.2949270" lon="-3.9120140">
        <ele>668.0</ele>
        <time>2021-02-20T07:51:48Z</time>
      </trkpt>
      <trkpt lat="40.2950740" lon="-3.9121110">
        <ele>669.2</ele>
        <time>2021-02-20T07:51:53Z</time>
      </trkpt>
      <trkpt lat="40.2951310" lon="-3.9121630">
        <ele>669.6</ele>
        <time>2021-02-20T07:51:55Z</time>
      </trkpt>
      <trkpt lat="40.2952540" lon="-3.9122590">
        <ele>670.2</ele>
        <time>2021-02-20T07:51:59Z</time>
      </trkpt>
      <trkpt lat="40.2953620" lon="-3.9122690">
        <ele>671.0</ele>
        <time>2021-02-20T07:52:02Z</time>
      </trkpt>
      <trkpt lat="40.2954400" lon="-3.9122560">
        <ele>671.0</ele>
        <time>2021-02-20T07:52:04Z</time>
      </trkpt>
      <trkpt lat="40.2955540" lon="-3.9121690">
        <ele>671.0</ele>
        <time>2021-02-20T07:52:07Z</time>
      </trkpt>
      <trkpt lat="40.2956270" lon="-3.9120880">
        <ele>670.8</ele>
        <time>2021-02-20T07:52:09Z</time>
      </trkpt>
      <trkpt lat="40.2958320" lon="-3.9118800">
        <ele>670.6</ele>
        <time>2021-02-20T07:52:14Z</time>
      </trkpt>
      <trkpt lat="40.2961420" lon="-3.9115630">
        <ele>670.2</ele>
        <time>2021-02-20T07:52:21Z</time>
      </trkpt>
      <trkpt lat="40.2962350" lon="-3.9114650">
        <ele>670.2</ele>
        <time>2021-02-20T07:52:23Z</time>
      </trkpt>
      <trkpt lat="40.2966750" lon="-3.9110120">
        <ele>669.4</ele>
        <time>2021-02-20T07:52:32Z</time>
      </trkpt>
      <trkpt lat="40.2967760" lon="-3.9109060">
        <ele>669.2</ele>
        <time>2021-02-20T07:52:34Z</time>
      </trkpt>
      <trkpt lat="40.2972010" lon="-3.9104810">
        <ele>668.8</ele>
        <time>2021-02-20T07:52:42Z</time>
      </trkpt>
      <trkpt lat="40.2974720" lon="-3.9101910">
        <ele>668.2</ele>
        <time>2021-02-20T07:52:47Z</time>
      </trkpt>
      <trkpt lat="40.2975930" lon="-3.9100750">
        <ele>667.4</ele>
        <time>2021-02-20T07:52:49Z</time>
      </trkpt>
      <trkpt lat="40.2977190" lon="-3.9099530">
        <ele>666.8</ele>
        <time>2021-02-20T07:52:51Z</time>
      </trkpt>
      <trkpt lat="40.2979170" lon="-3.9097480">
        <ele>665.4</ele>
        <time>2021-02-20T07:52:54Z</time>
      </trkpt>
      <trkpt lat="40.2980570" lon="-3.9096070">
        <ele>664.4</ele>
        <time>2021-02-20T07:52:56Z</time>
      </trkpt>
      <trkpt lat="40.2981300" lon="-3.9095330">
        <ele>664.0</ele>
        <time>2021-02-20T07:52:57Z</time>
      </trkpt>
      <trkpt lat="40.2983550" lon="-3.9093070">
        <ele>662.6</ele>
        <time>2021-02-20T07:53:00Z</time>
      </trkpt>
      <trkpt lat="40.2985890" lon="-3.9090710">
        <ele>661.0</ele>
        <time>2021-02-20T07:53:03Z</time>
      </trkpt>
      <trkpt lat="40.2986670" lon="-3.9089910">
        <ele>660.4</ele>
        <time>2021-02-20T07:53:04Z</time>
      </trkpt>
      <trkpt lat="40.2987460" lon="-3.9089110">
        <ele>659.8</ele>
        <time>2021-02-20T07:53:05Z</time>
      </trkpt>
      <trkpt lat="40.2989800" lon="-3.9086740">
        <ele>658.8</ele>
        <time>2021-02-20T07:53:08Z</time>
      </trkpt>
      <trkpt lat="40.2992630" lon="-3.9083690">
        <ele>657.8</ele>
        <time>2021-02-20T07:53:12Z</time>
      </trkpt>
      <trkpt lat="40.2993150" lon="-3.9082880">
        <ele>657.8</ele>
        <time>2021-02-20T07:53:13Z</time>
      </trkpt>
      <trkpt lat="40.2993830" lon="-3.9081130">
        <ele>657.8</ele>
        <time>2021-02-20T07:53:15Z</time>
      </trkpt>
      <trkpt lat="40.2994280" lon="-3.9080350">
        <ele>657.8</ele>
        <time>2021-02-20T07:53:16Z</time>
      </trkpt>
      <trkpt lat="40.2994830" lon="-3.9079770">
        <ele>657.6</ele>
        <time>2021-02-20T07:53:17Z</time>
      </trkpt>
      <trkpt lat="40.2995490" lon="-3.9079440">
        <ele>657.6</ele>
        <time>2021-02-20T07:53:18Z</time>
      </trkpt>
      <trkpt lat="40.2997580" lon="-3.9079380">
        <ele>657.8</ele>
        <time>2021-02-20T07:53:21Z</time>
      </trkpt>
      <trkpt lat="40.2999480" lon="-3.9078670">
        <ele>658.2</ele>
        <time>2021-02-20T07:53:24Z</time>
      </trkpt>
      <trkpt lat="40.3000090" lon="-3.9078480">
        <ele>658.4</ele>
        <time>2021-02-20T07:53:25Z</time>
      </trkpt>
      <trkpt lat="40.3000690" lon="-3.9078320">
        <ele>658.8</ele>
        <time>2021-02-20T07:53:26Z</time>
      </trkpt>
      <trkpt lat="40.3002800" lon="-3.9077890">
        <ele>660.0</ele>
        <time>2021-02-20T07:53:30Z</time>
      </trkpt>
      <trkpt lat="40.3003270" lon="-3.9077780">
        <ele>660.4</ele>
        <time>2021-02-20T07:53:31Z</time>
      </trkpt>
      <trkpt lat="40.3004660" lon="-3.9077500">
        <ele>661.2</ele>
        <time>2021-02-20T07:53:34Z</time>
      </trkpt>
      <trkpt lat="40.3006010" lon="-3.9077240">
        <ele>662.2</ele>
        <time>2021-02-20T07:53:37Z</time>
      </trkpt>
      <trkpt lat="40.3007910" lon="-3.9076900">
        <ele>662.6</ele>
        <time>2021-02-20T07:53:41Z</time>
      </trkpt>
      <trkpt lat="40.3012710" lon="-3.9075680">
        <ele>662.4</ele>
        <time>2021-02-20T07:53:50Z</time>
      </trkpt>
      <trkpt lat="40.3016920" lon="-3.9073420">
        <ele>661.4</ele>
        <time>2021-02-20T07:53:57Z</time>
      </trkpt>
      <trkpt lat="40.3018140" lon="-3.9072550">
        <ele>661.0</ele>
        <time>2021-02-20T07:53:59Z</time>
      </trkpt>
      <trkpt lat="40.3020400" lon="-3.9070500">
        <ele>661.0</ele>
        <time>2021-02-20T07:54:03Z</time>
      </trkpt>
      <trkpt lat="40.3023590" lon="-3.9066770">
        <ele>661.8</ele>
        <time>2021-02-20T07:54:10Z</time>
      </trkpt>
      <trkpt lat="40.3024800" lon="-3.9065270">
        <ele>662.2</ele>
        <time>2021-02-20T07:54:13Z</time>
      </trkpt>
      <trkpt lat="40.3025780" lon="-3.9063580">
        <ele>662.6</ele>
        <time>2021-02-20T07:54:16Z</time>
      </trkpt>
      <trkpt lat="40.3025960" lon="-3.9062930">
        <ele>662.6</ele>
        <time>2021-02-20T07:54:17Z</time>
      </trkpt>
      <trkpt lat="40.3027100" lon="-3.9060550">
        <ele>662.8</ele>
        <time>2021-02-20T07:54:21Z</time>
      </trkpt>
      <trkpt lat="40.3028760" lon="-3.9059970">
        <ele>662.8</ele>
        <time>2021-02-20T07:54:24Z</time>
      </trkpt>
      <trkpt lat="40.3030140" lon="-3.9058640">
        <ele>663.2</ele>
        <time>2021-02-20T07:54:27Z</time>
      </trkpt>
      <trkpt lat="40.3030540" lon="-3.9058190">
        <ele>663.2</ele>
        <time>2021-02-20T07:54:28Z</time>
      </trkpt>
      <trkpt lat="40.3032290" lon="-3.9056920">
        <ele>664.4</ele>
        <time>2021-02-20T07:54:32Z</time>
      </trkpt>
      <trkpt lat="40.3032720" lon="-3.9056720">
        <ele>664.4</ele>
        <time>2021-02-20T07:54:33Z</time>
      </trkpt>
      <trkpt lat="40.3034040" lon="-3.9056310">
        <ele>665.0</ele>
        <time>2021-02-20T07:54:36Z</time>
      </trkpt>
      <trkpt lat="40.3034930" lon="-3.9056220">
        <ele>665.4</ele>
        <time>2021-02-20T07:54:38Z</time>
      </trkpt>
      <trkpt lat="40.3035380" lon="-3.9056240">
        <ele>665.8</ele>
        <time>2021-02-20T07:54:39Z</time>
      </trkpt>
      <trkpt lat="40.3037130" lon="-3.9056350">
        <ele>666.6</ele>
        <time>2021-02-20T07:54:43Z</time>
      </trkpt>
      <trkpt lat="40.3039910" lon="-3.9056380">
        <ele>668.0</ele>
        <time>2021-02-20T07:54:49Z</time>
      </trkpt>
      <trkpt lat="40.3040350" lon="-3.9056220">
        <ele>668.4</ele>
        <time>2021-02-20T07:54:50Z</time>
      </trkpt>
      <trkpt lat="40.3041450" lon="-3.9055210">
        <ele>669.0</ele>
        <time>2021-02-20T07:54:53Z</time>
      </trkpt>
      <trkpt lat="40.3041790" lon="-3.9054770">
        <ele>669.0</ele>
        <time>2021-02-20T07:54:54Z</time>
      </trkpt>
      <trkpt lat="40.3042490" lon="-3.9053810">
        <ele>669.2</ele>
        <time>2021-02-20T07:54:56Z</time>
      </trkpt>
      <trkpt lat="40.3043700" lon="-3.9052560">
        <ele>669.0</ele>
        <time>2021-02-20T07:54:59Z</time>
      </trkpt>
      <trkpt lat="40.3044160" lon="-3.9052250">
        <ele>669.0</ele>
        <time>2021-02-20T07:55:00Z</time>
      </trkpt>
      <trkpt lat="40.3046260" lon="-3.9051840">
        <ele>669.2</ele>
        <time>2021-02-20T07:55:04Z</time>
      </trkpt>
      <trkpt lat="40.3048440" lon="-3.9052870">
        <ele>669.0</ele>
        <time>2021-02-20T07:55:08Z</time>
      </trkpt>
      <trkpt lat="40.3050050" lon="-3.9055490">
        <ele>669.0</ele>
        <time>2021-02-20T07:55:12Z</time>
      </trkpt>
      <trkpt lat="40.3050540" lon="-3.9058780">
        <ele>669.4</ele>
        <time>2021-02-20T07:55:16Z</time>
      </trkpt>
      <trkpt lat="40.3050520" lon="-3.9059620">
        <ele>669.2</ele>
        <time>2021-02-20T07:55:17Z</time>
      </trkpt>
      <trkpt lat="40.3050640" lon="-3.9061250">
        <ele>669.2</ele>
        <time>2021-02-20T07:55:19Z</time>
      </trkpt>
      <trkpt lat="40.3051290" lon="-3.9062560">
        <ele>669.4</ele>
        <time>2021-02-20T07:55:21Z</time>
      </trkpt>
      <trkpt lat="40.3052630" lon="-3.9064080">
        <ele>670.0</ele>
        <time>2021-02-20T07:55:24Z</time>
      </trkpt>
      <trkpt lat="40.3053100" lon="-3.9064560">
        <ele>670.2</ele>
        <time>2021-02-20T07:55:25Z</time>
      </trkpt>
      <trkpt lat="40.3053590" lon="-3.9065060">
        <ele>670.2</ele>
        <time>2021-02-20T07:55:26Z</time>
      </trkpt>
      <trkpt lat="40.3058420" lon="-3.9069930">
        <ele>669.2</ele>
        <time>2021-02-20T07:55:35Z</time>
      </trkpt>
      <trkpt lat="40.3059010" lon="-3.9070510">
        <ele>669.0</ele>
        <time>2021-02-20T07:55:36Z</time>
      </trkpt>
      <trkpt lat="40.3060850" lon="-3.9072290">
        <ele>667.8</ele>
        <time>2021-02-20T07:55:39Z</time>
      </trkpt>
      <trkpt lat="40.3061370" lon="-3.9073070">
        <ele>667.6</ele>
        <time>2021-02-20T07:55:40Z</time>
      </trkpt>
      <trkpt lat="40.3062470" lon="-3.9075620">
        <ele>667.0</ele>
        <time>2021-02-20T07:55:43Z</time>
      </trkpt>
      <trkpt lat="40.3062730" lon="-3.9076390">
        <ele>667.2</ele>
        <time>2021-02-20T07:55:44Z</time>
      </trkpt>
      <trkpt lat="40.3063850" lon="-3.9080810">
        <ele>668.2</ele>
        <time>2021-02-20T07:55:50Z</time>
      </trkpt>
      <trkpt lat="40.3063770" lon="-3.9083020">
        <ele>668.8</ele>
        <time>2021-02-20T07:55:53Z</time>
      </trkpt>
      <trkpt lat="40.3063700" lon="-3.9083740">
        <ele>669.0</ele>
        <time>2021-02-20T07:55:54Z</time>
      </trkpt>
      <trkpt lat="40.3063610" lon="-3.9084450">
        <ele>669.2</ele>
        <time>2021-02-20T07:55:55Z</time>
      </trkpt>
      <trkpt lat="40.3063430" lon="-3.9089280">
        <ele>666.8</ele>
        <time>2021-02-20T07:56:01Z</time>
      </trkpt>
      <trkpt lat="40.3063430" lon="-3.9090330">
        <ele>665.6</ele>
        <time>2021-02-20T07:56:02Z</time>
      </trkpt>
      <trkpt lat="40.3063290" lon="-3.9092590">
        <ele>664.0</ele>
        <time>2021-02-20T07:56:04Z</time>
      </trkpt>
      <trkpt lat="40.3063220" lon="-3.9093690">
        <ele>663.6</ele>
        <time>2021-02-20T07:56:05Z</time>
      </trkpt>
      <trkpt lat="40.3063280" lon="-3.9095800">
        <ele>663.4</ele>
        <time>2021-02-20T07:56:07Z</time>
      </trkpt>
      <trkpt lat="40.3063560" lon="-3.9097880">
        <ele>663.4</ele>
        <time>2021-02-20T07:56:09Z</time>
      </trkpt>
      <trkpt lat="40.3063810" lon="-3.9100920">
        <ele>663.2</ele>
        <time>2021-02-20T07:56:12Z</time>
      </trkpt>
      <trkpt lat="40.3063340" lon="-3.9102800">
        <ele>663.4</ele>
        <time>2021-02-20T07:56:14Z</time>
      </trkpt>
      <trkpt lat="40.3062820" lon="-3.9105820">
        <ele>665.0</ele>
        <time>2021-02-20T07:56:18Z</time>
      </trkpt>
      <trkpt lat="40.3063350" lon="-3.9108500">
        <ele>666.0</ele>
        <time>2021-02-20T07:56:22Z</time>
      </trkpt>
      <trkpt lat="40.3063580" lon="-3.9109170">
        <ele>666.2</ele>
        <time>2021-02-20T07:56:23Z</time>
      </trkpt>
      <trkpt lat="40.3064530" lon="-3.9111980">
        <ele>666.6</ele>
        <time>2021-02-20T07:56:27Z</time>
      </trkpt>
      <trkpt lat="40.3065060" lon="-3.9114120">
        <ele>667.0</ele>
        <time>2021-02-20T07:56:30Z</time>
      </trkpt>
      <trkpt lat="40.3065250" lon="-3.9114810">
        <ele>667.4</ele>
        <time>2021-02-20T07:56:31Z</time>
      </trkpt>
      <trkpt lat="40.3066490" lon="-3.9117870">
        <ele>668.8</ele>
        <time>2021-02-20T07:56:36Z</time>
      </trkpt>
      <trkpt lat="40.3066720" lon="-3.9118450">
        <ele>669.0</ele>
        <time>2021-02-20T07:56:37Z</time>
      </trkpt>
      <trkpt lat="40.3067360" lon="-3.9120220">
        <ele>669.8</ele>
        <time>2021-02-20T07:56:40Z</time>
      </trkpt>
      <trkpt lat="40.3068150" lon="-3.9123090">
        <ele>669.6</ele>
        <time>2021-02-20T07:56:44Z</time>
      </trkpt>
      <trkpt lat="40.3068710" lon="-3.9126490">
        <ele>668.6</ele>
        <time>2021-02-20T07:56:48Z</time>
      </trkpt>
      <trkpt lat="40.3069030" lon="-3.9128320">
        <ele>667.6</ele>
        <time>2021-02-20T07:56:50Z</time>
      </trkpt>
      <trkpt lat="40.3069130" lon="-3.9129280">
        <ele>667.2</ele>
        <time>2021-02-20T07:56:51Z</time>
      </trkpt>
      <trkpt lat="40.3069520" lon="-3.9131210">
        <ele>666.6</ele>
        <time>2021-02-20T07:56:53Z</time>
      </trkpt>
      <trkpt lat="40.3070090" lon="-3.9133130">
        <ele>666.0</ele>
        <time>2021-02-20T07:56:55Z</time>
      </trkpt>
      <trkpt lat="40.3070640" lon="-3.9136120">
        <ele>665.0</ele>
        <time>2021-02-20T07:56:58Z</time>
      </trkpt>
      <trkpt lat="40.3070690" lon="-3.9137150">
        <ele>664.8</ele>
        <time>2021-02-20T07:56:59Z</time>
      </trkpt>
      <trkpt lat="40.3070780" lon="-3.9138180">
        <ele>664.6</ele>
        <time>2021-02-20T07:57:00Z</time>
      </trkpt>
      <trkpt lat="40.3071590" lon="-3.9142200">
        <ele>663.8</ele>
        <time>2021-02-20T07:57:04Z</time>
      </trkpt>
      <trkpt lat="40.3071970" lon="-3.9143130">
        <ele>663.6</ele>
        <time>2021-02-20T07:57:05Z</time>
      </trkpt>
      <trkpt lat="40.3074590" lon="-3.9148090">
        <ele>663.4</ele>
        <time>2021-02-20T07:57:11Z</time>
      </trkpt>
      <trkpt lat="40.3076980" lon="-3.9152640">
        <ele>663.8</ele>
        <time>2021-02-20T07:57:17Z</time>
      </trkpt>
      <trkpt lat="40.3077640" lon="-3.9154010">
        <ele>664.2</ele>
        <time>2021-02-20T07:57:19Z</time>
      </trkpt>
      <trkpt lat="40.3078640" lon="-3.9155760">
        <ele>664.4</ele>
        <time>2021-02-20T07:57:22Z</time>
      </trkpt>
      <trkpt lat="40.3079320" lon="-3.9156970">
        <ele>664.0</ele>
        <time>2021-02-20T07:57:24Z</time>
      </trkpt>
      <trkpt lat="40.3080570" lon="-3.9158950">
        <ele>663.0</ele>
        <time>2021-02-20T07:57:27Z</time>
      </trkpt>
      <trkpt lat="40.3080970" lon="-3.9159720">
        <ele>662.6</ele>
        <time>2021-02-20T07:57:28Z</time>
      </trkpt>
      <trkpt lat="40.3082150" lon="-3.9162330">
        <ele>661.4</ele>
        <time>2021-02-20T07:57:31Z</time>
      </trkpt>
      <trkpt lat="40.3082480" lon="-3.9163320">
        <ele>661.0</ele>
        <time>2021-02-20T07:57:32Z</time>
      </trkpt>
      <trkpt lat="40.3082700" lon="-3.9164360">
        <ele>660.4</ele>
        <time>2021-02-20T07:57:33Z</time>
      </trkpt>
      <trkpt lat="40.3082810" lon="-3.9165430">
        <ele>660.0</ele>
        <time>2021-02-20T07:57:34Z</time>
      </trkpt>
      <trkpt lat="40.3082800" lon="-3.9166530">
        <ele>659.8</ele>
        <time>2021-02-20T07:57:35Z</time>
      </trkpt>
      <trkpt lat="40.3082960" lon="-3.9170540">
        <ele>659.6</ele>
        <time>2021-02-20T07:57:39Z</time>
      </trkpt>
      <trkpt lat="40.3083110" lon="-3.9171470">
        <ele>659.6</ele>
        <time>2021-02-20T07:57:40Z</time>
      </trkpt>
      <trkpt lat="40.3083540" lon="-3.9175830">
        <ele>660.2</ele>
        <time>2021-02-20T07:57:45Z</time>
      </trkpt>
      <trkpt lat="40.3083780" lon="-3.9179000">
        <ele>660.2</ele>
        <time>2021-02-20T07:57:49Z</time>
      </trkpt>
      <trkpt lat="40.3083970" lon="-3.9180590">
        <ele>659.8</ele>
        <time>2021-02-20T07:57:51Z</time>
      </trkpt>
      <trkpt lat="40.3083850" lon="-3.9183860">
        <ele>660.0</ele>
        <time>2021-02-20T07:57:55Z</time>
      </trkpt>
      <trkpt lat="40.3083710" lon="-3.9184640">
        <ele>660.2</ele>
        <time>2021-02-20T07:57:56Z</time>
      </trkpt>
      <trkpt lat="40.3083100" lon="-3.9189410">
        <ele>658.8</ele>
        <time>2021-02-20T07:58:02Z</time>
      </trkpt>
      <trkpt lat="40.3083040" lon="-3.9190310">
        <ele>658.4</ele>
        <time>2021-02-20T07:58:03Z</time>
      </trkpt>
      <trkpt lat="40.3082920" lon="-3.9191840">
        <ele>657.4</ele>
        <time>2021-02-20T07:58:05Z</time>
      </trkpt>
      <trkpt lat="40.3083240" lon="-3.9192990">
        <ele>656.6</ele>
        <time>2021-02-20T07:58:07Z</time>
      </trkpt>
      <trkpt lat="40.3083610" lon="-3.9193500">
        <ele>656.0</ele>
        <time>2021-02-20T07:58:08Z</time>
      </trkpt>
      <trkpt lat="40.3084650" lon="-3.9194140">
        <ele>655.0</ele>
        <time>2021-02-20T07:58:10Z</time>
      </trkpt>
      <trkpt lat="40.3085220" lon="-3.9194420">
        <ele>654.8</ele>
        <time>2021-02-20T07:58:11Z</time>
      </trkpt>
      <trkpt lat="40.3087600" lon="-3.9196110">
        <ele>653.6</ele>
        <time>2021-02-20T07:58:15Z</time>
      </trkpt>
      <trkpt lat="40.3089680" lon="-3.9197690">
        <ele>652.2</ele>
        <time>2021-02-20T07:58:18Z</time>
      </trkpt>
      <trkpt lat="40.3091160" lon="-3.9198850">
        <ele>651.0</ele>
        <time>2021-02-20T07:58:20Z</time>
      </trkpt>
      <trkpt lat="40.3093400" lon="-3.9200680">
        <ele>650.0</ele>
        <time>2021-02-20T07:58:23Z</time>
      </trkpt>
      <trkpt lat="40.3096220" lon="-3.9203070">
        <ele>649.2</ele>
        <time>2021-02-20T07:58:27Z</time>
      </trkpt>
      <trkpt lat="40.3099790" lon="-3.9204810">
        <ele>649.0</ele>
        <time>2021-02-20T07:58:32Z</time>
      </trkpt>
      <trkpt lat="40.3100520" lon="-3.9205090">
        <ele>648.8</ele>
        <time>2021-02-20T07:58:33Z</time>
      </trkpt>
      <trkpt lat="40.3103710" lon="-3.9205940">
        <ele>647.6</ele>
        <time>2021-02-20T07:58:37Z</time>
      </trkpt>
      <trkpt lat="40.3104540" lon="-3.9206160">
        <ele>647.2</ele>
        <time>2021-02-20T07:58:38Z</time>
      </trkpt>
      <trkpt lat="40.3106250" lon="-3.9206670">
        <ele>646.4</ele>
        <time>2021-02-20T07:58:40Z</time>
      </trkpt>
      <trkpt lat="40.3108050" lon="-3.9207110">
        <ele>645.4</ele>
        <time>2021-02-20T07:58:42Z</time>
      </trkpt>
      <trkpt lat="40.3108970" lon="-3.9207370">
        <ele>644.8</ele>
        <time>2021-02-20T07:58:43Z</time>
      </trkpt>
      <trkpt lat="40.3109890" lon="-3.9207620">
        <ele>644.4</ele>
        <time>2021-02-20T07:58:44Z</time>
      </trkpt>
      <trkpt lat="40.3111760" lon="-3.9208120">
        <ele>643.6</ele>
        <time>2021-02-20T07:58:46Z</time>
      </trkpt>
      <trkpt lat="40.3113610" lon="-3.9208650">
        <ele>642.6</ele>
        <time>2021-02-20T07:58:48Z</time>
      </trkpt>
      <trkpt lat="40.3115450" lon="-3.9209150">
        <ele>641.2</ele>
        <time>2021-02-20T07:58:50Z</time>
      </trkpt>
      <trkpt lat="40.3119090" lon="-3.9210090">
        <ele>640.0</ele>
        <time>2021-02-20T07:58:54Z</time>
      </trkpt>
      <trkpt lat="40.3121760" lon="-3.9210460">
        <ele>638.8</ele>
        <time>2021-02-20T07:58:57Z</time>
      </trkpt>
      <trkpt lat="40.3124480" lon="-3.9210470">
        <ele>638.2</ele>
        <time>2021-02-20T07:59:00Z</time>
      </trkpt>
      <trkpt lat="40.3126280" lon="-3.9210360">
        <ele>637.6</ele>
        <time>2021-02-20T07:59:02Z</time>
      </trkpt>
      <trkpt lat="40.3129970" lon="-3.9210220">
        <ele>636.6</ele>
        <time>2021-02-20T07:59:06Z</time>
      </trkpt>
      <trkpt lat="40.3131850" lon="-3.9210180">
        <ele>636.0</ele>
        <time>2021-02-20T07:59:08Z</time>
      </trkpt>
      <trkpt lat="40.3134640" lon="-3.9210040">
        <ele>635.4</ele>
        <time>2021-02-20T07:59:11Z</time>
      </trkpt>
      <trkpt lat="40.3137440" lon="-3.9209930">
        <ele>634.0</ele>
        <time>2021-02-20T07:59:14Z</time>
      </trkpt>
      <trkpt lat="40.3141130" lon="-3.9209970">
        <ele>633.0</ele>
        <time>2021-02-20T07:59:18Z</time>
      </trkpt>
      <trkpt lat="40.3142000" lon="-3.9210160">
        <ele>632.8</ele>
        <time>2021-02-20T07:59:19Z</time>
      </trkpt>
      <trkpt lat="40.3142850" lon="-3.9210460">
        <ele>632.4</ele>
        <time>2021-02-20T07:59:20Z</time>
      </trkpt>
      <trkpt lat="40.3144600" lon="-3.9211060">
        <ele>631.6</ele>
        <time>2021-02-20T07:59:22Z</time>
      </trkpt>
      <trkpt lat="40.3146300" lon="-3.9211840">
        <ele>631.2</ele>
        <time>2021-02-20T07:59:24Z</time>
      </trkpt>
      <trkpt lat="40.3147940" lon="-3.9212970">
        <ele>630.4</ele>
        <time>2021-02-20T07:59:26Z</time>
      </trkpt>
      <trkpt lat="40.3149490" lon="-3.9214410">
        <ele>629.6</ele>
        <time>2021-02-20T07:59:28Z</time>
      </trkpt>
      <trkpt lat="40.3150250" lon="-3.9215170">
        <ele>629.2</ele>
        <time>2021-02-20T07:59:29Z</time>
      </trkpt>
      <trkpt lat="40.3152610" lon="-3.9217460">
        <ele>628.0</ele>
        <time>2021-02-20T07:59:32Z</time>
      </trkpt>
      <trkpt lat="40.3155050" lon="-3.9219760">
        <ele>626.8</ele>
        <time>2021-02-20T07:59:35Z</time>
      </trkpt>
      <trkpt lat="40.3155870" lon="-3.9220550">
        <ele>626.4</ele>
        <time>2021-02-20T07:59:36Z</time>
      </trkpt>
      <trkpt lat="40.3156720" lon="-3.9221350">
        <ele>625.4</ele>
        <time>2021-02-20T07:59:37Z</time>
      </trkpt>
      <trkpt lat="40.3159170" lon="-3.9223730">
        <ele>624.0</ele>
        <time>2021-02-20T07:59:40Z</time>
      </trkpt>
      <trkpt lat="40.3161530" lon="-3.9226270">
        <ele>622.6</ele>
        <time>2021-02-20T07:59:43Z</time>
      </trkpt>
      <trkpt lat="40.3162970" lon="-3.9228130">
        <ele>621.2</ele>
        <time>2021-02-20T07:59:45Z</time>
      </trkpt>
      <trkpt lat="40.3164990" lon="-3.9231150">
        <ele>620.0</ele>
        <time>2021-02-20T07:59:48Z</time>
      </trkpt>
      <trkpt lat="40.3165620" lon="-3.9232190">
        <ele>619.4</ele>
        <time>2021-02-20T07:59:49Z</time>
      </trkpt>
      <trkpt lat="40.3166830" lon="-3.9234360">
        <ele>618.4</ele>
        <time>2021-02-20T07:59:51Z</time>
      </trkpt>
      <trkpt lat="40.3168060" lon="-3.9236540">
        <ele>617.2</ele>
        <time>2021-02-20T07:59:53Z</time>
      </trkpt>
      <trkpt lat="40.3169350" lon="-3.9238690">
        <ele>616.0</ele>
        <time>2021-02-20T07:59:55Z</time>
      </trkpt>
      <trkpt lat="40.3170590" lon="-3.9240890">
        <ele>615.0</ele>
        <time>2021-02-20T07:59:57Z</time>
      </trkpt>
      <trkpt lat="40.3171860" lon="-3.9243060">
        <ele>613.8</ele>
        <time>2021-02-20T07:59:59Z</time>
      </trkpt>
      <trkpt lat="40.3173100" lon="-3.9245270">
        <ele>612.0</ele>
        <time>2021-02-20T08:00:01Z</time>
      </trkpt>
      <trkpt lat="40.3174370" lon="-3.9247530">
        <ele>610.4</ele>
        <time>2021-02-20T08:00:03Z</time>
      </trkpt>
      <trkpt lat="40.3175700" lon="-3.9249770">
        <ele>608.8</ele>
        <time>2021-02-20T08:00:05Z</time>
      </trkpt>
      <trkpt lat="40.3176730" lon="-3.9251900">
        <ele>607.4</ele>
        <time>2021-02-20T08:00:07Z</time>
      </trkpt>
      <trkpt lat="40.3177010" lon="-3.9252890">
        <ele>606.8</ele>
        <time>2021-02-20T08:00:08Z</time>
      </trkpt>
      <trkpt lat="40.3177080" lon="-3.9253890">
        <ele>606.2</ele>
        <time>2021-02-20T08:00:09Z</time>
      </trkpt>
      <trkpt lat="40.3176160" lon="-3.9256740">
        <ele>604.8</ele>
        <time>2021-02-20T08:00:12Z</time>
      </trkpt>
      <trkpt lat="40.3174150" lon="-3.9258670">
        <ele>604.0</ele>
        <time>2021-02-20T08:00:15Z</time>
      </trkpt>
      <trkpt lat="40.3173400" lon="-3.9259230">
        <ele>603.8</ele>
        <time>2021-02-20T08:00:16Z</time>
      </trkpt>
      <trkpt lat="40.3171250" lon="-3.9261060">
        <ele>603.2</ele>
        <time>2021-02-20T08:00:19Z</time>
      </trkpt>
      <trkpt lat="40.3169810" lon="-3.9262220">
        <ele>602.8</ele>
        <time>2021-02-20T08:00:21Z</time>
      </trkpt>
      <trkpt lat="40.3168420" lon="-3.9263320">
        <ele>602.8</ele>
        <time>2021-02-20T08:00:23Z</time>
      </trkpt>
      <trkpt lat="40.3167080" lon="-3.9264430">
        <ele>603.0</ele>
        <time>2021-02-20T08:00:25Z</time>
      </trkpt>
      <trkpt lat="40.3165820" lon="-3.9265480">
        <ele>603.2</ele>
        <time>2021-02-20T08:00:27Z</time>
      </trkpt>
      <trkpt lat="40.3164590" lon="-3.9266470">
        <ele>603.6</ele>
        <time>2021-02-20T08:00:29Z</time>
      </trkpt>
      <trkpt lat="40.3163390" lon="-3.9267420">
        <ele>603.6</ele>
        <time>2021-02-20T08:00:31Z</time>
      </trkpt>
      <trkpt lat="40.3161020" lon="-3.9269280">
        <ele>603.8</ele>
        <time>2021-02-20T08:00:35Z</time>
      </trkpt>
      <trkpt lat="40.3158860" lon="-3.9271350">
        <ele>604.2</ele>
        <time>2021-02-20T08:00:39Z</time>
      </trkpt>
      <trkpt lat="40.3157120" lon="-3.9274090">
        <ele>604.4</ele>
        <time>2021-02-20T08:00:43Z</time>
      </trkpt>
      <trkpt lat="40.3156290" lon="-3.9275520">
        <ele>604.2</ele>
        <time>2021-02-20T08:00:45Z</time>
      </trkpt>
      <trkpt lat="40.3155050" lon="-3.9277660">
        <ele>604.2</ele>
        <time>2021-02-20T08:00:48Z</time>
      </trkpt>
      <trkpt lat="40.3153760" lon="-3.9279730">
        <ele>604.0</ele>
        <time>2021-02-20T08:00:51Z</time>
      </trkpt>
      <trkpt lat="40.3152430" lon="-3.9281820">
        <ele>604.0</ele>
        <time>2021-02-20T08:00:54Z</time>
      </trkpt>
      <trkpt lat="40.3148380" lon="-3.9287400">
        <ele>602.6</ele>
        <time>2021-02-20T08:01:02Z</time>
      </trkpt>
      <trkpt lat="40.3145430" lon="-3.9290940">
        <ele>601.6</ele>
        <time>2021-02-20T08:01:07Z</time>
      </trkpt>
      <trkpt lat="40.3144320" lon="-3.9292600">
        <ele>601.2</ele>
        <time>2021-02-20T08:01:09Z</time>
      </trkpt>
      <trkpt lat="40.3143840" lon="-3.9293480">
        <ele>601.2</ele>
        <time>2021-02-20T08:01:10Z</time>
      </trkpt>
      <trkpt lat="40.3142550" lon="-3.9296130">
        <ele>600.4</ele>
        <time>2021-02-20T08:01:13Z</time>
      </trkpt>
      <trkpt lat="40.3142230" lon="-3.9297120">
        <ele>600.2</ele>
        <time>2021-02-20T08:01:14Z</time>
      </trkpt>
      <trkpt lat="40.3141710" lon="-3.9299130">
        <ele>600.0</ele>
        <time>2021-02-20T08:01:16Z</time>
      </trkpt>
      <trkpt lat="40.3141370" lon="-3.9301190">
        <ele>599.6</ele>
        <time>2021-02-20T08:01:18Z</time>
      </trkpt>
      <trkpt lat="40.3140790" lon="-3.9304300">
        <ele>599.0</ele>
        <time>2021-02-20T08:01:21Z</time>
      </trkpt>
      <trkpt lat="40.3140160" lon="-3.9307390">
        <ele>598.4</ele>
        <time>2021-02-20T08:01:24Z</time>
      </trkpt>
      <trkpt lat="40.3139190" lon="-3.9310330">
        <ele>598.0</ele>
        <time>2021-02-20T08:01:27Z</time>
      </trkpt>
      <trkpt lat="40.3138400" lon="-3.9312290">
        <ele>597.6</ele>
        <time>2021-02-20T08:01:29Z</time>
      </trkpt>
      <trkpt lat="40.3137140" lon="-3.9315200">
        <ele>597.0</ele>
        <time>2021-02-20T08:01:32Z</time>
      </trkpt>
      <trkpt lat="40.3134590" lon="-3.9319640">
        <ele>595.6</ele>
        <time>2021-02-20T08:01:37Z</time>
      </trkpt>
      <trkpt lat="40.3131450" lon="-3.9323510">
        <ele>594.4</ele>
        <time>2021-02-20T08:01:42Z</time>
      </trkpt>
      <trkpt lat="40.3130090" lon="-3.9324960">
        <ele>594.0</ele>
        <time>2021-02-20T08:01:44Z</time>
      </trkpt>
      <trkpt lat="40.3129410" lon="-3.9325670">
        <ele>593.8</ele>
        <time>2021-02-20T08:01:45Z</time>
      </trkpt>
      <trkpt lat="40.3128050" lon="-3.9327160">
        <ele>593.4</ele>
        <time>2021-02-20T08:01:47Z</time>
      </trkpt>
      <trkpt lat="40.3126170" lon="-3.9329560">
        <ele>592.2</ele>
        <time>2021-02-20T08:01:50Z</time>
      </trkpt>
      <trkpt lat="40.3124960" lon="-3.9331310">
        <ele>591.8</ele>
        <time>2021-02-20T08:01:52Z</time>
      </trkpt>
      <trkpt lat="40.3122680" lon="-3.9336090">
        <ele>591.6</ele>
        <time>2021-02-20T08:01:57Z</time>
      </trkpt>
      <trkpt lat="40.3120650" lon="-3.9342520">
        <ele>592.4</ele>
        <time>2021-02-20T08:02:04Z</time>
      </trkpt>
      <trkpt lat="40.3119690" lon="-3.9344840">
        <ele>592.8</ele>
        <time>2021-02-20T08:02:07Z</time>
      </trkpt>
      <trkpt lat="40.3118810" lon="-3.9346000">
        <ele>593.0</ele>
        <time>2021-02-20T08:02:09Z</time>
      </trkpt>
      <trkpt lat="40.3118360" lon="-3.9346510">
        <ele>593.2</ele>
        <time>2021-02-20T08:02:10Z</time>
      </trkpt>
      <trkpt lat="40.3115860" lon="-3.9348700">
        <ele>593.8</ele>
        <time>2021-02-20T08:02:15Z</time>
      </trkpt>
      <trkpt lat="40.3111360" lon="-3.9352910">
        <ele>594.0</ele>
        <time>2021-02-20T08:02:24Z</time>
      </trkpt>
      <trkpt lat="40.3108930" lon="-3.9357090">
        <ele>593.2</ele>
        <time>2021-02-20T08:02:30Z</time>
      </trkpt>
      <trkpt lat="40.3106120" lon="-3.9363450">
        <ele>592.0</ele>
        <time>2021-02-20T08:02:38Z</time>
      </trkpt>
      <trkpt lat="40.3105360" lon="-3.9365070">
        <ele>591.8</ele>
        <time>2021-02-20T08:02:40Z</time>
      </trkpt>
      <trkpt lat="40.3104200" lon="-3.9367570">
        <ele>591.0</ele>
        <time>2021-02-20T08:02:43Z</time>
      </trkpt>
      <trkpt lat="40.3101880" lon="-3.9372650">
        <ele>589.8</ele>
        <time>2021-02-20T08:02:49Z</time>
      </trkpt>
      <trkpt lat="40.3099580" lon="-3.9377560">
        <ele>588.8</ele>
        <time>2021-02-20T08:02:55Z</time>
      </trkpt>
      <trkpt lat="40.3099240" lon="-3.9378780">
        <ele>588.2</ele>
        <time>2021-02-20T08:02:57Z</time>
      </trkpt>
      <trkpt lat="40.3099420" lon="-3.9379670">
        <ele>587.8</ele>
        <time>2021-02-20T08:02:59Z</time>
      </trkpt>
      <trkpt lat="40.3099640" lon="-3.9380000">
        <ele>587.8</ele>
        <time>2021-02-20T08:03:00Z</time>
      </trkpt>
      <trkpt lat="40.3099760" lon="-3.9382150">
        <ele>586.8</ele>
        <time>2021-02-20T08:03:04Z</time>
      </trkpt>
      <trkpt lat="40.3099680" lon="-3.9382810">
        <ele>586.6</ele>
        <time>2021-02-20T08:03:05Z</time>
      </trkpt>
      <trkpt lat="40.3099430" lon="-3.9385060">
        <ele>585.4</ele>
        <time>2021-02-20T08:03:08Z</time>
      </trkpt>
      <trkpt lat="40.3099580" lon="-3.9385740">
        <ele>585.0</ele>
        <time>2021-02-20T08:03:09Z</time>
      </trkpt>
      <trkpt lat="40.3099870" lon="-3.9387270">
        <ele>584.0</ele>
        <time>2021-02-20T08:03:11Z</time>
      </trkpt>
      <trkpt lat="40.3100110" lon="-3.9388030">
        <ele>583.6</ele>
        <time>2021-02-20T08:03:12Z</time>
      </trkpt>
      <trkpt lat="40.3100330" lon="-3.9388780">
        <ele>583.0</ele>
        <time>2021-02-20T08:03:13Z</time>
      </trkpt>
      <trkpt lat="40.3100610" lon="-3.9389580">
        <ele>582.4</ele>
        <time>2021-02-20T08:03:14Z</time>
      </trkpt>
      <trkpt lat="40.3100990" lon="-3.9390310">
        <ele>581.8</ele>
        <time>2021-02-20T08:03:15Z</time>
      </trkpt>
      <trkpt lat="40.3101840" lon="-3.9391620">
        <ele>580.6</ele>
        <time>2021-02-20T08:03:17Z</time>
      </trkpt>
      <trkpt lat="40.3102400" lon="-3.9392130">
        <ele>580.0</ele>
        <time>2021-02-20T08:03:18Z</time>
      </trkpt>
      <trkpt lat="40.3102990" lon="-3.9392550">
        <ele>579.2</ele>
        <time>2021-02-20T08:03:19Z</time>
      </trkpt>
      <trkpt lat="40.3103640" lon="-3.9393070">
        <ele>578.4</ele>
        <time>2021-02-20T08:03:20Z</time>
      </trkpt>
      <trkpt lat="40.3104250" lon="-3.9393510">
        <ele>577.8</ele>
        <time>2021-02-20T08:03:21Z</time>
      </trkpt>
      <trkpt lat="40.3104870" lon="-3.9393850">
        <ele>577.2</ele>
        <time>2021-02-20T08:03:22Z</time>
      </trkpt>
      <trkpt lat="40.3108410" lon="-3.9395560">
        <ele>577.0</ele>
        <time>2021-02-20T08:03:28Z</time>
      </trkpt>
      <trkpt lat="40.3112780" lon="-3.9397690">
        <ele>576.8</ele>
        <time>2021-02-20T08:03:36Z</time>
      </trkpt>
      <trkpt lat="40.3113030" lon="-3.9397850">
        <ele>576.6</ele>
        <time>2021-02-20T08:03:37Z</time>
      </trkpt>
      <trkpt lat="40.3113380" lon="-3.9398290">
        <ele>576.8</ele>
        <time>2021-02-20T08:03:39Z</time>
      </trkpt>
      <trkpt lat="40.3113410" lon="-3.9398600">
        <ele>576.8</ele>
        <time>2021-02-20T08:03:40Z</time>
      </trkpt>
      <trkpt lat="40.3113000" lon="-3.9400020">
        <ele>577.2</ele>
        <time>2021-02-20T08:03:43Z</time>
      </trkpt>
      <trkpt lat="40.3112820" lon="-3.9400640">
        <ele>577.2</ele>
        <time>2021-02-20T08:03:44Z</time>
      </trkpt>
      <trkpt lat="40.3112340" lon="-3.9403410">
        <ele>577.2</ele>
        <time>2021-02-20T08:03:48Z</time>
      </trkpt>
      <trkpt lat="40.3112320" lon="-3.9404120">
        <ele>577.0</ele>
        <time>2021-02-20T08:03:49Z</time>
      </trkpt>
      <trkpt lat="40.3112160" lon="-3.9410380">
        <ele>576.2</ele>
        <time>2021-02-20T08:03:57Z</time>
      </trkpt>
      <trkpt lat="40.3112700" lon="-3.9413090">
        <ele>576.2</ele>
        <time>2021-02-20T08:04:01Z</time>
      </trkpt>
      <trkpt lat="40.3113410" lon="-3.9415790">
        <ele>575.6</ele>
        <time>2021-02-20T08:04:05Z</time>
      </trkpt>
      <trkpt lat="40.3114060" lon="-3.9418060">
        <ele>575.0</ele>
        <time>2021-02-20T08:04:08Z</time>
      </trkpt>
      <trkpt lat="40.3115370" lon="-3.9422880">
        <ele>574.6</ele>
        <time>2021-02-20T08:04:14Z</time>
      </trkpt>
      <trkpt lat="40.3115860" lon="-3.9424520">
        <ele>574.4</ele>
        <time>2021-02-20T08:04:16Z</time>
      </trkpt>
      <trkpt lat="40.3117280" lon="-3.9429360">
        <ele>573.4</ele>
        <time>2021-02-20T08:04:22Z</time>
      </trkpt>
      <trkpt lat="40.3117720" lon="-3.9431010">
        <ele>573.2</ele>
        <time>2021-02-20T08:04:24Z</time>
      </trkpt>
      <trkpt lat="40.3118740" lon="-3.9435290">
        <ele>572.2</ele>
        <time>2021-02-20T08:04:29Z</time>
      </trkpt>
      <trkpt lat="40.3118810" lon="-3.9436200">
        <ele>572.2</ele>
        <time>2021-02-20T08:04:30Z</time>
      </trkpt>
      <trkpt lat="40.3118830" lon="-3.9441310">
        <ele>571.2</ele>
        <time>2021-02-20T08:04:36Z</time>
      </trkpt>
      <trkpt lat="40.3118810" lon="-3.9442120">
        <ele>571.2</ele>
        <time>2021-02-20T08:04:37Z</time>
      </trkpt>
      <trkpt lat="40.3118640" lon="-3.9445940">
        <ele>570.8</ele>
        <time>2021-02-20T08:04:42Z</time>
      </trkpt>
      <trkpt lat="40.3117970" lon="-3.9452120">
        <ele>570.8</ele>
        <time>2021-02-20T08:04:50Z</time>
      </trkpt>
      <trkpt lat="40.3117420" lon="-3.9456820">
        <ele>571.0</ele>
        <time>2021-02-20T08:04:56Z</time>
      </trkpt>
      <trkpt lat="40.3117140" lon="-3.9459150">
        <ele>571.0</ele>
        <time>2021-02-20T08:04:59Z</time>
      </trkpt>
      <trkpt lat="40.3117090" lon="-3.9459910">
        <ele>570.8</ele>
        <time>2021-02-20T08:05:00Z</time>
      </trkpt>
      <trkpt lat="40.3116530" lon="-3.9463010">
        <ele>570.6</ele>
        <time>2021-02-20T08:05:04Z</time>
      </trkpt>
      <trkpt lat="40.3115710" lon="-3.9465930">
        <ele>570.6</ele>
        <time>2021-02-20T08:05:08Z</time>
      </trkpt>
      <trkpt lat="40.3115410" lon="-3.9466570">
        <ele>570.6</ele>
        <time>2021-02-20T08:05:09Z</time>
      </trkpt>
      <trkpt lat="40.3115180" lon="-3.9467260">
        <ele>570.6</ele>
        <time>2021-02-20T08:05:10Z</time>
      </trkpt>
      <trkpt lat="40.3114930" lon="-3.9467850">
        <ele>570.6</ele>
        <time>2021-02-20T08:05:11Z</time>
      </trkpt>
      <trkpt lat="40.3114500" lon="-3.9468950">
        <ele>570.6</ele>
        <time>2021-02-20T08:05:13Z</time>
      </trkpt>
      <trkpt lat="40.3114140" lon="-3.9469240">
        <ele>570.4</ele>
        <time>2021-02-20T08:05:14Z</time>
      </trkpt>
      <trkpt lat="40.3113820" lon="-3.9469360">
        <ele>570.2</ele>
        <time>2021-02-20T08:05:15Z</time>
      </trkpt>
      <trkpt lat="40.3113230" lon="-3.9469480">
        <ele>569.8</ele>
        <time>2021-02-20T08:05:17Z</time>
      </trkpt>
      <trkpt lat="40.3112800" lon="-3.9469740">
        <ele>569.2</ele>
        <time>2021-02-20T08:05:20Z</time>
      </trkpt>
      <trkpt lat="40.3112880" lon="-3.9469710">
        <ele>569.2</ele>
        <time>2021-02-20T08:05:21Z</time>
      </trkpt>
      <trkpt lat="40.3112650" lon="-3.9469510">
        <ele>569.4</ele>
        <time>2021-02-20T08:06:37Z</time>
      </trkpt>
      <trkpt lat="40.3112640" lon="-3.9469370">
        <ele>569.4</ele>
        <time>2021-02-20T08:06:38Z</time>
      </trkpt>
      <trkpt lat="40.3112800" lon="-3.9469220">
        <ele>569.4</ele>
        <time>2021-02-20T08:06:40Z</time>
      </trkpt>
      <trkpt lat="40.3113270" lon="-3.9468950">
        <ele>569.8</ele>
        <time>2021-02-20T08:06:44Z</time>
      </trkpt>
      <trkpt lat="40.3113780" lon="-3.9469150">
        <ele>569.8</ele>
        <time>2021-02-20T08:06:46Z</time>
      </trkpt>
      <trkpt lat="40.3114130" lon="-3.9469210">
        <ele>570.0</ele>
        <time>2021-02-20T08:06:47Z</time>
      </trkpt>
      <trkpt lat="40.3114860" lon="-3.9469530">
        <ele>570.0</ele>
        <time>2021-02-20T08:06:49Z</time>
      </trkpt>
      <trkpt lat="40.3115580" lon="-3.9469770">
        <ele>570.4</ele>
        <time>2021-02-20T08:06:51Z</time>
      </trkpt>
      <trkpt lat="40.3117140" lon="-3.9470280">
        <ele>570.4</ele>
        <time>2021-02-20T08:06:55Z</time>
      </trkpt>
      <trkpt lat="40.3118360" lon="-3.9470740">
        <ele>570.2</ele>
        <time>2021-02-20T08:06:58Z</time>
      </trkpt>
      <trkpt lat="40.3121990" lon="-3.9471880">
        <ele>570.6</ele>
        <time>2021-02-20T08:07:06Z</time>
      </trkpt>
      <trkpt lat="40.3124340" lon="-3.9472640">
        <ele>571.0</ele>
        <time>2021-02-20T08:07:11Z</time>
      </trkpt>
      <trkpt lat="40.3126180" lon="-3.9473540">
        <ele>571.2</ele>
        <time>2021-02-20T08:07:15Z</time>
      </trkpt>
      <trkpt lat="40.3128750" lon="-3.9475410">
        <ele>571.8</ele>
        <time>2021-02-20T08:07:21Z</time>
      </trkpt>
      <trkpt lat="40.3129130" lon="-3.9475760">
        <ele>572.0</ele>
        <time>2021-02-20T08:07:22Z</time>
      </trkpt>
      <trkpt lat="40.3129880" lon="-3.9476500">
        <ele>572.2</ele>
        <time>2021-02-20T08:07:24Z</time>
      </trkpt>
      <trkpt lat="40.3131820" lon="-3.9478960">
        <ele>573.0</ele>
        <time>2021-02-20T08:07:30Z</time>
      </trkpt>
      <trkpt lat="40.3132090" lon="-3.9479380">
        <ele>573.2</ele>
        <time>2021-02-20T08:07:31Z</time>
      </trkpt>
      <trkpt lat="40.3133920" lon="-3.9482040">
        <ele>573.6</ele>
        <time>2021-02-20T08:07:37Z</time>
      </trkpt>
      <trkpt lat="40.3135630" lon="-3.9483870">
        <ele>574.2</ele>
        <time>2021-02-20T08:07:42Z</time>
      </trkpt>
      <trkpt lat="40.3136250" lon="-3.9484520">
        <ele>574.4</ele>
        <time>2021-02-20T08:07:44Z</time>
      </trkpt>
      <trkpt lat="40.3137820" lon="-3.9485590">
        <ele>574.6</ele>
        <time>2021-02-20T08:07:49Z</time>
      </trkpt>
      <trkpt lat="40.3139040" lon="-3.9486310">
        <ele>574.8</ele>
        <time>2021-02-20T08:07:52Z</time>
      </trkpt>
      <trkpt lat="40.3139950" lon="-3.9486520">
        <ele>574.8</ele>
        <time>2021-02-20T08:07:54Z</time>
      </trkpt>
      <trkpt lat="40.3143180" lon="-3.9487050">
        <ele>575.4</ele>
        <time>2021-02-20T08:08:01Z</time>
      </trkpt>
      <trkpt lat="40.3143610" lon="-3.9487170">
        <ele>575.6</ele>
        <time>2021-02-20T08:08:02Z</time>
      </trkpt>
      <trkpt lat="40.3146200" lon="-3.9487930">
        <ele>576.2</ele>
        <time>2021-02-20T08:08:08Z</time>
      </trkpt>
      <trkpt lat="40.3146630" lon="-3.9488140">
        <ele>576.2</ele>
        <time>2021-02-20T08:08:09Z</time>
      </trkpt>
      <trkpt lat="40.3148840" lon="-3.9488810">
        <ele>576.4</ele>
        <time>2021-02-20T08:08:14Z</time>
      </trkpt>
      <trkpt lat="40.3149280" lon="-3.9488970">
        <ele>576.4</ele>
        <time>2021-02-20T08:08:15Z</time>
      </trkpt>
      <trkpt lat="40.3151390" lon="-3.9489870">
        <ele>577.0</ele>
        <time>2021-02-20T08:08:20Z</time>
      </trkpt>
      <trkpt lat="40.3152680" lon="-3.9490480">
        <ele>577.2</ele>
        <time>2021-02-20T08:08:23Z</time>
      </trkpt>
      <trkpt lat="40.3155590" lon="-3.9491830">
        <ele>576.8</ele>
        <time>2021-02-20T08:08:29Z</time>
      </trkpt>
      <trkpt lat="40.3159480" lon="-3.9493370">
        <ele>576.0</ele>
        <time>2021-02-20T08:08:37Z</time>
      </trkpt>
      <trkpt lat="40.3161990" lon="-3.9494230">
        <ele>575.8</ele>
        <time>2021-02-20T08:08:42Z</time>
      </trkpt>
      <trkpt lat="40.3163440" lon="-3.9494610">
        <ele>575.6</ele>
        <time>2021-02-20T08:08:45Z</time>
      </trkpt>
      <trkpt lat="40.3166010" lon="-3.9495070">
        <ele>575.4</ele>
        <time>2021-02-20T08:08:50Z</time>
      </trkpt>
      <trkpt lat="40.3167600" lon="-3.9495350">
        <ele>575.4</ele>
        <time>2021-02-20T08:08:53Z</time>
      </trkpt>
      <trkpt lat="40.3170740" lon="-3.9495880">
        <ele>575.6</ele>
        <time>2021-02-20T08:08:59Z</time>
      </trkpt>
      <trkpt lat="40.3174860" lon="-3.9496440">
        <ele>576.0</ele>
        <time>2021-02-20T08:09:07Z</time>
      </trkpt>
      <trkpt lat="40.3178900" lon="-3.9497570">
        <ele>576.2</ele>
        <time>2021-02-20T08:09:15Z</time>
      </trkpt>
      <trkpt lat="40.3179330" lon="-3.9497800">
        <ele>576.2</ele>
        <time>2021-02-20T08:09:16Z</time>
      </trkpt>
      <trkpt lat="40.3180680" lon="-3.9498180">
        <ele>576.2</ele>
        <time>2021-02-20T08:09:19Z</time>
      </trkpt>
      <trkpt lat="40.3181160" lon="-3.9498330">
        <ele>576.2</ele>
        <time>2021-02-20T08:09:20Z</time>
      </trkpt>
      <trkpt lat="40.3182030" lon="-3.9498710">
        <ele>576.6</ele>
        <time>2021-02-20T08:09:22Z</time>
      </trkpt>
      <trkpt lat="40.3183430" lon="-3.9499330">
        <ele>576.4</ele>
        <time>2021-02-20T08:09:25Z</time>
      </trkpt>
      <trkpt lat="40.3185410" lon="-3.9500010">
        <ele>576.4</ele>
        <time>2021-02-20T08:09:29Z</time>
      </trkpt>
      <trkpt lat="40.3186460" lon="-3.9500050">
        <ele>576.4</ele>
        <time>2021-02-20T08:09:31Z</time>
      </trkpt>
      <trkpt lat="40.3190190" lon="-3.9499560">
        <ele>576.4</ele>
        <time>2021-02-20T08:09:38Z</time>
      </trkpt>
      <trkpt lat="40.3193870" lon="-3.9498500">
        <ele>576.6</ele>
        <time>2021-02-20T08:09:45Z</time>
      </trkpt>
      <trkpt lat="40.3196150" lon="-3.9497760">
        <ele>576.8</ele>
        <time>2021-02-20T08:09:50Z</time>
      </trkpt>
      <trkpt lat="40.3196650" lon="-3.9497590">
        <ele>577.0</ele>
        <time>2021-02-20T08:09:51Z</time>
      </trkpt>
      <trkpt lat="40.3197590" lon="-3.9497480">
        <ele>577.0</ele>
        <time>2021-02-20T08:09:53Z</time>
      </trkpt>
      <trkpt lat="40.3199170" lon="-3.9497750">
        <ele>577.0</ele>
        <time>2021-02-20T08:09:56Z</time>
      </trkpt>
      <trkpt lat="40.3201730" lon="-3.9498200">
        <ele>577.4</ele>
        <time>2021-02-20T08:10:01Z</time>
      </trkpt>
      <trkpt lat="40.3202220" lon="-3.9498270">
        <ele>577.8</ele>
        <time>2021-02-20T08:10:02Z</time>
      </trkpt>
      <trkpt lat="40.3202700" lon="-3.9498420">
        <ele>577.8</ele>
        <time>2021-02-20T08:10:03Z</time>
      </trkpt>
      <trkpt lat="40.3203730" lon="-3.9498690">
        <ele>577.4</ele>
        <time>2021-02-20T08:10:05Z</time>
      </trkpt>
      <trkpt lat="40.3204960" lon="-3.9499140">
        <ele>576.2</ele>
        <time>2021-02-20T08:10:07Z</time>
      </trkpt>
      <trkpt lat="40.3205700" lon="-3.9499250">
        <ele>575.6</ele>
        <time>2021-02-20T08:10:08Z</time>
      </trkpt>
      <trkpt lat="40.3206510" lon="-3.9499290">
        <ele>575.2</ele>
        <time>2021-02-20T08:10:09Z</time>
      </trkpt>
      <trkpt lat="40.3209410" lon="-3.9499090">
        <ele>574.8</ele>
        <time>2021-02-20T08:10:13Z</time>
      </trkpt>
      <trkpt lat="40.3211470" lon="-3.9498950">
        <ele>576.2</ele>
        <time>2021-02-20T08:10:17Z</time>
      </trkpt>
      <trkpt lat="40.3211930" lon="-3.9498860">
        <ele>576.6</ele>
        <time>2021-02-20T08:10:18Z</time>
      </trkpt>
      <trkpt lat="40.3212760" lon="-3.9498570">
        <ele>577.4</ele>
        <time>2021-02-20T08:10:20Z</time>
      </trkpt>
      <trkpt lat="40.3213210" lon="-3.9498540">
        <ele>577.8</ele>
        <time>2021-02-20T08:10:21Z</time>
      </trkpt>
      <trkpt lat="40.3214110" lon="-3.9498390">
        <ele>578.4</ele>
        <time>2021-02-20T08:10:23Z</time>
      </trkpt>
      <trkpt lat="40.3217250" lon="-3.9498620">
        <ele>578.6</ele>
        <time>2021-02-20T08:10:29Z</time>
      </trkpt>
      <trkpt lat="40.3222350" lon="-3.9499160">
        <ele>577.8</ele>
        <time>2021-02-20T08:10:38Z</time>
      </trkpt>
      <trkpt lat="40.3225860" lon="-3.9499700">
        <ele>577.4</ele>
        <time>2021-02-20T08:10:44Z</time>
      </trkpt>
      <trkpt lat="40.3227090" lon="-3.9499890">
        <ele>577.2</ele>
        <time>2021-02-20T08:10:46Z</time>
      </trkpt>
      <trkpt lat="40.3230070" lon="-3.9500680">
        <ele>576.8</ele>
        <time>2021-02-20T08:10:51Z</time>
      </trkpt>
      <trkpt lat="40.3230670" lon="-3.9500950">
        <ele>576.8</ele>
        <time>2021-02-20T08:10:52Z</time>
      </trkpt>
      <trkpt lat="40.3232490" lon="-3.9501330">
        <ele>576.4</ele>
        <time>2021-02-20T08:10:55Z</time>
      </trkpt>
      <trkpt lat="40.3233700" lon="-3.9501740">
        <ele>576.2</ele>
        <time>2021-02-20T08:10:57Z</time>
      </trkpt>
      <trkpt lat="40.3236710" lon="-3.9502930">
        <ele>575.8</ele>
        <time>2021-02-20T08:11:02Z</time>
      </trkpt>
      <trkpt lat="40.3237370" lon="-3.9503020">
        <ele>575.6</ele>
        <time>2021-02-20T08:11:03Z</time>
      </trkpt>
      <trkpt lat="40.3240540" lon="-3.9503640">
        <ele>575.2</ele>
        <time>2021-02-20T08:11:08Z</time>
      </trkpt>
      <trkpt lat="40.3243790" lon="-3.9504140">
        <ele>574.6</ele>
        <time>2021-02-20T08:11:13Z</time>
      </trkpt>
      <trkpt lat="40.3246270" lon="-3.9504200">
        <ele>574.2</ele>
        <time>2021-02-20T08:11:17Z</time>
      </trkpt>
      <trkpt lat="40.3247460" lon="-3.9504340">
        <ele>574.0</ele>
        <time>2021-02-20T08:11:19Z</time>
      </trkpt>
      <trkpt lat="40.3252270" lon="-3.9505140">
        <ele>573.6</ele>
        <time>2021-02-20T08:11:27Z</time>
      </trkpt>
      <trkpt lat="40.3256920" lon="-3.9506810">
        <ele>573.8</ele>
        <time>2021-02-20T08:11:35Z</time>
      </trkpt>
      <trkpt lat="40.3260940" lon="-3.9508470">
        <ele>574.4</ele>
        <time>2021-02-20T08:11:42Z</time>
      </trkpt>
      <trkpt lat="40.3262050" lon="-3.9508980">
        <ele>574.6</ele>
        <time>2021-02-20T08:11:44Z</time>
      </trkpt>
      <trkpt lat="40.3266000" lon="-3.9511070">
        <ele>574.2</ele>
        <time>2021-02-20T08:11:51Z</time>
      </trkpt>
      <trkpt lat="40.3269670" lon="-3.9511810">
        <ele>574.4</ele>
        <time>2021-02-20T08:11:57Z</time>
      </trkpt>
      <trkpt lat="40.3273970" lon="-3.9512030">
        <ele>574.6</ele>
        <time>2021-02-20T08:12:04Z</time>
      </trkpt>
      <trkpt lat="40.3278110" lon="-3.9511410">
        <ele>574.8</ele>
        <time>2021-02-20T08:12:11Z</time>
      </trkpt>
      <trkpt lat="40.3279220" lon="-3.9511240">
        <ele>575.2</ele>
        <time>2021-02-20T08:12:13Z</time>
      </trkpt>
      <trkpt lat="40.3281480" lon="-3.9511210">
        <ele>575.8</ele>
        <time>2021-02-20T08:12:17Z</time>
      </trkpt>
      <trkpt lat="40.3282040" lon="-3.9511340">
        <ele>576.0</ele>
        <time>2021-02-20T08:12:18Z</time>
      </trkpt>
      <trkpt lat="40.3283150" lon="-3.9511590">
        <ele>576.2</ele>
        <time>2021-02-20T08:12:20Z</time>
      </trkpt>
      <trkpt lat="40.3286350" lon="-3.9512460">
        <ele>577.0</ele>
        <time>2021-02-20T08:12:26Z</time>
      </trkpt>
      <trkpt lat="40.3288070" lon="-3.9512570">
        <ele>577.0</ele>
        <time>2021-02-20T08:12:29Z</time>
      </trkpt>
      <trkpt lat="40.3289200" lon="-3.9512370">
        <ele>577.2</ele>
        <time>2021-02-20T08:12:31Z</time>
      </trkpt>
      <trkpt lat="40.3290370" lon="-3.9512240">
        <ele>577.4</ele>
        <time>2021-02-20T08:12:33Z</time>
      </trkpt>
      <trkpt lat="40.3291530" lon="-3.9512260">
        <ele>577.6</ele>
        <time>2021-02-20T08:12:35Z</time>
      </trkpt>
      <trkpt lat="40.3293260" lon="-3.9512390">
        <ele>578.4</ele>
        <time>2021-02-20T08:12:38Z</time>
      </trkpt>
      <trkpt lat="40.3296110" lon="-3.9511850">
        <ele>578.4</ele>
        <time>2021-02-20T08:12:43Z</time>
      </trkpt>
      <trkpt lat="40.3296690" lon="-3.9511780">
        <ele>578.6</ele>
        <time>2021-02-20T08:12:44Z</time>
      </trkpt>
      <trkpt lat="40.3297280" lon="-3.9511830">
        <ele>578.6</ele>
        <time>2021-02-20T08:12:45Z</time>
      </trkpt>
      <trkpt lat="40.3298900" lon="-3.9512520">
        <ele>578.8</ele>
        <time>2021-02-20T08:12:48Z</time>
      </trkpt>
      <trkpt lat="40.3299440" lon="-3.9512800">
        <ele>578.6</ele>
        <time>2021-02-20T08:12:49Z</time>
      </trkpt>
      <trkpt lat="40.3301630" lon="-3.9514190">
        <ele>577.8</ele>
        <time>2021-02-20T08:12:53Z</time>
      </trkpt>
      <trkpt lat="40.3302240" lon="-3.9514720">
        <ele>577.2</ele>
        <time>2021-02-20T08:12:54Z</time>
      </trkpt>
      <trkpt lat="40.3302890" lon="-3.9515290">
        <ele>576.4</ele>
        <time>2021-02-20T08:12:55Z</time>
      </trkpt>
      <trkpt lat="40.3303560" lon="-3.9515900">
        <ele>575.6</ele>
        <time>2021-02-20T08:12:56Z</time>
      </trkpt>
      <trkpt lat="40.3304820" lon="-3.9517160">
        <ele>574.6</ele>
        <time>2021-02-20T08:12:58Z</time>
      </trkpt>
      <trkpt lat="40.3305540" lon="-3.9517500">
        <ele>574.2</ele>
        <time>2021-02-20T08:12:59Z</time>
      </trkpt>
      <trkpt lat="40.3306930" lon="-3.9517210">
        <ele>573.8</ele>
        <time>2021-02-20T08:13:01Z</time>
      </trkpt>
      <trkpt lat="40.3307620" lon="-3.9516950">
        <ele>573.6</ele>
        <time>2021-02-20T08:13:02Z</time>
      </trkpt>
      <trkpt lat="40.3308310" lon="-3.9516710">
        <ele>573.6</ele>
        <time>2021-02-20T08:13:03Z</time>
      </trkpt>
      <trkpt lat="40.3310430" lon="-3.9516280">
        <ele>573.6</ele>
        <time>2021-02-20T08:13:06Z</time>
      </trkpt>
      <trkpt lat="40.3313550" lon="-3.9515450">
        <ele>575.0</ele>
        <time>2021-02-20T08:13:11Z</time>
      </trkpt>
      <trkpt lat="40.3314100" lon="-3.9515380">
        <ele>575.4</ele>
        <time>2021-02-20T08:13:12Z</time>
      </trkpt>
      <trkpt lat="40.3315010" lon="-3.9515440">
        <ele>576.4</ele>
        <time>2021-02-20T08:13:14Z</time>
      </trkpt>
      <trkpt lat="40.3315830" lon="-3.9515830">
        <ele>577.4</ele>
        <time>2021-02-20T08:13:16Z</time>
      </trkpt>
      <trkpt lat="40.3317670" lon="-3.9517540">
        <ele>578.6</ele>
        <time>2021-02-20T08:13:21Z</time>
      </trkpt>
      <trkpt lat="40.3318110" lon="-3.9517800">
        <ele>578.8</ele>
        <time>2021-02-20T08:13:22Z</time>
      </trkpt>
      <trkpt lat="40.3318490" lon="-3.9518090">
        <ele>579.0</ele>
        <time>2021-02-20T08:13:23Z</time>
      </trkpt>
      <trkpt lat="40.3321010" lon="-3.9519850">
        <ele>579.6</ele>
        <time>2021-02-20T08:13:29Z</time>
      </trkpt>
      <trkpt lat="40.3321480" lon="-3.9520110">
        <ele>579.6</ele>
        <time>2021-02-20T08:13:30Z</time>
      </trkpt>
      <trkpt lat="40.3321940" lon="-3.9520380">
        <ele>579.6</ele>
        <time>2021-02-20T08:13:31Z</time>
      </trkpt>
      <trkpt lat="40.3325000" lon="-3.9521810">
        <ele>580.2</ele>
        <time>2021-02-20T08:13:38Z</time>
      </trkpt>
      <trkpt lat="40.3328290" lon="-3.9522840">
        <ele>579.6</ele>
        <time>2021-02-20T08:13:45Z</time>
      </trkpt>
      <trkpt lat="40.3333150" lon="-3.9524550">
        <ele>579.6</ele>
        <time>2021-02-20T08:13:55Z</time>
      </trkpt>
      <trkpt lat="40.3337470" lon="-3.9526050">
        <ele>580.2</ele>
        <time>2021-02-20T08:14:04Z</time>
      </trkpt>
      <trkpt lat="40.3338850" lon="-3.9526570">
        <ele>580.8</ele>
        <time>2021-02-20T08:14:07Z</time>
      </trkpt>
      <trkpt lat="40.3341900" lon="-3.9527720">
        <ele>581.6</ele>
        <time>2021-02-20T08:14:14Z</time>
      </trkpt>
      <trkpt lat="40.3342340" lon="-3.9527900">
        <ele>581.8</ele>
        <time>2021-02-20T08:14:15Z</time>
      </trkpt>
      <trkpt lat="40.3344140" lon="-3.9528340">
        <ele>582.2</ele>
        <time>2021-02-20T08:14:19Z</time>
      </trkpt>
      <trkpt lat="40.3345090" lon="-3.9528310">
        <ele>582.2</ele>
        <time>2021-02-20T08:14:21Z</time>
      </trkpt>
      <trkpt lat="40.3347830" lon="-3.9527730">
        <ele>582.8</ele>
        <time>2021-02-20T08:14:27Z</time>
      </trkpt>
      <trkpt lat="40.3349300" lon="-3.9527560">
        <ele>582.8</ele>
        <time>2021-02-20T08:14:30Z</time>
      </trkpt>
      <trkpt lat="40.3349790" lon="-3.9527640">
        <ele>582.8</ele>
        <time>2021-02-20T08:14:31Z</time>
      </trkpt>
      <trkpt lat="40.3351160" lon="-3.9528050">
        <ele>582.4</ele>
        <time>2021-02-20T08:14:34Z</time>
      </trkpt>
      <trkpt lat="40.3351610" lon="-3.9528150">
        <ele>582.2</ele>
        <time>2021-02-20T08:14:35Z</time>
      </trkpt>
      <trkpt lat="40.3352470" lon="-3.9527880">
        <ele>581.6</ele>
        <time>2021-02-20T08:14:37Z</time>
      </trkpt>
      <trkpt lat="40.3352740" lon="-3.9527280">
        <ele>581.2</ele>
        <time>2021-02-20T08:14:38Z</time>
      </trkpt>
      <trkpt lat="40.3353200" lon="-3.9525950">
        <ele>580.4</ele>
        <time>2021-02-20T08:14:40Z</time>
      </trkpt>
      <trkpt lat="40.3353300" lon="-3.9525170">
        <ele>580.0</ele>
        <time>2021-02-20T08:14:41Z</time>
      </trkpt>
      <trkpt lat="40.3353170" lon="-3.9523450">
        <ele>579.2</ele>
        <time>2021-02-20T08:14:43Z</time>
      </trkpt>
      <trkpt lat="40.3353160" lon="-3.9521510">
        <ele>578.2</ele>
        <time>2021-02-20T08:14:45Z</time>
      </trkpt>
      <trkpt lat="40.3353240" lon="-3.9520520">
        <ele>577.8</ele>
        <time>2021-02-20T08:14:46Z</time>
      </trkpt>
      <trkpt lat="40.3353600" lon="-3.9516600">
        <ele>576.4</ele>
        <time>2021-02-20T08:14:50Z</time>
      </trkpt>
      <trkpt lat="40.3354050" lon="-3.9514580">
        <ele>575.2</ele>
        <time>2021-02-20T08:14:52Z</time>
      </trkpt>
      <trkpt lat="40.3354580" lon="-3.9512700">
        <ele>574.4</ele>
        <time>2021-02-20T08:14:54Z</time>
      </trkpt>
      <trkpt lat="40.3354960" lon="-3.9512050">
        <ele>574.2</ele>
        <time>2021-02-20T08:14:55Z</time>
      </trkpt>
      <trkpt lat="40.3356000" lon="-3.9511360">
        <ele>573.8</ele>
        <time>2021-02-20T08:14:57Z</time>
      </trkpt>
      <trkpt lat="40.3357220" lon="-3.9511270">
        <ele>573.2</ele>
        <time>2021-02-20T08:14:59Z</time>
      </trkpt>
      <trkpt lat="40.3357830" lon="-3.9511060">
        <ele>572.6</ele>
        <time>2021-02-20T08:15:00Z</time>
      </trkpt>
      <trkpt lat="40.3358930" lon="-3.9510290">
        <ele>572.0</ele>
        <time>2021-02-20T08:15:02Z</time>
      </trkpt>
      <trkpt lat="40.3360510" lon="-3.9509410">
        <ele>571.6</ele>
        <time>2021-02-20T08:15:05Z</time>
      </trkpt>
      <trkpt lat="40.3361010" lon="-3.9509360">
        <ele>571.6</ele>
        <time>2021-02-20T08:15:06Z</time>
      </trkpt>
      <trkpt lat="40.3362260" lon="-3.9509920">
        <ele>571.0</ele>
        <time>2021-02-20T08:15:09Z</time>
      </trkpt>
      <trkpt lat="40.3362660" lon="-3.9510850">
        <ele>571.0</ele>
        <time>2021-02-20T08:15:11Z</time>
      </trkpt>
      <trkpt lat="40.3362690" lon="-3.9511550">
        <ele>571.0</ele>
        <time>2021-02-20T08:15:12Z</time>
      </trkpt>
      <trkpt lat="40.3362940" lon="-3.9512680">
        <ele>571.6</ele>
        <time>2021-02-20T08:15:14Z</time>
      </trkpt>
      <trkpt lat="40.3363240" lon="-3.9512950">
        <ele>571.6</ele>
        <time>2021-02-20T08:15:15Z</time>
      </trkpt>
      <trkpt lat="40.3363880" lon="-3.9512580">
        <ele>571.8</ele>
        <time>2021-02-20T08:15:17Z</time>
      </trkpt>
      <trkpt lat="40.3364140" lon="-3.9512130">
        <ele>572.0</ele>
        <time>2021-02-20T08:15:18Z</time>
      </trkpt>
      <trkpt lat="40.3364990" lon="-3.9510820">
        <ele>572.6</ele>
        <time>2021-02-20T08:15:21Z</time>
      </trkpt>
      <trkpt lat="40.3365290" lon="-3.9510470">
        <ele>572.8</ele>
        <time>2021-02-20T08:15:22Z</time>
      </trkpt>
      <trkpt lat="40.3365580" lon="-3.9510120">
        <ele>573.2</ele>
        <time>2021-02-20T08:15:23Z</time>
      </trkpt>
      <trkpt lat="40.3366520" lon="-3.9509120">
        <ele>573.8</ele>
        <time>2021-02-20T08:15:26Z</time>
      </trkpt>
      <trkpt lat="40.3367510" lon="-3.9508180">
        <ele>574.0</ele>
        <time>2021-02-20T08:15:29Z</time>
      </trkpt>
      <trkpt lat="40.3367870" lon="-3.9507950">
        <ele>574.0</ele>
        <time>2021-02-20T08:15:30Z</time>
      </trkpt>
      <trkpt lat="40.3369560" lon="-3.9507470">
        <ele>573.8</ele>
        <time>2021-02-20T08:15:34Z</time>
      </trkpt>
      <trkpt lat="40.3371290" lon="-3.9507010">
        <ele>574.0</ele>
        <time>2021-02-20T08:15:38Z</time>
      </trkpt>
      <trkpt lat="40.3373050" lon="-3.9507020">
        <ele>574.2</ele>
        <time>2021-02-20T08:15:42Z</time>
      </trkpt>
      <trkpt lat="40.3374810" lon="-3.9507630">
        <ele>574.6</ele>
        <time>2021-02-20T08:15:46Z</time>
      </trkpt>
      <trkpt lat="40.3376140" lon="-3.9508170">
        <ele>574.8</ele>
        <time>2021-02-20T08:15:49Z</time>
      </trkpt>
      <trkpt lat="40.3377870" lon="-3.9508940">
        <ele>575.0</ele>
        <time>2021-02-20T08:15:53Z</time>
      </trkpt>
      <trkpt lat="40.3378330" lon="-3.9509080">
        <ele>575.2</ele>
        <time>2021-02-20T08:15:54Z</time>
      </trkpt>
      <trkpt lat="40.3379280" lon="-3.9509310">
        <ele>575.2</ele>
        <time>2021-02-20T08:15:56Z</time>
      </trkpt>
      <trkpt lat="40.3382560" lon="-3.9510170">
        <ele>573.2</ele>
        <time>2021-02-20T08:16:02Z</time>
      </trkpt>
      <trkpt lat="40.3383940" lon="-3.9510560">
        <ele>572.2</ele>
        <time>2021-02-20T08:16:04Z</time>
      </trkpt>
      <trkpt lat="40.3385370" lon="-3.9510970">
        <ele>571.4</ele>
        <time>2021-02-20T08:16:06Z</time>
      </trkpt>
      <trkpt lat="40.3385990" lon="-3.9511250">
        <ele>571.2</ele>
        <time>2021-02-20T08:16:07Z</time>
      </trkpt>
      <trkpt lat="40.3386570" lon="-3.9511500">
        <ele>571.0</ele>
        <time>2021-02-20T08:16:08Z</time>
      </trkpt>
      <trkpt lat="40.3387750" lon="-3.9511510">
        <ele>571.0</ele>
        <time>2021-02-20T08:16:10Z</time>
      </trkpt>
      <trkpt lat="40.3389140" lon="-3.9510410">
        <ele>571.0</ele>
        <time>2021-02-20T08:16:13Z</time>
      </trkpt>
      <trkpt lat="40.3389920" lon="-3.9509430">
        <ele>571.0</ele>
        <time>2021-02-20T08:16:15Z</time>
      </trkpt>
      <trkpt lat="40.3390600" lon="-3.9508620">
        <ele>570.8</ele>
        <time>2021-02-20T08:16:17Z</time>
      </trkpt>
      <trkpt lat="40.3390960" lon="-3.9508390">
        <ele>570.8</ele>
        <time>2021-02-20T08:16:18Z</time>
      </trkpt>
      <trkpt lat="40.3391770" lon="-3.9508050">
        <ele>570.8</ele>
        <time>2021-02-20T08:16:20Z</time>
      </trkpt>
      <trkpt lat="40.3392700" lon="-3.9507980">
        <ele>570.8</ele>
        <time>2021-02-20T08:16:22Z</time>
      </trkpt>
      <trkpt lat="40.3394160" lon="-3.9508390">
        <ele>571.0</ele>
        <time>2021-02-20T08:16:25Z</time>
      </trkpt>
      <trkpt lat="40.3394560" lon="-3.9508610">
        <ele>571.0</ele>
        <time>2021-02-20T08:16:26Z</time>
      </trkpt>
      <trkpt lat="40.3395490" lon="-3.9509060">
        <ele>571.0</ele>
        <time>2021-02-20T08:16:29Z</time>
      </trkpt>
      <trkpt lat="40.3395860" lon="-3.9509030">
        <ele>570.8</ele>
        <time>2021-02-20T08:16:30Z</time>
      </trkpt>
      <trkpt lat="40.3396300" lon="-3.9509060">
        <ele>570.8</ele>
        <time>2021-02-20T08:16:31Z</time>
      </trkpt>
      <trkpt lat="40.3397240" lon="-3.9509550">
        <ele>570.8</ele>
        <time>2021-02-20T08:16:33Z</time>
      </trkpt>
      <trkpt lat="40.3398160" lon="-3.9510130">
        <ele>571.2</ele>
        <time>2021-02-20T08:16:35Z</time>
      </trkpt>
      <trkpt lat="40.3398970" lon="-3.9510160">
        <ele>571.8</ele>
        <time>2021-02-20T08:16:37Z</time>
      </trkpt>
      <trkpt lat="40.3399270" lon="-3.9510000">
        <ele>572.2</ele>
        <time>2021-02-20T08:16:38Z</time>
      </trkpt>
      <trkpt lat="40.3400080" lon="-3.9509350">
        <ele>573.4</ele>
        <time>2021-02-20T08:16:41Z</time>
      </trkpt>
      <trkpt lat="40.3401110" lon="-3.9508780">
        <ele>574.4</ele>
        <time>2021-02-20T08:16:44Z</time>
      </trkpt>
      <trkpt lat="40.3401850" lon="-3.9508380">
        <ele>574.8</ele>
        <time>2021-02-20T08:16:46Z</time>
      </trkpt>
      <trkpt lat="40.3402230" lon="-3.9508110">
        <ele>575.0</ele>
        <time>2021-02-20T08:16:47Z</time>
      </trkpt>
      <trkpt lat="40.3403060" lon="-3.9507620">
        <ele>575.2</ele>
        <time>2021-02-20T08:16:49Z</time>
      </trkpt>
      <trkpt lat="40.3405080" lon="-3.9506910">
        <ele>574.2</ele>
        <time>2021-02-20T08:16:53Z</time>
      </trkpt>
      <trkpt lat="40.3405690" lon="-3.9506830">
        <ele>573.6</ele>
        <time>2021-02-20T08:16:54Z</time>
      </trkpt>
      <trkpt lat="40.3406350" lon="-3.9506870">
        <ele>573.2</ele>
        <time>2021-02-20T08:16:55Z</time>
      </trkpt>
      <trkpt lat="40.3407660" lon="-3.9506900">
        <ele>572.6</ele>
        <time>2021-02-20T08:16:57Z</time>
      </trkpt>
      <trkpt lat="40.3409230" lon="-3.9505810">
        <ele>572.6</ele>
        <time>2021-02-20T08:17:00Z</time>
      </trkpt>
      <trkpt lat="40.3410170" lon="-3.9505060">
        <ele>573.0</ele>
        <time>2021-02-20T08:17:02Z</time>
      </trkpt>
      <trkpt lat="40.3411410" lon="-3.9504250">
        <ele>574.2</ele>
        <time>2021-02-20T08:17:05Z</time>
      </trkpt>
      <trkpt lat="40.3411790" lon="-3.9503990">
        <ele>574.6</ele>
        <time>2021-02-20T08:17:06Z</time>
      </trkpt>
      <trkpt lat="40.3412190" lon="-3.9503760">
        <ele>574.8</ele>
        <time>2021-02-20T08:17:07Z</time>
      </trkpt>
      <trkpt lat="40.3414020" lon="-3.9503250">
        <ele>575.4</ele>
        <time>2021-02-20T08:17:11Z</time>
      </trkpt>
      <trkpt lat="40.3417100" lon="-3.9503710">
        <ele>575.2</ele>
        <time>2021-02-20T08:17:17Z</time>
      </trkpt>
      <trkpt lat="40.3417600" lon="-3.9503850">
        <ele>575.2</ele>
        <time>2021-02-20T08:17:18Z</time>
      </trkpt>
      <trkpt lat="40.3419600" lon="-3.9504370">
        <ele>575.4</ele>
        <time>2021-02-20T08:17:22Z</time>
      </trkpt>
      <trkpt lat="40.3421780" lon="-3.9504970">
        <ele>575.2</ele>
        <time>2021-02-20T08:17:27Z</time>
      </trkpt>
      <trkpt lat="40.3423190" lon="-3.9504900">
        <ele>575.2</ele>
        <time>2021-02-20T08:17:30Z</time>
      </trkpt>
      <trkpt lat="40.3424200" lon="-3.9504440">
        <ele>575.2</ele>
        <time>2021-02-20T08:17:32Z</time>
      </trkpt>
      <trkpt lat="40.3427650" lon="-3.9502750">
        <ele>574.2</ele>
        <time>2021-02-20T08:17:38Z</time>
      </trkpt>
      <trkpt lat="40.3428220" lon="-3.9502410">
        <ele>573.8</ele>
        <time>2021-02-20T08:17:39Z</time>
      </trkpt>
      <trkpt lat="40.3428810" lon="-3.9502100">
        <ele>573.4</ele>
        <time>2021-02-20T08:17:40Z</time>
      </trkpt>
      <trkpt lat="40.3429440" lon="-3.9501870">
        <ele>573.2</ele>
        <time>2021-02-20T08:17:41Z</time>
      </trkpt>
      <trkpt lat="40.3430710" lon="-3.9501590">
        <ele>573.0</ele>
        <time>2021-02-20T08:17:43Z</time>
      </trkpt>
      <trkpt lat="40.3433150" lon="-3.9500870">
        <ele>573.2</ele>
        <time>2021-02-20T08:17:47Z</time>
      </trkpt>
      <trkpt lat="40.3434320" lon="-3.9500430">
        <ele>573.2</ele>
        <time>2021-02-20T08:17:49Z</time>
      </trkpt>
      <trkpt lat="40.3436850" lon="-3.9499700">
        <ele>572.6</ele>
        <time>2021-02-20T08:17:53Z</time>
      </trkpt>
      <trkpt lat="40.3438140" lon="-3.9499550">
        <ele>572.4</ele>
        <time>2021-02-20T08:17:55Z</time>
      </trkpt>
      <trkpt lat="40.3442570" lon="-3.9498970">
        <ele>572.2</ele>
        <time>2021-02-20T08:18:02Z</time>
      </trkpt>
      <trkpt lat="40.3444950" lon="-3.9498490">
        <ele>572.2</ele>
        <time>2021-02-20T08:18:06Z</time>
      </trkpt>
      <trkpt lat="40.3445890" lon="-3.9497830">
        <ele>572.0</ele>
        <time>2021-02-20T08:18:08Z</time>
      </trkpt>
      <trkpt lat="40.3447630" lon="-3.9495960">
        <ele>571.8</ele>
        <time>2021-02-20T08:18:12Z</time>
      </trkpt>
      <trkpt lat="40.3448740" lon="-3.9495380">
        <ele>572.0</ele>
        <time>2021-02-20T08:18:14Z</time>
      </trkpt>
      <trkpt lat="40.3451010" lon="-3.9494580">
        <ele>572.4</ele>
        <time>2021-02-20T08:18:18Z</time>
      </trkpt>
      <trkpt lat="40.3454580" lon="-3.9494580">
        <ele>572.6</ele>
        <time>2021-02-20T08:18:24Z</time>
      </trkpt>
      <trkpt lat="40.3456290" lon="-3.9494840">
        <ele>572.8</ele>
        <time>2021-02-20T08:18:27Z</time>
      </trkpt>
      <trkpt lat="40.3457400" lon="-3.9494850">
        <ele>572.6</ele>
        <time>2021-02-20T08:18:29Z</time>
      </trkpt>
      <trkpt lat="40.3459640" lon="-3.9494630">
        <ele>573.0</ele>
        <time>2021-02-20T08:18:33Z</time>
      </trkpt>
      <trkpt lat="40.3460220" lon="-3.9494750">
        <ele>572.8</ele>
        <time>2021-02-20T08:18:34Z</time>
      </trkpt>
      <trkpt lat="40.3463600" lon="-3.9496350">
        <ele>572.4</ele>
        <time>2021-02-20T08:18:40Z</time>
      </trkpt>
      <trkpt lat="40.3465140" lon="-3.9497440">
        <ele>572.4</ele>
        <time>2021-02-20T08:18:43Z</time>
      </trkpt>
      <trkpt lat="40.3465970" lon="-3.9498390">
        <ele>572.2</ele>
        <time>2021-02-20T08:18:45Z</time>
      </trkpt>
      <trkpt lat="40.3467020" lon="-3.9500030">
        <ele>572.2</ele>
        <time>2021-02-20T08:18:48Z</time>
      </trkpt>
      <trkpt lat="40.3467870" lon="-3.9501970">
        <ele>572.8</ele>
        <time>2021-02-20T08:18:51Z</time>
      </trkpt>
      <trkpt lat="40.3468520" lon="-3.9503160">
        <ele>573.0</ele>
        <time>2021-02-20T08:18:53Z</time>
      </trkpt>
      <trkpt lat="40.3469420" lon="-3.9503910">
        <ele>573.0</ele>
        <time>2021-02-20T08:18:55Z</time>
      </trkpt>
      <trkpt lat="40.3472910" lon="-3.9505600">
        <ele>572.4</ele>
        <time>2021-02-20T08:19:01Z</time>
      </trkpt>
      <trkpt lat="40.3477320" lon="-3.9507910">
        <ele>572.4</ele>
        <time>2021-02-20T08:19:09Z</time>
      </trkpt>
      <trkpt lat="40.3480200" lon="-3.9507720">
        <ele>572.4</ele>
        <time>2021-02-20T08:19:14Z</time>
      </trkpt>
      <trkpt lat="40.3483290" lon="-3.9507210">
        <ele>573.4</ele>
        <time>2021-02-20T08:19:20Z</time>
      </trkpt>
      <trkpt lat="40.3483820" lon="-3.9507260">
        <ele>573.6</ele>
        <time>2021-02-20T08:19:21Z</time>
      </trkpt>
      <trkpt lat="40.3487070" lon="-3.9508260">
        <ele>573.0</ele>
        <time>2021-02-20T08:19:27Z</time>
      </trkpt>
      <trkpt lat="40.3487630" lon="-3.9508340">
        <ele>572.8</ele>
        <time>2021-02-20T08:19:28Z</time>
      </trkpt>
      <trkpt lat="40.3489310" lon="-3.9507890">
        <ele>572.8</ele>
        <time>2021-02-20T08:19:31Z</time>
      </trkpt>
      <trkpt lat="40.3490320" lon="-3.9507210">
        <ele>572.8</ele>
        <time>2021-02-20T08:19:33Z</time>
      </trkpt>
      <trkpt lat="40.3491340" lon="-3.9506550">
        <ele>573.0</ele>
        <time>2021-02-20T08:19:35Z</time>
      </trkpt>
      <trkpt lat="40.3491870" lon="-3.9506310">
        <ele>573.0</ele>
        <time>2021-02-20T08:19:36Z</time>
      </trkpt>
      <trkpt lat="40.3495490" lon="-3.9505360">
        <ele>573.2</ele>
        <time>2021-02-20T08:19:43Z</time>
      </trkpt>
      <trkpt lat="40.3498760" lon="-3.9504940">
        <ele>572.2</ele>
        <time>2021-02-20T08:19:49Z</time>
      </trkpt>
      <trkpt lat="40.3500610" lon="-3.9504640">
        <ele>572.0</ele>
        <time>2021-02-20T08:19:52Z</time>
      </trkpt>
      <trkpt lat="40.3501730" lon="-3.9504570">
        <ele>572.8</ele>
        <time>2021-02-20T08:19:54Z</time>
      </trkpt>
      <trkpt lat="40.3503410" lon="-3.9504550">
        <ele>573.2</ele>
        <time>2021-02-20T08:19:57Z</time>
      </trkpt>
      <trkpt lat="40.3504520" lon="-3.9504740">
        <ele>573.4</ele>
        <time>2021-02-20T08:19:59Z</time>
      </trkpt>
      <trkpt lat="40.3506050" lon="-3.9504870">
        <ele>574.2</ele>
        <time>2021-02-20T08:20:02Z</time>
      </trkpt>
      <trkpt lat="40.3506490" lon="-3.9504840">
        <ele>574.6</ele>
        <time>2021-02-20T08:20:03Z</time>
      </trkpt>
      <trkpt lat="40.3506880" lon="-3.9504870">
        <ele>575.0</ele>
        <time>2021-02-20T08:20:04Z</time>
      </trkpt>
      <trkpt lat="40.3507640" lon="-3.9505150">
        <ele>575.8</ele>
        <time>2021-02-20T08:20:06Z</time>
      </trkpt>
      <trkpt lat="40.3508310" lon="-3.9505940">
        <ele>576.4</ele>
        <time>2021-02-20T08:20:08Z</time>
      </trkpt>
      <trkpt lat="40.3508980" lon="-3.9508250">
        <ele>576.6</ele>
        <time>2021-02-20T08:20:12Z</time>
      </trkpt>
      <trkpt lat="40.3510150" lon="-3.9510170">
        <ele>576.4</ele>
        <time>2021-02-20T08:20:16Z</time>
      </trkpt>
      <trkpt lat="40.3511330" lon="-3.9510860">
        <ele>576.2</ele>
        <time>2021-02-20T08:20:19Z</time>
      </trkpt>
      <trkpt lat="40.3512440" lon="-3.9511420">
        <ele>576.4</ele>
        <time>2021-02-20T08:20:22Z</time>
      </trkpt>
      <trkpt lat="40.3514080" lon="-3.9512640">
        <ele>577.0</ele>
        <time>2021-02-20T08:20:27Z</time>
      </trkpt>
      <trkpt lat="40.3514860" lon="-3.9513590">
        <ele>577.4</ele>
        <time>2021-02-20T08:20:30Z</time>
      </trkpt>
      <trkpt lat="40.3515140" lon="-3.9514790">
        <ele>578.2</ele>
        <time>2021-02-20T08:20:33Z</time>
      </trkpt>
      <trkpt lat="40.3515100" lon="-3.9515210">
        <ele>578.4</ele>
        <time>2021-02-20T08:20:34Z</time>
      </trkpt>
      <trkpt lat="40.3514860" lon="-3.9516680">
        <ele>579.4</ele>
        <time>2021-02-20T08:20:38Z</time>
      </trkpt>
      <trkpt lat="40.3514660" lon="-3.9517430">
        <ele>579.8</ele>
        <time>2021-02-20T08:20:40Z</time>
      </trkpt>
      <trkpt lat="40.3514370" lon="-3.9518170">
        <ele>580.6</ele>
        <time>2021-02-20T08:20:42Z</time>
      </trkpt>
      <trkpt lat="40.3513440" lon="-3.9519300">
        <ele>581.6</ele>
        <time>2021-02-20T08:20:46Z</time>
      </trkpt>
      <trkpt lat="40.3513170" lon="-3.9519540">
        <ele>581.6</ele>
        <time>2021-02-20T08:20:47Z</time>
      </trkpt>
      <trkpt lat="40.3511750" lon="-3.9520590">
        <ele>582.8</ele>
        <time>2021-02-20T08:20:52Z</time>
      </trkpt>
      <trkpt lat="40.3510920" lon="-3.9521320">
        <ele>583.2</ele>
        <time>2021-02-20T08:20:55Z</time>
      </trkpt>
      <trkpt lat="40.3510330" lon="-3.9523220">
        <ele>583.8</ele>
        <time>2021-02-20T08:21:00Z</time>
      </trkpt>
      <trkpt lat="40.3510690" lon="-3.9526130">
        <ele>585.0</ele>
        <time>2021-02-20T08:21:07Z</time>
      </trkpt>
      <trkpt lat="40.3510750" lon="-3.9526560">
        <ele>585.2</ele>
        <time>2021-02-20T08:21:08Z</time>
      </trkpt>
      <trkpt lat="40.3510660" lon="-3.9528680">
        <ele>586.0</ele>
        <time>2021-02-20T08:21:13Z</time>
      </trkpt>
      <trkpt lat="40.3510500" lon="-3.9529020">
        <ele>586.2</ele>
        <time>2021-02-20T08:21:14Z</time>
      </trkpt>
      <trkpt lat="40.3509980" lon="-3.9529970">
        <ele>587.4</ele>
        <time>2021-02-20T08:21:17Z</time>
      </trkpt>
      <trkpt lat="40.3509290" lon="-3.9530650">
        <ele>588.2</ele>
        <time>2021-02-20T08:21:20Z</time>
      </trkpt>
      <trkpt lat="40.3508700" lon="-3.9531040">
        <ele>588.4</ele>
        <time>2021-02-20T08:21:22Z</time>
      </trkpt>
      <trkpt lat="40.3507410" lon="-3.9532470">
        <ele>589.6</ele>
        <time>2021-02-20T08:21:27Z</time>
      </trkpt>
      <trkpt lat="40.3506940" lon="-3.9533930">
        <ele>590.8</ele>
        <time>2021-02-20T08:21:31Z</time>
      </trkpt>
      <trkpt lat="40.3506830" lon="-3.9534710">
        <ele>591.4</ele>
        <time>2021-02-20T08:21:33Z</time>
      </trkpt>
      <trkpt lat="40.3506770" lon="-3.9535090">
        <ele>591.8</ele>
        <time>2021-02-20T08:21:34Z</time>
      </trkpt>
      <trkpt lat="40.3506670" lon="-3.9536230">
        <ele>593.2</ele>
        <time>2021-02-20T08:21:37Z</time>
      </trkpt>
      <trkpt lat="40.3506560" lon="-3.9537070">
        <ele>594.6</ele>
        <time>2021-02-20T08:21:39Z</time>
      </trkpt>
      <trkpt lat="40.3506540" lon="-3.9537500">
        <ele>595.0</ele>
        <time>2021-02-20T08:21:40Z</time>
      </trkpt>
      <trkpt lat="40.3506540" lon="-3.9538310">
        <ele>595.8</ele>
        <time>2021-02-20T08:21:42Z</time>
      </trkpt>
      <trkpt lat="40.3506500" lon="-3.9539550">
        <ele>596.8</ele>
        <time>2021-02-20T08:21:45Z</time>
      </trkpt>
      <trkpt lat="40.3506460" lon="-3.9539980">
        <ele>597.0</ele>
        <time>2021-02-20T08:21:46Z</time>
      </trkpt>
      <trkpt lat="40.3506370" lon="-3.9542130">
        <ele>598.0</ele>
        <time>2021-02-20T08:21:51Z</time>
      </trkpt>
      <trkpt lat="40.3506430" lon="-3.9543300">
        <ele>598.6</ele>
        <time>2021-02-20T08:21:54Z</time>
      </trkpt>
      <trkpt lat="40.3506520" lon="-3.9544080">
        <ele>599.4</ele>
        <time>2021-02-20T08:21:56Z</time>
      </trkpt>
      <trkpt lat="40.3507050" lon="-3.9545530">
        <ele>600.6</ele>
        <time>2021-02-20T08:22:00Z</time>
      </trkpt>
      <trkpt lat="40.3507220" lon="-3.9545860">
        <ele>601.0</ele>
        <time>2021-02-20T08:22:01Z</time>
      </trkpt>
      <trkpt lat="40.3507660" lon="-3.9546470">
        <ele>602.4</ele>
        <time>2021-02-20T08:22:03Z</time>
      </trkpt>
      <trkpt lat="40.3508410" lon="-3.9547850">
        <ele>603.6</ele>
        <time>2021-02-20T08:22:07Z</time>
      </trkpt>
      <trkpt lat="40.3508580" lon="-3.9548200">
        <ele>604.0</ele>
        <time>2021-02-20T08:22:08Z</time>
      </trkpt>
      <trkpt lat="40.3508970" lon="-3.9548920">
        <ele>604.8</ele>
        <time>2021-02-20T08:22:10Z</time>
      </trkpt>
      <trkpt lat="40.3509730" lon="-3.9550970">
        <ele>606.0</ele>
        <time>2021-02-20T08:22:15Z</time>
      </trkpt>
      <trkpt lat="40.3509900" lon="-3.9551380">
        <ele>606.2</ele>
        <time>2021-02-20T08:22:16Z</time>
      </trkpt>
      <trkpt lat="40.3510890" lon="-3.9552720">
        <ele>607.0</ele>
        <time>2021-02-20T08:22:20Z</time>
      </trkpt>
      <trkpt lat="40.3511220" lon="-3.9552930">
        <ele>607.4</ele>
        <time>2021-02-20T08:22:21Z</time>
      </trkpt>
      <trkpt lat="40.3512300" lon="-3.9553380">
        <ele>608.0</ele>
        <time>2021-02-20T08:22:24Z</time>
      </trkpt>
      <trkpt lat="40.3513380" lon="-3.9553680">
        <ele>609.2</ele>
        <time>2021-02-20T08:22:27Z</time>
      </trkpt>
      <trkpt lat="40.3515150" lon="-3.9554490">
        <ele>610.4</ele>
        <time>2021-02-20T08:22:32Z</time>
      </trkpt>
      <trkpt lat="40.3515500" lon="-3.9554680">
        <ele>610.6</ele>
        <time>2021-02-20T08:22:33Z</time>
      </trkpt>
      <trkpt lat="40.3516930" lon="-3.9555450">
        <ele>611.6</ele>
        <time>2021-02-20T08:22:37Z</time>
      </trkpt>
      <trkpt lat="40.3518660" lon="-3.9556620">
        <ele>612.4</ele>
        <time>2021-02-20T08:22:42Z</time>
      </trkpt>
      <trkpt lat="40.3518970" lon="-3.9556950">
        <ele>612.6</ele>
        <time>2021-02-20T08:22:43Z</time>
      </trkpt>
      <trkpt lat="40.3519240" lon="-3.9557370">
        <ele>612.8</ele>
        <time>2021-02-20T08:22:44Z</time>
      </trkpt>
      <trkpt lat="40.3519670" lon="-3.9558370">
        <ele>612.8</ele>
        <time>2021-02-20T08:22:46Z</time>
      </trkpt>
      <trkpt lat="40.3520680" lon="-3.9562360">
        <ele>613.4</ele>
        <time>2021-02-20T08:22:53Z</time>
      </trkpt>
      <trkpt lat="40.3521010" lon="-3.9564900">
        <ele>613.6</ele>
        <time>2021-02-20T08:22:57Z</time>
      </trkpt>
      <trkpt lat="40.3521440" lon="-3.9567530">
        <ele>614.0</ele>
        <time>2021-02-20T08:23:01Z</time>
      </trkpt>
      <trkpt lat="40.3522250" lon="-3.9573510">
        <ele>614.8</ele>
        <time>2021-02-20T08:23:10Z</time>
      </trkpt>
      <trkpt lat="40.3522440" lon="-3.9574860">
        <ele>614.8</ele>
        <time>2021-02-20T08:23:12Z</time>
      </trkpt>
      <trkpt lat="40.3522870" lon="-3.9578940">
        <ele>615.4</ele>
        <time>2021-02-20T08:23:18Z</time>
      </trkpt>
      <trkpt lat="40.3522830" lon="-3.9580320">
        <ele>615.6</ele>
        <time>2021-02-20T08:23:20Z</time>
      </trkpt>
      <trkpt lat="40.3522900" lon="-3.9583030">
        <ele>615.8</ele>
        <time>2021-02-20T08:23:24Z</time>
      </trkpt>
      <trkpt lat="40.3523000" lon="-3.9585630">
        <ele>616.0</ele>
        <time>2021-02-20T08:23:28Z</time>
      </trkpt>
      <trkpt lat="40.3523500" lon="-3.9590840">
        <ele>616.8</ele>
        <time>2021-02-20T08:23:36Z</time>
      </trkpt>
      <trkpt lat="40.3523570" lon="-3.9592170">
        <ele>617.0</ele>
        <time>2021-02-20T08:23:38Z</time>
      </trkpt>
      <trkpt lat="40.3524040" lon="-3.9596910">
        <ele>617.8</ele>
        <time>2021-02-20T08:23:45Z</time>
      </trkpt>
      <trkpt lat="40.3524400" lon="-3.9598910">
        <ele>618.0</ele>
        <time>2021-02-20T08:23:48Z</time>
      </trkpt>
      <trkpt lat="40.3525030" lon="-3.9601530">
        <ele>618.2</ele>
        <time>2021-02-20T08:23:52Z</time>
      </trkpt>
      <trkpt lat="40.3527070" lon="-3.9607210">
        <ele>618.8</ele>
        <time>2021-02-20T08:24:01Z</time>
      </trkpt>
      <trkpt lat="40.3527940" lon="-3.9608970">
        <ele>619.0</ele>
        <time>2021-02-20T08:24:04Z</time>
      </trkpt>
      <trkpt lat="40.3529360" lon="-3.9611840">
        <ele>619.4</ele>
        <time>2021-02-20T08:24:09Z</time>
      </trkpt>
      <trkpt lat="40.3530820" lon="-3.9615320">
        <ele>620.0</ele>
        <time>2021-02-20T08:24:15Z</time>
      </trkpt>
      <trkpt lat="40.3531080" lon="-3.9615890">
        <ele>620.2</ele>
        <time>2021-02-20T08:24:16Z</time>
      </trkpt>
      <trkpt lat="40.3532990" lon="-3.9619840">
        <ele>620.8</ele>
        <time>2021-02-20T08:24:23Z</time>
      </trkpt>
      <trkpt lat="40.3533170" lon="-3.9620460">
        <ele>620.8</ele>
        <time>2021-02-20T08:24:24Z</time>
      </trkpt>
      <trkpt lat="40.3533390" lon="-3.9621760">
        <ele>621.2</ele>
        <time>2021-02-20T08:24:26Z</time>
      </trkpt>
      <trkpt lat="40.3533420" lon="-3.9623050">
        <ele>621.4</ele>
        <time>2021-02-20T08:24:28Z</time>
      </trkpt>
      <trkpt lat="40.3533370" lon="-3.9623730">
        <ele>621.8</ele>
        <time>2021-02-20T08:24:29Z</time>
      </trkpt>
      <trkpt lat="40.3533160" lon="-3.9625040">
        <ele>622.2</ele>
        <time>2021-02-20T08:24:31Z</time>
      </trkpt>
      <trkpt lat="40.3533030" lon="-3.9625680">
        <ele>622.2</ele>
        <time>2021-02-20T08:24:32Z</time>
      </trkpt>
      <trkpt lat="40.3532910" lon="-3.9626970">
        <ele>622.4</ele>
        <time>2021-02-20T08:24:34Z</time>
      </trkpt>
      <trkpt lat="40.3533480" lon="-3.9630160">
        <ele>623.0</ele>
        <time>2021-02-20T08:24:39Z</time>
      </trkpt>
      <trkpt lat="40.3534220" lon="-3.9632640">
        <ele>623.2</ele>
        <time>2021-02-20T08:24:43Z</time>
      </trkpt>
      <trkpt lat="40.3535820" lon="-3.9637600">
        <ele>624.0</ele>
        <time>2021-02-20T08:24:51Z</time>
      </trkpt>
      <trkpt lat="40.3536420" lon="-3.9639430">
        <ele>624.6</ele>
        <time>2021-02-20T08:24:54Z</time>
      </trkpt>
      <trkpt lat="40.3536950" lon="-3.9641260">
        <ele>625.0</ele>
        <time>2021-02-20T08:24:57Z</time>
      </trkpt>
      <trkpt lat="40.3537420" lon="-3.9643020">
        <ele>625.6</ele>
        <time>2021-02-20T08:25:00Z</time>
      </trkpt>
      <trkpt lat="40.3538010" lon="-3.9645870">
        <ele>626.8</ele>
        <time>2021-02-20T08:25:05Z</time>
      </trkpt>
      <trkpt lat="40.3538460" lon="-3.9648200">
        <ele>628.0</ele>
        <time>2021-02-20T08:25:09Z</time>
      </trkpt>
      <trkpt lat="40.3538960" lon="-3.9650550">
        <ele>628.8</ele>
        <time>2021-02-20T08:25:13Z</time>
      </trkpt>
      <trkpt lat="40.3539090" lon="-3.9651150">
        <ele>629.2</ele>
        <time>2021-02-20T08:25:14Z</time>
      </trkpt>
      <trkpt lat="40.3539260" lon="-3.9651740">
        <ele>629.4</ele>
        <time>2021-02-20T08:25:15Z</time>
      </trkpt>
      <trkpt lat="40.3539880" lon="-3.9653410">
        <ele>630.2</ele>
        <time>2021-02-20T08:25:18Z</time>
      </trkpt>
      <trkpt lat="40.3540310" lon="-3.9654500">
        <ele>630.6</ele>
        <time>2021-02-20T08:25:20Z</time>
      </trkpt>
      <trkpt lat="40.3540850" lon="-3.9656170">
        <ele>631.2</ele>
        <time>2021-02-20T08:25:23Z</time>
      </trkpt>
      <trkpt lat="40.3541720" lon="-3.9658960">
        <ele>632.4</ele>
        <time>2021-02-20T08:25:28Z</time>
      </trkpt>
      <trkpt lat="40.3541900" lon="-3.9659500">
        <ele>632.6</ele>
        <time>2021-02-20T08:25:29Z</time>
      </trkpt>
      <trkpt lat="40.3542520" lon="-3.9661140">
        <ele>633.4</ele>
        <time>2021-02-20T08:25:32Z</time>
      </trkpt>
      <trkpt lat="40.3543670" lon="-3.9663880">
        <ele>634.4</ele>
        <time>2021-02-20T08:25:37Z</time>
      </trkpt>
      <trkpt lat="40.3543930" lon="-3.9664410">
        <ele>634.6</ele>
        <time>2021-02-20T08:25:38Z</time>
      </trkpt>
      <trkpt lat="40.3545170" lon="-3.9667120">
        <ele>635.6</ele>
        <time>2021-02-20T08:25:43Z</time>
      </trkpt>
      <trkpt lat="40.3545710" lon="-3.9668860">
        <ele>636.0</ele>
        <time>2021-02-20T08:25:46Z</time>
      </trkpt>
      <trkpt lat="40.3546610" lon="-3.9671840">
        <ele>636.6</ele>
        <time>2021-02-20T08:25:51Z</time>
      </trkpt>
      <trkpt lat="40.3546940" lon="-3.9673760">
        <ele>637.0</ele>
        <time>2021-02-20T08:25:54Z</time>
      </trkpt>
      <trkpt lat="40.3546900" lon="-3.9676330">
        <ele>637.8</ele>
        <time>2021-02-20T08:25:58Z</time>
      </trkpt>
      <trkpt lat="40.3546730" lon="-3.9677540">
        <ele>638.0</ele>
        <time>2021-02-20T08:26:00Z</time>
      </trkpt>
      <trkpt lat="40.3546490" lon="-3.9679360">
        <ele>639.0</ele>
        <time>2021-02-20T08:26:03Z</time>
      </trkpt>
      <trkpt lat="40.3545990" lon="-3.9682520">
        <ele>640.0</ele>
        <time>2021-02-20T08:26:08Z</time>
      </trkpt>
      <trkpt lat="40.3545850" lon="-3.9683140">
        <ele>640.2</ele>
        <time>2021-02-20T08:26:09Z</time>
      </trkpt>
      <trkpt lat="40.3545520" lon="-3.9685060">
        <ele>640.8</ele>
        <time>2021-02-20T08:26:12Z</time>
      </trkpt>
      <trkpt lat="40.3545700" lon="-3.9686430">
        <ele>640.8</ele>
        <time>2021-02-20T08:26:14Z</time>
      </trkpt>
      <trkpt lat="40.3546220" lon="-3.9689150">
        <ele>640.6</ele>
        <time>2021-02-20T08:26:18Z</time>
      </trkpt>
      <trkpt lat="40.3546770" lon="-3.9690380">
        <ele>640.4</ele>
        <time>2021-02-20T08:26:20Z</time>
      </trkpt>
      <trkpt lat="40.3546750" lon="-3.9692320">
        <ele>640.4</ele>
        <time>2021-02-20T08:26:23Z</time>
      </trkpt>
      <trkpt lat="40.3546600" lon="-3.9692960">
        <ele>640.4</ele>
        <time>2021-02-20T08:26:24Z</time>
      </trkpt>
      <trkpt lat="40.3545480" lon="-3.9697610">
        <ele>640.2</ele>
        <time>2021-02-20T08:26:31Z</time>
      </trkpt>
      <trkpt lat="40.3544390" lon="-3.9702780">
        <ele>639.8</ele>
        <time>2021-02-20T08:26:38Z</time>
      </trkpt>
      <trkpt lat="40.3544170" lon="-3.9704340">
        <ele>639.6</ele>
        <time>2021-02-20T08:26:40Z</time>
      </trkpt>
      <trkpt lat="40.3544050" lon="-3.9708570">
        <ele>639.0</ele>
        <time>2021-02-20T08:26:45Z</time>
      </trkpt>
      <trkpt lat="40.3544120" lon="-3.9709430">
        <ele>638.8</ele>
        <time>2021-02-20T08:26:46Z</time>
      </trkpt>
      <trkpt lat="40.3544710" lon="-3.9713700">
        <ele>639.0</ele>
        <time>2021-02-20T08:26:51Z</time>
      </trkpt>
      <trkpt lat="40.3545150" lon="-3.9715270">
        <ele>639.2</ele>
        <time>2021-02-20T08:26:53Z</time>
      </trkpt>
      <trkpt lat="40.3547400" lon="-3.9720360">
        <ele>639.2</ele>
        <time>2021-02-20T08:27:00Z</time>
      </trkpt>
      <trkpt lat="40.3549030" lon="-3.9724990">
        <ele>639.2</ele>
        <time>2021-02-20T08:27:06Z</time>
      </trkpt>
      <trkpt lat="40.3549250" lon="-3.9729300">
        <ele>639.2</ele>
        <time>2021-02-20T08:27:11Z</time>
      </trkpt>
      <trkpt lat="40.3549140" lon="-3.9730140">
        <ele>639.2</ele>
        <time>2021-02-20T08:27:12Z</time>
      </trkpt>
      <trkpt lat="40.3548220" lon="-3.9734100">
        <ele>639.2</ele>
        <time>2021-02-20T08:27:17Z</time>
      </trkpt>
      <trkpt lat="40.3547710" lon="-3.9736490">
        <ele>638.8</ele>
        <time>2021-02-20T08:27:20Z</time>
      </trkpt>
      <trkpt lat="40.3547300" lon="-3.9739830">
        <ele>638.6</ele>
        <time>2021-02-20T08:27:24Z</time>
      </trkpt>
      <trkpt lat="40.3547240" lon="-3.9745030">
        <ele>638.0</ele>
        <time>2021-02-20T08:27:30Z</time>
      </trkpt>
      <trkpt lat="40.3547320" lon="-3.9745890">
        <ele>638.0</ele>
        <time>2021-02-20T08:27:31Z</time>
      </trkpt>
      <trkpt lat="40.3547860" lon="-3.9749520">
        <ele>637.0</ele>
        <time>2021-02-20T08:27:35Z</time>
      </trkpt>
      <trkpt lat="40.3548200" lon="-3.9751390">
        <ele>636.4</ele>
        <time>2021-02-20T08:27:37Z</time>
      </trkpt>
      <trkpt lat="40.3548390" lon="-3.9752360">
        <ele>636.0</ele>
        <time>2021-02-20T08:27:38Z</time>
      </trkpt>
      <trkpt lat="40.3548570" lon="-3.9753330">
        <ele>635.8</ele>
        <time>2021-02-20T08:27:39Z</time>
      </trkpt>
      <trkpt lat="40.3548760" lon="-3.9754300">
        <ele>635.6</ele>
        <time>2021-02-20T08:27:40Z</time>
      </trkpt>
      <trkpt lat="40.3549220" lon="-3.9756230">
        <ele>635.4</ele>
        <time>2021-02-20T08:27:42Z</time>
      </trkpt>
      <trkpt lat="40.3549490" lon="-3.9757150">
        <ele>635.2</ele>
        <time>2021-02-20T08:27:43Z</time>
      </trkpt>
      <trkpt lat="40.3550140" lon="-3.9758930">
        <ele>634.8</ele>
        <time>2021-02-20T08:27:45Z</time>
      </trkpt>
      <trkpt lat="40.3551270" lon="-3.9761210">
        <ele>634.6</ele>
        <time>2021-02-20T08:27:48Z</time>
      </trkpt>
      <trkpt lat="40.3551890" lon="-3.9762680">
        <ele>634.8</ele>
        <time>2021-02-20T08:27:50Z</time>
      </trkpt>
      <trkpt lat="40.3552370" lon="-3.9765020">
        <ele>635.2</ele>
        <time>2021-02-20T08:27:53Z</time>
      </trkpt>
      <trkpt lat="40.3552180" lon="-3.9768240">
        <ele>635.4</ele>
        <time>2021-02-20T08:27:57Z</time>
      </trkpt>
      <trkpt lat="40.3552040" lon="-3.9769020">
        <ele>635.6</ele>
        <time>2021-02-20T08:27:58Z</time>
      </trkpt>
      <trkpt lat="40.3551650" lon="-3.9772160">
        <ele>635.8</ele>
        <time>2021-02-20T08:28:02Z</time>
      </trkpt>
      <trkpt lat="40.3551620" lon="-3.9772970">
        <ele>635.8</ele>
        <time>2021-02-20T08:28:03Z</time>
      </trkpt>
      <trkpt lat="40.3551650" lon="-3.9773780">
        <ele>636.0</ele>
        <time>2021-02-20T08:28:04Z</time>
      </trkpt>
      <trkpt lat="40.3552470" lon="-3.9778400">
        <ele>636.2</ele>
        <time>2021-02-20T08:28:10Z</time>
      </trkpt>
      <trkpt lat="40.3553120" lon="-3.9780640">
        <ele>636.2</ele>
        <time>2021-02-20T08:28:13Z</time>
      </trkpt>
      <trkpt lat="40.3554000" lon="-3.9782710">
        <ele>636.4</ele>
        <time>2021-02-20T08:28:16Z</time>
      </trkpt>
      <trkpt lat="40.3556120" lon="-3.9786600">
        <ele>636.6</ele>
        <time>2021-02-20T08:28:22Z</time>
      </trkpt>
      <trkpt lat="40.3557580" lon="-3.9790140">
        <ele>637.0</ele>
        <time>2021-02-20T08:28:27Z</time>
      </trkpt>
      <trkpt lat="40.3558240" lon="-3.9792380">
        <ele>637.2</ele>
        <time>2021-02-20T08:28:30Z</time>
      </trkpt>
      <trkpt lat="40.3559010" lon="-3.9798050">
        <ele>637.6</ele>
        <time>2021-02-20T08:28:37Z</time>
      </trkpt>
      <trkpt lat="40.3560080" lon="-3.9802660">
        <ele>638.0</ele>
        <time>2021-02-20T08:28:43Z</time>
      </trkpt>
      <trkpt lat="40.3560320" lon="-3.9803360">
        <ele>638.2</ele>
        <time>2021-02-20T08:28:44Z</time>
      </trkpt>
      <trkpt lat="40.3562040" lon="-3.9808340">
        <ele>639.0</ele>
        <time>2021-02-20T08:28:51Z</time>
      </trkpt>
      <trkpt lat="40.3562260" lon="-3.9809090">
        <ele>639.2</ele>
        <time>2021-02-20T08:28:52Z</time>
      </trkpt>
      <trkpt lat="40.3563900" lon="-3.9815050">
        <ele>640.2</ele>
        <time>2021-02-20T08:29:00Z</time>
      </trkpt>
      <trkpt lat="40.3565850" lon="-3.9820900">
        <ele>641.4</ele>
        <time>2021-02-20T08:29:08Z</time>
      </trkpt>
      <trkpt lat="40.3566040" lon="-3.9821640">
        <ele>641.4</ele>
        <time>2021-02-20T08:29:09Z</time>
      </trkpt>
      <trkpt lat="40.3566120" lon="-3.9822350">
        <ele>641.4</ele>
        <time>2021-02-20T08:29:10Z</time>
      </trkpt>
      <trkpt lat="40.3566500" lon="-3.9824660">
        <ele>641.6</ele>
        <time>2021-02-20T08:29:13Z</time>
      </trkpt>
      <trkpt lat="40.3567820" lon="-3.9829920">
        <ele>640.8</ele>
        <time>2021-02-20T08:29:20Z</time>
      </trkpt>
      <trkpt lat="40.3568750" lon="-3.9835480">
        <ele>640.6</ele>
        <time>2021-02-20T08:29:27Z</time>
      </trkpt>
      <trkpt lat="40.3569550" lon="-3.9839370">
        <ele>640.2</ele>
        <time>2021-02-20T08:29:32Z</time>
      </trkpt>
      <trkpt lat="40.3569750" lon="-3.9840220">
        <ele>639.8</ele>
        <time>2021-02-20T08:29:33Z</time>
      </trkpt>
      <trkpt lat="40.3570150" lon="-3.9843680">
        <ele>639.2</ele>
        <time>2021-02-20T08:29:37Z</time>
      </trkpt>
      <trkpt lat="40.3570120" lon="-3.9844490">
        <ele>639.2</ele>
        <time>2021-02-20T08:29:38Z</time>
      </trkpt>
      <trkpt lat="40.3569840" lon="-3.9847600">
        <ele>639.8</ele>
        <time>2021-02-20T08:29:42Z</time>
      </trkpt>
      <trkpt lat="40.3569860" lon="-3.9849340">
        <ele>639.2</ele>
        <time>2021-02-20T08:29:44Z</time>
      </trkpt>
      <trkpt lat="40.3569950" lon="-3.9850250">
        <ele>638.8</ele>
        <time>2021-02-20T08:29:45Z</time>
      </trkpt>
      <trkpt lat="40.3570120" lon="-3.9853030">
        <ele>637.8</ele>
        <time>2021-02-20T08:29:48Z</time>
      </trkpt>
      <trkpt lat="40.3570110" lon="-3.9854810">
        <ele>637.6</ele>
        <time>2021-02-20T08:29:50Z</time>
      </trkpt>
      <trkpt lat="40.3570070" lon="-3.9856660">
        <ele>636.8</ele>
        <time>2021-02-20T08:29:52Z</time>
      </trkpt>
      <trkpt lat="40.3569690" lon="-3.9860290">
        <ele>636.6</ele>
        <time>2021-02-20T08:29:56Z</time>
      </trkpt>
      <trkpt lat="40.3569710" lon="-3.9861140">
        <ele>636.8</ele>
        <time>2021-02-20T08:29:57Z</time>
      </trkpt>
      <trkpt lat="40.3570090" lon="-3.9863700">
        <ele>637.0</ele>
        <time>2021-02-20T08:30:00Z</time>
      </trkpt>
      <trkpt lat="40.3570300" lon="-3.9864570">
        <ele>636.8</ele>
        <time>2021-02-20T08:30:01Z</time>
      </trkpt>
      <trkpt lat="40.3571290" lon="-3.9867900">
        <ele>636.6</ele>
        <time>2021-02-20T08:30:05Z</time>
      </trkpt>
      <trkpt lat="40.3571800" lon="-3.9869490">
        <ele>636.4</ele>
        <time>2021-02-20T08:30:07Z</time>
      </trkpt>
      <trkpt lat="40.3573400" lon="-3.9874690">
        <ele>637.8</ele>
        <time>2021-02-20T08:30:14Z</time>
      </trkpt>
      <trkpt lat="40.3574390" lon="-3.9877600">
        <ele>638.0</ele>
        <time>2021-02-20T08:30:18Z</time>
      </trkpt>
      <trkpt lat="40.3574610" lon="-3.9878340">
        <ele>638.2</ele>
        <time>2021-02-20T08:30:19Z</time>
      </trkpt>
      <trkpt lat="40.3574770" lon="-3.9879090">
        <ele>638.2</ele>
        <time>2021-02-20T08:30:20Z</time>
      </trkpt>
      <trkpt lat="40.3574880" lon="-3.9879880">
        <ele>638.2</ele>
        <time>2021-02-20T08:30:21Z</time>
      </trkpt>
      <trkpt lat="40.3574990" lon="-3.9882250">
        <ele>638.6</ele>
        <time>2021-02-20T08:30:24Z</time>
      </trkpt>
      <trkpt lat="40.3575130" lon="-3.9883790">
        <ele>638.6</ele>
        <time>2021-02-20T08:30:26Z</time>
      </trkpt>
      <trkpt lat="40.3575360" lon="-3.9886090">
        <ele>638.8</ele>
        <time>2021-02-20T08:30:29Z</time>
      </trkpt>
      <trkpt lat="40.3575400" lon="-3.9889150">
        <ele>639.4</ele>
        <time>2021-02-20T08:30:33Z</time>
      </trkpt>
      <trkpt lat="40.3575120" lon="-3.9891430">
        <ele>639.6</ele>
        <time>2021-02-20T08:30:36Z</time>
      </trkpt>
      <trkpt lat="40.3574740" lon="-3.9892850">
        <ele>639.8</ele>
        <time>2021-02-20T08:30:38Z</time>
      </trkpt>
      <trkpt lat="40.3574090" lon="-3.9895600">
        <ele>640.6</ele>
        <time>2021-02-20T08:30:42Z</time>
      </trkpt>
      <trkpt lat="40.3573980" lon="-3.9897010">
        <ele>640.8</ele>
        <time>2021-02-20T08:30:44Z</time>
      </trkpt>
      <trkpt lat="40.3573910" lon="-3.9897710">
        <ele>641.0</ele>
        <time>2021-02-20T08:30:45Z</time>
      </trkpt>
      <trkpt lat="40.3573470" lon="-3.9900450">
        <ele>642.0</ele>
        <time>2021-02-20T08:30:49Z</time>
      </trkpt>
      <trkpt lat="40.3573090" lon="-3.9902390">
        <ele>642.6</ele>
        <time>2021-02-20T08:30:52Z</time>
      </trkpt>
      <trkpt lat="40.3572900" lon="-3.9903700">
        <ele>642.8</ele>
        <time>2021-02-20T08:30:54Z</time>
      </trkpt>
      <trkpt lat="40.3572830" lon="-3.9904370">
        <ele>643.0</ele>
        <time>2021-02-20T08:30:55Z</time>
      </trkpt>
      <trkpt lat="40.3572820" lon="-3.9905060">
        <ele>643.2</ele>
        <time>2021-02-20T08:30:56Z</time>
      </trkpt>
      <trkpt lat="40.3572870" lon="-3.9905760">
        <ele>643.6</ele>
        <time>2021-02-20T08:30:57Z</time>
      </trkpt>
      <trkpt lat="40.3572980" lon="-3.9907170">
        <ele>644.2</ele>
        <time>2021-02-20T08:30:59Z</time>
      </trkpt>
      <trkpt lat="40.3573090" lon="-3.9909940">
        <ele>645.2</ele>
        <time>2021-02-20T08:31:03Z</time>
      </trkpt>
      <trkpt lat="40.3573060" lon="-3.9910630">
        <ele>645.4</ele>
        <time>2021-02-20T08:31:04Z</time>
      </trkpt>
      <trkpt lat="40.3572980" lon="-3.9911300">
        <ele>645.6</ele>
        <time>2021-02-20T08:31:05Z</time>
      </trkpt>
      <trkpt lat="40.3572700" lon="-3.9912620">
        <ele>646.2</ele>
        <time>2021-02-20T08:31:07Z</time>
      </trkpt>
      <trkpt lat="40.3572280" lon="-3.9913850">
        <ele>646.8</ele>
        <time>2021-02-20T08:31:09Z</time>
      </trkpt>
      <trkpt lat="40.3571190" lon="-3.9916530">
        <ele>646.4</ele>
        <time>2021-02-20T08:31:13Z</time>
      </trkpt>
      <trkpt lat="40.3570530" lon="-3.9918030">
        <ele>645.8</ele>
        <time>2021-02-20T08:31:15Z</time>
      </trkpt>
      <trkpt lat="40.3569130" lon="-3.9921970">
        <ele>645.2</ele>
        <time>2021-02-20T08:31:20Z</time>
      </trkpt>
      <trkpt lat="40.3568970" lon="-3.9922770">
        <ele>645.2</ele>
        <time>2021-02-20T08:31:21Z</time>
      </trkpt>
      <trkpt lat="40.3568880" lon="-3.9923570">
        <ele>645.2</ele>
        <time>2021-02-20T08:31:22Z</time>
      </trkpt>
      <trkpt lat="40.3568780" lon="-3.9926790">
        <ele>645.4</ele>
        <time>2021-02-20T08:31:26Z</time>
      </trkpt>
      <trkpt lat="40.3567930" lon="-3.9931250">
        <ele>645.8</ele>
        <time>2021-02-20T08:31:32Z</time>
      </trkpt>
      <trkpt lat="40.3567190" lon="-3.9933160">
        <ele>646.2</ele>
        <time>2021-02-20T08:31:35Z</time>
      </trkpt>
      <trkpt lat="40.3566900" lon="-3.9933720">
        <ele>646.4</ele>
        <time>2021-02-20T08:31:36Z</time>
      </trkpt>
      <trkpt lat="40.3566210" lon="-3.9934840">
        <ele>646.8</ele>
        <time>2021-02-20T08:31:38Z</time>
      </trkpt>
      <trkpt lat="40.3565850" lon="-3.9935410">
        <ele>647.2</ele>
        <time>2021-02-20T08:31:39Z</time>
      </trkpt>
      <trkpt lat="40.3564510" lon="-3.9937730">
        <ele>647.6</ele>
        <time>2021-02-20T08:31:43Z</time>
      </trkpt>
      <trkpt lat="40.3563930" lon="-3.9938960">
        <ele>647.8</ele>
        <time>2021-02-20T08:31:45Z</time>
      </trkpt>
      <trkpt lat="40.3562380" lon="-3.9942710">
        <ele>647.6</ele>
        <time>2021-02-20T08:31:51Z</time>
      </trkpt>
      <trkpt lat="40.3560260" lon="-3.9947170">
        <ele>647.0</ele>
        <time>2021-02-20T08:31:58Z</time>
      </trkpt>
      <trkpt lat="40.3557940" lon="-3.9952130">
        <ele>647.8</ele>
        <time>2021-02-20T08:32:06Z</time>
      </trkpt>
      <trkpt lat="40.3556660" lon="-3.9954250">
        <ele>648.4</ele>
        <time>2021-02-20T08:32:10Z</time>
      </trkpt>
      <trkpt lat="40.3555770" lon="-3.9955960">
        <ele>648.8</ele>
        <time>2021-02-20T08:32:13Z</time>
      </trkpt>
      <trkpt lat="40.3554840" lon="-3.9958380">
        <ele>649.4</ele>
        <time>2021-02-20T08:32:17Z</time>
      </trkpt>
      <trkpt lat="40.3554290" lon="-3.9960260">
        <ele>649.8</ele>
        <time>2021-02-20T08:32:20Z</time>
      </trkpt>
      <trkpt lat="40.3553330" lon="-3.9963460">
        <ele>650.4</ele>
        <time>2021-02-20T08:32:25Z</time>
      </trkpt>
      <trkpt lat="40.3553030" lon="-3.9964720">
        <ele>651.2</ele>
        <time>2021-02-20T08:32:27Z</time>
      </trkpt>
      <trkpt lat="40.3552900" lon="-3.9965350">
        <ele>651.4</ele>
        <time>2021-02-20T08:32:28Z</time>
      </trkpt>
      <trkpt lat="40.3552770" lon="-3.9965970">
        <ele>651.6</ele>
        <time>2021-02-20T08:32:29Z</time>
      </trkpt>
      <trkpt lat="40.3552150" lon="-3.9969900">
        <ele>652.6</ele>
        <time>2021-02-20T08:32:35Z</time>
      </trkpt>
      <trkpt lat="40.3552120" lon="-3.9970580">
        <ele>652.8</ele>
        <time>2021-02-20T08:32:36Z</time>
      </trkpt>
      <trkpt lat="40.3551850" lon="-3.9974830">
        <ele>653.0</ele>
        <time>2021-02-20T08:32:42Z</time>
      </trkpt>
      <trkpt lat="40.3551900" lon="-3.9975580">
        <ele>652.8</ele>
        <time>2021-02-20T08:32:43Z</time>
      </trkpt>
      <trkpt lat="40.3552390" lon="-3.9981700">
        <ele>652.8</ele>
        <time>2021-02-20T08:32:51Z</time>
      </trkpt>
      <trkpt lat="40.3552400" lon="-3.9982460">
        <ele>652.8</ele>
        <time>2021-02-20T08:32:52Z</time>
      </trkpt>
      <trkpt lat="40.3552210" lon="-3.9987670">
        <ele>653.2</ele>
        <time>2021-02-20T08:32:59Z</time>
      </trkpt>
      <trkpt lat="40.3551800" lon="-3.9992740">
        <ele>653.6</ele>
        <time>2021-02-20T08:33:06Z</time>
      </trkpt>
      <trkpt lat="40.3551700" lon="-3.9993450">
        <ele>653.6</ele>
        <time>2021-02-20T08:33:07Z</time>
      </trkpt>
      <trkpt lat="40.3551200" lon="-3.9995540">
        <ele>653.8</ele>
        <time>2021-02-20T08:33:10Z</time>
      </trkpt>
      <trkpt lat="40.3550950" lon="-3.9996990">
        <ele>653.8</ele>
        <time>2021-02-20T08:33:12Z</time>
      </trkpt>
      <trkpt lat="40.3550130" lon="-4.0002150">
        <ele>654.4</ele>
        <time>2021-02-20T08:33:19Z</time>
      </trkpt>
      <trkpt lat="40.3550030" lon="-4.0002890">
        <ele>654.4</ele>
        <time>2021-02-20T08:33:20Z</time>
      </trkpt>
      <trkpt lat="40.3549820" lon="-4.0004330">
        <ele>654.6</ele>
        <time>2021-02-20T08:33:22Z</time>
      </trkpt>
      <trkpt lat="40.3549510" lon="-4.0008630">
        <ele>655.2</ele>
        <time>2021-02-20T08:33:28Z</time>
      </trkpt>
      <trkpt lat="40.3549360" lon="-4.0009910">
        <ele>655.4</ele>
        <time>2021-02-20T08:33:30Z</time>
      </trkpt>
      <trkpt lat="40.3548840" lon="-4.0010720">
        <ele>655.4</ele>
        <time>2021-02-20T08:33:32Z</time>
      </trkpt>
      <trkpt lat="40.3548150" lon="-4.0011230">
        <ele>655.4</ele>
        <time>2021-02-20T08:33:34Z</time>
      </trkpt>
      <trkpt lat="40.3547440" lon="-4.0011910">
        <ele>655.4</ele>
        <time>2021-02-20T08:33:36Z</time>
      </trkpt>
      <trkpt lat="40.3547110" lon="-4.0012320">
        <ele>655.4</ele>
        <time>2021-02-20T08:33:37Z</time>
      </trkpt>
      <trkpt lat="40.3545810" lon="-4.0013050">
        <ele>655.6</ele>
        <time>2021-02-20T08:33:41Z</time>
      </trkpt>
      <trkpt lat="40.3545260" lon="-4.0012890">
        <ele>655.8</ele>
        <time>2021-02-20T08:33:43Z</time>
      </trkpt>
      <trkpt lat="40.3544370" lon="-4.0012750">
        <ele>655.6</ele>
        <time>2021-02-20T08:33:47Z</time>
      </trkpt>
      <trkpt lat="40.3543180" lon="-4.0012740">
        <ele>656.0</ele>
        <time>2021-02-20T08:33:53Z</time>
      </trkpt>
      <trkpt lat="40.3542840" lon="-4.0012710">
        <ele>656.0</ele>
        <time>2021-02-20T08:33:54Z</time>
      </trkpt>
      <trkpt lat="40.3540830" lon="-4.0011930">
        <ele>656.0</ele>
        <time>2021-02-20T08:33:59Z</time>
      </trkpt>
      <trkpt lat="40.3538880" lon="-4.0011290">
        <ele>655.0</ele>
        <time>2021-02-20T08:34:03Z</time>
      </trkpt>
      <trkpt lat="40.3538360" lon="-4.0011120">
        <ele>654.4</ele>
        <time>2021-02-20T08:34:04Z</time>
      </trkpt>
      <trkpt lat="40.3537830" lon="-4.0010930">
        <ele>654.2</ele>
        <time>2021-02-20T08:34:05Z</time>
      </trkpt>
      <trkpt lat="40.3536720" lon="-4.0010550">
        <ele>653.8</ele>
        <time>2021-02-20T08:34:07Z</time>
      </trkpt>
      <trkpt lat="40.3535540" lon="-4.0010220">
        <ele>653.4</ele>
        <time>2021-02-20T08:34:09Z</time>
      </trkpt>
      <trkpt lat="40.3533740" lon="-4.0009680">
        <ele>652.8</ele>
        <time>2021-02-20T08:34:12Z</time>
      </trkpt>
      <trkpt lat="40.3532510" lon="-4.0009270">
        <ele>652.6</ele>
        <time>2021-02-20T08:34:14Z</time>
      </trkpt>
      <trkpt lat="40.3531890" lon="-4.0009030">
        <ele>652.2</ele>
        <time>2021-02-20T08:34:15Z</time>
      </trkpt>
      <trkpt lat="40.3529570" lon="-4.0007970">
        <ele>651.4</ele>
        <time>2021-02-20T08:34:19Z</time>
      </trkpt>
      <trkpt lat="40.3528970" lon="-4.0007630">
        <ele>651.4</ele>
        <time>2021-02-20T08:34:20Z</time>
      </trkpt>
      <trkpt lat="40.3527800" lon="-4.0006880">
        <ele>651.2</ele>
        <time>2021-02-20T08:34:22Z</time>
      </trkpt>
      <trkpt lat="40.3526670" lon="-4.0006270">
        <ele>650.8</ele>
        <time>2021-02-20T08:34:24Z</time>
      </trkpt>
      <trkpt lat="40.3525590" lon="-4.0006500">
        <ele>650.4</ele>
        <time>2021-02-20T08:34:26Z</time>
      </trkpt>
      <trkpt lat="40.3524550" lon="-4.0006740">
        <ele>649.8</ele>
        <time>2021-02-20T08:34:28Z</time>
      </trkpt>
      <trkpt lat="40.3523500" lon="-4.0006450">
        <ele>648.8</ele>
        <time>2021-02-20T08:34:30Z</time>
      </trkpt>
      <trkpt lat="40.3522470" lon="-4.0005800">
        <ele>647.8</ele>
        <time>2021-02-20T08:34:32Z</time>
      </trkpt>
      <trkpt lat="40.3521960" lon="-4.0005840">
        <ele>647.4</ele>
        <time>2021-02-20T08:34:33Z</time>
      </trkpt>
      <trkpt lat="40.3520970" lon="-4.0006660">
        <ele>646.4</ele>
        <time>2021-02-20T08:34:35Z</time>
      </trkpt>
      <trkpt lat="40.3520390" lon="-4.0007090">
        <ele>645.8</ele>
        <time>2021-02-20T08:34:36Z</time>
      </trkpt>
      <trkpt lat="40.3519740" lon="-4.0007510">
        <ele>645.2</ele>
        <time>2021-02-20T08:34:37Z</time>
      </trkpt>
      <trkpt lat="40.3518230" lon="-4.0008180">
        <ele>643.8</ele>
        <time>2021-02-20T08:34:39Z</time>
      </trkpt>
      <trkpt lat="40.3517430" lon="-4.0008260">
        <ele>643.2</ele>
        <time>2021-02-20T08:34:40Z</time>
      </trkpt>
      <trkpt lat="40.3516630" lon="-4.0008100">
        <ele>642.6</ele>
        <time>2021-02-20T08:34:41Z</time>
      </trkpt>
      <trkpt lat="40.3515080" lon="-4.0007640">
        <ele>642.0</ele>
        <time>2021-02-20T08:34:43Z</time>
      </trkpt>
      <trkpt lat="40.3513500" lon="-4.0007450">
        <ele>641.6</ele>
        <time>2021-02-20T08:34:45Z</time>
      </trkpt>
      <trkpt lat="40.3511890" lon="-4.0007480">
        <ele>641.2</ele>
        <time>2021-02-20T08:34:47Z</time>
      </trkpt>
      <trkpt lat="40.3510290" lon="-4.0007230">
        <ele>640.6</ele>
        <time>2021-02-20T08:34:49Z</time>
      </trkpt>
      <trkpt lat="40.3509490" lon="-4.0006950">
        <ele>640.4</ele>
        <time>2021-02-20T08:34:50Z</time>
      </trkpt>
      <trkpt lat="40.3508760" lon="-4.0006530">
        <ele>640.2</ele>
        <time>2021-02-20T08:34:51Z</time>
      </trkpt>
      <trkpt lat="40.3506640" lon="-4.0004900">
        <ele>639.4</ele>
        <time>2021-02-20T08:34:54Z</time>
      </trkpt>
      <trkpt lat="40.3505350" lon="-4.0003570">
        <ele>639.4</ele>
        <time>2021-02-20T08:34:56Z</time>
      </trkpt>
      <trkpt lat="40.3504720" lon="-4.0003140">
        <ele>639.4</ele>
        <time>2021-02-20T08:34:57Z</time>
      </trkpt>
      <trkpt lat="40.3503240" lon="-4.0003130">
        <ele>639.0</ele>
        <time>2021-02-20T08:34:59Z</time>
      </trkpt>
      <trkpt lat="40.3499250" lon="-4.0004200">
        <ele>638.6</ele>
        <time>2021-02-20T08:35:04Z</time>
      </trkpt>
      <trkpt lat="40.3498430" lon="-4.0004350">
        <ele>638.4</ele>
        <time>2021-02-20T08:35:05Z</time>
      </trkpt>
      <trkpt lat="40.3497610" lon="-4.0004450">
        <ele>638.2</ele>
        <time>2021-02-20T08:35:06Z</time>
      </trkpt>
      <trkpt lat="40.3494270" lon="-4.0004560">
        <ele>637.6</ele>
        <time>2021-02-20T08:35:10Z</time>
      </trkpt>
      <trkpt lat="40.3492020" lon="-4.0003910">
        <ele>637.2</ele>
        <time>2021-02-20T08:35:13Z</time>
      </trkpt>
      <trkpt lat="40.3490880" lon="-4.0003340">
        <ele>637.4</ele>
        <time>2021-02-20T08:35:15Z</time>
      </trkpt>
      <trkpt lat="40.3488640" lon="-4.0002880">
        <ele>637.0</ele>
        <time>2021-02-20T08:35:19Z</time>
      </trkpt>
      <trkpt lat="40.3487290" lon="-4.0002650">
        <ele>637.0</ele>
        <time>2021-02-20T08:35:21Z</time>
      </trkpt>
      <trkpt lat="40.3486620" lon="-4.0002450">
        <ele>636.8</ele>
        <time>2021-02-20T08:35:22Z</time>
      </trkpt>
      <trkpt lat="40.3485960" lon="-4.0002160">
        <ele>636.8</ele>
        <time>2021-02-20T08:35:23Z</time>
      </trkpt>
      <trkpt lat="40.3484020" lon="-4.0000830">
        <ele>636.4</ele>
        <time>2021-02-20T08:35:26Z</time>
      </trkpt>
      <trkpt lat="40.3483370" lon="-4.0000470">
        <ele>636.2</ele>
        <time>2021-02-20T08:35:27Z</time>
      </trkpt>
      <trkpt lat="40.3481240" lon="-3.9999670">
        <ele>635.4</ele>
        <time>2021-02-20T08:35:30Z</time>
      </trkpt>
      <trkpt lat="40.3480510" lon="-3.9999270">
        <ele>635.0</ele>
        <time>2021-02-20T08:35:31Z</time>
      </trkpt>
      <trkpt lat="40.3478290" lon="-3.9998150">
        <ele>634.8</ele>
        <time>2021-02-20T08:35:34Z</time>
      </trkpt>
      <trkpt lat="40.3477470" lon="-3.9998080">
        <ele>634.6</ele>
        <time>2021-02-20T08:35:35Z</time>
      </trkpt>
      <trkpt lat="40.3474270" lon="-3.9998010">
        <ele>633.8</ele>
        <time>2021-02-20T08:35:39Z</time>
      </trkpt>
      <trkpt lat="40.3473410" lon="-3.9998010">
        <ele>633.2</ele>
        <time>2021-02-20T08:35:40Z</time>
      </trkpt>
      <trkpt lat="40.3470890" lon="-3.9998140">
        <ele>632.8</ele>
        <time>2021-02-20T08:35:43Z</time>
      </trkpt>
      <trkpt lat="40.3469200" lon="-3.9998320">
        <ele>632.4</ele>
        <time>2021-02-20T08:35:45Z</time>
      </trkpt>
      <trkpt lat="40.3466440" lon="-3.9999510">
        <ele>631.8</ele>
        <time>2021-02-20T08:35:49Z</time>
      </trkpt>
      <trkpt lat="40.3466130" lon="-4.0000010">
        <ele>631.4</ele>
        <time>2021-02-20T08:35:50Z</time>
      </trkpt>
      <trkpt lat="40.3465240" lon="-4.0000540">
        <ele>631.0</ele>
        <time>2021-02-20T08:35:52Z</time>
      </trkpt>
      <trkpt lat="40.3463640" lon="-4.0001710">
        <ele>630.8</ele>
        <time>2021-02-20T08:35:55Z</time>
      </trkpt>
      <trkpt lat="40.3463010" lon="-4.0002020">
        <ele>630.8</ele>
        <time>2021-02-20T08:35:56Z</time>
      </trkpt>
      <trkpt lat="40.3460870" lon="-4.0001930">
        <ele>630.6</ele>
        <time>2021-02-20T08:35:59Z</time>
      </trkpt>
      <trkpt lat="40.3460100" lon="-4.0001930">
        <ele>630.4</ele>
        <time>2021-02-20T08:36:00Z</time>
      </trkpt>
      <trkpt lat="40.3458820" lon="-4.0001760">
        <ele>630.0</ele>
        <time>2021-02-20T08:36:02Z</time>
      </trkpt>
      <trkpt lat="40.3456750" lon="-4.0000920">
        <ele>629.4</ele>
        <time>2021-02-20T08:36:05Z</time>
      </trkpt>
      <trkpt lat="40.3455350" lon="-4.0000310">
        <ele>629.2</ele>
        <time>2021-02-20T08:36:07Z</time>
      </trkpt>
      <trkpt lat="40.3453700" lon="-3.9999010">
        <ele>628.8</ele>
        <time>2021-02-20T08:36:10Z</time>
      </trkpt>
      <trkpt lat="40.3453160" lon="-3.9998710">
        <ele>628.8</ele>
        <time>2021-02-20T08:36:11Z</time>
      </trkpt>
      <trkpt lat="40.3452050" lon="-3.9998110">
        <ele>628.6</ele>
        <time>2021-02-20T08:36:13Z</time>
      </trkpt>
      <trkpt lat="40.3450330" lon="-3.9997130">
        <ele>628.2</ele>
        <time>2021-02-20T08:36:16Z</time>
      </trkpt>
      <trkpt lat="40.3448970" lon="-3.9996690">
        <ele>627.8</ele>
        <time>2021-02-20T08:36:18Z</time>
      </trkpt>
      <trkpt lat="40.3447660" lon="-3.9996010">
        <ele>627.2</ele>
        <time>2021-02-20T08:36:20Z</time>
      </trkpt>
      <trkpt lat="40.3447080" lon="-3.9995540">
        <ele>627.0</ele>
        <time>2021-02-20T08:36:21Z</time>
      </trkpt>
      <trkpt lat="40.3446550" lon="-3.9995000">
        <ele>626.8</ele>
        <time>2021-02-20T08:36:22Z</time>
      </trkpt>
      <trkpt lat="40.3445570" lon="-3.9993800">
        <ele>626.4</ele>
        <time>2021-02-20T08:36:24Z</time>
      </trkpt>
      <trkpt lat="40.3444600" lon="-3.9992640">
        <ele>625.8</ele>
        <time>2021-02-20T08:36:26Z</time>
      </trkpt>
      <trkpt lat="40.3443810" lon="-3.9991860">
        <ele>625.2</ele>
        <time>2021-02-20T08:36:28Z</time>
      </trkpt>
      <trkpt lat="40.3442480" lon="-3.9992100">
        <ele>625.0</ele>
        <time>2021-02-20T08:36:31Z</time>
      </trkpt>
      <trkpt lat="40.3441660" lon="-3.9993670">
        <ele>625.4</ele>
        <time>2021-02-20T08:36:34Z</time>
      </trkpt>
      <trkpt lat="40.3441590" lon="-3.9996330">
        <ele>626.4</ele>
        <time>2021-02-20T08:36:38Z</time>
      </trkpt>
      <trkpt lat="40.3441940" lon="-3.9997600">
        <ele>626.4</ele>
        <time>2021-02-20T08:36:40Z</time>
      </trkpt>
      <trkpt lat="40.3442120" lon="-3.9998190">
        <ele>626.6</ele>
        <time>2021-02-20T08:36:41Z</time>
      </trkpt>
      <trkpt lat="40.3442510" lon="-3.9999270">
        <ele>626.8</ele>
        <time>2021-02-20T08:36:43Z</time>
      </trkpt>
      <trkpt lat="40.3442690" lon="-3.9999790">
        <ele>627.0</ele>
        <time>2021-02-20T08:36:44Z</time>
      </trkpt>
      <trkpt lat="40.3442880" lon="-4.0001710">
        <ele>627.8</ele>
        <time>2021-02-20T08:36:48Z</time>
      </trkpt>
      <trkpt lat="40.3442630" lon="-4.0002140">
        <ele>627.8</ele>
        <time>2021-02-20T08:36:49Z</time>
      </trkpt>
      <trkpt lat="40.3441820" lon="-4.0002480">
        <ele>628.2</ele>
        <time>2021-02-20T08:36:51Z</time>
      </trkpt>
      <trkpt lat="40.3441410" lon="-4.0002480">
        <ele>628.4</ele>
        <time>2021-02-20T08:36:52Z</time>
      </trkpt>
      <trkpt lat="40.3441000" lon="-4.0002480">
        <ele>628.6</ele>
        <time>2021-02-20T08:36:53Z</time>
      </trkpt>
      <trkpt lat="40.3440560" lon="-4.0002540">
        <ele>628.6</ele>
        <time>2021-02-20T08:36:54Z</time>
      </trkpt>
      <trkpt lat="40.3439350" lon="-4.0003190">
        <ele>628.4</ele>
        <time>2021-02-20T08:36:57Z</time>
      </trkpt>
      <trkpt lat="40.3438940" lon="-4.0003510">
        <ele>628.2</ele>
        <time>2021-02-20T08:36:58Z</time>
      </trkpt>
      <trkpt lat="40.3437540" lon="-4.0004240">
        <ele>627.8</ele>
        <time>2021-02-20T08:37:01Z</time>
      </trkpt>
      <trkpt lat="40.3437070" lon="-4.0004340">
        <ele>627.6</ele>
        <time>2021-02-20T08:37:02Z</time>
      </trkpt>
      <trkpt lat="40.3433920" lon="-4.0005080">
        <ele>627.2</ele>
        <time>2021-02-20T08:37:08Z</time>
      </trkpt>
      <trkpt lat="40.3433390" lon="-4.0005240">
        <ele>627.2</ele>
        <time>2021-02-20T08:37:09Z</time>
      </trkpt>
      <trkpt lat="40.3431820" lon="-4.0005610">
        <ele>626.8</ele>
        <time>2021-02-20T08:37:12Z</time>
      </trkpt>
      <trkpt lat="40.3430710" lon="-4.0006170">
        <ele>626.8</ele>
        <time>2021-02-20T08:37:14Z</time>
      </trkpt>
      <trkpt lat="40.3427360" lon="-4.0007780">
        <ele>626.6</ele>
        <time>2021-02-20T08:37:20Z</time>
      </trkpt>
      <trkpt lat="40.3426260" lon="-4.0007840">
        <ele>626.6</ele>
        <time>2021-02-20T08:37:22Z</time>
      </trkpt>
      <trkpt lat="40.3423550" lon="-4.0007740">
        <ele>627.4</ele>
        <time>2021-02-20T08:37:28Z</time>
      </trkpt>
      <trkpt lat="40.3422420" lon="-4.0007550">
        <ele>628.4</ele>
        <time>2021-02-20T08:37:31Z</time>
      </trkpt>
      <trkpt lat="40.3421330" lon="-4.0007490">
        <ele>629.4</ele>
        <time>2021-02-20T08:37:34Z</time>
      </trkpt>
      <trkpt lat="40.3420970" lon="-4.0007520">
        <ele>629.8</ele>
        <time>2021-02-20T08:37:35Z</time>
      </trkpt>
      <trkpt lat="40.3419940" lon="-4.0007730">
        <ele>631.0</ele>
        <time>2021-02-20T08:37:38Z</time>
      </trkpt>
      <trkpt lat="40.3419270" lon="-4.0007900">
        <ele>632.4</ele>
        <time>2021-02-20T08:37:40Z</time>
      </trkpt>
      <trkpt lat="40.3418560" lon="-4.0008150">
        <ele>633.4</ele>
        <time>2021-02-20T08:37:42Z</time>
      </trkpt>
      <trkpt lat="40.3417860" lon="-4.0008360">
        <ele>634.4</ele>
        <time>2021-02-20T08:37:44Z</time>
      </trkpt>
      <trkpt lat="40.3417140" lon="-4.0008540">
        <ele>635.4</ele>
        <time>2021-02-20T08:37:46Z</time>
      </trkpt>
      <trkpt lat="40.3416770" lon="-4.0008650">
        <ele>636.0</ele>
        <time>2021-02-20T08:37:47Z</time>
      </trkpt>
      <trkpt lat="40.3416430" lon="-4.0008760">
        <ele>636.4</ele>
        <time>2021-02-20T08:37:48Z</time>
      </trkpt>
      <trkpt lat="40.3415720" lon="-4.0008970">
        <ele>637.4</ele>
        <time>2021-02-20T08:37:50Z</time>
      </trkpt>
      <trkpt lat="40.3415390" lon="-4.0009060">
        <ele>638.0</ele>
        <time>2021-02-20T08:37:51Z</time>
      </trkpt>
      <trkpt lat="40.3415030" lon="-4.0009160">
        <ele>638.4</ele>
        <time>2021-02-20T08:37:52Z</time>
      </trkpt>
      <trkpt lat="40.3414260" lon="-4.0009340">
        <ele>639.4</ele>
        <time>2021-02-20T08:37:54Z</time>
      </trkpt>
      <trkpt lat="40.3412970" lon="-4.0009650">
        <ele>640.6</ele>
        <time>2021-02-20T08:37:57Z</time>
      </trkpt>
      <trkpt lat="40.3412500" lon="-4.0009750">
        <ele>640.8</ele>
        <time>2021-02-20T08:37:58Z</time>
      </trkpt>
      <trkpt lat="40.3412010" lon="-4.0009850">
        <ele>641.0</ele>
        <time>2021-02-20T08:37:59Z</time>
      </trkpt>
      <trkpt lat="40.3411490" lon="-4.0009940">
        <ele>641.4</ele>
        <time>2021-02-20T08:38:00Z</time>
      </trkpt>
      <trkpt lat="40.3408760" lon="-4.0010430">
        <ele>641.4</ele>
        <time>2021-02-20T08:38:05Z</time>
      </trkpt>
      <trkpt lat="40.3407770" lon="-4.0010650">
        <ele>641.6</ele>
        <time>2021-02-20T08:38:07Z</time>
      </trkpt>
      <trkpt lat="40.3406860" lon="-4.0010880">
        <ele>642.0</ele>
        <time>2021-02-20T08:38:09Z</time>
      </trkpt>
      <trkpt lat="40.3405530" lon="-4.0011200">
        <ele>641.8</ele>
        <time>2021-02-20T08:38:12Z</time>
      </trkpt>
      <trkpt lat="40.3403560" lon="-4.0011520">
        <ele>640.4</ele>
        <time>2021-02-20T08:38:16Z</time>
      </trkpt>
      <trkpt lat="40.3402590" lon="-4.0011650">
        <ele>640.0</ele>
        <time>2021-02-20T08:38:18Z</time>
      </trkpt>
      <trkpt lat="40.3402140" lon="-4.0011660">
        <ele>640.0</ele>
        <time>2021-02-20T08:38:19Z</time>
      </trkpt>
      <trkpt lat="40.3401150" lon="-4.0011570">
        <ele>640.0</ele>
        <time>2021-02-20T08:38:21Z</time>
      </trkpt>
      <trkpt lat="40.3399710" lon="-4.0011170">
        <ele>640.0</ele>
        <time>2021-02-20T08:38:24Z</time>
      </trkpt>
      <trkpt lat="40.3397100" lon="-4.0010580">
        <ele>640.4</ele>
        <time>2021-02-20T08:38:30Z</time>
      </trkpt>
      <trkpt lat="40.3396270" lon="-4.0010370">
        <ele>640.8</ele>
        <time>2021-02-20T08:38:32Z</time>
      </trkpt>
      <trkpt lat="40.3394470" lon="-4.0009920">
        <ele>641.4</ele>
        <time>2021-02-20T08:38:36Z</time>
      </trkpt>
      <trkpt lat="40.3393510" lon="-4.0009820">
        <ele>641.6</ele>
        <time>2021-02-20T08:38:38Z</time>
      </trkpt>
      <trkpt lat="40.3391660" lon="-4.0009310">
        <ele>642.2</ele>
        <time>2021-02-20T08:38:42Z</time>
      </trkpt>
      <trkpt lat="40.3390330" lon="-4.0008900">
        <ele>642.6</ele>
        <time>2021-02-20T08:38:45Z</time>
      </trkpt>
      <trkpt lat="40.3388090" lon="-4.0008110">
        <ele>643.2</ele>
        <time>2021-02-20T08:38:50Z</time>
      </trkpt>
      <trkpt lat="40.3387330" lon="-4.0007990">
        <ele>643.4</ele>
        <time>2021-02-20T08:38:52Z</time>
      </trkpt>
      <trkpt lat="40.3386370" lon="-4.0007830">
        <ele>643.4</ele>
        <time>2021-02-20T08:38:54Z</time>
      </trkpt>
      <trkpt lat="40.3385880" lon="-4.0007670">
        <ele>643.6</ele>
        <time>2021-02-20T08:38:55Z</time>
      </trkpt>
      <trkpt lat="40.3385410" lon="-4.0007450">
        <ele>644.0</ele>
        <time>2021-02-20T08:38:56Z</time>
      </trkpt>
      <trkpt lat="40.3383870" lon="-4.0007300">
        <ele>644.4</ele>
        <time>2021-02-20T08:38:59Z</time>
      </trkpt>
      <trkpt lat="40.3382810" lon="-4.0007550">
        <ele>644.8</ele>
        <time>2021-02-20T08:39:01Z</time>
      </trkpt>
      <trkpt lat="40.3380760" lon="-4.0008300">
        <ele>644.8</ele>
        <time>2021-02-20T08:39:05Z</time>
      </trkpt>
      <trkpt lat="40.3379360" lon="-4.0009240">
        <ele>645.0</ele>
        <time>2021-02-20T08:39:08Z</time>
      </trkpt>
      <trkpt lat="40.3378170" lon="-4.0010450">
        <ele>645.6</ele>
        <time>2021-02-20T08:39:11Z</time>
      </trkpt>
      <trkpt lat="40.3377770" lon="-4.0010850">
        <ele>645.8</ele>
        <time>2021-02-20T08:39:12Z</time>
      </trkpt>
      <trkpt lat="40.3376290" lon="-4.0012620">
        <ele>647.0</ele>
        <time>2021-02-20T08:39:16Z</time>
      </trkpt>
      <trkpt lat="40.3375240" lon="-4.0013990">
        <ele>647.4</ele>
        <time>2021-02-20T08:39:19Z</time>
      </trkpt>
      <trkpt lat="40.3373510" lon="-4.0015940">
        <ele>648.0</ele>
        <time>2021-02-20T08:39:24Z</time>
      </trkpt>
      <trkpt lat="40.3373140" lon="-4.0016310">
        <ele>648.2</ele>
        <time>2021-02-20T08:39:25Z</time>
      </trkpt>
      <trkpt lat="40.3372770" lon="-4.0016640">
        <ele>648.6</ele>
        <time>2021-02-20T08:39:26Z</time>
      </trkpt>
      <trkpt lat="40.3372000" lon="-4.0017230">
        <ele>649.2</ele>
        <time>2021-02-20T08:39:28Z</time>
      </trkpt>
      <trkpt lat="40.3369870" lon="-4.0018490">
        <ele>649.6</ele>
        <time>2021-02-20T08:39:33Z</time>
      </trkpt>
      <trkpt lat="40.3368530" lon="-4.0019120">
        <ele>650.0</ele>
        <time>2021-02-20T08:39:36Z</time>
      </trkpt>
      <trkpt lat="40.3367660" lon="-4.0019700">
        <ele>650.2</ele>
        <time>2021-02-20T08:39:38Z</time>
      </trkpt>
      <trkpt lat="40.3366350" lon="-4.0020540">
        <ele>651.2</ele>
        <time>2021-02-20T08:39:41Z</time>
      </trkpt>
      <trkpt lat="40.3365050" lon="-4.0021290">
        <ele>651.6</ele>
        <time>2021-02-20T08:39:44Z</time>
      </trkpt>
      <trkpt lat="40.3364190" lon="-4.0021790">
        <ele>652.0</ele>
        <time>2021-02-20T08:39:46Z</time>
      </trkpt>
      <trkpt lat="40.3363310" lon="-4.0022300">
        <ele>652.2</ele>
        <time>2021-02-20T08:39:48Z</time>
      </trkpt>
      <trkpt lat="40.3360470" lon="-4.0024320">
        <ele>653.0</ele>
        <time>2021-02-20T08:39:55Z</time>
      </trkpt>
      <trkpt lat="40.3359770" lon="-4.0025110">
        <ele>653.2</ele>
        <time>2021-02-20T08:39:57Z</time>
      </trkpt>
      <trkpt lat="40.3359430" lon="-4.0025530">
        <ele>653.4</ele>
        <time>2021-02-20T08:39:58Z</time>
      </trkpt>
      <trkpt lat="40.3358270" lon="-4.0026750">
        <ele>654.0</ele>
        <time>2021-02-20T08:40:01Z</time>
      </trkpt>
      <trkpt lat="40.3357440" lon="-4.0027490">
        <ele>654.4</ele>
        <time>2021-02-20T08:40:03Z</time>
      </trkpt>
      <trkpt lat="40.3356160" lon="-4.0028510">
        <ele>655.6</ele>
        <time>2021-02-20T08:40:06Z</time>
      </trkpt>
      <trkpt lat="40.3354890" lon="-4.0029430">
        <ele>656.6</ele>
        <time>2021-02-20T08:40:09Z</time>
      </trkpt>
      <trkpt lat="40.3354490" lon="-4.0029760">
        <ele>656.8</ele>
        <time>2021-02-20T08:40:10Z</time>
      </trkpt>
      <trkpt lat="40.3354100" lon="-4.0030160">
        <ele>657.0</ele>
        <time>2021-02-20T08:40:11Z</time>
      </trkpt>
      <trkpt lat="40.3352970" lon="-4.0031550">
        <ele>657.6</ele>
        <time>2021-02-20T08:40:14Z</time>
      </trkpt>
      <trkpt lat="40.3352550" lon="-4.0031920">
        <ele>658.0</ele>
        <time>2021-02-20T08:40:15Z</time>
      </trkpt>
      <trkpt lat="40.3351650" lon="-4.0032560">
        <ele>658.4</ele>
        <time>2021-02-20T08:40:17Z</time>
      </trkpt>
      <trkpt lat="40.3350390" lon="-4.0033430">
        <ele>659.2</ele>
        <time>2021-02-20T08:40:20Z</time>
      </trkpt>
      <trkpt lat="40.3349960" lon="-4.0033710">
        <ele>659.4</ele>
        <time>2021-02-20T08:40:21Z</time>
      </trkpt>
      <trkpt lat="40.3347790" lon="-4.0035340">
        <ele>660.2</ele>
        <time>2021-02-20T08:40:26Z</time>
      </trkpt>
      <trkpt lat="40.3345670" lon="-4.0037040">
        <ele>660.6</ele>
        <time>2021-02-20T08:40:31Z</time>
      </trkpt>
      <trkpt lat="40.3343330" lon="-4.0040020">
        <ele>660.0</ele>
        <time>2021-02-20T08:40:37Z</time>
      </trkpt>
      <trkpt lat="40.3340510" lon="-4.0044320">
        <ele>659.8</ele>
        <time>2021-02-20T08:40:45Z</time>
      </trkpt>
      <trkpt lat="40.3339150" lon="-4.0046540">
        <ele>660.2</ele>
        <time>2021-02-20T08:40:49Z</time>
      </trkpt>
      <trkpt lat="40.3337420" lon="-4.0049520">
        <ele>660.0</ele>
        <time>2021-02-20T08:40:54Z</time>
      </trkpt>
      <trkpt lat="40.3335740" lon="-4.0052400">
        <ele>660.4</ele>
        <time>2021-02-20T08:40:59Z</time>
      </trkpt>
      <trkpt lat="40.3334800" lon="-4.0053920">
        <ele>660.4</ele>
        <time>2021-02-20T08:41:02Z</time>
      </trkpt>
      <trkpt lat="40.3333610" lon="-4.0055850">
        <ele>661.0</ele>
        <time>2021-02-20T08:41:06Z</time>
      </trkpt>
      <trkpt lat="40.3332310" lon="-4.0057760">
        <ele>661.0</ele>
        <time>2021-02-20T08:41:10Z</time>
      </trkpt>
      <trkpt lat="40.3329670" lon="-4.0061450">
        <ele>660.6</ele>
        <time>2021-02-20T08:41:17Z</time>
      </trkpt>
      <trkpt lat="40.3327220" lon="-4.0064240">
        <ele>660.8</ele>
        <time>2021-02-20T08:41:23Z</time>
      </trkpt>
      <trkpt lat="40.3324930" lon="-4.0067340">
        <ele>661.4</ele>
        <time>2021-02-20T08:41:29Z</time>
      </trkpt>
      <trkpt lat="40.3324220" lon="-4.0068340">
        <ele>661.6</ele>
        <time>2021-02-20T08:41:31Z</time>
      </trkpt>
      <trkpt lat="40.3322030" lon="-4.0071180">
        <ele>662.4</ele>
        <time>2021-02-20T08:41:37Z</time>
      </trkpt>
      <trkpt lat="40.3320510" lon="-4.0073080">
        <ele>663.0</ele>
        <time>2021-02-20T08:41:41Z</time>
      </trkpt>
      <trkpt lat="40.3317960" lon="-4.0076980">
        <ele>662.4</ele>
        <time>2021-02-20T08:41:48Z</time>
      </trkpt>
      <trkpt lat="40.3315190" lon="-4.0080850">
        <ele>662.6</ele>
        <time>2021-02-20T08:41:55Z</time>
      </trkpt>
      <trkpt lat="40.3311950" lon="-4.0084650">
        <ele>663.4</ele>
        <time>2021-02-20T08:42:03Z</time>
      </trkpt>
      <trkpt lat="40.3311170" lon="-4.0085570">
        <ele>663.8</ele>
        <time>2021-02-20T08:42:05Z</time>
      </trkpt>
      <trkpt lat="40.3309990" lon="-4.0087000">
        <ele>664.2</ele>
        <time>2021-02-20T08:42:08Z</time>
      </trkpt>
      <trkpt lat="40.3308610" lon="-4.0088130">
        <ele>664.2</ele>
        <time>2021-02-20T08:42:11Z</time>
      </trkpt>
      <trkpt lat="40.3308170" lon="-4.0088560">
        <ele>664.2</ele>
        <time>2021-02-20T08:42:12Z</time>
      </trkpt>
      <trkpt lat="40.3306010" lon="-4.0090340">
        <ele>664.6</ele>
        <time>2021-02-20T08:42:17Z</time>
      </trkpt>
      <trkpt lat="40.3305550" lon="-4.0090640">
        <ele>664.6</ele>
        <time>2021-02-20T08:42:18Z</time>
      </trkpt>
      <trkpt lat="40.3305080" lon="-4.0090880">
        <ele>664.8</ele>
        <time>2021-02-20T08:42:19Z</time>
      </trkpt>
      <trkpt lat="40.3304100" lon="-4.0091240">
        <ele>665.2</ele>
        <time>2021-02-20T08:42:21Z</time>
      </trkpt>
      <trkpt lat="40.3303070" lon="-4.0091390">
        <ele>665.0</ele>
        <time>2021-02-20T08:42:23Z</time>
      </trkpt>
      <trkpt lat="40.3299190" lon="-4.0092300">
        <ele>664.4</ele>
        <time>2021-02-20T08:42:30Z</time>
      </trkpt>
      <trkpt lat="40.3296010" lon="-4.0093730">
        <ele>663.4</ele>
        <time>2021-02-20T08:42:36Z</time>
      </trkpt>
      <trkpt lat="40.3293070" lon="-4.0096450">
        <ele>662.4</ele>
        <time>2021-02-20T08:42:42Z</time>
      </trkpt>
      <trkpt lat="40.3291260" lon="-4.0098550">
        <ele>662.2</ele>
        <time>2021-02-20T08:42:46Z</time>
      </trkpt>
      <trkpt lat="40.3290750" lon="-4.0098920">
        <ele>662.2</ele>
        <time>2021-02-20T08:42:47Z</time>
      </trkpt>
      <trkpt lat="40.3287640" lon="-4.0100410">
        <ele>662.8</ele>
        <time>2021-02-20T08:42:53Z</time>
      </trkpt>
      <trkpt lat="40.3283900" lon="-4.0101880">
        <ele>663.4</ele>
        <time>2021-02-20T08:43:01Z</time>
      </trkpt>
      <trkpt lat="40.3281470" lon="-4.0103730">
        <ele>664.2</ele>
        <time>2021-02-20T08:43:07Z</time>
      </trkpt>
      <trkpt lat="40.3281080" lon="-4.0104080">
        <ele>664.4</ele>
        <time>2021-02-20T08:43:08Z</time>
      </trkpt>
      <trkpt lat="40.3277860" lon="-4.0107210">
        <ele>665.2</ele>
        <time>2021-02-20T08:43:17Z</time>
      </trkpt>
      <trkpt lat="40.3277110" lon="-4.0107870">
        <ele>665.6</ele>
        <time>2021-02-20T08:43:19Z</time>
      </trkpt>
      <trkpt lat="40.3275060" lon="-4.0109490">
        <ele>665.8</ele>
        <time>2021-02-20T08:43:24Z</time>
      </trkpt>
      <trkpt lat="40.3272920" lon="-4.0110740">
        <ele>666.6</ele>
        <time>2021-02-20T08:43:29Z</time>
      </trkpt>
      <trkpt lat="40.3271670" lon="-4.0111460">
        <ele>667.0</ele>
        <time>2021-02-20T08:43:32Z</time>
      </trkpt>
      <trkpt lat="40.3269350" lon="-4.0113270">
        <ele>667.6</ele>
        <time>2021-02-20T08:43:38Z</time>
      </trkpt>
      <trkpt lat="40.3267890" lon="-4.0114190">
        <ele>669.0</ele>
        <time>2021-02-20T08:43:42Z</time>
      </trkpt>
      <trkpt lat="40.3267560" lon="-4.0114260">
        <ele>669.4</ele>
        <time>2021-02-20T08:43:43Z</time>
      </trkpt>
      <trkpt lat="40.3266610" lon="-4.0114550">
        <ele>670.2</ele>
        <time>2021-02-20T08:43:46Z</time>
      </trkpt>
      <trkpt lat="40.3265700" lon="-4.0114960">
        <ele>671.4</ele>
        <time>2021-02-20T08:43:50Z</time>
      </trkpt>
      <trkpt lat="40.3264260" lon="-4.0114900">
        <ele>672.2</ele>
        <time>2021-02-20T08:43:55Z</time>
      </trkpt>
      <trkpt lat="40.3263940" lon="-4.0114710">
        <ele>672.2</ele>
        <time>2021-02-20T08:43:56Z</time>
      </trkpt>
      <trkpt lat="40.3262280" lon="-4.0113420">
        <ele>672.4</ele>
        <time>2021-02-20T08:44:01Z</time>
      </trkpt>
      <trkpt lat="40.3261570" lon="-4.0112870">
        <ele>672.4</ele>
        <time>2021-02-20T08:44:03Z</time>
      </trkpt>
      <trkpt lat="40.3259180" lon="-4.0111440">
        <ele>672.6</ele>
        <time>2021-02-20T08:44:09Z</time>
      </trkpt>
      <trkpt lat="40.3258790" lon="-4.0111600">
        <ele>672.6</ele>
        <time>2021-02-20T08:44:10Z</time>
      </trkpt>
      <trkpt lat="40.3257790" lon="-4.0112120">
        <ele>672.2</ele>
        <time>2021-02-20T08:44:13Z</time>
      </trkpt>
      <trkpt lat="40.3256740" lon="-4.0112030">
        <ele>671.2</ele>
        <time>2021-02-20T08:44:15Z</time>
      </trkpt>
      <trkpt lat="40.3255570" lon="-4.0111980">
        <ele>671.0</ele>
        <time>2021-02-20T08:44:17Z</time>
      </trkpt>
      <trkpt lat="40.3252090" lon="-4.0111500">
        <ele>670.8</ele>
        <time>2021-02-20T08:44:23Z</time>
      </trkpt>
      <trkpt lat="40.3248310" lon="-4.0111060">
        <ele>671.0</ele>
        <time>2021-02-20T08:44:30Z</time>
      </trkpt>
      <trkpt lat="40.3245000" lon="-4.0111820">
        <ele>671.4</ele>
        <time>2021-02-20T08:44:37Z</time>
      </trkpt>
      <trkpt lat="40.3242280" lon="-4.0112420">
        <ele>672.2</ele>
        <time>2021-02-20T08:44:43Z</time>
      </trkpt>
      <trkpt lat="40.3241010" lon="-4.0112740">
        <ele>672.6</ele>
        <time>2021-02-20T08:44:46Z</time>
      </trkpt>
      <trkpt lat="40.3239910" lon="-4.0112970">
        <ele>673.4</ele>
        <time>2021-02-20T08:44:49Z</time>
      </trkpt>
      <trkpt lat="40.3238990" lon="-4.0112870">
        <ele>673.2</ele>
        <time>2021-02-20T08:44:51Z</time>
      </trkpt>
      <trkpt lat="40.3238430" lon="-4.0112850">
        <ele>672.2</ele>
        <time>2021-02-20T08:44:52Z</time>
      </trkpt>
      <trkpt lat="40.3237180" lon="-4.0112770">
        <ele>670.8</ele>
        <time>2021-02-20T08:44:54Z</time>
      </trkpt>
      <trkpt lat="40.3236540" lon="-4.0112710">
        <ele>670.2</ele>
        <time>2021-02-20T08:44:55Z</time>
      </trkpt>
      <trkpt lat="40.3235890" lon="-4.0112660">
        <ele>669.2</ele>
        <time>2021-02-20T08:44:56Z</time>
      </trkpt>
      <trkpt lat="40.3234370" lon="-4.0112580">
        <ele>667.8</ele>
        <time>2021-02-20T08:44:58Z</time>
      </trkpt>
      <trkpt lat="40.3232700" lon="-4.0112370">
        <ele>666.0</ele>
        <time>2021-02-20T08:45:00Z</time>
      </trkpt>
      <trkpt lat="40.3231040" lon="-4.0112020">
        <ele>664.4</ele>
        <time>2021-02-20T08:45:02Z</time>
      </trkpt>
      <trkpt lat="40.3229530" lon="-4.0111570">
        <ele>663.2</ele>
        <time>2021-02-20T08:45:04Z</time>
      </trkpt>
      <trkpt lat="40.3228140" lon="-4.0110900">
        <ele>662.4</ele>
        <time>2021-02-20T08:45:06Z</time>
      </trkpt>
      <trkpt lat="40.3227480" lon="-4.0110440">
        <ele>661.8</ele>
        <time>2021-02-20T08:45:07Z</time>
      </trkpt>
      <trkpt lat="40.3226120" lon="-4.0109070">
        <ele>661.8</ele>
        <time>2021-02-20T08:45:10Z</time>
      </trkpt>
      <trkpt lat="40.3225630" lon="-4.0108740">
        <ele>662.2</ele>
        <time>2021-02-20T08:45:11Z</time>
      </trkpt>
      <trkpt lat="40.3223820" lon="-4.0108320">
        <ele>662.0</ele>
        <time>2021-02-20T08:45:14Z</time>
      </trkpt>
      <trkpt lat="40.3221860" lon="-4.0107620">
        <ele>660.8</ele>
        <time>2021-02-20T08:45:17Z</time>
      </trkpt>
      <trkpt lat="40.3221190" lon="-4.0107360">
        <ele>660.2</ele>
        <time>2021-02-20T08:45:18Z</time>
      </trkpt>
      <trkpt lat="40.3220500" lon="-4.0107000">
        <ele>659.8</ele>
        <time>2021-02-20T08:45:19Z</time>
      </trkpt>
      <trkpt lat="40.3219840" lon="-4.0106590">
        <ele>659.6</ele>
        <time>2021-02-20T08:45:20Z</time>
      </trkpt>
      <trkpt lat="40.3218550" lon="-4.0106070">
        <ele>659.0</ele>
        <time>2021-02-20T08:45:22Z</time>
      </trkpt>
      <trkpt lat="40.3217830" lon="-4.0105920">
        <ele>659.0</ele>
        <time>2021-02-20T08:45:23Z</time>
      </trkpt>
      <trkpt lat="40.3216050" lon="-4.0106050">
        <ele>658.6</ele>
        <time>2021-02-20T08:45:26Z</time>
      </trkpt>
      <trkpt lat="40.3215830" lon="-4.0106510">
        <ele>658.4</ele>
        <time>2021-02-20T08:45:27Z</time>
      </trkpt>
      <trkpt lat="40.3215530" lon="-4.0106960">
        <ele>658.2</ele>
        <time>2021-02-20T08:45:28Z</time>
      </trkpt>
      <trkpt lat="40.3214800" lon="-4.0107260">
        <ele>658.2</ele>
        <time>2021-02-20T08:45:30Z</time>
      </trkpt>
      <trkpt lat="40.3214380" lon="-4.0107300">
        <ele>658.2</ele>
        <time>2021-02-20T08:45:31Z</time>
      </trkpt>
      <trkpt lat="40.3212870" lon="-4.0106970">
        <ele>658.6</ele>
        <time>2021-02-20T08:45:34Z</time>
      </trkpt>
      <trkpt lat="40.3212320" lon="-4.0106760">
        <ele>658.8</ele>
        <time>2021-02-20T08:45:35Z</time>
      </trkpt>
      <trkpt lat="40.3210680" lon="-4.0106180">
        <ele>659.6</ele>
        <time>2021-02-20T08:45:38Z</time>
      </trkpt>
      <trkpt lat="40.3209700" lon="-4.0105800">
        <ele>660.6</ele>
        <time>2021-02-20T08:45:40Z</time>
      </trkpt>
      <trkpt lat="40.3208850" lon="-4.0105460">
        <ele>661.2</ele>
        <time>2021-02-20T08:45:42Z</time>
      </trkpt>
      <trkpt lat="40.3208100" lon="-4.0105160">
        <ele>661.8</ele>
        <time>2021-02-20T08:45:44Z</time>
      </trkpt>
      <trkpt lat="40.3207040" lon="-4.0104880">
        <ele>662.8</ele>
        <time>2021-02-20T08:45:47Z</time>
      </trkpt>
      <trkpt lat="40.3206710" lon="-4.0104770">
        <ele>663.0</ele>
        <time>2021-02-20T08:45:48Z</time>
      </trkpt>
      <trkpt lat="40.3206350" lon="-4.0104640">
        <ele>663.4</ele>
        <time>2021-02-20T08:45:49Z</time>
      </trkpt>
      <trkpt lat="40.3205650" lon="-4.0104370">
        <ele>664.0</ele>
        <time>2021-02-20T08:45:51Z</time>
      </trkpt>
      <trkpt lat="40.3204910" lon="-4.0104140">
        <ele>664.8</ele>
        <time>2021-02-20T08:45:53Z</time>
      </trkpt>
      <trkpt lat="40.3204540" lon="-4.0104040">
        <ele>665.2</ele>
        <time>2021-02-20T08:45:54Z</time>
      </trkpt>
      <trkpt lat="40.3203780" lon="-4.0103810">
        <ele>665.8</ele>
        <time>2021-02-20T08:45:56Z</time>
      </trkpt>
      <trkpt lat="40.3203400" lon="-4.0103680">
        <ele>666.2</ele>
        <time>2021-02-20T08:45:57Z</time>
      </trkpt>
      <trkpt lat="40.3201880" lon="-4.0103220">
        <ele>667.6</ele>
        <time>2021-02-20T08:46:01Z</time>
      </trkpt>
      <trkpt lat="40.3200650" lon="-4.0102830">
        <ele>668.6</ele>
        <time>2021-02-20T08:46:04Z</time>
      </trkpt>
      <trkpt lat="40.3200250" lon="-4.0102670">
        <ele>669.0</ele>
        <time>2021-02-20T08:46:05Z</time>
      </trkpt>
      <trkpt lat="40.3197910" lon="-4.0101190">
        <ele>669.0</ele>
        <time>2021-02-20T08:46:11Z</time>
      </trkpt>
      <trkpt lat="40.3194850" lon="-4.0099000">
        <ele>667.6</ele>
        <time>2021-02-20T08:46:17Z</time>
      </trkpt>
      <trkpt lat="40.3194320" lon="-4.0098630">
        <ele>667.4</ele>
        <time>2021-02-20T08:46:18Z</time>
      </trkpt>
      <trkpt lat="40.3191990" lon="-4.0097350">
        <ele>666.4</ele>
        <time>2021-02-20T08:46:22Z</time>
      </trkpt>
      <trkpt lat="40.3190750" lon="-4.0096990">
        <ele>666.0</ele>
        <time>2021-02-20T08:46:24Z</time>
      </trkpt>
      <trkpt lat="40.3188690" lon="-4.0096810">
        <ele>665.6</ele>
        <time>2021-02-20T08:46:28Z</time>
      </trkpt>
      <trkpt lat="40.3187740" lon="-4.0096710">
        <ele>665.6</ele>
        <time>2021-02-20T08:46:30Z</time>
      </trkpt>
      <trkpt lat="40.3186210" lon="-4.0096530">
        <ele>665.6</ele>
        <time>2021-02-20T08:46:33Z</time>
      </trkpt>
      <trkpt lat="40.3185720" lon="-4.0096430">
        <ele>665.6</ele>
        <time>2021-02-20T08:46:34Z</time>
      </trkpt>
      <trkpt lat="40.3184710" lon="-4.0096100">
        <ele>665.6</ele>
        <time>2021-02-20T08:46:36Z</time>
      </trkpt>
      <trkpt lat="40.3182530" lon="-4.0095580">
        <ele>666.0</ele>
        <time>2021-02-20T08:46:40Z</time>
      </trkpt>
      <trkpt lat="40.3179350" lon="-4.0094950">
        <ele>666.4</ele>
        <time>2021-02-20T08:46:46Z</time>
      </trkpt>
      <trkpt lat="40.3178810" lon="-4.0094950">
        <ele>666.6</ele>
        <time>2021-02-20T08:46:47Z</time>
      </trkpt>
      <trkpt lat="40.3176240" lon="-4.0095360">
        <ele>666.8</ele>
        <time>2021-02-20T08:46:52Z</time>
      </trkpt>
      <trkpt lat="40.3175740" lon="-4.0095620">
        <ele>666.8</ele>
        <time>2021-02-20T08:46:53Z</time>
      </trkpt>
      <trkpt lat="40.3174330" lon="-4.0096620">
        <ele>667.0</ele>
        <time>2021-02-20T08:46:56Z</time>
      </trkpt>
      <trkpt lat="40.3172950" lon="-4.0097740">
        <ele>667.4</ele>
        <time>2021-02-20T08:46:59Z</time>
      </trkpt>
      <trkpt lat="40.3172510" lon="-4.0098110">
        <ele>667.4</ele>
        <time>2021-02-20T08:47:00Z</time>
      </trkpt>
      <trkpt lat="40.3168870" lon="-4.0101200">
        <ele>668.2</ele>
        <time>2021-02-20T08:47:08Z</time>
      </trkpt>
      <trkpt lat="40.3166270" lon="-4.0103310">
        <ele>668.4</ele>
        <time>2021-02-20T08:47:14Z</time>
      </trkpt>
      <trkpt lat="40.3165810" lon="-4.0103640">
        <ele>668.4</ele>
        <time>2021-02-20T08:47:15Z</time>
      </trkpt>
      <trkpt lat="40.3165300" lon="-4.0103900">
        <ele>668.2</ele>
        <time>2021-02-20T08:47:16Z</time>
      </trkpt>
      <trkpt lat="40.3162750" lon="-4.0105630">
        <ele>668.0</ele>
        <time>2021-02-20T08:47:21Z</time>
      </trkpt>
      <trkpt lat="40.3161100" lon="-4.0107220">
        <ele>667.2</ele>
        <time>2021-02-20T08:47:25Z</time>
      </trkpt>
      <trkpt lat="40.3160360" lon="-4.0108050">
        <ele>667.2</ele>
        <time>2021-02-20T08:47:27Z</time>
      </trkpt>
      <trkpt lat="40.3159220" lon="-4.0109250">
        <ele>666.8</ele>
        <time>2021-02-20T08:47:30Z</time>
      </trkpt>
      <trkpt lat="40.3158280" lon="-4.0109750">
        <ele>667.0</ele>
        <time>2021-02-20T08:47:32Z</time>
      </trkpt>
      <trkpt lat="40.3156450" lon="-4.0111000">
        <ele>667.0</ele>
        <time>2021-02-20T08:47:36Z</time>
      </trkpt>
      <trkpt lat="40.3154560" lon="-4.0112070">
        <ele>667.2</ele>
        <time>2021-02-20T08:47:40Z</time>
      </trkpt>
      <trkpt lat="40.3151050" lon="-4.0113430">
        <ele>667.8</ele>
        <time>2021-02-20T08:47:47Z</time>
      </trkpt>
      <trkpt lat="40.3148420" lon="-4.0114390">
        <ele>668.2</ele>
        <time>2021-02-20T08:47:52Z</time>
      </trkpt>
      <trkpt lat="40.3146840" lon="-4.0114760">
        <ele>668.4</ele>
        <time>2021-02-20T08:47:55Z</time>
      </trkpt>
      <trkpt lat="40.3144230" lon="-4.0115300">
        <ele>669.4</ele>
        <time>2021-02-20T08:48:00Z</time>
      </trkpt>
      <trkpt lat="40.3141700" lon="-4.0115670">
        <ele>670.0</ele>
        <time>2021-02-20T08:48:05Z</time>
      </trkpt>
      <trkpt lat="40.3140730" lon="-4.0115770">
        <ele>670.4</ele>
        <time>2021-02-20T08:48:07Z</time>
      </trkpt>
      <trkpt lat="40.3137840" lon="-4.0116050">
        <ele>671.6</ele>
        <time>2021-02-20T08:48:13Z</time>
      </trkpt>
      <trkpt lat="40.3137370" lon="-4.0116110">
        <ele>671.8</ele>
        <time>2021-02-20T08:48:14Z</time>
      </trkpt>
      <trkpt lat="40.3135940" lon="-4.0116180">
        <ele>672.6</ele>
        <time>2021-02-20T08:48:17Z</time>
      </trkpt>
      <trkpt lat="40.3134130" lon="-4.0116210">
        <ele>672.8</ele>
        <time>2021-02-20T08:48:21Z</time>
      </trkpt>
      <trkpt lat="40.3131080" lon="-4.0115690">
        <ele>672.2</ele>
        <time>2021-02-20T08:48:27Z</time>
      </trkpt>
      <trkpt lat="40.3129620" lon="-4.0115090">
        <ele>672.0</ele>
        <time>2021-02-20T08:48:30Z</time>
      </trkpt>
      <trkpt lat="40.3128690" lon="-4.0114370">
        <ele>671.6</ele>
        <time>2021-02-20T08:48:32Z</time>
      </trkpt>
      <trkpt lat="40.3128190" lon="-4.0114030">
        <ele>671.4</ele>
        <time>2021-02-20T08:48:33Z</time>
      </trkpt>
      <trkpt lat="40.3127680" lon="-4.0113720">
        <ele>671.4</ele>
        <time>2021-02-20T08:48:34Z</time>
      </trkpt>
      <trkpt lat="40.3125510" lon="-4.0112590">
        <ele>671.0</ele>
        <time>2021-02-20T08:48:38Z</time>
      </trkpt>
      <trkpt lat="40.3124400" lon="-4.0112230">
        <ele>671.0</ele>
        <time>2021-02-20T08:48:40Z</time>
      </trkpt>
      <trkpt lat="40.3123360" lon="-4.0111880">
        <ele>670.8</ele>
        <time>2021-02-20T08:48:42Z</time>
      </trkpt>
      <trkpt lat="40.3122320" lon="-4.0111570">
        <ele>670.4</ele>
        <time>2021-02-20T08:48:44Z</time>
      </trkpt>
      <trkpt lat="40.3119620" lon="-4.0110820">
        <ele>671.0</ele>
        <time>2021-02-20T08:48:50Z</time>
      </trkpt>
      <trkpt lat="40.3119490" lon="-4.0109660">
        <ele>670.8</ele>
        <time>2021-02-20T08:48:53Z</time>
      </trkpt>
      <trkpt lat="40.3119930" lon="-4.0108840">
        <ele>671.2</ele>
        <time>2021-02-20T08:48:56Z</time>
      </trkpt>
      <trkpt lat="40.3120220" lon="-4.0108610">
        <ele>671.2</ele>
        <time>2021-02-20T08:48:57Z</time>
      </trkpt>
      <trkpt lat="40.3121470" lon="-4.0107390">
        <ele>671.0</ele>
        <time>2021-02-20T08:49:02Z</time>
      </trkpt>
      <trkpt lat="40.3122030" lon="-4.0106210">
        <ele>670.4</ele>
        <time>2021-02-20T08:49:05Z</time>
      </trkpt>
      <trkpt lat="40.3122350" lon="-4.0105350">
        <ele>670.0</ele>
        <time>2021-02-20T08:49:07Z</time>
      </trkpt>
      <trkpt lat="40.3122970" lon="-4.0103640">
        <ele>669.2</ele>
        <time>2021-02-20T08:49:10Z</time>
      </trkpt>
      <trkpt lat="40.3123460" lon="-4.0102220">
        <ele>668.4</ele>
        <time>2021-02-20T08:49:12Z</time>
      </trkpt>
      <trkpt lat="40.3123920" lon="-4.0100740">
        <ele>667.6</ele>
        <time>2021-02-20T08:49:14Z</time>
      </trkpt>
      <trkpt lat="40.3124350" lon="-4.0099120">
        <ele>666.6</ele>
        <time>2021-02-20T08:49:16Z</time>
      </trkpt>
      <trkpt lat="40.3124570" lon="-4.0098210">
        <ele>665.4</ele>
        <time>2021-02-20T08:49:17Z</time>
      </trkpt>
      <trkpt lat="40.3124720" lon="-4.0097220">
        <ele>664.6</ele>
        <time>2021-02-20T08:49:18Z</time>
      </trkpt>
      <trkpt lat="40.3124820" lon="-4.0096150">
        <ele>663.8</ele>
        <time>2021-02-20T08:49:19Z</time>
      </trkpt>
      <trkpt lat="40.3125040" lon="-4.0093950">
        <ele>662.4</ele>
        <time>2021-02-20T08:49:21Z</time>
      </trkpt>
      <trkpt lat="40.3125220" lon="-4.0091730">
        <ele>661.2</ele>
        <time>2021-02-20T08:49:23Z</time>
      </trkpt>
      <trkpt lat="40.3125450" lon="-4.0089530">
        <ele>660.2</ele>
        <time>2021-02-20T08:49:25Z</time>
      </trkpt>
      <trkpt lat="40.3125570" lon="-4.0088460">
        <ele>659.6</ele>
        <time>2021-02-20T08:49:26Z</time>
      </trkpt>
      <trkpt lat="40.3125820" lon="-4.0086330">
        <ele>659.0</ele>
        <time>2021-02-20T08:49:28Z</time>
      </trkpt>
      <trkpt lat="40.3126180" lon="-4.0083260">
        <ele>658.0</ele>
        <time>2021-02-20T08:49:31Z</time>
      </trkpt>
      <trkpt lat="40.3126280" lon="-4.0082240">
        <ele>657.6</ele>
        <time>2021-02-20T08:49:32Z</time>
      </trkpt>
      <trkpt lat="40.3126360" lon="-4.0081210">
        <ele>657.2</ele>
        <time>2021-02-20T08:49:33Z</time>
      </trkpt>
      <trkpt lat="40.3126440" lon="-4.0080220">
        <ele>656.6</ele>
        <time>2021-02-20T08:49:34Z</time>
      </trkpt>
      <trkpt lat="40.3126490" lon="-4.0079240">
        <ele>656.4</ele>
        <time>2021-02-20T08:49:35Z</time>
      </trkpt>
      <trkpt lat="40.3126510" lon="-4.0077310">
        <ele>655.6</ele>
        <time>2021-02-20T08:49:37Z</time>
      </trkpt>
      <trkpt lat="40.3126470" lon="-4.0075470">
        <ele>655.0</ele>
        <time>2021-02-20T08:49:39Z</time>
      </trkpt>
      <trkpt lat="40.3126460" lon="-4.0073630">
        <ele>654.4</ele>
        <time>2021-02-20T08:49:41Z</time>
      </trkpt>
      <trkpt lat="40.3126760" lon="-4.0068160">
        <ele>653.6</ele>
        <time>2021-02-20T08:49:47Z</time>
      </trkpt>
      <trkpt lat="40.3127250" lon="-4.0065490">
        <ele>653.4</ele>
        <time>2021-02-20T08:49:50Z</time>
      </trkpt>
      <trkpt lat="40.3128080" lon="-4.0062770">
        <ele>652.8</ele>
        <time>2021-02-20T08:49:53Z</time>
      </trkpt>
      <trkpt lat="40.3128900" lon="-4.0061030">
        <ele>652.4</ele>
        <time>2021-02-20T08:49:55Z</time>
      </trkpt>
      <trkpt lat="40.3130250" lon="-4.0058570">
        <ele>651.8</ele>
        <time>2021-02-20T08:49:58Z</time>
      </trkpt>
      <trkpt lat="40.3132750" lon="-4.0054650">
        <ele>651.2</ele>
        <time>2021-02-20T08:50:03Z</time>
      </trkpt>
      <trkpt lat="40.3133150" lon="-4.0053670">
        <ele>650.8</ele>
        <time>2021-02-20T08:50:04Z</time>
      </trkpt>
      <trkpt lat="40.3133400" lon="-4.0052590">
        <ele>649.8</ele>
        <time>2021-02-20T08:50:05Z</time>
      </trkpt>
      <trkpt lat="40.3133360" lon="-4.0050380">
        <ele>649.2</ele>
        <time>2021-02-20T08:50:07Z</time>
      </trkpt>
      <trkpt lat="40.3133110" lon="-4.0048280">
        <ele>649.2</ele>
        <time>2021-02-20T08:50:09Z</time>
      </trkpt>
      <trkpt lat="40.3133040" lon="-4.0047190">
        <ele>648.8</ele>
        <time>2021-02-20T08:50:10Z</time>
      </trkpt>
      <trkpt lat="40.3132850" lon="-4.0044950">
        <ele>648.2</ele>
        <time>2021-02-20T08:50:12Z</time>
      </trkpt>
      <trkpt lat="40.3132480" lon="-4.0041830">
        <ele>647.8</ele>
        <time>2021-02-20T08:50:15Z</time>
      </trkpt>
      <trkpt lat="40.3132100" lon="-4.0039660">
        <ele>647.4</ele>
        <time>2021-02-20T08:50:17Z</time>
      </trkpt>
      <trkpt lat="40.3131790" lon="-4.0038630">
        <ele>647.2</ele>
        <time>2021-02-20T08:50:18Z</time>
      </trkpt>
      <trkpt lat="40.3130800" lon="-4.0035520">
        <ele>646.6</ele>
        <time>2021-02-20T08:50:21Z</time>
      </trkpt>
      <trkpt lat="40.3130480" lon="-4.0034450">
        <ele>646.4</ele>
        <time>2021-02-20T08:50:22Z</time>
      </trkpt>
      <trkpt lat="40.3129790" lon="-4.0032330">
        <ele>645.6</ele>
        <time>2021-02-20T08:50:24Z</time>
      </trkpt>
      <trkpt lat="40.3128790" lon="-4.0029150">
        <ele>645.0</ele>
        <time>2021-02-20T08:50:27Z</time>
      </trkpt>
      <trkpt lat="40.3128670" lon="-4.0028040">
        <ele>644.8</ele>
        <time>2021-02-20T08:50:28Z</time>
      </trkpt>
      <trkpt lat="40.3128570" lon="-4.0026950">
        <ele>644.6</ele>
        <time>2021-02-20T08:50:29Z</time>
      </trkpt>
      <trkpt lat="40.3128250" lon="-4.0021540">
        <ele>643.4</ele>
        <time>2021-02-20T08:50:34Z</time>
      </trkpt>
      <trkpt lat="40.3128200" lon="-4.0017370">
        <ele>642.4</ele>
        <time>2021-02-20T08:50:38Z</time>
      </trkpt>
      <trkpt lat="40.3128110" lon="-4.0016390">
        <ele>642.2</ele>
        <time>2021-02-20T08:50:39Z</time>
      </trkpt>
      <trkpt lat="40.3127990" lon="-4.0015440">
        <ele>642.0</ele>
        <time>2021-02-20T08:50:40Z</time>
      </trkpt>
      <trkpt lat="40.3127490" lon="-4.0010080">
        <ele>641.2</ele>
        <time>2021-02-20T08:50:46Z</time>
      </trkpt>
      <trkpt lat="40.3127420" lon="-4.0009200">
        <ele>641.2</ele>
        <time>2021-02-20T08:50:47Z</time>
      </trkpt>
      <trkpt lat="40.3126840" lon="-4.0002740">
        <ele>640.2</ele>
        <time>2021-02-20T08:50:54Z</time>
      </trkpt>
      <trkpt lat="40.3126720" lon="-4.0001750">
        <ele>640.0</ele>
        <time>2021-02-20T08:50:55Z</time>
      </trkpt>
      <trkpt lat="40.3125950" lon="-3.9996010">
        <ele>639.0</ele>
        <time>2021-02-20T08:51:01Z</time>
      </trkpt>
      <trkpt lat="40.3125660" lon="-3.9994090">
        <ele>638.8</ele>
        <time>2021-02-20T08:51:03Z</time>
      </trkpt>
      <trkpt lat="40.3125410" lon="-3.9988180">
        <ele>638.0</ele>
        <time>2021-02-20T08:51:09Z</time>
      </trkpt>
      <trkpt lat="40.3125380" lon="-3.9987220">
        <ele>638.0</ele>
        <time>2021-02-20T08:51:10Z</time>
      </trkpt>
      <trkpt lat="40.3125190" lon="-3.9985300">
        <ele>637.6</ele>
        <time>2021-02-20T08:51:12Z</time>
      </trkpt>
      <trkpt lat="40.3124780" lon="-3.9982480">
        <ele>637.2</ele>
        <time>2021-02-20T08:51:15Z</time>
      </trkpt>
      <trkpt lat="40.3124550" lon="-3.9980630">
        <ele>636.8</ele>
        <time>2021-02-20T08:51:17Z</time>
      </trkpt>
      <trkpt lat="40.3124250" lon="-3.9977850">
        <ele>635.8</ele>
        <time>2021-02-20T08:51:20Z</time>
      </trkpt>
      <trkpt lat="40.3123940" lon="-3.9975030">
        <ele>635.6</ele>
        <time>2021-02-20T08:51:23Z</time>
      </trkpt>
      <trkpt lat="40.3123560" lon="-3.9973270">
        <ele>635.2</ele>
        <time>2021-02-20T08:51:25Z</time>
      </trkpt>
      <trkpt lat="40.3123100" lon="-3.9971620">
        <ele>634.8</ele>
        <time>2021-02-20T08:51:27Z</time>
      </trkpt>
      <trkpt lat="40.3122920" lon="-3.9970780">
        <ele>634.4</ele>
        <time>2021-02-20T08:51:28Z</time>
      </trkpt>
      <trkpt lat="40.3122100" lon="-3.9966510">
        <ele>633.6</ele>
        <time>2021-02-20T08:51:33Z</time>
      </trkpt>
      <trkpt lat="40.3121760" lon="-3.9964780">
        <ele>633.4</ele>
        <time>2021-02-20T08:51:35Z</time>
      </trkpt>
      <trkpt lat="40.3120920" lon="-3.9959630">
        <ele>632.8</ele>
        <time>2021-02-20T08:51:41Z</time>
      </trkpt>
      <trkpt lat="40.3120480" lon="-3.9957950">
        <ele>632.6</ele>
        <time>2021-02-20T08:51:43Z</time>
      </trkpt>
      <trkpt lat="40.3119720" lon="-3.9953880">
        <ele>632.4</ele>
        <time>2021-02-20T08:51:48Z</time>
      </trkpt>
      <trkpt lat="40.3119650" lon="-3.9952310">
        <ele>631.6</ele>
        <time>2021-02-20T08:51:50Z</time>
      </trkpt>
      <trkpt lat="40.3119530" lon="-3.9950740">
        <ele>631.4</ele>
        <time>2021-02-20T08:51:52Z</time>
      </trkpt>
      <trkpt lat="40.3119390" lon="-3.9949130">
        <ele>631.4</ele>
        <time>2021-02-20T08:51:54Z</time>
      </trkpt>
      <trkpt lat="40.3119120" lon="-3.9944300">
        <ele>631.6</ele>
        <time>2021-02-20T08:52:00Z</time>
      </trkpt>
      <trkpt lat="40.3119140" lon="-3.9942720">
        <ele>631.6</ele>
        <time>2021-02-20T08:52:02Z</time>
      </trkpt>
      <trkpt lat="40.3118980" lon="-3.9941140">
        <ele>631.6</ele>
        <time>2021-02-20T08:52:04Z</time>
      </trkpt>
      <trkpt lat="40.3118720" lon="-3.9939620">
        <ele>631.6</ele>
        <time>2021-02-20T08:52:06Z</time>
      </trkpt>
      <trkpt lat="40.3118630" lon="-3.9938870">
        <ele>631.6</ele>
        <time>2021-02-20T08:52:07Z</time>
      </trkpt>
      <trkpt lat="40.3118380" lon="-3.9935040">
        <ele>630.8</ele>
        <time>2021-02-20T08:52:12Z</time>
      </trkpt>
      <trkpt lat="40.3118330" lon="-3.9933470">
        <ele>630.6</ele>
        <time>2021-02-20T08:52:14Z</time>
      </trkpt>
      <trkpt lat="40.3118300" lon="-3.9931760">
        <ele>630.2</ele>
        <time>2021-02-20T08:52:16Z</time>
      </trkpt>
      <trkpt lat="40.3117990" lon="-3.9930030">
        <ele>629.8</ele>
        <time>2021-02-20T08:52:18Z</time>
      </trkpt>
      <trkpt lat="40.3117770" lon="-3.9929200">
        <ele>629.4</ele>
        <time>2021-02-20T08:52:19Z</time>
      </trkpt>
      <trkpt lat="40.3117520" lon="-3.9928400">
        <ele>629.2</ele>
        <time>2021-02-20T08:52:20Z</time>
      </trkpt>
      <trkpt lat="40.3117250" lon="-3.9927640">
        <ele>628.8</ele>
        <time>2021-02-20T08:52:21Z</time>
      </trkpt>
      <trkpt lat="40.3116950" lon="-3.9926900">
        <ele>628.8</ele>
        <time>2021-02-20T08:52:22Z</time>
      </trkpt>
      <trkpt lat="40.3116360" lon="-3.9925460">
        <ele>628.8</ele>
        <time>2021-02-20T08:52:24Z</time>
      </trkpt>
      <trkpt lat="40.3116070" lon="-3.9924710">
        <ele>628.8</ele>
        <time>2021-02-20T08:52:25Z</time>
      </trkpt>
      <trkpt lat="40.3114860" lon="-3.9919950">
        <ele>628.2</ele>
        <time>2021-02-20T08:52:31Z</time>
      </trkpt>
      <trkpt lat="40.3114690" lon="-3.9919180">
        <ele>628.0</ele>
        <time>2021-02-20T08:52:32Z</time>
      </trkpt>
      <trkpt lat="40.3114090" lon="-3.9916010">
        <ele>627.4</ele>
        <time>2021-02-20T08:52:36Z</time>
      </trkpt>
      <trkpt lat="40.3114060" lon="-3.9915220">
        <ele>627.4</ele>
        <time>2021-02-20T08:52:37Z</time>
      </trkpt>
      <trkpt lat="40.3113980" lon="-3.9914460">
        <ele>627.2</ele>
        <time>2021-02-20T08:52:38Z</time>
      </trkpt>
      <trkpt lat="40.3113860" lon="-3.9911160">
        <ele>627.0</ele>
        <time>2021-02-20T08:52:42Z</time>
      </trkpt>
      <trkpt lat="40.3113800" lon="-3.9909390">
        <ele>626.6</ele>
        <time>2021-02-20T08:52:44Z</time>
      </trkpt>
      <trkpt lat="40.3113600" lon="-3.9907620">
        <ele>626.4</ele>
        <time>2021-02-20T08:52:46Z</time>
      </trkpt>
      <trkpt lat="40.3113040" lon="-3.9905160">
        <ele>625.8</ele>
        <time>2021-02-20T08:52:49Z</time>
      </trkpt>
      <trkpt lat="40.3111870" lon="-3.9900490">
        <ele>625.8</ele>
        <time>2021-02-20T08:52:55Z</time>
      </trkpt>
      <trkpt lat="40.3111400" lon="-3.9896500">
        <ele>625.8</ele>
        <time>2021-02-20T08:53:00Z</time>
      </trkpt>
      <trkpt lat="40.3111150" lon="-3.9894900">
        <ele>626.0</ele>
        <time>2021-02-20T08:53:02Z</time>
      </trkpt>
      <trkpt lat="40.3110260" lon="-3.9891700">
        <ele>625.2</ele>
        <time>2021-02-20T08:53:06Z</time>
      </trkpt>
      <trkpt lat="40.3109790" lon="-3.9890030">
        <ele>624.6</ele>
        <time>2021-02-20T08:53:08Z</time>
      </trkpt>
      <trkpt lat="40.3109050" lon="-3.9887400">
        <ele>623.4</ele>
        <time>2021-02-20T08:53:11Z</time>
      </trkpt>
      <trkpt lat="40.3107880" lon="-3.9884080">
        <ele>623.0</ele>
        <time>2021-02-20T08:53:15Z</time>
      </trkpt>
      <trkpt lat="40.3106130" lon="-3.9880580">
        <ele>623.0</ele>
        <time>2021-02-20T08:53:20Z</time>
      </trkpt>
      <trkpt lat="40.3105340" lon="-3.9876690">
        <ele>622.6</ele>
        <time>2021-02-20T08:53:25Z</time>
      </trkpt>
      <trkpt lat="40.3105050" lon="-3.9875150">
        <ele>622.4</ele>
        <time>2021-02-20T08:53:27Z</time>
      </trkpt>
      <trkpt lat="40.3104970" lon="-3.9874390">
        <ele>622.2</ele>
        <time>2021-02-20T08:53:28Z</time>
      </trkpt>
      <trkpt lat="40.3104750" lon="-3.9873870">
        <ele>622.0</ele>
        <time>2021-02-20T08:53:29Z</time>
      </trkpt>
      <trkpt lat="40.3104340" lon="-3.9873480">
        <ele>621.6</ele>
        <time>2021-02-20T08:53:30Z</time>
      </trkpt>
      <trkpt lat="40.3103320" lon="-3.9871030">
        <ele>621.6</ele>
        <time>2021-02-20T08:53:34Z</time>
      </trkpt>
      <trkpt lat="40.3103280" lon="-3.9867710">
        <ele>621.4</ele>
        <time>2021-02-20T08:53:38Z</time>
      </trkpt>
      <trkpt lat="40.3103640" lon="-3.9865090">
        <ele>620.8</ele>
        <time>2021-02-20T08:53:41Z</time>
      </trkpt>
      <trkpt lat="40.3103860" lon="-3.9864240">
        <ele>620.8</ele>
        <time>2021-02-20T08:53:42Z</time>
      </trkpt>
      <trkpt lat="40.3104000" lon="-3.9863350">
        <ele>620.8</ele>
        <time>2021-02-20T08:53:43Z</time>
      </trkpt>
      <trkpt lat="40.3104120" lon="-3.9862490">
        <ele>620.6</ele>
        <time>2021-02-20T08:53:44Z</time>
      </trkpt>
      <trkpt lat="40.3104150" lon="-3.9861600">
        <ele>620.6</ele>
        <time>2021-02-20T08:53:45Z</time>
      </trkpt>
      <trkpt lat="40.3103910" lon="-3.9859820">
        <ele>620.4</ele>
        <time>2021-02-20T08:53:47Z</time>
      </trkpt>
      <trkpt lat="40.3103460" lon="-3.9858070">
        <ele>620.4</ele>
        <time>2021-02-20T08:53:49Z</time>
      </trkpt>
      <trkpt lat="40.3103010" lon="-3.9856370">
        <ele>620.4</ele>
        <time>2021-02-20T08:53:51Z</time>
      </trkpt>
      <trkpt lat="40.3102740" lon="-3.9855500">
        <ele>620.2</ele>
        <time>2021-02-20T08:53:52Z</time>
      </trkpt>
      <trkpt lat="40.3100800" lon="-3.9849320">
        <ele>619.2</ele>
        <time>2021-02-20T08:53:59Z</time>
      </trkpt>
      <trkpt lat="40.3100520" lon="-3.9848400">
        <ele>619.0</ele>
        <time>2021-02-20T08:54:00Z</time>
      </trkpt>
      <trkpt lat="40.3099420" lon="-3.9844560">
        <ele>618.0</ele>
        <time>2021-02-20T08:54:04Z</time>
      </trkpt>
      <trkpt lat="40.3098600" lon="-3.9841400">
        <ele>616.8</ele>
        <time>2021-02-20T08:54:07Z</time>
      </trkpt>
      <trkpt lat="40.3097180" lon="-3.9836260">
        <ele>615.8</ele>
        <time>2021-02-20T08:54:12Z</time>
      </trkpt>
      <trkpt lat="40.3096310" lon="-3.9833310">
        <ele>615.4</ele>
        <time>2021-02-20T08:54:15Z</time>
      </trkpt>
      <trkpt lat="40.3094650" lon="-3.9828530">
        <ele>614.6</ele>
        <time>2021-02-20T08:54:20Z</time>
      </trkpt>
      <trkpt lat="40.3093800" lon="-3.9826820">
        <ele>614.4</ele>
        <time>2021-02-20T08:54:22Z</time>
      </trkpt>
      <trkpt lat="40.3092650" lon="-3.9824190">
        <ele>614.0</ele>
        <time>2021-02-20T08:54:25Z</time>
      </trkpt>
      <trkpt lat="40.3092150" lon="-3.9822340">
        <ele>614.0</ele>
        <time>2021-02-20T08:54:27Z</time>
      </trkpt>
      <trkpt lat="40.3090970" lon="-3.9817740">
        <ele>613.6</ele>
        <time>2021-02-20T08:54:32Z</time>
      </trkpt>
      <trkpt lat="40.3090170" lon="-3.9815090">
        <ele>613.0</ele>
        <time>2021-02-20T08:54:35Z</time>
      </trkpt>
      <trkpt lat="40.3088960" lon="-3.9811660">
        <ele>612.4</ele>
        <time>2021-02-20T08:54:39Z</time>
      </trkpt>
      <trkpt lat="40.3088160" lon="-3.9809080">
        <ele>612.4</ele>
        <time>2021-02-20T08:54:42Z</time>
      </trkpt>
      <trkpt lat="40.3086830" lon="-3.9803130">
        <ele>611.6</ele>
        <time>2021-02-20T08:54:49Z</time>
      </trkpt>
      <trkpt lat="40.3086330" lon="-3.9800760">
        <ele>611.4</ele>
        <time>2021-02-20T08:54:52Z</time>
      </trkpt>
      <trkpt lat="40.3085820" lon="-3.9798200">
        <ele>611.2</ele>
        <time>2021-02-20T08:54:55Z</time>
      </trkpt>
      <trkpt lat="40.3085810" lon="-3.9797340">
        <ele>611.2</ele>
        <time>2021-02-20T08:54:56Z</time>
      </trkpt>
      <trkpt lat="40.3085820" lon="-3.9794870">
        <ele>611.0</ele>
        <time>2021-02-20T08:54:59Z</time>
      </trkpt>
      <trkpt lat="40.3085680" lon="-3.9794290">
        <ele>611.0</ele>
        <time>2021-02-20T08:55:00Z</time>
      </trkpt>
      <trkpt lat="40.3085290" lon="-3.9793830">
        <ele>610.6</ele>
        <time>2021-02-20T08:55:02Z</time>
      </trkpt>
      <trkpt lat="40.3085150" lon="-3.9793780">
        <ele>610.4</ele>
        <time>2021-02-20T08:55:03Z</time>
      </trkpt>
      <trkpt lat="40.3084960" lon="-3.9793430">
        <ele>610.2</ele>
        <time>2021-02-20T08:55:06Z</time>
      </trkpt>
      <trkpt lat="40.3084700" lon="-3.9793560">
        <ele>610.6</ele>
        <time>2021-02-20T08:55:10Z</time>
      </trkpt>
      <trkpt lat="40.3084480" lon="-3.9794070">
        <ele>610.8</ele>
        <time>2021-02-20T08:55:13Z</time>
      </trkpt>
      <trkpt lat="40.3084330" lon="-3.9794690">
        <ele>611.0</ele>
        <time>2021-02-20T08:55:15Z</time>
      </trkpt>
      <trkpt lat="40.3084040" lon="-3.9795490">
        <ele>611.4</ele>
        <time>2021-02-20T08:55:17Z</time>
      </trkpt>
      <trkpt lat="40.3083760" lon="-3.9795910">
        <ele>611.6</ele>
        <time>2021-02-20T08:55:18Z</time>
      </trkpt>
      <trkpt lat="40.3083470" lon="-3.9796330">
        <ele>611.8</ele>
        <time>2021-02-20T08:55:19Z</time>
      </trkpt>
      <trkpt lat="40.3082960" lon="-3.9797320">
        <ele>612.6</ele>
        <time>2021-02-20T08:55:21Z</time>
      </trkpt>
      <trkpt lat="40.3082680" lon="-3.9797830">
        <ele>612.8</ele>
        <time>2021-02-20T08:55:22Z</time>
      </trkpt>
      <trkpt lat="40.3082040" lon="-3.9798820">
        <ele>613.4</ele>
        <time>2021-02-20T08:55:24Z</time>
      </trkpt>
      <trkpt lat="40.3081780" lon="-3.9799390">
        <ele>613.8</ele>
        <time>2021-02-20T08:55:25Z</time>
      </trkpt>
      <trkpt lat="40.3081610" lon="-3.9799980">
        <ele>613.8</ele>
        <time>2021-02-20T08:55:26Z</time>
      </trkpt>
      <trkpt lat="40.3080780" lon="-3.9801450">
        <ele>614.6</ele>
        <time>2021-02-20T08:55:29Z</time>
      </trkpt>
      <trkpt lat="40.3080510" lon="-3.9801900">
        <ele>615.0</ele>
        <time>2021-02-20T08:55:30Z</time>
      </trkpt>
      <trkpt lat="40.3079940" lon="-3.9802810">
        <ele>615.6</ele>
        <time>2021-02-20T08:55:32Z</time>
      </trkpt>
      <trkpt lat="40.3079340" lon="-3.9803690">
        <ele>616.0</ele>
        <time>2021-02-20T08:55:34Z</time>
      </trkpt>
      <trkpt lat="40.3078770" lon="-3.9804610">
        <ele>616.8</ele>
        <time>2021-02-20T08:55:36Z</time>
      </trkpt>
      <trkpt lat="40.3078460" lon="-3.9805040">
        <ele>617.2</ele>
        <time>2021-02-20T08:55:37Z</time>
      </trkpt>
      <trkpt lat="40.3078150" lon="-3.9805480">
        <ele>617.4</ele>
        <time>2021-02-20T08:55:38Z</time>
      </trkpt>
      <trkpt lat="40.3076900" lon="-3.9807320">
        <ele>618.2</ele>
        <time>2021-02-20T08:55:42Z</time>
      </trkpt>
      <trkpt lat="40.3075950" lon="-3.9808690">
        <ele>619.0</ele>
        <time>2021-02-20T08:55:45Z</time>
      </trkpt>
      <trkpt lat="40.3075230" lon="-3.9809610">
        <ele>619.4</ele>
        <time>2021-02-20T08:55:47Z</time>
      </trkpt>
      <trkpt lat="40.3074840" lon="-3.9810020">
        <ele>619.6</ele>
        <time>2021-02-20T08:55:48Z</time>
      </trkpt>
      <trkpt lat="40.3074080" lon="-3.9810880">
        <ele>620.0</ele>
        <time>2021-02-20T08:55:50Z</time>
      </trkpt>
      <trkpt lat="40.3073410" lon="-3.9811830">
        <ele>620.4</ele>
        <time>2021-02-20T08:55:52Z</time>
      </trkpt>
      <trkpt lat="40.3073090" lon="-3.9812350">
        <ele>620.4</ele>
        <time>2021-02-20T08:55:53Z</time>
      </trkpt>
      <trkpt lat="40.3071730" lon="-3.9814210">
        <ele>621.8</ele>
        <time>2021-02-20T08:55:57Z</time>
      </trkpt>
      <trkpt lat="40.3070710" lon="-3.9815520">
        <ele>622.8</ele>
        <time>2021-02-20T08:56:00Z</time>
      </trkpt>
      <trkpt lat="40.3070360" lon="-3.9816020">
        <ele>623.2</ele>
        <time>2021-02-20T08:56:01Z</time>
      </trkpt>
      <trkpt lat="40.3069610" lon="-3.9817170">
        <ele>623.2</ele>
        <time>2021-02-20T08:56:03Z</time>
      </trkpt>
      <trkpt lat="40.3069090" lon="-3.9818690">
        <ele>622.6</ele>
        <time>2021-02-20T08:56:05Z</time>
      </trkpt>
      <trkpt lat="40.3068660" lon="-3.9820280">
        <ele>622.4</ele>
        <time>2021-02-20T08:56:07Z</time>
      </trkpt>
      <trkpt lat="40.3068350" lon="-3.9821030">
        <ele>622.2</ele>
        <time>2021-02-20T08:56:08Z</time>
      </trkpt>
      <trkpt lat="40.3067590" lon="-3.9822440">
        <ele>622.4</ele>
        <time>2021-02-20T08:56:10Z</time>
      </trkpt>
      <trkpt lat="40.3065050" lon="-3.9826570">
        <ele>624.0</ele>
        <time>2021-02-20T08:56:17Z</time>
      </trkpt>
      <trkpt lat="40.3064700" lon="-3.9826990">
        <ele>624.4</ele>
        <time>2021-02-20T08:56:18Z</time>
      </trkpt>
      <trkpt lat="40.3063580" lon="-3.9828190">
        <ele>625.0</ele>
        <time>2021-02-20T08:56:21Z</time>
      </trkpt>
      <trkpt lat="40.3062850" lon="-3.9829090">
        <ele>625.4</ele>
        <time>2021-02-20T08:56:23Z</time>
      </trkpt>
      <trkpt lat="40.3062530" lon="-3.9829600">
        <ele>625.6</ele>
        <time>2021-02-20T08:56:24Z</time>
      </trkpt>
      <trkpt lat="40.3061400" lon="-3.9830960">
        <ele>626.0</ele>
        <time>2021-02-20T08:56:27Z</time>
      </trkpt>
      <trkpt lat="40.3060690" lon="-3.9831910">
        <ele>626.6</ele>
        <time>2021-02-20T08:56:29Z</time>
      </trkpt>
      <trkpt lat="40.3060320" lon="-3.9832360">
        <ele>626.8</ele>
        <time>2021-02-20T08:56:30Z</time>
      </trkpt>
      <trkpt lat="40.3059200" lon="-3.9833680">
        <ele>627.2</ele>
        <time>2021-02-20T08:56:33Z</time>
      </trkpt>
      <trkpt lat="40.3058120" lon="-3.9835130">
        <ele>627.8</ele>
        <time>2021-02-20T08:56:36Z</time>
      </trkpt>
      <trkpt lat="40.3057450" lon="-3.9836160">
        <ele>628.2</ele>
        <time>2021-02-20T08:56:38Z</time>
      </trkpt>
      <trkpt lat="40.3056030" lon="-3.9838070">
        <ele>628.6</ele>
        <time>2021-02-20T08:56:42Z</time>
      </trkpt>
      <trkpt lat="40.3055300" lon="-3.9839140">
        <ele>628.4</ele>
        <time>2021-02-20T08:56:44Z</time>
      </trkpt>
      <trkpt lat="40.3054880" lon="-3.9839890">
        <ele>628.0</ele>
        <time>2021-02-20T08:56:45Z</time>
      </trkpt>
      <trkpt lat="40.3053910" lon="-3.9841390">
        <ele>626.8</ele>
        <time>2021-02-20T08:56:47Z</time>
      </trkpt>
      <trkpt lat="40.3052920" lon="-3.9843080">
        <ele>625.4</ele>
        <time>2021-02-20T08:56:49Z</time>
      </trkpt>
      <trkpt lat="40.3052460" lon="-3.9844000">
        <ele>624.8</ele>
        <time>2021-02-20T08:56:50Z</time>
      </trkpt>
      <trkpt lat="40.3052020" lon="-3.9844890">
        <ele>624.2</ele>
        <time>2021-02-20T08:56:51Z</time>
      </trkpt>
      <trkpt lat="40.3051350" lon="-3.9846890">
        <ele>623.2</ele>
        <time>2021-02-20T08:56:53Z</time>
      </trkpt>
      <trkpt lat="40.3050710" lon="-3.9848810">
        <ele>622.6</ele>
        <time>2021-02-20T08:56:55Z</time>
      </trkpt>
      <trkpt lat="40.3050340" lon="-3.9849770">
        <ele>622.2</ele>
        <time>2021-02-20T08:56:56Z</time>
      </trkpt>
      <trkpt lat="40.3049400" lon="-3.9851700">
        <ele>621.0</ele>
        <time>2021-02-20T08:56:58Z</time>
      </trkpt>
      <trkpt lat="40.3048230" lon="-3.9853530">
        <ele>619.8</ele>
        <time>2021-02-20T08:57:00Z</time>
      </trkpt>
      <trkpt lat="40.3046870" lon="-3.9855060">
        <ele>618.8</ele>
        <time>2021-02-20T08:57:02Z</time>
      </trkpt>
      <trkpt lat="40.3045390" lon="-3.9856440">
        <ele>618.0</ele>
        <time>2021-02-20T08:57:04Z</time>
      </trkpt>
      <trkpt lat="40.3044670" lon="-3.9857130">
        <ele>617.6</ele>
        <time>2021-02-20T08:57:05Z</time>
      </trkpt>
      <trkpt lat="40.3042920" lon="-3.9858720">
        <ele>616.4</ele>
        <time>2021-02-20T08:57:08Z</time>
      </trkpt>
      <trkpt lat="40.3042420" lon="-3.9859200">
        <ele>616.2</ele>
        <time>2021-02-20T08:57:09Z</time>
      </trkpt>
      <trkpt lat="40.3040670" lon="-3.9861220">
        <ele>617.6</ele>
        <time>2021-02-20T08:57:13Z</time>
      </trkpt>
      <trkpt lat="40.3040380" lon="-3.9861780">
        <ele>617.8</ele>
        <time>2021-02-20T08:57:14Z</time>
      </trkpt>
      <trkpt lat="40.3040140" lon="-3.9862420">
        <ele>618.2</ele>
        <time>2021-02-20T08:57:15Z</time>
      </trkpt>
      <trkpt lat="40.3039960" lon="-3.9863070">
        <ele>618.6</ele>
        <time>2021-02-20T08:57:16Z</time>
      </trkpt>
      <trkpt lat="40.3038760" lon="-3.9864650">
        <ele>619.6</ele>
        <time>2021-02-20T08:57:19Z</time>
      </trkpt>
      <trkpt lat="40.3038270" lon="-3.9865090">
        <ele>619.6</ele>
        <time>2021-02-20T08:57:20Z</time>
      </trkpt>
      <trkpt lat="40.3036780" lon="-3.9865870">
        <ele>620.2</ele>
        <time>2021-02-20T08:57:23Z</time>
      </trkpt>
      <trkpt lat="40.3035450" lon="-3.9866930">
        <ele>621.0</ele>
        <time>2021-02-20T08:57:26Z</time>
      </trkpt>
      <trkpt lat="40.3034300" lon="-3.9868150">
        <ele>621.8</ele>
        <time>2021-02-20T08:57:29Z</time>
      </trkpt>
      <trkpt lat="40.3033930" lon="-3.9868630">
        <ele>622.0</ele>
        <time>2021-02-20T08:57:30Z</time>
      </trkpt>
      <trkpt lat="40.3031800" lon="-3.9871420">
        <ele>623.2</ele>
        <time>2021-02-20T08:57:36Z</time>
      </trkpt>
      <trkpt lat="40.3030330" lon="-3.9872820">
        <ele>624.4</ele>
        <time>2021-02-20T08:57:40Z</time>
      </trkpt>
      <trkpt lat="40.3029390" lon="-3.9873810">
        <ele>623.4</ele>
        <time>2021-02-20T08:57:42Z</time>
      </trkpt>
      <trkpt lat="40.3028900" lon="-3.9874440">
        <ele>622.8</ele>
        <time>2021-02-20T08:57:43Z</time>
      </trkpt>
      <trkpt lat="40.3027790" lon="-3.9875810">
        <ele>621.4</ele>
        <time>2021-02-20T08:57:45Z</time>
      </trkpt>
      <trkpt lat="40.3027160" lon="-3.9876450">
        <ele>620.6</ele>
        <time>2021-02-20T08:57:46Z</time>
      </trkpt>
      <trkpt lat="40.3026470" lon="-3.9877060">
        <ele>620.2</ele>
        <time>2021-02-20T08:57:47Z</time>
      </trkpt>
      <trkpt lat="40.3024260" lon="-3.9878410">
        <ele>619.0</ele>
        <time>2021-02-20T08:57:50Z</time>
      </trkpt>
      <trkpt lat="40.3023530" lon="-3.9878650">
        <ele>619.0</ele>
        <time>2021-02-20T08:57:51Z</time>
      </trkpt>
      <trkpt lat="40.3021370" lon="-3.9878520">
        <ele>619.4</ele>
        <time>2021-02-20T08:57:54Z</time>
      </trkpt>
      <trkpt lat="40.3020700" lon="-3.9878360">
        <ele>619.6</ele>
        <time>2021-02-20T08:57:55Z</time>
      </trkpt>
      <trkpt lat="40.3019530" lon="-3.9878110">
        <ele>620.2</ele>
        <time>2021-02-20T08:57:57Z</time>
      </trkpt>
      <trkpt lat="40.3017820" lon="-3.9877740">
        <ele>621.4</ele>
        <time>2021-02-20T08:58:00Z</time>
      </trkpt>
      <trkpt lat="40.3015530" lon="-3.9877330">
        <ele>622.4</ele>
        <time>2021-02-20T08:58:04Z</time>
      </trkpt>
      <trkpt lat="40.3013320" lon="-3.9877130">
        <ele>623.4</ele>
        <time>2021-02-20T08:58:08Z</time>
      </trkpt>
      <trkpt lat="40.3012760" lon="-3.9877040">
        <ele>623.6</ele>
        <time>2021-02-20T08:58:09Z</time>
      </trkpt>
      <trkpt lat="40.3009810" lon="-3.9876720">
        <ele>624.0</ele>
        <time>2021-02-20T08:58:14Z</time>
      </trkpt>
      <trkpt lat="40.3008800" lon="-3.9876610">
        <ele>625.0</ele>
        <time>2021-02-20T08:58:16Z</time>
      </trkpt>
      <trkpt lat="40.3007650" lon="-3.9876420">
        <ele>626.0</ele>
        <time>2021-02-20T08:58:19Z</time>
      </trkpt>
      <trkpt lat="40.3006420" lon="-3.9876080">
        <ele>626.2</ele>
        <time>2021-02-20T08:58:25Z</time>
      </trkpt>
      <trkpt lat="40.3006290" lon="-3.9875930">
        <ele>625.6</ele>
        <time>2021-02-20T08:58:33Z</time>
      </trkpt>
      <trkpt lat="40.3006350" lon="-3.9876010">
        <ele>625.2</ele>
        <time>2021-02-20T08:58:34Z</time>
      </trkpt>
      <trkpt lat="40.3006330" lon="-3.9875670">
        <ele>625.0</ele>
        <time>2021-02-20T08:58:42Z</time>
      </trkpt>
      <trkpt lat="40.3006500" lon="-3.9874870">
        <ele>625.0</ele>
        <time>2021-02-20T08:58:45Z</time>
      </trkpt>
      <trkpt lat="40.3006570" lon="-3.9874530">
        <ele>625.0</ele>
        <time>2021-02-20T08:58:46Z</time>
      </trkpt>
      <trkpt lat="40.3007020" lon="-3.9872580">
        <ele>624.4</ele>
        <time>2021-02-20T08:58:50Z</time>
      </trkpt>
      <trkpt lat="40.3007100" lon="-3.9871960">
        <ele>624.2</ele>
        <time>2021-02-20T08:58:51Z</time>
      </trkpt>
      <trkpt lat="40.3007230" lon="-3.9871360">
        <ele>623.8</ele>
        <time>2021-02-20T08:58:52Z</time>
      </trkpt>
      <trkpt lat="40.3007780" lon="-3.9869390">
        <ele>622.6</ele>
        <time>2021-02-20T08:58:55Z</time>
      </trkpt>
      <trkpt lat="40.3008530" lon="-3.9867010">
        <ele>621.8</ele>
        <time>2021-02-20T08:58:58Z</time>
      </trkpt>
      <trkpt lat="40.3008790" lon="-3.9866200">
        <ele>621.2</ele>
        <time>2021-02-20T08:58:59Z</time>
      </trkpt>
      <trkpt lat="40.3009050" lon="-3.9865410">
        <ele>620.8</ele>
        <time>2021-02-20T08:59:00Z</time>
      </trkpt>
      <trkpt lat="40.3009560" lon="-3.9863580">
        <ele>619.8</ele>
        <time>2021-02-20T08:59:02Z</time>
      </trkpt>
      <trkpt lat="40.3010440" lon="-3.9860930">
        <ele>618.6</ele>
        <time>2021-02-20T08:59:05Z</time>
      </trkpt>
      <trkpt lat="40.3010850" lon="-3.9860180">
        <ele>618.2</ele>
        <time>2021-02-20T08:59:06Z</time>
      </trkpt>
      <trkpt lat="40.3012760" lon="-3.9857510">
        <ele>617.6</ele>
        <time>2021-02-20T08:59:10Z</time>
      </trkpt>
      <trkpt lat="40.3013270" lon="-3.9856910">
        <ele>617.6</ele>
        <time>2021-02-20T08:59:11Z</time>
      </trkpt>
      <trkpt lat="40.3014690" lon="-3.9855070">
        <ele>617.0</ele>
        <time>2021-02-20T08:59:14Z</time>
      </trkpt>
      <trkpt lat="40.3015710" lon="-3.9853810">
        <ele>616.6</ele>
        <time>2021-02-20T08:59:16Z</time>
      </trkpt>
      <trkpt lat="40.3016220" lon="-3.9853190">
        <ele>616.4</ele>
        <time>2021-02-20T08:59:17Z</time>
      </trkpt>
      <trkpt lat="40.3017770" lon="-3.9851450">
        <ele>616.2</ele>
        <time>2021-02-20T08:59:20Z</time>
      </trkpt>
      <trkpt lat="40.3018190" lon="-3.9850840">
        <ele>616.0</ele>
        <time>2021-02-20T08:59:21Z</time>
      </trkpt>
      <trkpt lat="40.3018920" lon="-3.9850120">
        <ele>615.4</ele>
        <time>2021-02-20T08:59:23Z</time>
      </trkpt>
      <trkpt lat="40.3019120" lon="-3.9849920">
        <ele>615.2</ele>
        <time>2021-02-20T08:59:24Z</time>
      </trkpt>
      <trkpt lat="40.3019520" lon="-3.9848960">
        <ele>615.0</ele>
        <time>2021-02-20T08:59:28Z</time>
      </trkpt>
      <trkpt lat="40.3019740" lon="-3.9848540">
        <ele>615.0</ele>
        <time>2021-02-20T08:59:35Z</time>
      </trkpt>
      <trkpt lat="40.3019780" lon="-3.9848450">
        <ele>615.0</ele>
        <time>2021-02-20T08:59:36Z</time>
      </trkpt>
      <trkpt lat="40.3019930" lon="-3.9848240">
        <ele>615.0</ele>
        <time>2021-02-20T08:59:38Z</time>
      </trkpt>
      <trkpt lat="40.3020470" lon="-3.9847210">
        <ele>615.0</ele>
        <time>2021-02-20T08:59:41Z</time>
      </trkpt>
      <trkpt lat="40.3021400" lon="-3.9845140">
        <ele>615.4</ele>
        <time>2021-02-20T08:59:44Z</time>
      </trkpt>
      <trkpt lat="40.3021880" lon="-3.9843480">
        <ele>615.8</ele>
        <time>2021-02-20T08:59:46Z</time>
      </trkpt>
      <trkpt lat="40.3022010" lon="-3.9841720">
        <ele>616.2</ele>
        <time>2021-02-20T08:59:48Z</time>
      </trkpt>
      <trkpt lat="40.3022540" lon="-3.9840070">
        <ele>616.4</ele>
        <time>2021-02-20T08:59:50Z</time>
      </trkpt>
      <trkpt lat="40.3023230" lon="-3.9838520">
        <ele>616.2</ele>
        <time>2021-02-20T08:59:52Z</time>
      </trkpt>
      <trkpt lat="40.3025750" lon="-3.9832680">
        <ele>616.0</ele>
        <time>2021-02-20T08:59:59Z</time>
      </trkpt>
      <trkpt lat="40.3026350" lon="-3.9830990">
        <ele>615.8</ele>
        <time>2021-02-20T09:00:01Z</time>
      </trkpt>
      <trkpt lat="40.3027300" lon="-3.9827490">
        <ele>615.4</ele>
        <time>2021-02-20T09:00:05Z</time>
      </trkpt>
      <trkpt lat="40.3027510" lon="-3.9826630">
        <ele>615.2</ele>
        <time>2021-02-20T09:00:06Z</time>
      </trkpt>
      <trkpt lat="40.3027600" lon="-3.9825740">
        <ele>615.4</ele>
        <time>2021-02-20T09:00:07Z</time>
      </trkpt>
      <trkpt lat="40.3027840" lon="-3.9823160">
        <ele>615.2</ele>
        <time>2021-02-20T09:00:10Z</time>
      </trkpt>
      <trkpt lat="40.3028460" lon="-3.9817350">
        <ele>614.6</ele>
        <time>2021-02-20T09:00:17Z</time>
      </trkpt>
      <trkpt lat="40.3028510" lon="-3.9816510">
        <ele>614.4</ele>
        <time>2021-02-20T09:00:18Z</time>
      </trkpt>
      <trkpt lat="40.3028800" lon="-3.9814040">
        <ele>614.4</ele>
        <time>2021-02-20T09:00:21Z</time>
      </trkpt>
      <trkpt lat="40.3029300" lon="-3.9810070">
        <ele>613.8</ele>
        <time>2021-02-20T09:00:26Z</time>
      </trkpt>
      <trkpt lat="40.3029810" lon="-3.9806250">
        <ele>613.4</ele>
        <time>2021-02-20T09:00:31Z</time>
      </trkpt>
      <trkpt lat="40.3030140" lon="-3.9804030">
        <ele>613.0</ele>
        <time>2021-02-20T09:00:34Z</time>
      </trkpt>
      <trkpt lat="40.3030760" lon="-3.9800190">
        <ele>612.4</ele>
        <time>2021-02-20T09:00:39Z</time>
      </trkpt>
      <trkpt lat="40.3031110" lon="-3.9798820">
        <ele>612.2</ele>
        <time>2021-02-20T09:00:41Z</time>
      </trkpt>
      <trkpt lat="40.3031270" lon="-3.9798120">
        <ele>612.0</ele>
        <time>2021-02-20T09:00:42Z</time>
      </trkpt>
      <trkpt lat="40.3031770" lon="-3.9795930">
        <ele>611.8</ele>
        <time>2021-02-20T09:00:45Z</time>
      </trkpt>
      <trkpt lat="40.3032650" lon="-3.9792460">
        <ele>611.4</ele>
        <time>2021-02-20T09:00:50Z</time>
      </trkpt>
      <trkpt lat="40.3033070" lon="-3.9790330">
        <ele>611.0</ele>
        <time>2021-02-20T09:00:53Z</time>
      </trkpt>
      <trkpt lat="40.3033630" lon="-3.9787180">
        <ele>609.8</ele>
        <time>2021-02-20T09:00:57Z</time>
      </trkpt>
      <trkpt lat="40.3034050" lon="-3.9785700">
        <ele>609.0</ele>
        <time>2021-02-20T09:00:59Z</time>
      </trkpt>
      <trkpt lat="40.3034380" lon="-3.9785310">
        <ele>608.4</ele>
        <time>2021-02-20T09:01:00Z</time>
      </trkpt>
      <trkpt lat="40.3035420" lon="-3.9785140">
        <ele>607.8</ele>
        <time>2021-02-20T09:01:02Z</time>
      </trkpt>
      <trkpt lat="40.3035990" lon="-3.9785180">
        <ele>607.6</ele>
        <time>2021-02-20T09:01:03Z</time>
      </trkpt>
      <trkpt lat="40.3037120" lon="-3.9785000">
        <ele>607.8</ele>
        <time>2021-02-20T09:01:05Z</time>
      </trkpt>
      <trkpt lat="40.3037860" lon="-3.9784060">
        <ele>608.2</ele>
        <time>2021-02-20T09:01:07Z</time>
      </trkpt>
      <trkpt lat="40.3038410" lon="-3.9782420">
        <ele>609.4</ele>
        <time>2021-02-20T09:01:10Z</time>
      </trkpt>
      <trkpt lat="40.3038530" lon="-3.9781840">
        <ele>609.6</ele>
        <time>2021-02-20T09:01:11Z</time>
      </trkpt>
      <trkpt lat="40.3038660" lon="-3.9781220">
        <ele>610.0</ele>
        <time>2021-02-20T09:01:12Z</time>
      </trkpt>
      <trkpt lat="40.3038870" lon="-3.9779880">
        <ele>610.4</ele>
        <time>2021-02-20T09:01:14Z</time>
      </trkpt>
      <trkpt lat="40.3039010" lon="-3.9778470">
        <ele>610.8</ele>
        <time>2021-02-20T09:01:16Z</time>
      </trkpt>
      <trkpt lat="40.3039080" lon="-3.9777780">
        <ele>610.8</ele>
        <time>2021-02-20T09:01:17Z</time>
      </trkpt>
      <trkpt lat="40.3039370" lon="-3.9775770">
        <ele>611.2</ele>
        <time>2021-02-20T09:01:20Z</time>
      </trkpt>
      <trkpt lat="40.3040030" lon="-3.9771520">
        <ele>610.6</ele>
        <time>2021-02-20T09:01:26Z</time>
      </trkpt>
      <trkpt lat="40.3040620" lon="-3.9766040">
        <ele>610.2</ele>
        <time>2021-02-20T09:01:33Z</time>
      </trkpt>
      <trkpt lat="40.3040630" lon="-3.9764120">
        <ele>609.2</ele>
        <time>2021-02-20T09:01:35Z</time>
      </trkpt>
      <trkpt lat="40.3040590" lon="-3.9761950">
        <ele>607.8</ele>
        <time>2021-02-20T09:01:37Z</time>
      </trkpt>
      <trkpt lat="40.3040680" lon="-3.9760900">
        <ele>607.2</ele>
        <time>2021-02-20T09:01:38Z</time>
      </trkpt>
      <trkpt lat="40.3040780" lon="-3.9759800">
        <ele>606.6</ele>
        <time>2021-02-20T09:01:39Z</time>
      </trkpt>
      <trkpt lat="40.3040850" lon="-3.9757670">
        <ele>605.4</ele>
        <time>2021-02-20T09:01:41Z</time>
      </trkpt>
      <trkpt lat="40.3041070" lon="-3.9756420">
        <ele>605.0</ele>
        <time>2021-02-20T09:01:43Z</time>
      </trkpt>
      <trkpt lat="40.3041880" lon="-3.9755780">
        <ele>605.4</ele>
        <time>2021-02-20T09:01:45Z</time>
      </trkpt>
      <trkpt lat="40.3044200" lon="-3.9753620">
        <ele>606.6</ele>
        <time>2021-02-20T09:01:50Z</time>
      </trkpt>
      <trkpt lat="40.3044570" lon="-3.9753180">
        <ele>607.0</ele>
        <time>2021-02-20T09:01:51Z</time>
      </trkpt>
      <trkpt lat="40.3044930" lon="-3.9752760">
        <ele>607.6</ele>
        <time>2021-02-20T09:01:52Z</time>
      </trkpt>
      <trkpt lat="40.3046020" lon="-3.9751620">
        <ele>609.0</ele>
        <time>2021-02-20T09:01:55Z</time>
      </trkpt>
      <trkpt lat="40.3046700" lon="-3.9750840">
        <ele>610.2</ele>
        <time>2021-02-20T09:01:57Z</time>
      </trkpt>
      <trkpt lat="40.3047960" lon="-3.9749920">
        <ele>611.6</ele>
        <time>2021-02-20T09:02:00Z</time>
      </trkpt>
      <trkpt lat="40.3048460" lon="-3.9749520">
        <ele>611.8</ele>
        <time>2021-02-20T09:02:01Z</time>
      </trkpt>
      <trkpt lat="40.3048990" lon="-3.9749080">
        <ele>611.8</ele>
        <time>2021-02-20T09:02:02Z</time>
      </trkpt>
      <trkpt lat="40.3050120" lon="-3.9748250">
        <ele>611.0</ele>
        <time>2021-02-20T09:02:04Z</time>
      </trkpt>
      <trkpt lat="40.3051920" lon="-3.9747140">
        <ele>610.4</ele>
        <time>2021-02-20T09:02:07Z</time>
      </trkpt>
      <trkpt lat="40.3053210" lon="-3.9746550">
        <ele>610.0</ele>
        <time>2021-02-20T09:02:09Z</time>
      </trkpt>
      <trkpt lat="40.3055390" lon="-3.9745910">
        <ele>608.8</ele>
        <time>2021-02-20T09:02:12Z</time>
      </trkpt>
      <trkpt lat="40.3057040" lon="-3.9745710">
        <ele>608.0</ele>
        <time>2021-02-20T09:02:14Z</time>
      </trkpt>
      <trkpt lat="40.3057850" lon="-3.9745550">
        <ele>607.8</ele>
        <time>2021-02-20T09:02:15Z</time>
      </trkpt>
      <trkpt lat="40.3061920" lon="-3.9744880">
        <ele>606.6</ele>
        <time>2021-02-20T09:02:20Z</time>
      </trkpt>
      <trkpt lat="40.3064140" lon="-3.9744220">
        <ele>606.4</ele>
        <time>2021-02-20T09:02:23Z</time>
      </trkpt>
      <trkpt lat="40.3066100" lon="-3.9743230">
        <ele>605.2</ele>
        <time>2021-02-20T09:02:26Z</time>
      </trkpt>
      <trkpt lat="40.3066670" lon="-3.9742780">
        <ele>605.2</ele>
        <time>2021-02-20T09:02:27Z</time>
      </trkpt>
      <trkpt lat="40.3068380" lon="-3.9741180">
        <ele>604.2</ele>
        <time>2021-02-20T09:02:31Z</time>
      </trkpt>
      <trkpt lat="40.3069040" lon="-3.9739750">
        <ele>603.0</ele>
        <time>2021-02-20T09:02:35Z</time>
      </trkpt>
      <trkpt lat="40.3068500" lon="-3.9737970">
        <ele>603.8</ele>
        <time>2021-02-20T09:02:39Z</time>
      </trkpt>
      <trkpt lat="40.3068320" lon="-3.9737400">
        <ele>604.0</ele>
        <time>2021-02-20T09:02:40Z</time>
      </trkpt>
      <trkpt lat="40.3067240" lon="-3.9733580">
        <ele>604.0</ele>
        <time>2021-02-20T09:02:45Z</time>
      </trkpt>
      <trkpt lat="40.3066550" lon="-3.9729290">
        <ele>603.4</ele>
        <time>2021-02-20T09:02:50Z</time>
      </trkpt>
      <trkpt lat="40.3066380" lon="-3.9728390">
        <ele>603.2</ele>
        <time>2021-02-20T09:02:51Z</time>
      </trkpt>
      <trkpt lat="40.3066120" lon="-3.9727510">
        <ele>603.2</ele>
        <time>2021-02-20T09:02:52Z</time>
      </trkpt>
      <trkpt lat="40.3065350" lon="-3.9725940">
        <ele>602.8</ele>
        <time>2021-02-20T09:02:54Z</time>
      </trkpt>
      <trkpt lat="40.3064940" lon="-3.9725160">
        <ele>602.6</ele>
        <time>2021-02-20T09:02:55Z</time>
      </trkpt>
      <trkpt lat="40.3063990" lon="-3.9722550">
        <ele>601.8</ele>
        <time>2021-02-20T09:02:58Z</time>
      </trkpt>
      <trkpt lat="40.3063550" lon="-3.9720680">
        <ele>601.2</ele>
        <time>2021-02-20T09:03:00Z</time>
      </trkpt>
      <trkpt lat="40.3063190" lon="-3.9718800">
        <ele>601.2</ele>
        <time>2021-02-20T09:03:02Z</time>
      </trkpt>
      <trkpt lat="40.3063020" lon="-3.9717850">
        <ele>601.0</ele>
        <time>2021-02-20T09:03:03Z</time>
      </trkpt>
      <trkpt lat="40.3062850" lon="-3.9716900">
        <ele>600.8</ele>
        <time>2021-02-20T09:03:04Z</time>
      </trkpt>
      <trkpt lat="40.3062660" lon="-3.9715950">
        <ele>600.8</ele>
        <time>2021-02-20T09:03:05Z</time>
      </trkpt>
      <trkpt lat="40.3062450" lon="-3.9715000">
        <ele>600.6</ele>
        <time>2021-02-20T09:03:06Z</time>
      </trkpt>
      <trkpt lat="40.3062250" lon="-3.9714070">
        <ele>600.6</ele>
        <time>2021-02-20T09:03:07Z</time>
      </trkpt>
      <trkpt lat="40.3061800" lon="-3.9712260">
        <ele>600.4</ele>
        <time>2021-02-20T09:03:09Z</time>
      </trkpt>
      <trkpt lat="40.3061520" lon="-3.9711440">
        <ele>600.4</ele>
        <time>2021-02-20T09:03:10Z</time>
      </trkpt>
      <trkpt lat="40.3060820" lon="-3.9709870">
        <ele>600.4</ele>
        <time>2021-02-20T09:03:12Z</time>
      </trkpt>
      <trkpt lat="40.3060440" lon="-3.9709120">
        <ele>600.2</ele>
        <time>2021-02-20T09:03:13Z</time>
      </trkpt>
      <trkpt lat="40.3059740" lon="-3.9707620">
        <ele>600.2</ele>
        <time>2021-02-20T09:03:15Z</time>
      </trkpt>
      <trkpt lat="40.3059180" lon="-3.9706020">
        <ele>600.4</ele>
        <time>2021-02-20T09:03:17Z</time>
      </trkpt>
      <trkpt lat="40.3058930" lon="-3.9705230">
        <ele>600.4</ele>
        <time>2021-02-20T09:03:18Z</time>
      </trkpt>
      <trkpt lat="40.3058260" lon="-3.9702690">
        <ele>600.2</ele>
        <time>2021-02-20T09:03:21Z</time>
      </trkpt>
      <trkpt lat="40.3057620" lon="-3.9700040">
        <ele>600.2</ele>
        <time>2021-02-20T09:03:24Z</time>
      </trkpt>
      <trkpt lat="40.3056510" lon="-3.9694540">
        <ele>599.6</ele>
        <time>2021-02-20T09:03:30Z</time>
      </trkpt>
      <trkpt lat="40.3056160" lon="-3.9692660">
        <ele>599.2</ele>
        <time>2021-02-20T09:03:32Z</time>
      </trkpt>
      <trkpt lat="40.3055550" lon="-3.9689920">
        <ele>598.6</ele>
        <time>2021-02-20T09:03:35Z</time>
      </trkpt>
      <trkpt lat="40.3054730" lon="-3.9686420">
        <ele>598.0</ele>
        <time>2021-02-20T09:03:39Z</time>
      </trkpt>
      <trkpt lat="40.3053930" lon="-3.9683900">
        <ele>597.6</ele>
        <time>2021-02-20T09:03:42Z</time>
      </trkpt>
      <trkpt lat="40.3053730" lon="-3.9683010">
        <ele>597.2</ele>
        <time>2021-02-20T09:03:43Z</time>
      </trkpt>
      <trkpt lat="40.3053570" lon="-3.9682080">
        <ele>597.2</ele>
        <time>2021-02-20T09:03:44Z</time>
      </trkpt>
      <trkpt lat="40.3053140" lon="-3.9679380">
        <ele>596.8</ele>
        <time>2021-02-20T09:03:47Z</time>
      </trkpt>
      <trkpt lat="40.3052810" lon="-3.9678620">
        <ele>596.8</ele>
        <time>2021-02-20T09:03:48Z</time>
      </trkpt>
      <trkpt lat="40.3051020" lon="-3.9675700">
        <ele>596.4</ele>
        <time>2021-02-20T09:03:52Z</time>
      </trkpt>
      <trkpt lat="40.3050620" lon="-3.9674980">
        <ele>596.2</ele>
        <time>2021-02-20T09:03:53Z</time>
      </trkpt>
      <trkpt lat="40.3050260" lon="-3.9674130">
        <ele>595.8</ele>
        <time>2021-02-20T09:03:54Z</time>
      </trkpt>
      <trkpt lat="40.3049780" lon="-3.9672270">
        <ele>595.2</ele>
        <time>2021-02-20T09:03:56Z</time>
      </trkpt>
      <trkpt lat="40.3049460" lon="-3.9670430">
        <ele>594.6</ele>
        <time>2021-02-20T09:03:58Z</time>
      </trkpt>
      <trkpt lat="40.3049050" lon="-3.9668580">
        <ele>594.4</ele>
        <time>2021-02-20T09:04:00Z</time>
      </trkpt>
      <trkpt lat="40.3048730" lon="-3.9667710">
        <ele>594.2</ele>
        <time>2021-02-20T09:04:01Z</time>
      </trkpt>
      <trkpt lat="40.3048360" lon="-3.9666930">
        <ele>594.0</ele>
        <time>2021-02-20T09:04:02Z</time>
      </trkpt>
      <trkpt lat="40.3047490" lon="-3.9665030">
        <ele>593.4</ele>
        <time>2021-02-20T09:04:05Z</time>
      </trkpt>
      <trkpt lat="40.3047520" lon="-3.9664430">
        <ele>592.8</ele>
        <time>2021-02-20T09:04:06Z</time>
      </trkpt>
      <trkpt lat="40.3047370" lon="-3.9663430">
        <ele>592.8</ele>
        <time>2021-02-20T09:04:08Z</time>
      </trkpt>
      <trkpt lat="40.3046830" lon="-3.9662370">
        <ele>592.8</ele>
        <time>2021-02-20T09:04:10Z</time>
      </trkpt>
      <trkpt lat="40.3045920" lon="-3.9660470">
        <ele>592.8</ele>
        <time>2021-02-20T09:04:13Z</time>
      </trkpt>
      <trkpt lat="40.3045350" lon="-3.9659140">
        <ele>592.8</ele>
        <time>2021-02-20T09:04:15Z</time>
      </trkpt>
      <trkpt lat="40.3045050" lon="-3.9656900">
        <ele>592.6</ele>
        <time>2021-02-20T09:04:18Z</time>
      </trkpt>
      <trkpt lat="40.3045340" lon="-3.9654560">
        <ele>592.2</ele>
        <time>2021-02-20T09:04:21Z</time>
      </trkpt>
      <trkpt lat="40.3045450" lon="-3.9653000">
        <ele>591.6</ele>
        <time>2021-02-20T09:04:23Z</time>
      </trkpt>
      <trkpt lat="40.3045550" lon="-3.9652270">
        <ele>591.6</ele>
        <time>2021-02-20T09:04:24Z</time>
      </trkpt>
      <trkpt lat="40.3045620" lon="-3.9650900">
        <ele>592.2</ele>
        <time>2021-02-20T09:04:26Z</time>
      </trkpt>
      <trkpt lat="40.3045120" lon="-3.9649640">
        <ele>592.8</ele>
        <time>2021-02-20T09:04:28Z</time>
      </trkpt>
      <trkpt lat="40.3044760" lon="-3.9649020">
        <ele>592.8</ele>
        <time>2021-02-20T09:04:29Z</time>
      </trkpt>
      <trkpt lat="40.3043950" lon="-3.9647880">
        <ele>592.4</ele>
        <time>2021-02-20T09:04:31Z</time>
      </trkpt>
      <trkpt lat="40.3042900" lon="-3.9646960">
        <ele>592.4</ele>
        <time>2021-02-20T09:04:33Z</time>
      </trkpt>
      <trkpt lat="40.3040940" lon="-3.9644700">
        <ele>592.2</ele>
        <time>2021-02-20T09:04:37Z</time>
      </trkpt>
      <trkpt lat="40.3040560" lon="-3.9643960">
        <ele>592.4</ele>
        <time>2021-02-20T09:04:38Z</time>
      </trkpt>
      <trkpt lat="40.3039750" lon="-3.9641590">
        <ele>592.4</ele>
        <time>2021-02-20T09:04:41Z</time>
      </trkpt>
      <trkpt lat="40.3039370" lon="-3.9639940">
        <ele>592.2</ele>
        <time>2021-02-20T09:04:43Z</time>
      </trkpt>
      <trkpt lat="40.3038840" lon="-3.9638290">
        <ele>591.6</ele>
        <time>2021-02-20T09:04:45Z</time>
      </trkpt>
      <trkpt lat="40.3037870" lon="-3.9635680">
        <ele>590.2</ele>
        <time>2021-02-20T09:04:48Z</time>
      </trkpt>
      <trkpt lat="40.3037040" lon="-3.9633450">
        <ele>588.8</ele>
        <time>2021-02-20T09:04:51Z</time>
      </trkpt>
      <trkpt lat="40.3036820" lon="-3.9632800">
        <ele>588.6</ele>
        <time>2021-02-20T09:04:52Z</time>
      </trkpt>
      <trkpt lat="40.3035830" lon="-3.9629350">
        <ele>588.6</ele>
        <time>2021-02-20T09:04:57Z</time>
      </trkpt>
      <trkpt lat="40.3035740" lon="-3.9628660">
        <ele>588.2</ele>
        <time>2021-02-20T09:04:58Z</time>
      </trkpt>
      <trkpt lat="40.3035700" lon="-3.9627980">
        <ele>587.8</ele>
        <time>2021-02-20T09:04:59Z</time>
      </trkpt>
      <trkpt lat="40.3036040" lon="-3.9626690">
        <ele>587.4</ele>
        <time>2021-02-20T09:05:01Z</time>
      </trkpt>
      <trkpt lat="40.3036310" lon="-3.9626070">
        <ele>587.2</ele>
        <time>2021-02-20T09:05:02Z</time>
      </trkpt>
      <trkpt lat="40.3037340" lon="-3.9622980">
        <ele>587.8</ele>
        <time>2021-02-20T09:05:06Z</time>
      </trkpt>
      <trkpt lat="40.3037920" lon="-3.9619590">
        <ele>588.2</ele>
        <time>2021-02-20T09:05:10Z</time>
      </trkpt>
      <trkpt lat="40.3038310" lon="-3.9617930">
        <ele>588.4</ele>
        <time>2021-02-20T09:05:12Z</time>
      </trkpt>
      <trkpt lat="40.3038790" lon="-3.9616360">
        <ele>588.6</ele>
        <time>2021-02-20T09:05:14Z</time>
      </trkpt>
      <trkpt lat="40.3039570" lon="-3.9614010">
        <ele>589.0</ele>
        <time>2021-02-20T09:05:17Z</time>
      </trkpt>
      <trkpt lat="40.3040080" lon="-3.9612520">
        <ele>589.2</ele>
        <time>2021-02-20T09:05:19Z</time>
      </trkpt>
      <trkpt lat="40.3041690" lon="-3.9607700">
        <ele>590.0</ele>
        <time>2021-02-20T09:05:26Z</time>
      </trkpt>
      <trkpt lat="40.3041910" lon="-3.9607030">
        <ele>590.2</ele>
        <time>2021-02-20T09:05:27Z</time>
      </trkpt>
      <trkpt lat="40.3043250" lon="-3.9603100">
        <ele>591.2</ele>
        <time>2021-02-20T09:05:33Z</time>
      </trkpt>
      <trkpt lat="40.3043680" lon="-3.9601750">
        <ele>591.6</ele>
        <time>2021-02-20T09:05:35Z</time>
      </trkpt>
      <trkpt lat="40.3044190" lon="-3.9600550">
        <ele>592.0</ele>
        <time>2021-02-20T09:05:37Z</time>
      </trkpt>
      <trkpt lat="40.3044430" lon="-3.9600000">
        <ele>592.2</ele>
        <time>2021-02-20T09:05:38Z</time>
      </trkpt>
      <trkpt lat="40.3044730" lon="-3.9598890">
        <ele>593.4</ele>
        <time>2021-02-20T09:05:40Z</time>
      </trkpt>
      <trkpt lat="40.3044990" lon="-3.9597800">
        <ele>594.8</ele>
        <time>2021-02-20T09:05:42Z</time>
      </trkpt>
      <trkpt lat="40.3045110" lon="-3.9597200">
        <ele>595.0</ele>
        <time>2021-02-20T09:05:43Z</time>
      </trkpt>
      <trkpt lat="40.3045250" lon="-3.9595380">
        <ele>595.6</ele>
        <time>2021-02-20T09:05:46Z</time>
      </trkpt>
      <trkpt lat="40.3045210" lon="-3.9594180">
        <ele>595.8</ele>
        <time>2021-02-20T09:05:48Z</time>
      </trkpt>
      <trkpt lat="40.3045180" lon="-3.9593020">
        <ele>596.0</ele>
        <time>2021-02-20T09:05:50Z</time>
      </trkpt>
      <trkpt lat="40.3045190" lon="-3.9591860">
        <ele>596.4</ele>
        <time>2021-02-20T09:05:52Z</time>
      </trkpt>
      <trkpt lat="40.3045230" lon="-3.9591270">
        <ele>596.6</ele>
        <time>2021-02-20T09:05:53Z</time>
      </trkpt>
      <trkpt lat="40.3045350" lon="-3.9590070">
        <ele>596.8</ele>
        <time>2021-02-20T09:05:55Z</time>
      </trkpt>
      <trkpt lat="40.3045870" lon="-3.9587230">
        <ele>597.8</ele>
        <time>2021-02-20T09:06:00Z</time>
      </trkpt>
      <trkpt lat="40.3046010" lon="-3.9586680">
        <ele>598.0</ele>
        <time>2021-02-20T09:06:01Z</time>
      </trkpt>
      <trkpt lat="40.3046680" lon="-3.9584630">
        <ele>599.2</ele>
        <time>2021-02-20T09:06:05Z</time>
      </trkpt>
      <trkpt lat="40.3047370" lon="-3.9583200">
        <ele>600.2</ele>
        <time>2021-02-20T09:06:08Z</time>
      </trkpt>
      <trkpt lat="40.3047960" lon="-3.9582430">
        <ele>601.0</ele>
        <time>2021-02-20T09:06:10Z</time>
      </trkpt>
      <trkpt lat="40.3048300" lon="-3.9582090">
        <ele>601.4</ele>
        <time>2021-02-20T09:06:11Z</time>
      </trkpt>
      <trkpt lat="40.3048600" lon="-3.9581690">
        <ele>601.8</ele>
        <time>2021-02-20T09:06:12Z</time>
      </trkpt>
      <trkpt lat="40.3049090" lon="-3.9580820">
        <ele>602.6</ele>
        <time>2021-02-20T09:06:14Z</time>
      </trkpt>
      <trkpt lat="40.3049580" lon="-3.9579970">
        <ele>603.2</ele>
        <time>2021-02-20T09:06:16Z</time>
      </trkpt>
      <trkpt lat="40.3050090" lon="-3.9579160">
        <ele>603.8</ele>
        <time>2021-02-20T09:06:18Z</time>
      </trkpt>
      <trkpt lat="40.3050670" lon="-3.9577780">
        <ele>604.4</ele>
        <time>2021-02-20T09:06:21Z</time>
      </trkpt>
      <trkpt lat="40.3050730" lon="-3.9577180">
        <ele>604.4</ele>
        <time>2021-02-20T09:06:22Z</time>
      </trkpt>
      <trkpt lat="40.3050420" lon="-3.9575410">
        <ele>603.8</ele>
        <time>2021-02-20T09:06:25Z</time>
      </trkpt>
      <trkpt lat="40.3050300" lon="-3.9574840">
        <ele>604.0</ele>
        <time>2021-02-20T09:06:26Z</time>
      </trkpt>
      <trkpt lat="40.3050160" lon="-3.9574290">
        <ele>604.2</ele>
        <time>2021-02-20T09:06:27Z</time>
      </trkpt>
      <trkpt lat="40.3049720" lon="-3.9572630">
        <ele>605.0</ele>
        <time>2021-02-20T09:06:30Z</time>
      </trkpt>
      <trkpt lat="40.3049500" lon="-3.9571550">
        <ele>605.4</ele>
        <time>2021-02-20T09:06:32Z</time>
      </trkpt>
      <trkpt lat="40.3049160" lon="-3.9570010">
        <ele>606.0</ele>
        <time>2021-02-20T09:06:35Z</time>
      </trkpt>
      <trkpt lat="40.3048780" lon="-3.9567630">
        <ele>606.2</ele>
        <time>2021-02-20T09:06:39Z</time>
      </trkpt>
      <trkpt lat="40.3048180" lon="-3.9562710">
        <ele>605.2</ele>
        <time>2021-02-20T09:06:46Z</time>
      </trkpt>
      <trkpt lat="40.3048050" lon="-3.9561950">
        <ele>605.0</ele>
        <time>2021-02-20T09:06:47Z</time>
      </trkpt>
      <trkpt lat="40.3047580" lon="-3.9559580">
        <ele>604.4</ele>
        <time>2021-02-20T09:06:50Z</time>
      </trkpt>
      <trkpt lat="40.3047350" lon="-3.9557980">
        <ele>604.2</ele>
        <time>2021-02-20T09:06:52Z</time>
      </trkpt>
      <trkpt lat="40.3046680" lon="-3.9554830">
        <ele>604.0</ele>
        <time>2021-02-20T09:06:56Z</time>
      </trkpt>
      <trkpt lat="40.3046310" lon="-3.9553210">
        <ele>603.8</ele>
        <time>2021-02-20T09:06:58Z</time>
      </trkpt>
      <trkpt lat="40.3045740" lon="-3.9550640">
        <ele>603.4</ele>
        <time>2021-02-20T09:07:01Z</time>
      </trkpt>
      <trkpt lat="40.3045570" lon="-3.9548830">
        <ele>603.2</ele>
        <time>2021-02-20T09:07:03Z</time>
      </trkpt>
      <trkpt lat="40.3045510" lon="-3.9547900">
        <ele>603.0</ele>
        <time>2021-02-20T09:07:04Z</time>
      </trkpt>
      <trkpt lat="40.3045450" lon="-3.9546030">
        <ele>602.6</ele>
        <time>2021-02-20T09:07:06Z</time>
      </trkpt>
      <trkpt lat="40.3045290" lon="-3.9541300">
        <ele>601.8</ele>
        <time>2021-02-20T09:07:11Z</time>
      </trkpt>
      <trkpt lat="40.3045290" lon="-3.9540400">
        <ele>601.6</ele>
        <time>2021-02-20T09:07:12Z</time>
      </trkpt>
      <trkpt lat="40.3045520" lon="-3.9534700">
        <ele>600.8</ele>
        <time>2021-02-20T09:07:18Z</time>
      </trkpt>
      <trkpt lat="40.3045600" lon="-3.9533720">
        <ele>600.8</ele>
        <time>2021-02-20T09:07:19Z</time>
      </trkpt>
      <trkpt lat="40.3045730" lon="-3.9531840">
        <ele>601.0</ele>
        <time>2021-02-20T09:07:21Z</time>
      </trkpt>
      <trkpt lat="40.3045590" lon="-3.9530060">
        <ele>601.4</ele>
        <time>2021-02-20T09:07:23Z</time>
      </trkpt>
      <trkpt lat="40.3044370" lon="-3.9524890">
        <ele>600.6</ele>
        <time>2021-02-20T09:07:29Z</time>
      </trkpt>
      <trkpt lat="40.3043410" lon="-3.9522330">
        <ele>599.6</ele>
        <time>2021-02-20T09:07:32Z</time>
      </trkpt>
      <trkpt lat="40.3043260" lon="-3.9521410">
        <ele>599.6</ele>
        <time>2021-02-20T09:07:33Z</time>
      </trkpt>
      <trkpt lat="40.3043340" lon="-3.9519620">
        <ele>598.6</ele>
        <time>2021-02-20T09:07:35Z</time>
      </trkpt>
      <trkpt lat="40.3043470" lon="-3.9518800">
        <ele>597.8</ele>
        <time>2021-02-20T09:07:36Z</time>
      </trkpt>
      <trkpt lat="40.3043610" lon="-3.9518070">
        <ele>597.0</ele>
        <time>2021-02-20T09:07:37Z</time>
      </trkpt>
      <trkpt lat="40.3043760" lon="-3.9517540">
        <ele>596.2</ele>
        <time>2021-02-20T09:07:38Z</time>
      </trkpt>
      <trkpt lat="40.3043880" lon="-3.9517170">
        <ele>595.4</ele>
        <time>2021-02-20T09:07:39Z</time>
      </trkpt>
      <trkpt lat="40.3044090" lon="-3.9516290">
        <ele>594.2</ele>
        <time>2021-02-20T09:07:41Z</time>
      </trkpt>
      <trkpt lat="40.3044350" lon="-3.9515040">
        <ele>593.0</ele>
        <time>2021-02-20T09:07:43Z</time>
      </trkpt>
      <trkpt lat="40.3044590" lon="-3.9514370">
        <ele>592.8</ele>
        <time>2021-02-20T09:07:44Z</time>
      </trkpt>
      <trkpt lat="40.3045570" lon="-3.9513400">
        <ele>591.6</ele>
        <time>2021-02-20T09:07:46Z</time>
      </trkpt>
      <trkpt lat="40.3047000" lon="-3.9512640">
        <ele>590.2</ele>
        <time>2021-02-20T09:07:48Z</time>
      </trkpt>
      <trkpt lat="40.3047610" lon="-3.9512080">
        <ele>589.6</ele>
        <time>2021-02-20T09:07:49Z</time>
      </trkpt>
      <trkpt lat="40.3048110" lon="-3.9511400">
        <ele>589.2</ele>
        <time>2021-02-20T09:07:50Z</time>
      </trkpt>
      <trkpt lat="40.3048590" lon="-3.9510670">
        <ele>588.6</ele>
        <time>2021-02-20T09:07:51Z</time>
      </trkpt>
      <trkpt lat="40.3049080" lon="-3.9509880">
        <ele>588.2</ele>
        <time>2021-02-20T09:07:52Z</time>
      </trkpt>
      <trkpt lat="40.3049620" lon="-3.9509080">
        <ele>587.4</ele>
        <time>2021-02-20T09:07:53Z</time>
      </trkpt>
      <trkpt lat="40.3050240" lon="-3.9508370">
        <ele>586.6</ele>
        <time>2021-02-20T09:07:54Z</time>
      </trkpt>
      <trkpt lat="40.3051640" lon="-3.9507280">
        <ele>585.4</ele>
        <time>2021-02-20T09:07:56Z</time>
      </trkpt>
      <trkpt lat="40.3052300" lon="-3.9506780">
        <ele>585.4</ele>
        <time>2021-02-20T09:07:57Z</time>
      </trkpt>
      <trkpt lat="40.3053250" lon="-3.9506170">
        <ele>585.4</ele>
        <time>2021-02-20T09:07:59Z</time>
      </trkpt>
      <trkpt lat="40.3053930" lon="-3.9505600">
        <ele>584.8</ele>
        <time>2021-02-20T09:08:01Z</time>
      </trkpt>
      <trkpt lat="40.3054050" lon="-3.9505130">
        <ele>584.0</ele>
        <time>2021-02-20T09:08:02Z</time>
      </trkpt>
      <trkpt lat="40.3053960" lon="-3.9504580">
        <ele>583.0</ele>
        <time>2021-02-20T09:08:03Z</time>
      </trkpt>
      <trkpt lat="40.3053680" lon="-3.9504050">
        <ele>582.2</ele>
        <time>2021-02-20T09:08:04Z</time>
      </trkpt>
      <trkpt lat="40.3052780" lon="-3.9502920">
        <ele>580.8</ele>
        <time>2021-02-20T09:08:06Z</time>
      </trkpt>
      <trkpt lat="40.3052130" lon="-3.9500480">
        <ele>580.4</ele>
        <time>2021-02-20T09:08:09Z</time>
      </trkpt>
      <trkpt lat="40.3052150" lon="-3.9499620">
        <ele>580.2</ele>
        <time>2021-02-20T09:08:10Z</time>
      </trkpt>
      <trkpt lat="40.3052110" lon="-3.9498760">
        <ele>580.2</ele>
        <time>2021-02-20T09:08:11Z</time>
      </trkpt>
      <trkpt lat="40.3051850" lon="-3.9497740">
        <ele>579.6</ele>
        <time>2021-02-20T09:08:13Z</time>
      </trkpt>
      <trkpt lat="40.3051650" lon="-3.9497420">
        <ele>579.0</ele>
        <time>2021-02-20T09:08:18Z</time>
      </trkpt>
      <trkpt lat="40.3051570" lon="-3.9497290">
        <ele>579.0</ele>
        <time>2021-02-20T09:08:21Z</time>
      </trkpt>
      <trkpt lat="40.3051480" lon="-3.9497140">
        <ele>579.0</ele>
        <time>2021-02-20T09:08:22Z</time>
      </trkpt>
      <trkpt lat="40.3050530" lon="-3.9496020">
        <ele>579.0</ele>
        <time>2021-02-20T09:08:26Z</time>
      </trkpt>
      <trkpt lat="40.3049370" lon="-3.9495020">
        <ele>579.0</ele>
        <time>2021-02-20T09:08:29Z</time>
      </trkpt>
      <trkpt lat="40.3048320" lon="-3.9494600">
        <ele>579.0</ele>
        <time>2021-02-20T09:08:31Z</time>
      </trkpt>
      <trkpt lat="40.3046820" lon="-3.9494580">
        <ele>580.0</ele>
        <time>2021-02-20T09:08:34Z</time>
      </trkpt>
      <trkpt lat="40.3046450" lon="-3.9494580">
        <ele>580.8</ele>
        <time>2021-02-20T09:08:35Z</time>
      </trkpt>
      <trkpt lat="40.3045810" lon="-3.9494520">
        <ele>582.2</ele>
        <time>2021-02-20T09:08:37Z</time>
      </trkpt>
      <trkpt lat="40.3044670" lon="-3.9494220">
        <ele>583.4</ele>
        <time>2021-02-20T09:08:40Z</time>
      </trkpt>
      <trkpt lat="40.3044220" lon="-3.9494080">
        <ele>583.8</ele>
        <time>2021-02-20T09:08:41Z</time>
      </trkpt>
      <trkpt lat="40.3042730" lon="-3.9493790">
        <ele>583.4</ele>
        <time>2021-02-20T09:08:44Z</time>
      </trkpt>
      <trkpt lat="40.3041650" lon="-3.9493860">
        <ele>583.0</ele>
        <time>2021-02-20T09:08:46Z</time>
      </trkpt>
      <trkpt lat="40.3041080" lon="-3.9493810">
        <ele>582.8</ele>
        <time>2021-02-20T09:08:47Z</time>
      </trkpt>
      <trkpt lat="40.3040550" lon="-3.9493600">
        <ele>582.6</ele>
        <time>2021-02-20T09:08:48Z</time>
      </trkpt>
      <trkpt lat="40.3039990" lon="-3.9493220">
        <ele>582.2</ele>
        <time>2021-02-20T09:08:49Z</time>
      </trkpt>
      <trkpt lat="40.3038110" lon="-3.9492400">
        <ele>580.8</ele>
        <time>2021-02-20T09:08:52Z</time>
      </trkpt>
      <trkpt lat="40.3037600" lon="-3.9492290">
        <ele>580.8</ele>
        <time>2021-02-20T09:08:53Z</time>
      </trkpt>
      <trkpt lat="40.3036710" lon="-3.9492270">
        <ele>582.2</ele>
        <time>2021-02-20T09:08:55Z</time>
      </trkpt>
      <trkpt lat="40.3035860" lon="-3.9492220">
        <ele>583.4</ele>
        <time>2021-02-20T09:08:57Z</time>
      </trkpt>
      <trkpt lat="40.3035000" lon="-3.9492180">
        <ele>584.0</ele>
        <time>2021-02-20T09:08:59Z</time>
      </trkpt>
      <trkpt lat="40.3034080" lon="-3.9492090">
        <ele>584.6</ele>
        <time>2021-02-20T09:09:01Z</time>
      </trkpt>
      <trkpt lat="40.3033170" lon="-3.9491980">
        <ele>585.0</ele>
        <time>2021-02-20T09:09:03Z</time>
      </trkpt>
      <trkpt lat="40.3032710" lon="-3.9491980">
        <ele>585.2</ele>
        <time>2021-02-20T09:09:04Z</time>
      </trkpt>
      <trkpt lat="40.3032250" lon="-3.9491890">
        <ele>585.2</ele>
        <time>2021-02-20T09:09:05Z</time>
      </trkpt>
      <trkpt lat="40.3031340" lon="-3.9491520">
        <ele>585.6</ele>
        <time>2021-02-20T09:09:07Z</time>
      </trkpt>
      <trkpt lat="40.3030300" lon="-3.9491160">
        <ele>585.2</ele>
        <time>2021-02-20T09:09:09Z</time>
      </trkpt>
      <trkpt lat="40.3029710" lon="-3.9491030">
        <ele>585.0</ele>
        <time>2021-02-20T09:09:10Z</time>
      </trkpt>
      <trkpt lat="40.3029040" lon="-3.9490820">
        <ele>584.4</ele>
        <time>2021-02-20T09:09:11Z</time>
      </trkpt>
      <trkpt lat="40.3027660" lon="-3.9490230">
        <ele>583.4</ele>
        <time>2021-02-20T09:09:13Z</time>
      </trkpt>
      <trkpt lat="40.3025400" lon="-3.9489280">
        <ele>583.0</ele>
        <time>2021-02-20T09:09:17Z</time>
      </trkpt>
      <trkpt lat="40.3024240" lon="-3.9489720">
        <ele>583.6</ele>
        <time>2021-02-20T09:09:20Z</time>
      </trkpt>
      <trkpt lat="40.3023190" lon="-3.9490180">
        <ele>584.6</ele>
        <time>2021-02-20T09:09:24Z</time>
      </trkpt>
      <trkpt lat="40.3022700" lon="-3.9490310">
        <ele>585.2</ele>
        <time>2021-02-20T09:09:26Z</time>
      </trkpt>
      <trkpt lat="40.3021870" lon="-3.9490480">
        <ele>585.6</ele>
        <time>2021-02-20T09:09:29Z</time>
      </trkpt>
      <trkpt lat="40.3021330" lon="-3.9490510">
        <ele>586.2</ele>
        <time>2021-02-20T09:09:31Z</time>
      </trkpt>
      <trkpt lat="40.3020780" lon="-3.9490520">
        <ele>586.8</ele>
        <time>2021-02-20T09:09:33Z</time>
      </trkpt>
      <trkpt lat="40.3019590" lon="-3.9490470">
        <ele>587.8</ele>
        <time>2021-02-20T09:09:37Z</time>
      </trkpt>
      <trkpt lat="40.3019320" lon="-3.9490280">
        <ele>588.2</ele>
        <time>2021-02-20T09:09:38Z</time>
      </trkpt>
      <trkpt lat="40.3018870" lon="-3.9489740">
        <ele>588.8</ele>
        <time>2021-02-20T09:09:40Z</time>
      </trkpt>
      <trkpt lat="40.3018700" lon="-3.9489390">
        <ele>589.0</ele>
        <time>2021-02-20T09:09:41Z</time>
      </trkpt>
      <trkpt lat="40.3018520" lon="-3.9488540">
        <ele>589.4</ele>
        <time>2021-02-20T09:09:43Z</time>
      </trkpt>
      <trkpt lat="40.3018750" lon="-3.9485530">
        <ele>589.0</ele>
        <time>2021-02-20T09:09:49Z</time>
      </trkpt>
      <trkpt lat="40.3018900" lon="-3.9482960">
        <ele>588.0</ele>
        <time>2021-02-20T09:09:53Z</time>
      </trkpt>
      <trkpt lat="40.3018870" lon="-3.9482200">
        <ele>587.8</ele>
        <time>2021-02-20T09:09:54Z</time>
      </trkpt>
      <trkpt lat="40.3018910" lon="-3.9480800">
        <ele>587.0</ele>
        <time>2021-02-20T09:09:56Z</time>
      </trkpt>
      <trkpt lat="40.3019320" lon="-3.9479990">
        <ele>585.8</ele>
        <time>2021-02-20T09:09:58Z</time>
      </trkpt>
      <trkpt lat="40.3020120" lon="-3.9480240">
        <ele>585.4</ele>
        <time>2021-02-20T09:10:00Z</time>
      </trkpt>
      <trkpt lat="40.3020490" lon="-3.9480410">
        <ele>585.4</ele>
        <time>2021-02-20T09:10:01Z</time>
      </trkpt>
      <trkpt lat="40.3021180" lon="-3.9480500">
        <ele>585.6</ele>
        <time>2021-02-20T09:10:04Z</time>
      </trkpt>
      <trkpt lat="40.3021170" lon="-3.9480290">
        <ele>585.4</ele>
        <time>2021-02-20T09:10:08Z</time>
      </trkpt>
      <trkpt lat="40.3021030" lon="-3.9479620">
        <ele>584.8</ele>
        <time>2021-02-20T09:10:10Z</time>
      </trkpt>
      <trkpt lat="40.3020880" lon="-3.9479120">
        <ele>584.2</ele>
        <time>2021-02-20T09:10:11Z</time>
      </trkpt>
      <trkpt lat="40.3020640" lon="-3.9478070">
        <ele>583.0</ele>
        <time>2021-02-20T09:10:13Z</time>
      </trkpt>
      <trkpt lat="40.3020460" lon="-3.9477270">
        <ele>582.0</ele>
        <time>2021-02-20T09:10:15Z</time>
      </trkpt>
      <trkpt lat="40.3020160" lon="-3.9476600">
        <ele>580.8</ele>
        <time>2021-02-20T09:10:17Z</time>
      </trkpt>
      <trkpt lat="40.3019940" lon="-3.9475950">
        <ele>579.8</ele>
        <time>2021-02-20T09:10:19Z</time>
      </trkpt>
      <trkpt lat="40.3019740" lon="-3.9475440">
        <ele>578.6</ele>
        <time>2021-02-20T09:10:21Z</time>
      </trkpt>
      <trkpt lat="40.3019120" lon="-3.9474730">
        <ele>577.4</ele>
        <time>2021-02-20T09:10:25Z</time>
      </trkpt>
      <trkpt lat="40.3018940" lon="-3.9474440">
        <ele>577.4</ele>
        <time>2021-02-20T09:10:26Z</time>
      </trkpt>
      <trkpt lat="40.3018620" lon="-3.9473780">
        <ele>577.2</ele>
        <time>2021-02-20T09:10:28Z</time>
      </trkpt>
      <trkpt lat="40.3018580" lon="-3.9473250">
        <ele>577.4</ele>
        <time>2021-02-20T09:10:30Z</time>
      </trkpt>
      <trkpt lat="40.3018660" lon="-3.9473070">
        <ele>577.4</ele>
        <time>2021-02-20T09:10:31Z</time>
      </trkpt>
      <trkpt lat="40.3018790" lon="-3.9472960">
        <ele>577.2</ele>
        <time>2021-02-20T09:10:32Z</time>
      </trkpt>
      <trkpt lat="40.3019140" lon="-3.9472840">
        <ele>577.2</ele>
        <time>2021-02-20T09:10:34Z</time>
      </trkpt>
      <trkpt lat="40.3020000" lon="-3.9472540">
        <ele>577.0</ele>
        <time>2021-02-20T09:10:37Z</time>
      </trkpt>
      <trkpt lat="40.3020860" lon="-3.9472150">
        <ele>577.0</ele>
        <time>2021-02-20T09:10:40Z</time>
      </trkpt>
      <trkpt lat="40.3022800" lon="-3.9471630">
        <ele>576.6</ele>
        <time>2021-02-20T09:10:46Z</time>
      </trkpt>
      <trkpt lat="40.3023580" lon="-3.9471510">
        <ele>576.4</ele>
        <time>2021-02-20T09:10:48Z</time>
      </trkpt>
      <trkpt lat="40.3025720" lon="-3.9471210">
        <ele>576.2</ele>
        <time>2021-02-20T09:10:53Z</time>
      </trkpt>
      <trkpt lat="40.3027490" lon="-3.9471170">
        <ele>576.0</ele>
        <time>2021-02-20T09:10:57Z</time>
      </trkpt>
      <trkpt lat="40.3029330" lon="-3.9471400">
        <ele>575.8</ele>
        <time>2021-02-20T09:11:01Z</time>
      </trkpt>
      <trkpt lat="40.3032770" lon="-3.9472290">
        <ele>575.4</ele>
        <time>2021-02-20T09:11:08Z</time>
      </trkpt>
      <trkpt lat="40.3036330" lon="-3.9473550">
        <ele>575.2</ele>
        <time>2021-02-20T09:11:15Z</time>
      </trkpt>
      <trkpt lat="40.3038930" lon="-3.9474600">
        <ele>574.8</ele>
        <time>2021-02-20T09:11:20Z</time>
      </trkpt>
      <trkpt lat="40.3039970" lon="-3.9474870">
        <ele>574.8</ele>
        <time>2021-02-20T09:11:22Z</time>
      </trkpt>
      <trkpt lat="40.3043490" lon="-3.9476330">
        <ele>574.6</ele>
        <time>2021-02-20T09:11:29Z</time>
      </trkpt>
      <trkpt lat="40.3044020" lon="-3.9476500">
        <ele>574.8</ele>
        <time>2021-02-20T09:11:30Z</time>
      </trkpt>
      <trkpt lat="40.3044550" lon="-3.9476650">
        <ele>574.8</ele>
        <time>2021-02-20T09:11:31Z</time>
      </trkpt>
      <trkpt lat="40.3046600" lon="-3.9477320">
        <ele>574.8</ele>
        <time>2021-02-20T09:11:35Z</time>
      </trkpt>
      <trkpt lat="40.3048090" lon="-3.9477870">
        <ele>574.8</ele>
        <time>2021-02-20T09:11:38Z</time>
      </trkpt>
      <trkpt lat="40.3051500" lon="-3.9479150">
        <ele>575.0</ele>
        <time>2021-02-20T09:11:45Z</time>
      </trkpt>
      <trkpt lat="40.3055600" lon="-3.9480080">
        <ele>575.0</ele>
        <time>2021-02-20T09:11:53Z</time>
      </trkpt>
      <trkpt lat="40.3056080" lon="-3.9480300">
        <ele>575.2</ele>
        <time>2021-02-20T09:11:54Z</time>
      </trkpt>
      <trkpt lat="40.3058170" lon="-3.9480820">
        <ele>575.4</ele>
        <time>2021-02-20T09:11:58Z</time>
      </trkpt>
      <trkpt lat="40.3061140" lon="-3.9481200">
        <ele>575.8</ele>
        <time>2021-02-20T09:12:04Z</time>
      </trkpt>
      <trkpt lat="40.3063120" lon="-3.9481490">
        <ele>576.0</ele>
        <time>2021-02-20T09:12:08Z</time>
      </trkpt>
      <trkpt lat="40.3064090" lon="-3.9481610">
        <ele>576.4</ele>
        <time>2021-02-20T09:12:10Z</time>
      </trkpt>
      <trkpt lat="40.3065480" lon="-3.9481830">
        <ele>576.8</ele>
        <time>2021-02-20T09:12:13Z</time>
      </trkpt>
      <trkpt lat="40.3068480" lon="-3.9482020">
        <ele>576.8</ele>
        <time>2021-02-20T09:12:19Z</time>
      </trkpt>
      <trkpt lat="40.3071660" lon="-3.9482200">
        <ele>576.6</ele>
        <time>2021-02-20T09:12:25Z</time>
      </trkpt>
      <trkpt lat="40.3075010" lon="-3.9482280">
        <ele>576.4</ele>
        <time>2021-02-20T09:12:31Z</time>
      </trkpt>
      <trkpt lat="40.3078660" lon="-3.9482520">
        <ele>576.0</ele>
        <time>2021-02-20T09:12:38Z</time>
      </trkpt>
      <trkpt lat="40.3080000" lon="-3.9482600">
        <ele>575.6</ele>
        <time>2021-02-20T09:12:42Z</time>
      </trkpt>
      <trkpt lat="40.3080190" lon="-3.9482390">
        <ele>575.4</ele>
        <time>2021-02-20T09:12:43Z</time>
      </trkpt>
      <trkpt lat="40.3080310" lon="-3.9481950">
        <ele>575.2</ele>
        <time>2021-02-20T09:12:44Z</time>
      </trkpt>
      <trkpt lat="40.3080320" lon="-3.9481350">
        <ele>575.0</ele>
        <time>2021-02-20T09:12:45Z</time>
      </trkpt>
      <trkpt lat="40.3080350" lon="-3.9479850">
        <ele>573.8</ele>
        <time>2021-02-20T09:12:47Z</time>
      </trkpt>
      <trkpt lat="40.3080430" lon="-3.9477980">
        <ele>572.4</ele>
        <time>2021-02-20T09:12:49Z</time>
      </trkpt>
      <trkpt lat="40.3080610" lon="-3.9475970">
        <ele>571.4</ele>
        <time>2021-02-20T09:12:51Z</time>
      </trkpt>
      <trkpt lat="40.3081070" lon="-3.9472910">
        <ele>569.6</ele>
        <time>2021-02-20T09:12:54Z</time>
      </trkpt>
      <trkpt lat="40.3081240" lon="-3.9471920">
        <ele>569.4</ele>
        <time>2021-02-20T09:12:55Z</time>
      </trkpt>
      <trkpt lat="40.3081700" lon="-3.9469140">
        <ele>568.6</ele>
        <time>2021-02-20T09:12:58Z</time>
      </trkpt>
      <trkpt lat="40.3081790" lon="-3.9468310">
        <ele>568.4</ele>
        <time>2021-02-20T09:12:59Z</time>
      </trkpt>
      <trkpt lat="40.3081890" lon="-3.9467500">
        <ele>568.0</ele>
        <time>2021-02-20T09:13:00Z</time>
      </trkpt>
      <trkpt lat="40.3081990" lon="-3.9466710">
        <ele>567.8</ele>
        <time>2021-02-20T09:13:01Z</time>
      </trkpt>
      <trkpt lat="40.3082090" lon="-3.9465910">
        <ele>567.6</ele>
        <time>2021-02-20T09:13:02Z</time>
      </trkpt>
      <trkpt lat="40.3082340" lon="-3.9463890">
        <ele>567.2</ele>
        <time>2021-02-20T09:13:05Z</time>
      </trkpt>
      <trkpt lat="40.3082390" lon="-3.9463360">
        <ele>567.2</ele>
        <time>2021-02-20T09:13:06Z</time>
      </trkpt>
      <trkpt lat="40.3082460" lon="-3.9462530">
        <ele>566.8</ele>
        <time>2021-02-20T09:13:09Z</time>
      </trkpt>
      <trkpt lat="40.3082490" lon="-3.9462300">
        <ele>566.8</ele>
        <time>2021-02-20T09:13:20Z</time>
      </trkpt>
      <trkpt lat="40.3082470" lon="-3.9462130">
        <ele>566.8</ele>
        <time>2021-02-20T09:13:21Z</time>
      </trkpt>
      <trkpt lat="40.3082040" lon="-3.9461720">
        <ele>566.8</ele>
        <time>2021-02-20T09:13:25Z</time>
      </trkpt>
      <trkpt lat="40.3081960" lon="-3.9461650">
        <ele>566.8</ele>
        <time>2021-02-20T09:13:26Z</time>
      </trkpt>
      <trkpt lat="40.3081840" lon="-3.9461510">
        <ele>566.6</ele>
        <time>2021-02-20T09:13:29Z</time>
      </trkpt>
      <trkpt lat="40.3081950" lon="-3.9461610">
        <ele>566.2</ele>
        <time>2021-02-20T09:19:24Z</time>
      </trkpt>
      <trkpt lat="40.3081930" lon="-3.9461590">
        <ele>566.2</ele>
        <time>2021-02-20T09:19:25Z</time>
      </trkpt>
      <trkpt lat="40.3081860" lon="-3.9461610">
        <ele>566.4</ele>
        <time>2021-02-20T09:20:09Z</time>
      </trkpt>
      <trkpt lat="40.3081550" lon="-3.9461710">
        <ele>566.8</ele>
        <time>2021-02-20T09:20:25Z</time>
      </trkpt>
      <trkpt lat="40.3081230" lon="-3.9461760">
        <ele>566.8</ele>
        <time>2021-02-20T09:20:27Z</time>
      </trkpt>
      <trkpt lat="40.3080820" lon="-3.9461850">
        <ele>566.8</ele>
        <time>2021-02-20T09:20:29Z</time>
      </trkpt>
      <trkpt lat="40.3080180" lon="-3.9461760">
        <ele>567.0</ele>
        <time>2021-02-20T09:20:31Z</time>
      </trkpt>
      <trkpt lat="40.3079880" lon="-3.9461660">
        <ele>567.0</ele>
        <time>2021-02-20T09:20:32Z</time>
      </trkpt>
      <trkpt lat="40.3079570" lon="-3.9461560">
        <ele>567.2</ele>
        <time>2021-02-20T09:20:33Z</time>
      </trkpt>
      <trkpt lat="40.3077370" lon="-3.9461190">
        <ele>567.4</ele>
        <time>2021-02-20T09:20:39Z</time>
      </trkpt>
      <trkpt lat="40.3075940" lon="-3.9461060">
        <ele>567.4</ele>
        <time>2021-02-20T09:20:42Z</time>
      </trkpt>
      <trkpt lat="40.3074470" lon="-3.9461040">
        <ele>567.4</ele>
        <time>2021-02-20T09:20:45Z</time>
      </trkpt>
      <trkpt lat="40.3071790" lon="-3.9461440">
        <ele>567.4</ele>
        <time>2021-02-20T09:20:50Z</time>
      </trkpt>
      <trkpt lat="40.3070680" lon="-3.9461600">
        <ele>567.4</ele>
        <time>2021-02-20T09:20:52Z</time>
      </trkpt>
      <trkpt lat="40.3067550" lon="-3.9461570">
        <ele>567.2</ele>
        <time>2021-02-20T09:20:58Z</time>
      </trkpt>
      <trkpt lat="40.3064990" lon="-3.9461030">
        <ele>567.0</ele>
        <time>2021-02-20T09:21:03Z</time>
      </trkpt>
      <trkpt lat="40.3064470" lon="-3.9460820">
        <ele>567.0</ele>
        <time>2021-02-20T09:21:04Z</time>
      </trkpt>
      <trkpt lat="40.3060730" lon="-3.9459830">
        <ele>566.8</ele>
        <time>2021-02-20T09:21:11Z</time>
      </trkpt>
      <trkpt lat="40.3056170" lon="-3.9458650">
        <ele>566.4</ele>
        <time>2021-02-20T09:21:19Z</time>
      </trkpt>
      <trkpt lat="40.3053980" lon="-3.9458040">
        <ele>566.2</ele>
        <time>2021-02-20T09:21:23Z</time>
      </trkpt>
      <trkpt lat="40.3052260" lon="-3.9457520">
        <ele>566.0</ele>
        <time>2021-02-20T09:21:26Z</time>
      </trkpt>
      <trkpt lat="40.3049130" lon="-3.9457420">
        <ele>565.6</ele>
        <time>2021-02-20T09:21:31Z</time>
      </trkpt>
      <trkpt lat="40.3047100" lon="-3.9457130">
        <ele>565.2</ele>
        <time>2021-02-20T09:21:34Z</time>
      </trkpt>
      <trkpt lat="40.3046440" lon="-3.9456890">
        <ele>565.0</ele>
        <time>2021-02-20T09:21:35Z</time>
      </trkpt>
      <trkpt lat="40.3045790" lon="-3.9456530">
        <ele>564.8</ele>
        <time>2021-02-20T09:21:36Z</time>
      </trkpt>
      <trkpt lat="40.3044620" lon="-3.9455710">
        <ele>564.8</ele>
        <time>2021-02-20T09:21:38Z</time>
      </trkpt>
      <trkpt lat="40.3043000" lon="-3.9454480">
        <ele>565.2</ele>
        <time>2021-02-20T09:21:41Z</time>
      </trkpt>
      <trkpt lat="40.3039080" lon="-3.9451650">
        <ele>566.2</ele>
        <time>2021-02-20T09:21:48Z</time>
      </trkpt>
      <trkpt lat="40.3038540" lon="-3.9451340">
        <ele>566.4</ele>
        <time>2021-02-20T09:21:49Z</time>
      </trkpt>
      <trkpt lat="40.3037420" lon="-3.9450840">
        <ele>566.4</ele>
        <time>2021-02-20T09:21:51Z</time>
      </trkpt>
      <trkpt lat="40.3035090" lon="-3.9450300">
        <ele>566.6</ele>
        <time>2021-02-20T09:21:55Z</time>
      </trkpt>
      <trkpt lat="40.3031160" lon="-3.9449150">
        <ele>566.6</ele>
        <time>2021-02-20T09:22:02Z</time>
      </trkpt>
      <trkpt lat="40.3027280" lon="-3.9447800">
        <ele>566.0</ele>
        <time>2021-02-20T09:22:09Z</time>
      </trkpt>
      <trkpt lat="40.3024020" lon="-3.9447180">
        <ele>565.0</ele>
        <time>2021-02-20T09:22:14Z</time>
      </trkpt>
      <trkpt lat="40.3022670" lon="-3.9447070">
        <ele>565.0</ele>
        <time>2021-02-20T09:22:16Z</time>
      </trkpt>
      <trkpt lat="40.3019220" lon="-3.9446560">
        <ele>563.8</ele>
        <time>2021-02-20T09:22:21Z</time>
      </trkpt>
      <trkpt lat="40.3017770" lon="-3.9446330">
        <ele>563.4</ele>
        <time>2021-02-20T09:22:23Z</time>
      </trkpt>
      <trkpt lat="40.3014230" lon="-3.9444990">
        <ele>562.6</ele>
        <time>2021-02-20T09:22:28Z</time>
      </trkpt>
      <trkpt lat="40.3013580" lon="-3.9444630">
        <ele>562.4</ele>
        <time>2021-02-20T09:22:29Z</time>
      </trkpt>
      <trkpt lat="40.3012290" lon="-3.9443950">
        <ele>562.0</ele>
        <time>2021-02-20T09:22:31Z</time>
      </trkpt>
      <trkpt lat="40.3009400" lon="-3.9442280">
        <ele>561.8</ele>
        <time>2021-02-20T09:22:36Z</time>
      </trkpt>
      <trkpt lat="40.3007080" lon="-3.9441020">
        <ele>561.8</ele>
        <time>2021-02-20T09:22:40Z</time>
      </trkpt>
      <trkpt lat="40.3006500" lon="-3.9440830">
        <ele>562.0</ele>
        <time>2021-02-20T09:22:41Z</time>
      </trkpt>
      <trkpt lat="40.3005930" lon="-3.9440740">
        <ele>562.0</ele>
        <time>2021-02-20T09:22:42Z</time>
      </trkpt>
      <trkpt lat="40.3004470" lon="-3.9440530">
        <ele>561.6</ele>
        <time>2021-02-20T09:22:45Z</time>
      </trkpt>
      <trkpt lat="40.3004100" lon="-3.9440340">
        <ele>561.4</ele>
        <time>2021-02-20T09:22:46Z</time>
      </trkpt>
      <trkpt lat="40.3003440" lon="-3.9439480">
        <ele>560.8</ele>
        <time>2021-02-20T09:22:48Z</time>
      </trkpt>
      <trkpt lat="40.3002980" lon="-3.9438150">
        <ele>560.2</ele>
        <time>2021-02-20T09:22:50Z</time>
      </trkpt>
      <trkpt lat="40.3002340" lon="-3.9436840">
        <ele>560.2</ele>
        <time>2021-02-20T09:22:52Z</time>
      </trkpt>
      <trkpt lat="40.3001570" lon="-3.9433700">
        <ele>560.0</ele>
        <time>2021-02-20T09:22:56Z</time>
      </trkpt>
      <trkpt lat="40.3001570" lon="-3.9431270">
        <ele>559.6</ele>
        <time>2021-02-20T09:22:59Z</time>
      </trkpt>
      <trkpt lat="40.3001570" lon="-3.9429640">
        <ele>559.2</ele>
        <time>2021-02-20T09:23:01Z</time>
      </trkpt>
      <trkpt lat="40.3001530" lon="-3.9428920">
        <ele>559.0</ele>
        <time>2021-02-20T09:23:02Z</time>
      </trkpt>
      <trkpt lat="40.3000920" lon="-3.9427270">
        <ele>558.8</ele>
        <time>2021-02-20T09:23:05Z</time>
      </trkpt>
      <trkpt lat="40.3000260" lon="-3.9426260">
        <ele>558.8</ele>
        <time>2021-02-20T09:23:07Z</time>
      </trkpt>
      <trkpt lat="40.2999180" lon="-3.9425580">
        <ele>559.0</ele>
        <time>2021-02-20T09:23:09Z</time>
      </trkpt>
      <trkpt lat="40.2996810" lon="-3.9424280">
        <ele>558.8</ele>
        <time>2021-02-20T09:23:13Z</time>
      </trkpt>
      <trkpt lat="40.2996170" lon="-3.9424020">
        <ele>558.8</ele>
        <time>2021-02-20T09:23:14Z</time>
      </trkpt>
      <trkpt lat="40.2995480" lon="-3.9424020">
        <ele>558.8</ele>
        <time>2021-02-20T09:23:15Z</time>
      </trkpt>
      <trkpt lat="40.2993120" lon="-3.9423900">
        <ele>558.8</ele>
        <time>2021-02-20T09:23:19Z</time>
      </trkpt>
      <trkpt lat="40.2992590" lon="-3.9423620">
        <ele>558.6</ele>
        <time>2021-02-20T09:23:20Z</time>
      </trkpt>
      <trkpt lat="40.2990440" lon="-3.9422220">
        <ele>558.2</ele>
        <time>2021-02-20T09:23:24Z</time>
      </trkpt>
      <trkpt lat="40.2988520" lon="-3.9420700">
        <ele>558.2</ele>
        <time>2021-02-20T09:23:28Z</time>
      </trkpt>
      <trkpt lat="40.2988010" lon="-3.9420420">
        <ele>558.0</ele>
        <time>2021-02-20T09:23:29Z</time>
      </trkpt>
      <trkpt lat="40.2987500" lon="-3.9420040">
        <ele>558.0</ele>
        <time>2021-02-20T09:23:30Z</time>
      </trkpt>
      <trkpt lat="40.2986480" lon="-3.9419340">
        <ele>558.0</ele>
        <time>2021-02-20T09:23:32Z</time>
      </trkpt>
      <trkpt lat="40.2984200" lon="-3.9418650">
        <ele>558.0</ele>
        <time>2021-02-20T09:23:36Z</time>
      </trkpt>
      <trkpt lat="40.2983610" lon="-3.9418760">
        <ele>558.0</ele>
        <time>2021-02-20T09:23:37Z</time>
      </trkpt>
      <trkpt lat="40.2983010" lon="-3.9418900">
        <ele>558.2</ele>
        <time>2021-02-20T09:23:38Z</time>
      </trkpt>
      <trkpt lat="40.2982040" lon="-3.9419270">
        <ele>558.4</ele>
        <time>2021-02-20T09:23:40Z</time>
      </trkpt>
      <trkpt lat="40.2981750" lon="-3.9419550">
        <ele>558.8</ele>
        <time>2021-02-20T09:23:41Z</time>
      </trkpt>
      <trkpt lat="40.2981660" lon="-3.9420900">
        <ele>559.8</ele>
        <time>2021-02-20T09:23:43Z</time>
      </trkpt>
      <trkpt lat="40.2981660" lon="-3.9421500">
        <ele>560.2</ele>
        <time>2021-02-20T09:23:44Z</time>
      </trkpt>
      <trkpt lat="40.2981670" lon="-3.9422880">
        <ele>561.0</ele>
        <time>2021-02-20T09:23:47Z</time>
      </trkpt>
      <trkpt lat="40.2981710" lon="-3.9423210">
        <ele>561.2</ele>
        <time>2021-02-20T09:23:48Z</time>
      </trkpt>
      <trkpt lat="40.2981860" lon="-3.9423430">
        <ele>561.4</ele>
        <time>2021-02-20T09:23:49Z</time>
      </trkpt>
      <trkpt lat="40.2982620" lon="-3.9422900">
        <ele>561.8</ele>
        <time>2021-02-20T09:23:52Z</time>
      </trkpt>
      <trkpt lat="40.2982790" lon="-3.9422650">
        <ele>562.4</ele>
        <time>2021-02-20T09:23:53Z</time>
      </trkpt>
      <trkpt lat="40.2982970" lon="-3.9422230">
        <ele>563.4</ele>
        <time>2021-02-20T09:23:55Z</time>
      </trkpt>
      <trkpt lat="40.2983040" lon="-3.9421640">
        <ele>564.2</ele>
        <time>2021-02-20T09:23:57Z</time>
      </trkpt>
      <trkpt lat="40.2983040" lon="-3.9421220">
        <ele>564.4</ele>
        <time>2021-02-20T09:23:58Z</time>
      </trkpt>
      <trkpt lat="40.2983080" lon="-3.9419240">
        <ele>564.4</ele>
        <time>2021-02-20T09:24:02Z</time>
      </trkpt>
      <trkpt lat="40.2983090" lon="-3.9418700">
        <ele>564.4</ele>
        <time>2021-02-20T09:24:03Z</time>
      </trkpt>
      <trkpt lat="40.2983160" lon="-3.9415080">
        <ele>564.4</ele>
        <time>2021-02-20T09:24:09Z</time>
      </trkpt>
      <trkpt lat="40.2983190" lon="-3.9413750">
        <ele>564.4</ele>
        <time>2021-02-20T09:24:11Z</time>
      </trkpt>
      <trkpt lat="40.2983290" lon="-3.9406570">
        <ele>565.2</ele>
        <time>2021-02-20T09:24:22Z</time>
      </trkpt>
      <trkpt lat="40.2983310" lon="-3.9405920">
        <ele>565.2</ele>
        <time>2021-02-20T09:24:23Z</time>
      </trkpt>
      <trkpt lat="40.2983270" lon="-3.9405280">
        <ele>565.2</ele>
        <time>2021-02-20T09:24:24Z</time>
      </trkpt>
      <trkpt lat="40.2983320" lon="-3.9403950">
        <ele>565.6</ele>
        <time>2021-02-20T09:24:26Z</time>
      </trkpt>
      <trkpt lat="40.2983350" lon="-3.9402620">
        <ele>565.8</ele>
        <time>2021-02-20T09:24:29Z</time>
      </trkpt>
      <trkpt lat="40.2983380" lon="-3.9401360">
        <ele>565.8</ele>
        <time>2021-02-20T09:24:31Z</time>
      </trkpt>
      <trkpt lat="40.2983330" lon="-3.9400720">
        <ele>566.2</ele>
        <time>2021-02-20T09:24:32Z</time>
      </trkpt>
      <trkpt lat="40.2983290" lon="-3.9400080">
        <ele>566.4</ele>
        <time>2021-02-20T09:24:33Z</time>
      </trkpt>
      <trkpt lat="40.2983150" lon="-3.9398110">
        <ele>566.8</ele>
        <time>2021-02-20T09:24:36Z</time>
      </trkpt>
      <trkpt lat="40.2983100" lon="-3.9396400">
        <ele>567.2</ele>
        <time>2021-02-20T09:24:39Z</time>
      </trkpt>
      <trkpt lat="40.2982850" lon="-3.9395460">
        <ele>567.6</ele>
        <time>2021-02-20T09:24:41Z</time>
      </trkpt>
      <trkpt lat="40.2982710" lon="-3.9395060">
        <ele>568.0</ele>
        <time>2021-02-20T09:24:42Z</time>
      </trkpt>
      <trkpt lat="40.2982540" lon="-3.9393960">
        <ele>569.0</ele>
        <time>2021-02-20T09:24:45Z</time>
      </trkpt>
      <trkpt lat="40.2982490" lon="-3.9393540">
        <ele>569.4</ele>
        <time>2021-02-20T09:24:46Z</time>
      </trkpt>
      <trkpt lat="40.2982460" lon="-3.9392210">
        <ele>570.2</ele>
        <time>2021-02-20T09:24:49Z</time>
      </trkpt>
      <trkpt lat="40.2982570" lon="-3.9390810">
        <ele>570.8</ele>
        <time>2021-02-20T09:24:52Z</time>
      </trkpt>
      <trkpt lat="40.2982690" lon="-3.9389220">
        <ele>571.2</ele>
        <time>2021-02-20T09:24:55Z</time>
      </trkpt>
      <trkpt lat="40.2982700" lon="-3.9388680">
        <ele>571.4</ele>
        <time>2021-02-20T09:24:56Z</time>
      </trkpt>
      <trkpt lat="40.2982640" lon="-3.9387150">
        <ele>572.0</ele>
        <time>2021-02-20T09:24:59Z</time>
      </trkpt>
      <trkpt lat="40.2982580" lon="-3.9386640">
        <ele>572.4</ele>
        <time>2021-02-20T09:25:00Z</time>
      </trkpt>
      <trkpt lat="40.2982480" lon="-3.9385530">
        <ele>573.4</ele>
        <time>2021-02-20T09:25:02Z</time>
      </trkpt>
      <trkpt lat="40.2982200" lon="-3.9384520">
        <ele>574.2</ele>
        <time>2021-02-20T09:25:04Z</time>
      </trkpt>
      <trkpt lat="40.2981940" lon="-3.9383540">
        <ele>574.6</ele>
        <time>2021-02-20T09:25:06Z</time>
      </trkpt>
      <trkpt lat="40.2981610" lon="-3.9382090">
        <ele>575.4</ele>
        <time>2021-02-20T09:25:09Z</time>
      </trkpt>
      <trkpt lat="40.2981430" lon="-3.9381670">
        <ele>575.8</ele>
        <time>2021-02-20T09:25:10Z</time>
      </trkpt>
      <trkpt lat="40.2980830" lon="-3.9380040">
        <ele>577.0</ele>
        <time>2021-02-20T09:25:14Z</time>
      </trkpt>
      <trkpt lat="40.2980470" lon="-3.9379320">
        <ele>577.4</ele>
        <time>2021-02-20T09:25:16Z</time>
      </trkpt>
      <trkpt lat="40.2980030" lon="-3.9378640">
        <ele>578.0</ele>
        <time>2021-02-20T09:25:18Z</time>
      </trkpt>
      <trkpt lat="40.2979120" lon="-3.9377320">
        <ele>579.2</ele>
        <time>2021-02-20T09:25:22Z</time>
      </trkpt>
      <trkpt lat="40.2978890" lon="-3.9376970">
        <ele>579.4</ele>
        <time>2021-02-20T09:25:23Z</time>
      </trkpt>
      <trkpt lat="40.2977320" lon="-3.9375510">
        <ele>579.8</ele>
        <time>2021-02-20T09:25:28Z</time>
      </trkpt>
      <trkpt lat="40.2976940" lon="-3.9375260">
        <ele>580.0</ele>
        <time>2021-02-20T09:25:29Z</time>
      </trkpt>
      <trkpt lat="40.2976600" lon="-3.9375000">
        <ele>580.2</ele>
        <time>2021-02-20T09:25:30Z</time>
      </trkpt>
      <trkpt lat="40.2976280" lon="-3.9374750">
        <ele>580.4</ele>
        <time>2021-02-20T09:25:31Z</time>
      </trkpt>
      <trkpt lat="40.2975890" lon="-3.9374580">
        <ele>580.6</ele>
        <time>2021-02-20T09:25:32Z</time>
      </trkpt>
      <trkpt lat="40.2975000" lon="-3.9374340">
        <ele>580.6</ele>
        <time>2021-02-20T09:25:34Z</time>
      </trkpt>
      <trkpt lat="40.2974560" lon="-3.9374210">
        <ele>580.6</ele>
        <time>2021-02-20T09:25:35Z</time>
      </trkpt>
      <trkpt lat="40.2973160" lon="-3.9374040">
        <ele>580.4</ele>
        <time>2021-02-20T09:25:38Z</time>
      </trkpt>
      <trkpt lat="40.2972140" lon="-3.9374120">
        <ele>580.2</ele>
        <time>2021-02-20T09:25:40Z</time>
      </trkpt>
      <trkpt lat="40.2971680" lon="-3.9374160">
        <ele>580.2</ele>
        <time>2021-02-20T09:25:41Z</time>
      </trkpt>
      <trkpt lat="40.2968570" lon="-3.9374690">
        <ele>579.8</ele>
        <time>2021-02-20T09:25:47Z</time>
      </trkpt>
      <trkpt lat="40.2968040" lon="-3.9374840">
        <ele>579.8</ele>
        <time>2021-02-20T09:25:48Z</time>
      </trkpt>
      <trkpt lat="40.2967550" lon="-3.9375040">
        <ele>580.0</ele>
        <time>2021-02-20T09:25:49Z</time>
      </trkpt>
      <trkpt lat="40.2967070" lon="-3.9375250">
        <ele>580.0</ele>
        <time>2021-02-20T09:25:50Z</time>
      </trkpt>
      <trkpt lat="40.2966070" lon="-3.9375590">
        <ele>580.2</ele>
        <time>2021-02-20T09:25:52Z</time>
      </trkpt>
      <trkpt lat="40.2965560" lon="-3.9375680">
        <ele>580.2</ele>
        <time>2021-02-20T09:25:53Z</time>
      </trkpt>
      <trkpt lat="40.2965070" lon="-3.9375710">
        <ele>580.2</ele>
        <time>2021-02-20T09:25:54Z</time>
      </trkpt>
      <trkpt lat="40.2964630" lon="-3.9375870">
        <ele>580.4</ele>
        <time>2021-02-20T09:25:55Z</time>
      </trkpt>
      <trkpt lat="40.2963670" lon="-3.9376170">
        <ele>580.6</ele>
        <time>2021-02-20T09:25:57Z</time>
      </trkpt>
      <trkpt lat="40.2961090" lon="-3.9376740">
        <ele>580.2</ele>
        <time>2021-02-20T09:26:02Z</time>
      </trkpt>
      <trkpt lat="40.2960060" lon="-3.9376780">
        <ele>580.2</ele>
        <time>2021-02-20T09:26:04Z</time>
      </trkpt>
      <trkpt lat="40.2958480" lon="-3.9376910">
        <ele>580.4</ele>
        <time>2021-02-20T09:26:07Z</time>
      </trkpt>
      <trkpt lat="40.2957970" lon="-3.9376970">
        <ele>580.4</ele>
        <time>2021-02-20T09:26:08Z</time>
      </trkpt>
      <trkpt lat="40.2957470" lon="-3.9377030">
        <ele>580.8</ele>
        <time>2021-02-20T09:26:09Z</time>
      </trkpt>
      <trkpt lat="40.2957030" lon="-3.9376970">
        <ele>581.2</ele>
        <time>2021-02-20T09:26:10Z</time>
      </trkpt>
      <trkpt lat="40.2956600" lon="-3.9376880">
        <ele>581.6</ele>
        <time>2021-02-20T09:26:11Z</time>
      </trkpt>
      <trkpt lat="40.2956160" lon="-3.9376880">
        <ele>582.0</ele>
        <time>2021-02-20T09:26:12Z</time>
      </trkpt>
      <trkpt lat="40.2955730" lon="-3.9376830">
        <ele>582.2</ele>
        <time>2021-02-20T09:26:13Z</time>
      </trkpt>
      <trkpt lat="40.2954430" lon="-3.9376620">
        <ele>582.8</ele>
        <time>2021-02-20T09:26:16Z</time>
      </trkpt>
      <trkpt lat="40.2953970" lon="-3.9376590">
        <ele>583.0</ele>
        <time>2021-02-20T09:26:17Z</time>
      </trkpt>
      <trkpt lat="40.2953510" lon="-3.9376580">
        <ele>583.2</ele>
        <time>2021-02-20T09:26:18Z</time>
      </trkpt>
      <trkpt lat="40.2953090" lon="-3.9376560">
        <ele>583.4</ele>
        <time>2021-02-20T09:26:19Z</time>
      </trkpt>
      <trkpt lat="40.2952660" lon="-3.9376510">
        <ele>583.6</ele>
        <time>2021-02-20T09:26:20Z</time>
      </trkpt>
      <trkpt lat="40.2952240" lon="-3.9376480">
        <ele>583.8</ele>
        <time>2021-02-20T09:26:21Z</time>
      </trkpt>
      <trkpt lat="40.2951430" lon="-3.9376340">
        <ele>584.6</ele>
        <time>2021-02-20T09:26:23Z</time>
      </trkpt>
      <trkpt lat="40.2951040" lon="-3.9376260">
        <ele>585.0</ele>
        <time>2021-02-20T09:26:24Z</time>
      </trkpt>
      <trkpt lat="40.2949800" lon="-3.9376010">
        <ele>585.6</ele>
        <time>2021-02-20T09:26:27Z</time>
      </trkpt>
      <trkpt lat="40.2948450" lon="-3.9375610">
        <ele>585.2</ele>
        <time>2021-02-20T09:26:30Z</time>
      </trkpt>
      <trkpt lat="40.2947750" lon="-3.9375090">
        <ele>585.6</ele>
        <time>2021-02-20T09:26:32Z</time>
      </trkpt>
      <trkpt lat="40.2947370" lon="-3.9374970">
        <ele>586.2</ele>
        <time>2021-02-20T09:26:33Z</time>
      </trkpt>
      <trkpt lat="40.2947010" lon="-3.9374820">
        <ele>586.4</ele>
        <time>2021-02-20T09:26:34Z</time>
      </trkpt>
      <trkpt lat="40.2946300" lon="-3.9374640">
        <ele>586.8</ele>
        <time>2021-02-20T09:26:36Z</time>
      </trkpt>
      <trkpt lat="40.2945950" lon="-3.9374540">
        <ele>587.0</ele>
        <time>2021-02-20T09:26:37Z</time>
      </trkpt>
      <trkpt lat="40.2944680" lon="-3.9374450">
        <ele>586.4</ele>
        <time>2021-02-20T09:26:40Z</time>
      </trkpt>
      <trkpt lat="40.2944250" lon="-3.9374410">
        <ele>586.6</ele>
        <time>2021-02-20T09:26:41Z</time>
      </trkpt>
      <trkpt lat="40.2943810" lon="-3.9374540">
        <ele>587.2</ele>
        <time>2021-02-20T09:26:42Z</time>
      </trkpt>
      <trkpt lat="40.2943400" lon="-3.9374700">
        <ele>587.4</ele>
        <time>2021-02-20T09:26:43Z</time>
      </trkpt>
      <trkpt lat="40.2942720" lon="-3.9375000">
        <ele>587.8</ele>
        <time>2021-02-20T09:26:45Z</time>
      </trkpt>
      <trkpt lat="40.2942480" lon="-3.9375100">
        <ele>587.6</ele>
        <time>2021-02-20T09:26:46Z</time>
      </trkpt>
      <trkpt lat="40.2941220" lon="-3.9375090">
        <ele>587.6</ele>
        <time>2021-02-20T09:26:50Z</time>
      </trkpt>
      <trkpt lat="40.2940840" lon="-3.9374900">
        <ele>587.6</ele>
        <time>2021-02-20T09:26:51Z</time>
      </trkpt>
      <trkpt lat="40.2939640" lon="-3.9373890">
        <ele>587.6</ele>
        <time>2021-02-20T09:26:54Z</time>
      </trkpt>
      <trkpt lat="40.2936910" lon="-3.9372030">
        <ele>587.6</ele>
        <time>2021-02-20T09:27:00Z</time>
      </trkpt>
      <trkpt lat="40.2935940" lon="-3.9371590">
        <ele>587.2</ele>
        <time>2021-02-20T09:27:02Z</time>
      </trkpt>
      <trkpt lat="40.2933810" lon="-3.9370610">
        <ele>586.4</ele>
        <time>2021-02-20T09:27:06Z</time>
      </trkpt>
      <trkpt lat="40.2933240" lon="-3.9370460">
        <ele>586.4</ele>
        <time>2021-02-20T09:27:07Z</time>
      </trkpt>
      <trkpt lat="40.2932090" lon="-3.9370140">
        <ele>586.4</ele>
        <time>2021-02-20T09:27:09Z</time>
      </trkpt>
      <trkpt lat="40.2930460" lon="-3.9369500">
        <ele>586.4</ele>
        <time>2021-02-20T09:27:12Z</time>
      </trkpt>
      <trkpt lat="40.2929260" lon="-3.9369270">
        <ele>586.0</ele>
        <time>2021-02-20T09:27:14Z</time>
      </trkpt>
      <trkpt lat="40.2928040" lon="-3.9369160">
        <ele>585.4</ele>
        <time>2021-02-20T09:27:16Z</time>
      </trkpt>
      <trkpt lat="40.2927450" lon="-3.9369150">
        <ele>585.4</ele>
        <time>2021-02-20T09:27:17Z</time>
      </trkpt>
      <trkpt lat="40.2925760" lon="-3.9369380">
        <ele>586.0</ele>
        <time>2021-02-20T09:27:20Z</time>
      </trkpt>
      <trkpt lat="40.2924590" lon="-3.9369570">
        <ele>586.2</ele>
        <time>2021-02-20T09:27:22Z</time>
      </trkpt>
      <trkpt lat="40.2921540" lon="-3.9369700">
        <ele>586.2</ele>
        <time>2021-02-20T09:27:27Z</time>
      </trkpt>
      <trkpt lat="40.2920920" lon="-3.9369850">
        <ele>586.4</ele>
        <time>2021-02-20T09:27:28Z</time>
      </trkpt>
      <trkpt lat="40.2920280" lon="-3.9370060">
        <ele>586.4</ele>
        <time>2021-02-20T09:27:29Z</time>
      </trkpt>
      <trkpt lat="40.2919660" lon="-3.9370220">
        <ele>586.4</ele>
        <time>2021-02-20T09:27:30Z</time>
      </trkpt>
      <trkpt lat="40.2916120" lon="-3.9371290">
        <ele>586.6</ele>
        <time>2021-02-20T09:27:36Z</time>
      </trkpt>
      <trkpt lat="40.2912820" lon="-3.9371990">
        <ele>586.6</ele>
        <time>2021-02-20T09:27:42Z</time>
      </trkpt>
      <trkpt lat="40.2911290" lon="-3.9372370">
        <ele>587.6</ele>
        <time>2021-02-20T09:27:45Z</time>
      </trkpt>
      <trkpt lat="40.2909700" lon="-3.9372720">
        <ele>588.8</ele>
        <time>2021-02-20T09:27:48Z</time>
      </trkpt>
      <trkpt lat="40.2909200" lon="-3.9372890">
        <ele>589.0</ele>
        <time>2021-02-20T09:27:49Z</time>
      </trkpt>
      <trkpt lat="40.2906990" lon="-3.9373720">
        <ele>588.4</ele>
        <time>2021-02-20T09:27:53Z</time>
      </trkpt>
      <trkpt lat="40.2906370" lon="-3.9373790">
        <ele>588.4</ele>
        <time>2021-02-20T09:27:54Z</time>
      </trkpt>
      <trkpt lat="40.2905200" lon="-3.9374110">
        <ele>588.0</ele>
        <time>2021-02-20T09:27:56Z</time>
      </trkpt>
      <trkpt lat="40.2904660" lon="-3.9374280">
        <ele>588.2</ele>
        <time>2021-02-20T09:27:57Z</time>
      </trkpt>
      <trkpt lat="40.2902920" lon="-3.9374690">
        <ele>589.8</ele>
        <time>2021-02-20T09:28:01Z</time>
      </trkpt>
      <trkpt lat="40.2902180" lon="-3.9374860">
        <ele>591.0</ele>
        <time>2021-02-20T09:28:03Z</time>
      </trkpt>
      <trkpt lat="40.2900880" lon="-3.9375050">
        <ele>591.8</ele>
        <time>2021-02-20T09:28:06Z</time>
      </trkpt>
      <trkpt lat="40.2900350" lon="-3.9375020">
        <ele>591.6</ele>
        <time>2021-02-20T09:28:07Z</time>
      </trkpt>
      <trkpt lat="40.2898690" lon="-3.9374940">
        <ele>591.0</ele>
        <time>2021-02-20T09:28:10Z</time>
      </trkpt>
      <trkpt lat="40.2897120" lon="-3.9374910">
        <ele>591.2</ele>
        <time>2021-02-20T09:28:13Z</time>
      </trkpt>
      <trkpt lat="40.2895880" lon="-3.9374620">
        <ele>592.6</ele>
        <time>2021-02-20T09:28:16Z</time>
      </trkpt>
      <trkpt lat="40.2895300" lon="-3.9374390">
        <ele>593.6</ele>
        <time>2021-02-20T09:28:18Z</time>
      </trkpt>
      <trkpt lat="40.2895030" lon="-3.9374290">
        <ele>593.8</ele>
        <time>2021-02-20T09:28:19Z</time>
      </trkpt>
      <trkpt lat="40.2893990" lon="-3.9374370">
        <ele>593.4</ele>
        <time>2021-02-20T09:28:22Z</time>
      </trkpt>
      <trkpt lat="40.2893440" lon="-3.9374500">
        <ele>593.0</ele>
        <time>2021-02-20T09:28:23Z</time>
      </trkpt>
      <trkpt lat="40.2892870" lon="-3.9374380">
        <ele>592.2</ele>
        <time>2021-02-20T09:28:24Z</time>
      </trkpt>
      <trkpt lat="40.2891740" lon="-3.9373700">
        <ele>590.2</ele>
        <time>2021-02-20T09:28:26Z</time>
      </trkpt>
      <trkpt lat="40.2890480" lon="-3.9373290">
        <ele>588.6</ele>
        <time>2021-02-20T09:28:28Z</time>
      </trkpt>
      <trkpt lat="40.2889800" lon="-3.9373330">
        <ele>587.8</ele>
        <time>2021-02-20T09:28:29Z</time>
      </trkpt>
      <trkpt lat="40.2889170" lon="-3.9373420">
        <ele>587.0</ele>
        <time>2021-02-20T09:28:30Z</time>
      </trkpt>
      <trkpt lat="40.2887850" lon="-3.9373310">
        <ele>585.6</ele>
        <time>2021-02-20T09:28:32Z</time>
      </trkpt>
      <trkpt lat="40.2887140" lon="-3.9373140">
        <ele>584.0</ele>
        <time>2021-02-20T09:28:33Z</time>
      </trkpt>
      <trkpt lat="40.2886390" lon="-3.9372880">
        <ele>582.8</ele>
        <time>2021-02-20T09:28:34Z</time>
      </trkpt>
      <trkpt lat="40.2885690" lon="-3.9372400">
        <ele>581.8</ele>
        <time>2021-02-20T09:28:35Z</time>
      </trkpt>
      <trkpt lat="40.2885000" lon="-3.9371980">
        <ele>581.0</ele>
        <time>2021-02-20T09:28:36Z</time>
      </trkpt>
      <trkpt lat="40.2884300" lon="-3.9371640">
        <ele>580.2</ele>
        <time>2021-02-20T09:28:37Z</time>
      </trkpt>
      <trkpt lat="40.2883110" lon="-3.9371060">
        <ele>578.8</ele>
        <time>2021-02-20T09:28:39Z</time>
      </trkpt>
      <trkpt lat="40.2882620" lon="-3.9370640">
        <ele>578.4</ele>
        <time>2021-02-20T09:28:40Z</time>
      </trkpt>
      <trkpt lat="40.2882170" lon="-3.9370230">
        <ele>577.8</ele>
        <time>2021-02-20T09:28:41Z</time>
      </trkpt>
      <trkpt lat="40.2881790" lon="-3.9369690">
        <ele>577.0</ele>
        <time>2021-02-20T09:28:42Z</time>
      </trkpt>
      <trkpt lat="40.2881470" lon="-3.9369130">
        <ele>576.4</ele>
        <time>2021-02-20T09:28:43Z</time>
      </trkpt>
      <trkpt lat="40.2881100" lon="-3.9368700">
        <ele>576.0</ele>
        <time>2021-02-20T09:28:44Z</time>
      </trkpt>
      <trkpt lat="40.2880290" lon="-3.9367600">
        <ele>576.2</ele>
        <time>2021-02-20T09:28:47Z</time>
      </trkpt>
      <trkpt lat="40.2880200" lon="-3.9367110">
        <ele>576.4</ele>
        <time>2021-02-20T09:28:48Z</time>
      </trkpt>
      <trkpt lat="40.2879870" lon="-3.9366300">
        <ele>576.8</ele>
        <time>2021-02-20T09:28:50Z</time>
      </trkpt>
      <trkpt lat="40.2879650" lon="-3.9365730">
        <ele>577.0</ele>
        <time>2021-02-20T09:28:52Z</time>
      </trkpt>
      <trkpt lat="40.2879570" lon="-3.9365190">
        <ele>577.0</ele>
        <time>2021-02-20T09:28:54Z</time>
      </trkpt>
      <trkpt lat="40.2879510" lon="-3.9363990">
        <ele>577.2</ele>
        <time>2021-02-20T09:28:58Z</time>
      </trkpt>
      <trkpt lat="40.2879520" lon="-3.9363160">
        <ele>577.4</ele>
        <time>2021-02-20T09:29:00Z</time>
      </trkpt>
      <trkpt lat="40.2880180" lon="-3.9361610">
        <ele>577.6</ele>
        <time>2021-02-20T09:29:03Z</time>
      </trkpt>
      <trkpt lat="40.2881580" lon="-3.9360540">
        <ele>578.4</ele>
        <time>2021-02-20T09:29:07Z</time>
      </trkpt>
      <trkpt lat="40.2881900" lon="-3.9360260">
        <ele>578.6</ele>
        <time>2021-02-20T09:29:08Z</time>
      </trkpt>
      <trkpt lat="40.2883410" lon="-3.9359160">
        <ele>579.8</ele>
        <time>2021-02-20T09:29:13Z</time>
      </trkpt>
      <trkpt lat="40.2883710" lon="-3.9358940">
        <ele>580.0</ele>
        <time>2021-02-20T09:29:14Z</time>
      </trkpt>
      <trkpt lat="40.2884550" lon="-3.9358200">
        <ele>580.8</ele>
        <time>2021-02-20T09:29:17Z</time>
      </trkpt>
      <trkpt lat="40.2884720" lon="-3.9357760">
        <ele>581.0</ele>
        <time>2021-02-20T09:29:18Z</time>
      </trkpt>
      <trkpt lat="40.2884790" lon="-3.9357280">
        <ele>581.0</ele>
        <time>2021-02-20T09:29:19Z</time>
      </trkpt>
      <trkpt lat="40.2885110" lon="-3.9355130">
        <ele>581.2</ele>
        <time>2021-02-20T09:29:23Z</time>
      </trkpt>
      <trkpt lat="40.2885220" lon="-3.9354610">
        <ele>581.4</ele>
        <time>2021-02-20T09:29:24Z</time>
      </trkpt>
      <trkpt lat="40.2885540" lon="-3.9353180">
        <ele>582.0</ele>
        <time>2021-02-20T09:29:27Z</time>
      </trkpt>
      <trkpt lat="40.2886020" lon="-3.9350830">
        <ele>583.0</ele>
        <time>2021-02-20T09:29:32Z</time>
      </trkpt>
      <trkpt lat="40.2885970" lon="-3.9350280">
        <ele>583.0</ele>
        <time>2021-02-20T09:29:33Z</time>
      </trkpt>
      <trkpt lat="40.2886060" lon="-3.9349140">
        <ele>583.0</ele>
        <time>2021-02-20T09:29:35Z</time>
      </trkpt>
      <trkpt lat="40.2886170" lon="-3.9348620">
        <ele>583.2</ele>
        <time>2021-02-20T09:29:36Z</time>
      </trkpt>
      <trkpt lat="40.2886270" lon="-3.9348130">
        <ele>583.4</ele>
        <time>2021-02-20T09:29:37Z</time>
      </trkpt>
      <trkpt lat="40.2886900" lon="-3.9346940">
        <ele>584.2</ele>
        <time>2021-02-20T09:29:40Z</time>
      </trkpt>
      <trkpt lat="40.2887180" lon="-3.9346590">
        <ele>584.4</ele>
        <time>2021-02-20T09:29:41Z</time>
      </trkpt>
      <trkpt lat="40.2887640" lon="-3.9344810">
        <ele>585.4</ele>
        <time>2021-02-20T09:29:45Z</time>
      </trkpt>
      <trkpt lat="40.2887440" lon="-3.9342860">
        <ele>586.0</ele>
        <time>2021-02-20T09:29:49Z</time>
      </trkpt>
      <trkpt lat="40.2887270" lon="-3.9342420">
        <ele>586.2</ele>
        <time>2021-02-20T09:29:50Z</time>
      </trkpt>
      <trkpt lat="40.2887060" lon="-3.9341980">
        <ele>586.2</ele>
        <time>2021-02-20T09:29:51Z</time>
      </trkpt>
      <trkpt lat="40.2886850" lon="-3.9341480">
        <ele>586.4</ele>
        <time>2021-02-20T09:29:52Z</time>
      </trkpt>
      <trkpt lat="40.2886730" lon="-3.9340970">
        <ele>586.6</ele>
        <time>2021-02-20T09:29:53Z</time>
      </trkpt>
      <trkpt lat="40.2886740" lon="-3.9339890">
        <ele>586.8</ele>
        <time>2021-02-20T09:29:55Z</time>
      </trkpt>
      <trkpt lat="40.2886710" lon="-3.9339390">
        <ele>586.8</ele>
        <time>2021-02-20T09:29:56Z</time>
      </trkpt>
      <trkpt lat="40.2886370" lon="-3.9338260">
        <ele>587.0</ele>
        <time>2021-02-20T09:29:59Z</time>
      </trkpt>
      <trkpt lat="40.2885870" lon="-3.9337680">
        <ele>586.4</ele>
        <time>2021-02-20T09:30:01Z</time>
      </trkpt>
      <trkpt lat="40.2885170" lon="-3.9337520">
        <ele>586.0</ele>
        <time>2021-02-20T09:30:03Z</time>
      </trkpt>
      <trkpt lat="40.2883940" lon="-3.9336940">
        <ele>587.4</ele>
        <time>2021-02-20T09:30:07Z</time>
      </trkpt>
      <trkpt lat="40.2883760" lon="-3.9336710">
        <ele>587.8</ele>
        <time>2021-02-20T09:30:08Z</time>
      </trkpt>
      <trkpt lat="40.2883640" lon="-3.9336390">
        <ele>588.8</ele>
        <time>2021-02-20T09:30:09Z</time>
      </trkpt>
      <trkpt lat="40.2883540" lon="-3.9335780">
        <ele>589.8</ele>
        <time>2021-02-20T09:30:11Z</time>
      </trkpt>
      <trkpt lat="40.2883420" lon="-3.9335550">
        <ele>590.4</ele>
        <time>2021-02-20T09:30:12Z</time>
      </trkpt>
      <trkpt lat="40.2883300" lon="-3.9335330">
        <ele>591.0</ele>
        <time>2021-02-20T09:30:13Z</time>
      </trkpt>
      <trkpt lat="40.2882960" lon="-3.9334950">
        <ele>592.0</ele>
        <time>2021-02-20T09:30:15Z</time>
      </trkpt>
      <trkpt lat="40.2882740" lon="-3.9334480">
        <ele>593.0</ele>
        <time>2021-02-20T09:30:17Z</time>
      </trkpt>
      <trkpt lat="40.2882750" lon="-3.9334190">
        <ele>593.6</ele>
        <time>2021-02-20T09:30:18Z</time>
      </trkpt>
      <trkpt lat="40.2882750" lon="-3.9333600">
        <ele>594.2</ele>
        <time>2021-02-20T09:30:20Z</time>
      </trkpt>
      <trkpt lat="40.2882690" lon="-3.9332810">
        <ele>595.4</ele>
        <time>2021-02-20T09:30:23Z</time>
      </trkpt>
      <trkpt lat="40.2882570" lon="-3.9332260">
        <ele>596.0</ele>
        <time>2021-02-20T09:30:25Z</time>
      </trkpt>
      <trkpt lat="40.2882530" lon="-3.9331950">
        <ele>596.4</ele>
        <time>2021-02-20T09:30:26Z</time>
      </trkpt>
      <trkpt lat="40.2882130" lon="-3.9330720">
        <ele>597.4</ele>
        <time>2021-02-20T09:30:30Z</time>
      </trkpt>
      <trkpt lat="40.2881990" lon="-3.9330460">
        <ele>597.8</ele>
        <time>2021-02-20T09:30:31Z</time>
      </trkpt>
      <trkpt lat="40.2881710" lon="-3.9329940">
        <ele>598.8</ele>
        <time>2021-02-20T09:30:33Z</time>
      </trkpt>
      <trkpt lat="40.2881520" lon="-3.9329740">
        <ele>599.0</ele>
        <time>2021-02-20T09:30:34Z</time>
      </trkpt>
      <trkpt lat="40.2881290" lon="-3.9329590">
        <ele>599.4</ele>
        <time>2021-02-20T09:30:35Z</time>
      </trkpt>
      <trkpt lat="40.2881070" lon="-3.9329450">
        <ele>599.8</ele>
        <time>2021-02-20T09:30:36Z</time>
      </trkpt>
      <trkpt lat="40.2880860" lon="-3.9329290">
        <ele>600.2</ele>
        <time>2021-02-20T09:30:37Z</time>
      </trkpt>
      <trkpt lat="40.2880470" lon="-3.9329020">
        <ele>601.0</ele>
        <time>2021-02-20T09:30:39Z</time>
      </trkpt>
      <trkpt lat="40.2879730" lon="-3.9328520">
        <ele>602.4</ele>
        <time>2021-02-20T09:30:43Z</time>
      </trkpt>
      <trkpt lat="40.2879180" lon="-3.9327930">
        <ele>603.6</ele>
        <time>2021-02-20T09:30:46Z</time>
      </trkpt>
      <trkpt lat="40.2878620" lon="-3.9327370">
        <ele>604.2</ele>
        <time>2021-02-20T09:30:49Z</time>
      </trkpt>
      <trkpt lat="40.2878340" lon="-3.9326970">
        <ele>604.8</ele>
        <time>2021-02-20T09:30:51Z</time>
      </trkpt>
      <trkpt lat="40.2877750" lon="-3.9326150">
        <ele>606.0</ele>
        <time>2021-02-20T09:30:55Z</time>
      </trkpt>
      <trkpt lat="40.2877490" lon="-3.9325760">
        <ele>606.8</ele>
        <time>2021-02-20T09:30:57Z</time>
      </trkpt>
      <trkpt lat="40.2877390" lon="-3.9325560">
        <ele>607.2</ele>
        <time>2021-02-20T09:30:58Z</time>
      </trkpt>
      <trkpt lat="40.2877130" lon="-3.9324280">
        <ele>608.4</ele>
        <time>2021-02-20T09:31:03Z</time>
      </trkpt>
      <trkpt lat="40.2876450" lon="-3.9323170">
        <ele>609.6</ele>
        <time>2021-02-20T09:31:08Z</time>
      </trkpt>
      <trkpt lat="40.2876330" lon="-3.9322900">
        <ele>609.6</ele>
        <time>2021-02-20T09:31:09Z</time>
      </trkpt>
      <trkpt lat="40.2876220" lon="-3.9322620">
        <ele>610.0</ele>
        <time>2021-02-20T09:31:10Z</time>
      </trkpt>
      <trkpt lat="40.2876000" lon="-3.9322070">
        <ele>610.6</ele>
        <time>2021-02-20T09:31:12Z</time>
      </trkpt>
      <trkpt lat="40.2875400" lon="-3.9321270">
        <ele>611.8</ele>
        <time>2021-02-20T09:31:16Z</time>
      </trkpt>
      <trkpt lat="40.2875270" lon="-3.9321070">
        <ele>612.2</ele>
        <time>2021-02-20T09:31:17Z</time>
      </trkpt>
      <trkpt lat="40.2875070" lon="-3.9320950">
        <ele>612.4</ele>
        <time>2021-02-20T09:31:18Z</time>
      </trkpt>
      <trkpt lat="40.2874730" lon="-3.9320710">
        <ele>613.2</ele>
        <time>2021-02-20T09:31:20Z</time>
      </trkpt>
      <trkpt lat="40.2874440" lon="-3.9320420">
        <ele>614.6</ele>
        <time>2021-02-20T09:31:22Z</time>
      </trkpt>
      <trkpt lat="40.2873930" lon="-3.9320050">
        <ele>615.8</ele>
        <time>2021-02-20T09:31:25Z</time>
      </trkpt>
      <trkpt lat="40.2873170" lon="-3.9319680">
        <ele>617.0</ele>
        <time>2021-02-20T09:31:29Z</time>
      </trkpt>
      <trkpt lat="40.2873010" lon="-3.9319590">
        <ele>617.4</ele>
        <time>2021-02-20T09:31:30Z</time>
      </trkpt>
      <trkpt lat="40.2872710" lon="-3.9319450">
        <ele>618.0</ele>
        <time>2021-02-20T09:31:32Z</time>
      </trkpt>
      <trkpt lat="40.2871980" lon="-3.9319240">
        <ele>619.4</ele>
        <time>2021-02-20T09:31:36Z</time>
      </trkpt>
      <trkpt lat="40.2871430" lon="-3.9319020">
        <ele>620.0</ele>
        <time>2021-02-20T09:31:39Z</time>
      </trkpt>
      <trkpt lat="40.2871180" lon="-3.9318680">
        <ele>620.6</ele>
        <time>2021-02-20T09:31:41Z</time>
      </trkpt>
      <trkpt lat="40.2870550" lon="-3.9318070">
        <ele>621.6</ele>
        <time>2021-02-20T09:31:45Z</time>
      </trkpt>
      <trkpt lat="40.2870340" lon="-3.9317920">
        <ele>621.8</ele>
        <time>2021-02-20T09:31:46Z</time>
      </trkpt>
      <trkpt lat="40.2868930" lon="-3.9316890">
        <ele>622.4</ele>
        <time>2021-02-20T09:31:53Z</time>
      </trkpt>
      <trkpt lat="40.2867570" lon="-3.9316540">
        <ele>622.8</ele>
        <time>2021-02-20T09:31:58Z</time>
      </trkpt>
      <trkpt lat="40.2867280" lon="-3.9316520">
        <ele>622.8</ele>
        <time>2021-02-20T09:31:59Z</time>
      </trkpt>
      <trkpt lat="40.2865930" lon="-3.9317070">
        <ele>623.6</ele>
        <time>2021-02-20T09:32:04Z</time>
      </trkpt>
      <trkpt lat="40.2865660" lon="-3.9317110">
        <ele>624.0</ele>
        <time>2021-02-20T09:32:05Z</time>
      </trkpt>
      <trkpt lat="40.2864850" lon="-3.9317190">
        <ele>625.2</ele>
        <time>2021-02-20T09:32:08Z</time>
      </trkpt>
      <trkpt lat="40.2864020" lon="-3.9317040">
        <ele>626.2</ele>
        <time>2021-02-20T09:32:11Z</time>
      </trkpt>
      <trkpt lat="40.2862470" lon="-3.9315680">
        <ele>627.0</ele>
        <time>2021-02-20T09:32:17Z</time>
      </trkpt>
      <trkpt lat="40.2860880" lon="-3.9315200">
        <ele>627.2</ele>
        <time>2021-02-20T09:32:22Z</time>
      </trkpt>
      <trkpt lat="40.2858820" lon="-3.9315790">
        <ele>628.4</ele>
        <time>2021-02-20T09:32:28Z</time>
      </trkpt>
      <trkpt lat="40.2858130" lon="-3.9315690">
        <ele>628.8</ele>
        <time>2021-02-20T09:32:30Z</time>
      </trkpt>
      <trkpt lat="40.2857120" lon="-3.9315180">
        <ele>629.8</ele>
        <time>2021-02-20T09:32:33Z</time>
      </trkpt>
      <trkpt lat="40.2855680" lon="-3.9314500">
        <ele>630.4</ele>
        <time>2021-02-20T09:32:37Z</time>
      </trkpt>
      <trkpt lat="40.2852770" lon="-3.9312700">
        <ele>630.4</ele>
        <time>2021-02-20T09:32:45Z</time>
      </trkpt>
      <trkpt lat="40.2852390" lon="-3.9312180">
        <ele>630.2</ele>
        <time>2021-02-20T09:32:46Z</time>
      </trkpt>
      <trkpt lat="40.2851120" lon="-3.9310450">
        <ele>628.8</ele>
        <time>2021-02-20T09:32:49Z</time>
      </trkpt>
      <trkpt lat="40.2850760" lon="-3.9309780">
        <ele>628.6</ele>
        <time>2021-02-20T09:32:50Z</time>
      </trkpt>
      <trkpt lat="40.2850470" lon="-3.9309070">
        <ele>628.4</ele>
        <time>2021-02-20T09:32:51Z</time>
      </trkpt>
      <trkpt lat="40.2849980" lon="-3.9306710">
        <ele>628.2</ele>
        <time>2021-02-20T09:32:54Z</time>
      </trkpt>
      <trkpt lat="40.2849050" lon="-3.9304830">
        <ele>629.0</ele>
        <time>2021-02-20T09:32:57Z</time>
      </trkpt>
      <trkpt lat="40.2848670" lon="-3.9304280">
        <ele>629.2</ele>
        <time>2021-02-20T09:32:58Z</time>
      </trkpt>
      <trkpt lat="40.2847940" lon="-3.9303220">
        <ele>629.6</ele>
        <time>2021-02-20T09:33:00Z</time>
      </trkpt>
      <trkpt lat="40.2847560" lon="-3.9302750">
        <ele>629.8</ele>
        <time>2021-02-20T09:33:01Z</time>
      </trkpt>
      <trkpt lat="40.2846350" lon="-3.9301700">
        <ele>630.6</ele>
        <time>2021-02-20T09:33:04Z</time>
      </trkpt>
      <trkpt lat="40.2845940" lon="-3.9301400">
        <ele>630.8</ele>
        <time>2021-02-20T09:33:05Z</time>
      </trkpt>
      <trkpt lat="40.2844730" lon="-3.9300530">
        <ele>631.4</ele>
        <time>2021-02-20T09:33:08Z</time>
      </trkpt>
      <trkpt lat="40.2843880" lon="-3.9299960">
        <ele>631.8</ele>
        <time>2021-02-20T09:33:10Z</time>
      </trkpt>
      <trkpt lat="40.2843490" lon="-3.9299610">
        <ele>631.8</ele>
        <time>2021-02-20T09:33:11Z</time>
      </trkpt>
      <trkpt lat="40.2843140" lon="-3.9299220">
        <ele>631.8</ele>
        <time>2021-02-20T09:33:12Z</time>
      </trkpt>
      <trkpt lat="40.2841990" lon="-3.9298300">
        <ele>632.4</ele>
        <time>2021-02-20T09:33:15Z</time>
      </trkpt>
      <trkpt lat="40.2841700" lon="-3.9297830">
        <ele>632.6</ele>
        <time>2021-02-20T09:33:16Z</time>
      </trkpt>
      <trkpt lat="40.2841060" lon="-3.9297040">
        <ele>633.0</ele>
        <time>2021-02-20T09:33:18Z</time>
      </trkpt>
      <trkpt lat="40.2839850" lon="-3.9296490">
        <ele>634.2</ele>
        <time>2021-02-20T09:33:21Z</time>
      </trkpt>
      <trkpt lat="40.2839040" lon="-3.9295440">
        <ele>634.6</ele>
        <time>2021-02-20T09:33:24Z</time>
      </trkpt>
      <trkpt lat="40.2838820" lon="-3.9294600">
        <ele>635.4</ele>
        <time>2021-02-20T09:33:26Z</time>
      </trkpt>
      <trkpt lat="40.2838710" lon="-3.9294170">
        <ele>635.6</ele>
        <time>2021-02-20T09:33:27Z</time>
      </trkpt>
      <trkpt lat="40.2838450" lon="-3.9293380">
        <ele>636.2</ele>
        <time>2021-02-20T09:33:29Z</time>
      </trkpt>
      <trkpt lat="40.2838310" lon="-3.9292940">
        <ele>636.6</ele>
        <time>2021-02-20T09:33:30Z</time>
      </trkpt>
      <trkpt lat="40.2837940" lon="-3.9291140">
        <ele>637.4</ele>
        <time>2021-02-20T09:33:34Z</time>
      </trkpt>
      <trkpt lat="40.2837550" lon="-3.9290540">
        <ele>638.0</ele>
        <time>2021-02-20T09:33:36Z</time>
      </trkpt>
      <trkpt lat="40.2836970" lon="-3.9289830">
        <ele>639.2</ele>
        <time>2021-02-20T09:33:39Z</time>
      </trkpt>
      <trkpt lat="40.2836720" lon="-3.9289800">
        <ele>639.8</ele>
        <time>2021-02-20T09:33:40Z</time>
      </trkpt>
      <trkpt lat="40.2836190" lon="-3.9290060">
        <ele>640.6</ele>
        <time>2021-02-20T09:33:42Z</time>
      </trkpt>
      <trkpt lat="40.2835320" lon="-3.9290010">
        <ele>641.4</ele>
        <time>2021-02-20T09:33:47Z</time>
      </trkpt>
      <trkpt lat="40.2835500" lon="-3.9289070">
        <ele>641.2</ele>
        <time>2021-02-20T09:33:51Z</time>
      </trkpt>
      <trkpt lat="40.2836190" lon="-3.9287930">
        <ele>641.8</ele>
        <time>2021-02-20T09:33:55Z</time>
      </trkpt>
      <trkpt lat="40.2836280" lon="-3.9287580">
        <ele>641.8</ele>
        <time>2021-02-20T09:33:56Z</time>
      </trkpt>
      <trkpt lat="40.2837280" lon="-3.9285690">
        <ele>642.8</ele>
        <time>2021-02-20T09:34:02Z</time>
      </trkpt>
      <trkpt lat="40.2837830" lon="-3.9284830">
        <ele>643.4</ele>
        <time>2021-02-20T09:34:05Z</time>
      </trkpt>
      <trkpt lat="40.2838010" lon="-3.9284560">
        <ele>643.4</ele>
        <time>2021-02-20T09:34:06Z</time>
      </trkpt>
      <trkpt lat="40.2838480" lon="-3.9283600">
        <ele>644.0</ele>
        <time>2021-02-20T09:34:09Z</time>
      </trkpt>
      <trkpt lat="40.2839070" lon="-3.9282250">
        <ele>644.8</ele>
        <time>2021-02-20T09:34:13Z</time>
      </trkpt>
      <trkpt lat="40.2839310" lon="-3.9281510">
        <ele>645.2</ele>
        <time>2021-02-20T09:34:15Z</time>
      </trkpt>
      <trkpt lat="40.2840030" lon="-3.9279200">
        <ele>646.2</ele>
        <time>2021-02-20T09:34:21Z</time>
      </trkpt>
      <trkpt lat="40.2840450" lon="-3.9276370">
        <ele>647.2</ele>
        <time>2021-02-20T09:34:28Z</time>
      </trkpt>
      <trkpt lat="40.2840410" lon="-3.9275530">
        <ele>647.4</ele>
        <time>2021-02-20T09:34:30Z</time>
      </trkpt>
      <trkpt lat="40.2840230" lon="-3.9272820">
        <ele>648.2</ele>
        <time>2021-02-20T09:34:36Z</time>
      </trkpt>
      <trkpt lat="40.2839970" lon="-3.9270900">
        <ele>648.6</ele>
        <time>2021-02-20T09:34:40Z</time>
      </trkpt>
      <trkpt lat="40.2839210" lon="-3.9266410">
        <ele>648.0</ele>
        <time>2021-02-20T09:34:48Z</time>
      </trkpt>
      <trkpt lat="40.2838770" lon="-3.9263940">
        <ele>648.0</ele>
        <time>2021-02-20T09:34:52Z</time>
      </trkpt>
      <trkpt lat="40.2838710" lon="-3.9263300">
        <ele>647.8</ele>
        <time>2021-02-20T09:34:53Z</time>
      </trkpt>
      <trkpt lat="40.2838520" lon="-3.9262080">
        <ele>647.6</ele>
        <time>2021-02-20T09:34:55Z</time>
      </trkpt>
      <trkpt lat="40.2837960" lon="-3.9258950">
        <ele>647.4</ele>
        <time>2021-02-20T09:35:00Z</time>
      </trkpt>
      <trkpt lat="40.2837380" lon="-3.9255050">
        <ele>648.0</ele>
        <time>2021-02-20T09:35:06Z</time>
      </trkpt>
      <trkpt lat="40.2836530" lon="-3.9248790">
        <ele>648.6</ele>
        <time>2021-02-20T09:35:15Z</time>
      </trkpt>
      <trkpt lat="40.2836750" lon="-3.9244370">
        <ele>649.4</ele>
        <time>2021-02-20T09:35:21Z</time>
      </trkpt>
      <trkpt lat="40.2837270" lon="-3.9241170">
        <ele>649.8</ele>
        <time>2021-02-20T09:35:26Z</time>
      </trkpt>
      <trkpt lat="40.2837390" lon="-3.9240610">
        <ele>649.8</ele>
        <time>2021-02-20T09:35:27Z</time>
      </trkpt>
      <trkpt lat="40.2838430" lon="-3.9239660">
        <ele>650.0</ele>
        <time>2021-02-20T09:35:30Z</time>
      </trkpt>
      <trkpt lat="40.2839710" lon="-3.9238600">
        <ele>650.2</ele>
        <time>2021-02-20T09:35:33Z</time>
      </trkpt>
      <trkpt lat="40.2840170" lon="-3.9238320">
        <ele>650.4</ele>
        <time>2021-02-20T09:35:34Z</time>
      </trkpt>
      <trkpt lat="40.2840630" lon="-3.9238030">
        <ele>650.6</ele>
        <time>2021-02-20T09:35:35Z</time>
      </trkpt>
      <trkpt lat="40.2843440" lon="-3.9236840">
        <ele>651.4</ele>
        <time>2021-02-20T09:35:41Z</time>
      </trkpt>
      <trkpt lat="40.2845270" lon="-3.9236320">
        <ele>652.8</ele>
        <time>2021-02-20T09:35:45Z</time>
      </trkpt>
      <trkpt lat="40.2846580" lon="-3.9235880">
        <ele>653.4</ele>
        <time>2021-02-20T09:35:48Z</time>
      </trkpt>
      <trkpt lat="40.2847940" lon="-3.9235250">
        <ele>653.8</ele>
        <time>2021-02-20T09:35:51Z</time>
      </trkpt>
      <trkpt lat="40.2849730" lon="-3.9234370">
        <ele>654.2</ele>
        <time>2021-02-20T09:35:55Z</time>
      </trkpt>
      <trkpt lat="40.2851300" lon="-3.9233460">
        <ele>654.4</ele>
        <time>2021-02-20T09:35:59Z</time>
      </trkpt>
      <trkpt lat="40.2852080" lon="-3.9232830">
        <ele>654.0</ele>
        <time>2021-02-20T09:36:01Z</time>
      </trkpt>
      <trkpt lat="40.2855190" lon="-3.9229810">
        <ele>652.8</ele>
        <time>2021-02-20T09:36:08Z</time>
      </trkpt>
      <trkpt lat="40.2856680" lon="-3.9228080">
        <ele>651.6</ele>
        <time>2021-02-20T09:36:11Z</time>
      </trkpt>
      <trkpt lat="40.2858140" lon="-3.9226100">
        <ele>650.8</ele>
        <time>2021-02-20T09:36:14Z</time>
      </trkpt>
      <trkpt lat="40.2858620" lon="-3.9225400">
        <ele>650.4</ele>
        <time>2021-02-20T09:36:15Z</time>
      </trkpt>
      <trkpt lat="40.2859930" lon="-3.9223310">
        <ele>650.0</ele>
        <time>2021-02-20T09:36:18Z</time>
      </trkpt>
      <trkpt lat="40.2862090" lon="-3.9220100">
        <ele>649.6</ele>
        <time>2021-02-20T09:36:23Z</time>
      </trkpt>
      <trkpt lat="40.2866050" lon="-3.9214920">
        <ele>650.2</ele>
        <time>2021-02-20T09:36:32Z</time>
      </trkpt>
      <trkpt lat="40.2866500" lon="-3.9214390">
        <ele>650.2</ele>
        <time>2021-02-20T09:36:33Z</time>
      </trkpt>
      <trkpt lat="40.2870280" lon="-3.9210410">
        <ele>650.8</ele>
        <time>2021-02-20T09:36:41Z</time>
      </trkpt>
      <trkpt lat="40.2873980" lon="-3.9206300">
        <ele>651.4</ele>
        <time>2021-02-20T09:36:49Z</time>
      </trkpt>
      <trkpt lat="40.2875290" lon="-3.9203770">
        <ele>651.6</ele>
        <time>2021-02-20T09:36:53Z</time>
      </trkpt>
      <trkpt lat="40.2875510" lon="-3.9203120">
        <ele>651.6</ele>
        <time>2021-02-20T09:36:54Z</time>
      </trkpt>
      <trkpt lat="40.2875930" lon="-3.9201170">
        <ele>652.4</ele>
        <time>2021-02-20T09:36:57Z</time>
      </trkpt>
      <trkpt lat="40.2875960" lon="-3.9200520">
        <ele>652.6</ele>
        <time>2021-02-20T09:36:58Z</time>
      </trkpt>
      <trkpt lat="40.2875840" lon="-3.9199860">
        <ele>652.8</ele>
        <time>2021-02-20T09:36:59Z</time>
      </trkpt>
      <trkpt lat="40.2875520" lon="-3.9197410">
        <ele>653.8</ele>
        <time>2021-02-20T09:37:03Z</time>
      </trkpt>
      <trkpt lat="40.2875800" lon="-3.9196230">
        <ele>654.2</ele>
        <time>2021-02-20T09:37:05Z</time>
      </trkpt>
      <trkpt lat="40.2875820" lon="-3.9195600">
        <ele>654.4</ele>
        <time>2021-02-20T09:37:06Z</time>
      </trkpt>
      <trkpt lat="40.2875690" lon="-3.9194360">
        <ele>654.8</ele>
        <time>2021-02-20T09:37:08Z</time>
      </trkpt>
      <trkpt lat="40.2875620" lon="-3.9193720">
        <ele>655.0</ele>
        <time>2021-02-20T09:37:09Z</time>
      </trkpt>
      <trkpt lat="40.2875330" lon="-3.9191210">
        <ele>655.8</ele>
        <time>2021-02-20T09:37:13Z</time>
      </trkpt>
      <trkpt lat="40.2875270" lon="-3.9190590">
        <ele>656.0</ele>
        <time>2021-02-20T09:37:14Z</time>
      </trkpt>
      <trkpt lat="40.2875060" lon="-3.9188690">
        <ele>656.4</ele>
        <time>2021-02-20T09:37:17Z</time>
      </trkpt>
      <trkpt lat="40.2874680" lon="-3.9183250">
        <ele>655.0</ele>
        <time>2021-02-20T09:37:25Z</time>
      </trkpt>
      <trkpt lat="40.2874610" lon="-3.9182450">
        <ele>654.8</ele>
        <time>2021-02-20T09:37:26Z</time>
      </trkpt>
      <trkpt lat="40.2874280" lon="-3.9179060">
        <ele>653.6</ele>
        <time>2021-02-20T09:37:30Z</time>
      </trkpt>
      <trkpt lat="40.2874160" lon="-3.9177660">
        <ele>653.2</ele>
        <time>2021-02-20T09:37:32Z</time>
      </trkpt>
      <trkpt lat="40.2873960" lon="-3.9177010">
        <ele>653.0</ele>
        <time>2021-02-20T09:37:33Z</time>
      </trkpt>
      <trkpt lat="40.2873330" lon="-3.9175920">
        <ele>652.6</ele>
        <time>2021-02-20T09:37:35Z</time>
      </trkpt>
      <trkpt lat="40.2873090" lon="-3.9175290">
        <ele>652.6</ele>
        <time>2021-02-20T09:37:36Z</time>
      </trkpt>
      <trkpt lat="40.2872970" lon="-3.9173010">
        <ele>652.4</ele>
        <time>2021-02-20T09:37:39Z</time>
      </trkpt>
      <trkpt lat="40.2874380" lon="-3.9171820">
        <ele>652.2</ele>
        <time>2021-02-20T09:37:42Z</time>
      </trkpt>
      <trkpt lat="40.2876170" lon="-3.9172460">
        <ele>652.2</ele>
        <time>2021-02-20T09:37:45Z</time>
      </trkpt>
      <trkpt lat="40.2876780" lon="-3.9172780">
        <ele>652.4</ele>
        <time>2021-02-20T09:37:46Z</time>
      </trkpt>
      <trkpt lat="40.2877360" lon="-3.9172970">
        <ele>652.4</ele>
        <time>2021-02-20T09:37:47Z</time>
      </trkpt>
      <trkpt lat="40.2879230" lon="-3.9172890">
        <ele>652.8</ele>
        <time>2021-02-20T09:37:50Z</time>
      </trkpt>
      <trkpt lat="40.2882340" lon="-3.9172340">
        <ele>653.6</ele>
        <time>2021-02-20T09:37:55Z</time>
      </trkpt>
      <trkpt lat="40.2884200" lon="-3.9172030">
        <ele>654.2</ele>
        <time>2021-02-20T09:37:58Z</time>
      </trkpt>
      <trkpt lat="40.2885370" lon="-3.9171850">
        <ele>654.8</ele>
        <time>2021-02-20T09:38:00Z</time>
      </trkpt>
      <trkpt lat="40.2888670" lon="-3.9171460">
        <ele>655.4</ele>
        <time>2021-02-20T09:38:06Z</time>
      </trkpt>
      <trkpt lat="40.2889210" lon="-3.9171390">
        <ele>655.8</ele>
        <time>2021-02-20T09:38:07Z</time>
      </trkpt>
      <trkpt lat="40.2892470" lon="-3.9171060">
        <ele>656.8</ele>
        <time>2021-02-20T09:38:13Z</time>
      </trkpt>
      <trkpt lat="40.2894090" lon="-3.9170950">
        <ele>657.2</ele>
        <time>2021-02-20T09:38:16Z</time>
      </trkpt>
      <trkpt lat="40.2896220" lon="-3.9170570">
        <ele>658.0</ele>
        <time>2021-02-20T09:38:20Z</time>
      </trkpt>
      <trkpt lat="40.2898340" lon="-3.9169980">
        <ele>658.4</ele>
        <time>2021-02-20T09:38:24Z</time>
      </trkpt>
      <trkpt lat="40.2900390" lon="-3.9169390">
        <ele>659.0</ele>
        <time>2021-02-20T09:38:28Z</time>
      </trkpt>
      <trkpt lat="40.2903050" lon="-3.9168560">
        <ele>660.0</ele>
        <time>2021-02-20T09:38:33Z</time>
      </trkpt>
      <trkpt lat="40.2903600" lon="-3.9168420">
        <ele>660.0</ele>
        <time>2021-02-20T09:38:34Z</time>
      </trkpt>
      <trkpt lat="40.2908260" lon="-3.9167010">
        <ele>661.0</ele>
        <time>2021-02-20T09:38:43Z</time>
      </trkpt>
      <trkpt lat="40.2913250" lon="-3.9165590">
        <ele>661.0</ele>
        <time>2021-02-20T09:38:52Z</time>
      </trkpt>
      <trkpt lat="40.2916240" lon="-3.9164630">
        <ele>660.8</ele>
        <time>2021-02-20T09:38:57Z</time>
      </trkpt>
      <trkpt lat="40.2917410" lon="-3.9164270">
        <ele>660.4</ele>
        <time>2021-02-20T09:38:59Z</time>
      </trkpt>
      <trkpt lat="40.2921120" lon="-3.9163190">
        <ele>660.0</ele>
        <time>2021-02-20T09:39:05Z</time>
      </trkpt>
      <trkpt lat="40.2922920" lon="-3.9162720">
        <ele>659.6</ele>
        <time>2021-02-20T09:39:08Z</time>
      </trkpt>
      <trkpt lat="40.2924050" lon="-3.9162220">
        <ele>659.6</ele>
        <time>2021-02-20T09:39:10Z</time>
      </trkpt>
      <trkpt lat="40.2925580" lon="-3.9160720">
        <ele>659.4</ele>
        <time>2021-02-20T09:39:13Z</time>
      </trkpt>
      <trkpt lat="40.2926130" lon="-3.9160300">
        <ele>659.4</ele>
        <time>2021-02-20T09:39:14Z</time>
      </trkpt>
      <trkpt lat="40.2927990" lon="-3.9159480">
        <ele>659.4</ele>
        <time>2021-02-20T09:39:17Z</time>
      </trkpt>
      <trkpt lat="40.2928590" lon="-3.9159090">
        <ele>659.2</ele>
        <time>2021-02-20T09:39:18Z</time>
      </trkpt>
      <trkpt lat="40.2929510" lon="-3.9157690">
        <ele>659.0</ele>
        <time>2021-02-20T09:39:20Z</time>
      </trkpt>
      <trkpt lat="40.2929920" lon="-3.9156910">
        <ele>658.8</ele>
        <time>2021-02-20T09:39:21Z</time>
      </trkpt>
      <trkpt lat="40.2930340" lon="-3.9156160">
        <ele>658.6</ele>
        <time>2021-02-20T09:39:22Z</time>
      </trkpt>
      <trkpt lat="40.2932560" lon="-3.9152370">
        <ele>658.0</ele>
        <time>2021-02-20T09:39:27Z</time>
      </trkpt>
      <trkpt lat="40.2933440" lon="-3.9150930">
        <ele>657.8</ele>
        <time>2021-02-20T09:39:29Z</time>
      </trkpt>
      <trkpt lat="40.2935460" lon="-3.9147540">
        <ele>658.0</ele>
        <time>2021-02-20T09:39:34Z</time>
      </trkpt>
      <trkpt lat="40.2936970" lon="-3.9145140">
        <ele>658.8</ele>
        <time>2021-02-20T09:39:38Z</time>
      </trkpt>
      <trkpt lat="40.2937670" lon="-3.9144030">
        <ele>659.2</ele>
        <time>2021-02-20T09:39:40Z</time>
      </trkpt>
      <trkpt lat="40.2938680" lon="-3.9142330">
        <ele>660.0</ele>
        <time>2021-02-20T09:39:43Z</time>
      </trkpt>
      <trkpt lat="40.2939300" lon="-3.9141360">
        <ele>660.6</ele>
        <time>2021-02-20T09:39:45Z</time>
      </trkpt>
      <trkpt lat="40.2939610" lon="-3.9140890">
        <ele>661.0</ele>
        <time>2021-02-20T09:39:46Z</time>
      </trkpt>
      <trkpt lat="40.2941370" lon="-3.9138210">
        <ele>662.2</ele>
        <time>2021-02-20T09:39:52Z</time>
      </trkpt>
      <trkpt lat="40.2941940" lon="-3.9137370">
        <ele>662.8</ele>
        <time>2021-02-20T09:39:54Z</time>
      </trkpt>
      <trkpt lat="40.2942820" lon="-3.9136090">
        <ele>663.4</ele>
        <time>2021-02-20T09:39:57Z</time>
      </trkpt>
      <trkpt lat="40.2943720" lon="-3.9134810">
        <ele>664.0</ele>
        <time>2021-02-20T09:40:00Z</time>
      </trkpt>
      <trkpt lat="40.2944570" lon="-3.9133480">
        <ele>664.6</ele>
        <time>2021-02-20T09:40:03Z</time>
      </trkpt>
      <trkpt lat="40.2945230" lon="-3.9132630">
        <ele>665.2</ele>
        <time>2021-02-20T09:40:05Z</time>
      </trkpt>
      <trkpt lat="40.2946240" lon="-3.9131400">
        <ele>665.6</ele>
        <time>2021-02-20T09:40:08Z</time>
      </trkpt>
      <trkpt lat="40.2947280" lon="-3.9130210">
        <ele>666.4</ele>
        <time>2021-02-20T09:40:11Z</time>
      </trkpt>
      <trkpt lat="40.2947630" lon="-3.9129810">
        <ele>666.6</ele>
        <time>2021-02-20T09:40:12Z</time>
      </trkpt>
      <trkpt lat="40.2949370" lon="-3.9127850">
        <ele>667.2</ele>
        <time>2021-02-20T09:40:17Z</time>
      </trkpt>
      <trkpt lat="40.2950550" lon="-3.9125830">
        <ele>667.4</ele>
        <time>2021-02-20T09:40:22Z</time>
      </trkpt>
      <trkpt lat="40.2950580" lon="-3.9123960">
        <ele>667.4</ele>
        <time>2021-02-20T09:40:27Z</time>
      </trkpt>
      <trkpt lat="40.2950700" lon="-3.9122040">
        <ele>666.8</ele>
        <time>2021-02-20T09:40:31Z</time>
      </trkpt>
      <trkpt lat="40.2950660" lon="-3.9120660">
        <ele>666.0</ele>
        <time>2021-02-20T09:40:35Z</time>
      </trkpt>
      <trkpt lat="40.2950780" lon="-3.9120370">
        <ele>666.4</ele>
        <time>2021-02-20T09:40:38Z</time>
      </trkpt>
      <trkpt lat="40.2950850" lon="-3.9120280">
        <ele>666.8</ele>
        <time>2021-02-20T09:40:39Z</time>
      </trkpt>
      <trkpt lat="40.2950660" lon="-3.9119110">
        <ele>666.8</ele>
        <time>2021-02-20T09:40:43Z</time>
      </trkpt>
      <trkpt lat="40.2950440" lon="-3.9117290">
        <ele>667.0</ele>
        <time>2021-02-20T09:40:46Z</time>
      </trkpt>
      <trkpt lat="40.2950450" lon="-3.9116610">
        <ele>667.0</ele>
        <time>2021-02-20T09:40:47Z</time>
      </trkpt>
      <trkpt lat="40.2950090" lon="-3.9112080">
        <ele>665.6</ele>
        <time>2021-02-20T09:40:53Z</time>
      </trkpt>
      <trkpt lat="40.2949200" lon="-3.9107030">
        <ele>664.6</ele>
        <time>2021-02-20T09:40:59Z</time>
      </trkpt>
      <trkpt lat="40.2948890" lon="-3.9105310">
        <ele>664.2</ele>
        <time>2021-02-20T09:41:01Z</time>
      </trkpt>
      <trkpt lat="40.2948660" lon="-3.9104450">
        <ele>664.2</ele>
        <time>2021-02-20T09:41:02Z</time>
      </trkpt>
      <trkpt lat="40.2948000" lon="-3.9101620">
        <ele>663.2</ele>
        <time>2021-02-20T09:41:05Z</time>
      </trkpt>
      <trkpt lat="40.2947700" lon="-3.9100640">
        <ele>662.4</ele>
        <time>2021-02-20T09:41:06Z</time>
      </trkpt>
      <trkpt lat="40.2947390" lon="-3.9099600">
        <ele>661.8</ele>
        <time>2021-02-20T09:41:07Z</time>
      </trkpt>
      <trkpt lat="40.2946790" lon="-3.9097540">
        <ele>660.8</ele>
        <time>2021-02-20T09:41:09Z</time>
      </trkpt>
      <trkpt lat="40.2946400" lon="-3.9096600">
        <ele>660.4</ele>
        <time>2021-02-20T09:41:10Z</time>
      </trkpt>
      <trkpt lat="40.2945390" lon="-3.9094920">
        <ele>659.4</ele>
        <time>2021-02-20T09:41:12Z</time>
      </trkpt>
      <trkpt lat="40.2944240" lon="-3.9093280">
        <ele>658.4</ele>
        <time>2021-02-20T09:41:14Z</time>
      </trkpt>
      <trkpt lat="40.2943050" lon="-3.9091490">
        <ele>657.0</ele>
        <time>2021-02-20T09:41:16Z</time>
      </trkpt>
      <trkpt lat="40.2942600" lon="-3.9090410">
        <ele>656.2</ele>
        <time>2021-02-20T09:41:17Z</time>
      </trkpt>
      <trkpt lat="40.2942160" lon="-3.9089380">
        <ele>655.6</ele>
        <time>2021-02-20T09:41:18Z</time>
      </trkpt>
      <trkpt lat="40.2941550" lon="-3.9088530">
        <ele>655.2</ele>
        <time>2021-02-20T09:41:19Z</time>
      </trkpt>
      <trkpt lat="40.2940120" lon="-3.9086940">
        <ele>654.6</ele>
        <time>2021-02-20T09:41:21Z</time>
      </trkpt>
      <trkpt lat="40.2939400" lon="-3.9086080">
        <ele>653.8</ele>
        <time>2021-02-20T09:41:22Z</time>
      </trkpt>
      <trkpt lat="40.2937250" lon="-3.9083610">
        <ele>653.6</ele>
        <time>2021-02-20T09:41:25Z</time>
      </trkpt>
      <trkpt lat="40.2936340" lon="-3.9082940">
        <ele>653.4</ele>
        <time>2021-02-20T09:41:26Z</time>
      </trkpt>
      <trkpt lat="40.2934700" lon="-3.9081640">
        <ele>652.6</ele>
        <time>2021-02-20T09:41:28Z</time>
      </trkpt>
      <trkpt lat="40.2932890" lon="-3.9080520">
        <ele>651.2</ele>
        <time>2021-02-20T09:41:30Z</time>
      </trkpt>
      <trkpt lat="40.2931920" lon="-3.9080050">
        <ele>650.4</ele>
        <time>2021-02-20T09:41:31Z</time>
      </trkpt>
      <trkpt lat="40.2928790" lon="-3.9078280">
        <ele>651.4</ele>
        <time>2021-02-20T09:41:35Z</time>
      </trkpt>
      <trkpt lat="40.2927430" lon="-3.9077390">
        <ele>652.2</ele>
        <time>2021-02-20T09:41:37Z</time>
      </trkpt>
      <trkpt lat="40.2926820" lon="-3.9076830">
        <ele>652.4</ele>
        <time>2021-02-20T09:41:38Z</time>
      </trkpt>
      <trkpt lat="40.2924610" lon="-3.9075280">
        <ele>650.8</ele>
        <time>2021-02-20T09:41:41Z</time>
      </trkpt>
      <trkpt lat="40.2922340" lon="-3.9073750">
        <ele>649.8</ele>
        <time>2021-02-20T09:41:44Z</time>
      </trkpt>
      <trkpt lat="40.2920780" lon="-3.9072600">
        <ele>647.8</ele>
        <time>2021-02-20T09:41:46Z</time>
      </trkpt>
      <trkpt lat="40.2919960" lon="-3.9072050">
        <ele>646.6</ele>
        <time>2021-02-20T09:41:47Z</time>
      </trkpt>
      <trkpt lat="40.2919150" lon="-3.9071540">
        <ele>645.4</ele>
        <time>2021-02-20T09:41:48Z</time>
      </trkpt>
      <trkpt lat="40.2918390" lon="-3.9070920">
        <ele>644.2</ele>
        <time>2021-02-20T09:41:49Z</time>
      </trkpt>
      <trkpt lat="40.2917790" lon="-3.9070150">
        <ele>643.2</ele>
        <time>2021-02-20T09:41:50Z</time>
      </trkpt>
      <trkpt lat="40.2917340" lon="-3.9069280">
        <ele>642.4</ele>
        <time>2021-02-20T09:41:51Z</time>
      </trkpt>
      <trkpt lat="40.2917360" lon="-3.9067570">
        <ele>642.0</ele>
        <time>2021-02-20T09:41:53Z</time>
      </trkpt>
      <trkpt lat="40.2917800" lon="-3.9066360">
        <ele>642.6</ele>
        <time>2021-02-20T09:41:55Z</time>
      </trkpt>
      <trkpt lat="40.2917670" lon="-3.9065710">
        <ele>643.2</ele>
        <time>2021-02-20T09:41:56Z</time>
      </trkpt>
      <trkpt lat="40.2916880" lon="-3.9065250">
        <ele>643.6</ele>
        <time>2021-02-20T09:41:58Z</time>
      </trkpt>
      <trkpt lat="40.2915910" lon="-3.9065090">
        <ele>644.2</ele>
        <time>2021-02-20T09:42:00Z</time>
      </trkpt>
      <trkpt lat="40.2914900" lon="-3.9064960">
        <ele>645.0</ele>
        <time>2021-02-20T09:42:02Z</time>
      </trkpt>
      <trkpt lat="40.2914400" lon="-3.9064910">
        <ele>645.4</ele>
        <time>2021-02-20T09:42:03Z</time>
      </trkpt>
      <trkpt lat="40.2913880" lon="-3.9064760">
        <ele>645.8</ele>
        <time>2021-02-20T09:42:04Z</time>
      </trkpt>
      <trkpt lat="40.2912010" lon="-3.9064500">
        <ele>645.4</ele>
        <time>2021-02-20T09:42:07Z</time>
      </trkpt>
      <trkpt lat="40.2911240" lon="-3.9064550">
        <ele>645.0</ele>
        <time>2021-02-20T09:42:08Z</time>
      </trkpt>
      <trkpt lat="40.2910440" lon="-3.9064670">
        <ele>644.2</ele>
        <time>2021-02-20T09:42:09Z</time>
      </trkpt>
      <trkpt lat="40.2908300" lon="-3.9065010">
        <ele>644.0</ele>
        <time>2021-02-20T09:42:12Z</time>
      </trkpt>
      <trkpt lat="40.2906540" lon="-3.9065150">
        <ele>645.4</ele>
        <time>2021-02-20T09:42:15Z</time>
      </trkpt>
      <trkpt lat="40.2905290" lon="-3.9065230">
        <ele>645.6</ele>
        <time>2021-02-20T09:42:17Z</time>
      </trkpt>
      <trkpt lat="40.2901200" lon="-3.9065110">
        <ele>644.8</ele>
        <time>2021-02-20T09:42:23Z</time>
      </trkpt>
      <trkpt lat="40.2899830" lon="-3.9064980">
        <ele>644.4</ele>
        <time>2021-02-20T09:42:25Z</time>
      </trkpt>
      <trkpt lat="40.2898510" lon="-3.9065120">
        <ele>644.6</ele>
        <time>2021-02-20T09:42:27Z</time>
      </trkpt>
      <trkpt lat="40.2897260" lon="-3.9065500">
        <ele>644.6</ele>
        <time>2021-02-20T09:42:29Z</time>
      </trkpt>
      <trkpt lat="40.2896730" lon="-3.9065790">
        <ele>644.8</ele>
        <time>2021-02-20T09:42:30Z</time>
      </trkpt>
      <trkpt lat="40.2895660" lon="-3.9066380">
        <ele>645.6</ele>
        <time>2021-02-20T09:42:32Z</time>
      </trkpt>
      <trkpt lat="40.2894540" lon="-3.9066880">
        <ele>645.6</ele>
        <time>2021-02-20T09:42:34Z</time>
      </trkpt>
      <trkpt lat="40.2893440" lon="-3.9067300">
        <ele>645.8</ele>
        <time>2021-02-20T09:42:36Z</time>
      </trkpt>
      <trkpt lat="40.2891740" lon="-3.9068100">
        <ele>646.0</ele>
        <time>2021-02-20T09:42:39Z</time>
      </trkpt>
      <trkpt lat="40.2891030" lon="-3.9069100">
        <ele>647.0</ele>
        <time>2021-02-20T09:42:41Z</time>
      </trkpt>
      <trkpt lat="40.2890690" lon="-3.9069480">
        <ele>647.4</ele>
        <time>2021-02-20T09:42:42Z</time>
      </trkpt>
      <trkpt lat="40.2889950" lon="-3.9070200">
        <ele>648.0</ele>
        <time>2021-02-20T09:42:44Z</time>
      </trkpt>
      <trkpt lat="40.2889070" lon="-3.9070950">
        <ele>648.4</ele>
        <time>2021-02-20T09:42:46Z</time>
      </trkpt>
      <trkpt lat="40.2888470" lon="-3.9071010">
        <ele>648.2</ele>
        <time>2021-02-20T09:42:47Z</time>
      </trkpt>
      <trkpt lat="40.2886390" lon="-3.9070960">
        <ele>646.6</ele>
        <time>2021-02-20T09:42:50Z</time>
      </trkpt>
      <trkpt lat="40.2885630" lon="-3.9070880">
        <ele>646.0</ele>
        <time>2021-02-20T09:42:51Z</time>
      </trkpt>
      <trkpt lat="40.2884230" lon="-3.9071040">
        <ele>645.4</ele>
        <time>2021-02-20T09:42:53Z</time>
      </trkpt>
      <trkpt lat="40.2883320" lon="-3.9071290">
        <ele>645.6</ele>
        <time>2021-02-20T09:42:55Z</time>
      </trkpt>
      <trkpt lat="40.2881830" lon="-3.9070930">
        <ele>646.2</ele>
        <time>2021-02-20T09:42:59Z</time>
      </trkpt>
      <trkpt lat="40.2881330" lon="-3.9070960">
        <ele>646.2</ele>
        <time>2021-02-20T09:43:00Z</time>
      </trkpt>
      <trkpt lat="40.2880360" lon="-3.9071160">
        <ele>646.4</ele>
        <time>2021-02-20T09:43:02Z</time>
      </trkpt>
      <trkpt lat="40.2879870" lon="-3.9070790">
        <ele>646.4</ele>
        <time>2021-02-20T09:43:03Z</time>
      </trkpt>
      <trkpt lat="40.2878710" lon="-3.9070760">
        <ele>646.0</ele>
        <time>2021-02-20T09:43:05Z</time>
      </trkpt>
      <trkpt lat="40.2878100" lon="-3.9070620">
        <ele>645.6</ele>
        <time>2021-02-20T09:43:06Z</time>
      </trkpt>
      <trkpt lat="40.2877370" lon="-3.9070640">
        <ele>645.0</ele>
        <time>2021-02-20T09:43:07Z</time>
      </trkpt>
      <trkpt lat="40.2875840" lon="-3.9070750">
        <ele>643.8</ele>
        <time>2021-02-20T09:43:09Z</time>
      </trkpt>
      <trkpt lat="40.2875010" lon="-3.9070780">
        <ele>643.0</ele>
        <time>2021-02-20T09:43:10Z</time>
      </trkpt>
      <trkpt lat="40.2874190" lon="-3.9070760">
        <ele>642.4</ele>
        <time>2021-02-20T09:43:11Z</time>
      </trkpt>
      <trkpt lat="40.2872710" lon="-3.9070460">
        <ele>642.0</ele>
        <time>2021-02-20T09:43:13Z</time>
      </trkpt>
      <trkpt lat="40.2871290" lon="-3.9070020">
        <ele>641.8</ele>
        <time>2021-02-20T09:43:15Z</time>
      </trkpt>
      <trkpt lat="40.2869980" lon="-3.9068950">
        <ele>641.4</ele>
        <time>2021-02-20T09:43:17Z</time>
      </trkpt>
      <trkpt lat="40.2868780" lon="-3.9068330">
        <ele>641.6</ele>
        <time>2021-02-20T09:43:19Z</time>
      </trkpt>
      <trkpt lat="40.2867620" lon="-3.9068120">
        <ele>642.6</ele>
        <time>2021-02-20T09:43:21Z</time>
      </trkpt>
      <trkpt lat="40.2866390" lon="-3.9067790">
        <ele>643.0</ele>
        <time>2021-02-20T09:43:23Z</time>
      </trkpt>
      <trkpt lat="40.2863980" lon="-3.9066810">
        <ele>643.4</ele>
        <time>2021-02-20T09:43:27Z</time>
      </trkpt>
      <trkpt lat="40.2862870" lon="-3.9066380">
        <ele>643.8</ele>
        <time>2021-02-20T09:43:29Z</time>
      </trkpt>
      <trkpt lat="40.2861860" lon="-3.9065970">
        <ele>644.8</ele>
        <time>2021-02-20T09:43:31Z</time>
      </trkpt>
      <trkpt lat="40.2861370" lon="-3.9065790">
        <ele>645.4</ele>
        <time>2021-02-20T09:43:32Z</time>
      </trkpt>
      <trkpt lat="40.2860380" lon="-3.9065520">
        <ele>646.2</ele>
        <time>2021-02-20T09:43:34Z</time>
      </trkpt>
      <trkpt lat="40.2859200" lon="-3.9065280">
        <ele>646.2</ele>
        <time>2021-02-20T09:43:36Z</time>
      </trkpt>
      <trkpt lat="40.2858550" lon="-3.9065320">
        <ele>645.6</ele>
        <time>2021-02-20T09:43:37Z</time>
      </trkpt>
      <trkpt lat="40.2857190" lon="-3.9065280">
        <ele>644.8</ele>
        <time>2021-02-20T09:43:39Z</time>
      </trkpt>
      <trkpt lat="40.2856570" lon="-3.9065570">
        <ele>644.4</ele>
        <time>2021-02-20T09:43:40Z</time>
      </trkpt>
      <trkpt lat="40.2855140" lon="-3.9065750">
        <ele>643.2</ele>
        <time>2021-02-20T09:43:42Z</time>
      </trkpt>
      <trkpt lat="40.2854560" lon="-3.9065670">
        <ele>642.8</ele>
        <time>2021-02-20T09:43:43Z</time>
      </trkpt>
      <trkpt lat="40.2853920" lon="-3.9065590">
        <ele>642.4</ele>
        <time>2021-02-20T09:43:44Z</time>
      </trkpt>
      <trkpt lat="40.2853260" lon="-3.9065680">
        <ele>642.2</ele>
        <time>2021-02-20T09:43:45Z</time>
      </trkpt>
      <trkpt lat="40.2852610" lon="-3.9065890">
        <ele>642.2</ele>
        <time>2021-02-20T09:43:46Z</time>
      </trkpt>
      <trkpt lat="40.2851320" lon="-3.9065890">
        <ele>642.2</ele>
        <time>2021-02-20T09:43:48Z</time>
      </trkpt>
      <trkpt lat="40.2849420" lon="-3.9065740">
        <ele>642.4</ele>
        <time>2021-02-20T09:43:51Z</time>
      </trkpt>
      <trkpt lat="40.2848110" lon="-3.9065910">
        <ele>642.2</ele>
        <time>2021-02-20T09:43:53Z</time>
      </trkpt>
      <trkpt lat="40.2845820" lon="-3.9066040">
        <ele>640.6</ele>
        <time>2021-02-20T09:43:56Z</time>
      </trkpt>
      <trkpt lat="40.2844090" lon="-3.9066090">
        <ele>639.2</ele>
        <time>2021-02-20T09:43:58Z</time>
      </trkpt>
      <trkpt lat="40.2841600" lon="-3.9066060">
        <ele>638.2</ele>
        <time>2021-02-20T09:44:01Z</time>
      </trkpt>
      <trkpt lat="40.2840110" lon="-3.9065750">
        <ele>638.4</ele>
        <time>2021-02-20T09:44:03Z</time>
      </trkpt>
      <trkpt lat="40.2839490" lon="-3.9065650">
        <ele>638.6</ele>
        <time>2021-02-20T09:44:04Z</time>
      </trkpt>
      <trkpt lat="40.2837000" lon="-3.9065650">
        <ele>639.2</ele>
        <time>2021-02-20T09:44:08Z</time>
      </trkpt>
      <trkpt lat="40.2834060" lon="-3.9065600">
        <ele>637.2</ele>
        <time>2021-02-20T09:44:12Z</time>
      </trkpt>
      <trkpt lat="40.2833260" lon="-3.9065500">
        <ele>636.4</ele>
        <time>2021-02-20T09:44:13Z</time>
      </trkpt>
      <trkpt lat="40.2832470" lon="-3.9065380">
        <ele>636.0</ele>
        <time>2021-02-20T09:44:14Z</time>
      </trkpt>
      <trkpt lat="40.2830900" lon="-3.9065120">
        <ele>635.4</ele>
        <time>2021-02-20T09:44:16Z</time>
      </trkpt>
      <trkpt lat="40.2829450" lon="-3.9064620">
        <ele>635.2</ele>
        <time>2021-02-20T09:44:18Z</time>
      </trkpt>
      <trkpt lat="40.2828700" lon="-3.9064530">
        <ele>635.0</ele>
        <time>2021-02-20T09:44:19Z</time>
      </trkpt>
      <trkpt lat="40.2827300" lon="-3.9064890">
        <ele>633.6</ele>
        <time>2021-02-20T09:44:21Z</time>
      </trkpt>
      <trkpt lat="40.2826680" lon="-3.9065250">
        <ele>633.0</ele>
        <time>2021-02-20T09:44:22Z</time>
      </trkpt>
      <trkpt lat="40.2826160" lon="-3.9065300">
        <ele>632.4</ele>
        <time>2021-02-20T09:44:23Z</time>
      </trkpt>
      <trkpt lat="40.2825340" lon="-3.9064330">
        <ele>631.0</ele>
        <time>2021-02-20T09:44:25Z</time>
      </trkpt>
      <trkpt lat="40.2824950" lon="-3.9063910">
        <ele>630.2</ele>
        <time>2021-02-20T09:44:26Z</time>
      </trkpt>
      <trkpt lat="40.2824440" lon="-3.9063690">
        <ele>629.4</ele>
        <time>2021-02-20T09:44:27Z</time>
      </trkpt>
      <trkpt lat="40.2823270" lon="-3.9063110">
        <ele>627.8</ele>
        <time>2021-02-20T09:44:29Z</time>
      </trkpt>
      <trkpt lat="40.2822720" lon="-3.9062470">
        <ele>627.2</ele>
        <time>2021-02-20T09:44:30Z</time>
      </trkpt>
      <trkpt lat="40.2822300" lon="-3.9061740">
        <ele>626.6</ele>
        <time>2021-02-20T09:44:31Z</time>
      </trkpt>
      <trkpt lat="40.2821930" lon="-3.9061020">
        <ele>625.8</ele>
        <time>2021-02-20T09:44:32Z</time>
      </trkpt>
      <trkpt lat="40.2821520" lon="-3.9060570">
        <ele>625.0</ele>
        <time>2021-02-20T09:44:33Z</time>
      </trkpt>
      <trkpt lat="40.2821040" lon="-3.9060290">
        <ele>623.8</ele>
        <time>2021-02-20T09:44:34Z</time>
      </trkpt>
      <trkpt lat="40.2820590" lon="-3.9060110">
        <ele>623.2</ele>
        <time>2021-02-20T09:44:35Z</time>
      </trkpt>
      <trkpt lat="40.2820200" lon="-3.9059950">
        <ele>622.6</ele>
        <time>2021-02-20T09:44:36Z</time>
      </trkpt>
      <trkpt lat="40.2819380" lon="-3.9059490">
        <ele>620.8</ele>
        <time>2021-02-20T09:44:38Z</time>
      </trkpt>
      <trkpt lat="40.2819010" lon="-3.9059300">
        <ele>619.6</ele>
        <time>2021-02-20T09:44:39Z</time>
      </trkpt>
      <trkpt lat="40.2818670" lon="-3.9059140">
        <ele>618.6</ele>
        <time>2021-02-20T09:44:40Z</time>
      </trkpt>
      <trkpt lat="40.2818300" lon="-3.9059090">
        <ele>617.2</ele>
        <time>2021-02-20T09:44:41Z</time>
      </trkpt>
      <trkpt lat="40.2817860" lon="-3.9059220">
        <ele>616.2</ele>
        <time>2021-02-20T09:44:42Z</time>
      </trkpt>
      <trkpt lat="40.2816850" lon="-3.9060140">
        <ele>614.6</ele>
        <time>2021-02-20T09:44:44Z</time>
      </trkpt>
      <trkpt lat="40.2815650" lon="-3.9060920">
        <ele>612.8</ele>
        <time>2021-02-20T09:44:46Z</time>
      </trkpt>
      <trkpt lat="40.2814810" lon="-3.9060930">
        <ele>611.4</ele>
        <time>2021-02-20T09:44:48Z</time>
      </trkpt>
      <trkpt lat="40.2813580" lon="-3.9059720">
        <ele>610.2</ele>
        <time>2021-02-20T09:44:51Z</time>
      </trkpt>
      <trkpt lat="40.2813050" lon="-3.9059390">
        <ele>610.0</ele>
        <time>2021-02-20T09:44:52Z</time>
      </trkpt>
      <trkpt lat="40.2811910" lon="-3.9059420">
        <ele>609.0</ele>
        <time>2021-02-20T09:44:54Z</time>
      </trkpt>
      <trkpt lat="40.2811160" lon="-3.9060330">
        <ele>607.8</ele>
        <time>2021-02-20T09:44:56Z</time>
      </trkpt>
      <trkpt lat="40.2810930" lon="-3.9060960">
        <ele>607.6</ele>
        <time>2021-02-20T09:44:57Z</time>
      </trkpt>
      <trkpt lat="40.2810530" lon="-3.9062360">
        <ele>606.4</ele>
        <time>2021-02-20T09:44:59Z</time>
      </trkpt>
      <trkpt lat="40.2810380" lon="-3.9063680">
        <ele>605.8</ele>
        <time>2021-02-20T09:45:01Z</time>
      </trkpt>
      <trkpt lat="40.2810210" lon="-3.9064220">
        <ele>605.4</ele>
        <time>2021-02-20T09:45:02Z</time>
      </trkpt>
      <trkpt lat="40.2809390" lon="-3.9064880">
        <ele>604.0</ele>
        <time>2021-02-20T09:45:05Z</time>
      </trkpt>
      <trkpt lat="40.2808590" lon="-3.9064900">
        <ele>602.6</ele>
        <time>2021-02-20T09:45:07Z</time>
      </trkpt>
      <trkpt lat="40.2808130" lon="-3.9064980">
        <ele>601.8</ele>
        <time>2021-02-20T09:45:08Z</time>
      </trkpt>
      <trkpt lat="40.2807570" lon="-3.9065120">
        <ele>601.0</ele>
        <time>2021-02-20T09:45:09Z</time>
      </trkpt>
      <trkpt lat="40.2806940" lon="-3.9065140">
        <ele>599.8</ele>
        <time>2021-02-20T09:45:10Z</time>
      </trkpt>
      <trkpt lat="40.2806280" lon="-3.9065090">
        <ele>598.8</ele>
        <time>2021-02-20T09:45:11Z</time>
      </trkpt>
      <trkpt lat="40.2805890" lon="-3.9064970">
        <ele>597.6</ele>
        <time>2021-02-20T09:45:12Z</time>
      </trkpt>
      <trkpt lat="40.2805740" lon="-3.9064900">
        <ele>596.6</ele>
        <time>2021-02-20T09:45:13Z</time>
      </trkpt>
      <trkpt lat="40.2805550" lon="-3.9064730">
        <ele>596.0</ele>
        <time>2021-02-20T09:45:14Z</time>
      </trkpt>
      <trkpt lat="40.2805100" lon="-3.9064640">
        <ele>595.4</ele>
        <time>2021-02-20T09:45:16Z</time>
      </trkpt>
      <trkpt lat="40.2804940" lon="-3.9064600">
        <ele>595.2</ele>
        <time>2021-02-20T09:45:17Z</time>
      </trkpt>
      <trkpt lat="40.2804660" lon="-3.9064110">
        <ele>595.0</ele>
        <time>2021-02-20T09:45:22Z</time>
      </trkpt>
      <trkpt lat="40.2804490" lon="-3.9063890">
        <ele>594.8</ele>
        <time>2021-02-20T09:45:23Z</time>
      </trkpt>
      <trkpt lat="40.2803650" lon="-3.9062170">
        <ele>594.6</ele>
        <time>2021-02-20T09:45:27Z</time>
      </trkpt>
      <trkpt lat="40.2803440" lon="-3.9061400">
        <ele>594.6</ele>
        <time>2021-02-20T09:45:29Z</time>
      </trkpt>
      <trkpt lat="40.2803730" lon="-3.9060580">
        <ele>594.4</ele>
        <time>2021-02-20T09:45:31Z</time>
      </trkpt>
      <trkpt lat="40.2804190" lon="-3.9059800">
        <ele>594.4</ele>
        <time>2021-02-20T09:45:33Z</time>
      </trkpt>
      <trkpt lat="40.2804870" lon="-3.9058540">
        <ele>594.6</ele>
        <time>2021-02-20T09:45:36Z</time>
      </trkpt>
      <trkpt lat="40.2805370" lon="-3.9057630">
        <ele>594.8</ele>
        <time>2021-02-20T09:45:38Z</time>
      </trkpt>
      <trkpt lat="40.2805760" lon="-3.9055910">
        <ele>594.8</ele>
        <time>2021-02-20T09:45:41Z</time>
      </trkpt>
      <trkpt lat="40.2805840" lon="-3.9054620">
        <ele>594.8</ele>
        <time>2021-02-20T09:45:43Z</time>
      </trkpt>
      <trkpt lat="40.2805900" lon="-3.9052530">
        <ele>594.6</ele>
        <time>2021-02-20T09:45:46Z</time>
      </trkpt>
      <trkpt lat="40.2806030" lon="-3.9050550">
        <ele>594.8</ele>
        <time>2021-02-20T09:45:49Z</time>
      </trkpt>
      <trkpt lat="40.2806160" lon="-3.9048530">
        <ele>594.6</ele>
        <time>2021-02-20T09:45:52Z</time>
      </trkpt>
      <trkpt lat="40.2806300" lon="-3.9047870">
        <ele>594.6</ele>
        <time>2021-02-20T09:45:53Z</time>
      </trkpt>
      <trkpt lat="40.2806970" lon="-3.9045450">
        <ele>595.0</ele>
        <time>2021-02-20T09:45:57Z</time>
      </trkpt>
      <trkpt lat="40.2807950" lon="-3.9042850">
        <ele>595.4</ele>
        <time>2021-02-20T09:46:02Z</time>
      </trkpt>
      <trkpt lat="40.2808230" lon="-3.9041700">
        <ele>595.8</ele>
        <time>2021-02-20T09:46:04Z</time>
      </trkpt>
      <trkpt lat="40.2808680" lon="-3.9039980">
        <ele>596.0</ele>
        <time>2021-02-20T09:46:07Z</time>
      </trkpt>
      <trkpt lat="40.2809840" lon="-3.9037120">
        <ele>596.4</ele>
        <time>2021-02-20T09:46:12Z</time>
      </trkpt>
      <trkpt lat="40.2810500" lon="-3.9036110">
        <ele>596.2</ele>
        <time>2021-02-20T09:46:14Z</time>
      </trkpt>
      <trkpt lat="40.2811670" lon="-3.9034790">
        <ele>596.4</ele>
        <time>2021-02-20T09:46:17Z</time>
      </trkpt>
      <trkpt lat="40.2812080" lon="-3.9034330">
        <ele>596.4</ele>
        <time>2021-02-20T09:46:18Z</time>
      </trkpt>
      <trkpt lat="40.2815100" lon="-3.9031300">
        <ele>596.6</ele>
        <time>2021-02-20T09:46:25Z</time>
      </trkpt>
      <trkpt lat="40.2817150" lon="-3.9028970">
        <ele>597.0</ele>
        <time>2021-02-20T09:46:30Z</time>
      </trkpt>
      <trkpt lat="40.2818810" lon="-3.9027250">
        <ele>597.8</ele>
        <time>2021-02-20T09:46:34Z</time>
      </trkpt>
      <trkpt lat="40.2820910" lon="-3.9025230">
        <ele>598.2</ele>
        <time>2021-02-20T09:46:39Z</time>
      </trkpt>
      <trkpt lat="40.2821700" lon="-3.9024370">
        <ele>598.4</ele>
        <time>2021-02-20T09:46:41Z</time>
      </trkpt>
      <trkpt lat="40.2822990" lon="-3.9023280">
        <ele>599.0</ele>
        <time>2021-02-20T09:46:44Z</time>
      </trkpt>
      <trkpt lat="40.2823440" lon="-3.9022970">
        <ele>599.2</ele>
        <time>2021-02-20T09:46:45Z</time>
      </trkpt>
      <trkpt lat="40.2824370" lon="-3.9022410">
        <ele>599.4</ele>
        <time>2021-02-20T09:46:47Z</time>
      </trkpt>
      <trkpt lat="40.2825350" lon="-3.9021760">
        <ele>599.4</ele>
        <time>2021-02-20T09:46:49Z</time>
      </trkpt>
      <trkpt lat="40.2826900" lon="-3.9020630">
        <ele>599.4</ele>
        <time>2021-02-20T09:46:52Z</time>
      </trkpt>
      <trkpt lat="40.2830100" lon="-3.9018720">
        <ele>599.6</ele>
        <time>2021-02-20T09:46:58Z</time>
      </trkpt>
      <trkpt lat="40.2832780" lon="-3.9017460">
        <ele>600.4</ele>
        <time>2021-02-20T09:47:03Z</time>
      </trkpt>
      <trkpt lat="40.2835010" lon="-3.9016480">
        <ele>600.6</ele>
        <time>2021-02-20T09:47:07Z</time>
      </trkpt>
      <trkpt lat="40.2839110" lon="-3.9014850">
        <ele>600.0</ele>
        <time>2021-02-20T09:47:14Z</time>
      </trkpt>
      <trkpt lat="40.2841030" lon="-3.9013950">
        <ele>599.6</ele>
        <time>2021-02-20T09:47:17Z</time>
      </trkpt>
      <trkpt lat="40.2842240" lon="-3.9013080">
        <ele>599.4</ele>
        <time>2021-02-20T09:47:19Z</time>
      </trkpt>
      <trkpt lat="40.2843930" lon="-3.9010470">
        <ele>599.6</ele>
        <time>2021-02-20T09:47:23Z</time>
      </trkpt>
      <trkpt lat="40.2844520" lon="-3.9008880">
        <ele>599.6</ele>
        <time>2021-02-20T09:47:25Z</time>
      </trkpt>
      <trkpt lat="40.2845290" lon="-3.9006440">
        <ele>599.4</ele>
        <time>2021-02-20T09:47:28Z</time>
      </trkpt>
      <trkpt lat="40.2846120" lon="-3.9003340">
        <ele>599.6</ele>
        <time>2021-02-20T09:47:32Z</time>
      </trkpt>
      <trkpt lat="40.2846360" lon="-3.9001890">
        <ele>599.4</ele>
        <time>2021-02-20T09:47:34Z</time>
      </trkpt>
      <trkpt lat="40.2846490" lon="-3.9001230">
        <ele>599.2</ele>
        <time>2021-02-20T09:47:35Z</time>
      </trkpt>
      <trkpt lat="40.2846910" lon="-3.8999950">
        <ele>599.4</ele>
        <time>2021-02-20T09:47:37Z</time>
      </trkpt>
      <trkpt lat="40.2847590" lon="-3.8998790">
        <ele>599.6</ele>
        <time>2021-02-20T09:47:39Z</time>
      </trkpt>
      <trkpt lat="40.2848640" lon="-3.8997850">
        <ele>599.8</ele>
        <time>2021-02-20T09:47:41Z</time>
      </trkpt>
      <trkpt lat="40.2849620" lon="-3.8996940">
        <ele>600.2</ele>
        <time>2021-02-20T09:47:43Z</time>
      </trkpt>
      <trkpt lat="40.2850860" lon="-3.8995200">
        <ele>600.2</ele>
        <time>2021-02-20T09:47:46Z</time>
      </trkpt>
      <trkpt lat="40.2851430" lon="-3.8993900">
        <ele>600.2</ele>
        <time>2021-02-20T09:47:48Z</time>
      </trkpt>
      <trkpt lat="40.2851820" lon="-3.8992750">
        <ele>600.2</ele>
        <time>2021-02-20T09:47:50Z</time>
      </trkpt>
      <trkpt lat="40.2852270" lon="-3.8990810">
        <ele>600.4</ele>
        <time>2021-02-20T09:47:53Z</time>
      </trkpt>
      <trkpt lat="40.2853160" lon="-3.8986180">
        <ele>601.0</ele>
        <time>2021-02-20T09:48:00Z</time>
      </trkpt>
      <trkpt lat="40.2853670" lon="-3.8982950">
        <ele>601.4</ele>
        <time>2021-02-20T09:48:05Z</time>
      </trkpt>
      <trkpt lat="40.2853830" lon="-3.8981630">
        <ele>601.8</ele>
        <time>2021-02-20T09:48:07Z</time>
      </trkpt>
      <trkpt lat="40.2854640" lon="-3.8975520">
        <ele>602.0</ele>
        <time>2021-02-20T09:48:17Z</time>
      </trkpt>
      <trkpt lat="40.2855710" lon="-3.8973020">
        <ele>602.2</ele>
        <time>2021-02-20T09:48:22Z</time>
      </trkpt>
      <trkpt lat="40.2855420" lon="-3.8971730">
        <ele>602.0</ele>
        <time>2021-02-20T09:48:25Z</time>
      </trkpt>
      <trkpt lat="40.2854840" lon="-3.8970640">
        <ele>601.2</ele>
        <time>2021-02-20T09:48:28Z</time>
      </trkpt>
      <trkpt lat="40.2854680" lon="-3.8970410">
        <ele>601.2</ele>
        <time>2021-02-20T09:48:29Z</time>
      </trkpt>
      <trkpt lat="40.2854190" lon="-3.8970190">
        <ele>601.0</ele>
        <time>2021-02-20T09:48:31Z</time>
      </trkpt>
      <trkpt lat="40.2853790" lon="-3.8969810">
        <ele>600.8</ele>
        <time>2021-02-20T09:48:33Z</time>
      </trkpt>
      <trkpt lat="40.2852540" lon="-3.8969150">
        <ele>600.6</ele>
        <time>2021-02-20T09:48:39Z</time>
      </trkpt>
      <trkpt lat="40.2850870" lon="-3.8968560">
        <ele>601.2</ele>
        <time>2021-02-20T09:48:45Z</time>
      </trkpt>
      <trkpt lat="40.2848870" lon="-3.8968260">
        <ele>602.4</ele>
        <time>2021-02-20T09:48:51Z</time>
      </trkpt>
      <trkpt lat="40.2848540" lon="-3.8968610">
        <ele>602.8</ele>
        <time>2021-02-20T09:48:52Z</time>
      </trkpt>
      <trkpt lat="40.2847730" lon="-3.8969210">
        <ele>603.6</ele>
        <time>2021-02-20T09:48:55Z</time>
      </trkpt>
      <trkpt lat="40.2847540" lon="-3.8969510">
        <ele>603.8</ele>
        <time>2021-02-20T09:48:56Z</time>
      </trkpt>
      <trkpt lat="40.2846740" lon="-3.8970730">
        <ele>604.8</ele>
        <time>2021-02-20T09:49:00Z</time>
      </trkpt>
      <trkpt lat="40.2846020" lon="-3.8971390">
        <ele>605.6</ele>
        <time>2021-02-20T09:49:03Z</time>
      </trkpt>
      <trkpt lat="40.2845730" lon="-3.8971430">
        <ele>606.0</ele>
        <time>2021-02-20T09:49:04Z</time>
      </trkpt>
      <trkpt lat="40.2845400" lon="-3.8971480">
        <ele>606.2</ele>
        <time>2021-02-20T09:49:05Z</time>
      </trkpt>
      <trkpt lat="40.2844530" lon="-3.8971320">
        <ele>607.2</ele>
        <time>2021-02-20T09:49:08Z</time>
      </trkpt>
      <trkpt lat="40.2843990" lon="-3.8970890">
        <ele>607.6</ele>
        <time>2021-02-20T09:49:10Z</time>
      </trkpt>
      <trkpt lat="40.2842440" lon="-3.8969700">
        <ele>608.2</ele>
        <time>2021-02-20T09:49:14Z</time>
      </trkpt>
      <trkpt lat="40.2841710" lon="-3.8969200">
        <ele>608.8</ele>
        <time>2021-02-20T09:49:16Z</time>
      </trkpt>
      <trkpt lat="40.2840780" lon="-3.8968410">
        <ele>609.4</ele>
        <time>2021-02-20T09:49:19Z</time>
      </trkpt>
      <trkpt lat="40.2839570" lon="-3.8967020">
        <ele>610.2</ele>
        <time>2021-02-20T09:49:23Z</time>
      </trkpt>
      <trkpt lat="40.2839200" lon="-3.8966720">
        <ele>610.2</ele>
        <time>2021-02-20T09:49:24Z</time>
      </trkpt>
      <trkpt lat="40.2838150" lon="-3.8965810">
        <ele>610.6</ele>
        <time>2021-02-20T09:49:27Z</time>
      </trkpt>
      <trkpt lat="40.2837500" lon="-3.8965130">
        <ele>610.8</ele>
        <time>2021-02-20T09:49:29Z</time>
      </trkpt>
      <trkpt lat="40.2835670" lon="-3.8962750">
        <ele>611.4</ele>
        <time>2021-02-20T09:49:35Z</time>
      </trkpt>
      <trkpt lat="40.2835440" lon="-3.8962310">
        <ele>611.6</ele>
        <time>2021-02-20T09:49:36Z</time>
      </trkpt>
      <trkpt lat="40.2835210" lon="-3.8961900">
        <ele>611.8</ele>
        <time>2021-02-20T09:49:37Z</time>
      </trkpt>
      <trkpt lat="40.2834330" lon="-3.8960670">
        <ele>611.8</ele>
        <time>2021-02-20T09:49:40Z</time>
      </trkpt>
      <trkpt lat="40.2833170" lon="-3.8959710">
        <ele>612.2</ele>
        <time>2021-02-20T09:49:43Z</time>
      </trkpt>
      <trkpt lat="40.2830820" lon="-3.8958000">
        <ele>612.8</ele>
        <time>2021-02-20T09:49:49Z</time>
      </trkpt>
      <trkpt lat="40.2829730" lon="-3.8956850">
        <ele>612.8</ele>
        <time>2021-02-20T09:49:52Z</time>
      </trkpt>
      <trkpt lat="40.2828090" lon="-3.8955470">
        <ele>613.0</ele>
        <time>2021-02-20T09:49:56Z</time>
      </trkpt>
      <trkpt lat="40.2826680" lon="-3.8954890">
        <ele>613.2</ele>
        <time>2021-02-20T09:49:59Z</time>
      </trkpt>
      <trkpt lat="40.2824850" lon="-3.8954370">
        <ele>613.6</ele>
        <time>2021-02-20T09:50:03Z</time>
      </trkpt>
      <trkpt lat="40.2824410" lon="-3.8954150">
        <ele>613.8</ele>
        <time>2021-02-20T09:50:04Z</time>
      </trkpt>
      <trkpt lat="40.2823320" lon="-3.8953060">
        <ele>614.2</ele>
        <time>2021-02-20T09:50:07Z</time>
      </trkpt>
      <trkpt lat="40.2822940" lon="-3.8952670">
        <ele>614.2</ele>
        <time>2021-02-20T09:50:08Z</time>
      </trkpt>
      <trkpt lat="40.2820820" lon="-3.8950200">
        <ele>614.4</ele>
        <time>2021-02-20T09:50:14Z</time>
      </trkpt>
      <trkpt lat="40.2820490" lon="-3.8949750">
        <ele>614.4</ele>
        <time>2021-02-20T09:50:15Z</time>
      </trkpt>
      <trkpt lat="40.2818620" lon="-3.8947040">
        <ele>614.6</ele>
        <time>2021-02-20T09:50:21Z</time>
      </trkpt>
      <trkpt lat="40.2818050" lon="-3.8946210">
        <ele>614.8</ele>
        <time>2021-02-20T09:50:23Z</time>
      </trkpt>
      <trkpt lat="40.2816980" lon="-3.8944950">
        <ele>615.0</ele>
        <time>2021-02-20T09:50:26Z</time>
      </trkpt>
      <trkpt lat="40.2814020" lon="-3.8941140">
        <ele>616.0</ele>
        <time>2021-02-20T09:50:35Z</time>
      </trkpt>
      <trkpt lat="40.2813370" lon="-3.8940390">
        <ele>616.0</ele>
        <time>2021-02-20T09:50:37Z</time>
      </trkpt>
      <trkpt lat="40.2810410" lon="-3.8937710">
        <ele>617.0</ele>
        <time>2021-02-20T09:50:45Z</time>
      </trkpt>
      <trkpt lat="40.2807430" lon="-3.8935890">
        <ele>617.6</ele>
        <time>2021-02-20T09:50:52Z</time>
      </trkpt>
      <trkpt lat="40.2805760" lon="-3.8934760">
        <ele>618.0</ele>
        <time>2021-02-20T09:50:56Z</time>
      </trkpt>
      <trkpt lat="40.2805340" lon="-3.8934470">
        <ele>618.0</ele>
        <time>2021-02-20T09:50:57Z</time>
      </trkpt>
      <trkpt lat="40.2804040" lon="-3.8933650">
        <ele>618.6</ele>
        <time>2021-02-20T09:51:00Z</time>
      </trkpt>
      <trkpt lat="40.2802410" lon="-3.8932400">
        <ele>619.0</ele>
        <time>2021-02-20T09:51:04Z</time>
      </trkpt>
      <trkpt lat="40.2800120" lon="-3.8930560">
        <ele>619.8</ele>
        <time>2021-02-20T09:51:10Z</time>
      </trkpt>
      <trkpt lat="40.2799450" lon="-3.8930000">
        <ele>620.2</ele>
        <time>2021-02-20T09:51:12Z</time>
      </trkpt>
      <trkpt lat="40.2798210" lon="-3.8928690">
        <ele>621.2</ele>
        <time>2021-02-20T09:51:16Z</time>
      </trkpt>
      <trkpt lat="40.2796670" lon="-3.8927000">
        <ele>622.4</ele>
        <time>2021-02-20T09:51:21Z</time>
      </trkpt>
      <trkpt lat="40.2795740" lon="-3.8925850">
        <ele>622.6</ele>
        <time>2021-02-20T09:51:24Z</time>
      </trkpt>
      <trkpt lat="40.2794870" lon="-3.8924570">
        <ele>623.0</ele>
        <time>2021-02-20T09:51:27Z</time>
      </trkpt>
      <trkpt lat="40.2794370" lon="-3.8923670">
        <ele>623.2</ele>
        <time>2021-02-20T09:51:29Z</time>
      </trkpt>
      <trkpt lat="40.2794090" lon="-3.8923270">
        <ele>623.4</ele>
        <time>2021-02-20T09:51:30Z</time>
      </trkpt>
      <trkpt lat="40.2793820" lon="-3.8922840">
        <ele>623.6</ele>
        <time>2021-02-20T09:51:31Z</time>
      </trkpt>
      <trkpt lat="40.2792290" lon="-3.8920040">
        <ele>624.4</ele>
        <time>2021-02-20T09:51:37Z</time>
      </trkpt>
      <trkpt lat="40.2789680" lon="-3.8916520">
        <ele>625.6</ele>
        <time>2021-02-20T09:51:46Z</time>
      </trkpt>
      <trkpt lat="40.2787980" lon="-3.8915060">
        <ele>626.6</ele>
        <time>2021-02-20T09:51:51Z</time>
      </trkpt>
      <trkpt lat="40.2787240" lon="-3.8914700">
        <ele>627.0</ele>
        <time>2021-02-20T09:51:53Z</time>
      </trkpt>
      <trkpt lat="40.2785770" lon="-3.8914210">
        <ele>627.8</ele>
        <time>2021-02-20T09:51:57Z</time>
      </trkpt>
      <trkpt lat="40.2785080" lon="-3.8913940">
        <ele>628.4</ele>
        <time>2021-02-20T09:51:59Z</time>
      </trkpt>
      <trkpt lat="40.2784370" lon="-3.8913670">
        <ele>629.0</ele>
        <time>2021-02-20T09:52:01Z</time>
      </trkpt>
      <trkpt lat="40.2782890" lon="-3.8913180">
        <ele>630.2</ele>
        <time>2021-02-20T09:52:05Z</time>
      </trkpt>
      <trkpt lat="40.2781720" lon="-3.8912770">
        <ele>630.8</ele>
        <time>2021-02-20T09:52:08Z</time>
      </trkpt>
      <trkpt lat="40.2780910" lon="-3.8912450">
        <ele>631.2</ele>
        <time>2021-02-20T09:52:10Z</time>
      </trkpt>
      <trkpt lat="40.2780520" lon="-3.8912240">
        <ele>631.6</ele>
        <time>2021-02-20T09:52:11Z</time>
      </trkpt>
      <trkpt lat="40.2779430" lon="-3.8911480">
        <ele>632.2</ele>
        <time>2021-02-20T09:52:14Z</time>
      </trkpt>
      <trkpt lat="40.2779080" lon="-3.8911200">
        <ele>632.6</ele>
        <time>2021-02-20T09:52:15Z</time>
      </trkpt>
      <trkpt lat="40.2776960" lon="-3.8909980">
        <ele>633.4</ele>
        <time>2021-02-20T09:52:21Z</time>
      </trkpt>
      <trkpt lat="40.2774700" lon="-3.8908730">
        <ele>634.4</ele>
        <time>2021-02-20T09:52:27Z</time>
      </trkpt>
      <trkpt lat="40.2774330" lon="-3.8908570">
        <ele>634.4</ele>
        <time>2021-02-20T09:52:28Z</time>
      </trkpt>
      <trkpt lat="40.2773940" lon="-3.8908440">
        <ele>634.6</ele>
        <time>2021-02-20T09:52:29Z</time>
      </trkpt>
      <trkpt lat="40.2773180" lon="-3.8908030">
        <ele>634.8</ele>
        <time>2021-02-20T09:52:31Z</time>
      </trkpt>
      <trkpt lat="40.2772480" lon="-3.8907500">
        <ele>635.2</ele>
        <time>2021-02-20T09:52:33Z</time>
      </trkpt>
      <trkpt lat="40.2771760" lon="-3.8906930">
        <ele>635.6</ele>
        <time>2021-02-20T09:52:35Z</time>
      </trkpt>
      <trkpt lat="40.2771400" lon="-3.8906670">
        <ele>636.0</ele>
        <time>2021-02-20T09:52:36Z</time>
      </trkpt>
      <trkpt lat="40.2771000" lon="-3.8906460">
        <ele>636.2</ele>
        <time>2021-02-20T09:52:37Z</time>
      </trkpt>
      <trkpt lat="40.2769840" lon="-3.8905830">
        <ele>636.8</ele>
        <time>2021-02-20T09:52:40Z</time>
      </trkpt>
      <trkpt lat="40.2769460" lon="-3.8905580">
        <ele>637.0</ele>
        <time>2021-02-20T09:52:41Z</time>
      </trkpt>
      <trkpt lat="40.2768660" lon="-3.8905080">
        <ele>637.4</ele>
        <time>2021-02-20T09:52:43Z</time>
      </trkpt>
      <trkpt lat="40.2768280" lon="-3.8904890">
        <ele>637.6</ele>
        <time>2021-02-20T09:52:44Z</time>
      </trkpt>
      <trkpt lat="40.2767910" lon="-3.8904710">
        <ele>637.8</ele>
        <time>2021-02-20T09:52:45Z</time>
      </trkpt>
      <trkpt lat="40.2767200" lon="-3.8904260">
        <ele>638.2</ele>
        <time>2021-02-20T09:52:47Z</time>
      </trkpt>
      <trkpt lat="40.2766150" lon="-3.8903470">
        <ele>639.2</ele>
        <time>2021-02-20T09:52:50Z</time>
      </trkpt>
      <trkpt lat="40.2764840" lon="-3.8902420">
        <ele>640.4</ele>
        <time>2021-02-20T09:52:54Z</time>
      </trkpt>
      <trkpt lat="40.2763500" lon="-3.8901220">
        <ele>641.4</ele>
        <time>2021-02-20T09:52:58Z</time>
      </trkpt>
      <trkpt lat="40.2763180" lon="-3.8900850">
        <ele>641.8</ele>
        <time>2021-02-20T09:52:59Z</time>
      </trkpt>
      <trkpt lat="40.2761780" lon="-3.8899480">
        <ele>642.0</ele>
        <time>2021-02-20T09:53:03Z</time>
      </trkpt>
      <trkpt lat="40.2761370" lon="-3.8899220">
        <ele>642.0</ele>
        <time>2021-02-20T09:53:04Z</time>
      </trkpt>
      <trkpt lat="40.2760960" lon="-3.8898930">
        <ele>642.0</ele>
        <time>2021-02-20T09:53:05Z</time>
      </trkpt>
      <trkpt lat="40.2759470" lon="-3.8897410">
        <ele>642.4</ele>
        <time>2021-02-20T09:53:09Z</time>
      </trkpt>
      <trkpt lat="40.2758780" lon="-3.8896570">
        <ele>642.6</ele>
        <time>2021-02-20T09:53:11Z</time>
      </trkpt>
      <trkpt lat="40.2756540" lon="-3.8893450">
        <ele>643.4</ele>
        <time>2021-02-20T09:53:18Z</time>
      </trkpt>
      <trkpt lat="40.2755900" lon="-3.8892580">
        <ele>643.6</ele>
        <time>2021-02-20T09:53:20Z</time>
      </trkpt>
      <trkpt lat="40.2753540" lon="-3.8889820">
        <ele>644.6</ele>
        <time>2021-02-20T09:53:27Z</time>
      </trkpt>
      <trkpt lat="40.2753230" lon="-3.8889410">
        <ele>644.8</ele>
        <time>2021-02-20T09:53:28Z</time>
      </trkpt>
      <trkpt lat="40.2751910" lon="-3.8887860">
        <ele>645.6</ele>
        <time>2021-02-20T09:53:32Z</time>
      </trkpt>
      <trkpt lat="40.2751580" lon="-3.8887470">
        <ele>645.8</ele>
        <time>2021-02-20T09:53:33Z</time>
      </trkpt>
      <trkpt lat="40.2750660" lon="-3.8886170">
        <ele>646.8</ele>
        <time>2021-02-20T09:53:36Z</time>
      </trkpt>
      <trkpt lat="40.2750400" lon="-3.8885670">
        <ele>647.2</ele>
        <time>2021-02-20T09:53:37Z</time>
      </trkpt>
      <trkpt lat="40.2749970" lon="-3.8884600">
        <ele>647.4</ele>
        <time>2021-02-20T09:53:39Z</time>
      </trkpt>
      <trkpt lat="40.2749350" lon="-3.8883070">
        <ele>648.4</ele>
        <time>2021-02-20T09:53:42Z</time>
      </trkpt>
      <trkpt lat="40.2748390" lon="-3.8880810">
        <ele>648.6</ele>
        <time>2021-02-20T09:53:46Z</time>
      </trkpt>
      <trkpt lat="40.2747730" lon="-3.8879600">
        <ele>648.4</ele>
        <time>2021-02-20T09:53:48Z</time>
      </trkpt>
      <trkpt lat="40.2746390" lon="-3.8877950">
        <ele>647.6</ele>
        <time>2021-02-20T09:53:51Z</time>
      </trkpt>
      <trkpt lat="40.2745860" lon="-3.8877420">
        <ele>647.2</ele>
        <time>2021-02-20T09:53:52Z</time>
      </trkpt>
      <trkpt lat="40.2743200" lon="-3.8874810">
        <ele>646.6</ele>
        <time>2021-02-20T09:53:57Z</time>
      </trkpt>
      <trkpt lat="40.2740480" lon="-3.8872540">
        <ele>648.2</ele>
        <time>2021-02-20T09:54:03Z</time>
      </trkpt>
      <trkpt lat="40.2740000" lon="-3.8872210">
        <ele>648.2</ele>
        <time>2021-02-20T09:54:04Z</time>
      </trkpt>
      <trkpt lat="40.2736590" lon="-3.8870230">
        <ele>648.8</ele>
        <time>2021-02-20T09:54:11Z</time>
      </trkpt>
      <trkpt lat="40.2734340" lon="-3.8868720">
        <ele>649.4</ele>
        <time>2021-02-20T09:54:16Z</time>
      </trkpt>
      <trkpt lat="40.2732960" lon="-3.8868090">
        <ele>649.6</ele>
        <time>2021-02-20T09:54:19Z</time>
      </trkpt>
      <trkpt lat="40.2731680" lon="-3.8869020">
        <ele>649.8</ele>
        <time>2021-02-20T09:54:22Z</time>
      </trkpt>
      <trkpt lat="40.2731380" lon="-3.8869590">
        <ele>649.8</ele>
        <time>2021-02-20T09:54:23Z</time>
      </trkpt>
      <trkpt lat="40.2730660" lon="-3.8870780">
        <ele>649.8</ele>
        <time>2021-02-20T09:54:25Z</time>
      </trkpt>
      <trkpt lat="40.2729640" lon="-3.8871640">
        <ele>649.4</ele>
        <time>2021-02-20T09:54:27Z</time>
      </trkpt>
      <trkpt lat="40.2728470" lon="-3.8871980">
        <ele>649.0</ele>
        <time>2021-02-20T09:54:29Z</time>
      </trkpt>
      <trkpt lat="40.2727900" lon="-3.8871950">
        <ele>649.0</ele>
        <time>2021-02-20T09:54:30Z</time>
      </trkpt>
      <trkpt lat="40.2727370" lon="-3.8871800">
        <ele>649.0</ele>
        <time>2021-02-20T09:54:31Z</time>
      </trkpt>
      <trkpt lat="40.2726880" lon="-3.8871570">
        <ele>649.0</ele>
        <time>2021-02-20T09:54:32Z</time>
      </trkpt>
      <trkpt lat="40.2726430" lon="-3.8871260">
        <ele>649.2</ele>
        <time>2021-02-20T09:54:33Z</time>
      </trkpt>
      <trkpt lat="40.2726040" lon="-3.8870880">
        <ele>649.4</ele>
        <time>2021-02-20T09:54:34Z</time>
      </trkpt>
      <trkpt lat="40.2725720" lon="-3.8870450">
        <ele>649.6</ele>
        <time>2021-02-20T09:54:35Z</time>
      </trkpt>
      <trkpt lat="40.2725230" lon="-3.8869450">
        <ele>650.0</ele>
        <time>2021-02-20T09:54:37Z</time>
      </trkpt>
      <trkpt lat="40.2725010" lon="-3.8868890">
        <ele>650.2</ele>
        <time>2021-02-20T09:54:38Z</time>
      </trkpt>
      <trkpt lat="40.2724540" lon="-3.8867770">
        <ele>649.8</ele>
        <time>2021-02-20T09:54:40Z</time>
      </trkpt>
      <trkpt lat="40.2724310" lon="-3.8867200">
        <ele>649.6</ele>
        <time>2021-02-20T09:54:41Z</time>
      </trkpt>
      <trkpt lat="40.2723860" lon="-3.8866010">
        <ele>649.4</ele>
        <time>2021-02-20T09:54:43Z</time>
      </trkpt>
      <trkpt lat="40.2723350" lon="-3.8864730">
        <ele>648.8</ele>
        <time>2021-02-20T09:54:45Z</time>
      </trkpt>
      <trkpt lat="40.2722620" lon="-3.8863510">
        <ele>648.4</ele>
        <time>2021-02-20T09:54:47Z</time>
      </trkpt>
      <trkpt lat="40.2722160" lon="-3.8862920">
        <ele>648.0</ele>
        <time>2021-02-20T09:54:48Z</time>
      </trkpt>
      <trkpt lat="40.2720620" lon="-3.8861240">
        <ele>647.0</ele>
        <time>2021-02-20T09:54:51Z</time>
      </trkpt>
      <trkpt lat="40.2719510" lon="-3.8860100">
        <ele>646.2</ele>
        <time>2021-02-20T09:54:53Z</time>
      </trkpt>
      <trkpt lat="40.2718960" lon="-3.8859520">
        <ele>645.8</ele>
        <time>2021-02-20T09:54:54Z</time>
      </trkpt>
      <trkpt lat="40.2717980" lon="-3.8858330">
        <ele>645.6</ele>
        <time>2021-02-20T09:54:56Z</time>
      </trkpt>
      <trkpt lat="40.2717250" lon="-3.8857030">
        <ele>645.4</ele>
        <time>2021-02-20T09:54:58Z</time>
      </trkpt>
      <trkpt lat="40.2715410" lon="-3.8852550">
        <ele>645.8</ele>
        <time>2021-02-20T09:55:05Z</time>
      </trkpt>
      <trkpt lat="40.2715070" lon="-3.8851250">
        <ele>645.8</ele>
        <time>2021-02-20T09:55:07Z</time>
      </trkpt>
      <trkpt lat="40.2714980" lon="-3.8850040">
        <ele>646.4</ele>
        <time>2021-02-20T09:55:09Z</time>
      </trkpt>
      <trkpt lat="40.2715090" lon="-3.8849060">
        <ele>647.2</ele>
        <time>2021-02-20T09:55:11Z</time>
      </trkpt>
      <trkpt lat="40.2715340" lon="-3.8848190">
        <ele>648.2</ele>
        <time>2021-02-20T09:55:13Z</time>
      </trkpt>
      <trkpt lat="40.2715430" lon="-3.8847790">
        <ele>648.4</ele>
        <time>2021-02-20T09:55:14Z</time>
      </trkpt>
      <trkpt lat="40.2715430" lon="-3.8847420">
        <ele>649.0</ele>
        <time>2021-02-20T09:55:15Z</time>
      </trkpt>
      <trkpt lat="40.2715180" lon="-3.8846730">
        <ele>649.8</ele>
        <time>2021-02-20T09:55:17Z</time>
      </trkpt>
      <trkpt lat="40.2714780" lon="-3.8846000">
        <ele>650.0</ele>
        <time>2021-02-20T09:55:19Z</time>
      </trkpt>
      <trkpt lat="40.2714050" lon="-3.8844860">
        <ele>650.8</ele>
        <time>2021-02-20T09:55:22Z</time>
      </trkpt>
      <trkpt lat="40.2713760" lon="-3.8844510">
        <ele>651.4</ele>
        <time>2021-02-20T09:55:23Z</time>
      </trkpt>
      <trkpt lat="40.2712840" lon="-3.8843500">
        <ele>652.0</ele>
        <time>2021-02-20T09:55:26Z</time>
      </trkpt>
      <trkpt lat="40.2711380" lon="-3.8841700">
        <ele>653.0</ele>
        <time>2021-02-20T09:55:31Z</time>
      </trkpt>
      <trkpt lat="40.2711090" lon="-3.8841340">
        <ele>653.0</ele>
        <time>2021-02-20T09:55:32Z</time>
      </trkpt>
      <trkpt lat="40.2709120" lon="-3.8838690">
        <ele>654.0</ele>
        <time>2021-02-20T09:55:39Z</time>
      </trkpt>
      <trkpt lat="40.2705870" lon="-3.8834730">
        <ele>654.8</ele>
        <time>2021-02-20T09:55:49Z</time>
      </trkpt>
      <trkpt lat="40.2703320" lon="-3.8831920">
        <ele>654.8</ele>
        <time>2021-02-20T09:55:56Z</time>
      </trkpt>
      <trkpt lat="40.2702140" lon="-3.8830750">
        <ele>655.2</ele>
        <time>2021-02-20T09:55:59Z</time>
      </trkpt>
      <trkpt lat="40.2700650" lon="-3.8828990">
        <ele>655.0</ele>
        <time>2021-02-20T09:56:03Z</time>
      </trkpt>
      <trkpt lat="40.2699490" lon="-3.8827650">
        <ele>655.2</ele>
        <time>2021-02-20T09:56:06Z</time>
      </trkpt>
      <trkpt lat="40.2698370" lon="-3.8826100">
        <ele>654.8</ele>
        <time>2021-02-20T09:56:09Z</time>
      </trkpt>
      <trkpt lat="40.2695140" lon="-3.8822170">
        <ele>655.4</ele>
        <time>2021-02-20T09:56:17Z</time>
      </trkpt>
      <trkpt lat="40.2692340" lon="-3.8818780">
        <ele>655.8</ele>
        <time>2021-02-20T09:56:24Z</time>
      </trkpt>
      <trkpt lat="40.2689140" lon="-3.8815180">
        <ele>654.8</ele>
        <time>2021-02-20T09:56:31Z</time>
      </trkpt>
      <trkpt lat="40.2686840" lon="-3.8812550">
        <ele>653.8</ele>
        <time>2021-02-20T09:56:36Z</time>
      </trkpt>
      <trkpt lat="40.2685480" lon="-3.8810970">
        <ele>653.8</ele>
        <time>2021-02-20T09:56:39Z</time>
      </trkpt>
      <trkpt lat="40.2683590" lon="-3.8808880">
        <ele>653.6</ele>
        <time>2021-02-20T09:56:43Z</time>
      </trkpt>
      <trkpt lat="40.2681330" lon="-3.8806110">
        <ele>653.2</ele>
        <time>2021-02-20T09:56:48Z</time>
      </trkpt>
      <trkpt lat="40.2678740" lon="-3.8803040">
        <ele>654.8</ele>
        <time>2021-02-20T09:56:54Z</time>
      </trkpt>
      <trkpt lat="40.2678290" lon="-3.8802540">
        <ele>655.2</ele>
        <time>2021-02-20T09:56:55Z</time>
      </trkpt>
      <trkpt lat="40.2677020" lon="-3.8801040">
        <ele>656.0</ele>
        <time>2021-02-20T09:56:58Z</time>
      </trkpt>
      <trkpt lat="40.2676580" lon="-3.8800650">
        <ele>656.2</ele>
        <time>2021-02-20T09:56:59Z</time>
      </trkpt>
      <trkpt lat="40.2676130" lon="-3.8800300">
        <ele>656.4</ele>
        <time>2021-02-20T09:57:00Z</time>
      </trkpt>
      <trkpt lat="40.2674460" lon="-3.8798850">
        <ele>657.0</ele>
        <time>2021-02-20T09:57:04Z</time>
      </trkpt>
      <trkpt lat="40.2673370" lon="-3.8797680">
        <ele>657.6</ele>
        <time>2021-02-20T09:57:07Z</time>
      </trkpt>
      <trkpt lat="40.2672340" lon="-3.8796530">
        <ele>658.4</ele>
        <time>2021-02-20T09:57:10Z</time>
      </trkpt>
      <trkpt lat="40.2669850" lon="-3.8793670">
        <ele>659.2</ele>
        <time>2021-02-20T09:57:17Z</time>
      </trkpt>
      <trkpt lat="40.2668740" lon="-3.8792540">
        <ele>659.4</ele>
        <time>2021-02-20T09:57:20Z</time>
      </trkpt>
      <trkpt lat="40.2667970" lon="-3.8791860">
        <ele>659.8</ele>
        <time>2021-02-20T09:57:22Z</time>
      </trkpt>
      <trkpt lat="40.2666350" lon="-3.8790680">
        <ele>660.4</ele>
        <time>2021-02-20T09:57:26Z</time>
      </trkpt>
      <trkpt lat="40.2662500" lon="-3.8787880">
        <ele>660.4</ele>
        <time>2021-02-20T09:57:35Z</time>
      </trkpt>
      <trkpt lat="40.2658020" lon="-3.8784740">
        <ele>660.6</ele>
        <time>2021-02-20T09:57:45Z</time>
      </trkpt>
      <trkpt lat="40.2657570" lon="-3.8784410">
        <ele>660.6</ele>
        <time>2021-02-20T09:57:46Z</time>
      </trkpt>
      <trkpt lat="40.2653780" lon="-3.8781610">
        <ele>660.4</ele>
        <time>2021-02-20T09:57:54Z</time>
      </trkpt>
      <trkpt lat="40.2653300" lon="-3.8781240">
        <ele>660.6</ele>
        <time>2021-02-20T09:57:55Z</time>
      </trkpt>
      <trkpt lat="40.2649500" lon="-3.8778260">
        <ele>661.0</ele>
        <time>2021-02-20T09:58:03Z</time>
      </trkpt>
      <trkpt lat="40.2647540" lon="-3.8776810">
        <ele>661.0</ele>
        <time>2021-02-20T09:58:07Z</time>
      </trkpt>
      <trkpt lat="40.2643560" lon="-3.8773530">
        <ele>660.8</ele>
        <time>2021-02-20T09:58:15Z</time>
      </trkpt>
      <trkpt lat="40.2643190" lon="-3.8772900">
        <ele>660.6</ele>
        <time>2021-02-20T09:58:16Z</time>
      </trkpt>
      <trkpt lat="40.2641390" lon="-3.8768360">
        <ele>659.2</ele>
        <time>2021-02-20T09:58:22Z</time>
      </trkpt>
      <trkpt lat="40.2639730" lon="-3.8762680">
        <ele>658.8</ele>
        <time>2021-02-20T09:58:29Z</time>
      </trkpt>
      <trkpt lat="40.2639250" lon="-3.8760070">
        <ele>658.2</ele>
        <time>2021-02-20T09:58:32Z</time>
      </trkpt>
      <trkpt lat="40.2638790" lon="-3.8756340">
        <ele>656.2</ele>
        <time>2021-02-20T09:58:36Z</time>
      </trkpt>
      <trkpt lat="40.2638740" lon="-3.8755380">
        <ele>655.8</ele>
        <time>2021-02-20T09:58:37Z</time>
      </trkpt>
      <trkpt lat="40.2638720" lon="-3.8752370">
        <ele>655.0</ele>
        <time>2021-02-20T09:58:40Z</time>
      </trkpt>
      <trkpt lat="40.2638800" lon="-3.8750280">
        <ele>653.6</ele>
        <time>2021-02-20T09:58:42Z</time>
      </trkpt>
      <trkpt lat="40.2638840" lon="-3.8749240">
        <ele>653.2</ele>
        <time>2021-02-20T09:58:43Z</time>
      </trkpt>
      <trkpt lat="40.2638880" lon="-3.8744980">
        <ele>652.2</ele>
        <time>2021-02-20T09:58:47Z</time>
      </trkpt>
      <trkpt lat="40.2638860" lon="-3.8741810">
        <ele>651.2</ele>
        <time>2021-02-20T09:58:50Z</time>
      </trkpt>
      <trkpt lat="40.2638620" lon="-3.8739830">
        <ele>650.6</ele>
        <time>2021-02-20T09:58:52Z</time>
      </trkpt>
      <trkpt lat="40.2638160" lon="-3.8738020">
        <ele>650.4</ele>
        <time>2021-02-20T09:58:54Z</time>
      </trkpt>
      <trkpt lat="40.2637520" lon="-3.8736320">
        <ele>650.4</ele>
        <time>2021-02-20T09:58:56Z</time>
      </trkpt>
      <trkpt lat="40.2636830" lon="-3.8734700">
        <ele>650.0</ele>
        <time>2021-02-20T09:58:58Z</time>
      </trkpt>
      <trkpt lat="40.2635470" lon="-3.8730490">
        <ele>649.6</ele>
        <time>2021-02-20T09:59:03Z</time>
      </trkpt>
      <trkpt lat="40.2634300" lon="-3.8725940">
        <ele>649.2</ele>
        <time>2021-02-20T09:59:08Z</time>
      </trkpt>
      <trkpt lat="40.2633900" lon="-3.8724020">
        <ele>649.2</ele>
        <time>2021-02-20T09:59:10Z</time>
      </trkpt>
      <trkpt lat="40.2633250" lon="-3.8721140">
        <ele>649.0</ele>
        <time>2021-02-20T09:59:13Z</time>
      </trkpt>
      <trkpt lat="40.2632360" lon="-3.8717630">
        <ele>649.2</ele>
        <time>2021-02-20T09:59:17Z</time>
      </trkpt>
      <trkpt lat="40.2630570" lon="-3.8713580">
        <ele>650.0</ele>
        <time>2021-02-20T09:59:23Z</time>
      </trkpt>
      <trkpt lat="40.2627230" lon="-3.8709120">
        <ele>651.0</ele>
        <time>2021-02-20T09:59:32Z</time>
      </trkpt>
      <trkpt lat="40.2624000" lon="-3.8705250">
        <ele>652.2</ele>
        <time>2021-02-20T09:59:41Z</time>
      </trkpt>
      <trkpt lat="40.2621620" lon="-3.8702510">
        <ele>652.8</ele>
        <time>2021-02-20T09:59:48Z</time>
      </trkpt>
      <trkpt lat="40.2621280" lon="-3.8702090">
        <ele>653.2</ele>
        <time>2021-02-20T09:59:49Z</time>
      </trkpt>
      <trkpt lat="40.2620940" lon="-3.8701680">
        <ele>653.6</ele>
        <time>2021-02-20T09:59:50Z</time>
      </trkpt>
      <trkpt lat="40.2619710" lon="-3.8699960">
        <ele>654.0</ele>
        <time>2021-02-20T09:59:54Z</time>
      </trkpt>
      <trkpt lat="40.2618960" lon="-3.8698550">
        <ele>654.2</ele>
        <time>2021-02-20T09:59:57Z</time>
      </trkpt>
      <trkpt lat="40.2618720" lon="-3.8698080">
        <ele>654.4</ele>
        <time>2021-02-20T09:59:58Z</time>
      </trkpt>
      <trkpt lat="40.2616770" lon="-3.8693600">
        <ele>655.2</ele>
        <time>2021-02-20T10:00:07Z</time>
      </trkpt>
      <trkpt lat="40.2614500" lon="-3.8688160">
        <ele>656.4</ele>
        <time>2021-02-20T10:00:18Z</time>
      </trkpt>
      <trkpt lat="40.2612720" lon="-3.8683990">
        <ele>657.4</ele>
        <time>2021-02-20T10:00:27Z</time>
      </trkpt>
      <trkpt lat="40.2612520" lon="-3.8683530">
        <ele>657.6</ele>
        <time>2021-02-20T10:00:28Z</time>
      </trkpt>
      <trkpt lat="40.2611000" lon="-3.8679760">
        <ele>658.4</ele>
        <time>2021-02-20T10:00:36Z</time>
      </trkpt>
      <trkpt lat="40.2610810" lon="-3.8679320">
        <ele>658.6</ele>
        <time>2021-02-20T10:00:37Z</time>
      </trkpt>
      <trkpt lat="40.2610220" lon="-3.8677930">
        <ele>658.8</ele>
        <time>2021-02-20T10:00:40Z</time>
      </trkpt>
      <trkpt lat="40.2608990" lon="-3.8675740">
        <ele>659.4</ele>
        <time>2021-02-20T10:00:45Z</time>
      </trkpt>
      <trkpt lat="40.2608730" lon="-3.8675330">
        <ele>659.4</ele>
        <time>2021-02-20T10:00:46Z</time>
      </trkpt>
      <trkpt lat="40.2606360" lon="-3.8671680">
        <ele>660.4</ele>
        <time>2021-02-20T10:00:55Z</time>
      </trkpt>
      <trkpt lat="40.2605820" lon="-3.8670860">
        <ele>660.4</ele>
        <time>2021-02-20T10:00:57Z</time>
      </trkpt>
      <trkpt lat="40.2604370" lon="-3.8668390">
        <ele>661.2</ele>
        <time>2021-02-20T10:01:03Z</time>
      </trkpt>
      <trkpt lat="40.2603980" lon="-3.8668140">
        <ele>661.4</ele>
        <time>2021-02-20T10:01:04Z</time>
      </trkpt>
      <trkpt lat="40.2602670" lon="-3.8667960">
        <ele>661.4</ele>
        <time>2021-02-20T10:01:07Z</time>
      </trkpt>
      <trkpt lat="40.2602230" lon="-3.8667950">
        <ele>661.4</ele>
        <time>2021-02-20T10:01:08Z</time>
      </trkpt>
      <trkpt lat="40.2601800" lon="-3.8667880">
        <ele>661.6</ele>
        <time>2021-02-20T10:01:09Z</time>
      </trkpt>
      <trkpt lat="40.2600680" lon="-3.8667010">
        <ele>661.8</ele>
        <time>2021-02-20T10:01:12Z</time>
      </trkpt>
      <trkpt lat="40.2600110" lon="-3.8665060">
        <ele>661.8</ele>
        <time>2021-02-20T10:01:16Z</time>
      </trkpt>
      <trkpt lat="40.2601330" lon="-3.8663720">
        <ele>662.2</ele>
        <time>2021-02-20T10:01:19Z</time>
      </trkpt>
      <trkpt lat="40.2602890" lon="-3.8663860">
        <ele>662.4</ele>
        <time>2021-02-20T10:01:22Z</time>
      </trkpt>
      <trkpt lat="40.2603390" lon="-3.8664050">
        <ele>662.2</ele>
        <time>2021-02-20T10:01:23Z</time>
      </trkpt>
      <trkpt lat="40.2603910" lon="-3.8664120">
        <ele>662.0</ele>
        <time>2021-02-20T10:01:24Z</time>
      </trkpt>
      <trkpt lat="40.2604890" lon="-3.8663990">
        <ele>662.2</ele>
        <time>2021-02-20T10:01:26Z</time>
      </trkpt>
      <trkpt lat="40.2605780" lon="-3.8663740">
        <ele>662.6</ele>
        <time>2021-02-20T10:01:28Z</time>
      </trkpt>
      <trkpt lat="40.2607640" lon="-3.8662980">
        <ele>663.8</ele>
        <time>2021-02-20T10:01:33Z</time>
      </trkpt>
      <trkpt lat="40.2608980" lon="-3.8662340">
        <ele>665.0</ele>
        <time>2021-02-20T10:01:37Z</time>
      </trkpt>
      <trkpt lat="40.2609860" lon="-3.8661530">
        <ele>665.8</ele>
        <time>2021-02-20T10:01:40Z</time>
      </trkpt>
      <trkpt lat="40.2610110" lon="-3.8661200">
        <ele>666.2</ele>
        <time>2021-02-20T10:01:41Z</time>
      </trkpt>
      <trkpt lat="40.2611090" lon="-3.8659910">
        <ele>667.6</ele>
        <time>2021-02-20T10:01:45Z</time>
      </trkpt>
      <trkpt lat="40.2611300" lon="-3.8659580">
        <ele>668.0</ele>
        <time>2021-02-20T10:01:46Z</time>
      </trkpt>
      <trkpt lat="40.2611740" lon="-3.8658930">
        <ele>668.8</ele>
        <time>2021-02-20T10:01:48Z</time>
      </trkpt>
      <trkpt lat="40.2612650" lon="-3.8657680">
        <ele>670.0</ele>
        <time>2021-02-20T10:01:52Z</time>
      </trkpt>
      <trkpt lat="40.2613320" lon="-3.8656680">
        <ele>670.4</ele>
        <time>2021-02-20T10:01:55Z</time>
      </trkpt>
      <trkpt lat="40.2613800" lon="-3.8656040">
        <ele>671.2</ele>
        <time>2021-02-20T10:01:57Z</time>
      </trkpt>
      <trkpt lat="40.2614960" lon="-3.8654440">
        <ele>672.4</ele>
        <time>2021-02-20T10:02:02Z</time>
      </trkpt>
      <trkpt lat="40.2615850" lon="-3.8653150">
        <ele>673.4</ele>
        <time>2021-02-20T10:02:06Z</time>
      </trkpt>
      <trkpt lat="40.2616750" lon="-3.8651920">
        <ele>674.6</ele>
        <time>2021-02-20T10:02:10Z</time>
      </trkpt>
      <trkpt lat="40.2616950" lon="-3.8651590">
        <ele>674.8</ele>
        <time>2021-02-20T10:02:11Z</time>
      </trkpt>
      <trkpt lat="40.2617570" lon="-3.8650670">
        <ele>675.8</ele>
        <time>2021-02-20T10:02:14Z</time>
      </trkpt>
      <trkpt lat="40.2618430" lon="-3.8649430">
        <ele>677.2</ele>
        <time>2021-02-20T10:02:18Z</time>
      </trkpt>
      <trkpt lat="40.2618640" lon="-3.8649130">
        <ele>677.4</ele>
        <time>2021-02-20T10:02:19Z</time>
      </trkpt>
      <trkpt lat="40.2619050" lon="-3.8648510">
        <ele>678.2</ele>
        <time>2021-02-20T10:02:21Z</time>
      </trkpt>
      <trkpt lat="40.2619930" lon="-3.8647230">
        <ele>679.2</ele>
        <time>2021-02-20T10:02:25Z</time>
      </trkpt>
      <trkpt lat="40.2620660" lon="-3.8646310">
        <ele>680.0</ele>
        <time>2021-02-20T10:02:28Z</time>
      </trkpt>
      <trkpt lat="40.2620850" lon="-3.8646000">
        <ele>680.4</ele>
        <time>2021-02-20T10:02:29Z</time>
      </trkpt>
      <trkpt lat="40.2621400" lon="-3.8645010">
        <ele>681.6</ele>
        <time>2021-02-20T10:02:32Z</time>
      </trkpt>
      <trkpt lat="40.2621730" lon="-3.8644310">
        <ele>682.2</ele>
        <time>2021-02-20T10:02:34Z</time>
      </trkpt>
      <trkpt lat="40.2621930" lon="-3.8643980">
        <ele>682.6</ele>
        <time>2021-02-20T10:02:35Z</time>
      </trkpt>
      <trkpt lat="40.2622320" lon="-3.8643290">
        <ele>683.6</ele>
        <time>2021-02-20T10:02:37Z</time>
      </trkpt>
      <trkpt lat="40.2623130" lon="-3.8642000">
        <ele>684.6</ele>
        <time>2021-02-20T10:02:41Z</time>
      </trkpt>
      <trkpt lat="40.2623340" lon="-3.8641710">
        <ele>685.0</ele>
        <time>2021-02-20T10:02:42Z</time>
      </trkpt>
      <trkpt lat="40.2624130" lon="-3.8640400">
        <ele>686.2</ele>
        <time>2021-02-20T10:02:46Z</time>
      </trkpt>
      <trkpt lat="40.2624710" lon="-3.8639330">
        <ele>687.0</ele>
        <time>2021-02-20T10:02:49Z</time>
      </trkpt>
      <trkpt lat="40.2624870" lon="-3.8638940">
        <ele>687.2</ele>
        <time>2021-02-20T10:02:50Z</time>
      </trkpt>
      <trkpt lat="40.2625390" lon="-3.8637160">
        <ele>688.2</ele>
        <time>2021-02-20T10:02:54Z</time>
      </trkpt>
      <trkpt lat="40.2625630" lon="-3.8636750">
        <ele>688.4</ele>
        <time>2021-02-20T10:02:55Z</time>
      </trkpt>
      <trkpt lat="40.2626390" lon="-3.8634930">
        <ele>688.8</ele>
        <time>2021-02-20T10:02:59Z</time>
      </trkpt>
      <trkpt lat="40.2626700" lon="-3.8633290">
        <ele>689.2</ele>
        <time>2021-02-20T10:03:02Z</time>
      </trkpt>
      <trkpt lat="40.2626760" lon="-3.8632200">
        <ele>689.4</ele>
        <time>2021-02-20T10:03:04Z</time>
      </trkpt>
      <trkpt lat="40.2626750" lon="-3.8631650">
        <ele>689.4</ele>
        <time>2021-02-20T10:03:05Z</time>
      </trkpt>
      <trkpt lat="40.2626700" lon="-3.8631100">
        <ele>689.4</ele>
        <time>2021-02-20T10:03:06Z</time>
      </trkpt>
      <trkpt lat="40.2626380" lon="-3.8628410">
        <ele>690.0</ele>
        <time>2021-02-20T10:03:11Z</time>
      </trkpt>
      <trkpt lat="40.2625910" lon="-3.8625080">
        <ele>690.4</ele>
        <time>2021-02-20T10:03:17Z</time>
      </trkpt>
      <trkpt lat="40.2625470" lon="-3.8622880">
        <ele>691.2</ele>
        <time>2021-02-20T10:03:21Z</time>
      </trkpt>
      <trkpt lat="40.2625160" lon="-3.8621180">
        <ele>691.6</ele>
        <time>2021-02-20T10:03:24Z</time>
      </trkpt>
      <trkpt lat="40.2624820" lon="-3.8619450">
        <ele>691.6</ele>
        <time>2021-02-20T10:03:27Z</time>
      </trkpt>
      <trkpt lat="40.2624430" lon="-3.8617670">
        <ele>692.2</ele>
        <time>2021-02-20T10:03:30Z</time>
      </trkpt>
      <trkpt lat="40.2623820" lon="-3.8614580">
        <ele>692.6</ele>
        <time>2021-02-20T10:03:35Z</time>
      </trkpt>
      <trkpt lat="40.2623730" lon="-3.8613950">
        <ele>692.8</ele>
        <time>2021-02-20T10:03:36Z</time>
      </trkpt>
      <trkpt lat="40.2623640" lon="-3.8612650">
        <ele>693.0</ele>
        <time>2021-02-20T10:03:38Z</time>
      </trkpt>
      <trkpt lat="40.2623670" lon="-3.8611970">
        <ele>693.2</ele>
        <time>2021-02-20T10:03:39Z</time>
      </trkpt>
      <trkpt lat="40.2623870" lon="-3.8607140">
        <ele>693.0</ele>
        <time>2021-02-20T10:03:46Z</time>
      </trkpt>
      <trkpt lat="40.2623720" lon="-3.8606510">
        <ele>693.0</ele>
        <time>2021-02-20T10:03:47Z</time>
      </trkpt>
      <trkpt lat="40.2623870" lon="-3.8604740">
        <ele>692.6</ele>
        <time>2021-02-20T10:03:50Z</time>
      </trkpt>
      <trkpt lat="40.2624690" lon="-3.8604010">
        <ele>692.2</ele>
        <time>2021-02-20T10:03:52Z</time>
      </trkpt>
      <trkpt lat="40.2625150" lon="-3.8603580">
        <ele>692.0</ele>
        <time>2021-02-20T10:03:53Z</time>
      </trkpt>
      <trkpt lat="40.2625570" lon="-3.8603050">
        <ele>692.0</ele>
        <time>2021-02-20T10:03:54Z</time>
      </trkpt>
      <trkpt lat="40.2626420" lon="-3.8601910">
        <ele>691.4</ele>
        <time>2021-02-20T10:03:56Z</time>
      </trkpt>
      <trkpt lat="40.2627290" lon="-3.8600790">
        <ele>691.2</ele>
        <time>2021-02-20T10:03:58Z</time>
      </trkpt>
      <trkpt lat="40.2628560" lon="-3.8599160">
        <ele>690.8</ele>
        <time>2021-02-20T10:04:01Z</time>
      </trkpt>
      <trkpt lat="40.2629420" lon="-3.8598030">
        <ele>690.4</ele>
        <time>2021-02-20T10:04:03Z</time>
      </trkpt>
      <trkpt lat="40.2630400" lon="-3.8596890">
        <ele>689.8</ele>
        <time>2021-02-20T10:04:05Z</time>
      </trkpt>
      <trkpt lat="40.2632280" lon="-3.8594390">
        <ele>689.4</ele>
        <time>2021-02-20T10:04:09Z</time>
      </trkpt>
      <trkpt lat="40.2633670" lon="-3.8592480">
        <ele>688.8</ele>
        <time>2021-02-20T10:04:12Z</time>
      </trkpt>
      <trkpt lat="40.2634130" lon="-3.8591850">
        <ele>688.6</ele>
        <time>2021-02-20T10:04:13Z</time>
      </trkpt>
      <trkpt lat="40.2635050" lon="-3.8590610">
        <ele>688.4</ele>
        <time>2021-02-20T10:04:15Z</time>
      </trkpt>
      <trkpt lat="40.2635940" lon="-3.8589430">
        <ele>688.2</ele>
        <time>2021-02-20T10:04:17Z</time>
      </trkpt>
      <trkpt lat="40.2637200" lon="-3.8587750">
        <ele>687.8</ele>
        <time>2021-02-20T10:04:20Z</time>
      </trkpt>
      <trkpt lat="40.2637580" lon="-3.8587200">
        <ele>687.8</ele>
        <time>2021-02-20T10:04:21Z</time>
      </trkpt>
      <trkpt lat="40.2639560" lon="-3.8584420">
        <ele>687.4</ele>
        <time>2021-02-20T10:04:26Z</time>
      </trkpt>
      <trkpt lat="40.2641090" lon="-3.8582300">
        <ele>687.4</ele>
        <time>2021-02-20T10:04:30Z</time>
      </trkpt>
      <trkpt lat="40.2643990" lon="-3.8578500">
        <ele>688.0</ele>
        <time>2021-02-20T10:04:37Z</time>
      </trkpt>
      <trkpt lat="40.2647220" lon="-3.8574370">
        <ele>688.4</ele>
        <time>2021-02-20T10:04:45Z</time>
      </trkpt>
      <trkpt lat="40.2649910" lon="-3.8569750">
        <ele>688.4</ele>
        <time>2021-02-20T10:04:53Z</time>
      </trkpt>
      <trkpt lat="40.2652440" lon="-3.8563360">
        <ele>687.2</ele>
        <time>2021-02-20T10:05:02Z</time>
      </trkpt>
      <trkpt lat="40.2653330" lon="-3.8558610">
        <ele>686.6</ele>
        <time>2021-02-20T10:05:08Z</time>
      </trkpt>
      <trkpt lat="40.2653790" lon="-3.8554030">
        <ele>686.2</ele>
        <time>2021-02-20T10:05:14Z</time>
      </trkpt>
      <trkpt lat="40.2654210" lon="-3.8551790">
        <ele>686.0</ele>
        <time>2021-02-20T10:05:17Z</time>
      </trkpt>
      <trkpt lat="40.2655710" lon="-3.8548360">
        <ele>685.8</ele>
        <time>2021-02-20T10:05:22Z</time>
      </trkpt>
      <trkpt lat="40.2658990" lon="-3.8543380">
        <ele>685.4</ele>
        <time>2021-02-20T10:05:30Z</time>
      </trkpt>
      <trkpt lat="40.2661690" lon="-3.8539210">
        <ele>685.2</ele>
        <time>2021-02-20T10:05:37Z</time>
      </trkpt>
      <trkpt lat="40.2662050" lon="-3.8538600">
        <ele>685.0</ele>
        <time>2021-02-20T10:05:38Z</time>
      </trkpt>
      <trkpt lat="40.2665110" lon="-3.8532700">
        <ele>684.6</ele>
        <time>2021-02-20T10:05:47Z</time>
      </trkpt>
      <trkpt lat="40.2667590" lon="-3.8527120">
        <ele>684.4</ele>
        <time>2021-02-20T10:05:55Z</time>
      </trkpt>
      <trkpt lat="40.2669490" lon="-3.8521350">
        <ele>684.0</ele>
        <time>2021-02-20T10:06:03Z</time>
      </trkpt>
      <trkpt lat="40.2670440" lon="-3.8518240">
        <ele>684.0</ele>
        <time>2021-02-20T10:06:08Z</time>
      </trkpt>
      <trkpt lat="40.2670770" lon="-3.8517740">
        <ele>684.0</ele>
        <time>2021-02-20T10:06:09Z</time>
      </trkpt>
      <trkpt lat="40.2672500" lon="-3.8514660">
        <ele>683.8</ele>
        <time>2021-02-20T10:06:14Z</time>
      </trkpt>
      <trkpt lat="40.2674320" lon="-3.8512050">
        <ele>684.2</ele>
        <time>2021-02-20T10:06:19Z</time>
      </trkpt>
      <trkpt lat="40.2677010" lon="-3.8509060">
        <ele>685.0</ele>
        <time>2021-02-20T10:06:26Z</time>
      </trkpt>
      <trkpt lat="40.2677370" lon="-3.8508660">
        <ele>685.2</ele>
        <time>2021-02-20T10:06:27Z</time>
      </trkpt>
      <trkpt lat="40.2678140" lon="-3.8507930">
        <ele>685.8</ele>
        <time>2021-02-20T10:06:29Z</time>
      </trkpt>
      <trkpt lat="40.2678900" lon="-3.8507380">
        <ele>686.2</ele>
        <time>2021-02-20T10:06:31Z</time>
      </trkpt>
      <trkpt lat="40.2679270" lon="-3.8507160">
        <ele>686.6</ele>
        <time>2021-02-20T10:06:32Z</time>
      </trkpt>
      <trkpt lat="40.2679610" lon="-3.8506820">
        <ele>686.8</ele>
        <time>2021-02-20T10:06:33Z</time>
      </trkpt>
      <trkpt lat="40.2680480" lon="-3.8505780">
        <ele>687.6</ele>
        <time>2021-02-20T10:06:36Z</time>
      </trkpt>
      <trkpt lat="40.2680790" lon="-3.8505410">
        <ele>688.0</ele>
        <time>2021-02-20T10:06:37Z</time>
      </trkpt>
      <trkpt lat="40.2681620" lon="-3.8504280">
        <ele>688.6</ele>
        <time>2021-02-20T10:06:40Z</time>
      </trkpt>
      <trkpt lat="40.2682230" lon="-3.8503520">
        <ele>688.8</ele>
        <time>2021-02-20T10:06:42Z</time>
      </trkpt>
      <trkpt lat="40.2682600" lon="-3.8503190">
        <ele>688.8</ele>
        <time>2021-02-20T10:06:43Z</time>
      </trkpt>
      <trkpt lat="40.2683320" lon="-3.8502480">
        <ele>689.2</ele>
        <time>2021-02-20T10:06:45Z</time>
      </trkpt>
      <trkpt lat="40.2684240" lon="-3.8501180">
        <ele>689.4</ele>
        <time>2021-02-20T10:06:48Z</time>
      </trkpt>
      <trkpt lat="40.2684790" lon="-3.8500220">
        <ele>689.8</ele>
        <time>2021-02-20T10:06:50Z</time>
      </trkpt>
      <trkpt lat="40.2685740" lon="-3.8498930">
        <ele>690.4</ele>
        <time>2021-02-20T10:06:53Z</time>
      </trkpt>
      <trkpt lat="40.2686060" lon="-3.8498480">
        <ele>690.6</ele>
        <time>2021-02-20T10:06:54Z</time>
      </trkpt>
      <trkpt lat="40.2687240" lon="-3.8496590">
        <ele>691.0</ele>
        <time>2021-02-20T10:06:58Z</time>
      </trkpt>
      <trkpt lat="40.2687840" lon="-3.8495570">
        <ele>691.8</ele>
        <time>2021-02-20T10:07:00Z</time>
      </trkpt>
      <trkpt lat="40.2688480" lon="-3.8494520">
        <ele>692.4</ele>
        <time>2021-02-20T10:07:02Z</time>
      </trkpt>
      <trkpt lat="40.2689830" lon="-3.8492260">
        <ele>693.2</ele>
        <time>2021-02-20T10:07:06Z</time>
      </trkpt>
      <trkpt lat="40.2690170" lon="-3.8491680">
        <ele>693.4</ele>
        <time>2021-02-20T10:07:07Z</time>
      </trkpt>
      <trkpt lat="40.2691150" lon="-3.8489820">
        <ele>694.2</ele>
        <time>2021-02-20T10:07:10Z</time>
      </trkpt>
      <trkpt lat="40.2691430" lon="-3.8489170">
        <ele>694.6</ele>
        <time>2021-02-20T10:07:11Z</time>
      </trkpt>
      <trkpt lat="40.2691940" lon="-3.8487890">
        <ele>695.8</ele>
        <time>2021-02-20T10:07:13Z</time>
      </trkpt>
      <trkpt lat="40.2692570" lon="-3.8486030">
        <ele>696.8</ele>
        <time>2021-02-20T10:07:16Z</time>
      </trkpt>
      <trkpt lat="40.2693090" lon="-3.8484110">
        <ele>697.8</ele>
        <time>2021-02-20T10:07:19Z</time>
      </trkpt>
      <trkpt lat="40.2693250" lon="-3.8483470">
        <ele>698.0</ele>
        <time>2021-02-20T10:07:20Z</time>
      </trkpt>
      <trkpt lat="40.2693420" lon="-3.8482840">
        <ele>698.4</ele>
        <time>2021-02-20T10:07:21Z</time>
      </trkpt>
      <trkpt lat="40.2693690" lon="-3.8481570">
        <ele>699.2</ele>
        <time>2021-02-20T10:07:23Z</time>
      </trkpt>
      <trkpt lat="40.2693810" lon="-3.8480910">
        <ele>699.6</ele>
        <time>2021-02-20T10:07:24Z</time>
      </trkpt>
      <trkpt lat="40.2694170" lon="-3.8478950">
        <ele>700.2</ele>
        <time>2021-02-20T10:07:27Z</time>
      </trkpt>
      <trkpt lat="40.2694250" lon="-3.8478230">
        <ele>700.6</ele>
        <time>2021-02-20T10:07:28Z</time>
      </trkpt>
      <trkpt lat="40.2694500" lon="-3.8476230">
        <ele>701.4</ele>
        <time>2021-02-20T10:07:31Z</time>
      </trkpt>
      <trkpt lat="40.2695000" lon="-3.8474390">
        <ele>701.6</ele>
        <time>2021-02-20T10:07:34Z</time>
      </trkpt>
      <trkpt lat="40.2695300" lon="-3.8473810">
        <ele>701.8</ele>
        <time>2021-02-20T10:07:35Z</time>
      </trkpt>
      <trkpt lat="40.2696260" lon="-3.8472010">
        <ele>701.4</ele>
        <time>2021-02-20T10:07:38Z</time>
      </trkpt>
      <trkpt lat="40.2696890" lon="-3.8470580">
        <ele>700.6</ele>
        <time>2021-02-20T10:07:40Z</time>
      </trkpt>
      <trkpt lat="40.2697660" lon="-3.8469190">
        <ele>700.0</ele>
        <time>2021-02-20T10:07:42Z</time>
      </trkpt>
      <trkpt lat="40.2699690" lon="-3.8465680">
        <ele>699.0</ele>
        <time>2021-02-20T10:07:47Z</time>
      </trkpt>
      <trkpt lat="40.2701870" lon="-3.8461760">
        <ele>698.0</ele>
        <time>2021-02-20T10:07:52Z</time>
      </trkpt>
      <trkpt lat="40.2702350" lon="-3.8460960">
        <ele>697.6</ele>
        <time>2021-02-20T10:07:53Z</time>
      </trkpt>
      <trkpt lat="40.2705080" lon="-3.8455660">
        <ele>696.8</ele>
        <time>2021-02-20T10:07:59Z</time>
      </trkpt>
      <trkpt lat="40.2707660" lon="-3.8451530">
        <ele>696.8</ele>
        <time>2021-02-20T10:08:04Z</time>
      </trkpt>
      <trkpt lat="40.2711280" lon="-3.8447060">
        <ele>695.8</ele>
        <time>2021-02-20T10:08:10Z</time>
      </trkpt>
      <trkpt lat="40.2713140" lon="-3.8444850">
        <ele>694.8</ele>
        <time>2021-02-20T10:08:13Z</time>
      </trkpt>
      <trkpt lat="40.2715680" lon="-3.8441900">
        <ele>694.0</ele>
        <time>2021-02-20T10:08:17Z</time>
      </trkpt>
      <trkpt lat="40.2716300" lon="-3.8441110">
        <ele>693.6</ele>
        <time>2021-02-20T10:08:18Z</time>
      </trkpt>
      <trkpt lat="40.2718770" lon="-3.8437830">
        <ele>692.4</ele>
        <time>2021-02-20T10:08:22Z</time>
      </trkpt>
      <trkpt lat="40.2719420" lon="-3.8437010">
        <ele>692.0</ele>
        <time>2021-02-20T10:08:23Z</time>
      </trkpt>
      <trkpt lat="40.2721310" lon="-3.8434560">
        <ele>691.2</ele>
        <time>2021-02-20T10:08:26Z</time>
      </trkpt>
      <trkpt lat="40.2723290" lon="-3.8432290">
        <ele>691.2</ele>
        <time>2021-02-20T10:08:29Z</time>
      </trkpt>
      <trkpt lat="40.2728010" lon="-3.8427450">
        <ele>690.6</ele>
        <time>2021-02-20T10:08:36Z</time>
      </trkpt>
      <trkpt lat="40.2732470" lon="-3.8422330">
        <ele>690.4</ele>
        <time>2021-02-20T10:08:43Z</time>
      </trkpt>
      <trkpt lat="40.2734240" lon="-3.8420310">
        <ele>690.2</ele>
        <time>2021-02-20T10:08:46Z</time>
      </trkpt>
      <trkpt lat="40.2734940" lon="-3.8419860">
        <ele>690.4</ele>
        <time>2021-02-20T10:08:47Z</time>
      </trkpt>
      <trkpt lat="40.2737150" lon="-3.8418840">
        <ele>690.0</ele>
        <time>2021-02-20T10:08:50Z</time>
      </trkpt>
      <trkpt lat="40.2737910" lon="-3.8418500">
        <ele>690.2</ele>
        <time>2021-02-20T10:08:51Z</time>
      </trkpt>
      <trkpt lat="40.2743390" lon="-3.8415880">
        <ele>690.0</ele>
        <time>2021-02-20T10:08:58Z</time>
      </trkpt>
      <trkpt lat="40.2746820" lon="-3.8414240">
        <ele>690.6</ele>
        <time>2021-02-20T10:09:02Z</time>
      </trkpt>
      <trkpt lat="40.2748610" lon="-3.8413350">
        <ele>690.2</ele>
        <time>2021-02-20T10:09:04Z</time>
      </trkpt>
      <trkpt lat="40.2751250" lon="-3.8411760">
        <ele>689.6</ele>
        <time>2021-02-20T10:09:07Z</time>
      </trkpt>
      <trkpt lat="40.2754060" lon="-3.8410080">
        <ele>689.2</ele>
        <time>2021-02-20T10:09:10Z</time>
      </trkpt>
      <trkpt lat="40.2756850" lon="-3.8408170">
        <ele>689.0</ele>
        <time>2021-02-20T10:09:13Z</time>
      </trkpt>
      <trkpt lat="40.2760760" lon="-3.8405520">
        <ele>688.4</ele>
        <time>2021-02-20T10:09:17Z</time>
      </trkpt>
      <trkpt lat="40.2763570" lon="-3.8403460">
        <ele>688.4</ele>
        <time>2021-02-20T10:09:20Z</time>
      </trkpt>
      <trkpt lat="40.2766080" lon="-3.8401540">
        <ele>688.0</ele>
        <time>2021-02-20T10:09:23Z</time>
      </trkpt>
      <trkpt lat="40.2767630" lon="-3.8400400">
        <ele>687.8</ele>
        <time>2021-02-20T10:09:25Z</time>
      </trkpt>
      <trkpt lat="40.2768430" lon="-3.8399960">
        <ele>687.8</ele>
        <time>2021-02-20T10:09:26Z</time>
      </trkpt>
      <trkpt lat="40.2769230" lon="-3.8399650">
        <ele>687.8</ele>
        <time>2021-02-20T10:09:27Z</time>
      </trkpt>
      <trkpt lat="40.2771310" lon="-3.8398450">
        <ele>687.4</ele>
        <time>2021-02-20T10:09:30Z</time>
      </trkpt>
      <trkpt lat="40.2771820" lon="-3.8397710">
        <ele>687.2</ele>
        <time>2021-02-20T10:09:31Z</time>
      </trkpt>
      <trkpt lat="40.2773300" lon="-3.8395530">
        <ele>686.6</ele>
        <time>2021-02-20T10:09:34Z</time>
      </trkpt>
      <trkpt lat="40.2773850" lon="-3.8394920">
        <ele>686.4</ele>
        <time>2021-02-20T10:09:35Z</time>
      </trkpt>
      <trkpt lat="40.2774450" lon="-3.8394380">
        <ele>686.2</ele>
        <time>2021-02-20T10:09:36Z</time>
      </trkpt>
      <trkpt lat="40.2775700" lon="-3.8393380">
        <ele>685.6</ele>
        <time>2021-02-20T10:09:38Z</time>
      </trkpt>
      <trkpt lat="40.2778150" lon="-3.8391230">
        <ele>685.0</ele>
        <time>2021-02-20T10:09:42Z</time>
      </trkpt>
      <trkpt lat="40.2782700" lon="-3.8387120">
        <ele>684.8</ele>
        <time>2021-02-20T10:09:50Z</time>
      </trkpt>
      <trkpt lat="40.2784750" lon="-3.8384980">
        <ele>684.6</ele>
        <time>2021-02-20T10:09:54Z</time>
      </trkpt>
      <trkpt lat="40.2785830" lon="-3.8383940">
        <ele>684.6</ele>
        <time>2021-02-20T10:09:56Z</time>
      </trkpt>
      <trkpt lat="40.2789630" lon="-3.8380100">
        <ele>684.0</ele>
        <time>2021-02-20T10:10:03Z</time>
      </trkpt>
      <trkpt lat="40.2793430" lon="-3.8376040">
        <ele>684.0</ele>
        <time>2021-02-20T10:10:10Z</time>
      </trkpt>
      <trkpt lat="40.2793980" lon="-3.8375350">
        <ele>684.0</ele>
        <time>2021-02-20T10:10:11Z</time>
      </trkpt>
      <trkpt lat="40.2796550" lon="-3.8373110">
        <ele>684.0</ele>
        <time>2021-02-20T10:10:15Z</time>
      </trkpt>
      <trkpt lat="40.2797300" lon="-3.8372700">
        <ele>683.8</ele>
        <time>2021-02-20T10:10:16Z</time>
      </trkpt>
      <trkpt lat="40.2799410" lon="-3.8371200">
        <ele>683.8</ele>
        <time>2021-02-20T10:10:19Z</time>
      </trkpt>
      <trkpt lat="40.2800710" lon="-3.8369920">
        <ele>683.6</ele>
        <time>2021-02-20T10:10:21Z</time>
      </trkpt>
      <trkpt lat="40.2803270" lon="-3.8367100">
        <ele>683.4</ele>
        <time>2021-02-20T10:10:25Z</time>
      </trkpt>
      <trkpt lat="40.2805200" lon="-3.8364980">
        <ele>683.6</ele>
        <time>2021-02-20T10:10:28Z</time>
      </trkpt>
      <trkpt lat="40.2808690" lon="-3.8362110">
        <ele>683.4</ele>
        <time>2021-02-20T10:10:33Z</time>
      </trkpt>
      <trkpt lat="40.2813070" lon="-3.8358780">
        <ele>683.4</ele>
        <time>2021-02-20T10:10:39Z</time>
      </trkpt>
      <trkpt lat="40.2817440" lon="-3.8355600">
        <ele>683.2</ele>
        <time>2021-02-20T10:10:45Z</time>
      </trkpt>
      <trkpt lat="40.2820600" lon="-3.8352120">
        <ele>683.4</ele>
        <time>2021-02-20T10:10:50Z</time>
      </trkpt>
      <trkpt lat="40.2823600" lon="-3.8348690">
        <ele>683.0</ele>
        <time>2021-02-20T10:10:55Z</time>
      </trkpt>
      <trkpt lat="40.2825400" lon="-3.8346420">
        <ele>682.4</ele>
        <time>2021-02-20T10:10:58Z</time>
      </trkpt>
      <trkpt lat="40.2829930" lon="-3.8341540">
        <ele>681.8</ele>
        <time>2021-02-20T10:11:05Z</time>
      </trkpt>
      <trkpt lat="40.2834250" lon="-3.8338420">
        <ele>681.6</ele>
        <time>2021-02-20T10:11:11Z</time>
      </trkpt>
      <trkpt lat="40.2839620" lon="-3.8334550">
        <ele>681.8</ele>
        <time>2021-02-20T10:11:19Z</time>
      </trkpt>
      <trkpt lat="40.2842600" lon="-3.8332080">
        <ele>682.2</ele>
        <time>2021-02-20T10:11:24Z</time>
      </trkpt>
      <trkpt lat="40.2843180" lon="-3.8331540">
        <ele>682.6</ele>
        <time>2021-02-20T10:11:25Z</time>
      </trkpt>
      <trkpt lat="40.2848080" lon="-3.8327750">
        <ele>683.2</ele>
        <time>2021-02-20T10:11:33Z</time>
      </trkpt>
      <trkpt lat="40.2849390" lon="-3.8327080">
        <ele>683.4</ele>
        <time>2021-02-20T10:11:35Z</time>
      </trkpt>
      <trkpt lat="40.2852830" lon="-3.8325180">
        <ele>683.2</ele>
        <time>2021-02-20T10:11:40Z</time>
      </trkpt>
      <trkpt lat="40.2858580" lon="-3.8322330">
        <ele>682.4</ele>
        <time>2021-02-20T10:11:48Z</time>
      </trkpt>
      <trkpt lat="40.2860070" lon="-3.8321790">
        <ele>682.4</ele>
        <time>2021-02-20T10:11:50Z</time>
      </trkpt>
      <trkpt lat="40.2863760" lon="-3.8320680">
        <ele>682.2</ele>
        <time>2021-02-20T10:11:55Z</time>
      </trkpt>
      <trkpt lat="40.2867490" lon="-3.8320200">
        <ele>681.6</ele>
        <time>2021-02-20T10:12:00Z</time>
      </trkpt>
      <trkpt lat="40.2872710" lon="-3.8319250">
        <ele>681.6</ele>
        <time>2021-02-20T10:12:07Z</time>
      </trkpt>
      <trkpt lat="40.2876930" lon="-3.8318670">
        <ele>681.4</ele>
        <time>2021-02-20T10:12:13Z</time>
      </trkpt>
      <trkpt lat="40.2881750" lon="-3.8317550">
        <ele>681.0</ele>
        <time>2021-02-20T10:12:21Z</time>
      </trkpt>
      <trkpt lat="40.2885950" lon="-3.8316650">
        <ele>680.6</ele>
        <time>2021-02-20T10:12:27Z</time>
      </trkpt>
      <trkpt lat="40.2888170" lon="-3.8316520">
        <ele>680.4</ele>
        <time>2021-02-20T10:12:30Z</time>
      </trkpt>
      <trkpt lat="40.2888910" lon="-3.8316650">
        <ele>680.2</ele>
        <time>2021-02-20T10:12:31Z</time>
      </trkpt>
      <trkpt lat="40.2889640" lon="-3.8316820">
        <ele>680.0</ele>
        <time>2021-02-20T10:12:32Z</time>
      </trkpt>
      <trkpt lat="40.2891890" lon="-3.8317350">
        <ele>679.2</ele>
        <time>2021-02-20T10:12:35Z</time>
      </trkpt>
      <trkpt lat="40.2894230" lon="-3.8317650">
        <ele>678.0</ele>
        <time>2021-02-20T10:12:38Z</time>
      </trkpt>
      <trkpt lat="40.2895020" lon="-3.8317730">
        <ele>677.8</ele>
        <time>2021-02-20T10:12:39Z</time>
      </trkpt>
      <trkpt lat="40.2898860" lon="-3.8317490">
        <ele>677.0</ele>
        <time>2021-02-20T10:12:44Z</time>
      </trkpt>
      <trkpt lat="40.2900320" lon="-3.8317240">
        <ele>676.8</ele>
        <time>2021-02-20T10:12:46Z</time>
      </trkpt>
      <trkpt lat="40.2902510" lon="-3.8316680">
        <ele>676.4</ele>
        <time>2021-02-20T10:12:49Z</time>
      </trkpt>
      <trkpt lat="40.2906470" lon="-3.8315680">
        <ele>676.2</ele>
        <time>2021-02-20T10:12:55Z</time>
      </trkpt>
      <trkpt lat="40.2907110" lon="-3.8315360">
        <ele>676.0</ele>
        <time>2021-02-20T10:12:56Z</time>
      </trkpt>
      <trkpt lat="40.2907730" lon="-3.8314970">
        <ele>675.8</ele>
        <time>2021-02-20T10:12:57Z</time>
      </trkpt>
      <trkpt lat="40.2908810" lon="-3.8313860">
        <ele>675.8</ele>
        <time>2021-02-20T10:12:59Z</time>
      </trkpt>
      <trkpt lat="40.2909330" lon="-3.8313300">
        <ele>675.8</ele>
        <time>2021-02-20T10:13:00Z</time>
      </trkpt>
      <trkpt lat="40.2911350" lon="-3.8310940">
        <ele>674.8</ele>
        <time>2021-02-20T10:13:04Z</time>
      </trkpt>
      <trkpt lat="40.2911920" lon="-3.8310400">
        <ele>674.6</ele>
        <time>2021-02-20T10:13:05Z</time>
      </trkpt>
      <trkpt lat="40.2912490" lon="-3.8309940">
        <ele>674.4</ele>
        <time>2021-02-20T10:13:06Z</time>
      </trkpt>
      <trkpt lat="40.2914720" lon="-3.8309270">
        <ele>673.8</ele>
        <time>2021-02-20T10:13:10Z</time>
      </trkpt>
      <trkpt lat="40.2915070" lon="-3.8309390">
        <ele>673.6</ele>
        <time>2021-02-20T10:13:11Z</time>
      </trkpt>
      <trkpt lat="40.2915430" lon="-3.8309860">
        <ele>673.4</ele>
        <time>2021-02-20T10:13:13Z</time>
      </trkpt>
      <trkpt lat="40.2915390" lon="-3.8310400">
        <ele>674.0</ele>
        <time>2021-02-20T10:15:08Z</time>
      </trkpt>
      <trkpt lat="40.2915310" lon="-3.8310620">
        <ele>674.0</ele>
        <time>2021-02-20T10:15:09Z</time>
      </trkpt>
      <trkpt lat="40.2914740" lon="-3.8310750">
        <ele>674.2</ele>
        <time>2021-02-20T10:15:12Z</time>
      </trkpt>
      <trkpt lat="40.2913300" lon="-3.8310260">
        <ele>674.0</ele>
        <time>2021-02-20T10:15:16Z</time>
      </trkpt>
      <trkpt lat="40.2912400" lon="-3.8310200">
        <ele>674.2</ele>
        <time>2021-02-20T10:15:18Z</time>
      </trkpt>
      <trkpt lat="40.2911720" lon="-3.8310620">
        <ele>674.6</ele>
        <time>2021-02-20T10:15:20Z</time>
      </trkpt>
      <trkpt lat="40.2911420" lon="-3.8310990">
        <ele>674.6</ele>
        <time>2021-02-20T10:15:21Z</time>
      </trkpt>
      <trkpt lat="40.2910370" lon="-3.8312510">
        <ele>675.4</ele>
        <time>2021-02-20T10:15:25Z</time>
      </trkpt>
      <trkpt lat="40.2910090" lon="-3.8312800">
        <ele>675.8</ele>
        <time>2021-02-20T10:15:26Z</time>
      </trkpt>
      <trkpt lat="40.2908620" lon="-3.8314420">
        <ele>676.4</ele>
        <time>2021-02-20T10:15:31Z</time>
      </trkpt>
      <trkpt lat="40.2907280" lon="-3.8315540">
        <ele>676.6</ele>
        <time>2021-02-20T10:15:35Z</time>
      </trkpt>
      <trkpt lat="40.2906890" lon="-3.8315750">
        <ele>676.6</ele>
        <time>2021-02-20T10:15:36Z</time>
      </trkpt>
      <trkpt lat="40.2906500" lon="-3.8315920">
        <ele>676.8</ele>
        <time>2021-02-20T10:15:37Z</time>
      </trkpt>
      <trkpt lat="40.2906080" lon="-3.8316020">
        <ele>676.8</ele>
        <time>2021-02-20T10:15:38Z</time>
      </trkpt>
      <trkpt lat="40.2902990" lon="-3.8316520">
        <ele>677.2</ele>
        <time>2021-02-20T10:15:45Z</time>
      </trkpt>
      <trkpt lat="40.2900170" lon="-3.8317180">
        <ele>677.4</ele>
        <time>2021-02-20T10:15:51Z</time>
      </trkpt>
      <trkpt lat="40.2898780" lon="-3.8317450">
        <ele>677.4</ele>
        <time>2021-02-20T10:15:54Z</time>
      </trkpt>
      <trkpt lat="40.2897410" lon="-3.8317510">
        <ele>677.6</ele>
        <time>2021-02-20T10:15:57Z</time>
      </trkpt>
      <trkpt lat="40.2896030" lon="-3.8317610">
        <ele>677.8</ele>
        <time>2021-02-20T10:16:00Z</time>
      </trkpt>
      <trkpt lat="40.2893270" lon="-3.8317760">
        <ele>678.4</ele>
        <time>2021-02-20T10:16:06Z</time>
      </trkpt>
      <trkpt lat="40.2891470" lon="-3.8317490">
        <ele>678.8</ele>
        <time>2021-02-20T10:16:10Z</time>
      </trkpt>
      <trkpt lat="40.2890130" lon="-3.8317190">
        <ele>679.4</ele>
        <time>2021-02-20T10:16:13Z</time>
      </trkpt>
      <trkpt lat="40.2889300" lon="-3.8316910">
        <ele>679.8</ele>
        <time>2021-02-20T10:16:15Z</time>
      </trkpt>
      <trkpt lat="40.2888420" lon="-3.8316920">
        <ele>680.0</ele>
        <time>2021-02-20T10:16:17Z</time>
      </trkpt>
      <trkpt lat="40.2888000" lon="-3.8316930">
        <ele>680.2</ele>
        <time>2021-02-20T10:16:18Z</time>
      </trkpt>
      <trkpt lat="40.2884900" lon="-3.8317110">
        <ele>680.8</ele>
        <time>2021-02-20T10:16:25Z</time>
      </trkpt>
      <trkpt lat="40.2883160" lon="-3.8317800">
        <ele>681.2</ele>
        <time>2021-02-20T10:16:29Z</time>
      </trkpt>
      <trkpt lat="40.2882710" lon="-3.8317890">
        <ele>681.2</ele>
        <time>2021-02-20T10:16:30Z</time>
      </trkpt>
      <trkpt lat="40.2878700" lon="-3.8318480">
        <ele>682.0</ele>
        <time>2021-02-20T10:16:39Z</time>
      </trkpt>
      <trkpt lat="40.2876870" lon="-3.8318850">
        <ele>682.2</ele>
        <time>2021-02-20T10:16:43Z</time>
      </trkpt>
      <trkpt lat="40.2876410" lon="-3.8318940">
        <ele>682.2</ele>
        <time>2021-02-20T10:16:44Z</time>
      </trkpt>
      <trkpt lat="40.2875950" lon="-3.8319040">
        <ele>682.4</ele>
        <time>2021-02-20T10:16:45Z</time>
      </trkpt>
      <trkpt lat="40.2875490" lon="-3.8319110">
        <ele>682.4</ele>
        <time>2021-02-20T10:16:46Z</time>
      </trkpt>
      <trkpt lat="40.2875030" lon="-3.8319160">
        <ele>682.4</ele>
        <time>2021-02-20T10:16:47Z</time>
      </trkpt>
      <trkpt lat="40.2874100" lon="-3.8319340">
        <ele>682.4</ele>
        <time>2021-02-20T10:16:49Z</time>
      </trkpt>
      <trkpt lat="40.2872220" lon="-3.8319530">
        <ele>682.4</ele>
        <time>2021-02-20T10:16:53Z</time>
      </trkpt>
      <trkpt lat="40.2871740" lon="-3.8319620">
        <ele>682.4</ele>
        <time>2021-02-20T10:16:54Z</time>
      </trkpt>
      <trkpt lat="40.2870750" lon="-3.8319830">
        <ele>682.4</ele>
        <time>2021-02-20T10:16:56Z</time>
      </trkpt>
      <trkpt lat="40.2869780" lon="-3.8320020">
        <ele>682.6</ele>
        <time>2021-02-20T10:16:58Z</time>
      </trkpt>
      <trkpt lat="40.2868820" lon="-3.8320210">
        <ele>682.4</ele>
        <time>2021-02-20T10:17:00Z</time>
      </trkpt>
      <trkpt lat="40.2866940" lon="-3.8320490">
        <ele>682.8</ele>
        <time>2021-02-20T10:17:04Z</time>
      </trkpt>
      <trkpt lat="40.2863190" lon="-3.8321010">
        <ele>682.8</ele>
        <time>2021-02-20T10:17:12Z</time>
      </trkpt>
      <trkpt lat="40.2859400" lon="-3.8322200">
        <ele>683.0</ele>
        <time>2021-02-20T10:17:20Z</time>
      </trkpt>
      <trkpt lat="40.2857550" lon="-3.8323020">
        <ele>683.2</ele>
        <time>2021-02-20T10:17:24Z</time>
      </trkpt>
      <trkpt lat="40.2856600" lon="-3.8323450">
        <ele>683.2</ele>
        <time>2021-02-20T10:17:26Z</time>
      </trkpt>
      <trkpt lat="40.2852070" lon="-3.8325960">
        <ele>683.6</ele>
        <time>2021-02-20T10:17:36Z</time>
      </trkpt>
      <trkpt lat="40.2848290" lon="-3.8327950">
        <ele>683.6</ele>
        <time>2021-02-20T10:17:44Z</time>
      </trkpt>
      <trkpt lat="40.2846880" lon="-3.8328770">
        <ele>683.8</ele>
        <time>2021-02-20T10:17:47Z</time>
      </trkpt>
      <trkpt lat="40.2845550" lon="-3.8329930">
        <ele>683.8</ele>
        <time>2021-02-20T10:17:50Z</time>
      </trkpt>
      <trkpt lat="40.2841320" lon="-3.8333470">
        <ele>683.0</ele>
        <time>2021-02-20T10:17:59Z</time>
      </trkpt>
      <trkpt lat="40.2836830" lon="-3.8337050">
        <ele>682.8</ele>
        <time>2021-02-20T10:18:08Z</time>
      </trkpt>
      <trkpt lat="40.2832820" lon="-3.8340030">
        <ele>682.6</ele>
        <time>2021-02-20T10:18:16Z</time>
      </trkpt>
      <trkpt lat="40.2829410" lon="-3.8342570">
        <ele>682.6</ele>
        <time>2021-02-20T10:18:23Z</time>
      </trkpt>
      <trkpt lat="40.2826370" lon="-3.8345490">
        <ele>683.0</ele>
        <time>2021-02-20T10:18:30Z</time>
      </trkpt>
      <trkpt lat="40.2823320" lon="-3.8349170">
        <ele>683.4</ele>
        <time>2021-02-20T10:18:38Z</time>
      </trkpt>
      <trkpt lat="40.2821290" lon="-3.8351690">
        <ele>684.0</ele>
        <time>2021-02-20T10:18:44Z</time>
      </trkpt>
      <trkpt lat="40.2817790" lon="-3.8355550">
        <ele>684.0</ele>
        <time>2021-02-20T10:18:53Z</time>
      </trkpt>
      <trkpt lat="40.2816900" lon="-3.8356310">
        <ele>684.2</ele>
        <time>2021-02-20T10:18:55Z</time>
      </trkpt>
      <trkpt lat="40.2816430" lon="-3.8356610">
        <ele>684.4</ele>
        <time>2021-02-20T10:18:56Z</time>
      </trkpt>
      <trkpt lat="40.2815460" lon="-3.8357250">
        <ele>684.4</ele>
        <time>2021-02-20T10:18:58Z</time>
      </trkpt>
      <trkpt lat="40.2812410" lon="-3.8359330">
        <ele>684.0</ele>
        <time>2021-02-20T10:19:04Z</time>
      </trkpt>
      <trkpt lat="40.2808410" lon="-3.8362360">
        <ele>684.4</ele>
        <time>2021-02-20T10:19:12Z</time>
      </trkpt>
      <trkpt lat="40.2805570" lon="-3.8364770">
        <ele>684.4</ele>
        <time>2021-02-20T10:19:18Z</time>
      </trkpt>
      <trkpt lat="40.2803080" lon="-3.8367630">
        <ele>684.2</ele>
        <time>2021-02-20T10:19:24Z</time>
      </trkpt>
      <trkpt lat="40.2800600" lon="-3.8370310">
        <ele>684.6</ele>
        <time>2021-02-20T10:19:30Z</time>
      </trkpt>
      <trkpt lat="40.2797040" lon="-3.8373190">
        <ele>685.0</ele>
        <time>2021-02-20T10:19:38Z</time>
      </trkpt>
      <trkpt lat="40.2795170" lon="-3.8374460">
        <ele>685.0</ele>
        <time>2021-02-20T10:19:42Z</time>
      </trkpt>
      <trkpt lat="40.2794390" lon="-3.8375400">
        <ele>685.0</ele>
        <time>2021-02-20T10:19:44Z</time>
      </trkpt>
      <trkpt lat="40.2792720" lon="-3.8377080">
        <ele>685.2</ele>
        <time>2021-02-20T10:19:48Z</time>
      </trkpt>
      <trkpt lat="40.2792310" lon="-3.8377530">
        <ele>685.4</ele>
        <time>2021-02-20T10:19:49Z</time>
      </trkpt>
      <trkpt lat="40.2791570" lon="-3.8378350">
        <ele>685.4</ele>
        <time>2021-02-20T10:19:51Z</time>
      </trkpt>
      <trkpt lat="40.2789400" lon="-3.8380540">
        <ele>685.4</ele>
        <time>2021-02-20T10:19:56Z</time>
      </trkpt>
      <trkpt lat="40.2785830" lon="-3.8384020">
        <ele>685.6</ele>
        <time>2021-02-20T10:20:04Z</time>
      </trkpt>
      <trkpt lat="40.2783610" lon="-3.8386220">
        <ele>686.0</ele>
        <time>2021-02-20T10:20:09Z</time>
      </trkpt>
      <trkpt lat="40.2782790" lon="-3.8387140">
        <ele>686.2</ele>
        <time>2021-02-20T10:20:11Z</time>
      </trkpt>
      <trkpt lat="40.2780720" lon="-3.8389210">
        <ele>686.2</ele>
        <time>2021-02-20T10:20:16Z</time>
      </trkpt>
      <trkpt lat="40.2777180" lon="-3.8392320">
        <ele>686.4</ele>
        <time>2021-02-20T10:20:24Z</time>
      </trkpt>
      <trkpt lat="40.2774610" lon="-3.8394410">
        <ele>686.8</ele>
        <time>2021-02-20T10:20:30Z</time>
      </trkpt>
      <trkpt lat="40.2772950" lon="-3.8395610">
        <ele>687.4</ele>
        <time>2021-02-20T10:20:34Z</time>
      </trkpt>
      <trkpt lat="40.2772580" lon="-3.8396000">
        <ele>687.6</ele>
        <time>2021-02-20T10:20:35Z</time>
      </trkpt>
      <trkpt lat="40.2772220" lon="-3.8396440">
        <ele>687.6</ele>
        <time>2021-02-20T10:20:36Z</time>
      </trkpt>
      <trkpt lat="40.2770640" lon="-3.8398960">
        <ele>688.4</ele>
        <time>2021-02-20T10:20:41Z</time>
      </trkpt>
      <trkpt lat="40.2770320" lon="-3.8399290">
        <ele>688.6</ele>
        <time>2021-02-20T10:20:42Z</time>
      </trkpt>
      <trkpt lat="40.2769380" lon="-3.8399570">
        <ele>688.8</ele>
        <time>2021-02-20T10:20:44Z</time>
      </trkpt>
      <trkpt lat="40.2768890" lon="-3.8399660">
        <ele>689.0</ele>
        <time>2021-02-20T10:20:45Z</time>
      </trkpt>
      <trkpt lat="40.2767910" lon="-3.8399990">
        <ele>689.2</ele>
        <time>2021-02-20T10:20:47Z</time>
      </trkpt>
      <trkpt lat="40.2766570" lon="-3.8400990">
        <ele>689.0</ele>
        <time>2021-02-20T10:20:50Z</time>
      </trkpt>
      <trkpt lat="40.2766120" lon="-3.8401370">
        <ele>689.0</ele>
        <time>2021-02-20T10:20:51Z</time>
      </trkpt>
      <trkpt lat="40.2763900" lon="-3.8403120">
        <ele>689.6</ele>
        <time>2021-02-20T10:20:56Z</time>
      </trkpt>
      <trkpt lat="40.2762980" lon="-3.8403840">
        <ele>689.6</ele>
        <time>2021-02-20T10:20:58Z</time>
      </trkpt>
      <trkpt lat="40.2758700" lon="-3.8407100">
        <ele>689.6</ele>
        <time>2021-02-20T10:21:07Z</time>
      </trkpt>
      <trkpt lat="40.2753840" lon="-3.8410260">
        <ele>690.4</ele>
        <time>2021-02-20T10:21:17Z</time>
      </trkpt>
      <trkpt lat="40.2749790" lon="-3.8412620">
        <ele>690.6</ele>
        <time>2021-02-20T10:21:25Z</time>
      </trkpt>
      <trkpt lat="40.2749280" lon="-3.8412860">
        <ele>690.8</ele>
        <time>2021-02-20T10:21:26Z</time>
      </trkpt>
      <trkpt lat="40.2745750" lon="-3.8414720">
        <ele>691.6</ele>
        <time>2021-02-20T10:21:33Z</time>
      </trkpt>
      <trkpt lat="40.2745260" lon="-3.8415040">
        <ele>691.8</ele>
        <time>2021-02-20T10:21:34Z</time>
      </trkpt>
      <trkpt lat="40.2742380" lon="-3.8416760">
        <ele>692.2</ele>
        <time>2021-02-20T10:21:40Z</time>
      </trkpt>
      <trkpt lat="40.2738830" lon="-3.8418450">
        <ele>691.4</ele>
        <time>2021-02-20T10:21:47Z</time>
      </trkpt>
      <trkpt lat="40.2735720" lon="-3.8419720">
        <ele>691.6</ele>
        <time>2021-02-20T10:21:53Z</time>
      </trkpt>
      <trkpt lat="40.2733680" lon="-3.8420440">
        <ele>692.0</ele>
        <time>2021-02-20T10:21:57Z</time>
      </trkpt>
      <trkpt lat="40.2732680" lon="-3.8420940">
        <ele>692.0</ele>
        <time>2021-02-20T10:21:59Z</time>
      </trkpt>
      <trkpt lat="40.2729680" lon="-3.8422290">
        <ele>692.8</ele>
        <time>2021-02-20T10:22:05Z</time>
      </trkpt>
      <trkpt lat="40.2728650" lon="-3.8422640">
        <ele>692.8</ele>
        <time>2021-02-20T10:22:07Z</time>
      </trkpt>
      <trkpt lat="40.2725110" lon="-3.8423820">
        <ele>693.0</ele>
        <time>2021-02-20T10:22:14Z</time>
      </trkpt>
      <trkpt lat="40.2723180" lon="-3.8424380">
        <ele>693.8</ele>
        <time>2021-02-20T10:22:18Z</time>
      </trkpt>
      <trkpt lat="40.2721850" lon="-3.8424800">
        <ele>694.2</ele>
        <time>2021-02-20T10:22:21Z</time>
      </trkpt>
      <trkpt lat="40.2720510" lon="-3.8425230">
        <ele>694.8</ele>
        <time>2021-02-20T10:22:24Z</time>
      </trkpt>
      <trkpt lat="40.2717600" lon="-3.8426060">
        <ele>694.8</ele>
        <time>2021-02-20T10:22:30Z</time>
      </trkpt>
      <trkpt lat="40.2713210" lon="-3.8427110">
        <ele>695.2</ele>
        <time>2021-02-20T10:22:39Z</time>
      </trkpt>
      <trkpt lat="40.2711450" lon="-3.8427540">
        <ele>695.8</ele>
        <time>2021-02-20T10:22:43Z</time>
      </trkpt>
      <trkpt lat="40.2709350" lon="-3.8427990">
        <ele>697.0</ele>
        <time>2021-02-20T10:22:48Z</time>
      </trkpt>
      <trkpt lat="40.2707040" lon="-3.8428490">
        <ele>698.2</ele>
        <time>2021-02-20T10:22:54Z</time>
      </trkpt>
      <trkpt lat="40.2706310" lon="-3.8428580">
        <ele>698.6</ele>
        <time>2021-02-20T10:22:56Z</time>
      </trkpt>
      <trkpt lat="40.2704880" lon="-3.8428990">
        <ele>699.4</ele>
        <time>2021-02-20T10:23:00Z</time>
      </trkpt>
      <trkpt lat="40.2703790" lon="-3.8429240">
        <ele>700.0</ele>
        <time>2021-02-20T10:23:03Z</time>
      </trkpt>
      <trkpt lat="40.2701820" lon="-3.8429610">
        <ele>700.2</ele>
        <time>2021-02-20T10:23:08Z</time>
      </trkpt>
      <trkpt lat="40.2701000" lon="-3.8429740">
        <ele>700.6</ele>
        <time>2021-02-20T10:23:10Z</time>
      </trkpt>
      <trkpt lat="40.2698950" lon="-3.8429660">
        <ele>700.8</ele>
        <time>2021-02-20T10:23:15Z</time>
      </trkpt>
      <trkpt lat="40.2698530" lon="-3.8429680">
        <ele>700.8</ele>
        <time>2021-02-20T10:23:16Z</time>
      </trkpt>
      <trkpt lat="40.2696380" lon="-3.8429940">
        <ele>700.8</ele>
        <time>2021-02-20T10:23:21Z</time>
      </trkpt>
      <trkpt lat="40.2695560" lon="-3.8429970">
        <ele>701.0</ele>
        <time>2021-02-20T10:23:23Z</time>
      </trkpt>
      <trkpt lat="40.2694780" lon="-3.8430060">
        <ele>701.6</ele>
        <time>2021-02-20T10:23:25Z</time>
      </trkpt>
      <trkpt lat="40.2692750" lon="-3.8430390">
        <ele>702.6</ele>
        <time>2021-02-20T10:23:30Z</time>
      </trkpt>
      <trkpt lat="40.2692340" lon="-3.8430420">
        <ele>702.8</ele>
        <time>2021-02-20T10:23:31Z</time>
      </trkpt>
      <trkpt lat="40.2690200" lon="-3.8430580">
        <ele>703.0</ele>
        <time>2021-02-20T10:23:36Z</time>
      </trkpt>
      <trkpt lat="40.2689340" lon="-3.8430520">
        <ele>703.4</ele>
        <time>2021-02-20T10:23:38Z</time>
      </trkpt>
      <trkpt lat="40.2687100" lon="-3.8430580">
        <ele>703.6</ele>
        <time>2021-02-20T10:23:43Z</time>
      </trkpt>
      <trkpt lat="40.2685670" lon="-3.8430600">
        <ele>703.4</ele>
        <time>2021-02-20T10:23:46Z</time>
      </trkpt>
      <trkpt lat="40.2685170" lon="-3.8430670">
        <ele>703.2</ele>
        <time>2021-02-20T10:23:47Z</time>
      </trkpt>
      <trkpt lat="40.2684220" lon="-3.8431030">
        <ele>703.0</ele>
        <time>2021-02-20T10:23:49Z</time>
      </trkpt>
      <trkpt lat="40.2683370" lon="-3.8431840">
        <ele>703.0</ele>
        <time>2021-02-20T10:23:51Z</time>
      </trkpt>
      <trkpt lat="40.2681910" lon="-3.8432870">
        <ele>702.6</ele>
        <time>2021-02-20T10:23:54Z</time>
      </trkpt>
      <trkpt lat="40.2680420" lon="-3.8433860">
        <ele>702.4</ele>
        <time>2021-02-20T10:23:57Z</time>
      </trkpt>
      <trkpt lat="40.2678480" lon="-3.8435350">
        <ele>702.6</ele>
        <time>2021-02-20T10:24:01Z</time>
      </trkpt>
      <trkpt lat="40.2676980" lon="-3.8436360">
        <ele>702.6</ele>
        <time>2021-02-20T10:24:04Z</time>
      </trkpt>
      <trkpt lat="40.2674530" lon="-3.8437780">
        <ele>702.6</ele>
        <time>2021-02-20T10:24:09Z</time>
      </trkpt>
      <trkpt lat="40.2670650" lon="-3.8439670">
        <ele>701.8</ele>
        <time>2021-02-20T10:24:16Z</time>
      </trkpt>
      <trkpt lat="40.2669490" lon="-3.8440400">
        <ele>701.6</ele>
        <time>2021-02-20T10:24:18Z</time>
      </trkpt>
      <trkpt lat="40.2665820" lon="-3.8442450">
        <ele>700.6</ele>
        <time>2021-02-20T10:24:24Z</time>
      </trkpt>
      <trkpt lat="40.2661890" lon="-3.8444580">
        <ele>699.4</ele>
        <time>2021-02-20T10:24:30Z</time>
      </trkpt>
      <trkpt lat="40.2660670" lon="-3.8445560">
        <ele>699.2</ele>
        <time>2021-02-20T10:24:32Z</time>
      </trkpt>
      <trkpt lat="40.2657540" lon="-3.8447840">
        <ele>698.4</ele>
        <time>2021-02-20T10:24:37Z</time>
      </trkpt>
      <trkpt lat="40.2656930" lon="-3.8448340">
        <ele>698.2</ele>
        <time>2021-02-20T10:24:38Z</time>
      </trkpt>
      <trkpt lat="40.2654540" lon="-3.8450390">
        <ele>697.2</ele>
        <time>2021-02-20T10:24:42Z</time>
      </trkpt>
      <trkpt lat="40.2652240" lon="-3.8452310">
        <ele>696.8</ele>
        <time>2021-02-20T10:24:46Z</time>
      </trkpt>
      <trkpt lat="40.2649370" lon="-3.8455020">
        <ele>696.4</ele>
        <time>2021-02-20T10:24:52Z</time>
      </trkpt>
      <trkpt lat="40.2646950" lon="-3.8457120">
        <ele>696.6</ele>
        <time>2021-02-20T10:24:57Z</time>
      </trkpt>
      <trkpt lat="40.2643180" lon="-3.8459400">
        <ele>697.0</ele>
        <time>2021-02-20T10:25:04Z</time>
      </trkpt>
      <trkpt lat="40.2639870" lon="-3.8461140">
        <ele>696.4</ele>
        <time>2021-02-20T10:25:10Z</time>
      </trkpt>
      <trkpt lat="40.2639410" lon="-3.8461570">
        <ele>696.2</ele>
        <time>2021-02-20T10:25:11Z</time>
      </trkpt>
      <trkpt lat="40.2638540" lon="-3.8462570">
        <ele>696.2</ele>
        <time>2021-02-20T10:25:13Z</time>
      </trkpt>
      <trkpt lat="40.2638120" lon="-3.8463110">
        <ele>696.2</ele>
        <time>2021-02-20T10:25:14Z</time>
      </trkpt>
      <trkpt lat="40.2637280" lon="-3.8463990">
        <ele>696.2</ele>
        <time>2021-02-20T10:25:16Z</time>
      </trkpt>
      <trkpt lat="40.2633700" lon="-3.8466960">
        <ele>696.4</ele>
        <time>2021-02-20T10:25:24Z</time>
      </trkpt>
      <trkpt lat="40.2630890" lon="-3.8469230">
        <ele>697.2</ele>
        <time>2021-02-20T10:25:30Z</time>
      </trkpt>
      <trkpt lat="40.2629990" lon="-3.8469960">
        <ele>697.4</ele>
        <time>2021-02-20T10:25:32Z</time>
      </trkpt>
      <trkpt lat="40.2627540" lon="-3.8471630">
        <ele>698.0</ele>
        <time>2021-02-20T10:25:38Z</time>
      </trkpt>
      <trkpt lat="40.2627170" lon="-3.8471810">
        <ele>698.2</ele>
        <time>2021-02-20T10:25:39Z</time>
      </trkpt>
      <trkpt lat="40.2626210" lon="-3.8472730">
        <ele>698.8</ele>
        <time>2021-02-20T10:25:43Z</time>
      </trkpt>
      <trkpt lat="40.2626020" lon="-3.8472730">
        <ele>699.2</ele>
        <time>2021-02-20T10:25:54Z</time>
      </trkpt>
      <trkpt lat="40.2625740" lon="-3.8472860">
        <ele>699.2</ele>
        <time>2021-02-20T10:25:55Z</time>
      </trkpt>
      <trkpt lat="40.2625440" lon="-3.8472990">
        <ele>699.4</ele>
        <time>2021-02-20T10:25:56Z</time>
      </trkpt>
      <trkpt lat="40.2623110" lon="-3.8473780">
        <ele>700.0</ele>
        <time>2021-02-20T10:26:02Z</time>
      </trkpt>
      <trkpt lat="40.2622180" lon="-3.8474710">
        <ele>700.4</ele>
        <time>2021-02-20T10:26:05Z</time>
      </trkpt>
      <trkpt lat="40.2621890" lon="-3.8475040">
        <ele>700.6</ele>
        <time>2021-02-20T10:26:06Z</time>
      </trkpt>
      <trkpt lat="40.2620130" lon="-3.8476270">
        <ele>701.2</ele>
        <time>2021-02-20T10:26:11Z</time>
      </trkpt>
      <trkpt lat="40.2618570" lon="-3.8476870">
        <ele>701.6</ele>
        <time>2021-02-20T10:26:15Z</time>
      </trkpt>
      <trkpt lat="40.2617020" lon="-3.8477630">
        <ele>701.8</ele>
        <time>2021-02-20T10:26:19Z</time>
      </trkpt>
      <trkpt lat="40.2615130" lon="-3.8478530">
        <ele>702.8</ele>
        <time>2021-02-20T10:26:24Z</time>
      </trkpt>
      <trkpt lat="40.2613530" lon="-3.8479170">
        <ele>703.2</ele>
        <time>2021-02-20T10:26:28Z</time>
      </trkpt>
      <trkpt lat="40.2610330" lon="-3.8480640">
        <ele>702.4</ele>
        <time>2021-02-20T10:26:34Z</time>
      </trkpt>
      <trkpt lat="40.2608550" lon="-3.8481230">
        <ele>701.6</ele>
        <time>2021-02-20T10:26:37Z</time>
      </trkpt>
      <trkpt lat="40.2606270" lon="-3.8482250">
        <ele>700.4</ele>
        <time>2021-02-20T10:26:41Z</time>
      </trkpt>
      <trkpt lat="40.2602730" lon="-3.8483740">
        <ele>699.6</ele>
        <time>2021-02-20T10:26:47Z</time>
      </trkpt>
      <trkpt lat="40.2602120" lon="-3.8483990">
        <ele>699.4</ele>
        <time>2021-02-20T10:26:48Z</time>
      </trkpt>
      <trkpt lat="40.2598350" lon="-3.8485140">
        <ele>698.8</ele>
        <time>2021-02-20T10:26:54Z</time>
      </trkpt>
      <trkpt lat="40.2597740" lon="-3.8485400">
        <ele>698.4</ele>
        <time>2021-02-20T10:26:55Z</time>
      </trkpt>
      <trkpt lat="40.2594820" lon="-3.8486610">
        <ele>697.6</ele>
        <time>2021-02-20T10:27:00Z</time>
      </trkpt>
      <trkpt lat="40.2593630" lon="-3.8487100">
        <ele>697.4</ele>
        <time>2021-02-20T10:27:02Z</time>
      </trkpt>
      <trkpt lat="40.2590120" lon="-3.8488650">
        <ele>696.6</ele>
        <time>2021-02-20T10:27:08Z</time>
      </trkpt>
      <trkpt lat="40.2587790" lon="-3.8489900">
        <ele>696.4</ele>
        <time>2021-02-20T10:27:12Z</time>
      </trkpt>
      <trkpt lat="40.2586570" lon="-3.8490340">
        <ele>696.4</ele>
        <time>2021-02-20T10:27:14Z</time>
      </trkpt>
      <trkpt lat="40.2585360" lon="-3.8490950">
        <ele>696.4</ele>
        <time>2021-02-20T10:27:16Z</time>
      </trkpt>
      <trkpt lat="40.2584160" lon="-3.8491420">
        <ele>696.0</ele>
        <time>2021-02-20T10:27:18Z</time>
      </trkpt>
      <trkpt lat="40.2583570" lon="-3.8491610">
        <ele>696.0</ele>
        <time>2021-02-20T10:27:19Z</time>
      </trkpt>
      <trkpt lat="40.2580660" lon="-3.8492790">
        <ele>696.0</ele>
        <time>2021-02-20T10:27:24Z</time>
      </trkpt>
      <trkpt lat="40.2580090" lon="-3.8493100">
        <ele>696.0</ele>
        <time>2021-02-20T10:27:25Z</time>
      </trkpt>
      <trkpt lat="40.2576850" lon="-3.8495120">
        <ele>695.6</ele>
        <time>2021-02-20T10:27:31Z</time>
      </trkpt>
      <trkpt lat="40.2576280" lon="-3.8495320">
        <ele>695.6</ele>
        <time>2021-02-20T10:27:32Z</time>
      </trkpt>
      <trkpt lat="40.2572720" lon="-3.8496350">
        <ele>696.4</ele>
        <time>2021-02-20T10:27:38Z</time>
      </trkpt>
      <trkpt lat="40.2568800" lon="-3.8497050">
        <ele>696.2</ele>
        <time>2021-02-20T10:27:45Z</time>
      </trkpt>
      <trkpt lat="40.2567630" lon="-3.8496950">
        <ele>695.8</ele>
        <time>2021-02-20T10:27:47Z</time>
      </trkpt>
      <trkpt lat="40.2565300" lon="-3.8496790">
        <ele>695.8</ele>
        <time>2021-02-20T10:27:51Z</time>
      </trkpt>
      <trkpt lat="40.2564150" lon="-3.8497090">
        <ele>695.8</ele>
        <time>2021-02-20T10:27:53Z</time>
      </trkpt>
      <trkpt lat="40.2563000" lon="-3.8497460">
        <ele>695.8</ele>
        <time>2021-02-20T10:27:55Z</time>
      </trkpt>
      <trkpt lat="40.2560810" lon="-3.8498540">
        <ele>695.4</ele>
        <time>2021-02-20T10:27:59Z</time>
      </trkpt>
      <trkpt lat="40.2560250" lon="-3.8498770">
        <ele>695.4</ele>
        <time>2021-02-20T10:28:00Z</time>
      </trkpt>
      <trkpt lat="40.2557560" lon="-3.8499680">
        <ele>695.6</ele>
        <time>2021-02-20T10:28:05Z</time>
      </trkpt>
      <trkpt lat="40.2556060" lon="-3.8500420">
        <ele>695.4</ele>
        <time>2021-02-20T10:28:08Z</time>
      </trkpt>
      <trkpt lat="40.2555140" lon="-3.8501050">
        <ele>695.6</ele>
        <time>2021-02-20T10:28:10Z</time>
      </trkpt>
      <trkpt lat="40.2553260" lon="-3.8502160">
        <ele>696.0</ele>
        <time>2021-02-20T10:28:14Z</time>
      </trkpt>
      <trkpt lat="40.2551830" lon="-3.8502900">
        <ele>696.4</ele>
        <time>2021-02-20T10:28:17Z</time>
      </trkpt>
      <trkpt lat="40.2548510" lon="-3.8504710">
        <ele>697.0</ele>
        <time>2021-02-20T10:28:24Z</time>
      </trkpt>
      <trkpt lat="40.2547130" lon="-3.8505400">
        <ele>697.4</ele>
        <time>2021-02-20T10:28:27Z</time>
      </trkpt>
      <trkpt lat="40.2545100" lon="-3.8506770">
        <ele>698.6</ele>
        <time>2021-02-20T10:28:32Z</time>
      </trkpt>
      <trkpt lat="40.2544650" lon="-3.8506980">
        <ele>698.6</ele>
        <time>2021-02-20T10:28:33Z</time>
      </trkpt>
      <trkpt lat="40.2543670" lon="-3.8507540">
        <ele>698.0</ele>
        <time>2021-02-20T10:28:35Z</time>
      </trkpt>
      <trkpt lat="40.2543170" lon="-3.8507830">
        <ele>697.8</ele>
        <time>2021-02-20T10:28:36Z</time>
      </trkpt>
      <trkpt lat="40.2541590" lon="-3.8508910">
        <ele>697.2</ele>
        <time>2021-02-20T10:28:39Z</time>
      </trkpt>
      <trkpt lat="40.2541010" lon="-3.8509180">
        <ele>697.0</ele>
        <time>2021-02-20T10:28:40Z</time>
      </trkpt>
      <trkpt lat="40.2540370" lon="-3.8509340">
        <ele>697.0</ele>
        <time>2021-02-20T10:28:41Z</time>
      </trkpt>
      <trkpt lat="40.2538630" lon="-3.8510370">
        <ele>696.8</ele>
        <time>2021-02-20T10:28:44Z</time>
      </trkpt>
      <trkpt lat="40.2537500" lon="-3.8511060">
        <ele>696.8</ele>
        <time>2021-02-20T10:28:46Z</time>
      </trkpt>
      <trkpt lat="40.2534820" lon="-3.8512620">
        <ele>696.6</ele>
        <time>2021-02-20T10:28:51Z</time>
      </trkpt>
      <trkpt lat="40.2534290" lon="-3.8512940">
        <ele>696.4</ele>
        <time>2021-02-20T10:28:52Z</time>
      </trkpt>
      <trkpt lat="40.2533820" lon="-3.8513330">
        <ele>696.6</ele>
        <time>2021-02-20T10:28:53Z</time>
      </trkpt>
      <trkpt lat="40.2532310" lon="-3.8514220">
        <ele>696.6</ele>
        <time>2021-02-20T10:28:56Z</time>
      </trkpt>
      <trkpt lat="40.2531810" lon="-3.8514470">
        <ele>696.6</ele>
        <time>2021-02-20T10:28:57Z</time>
      </trkpt>
      <trkpt lat="40.2530490" lon="-3.8515670">
        <ele>696.6</ele>
        <time>2021-02-20T10:29:00Z</time>
      </trkpt>
      <trkpt lat="40.2530050" lon="-3.8516100">
        <ele>696.6</ele>
        <time>2021-02-20T10:29:01Z</time>
      </trkpt>
      <trkpt lat="40.2528170" lon="-3.8517700">
        <ele>696.6</ele>
        <time>2021-02-20T10:29:05Z</time>
      </trkpt>
      <trkpt lat="40.2527830" lon="-3.8518230">
        <ele>696.4</ele>
        <time>2021-02-20T10:29:06Z</time>
      </trkpt>
      <trkpt lat="40.2525520" lon="-3.8520490">
        <ele>696.8</ele>
        <time>2021-02-20T10:29:11Z</time>
      </trkpt>
      <trkpt lat="40.2525110" lon="-3.8521050">
        <ele>696.8</ele>
        <time>2021-02-20T10:29:12Z</time>
      </trkpt>
      <trkpt lat="40.2524340" lon="-3.8522230">
        <ele>696.8</ele>
        <time>2021-02-20T10:29:14Z</time>
      </trkpt>
      <trkpt lat="40.2523920" lon="-3.8522750">
        <ele>697.0</ele>
        <time>2021-02-20T10:29:15Z</time>
      </trkpt>
      <trkpt lat="40.2521570" lon="-3.8524810">
        <ele>697.6</ele>
        <time>2021-02-20T10:29:20Z</time>
      </trkpt>
      <trkpt lat="40.2518390" lon="-3.8527480">
        <ele>698.2</ele>
        <time>2021-02-20T10:29:27Z</time>
      </trkpt>
      <trkpt lat="40.2517950" lon="-3.8527890">
        <ele>698.4</ele>
        <time>2021-02-20T10:29:28Z</time>
      </trkpt>
      <trkpt lat="40.2514950" lon="-3.8530630">
        <ele>699.0</ele>
        <time>2021-02-20T10:29:35Z</time>
      </trkpt>
      <trkpt lat="40.2514040" lon="-3.8531270">
        <ele>699.2</ele>
        <time>2021-02-20T10:29:37Z</time>
      </trkpt>
      <trkpt lat="40.2511280" lon="-3.8533010">
        <ele>700.0</ele>
        <time>2021-02-20T10:29:43Z</time>
      </trkpt>
      <trkpt lat="40.2510810" lon="-3.8533280">
        <ele>700.2</ele>
        <time>2021-02-20T10:29:44Z</time>
      </trkpt>
      <trkpt lat="40.2508110" lon="-3.8534700">
        <ele>701.4</ele>
        <time>2021-02-20T10:29:50Z</time>
      </trkpt>
      <trkpt lat="40.2507660" lon="-3.8534940">
        <ele>701.8</ele>
        <time>2021-02-20T10:29:51Z</time>
      </trkpt>
      <trkpt lat="40.2505700" lon="-3.8536220">
        <ele>702.6</ele>
        <time>2021-02-20T10:29:56Z</time>
      </trkpt>
      <trkpt lat="40.2504970" lon="-3.8536520">
        <ele>703.0</ele>
        <time>2021-02-20T10:29:58Z</time>
      </trkpt>
      <trkpt lat="40.2504540" lon="-3.8536580">
        <ele>703.0</ele>
        <time>2021-02-20T10:29:59Z</time>
      </trkpt>
      <trkpt lat="40.2503560" lon="-3.8536830">
        <ele>702.8</ele>
        <time>2021-02-20T10:30:01Z</time>
      </trkpt>
      <trkpt lat="40.2503190" lon="-3.8537280">
        <ele>702.6</ele>
        <time>2021-02-20T10:30:02Z</time>
      </trkpt>
      <trkpt lat="40.2500520" lon="-3.8539180">
        <ele>702.4</ele>
        <time>2021-02-20T10:30:08Z</time>
      </trkpt>
      <trkpt lat="40.2496550" lon="-3.8541310">
        <ele>701.6</ele>
        <time>2021-02-20T10:30:15Z</time>
      </trkpt>
      <trkpt lat="40.2495930" lon="-3.8541610">
        <ele>701.4</ele>
        <time>2021-02-20T10:30:16Z</time>
      </trkpt>
      <trkpt lat="40.2492780" lon="-3.8543030">
        <ele>700.2</ele>
        <time>2021-02-20T10:30:21Z</time>
      </trkpt>
      <trkpt lat="40.2491410" lon="-3.8543560">
        <ele>700.0</ele>
        <time>2021-02-20T10:30:23Z</time>
      </trkpt>
      <trkpt lat="40.2488650" lon="-3.8544510">
        <ele>699.4</ele>
        <time>2021-02-20T10:30:27Z</time>
      </trkpt>
      <trkpt lat="40.2487930" lon="-3.8544760">
        <ele>699.0</ele>
        <time>2021-02-20T10:30:28Z</time>
      </trkpt>
      <trkpt lat="40.2486490" lon="-3.8545230">
        <ele>698.4</ele>
        <time>2021-02-20T10:30:30Z</time>
      </trkpt>
      <trkpt lat="40.2485790" lon="-3.8545350">
        <ele>698.4</ele>
        <time>2021-02-20T10:30:31Z</time>
      </trkpt>
      <trkpt lat="40.2484530" lon="-3.8545970">
        <ele>698.0</ele>
        <time>2021-02-20T10:30:33Z</time>
      </trkpt>
      <trkpt lat="40.2483230" lon="-3.8546510">
        <ele>697.8</ele>
        <time>2021-02-20T10:30:35Z</time>
      </trkpt>
      <trkpt lat="40.2478560" lon="-3.8548180">
        <ele>697.2</ele>
        <time>2021-02-20T10:30:42Z</time>
      </trkpt>
      <trkpt lat="40.2475500" lon="-3.8549370">
        <ele>697.2</ele>
        <time>2021-02-20T10:30:47Z</time>
      </trkpt>
      <trkpt lat="40.2473770" lon="-3.8550500">
        <ele>697.2</ele>
        <time>2021-02-20T10:30:50Z</time>
      </trkpt>
      <trkpt lat="40.2472780" lon="-3.8551520">
        <ele>697.2</ele>
        <time>2021-02-20T10:30:52Z</time>
      </trkpt>
      <trkpt lat="40.2471630" lon="-3.8552210">
        <ele>697.0</ele>
        <time>2021-02-20T10:30:54Z</time>
      </trkpt>
      <trkpt lat="40.2470510" lon="-3.8551880">
        <ele>697.0</ele>
        <time>2021-02-20T10:30:56Z</time>
      </trkpt>
      <trkpt lat="40.2470000" lon="-3.8550650">
        <ele>697.0</ele>
        <time>2021-02-20T10:30:58Z</time>
      </trkpt>
      <trkpt lat="40.2469900" lon="-3.8549200">
        <ele>697.0</ele>
        <time>2021-02-20T10:31:00Z</time>
      </trkpt>
      <trkpt lat="40.2469850" lon="-3.8548450">
        <ele>697.0</ele>
        <time>2021-02-20T10:31:01Z</time>
      </trkpt>
      <trkpt lat="40.2469520" lon="-3.8544900">
        <ele>697.0</ele>
        <time>2021-02-20T10:31:06Z</time>
      </trkpt>
      <trkpt lat="40.2469140" lon="-3.8541080">
        <ele>696.4</ele>
        <time>2021-02-20T10:31:11Z</time>
      </trkpt>
      <trkpt lat="40.2468890" lon="-3.8539370">
        <ele>695.6</ele>
        <time>2021-02-20T10:31:13Z</time>
      </trkpt>
      <trkpt lat="40.2468430" lon="-3.8537650">
        <ele>694.4</ele>
        <time>2021-02-20T10:31:15Z</time>
      </trkpt>
      <trkpt lat="40.2467980" lon="-3.8537160">
        <ele>693.6</ele>
        <time>2021-02-20T10:31:16Z</time>
      </trkpt>
      <trkpt lat="40.2467390" lon="-3.8536830">
        <ele>692.8</ele>
        <time>2021-02-20T10:31:17Z</time>
      </trkpt>
      <trkpt lat="40.2466120" lon="-3.8536590">
        <ele>692.0</ele>
        <time>2021-02-20T10:31:19Z</time>
      </trkpt>
      <trkpt lat="40.2465500" lon="-3.8536470">
        <ele>691.8</ele>
        <time>2021-02-20T10:31:20Z</time>
      </trkpt>
      <trkpt lat="40.2464890" lon="-3.8536360">
        <ele>691.6</ele>
        <time>2021-02-20T10:31:21Z</time>
      </trkpt>
      <trkpt lat="40.2463650" lon="-3.8536080">
        <ele>691.4</ele>
        <time>2021-02-20T10:31:23Z</time>
      </trkpt>
      <trkpt lat="40.2462420" lon="-3.8536010">
        <ele>691.2</ele>
        <time>2021-02-20T10:31:25Z</time>
      </trkpt>
      <trkpt lat="40.2460560" lon="-3.8535740">
        <ele>690.8</ele>
        <time>2021-02-20T10:31:28Z</time>
      </trkpt>
      <trkpt lat="40.2459370" lon="-3.8535420">
        <ele>690.6</ele>
        <time>2021-02-20T10:31:30Z</time>
      </trkpt>
      <trkpt lat="40.2458800" lon="-3.8535160">
        <ele>690.4</ele>
        <time>2021-02-20T10:31:31Z</time>
      </trkpt>
      <trkpt lat="40.2456650" lon="-3.8534930">
        <ele>690.2</ele>
        <time>2021-02-20T10:31:35Z</time>
      </trkpt>
      <trkpt lat="40.2456220" lon="-3.8535040">
        <ele>690.2</ele>
        <time>2021-02-20T10:31:36Z</time>
      </trkpt>
      <trkpt lat="40.2454740" lon="-3.8535250">
        <ele>690.0</ele>
        <time>2021-02-20T10:31:39Z</time>
      </trkpt>
      <trkpt lat="40.2451440" lon="-3.8535520">
        <ele>690.4</ele>
        <time>2021-02-20T10:31:45Z</time>
      </trkpt>
      <trkpt lat="40.2450900" lon="-3.8535320">
        <ele>690.2</ele>
        <time>2021-02-20T10:31:46Z</time>
      </trkpt>
      <trkpt lat="40.2449900" lon="-3.8534870">
        <ele>690.4</ele>
        <time>2021-02-20T10:31:48Z</time>
      </trkpt>
      <trkpt lat="40.2449460" lon="-3.8534560">
        <ele>690.6</ele>
        <time>2021-02-20T10:31:49Z</time>
      </trkpt>
      <trkpt lat="40.2447300" lon="-3.8533330">
        <ele>691.6</ele>
        <time>2021-02-20T10:31:54Z</time>
      </trkpt>
      <trkpt lat="40.2446000" lon="-3.8532670">
        <ele>691.6</ele>
        <time>2021-02-20T10:31:57Z</time>
      </trkpt>
      <trkpt lat="40.2443310" lon="-3.8531400">
        <ele>692.8</ele>
        <time>2021-02-20T10:32:03Z</time>
      </trkpt>
      <trkpt lat="40.2442520" lon="-3.8530880">
        <ele>693.2</ele>
        <time>2021-02-20T10:32:05Z</time>
      </trkpt>
      <trkpt lat="40.2442160" lon="-3.8530580">
        <ele>693.4</ele>
        <time>2021-02-20T10:32:06Z</time>
      </trkpt>
      <trkpt lat="40.2441150" lon="-3.8529570">
        <ele>694.0</ele>
        <time>2021-02-20T10:32:09Z</time>
      </trkpt>
      <trkpt lat="40.2440600" lon="-3.8528700">
        <ele>694.2</ele>
        <time>2021-02-20T10:32:11Z</time>
      </trkpt>
      <trkpt lat="40.2439990" lon="-3.8527280">
        <ele>694.8</ele>
        <time>2021-02-20T10:32:14Z</time>
      </trkpt>
      <trkpt lat="40.2439840" lon="-3.8526760">
        <ele>695.2</ele>
        <time>2021-02-20T10:32:15Z</time>
      </trkpt>
      <trkpt lat="40.2439660" lon="-3.8525670">
        <ele>695.8</ele>
        <time>2021-02-20T10:32:17Z</time>
      </trkpt>
      <trkpt lat="40.2439620" lon="-3.8524590">
        <ele>696.4</ele>
        <time>2021-02-20T10:32:19Z</time>
      </trkpt>
      <trkpt lat="40.2439530" lon="-3.8522450">
        <ele>697.0</ele>
        <time>2021-02-20T10:32:23Z</time>
      </trkpt>
      <trkpt lat="40.2438820" lon="-3.8521090">
        <ele>697.6</ele>
        <time>2021-02-20T10:32:26Z</time>
      </trkpt>
      <trkpt lat="40.2438480" lon="-3.8520790">
        <ele>697.8</ele>
        <time>2021-02-20T10:32:27Z</time>
      </trkpt>
      <trkpt lat="40.2437290" lon="-3.8520700">
        <ele>698.8</ele>
        <time>2021-02-20T10:32:30Z</time>
      </trkpt>
      <trkpt lat="40.2436530" lon="-3.8520970">
        <ele>699.4</ele>
        <time>2021-02-20T10:32:32Z</time>
      </trkpt>
      <trkpt lat="40.2435060" lon="-3.8521870">
        <ele>699.4</ele>
        <time>2021-02-20T10:32:36Z</time>
      </trkpt>
      <trkpt lat="40.2431820" lon="-3.8523310">
        <ele>698.6</ele>
        <time>2021-02-20T10:32:43Z</time>
      </trkpt>
      <trkpt lat="40.2430800" lon="-3.8524030">
        <ele>698.0</ele>
        <time>2021-02-20T10:32:45Z</time>
      </trkpt>
      <trkpt lat="40.2430440" lon="-3.8524680">
        <ele>697.4</ele>
        <time>2021-02-20T10:32:46Z</time>
      </trkpt>
      <trkpt lat="40.2430300" lon="-3.8525520">
        <ele>697.0</ele>
        <time>2021-02-20T10:32:47Z</time>
      </trkpt>
      <trkpt lat="40.2430560" lon="-3.8527080">
        <ele>696.2</ele>
        <time>2021-02-20T10:32:49Z</time>
      </trkpt>
      <trkpt lat="40.2430920" lon="-3.8527750">
        <ele>695.8</ele>
        <time>2021-02-20T10:32:50Z</time>
      </trkpt>
      <trkpt lat="40.2431910" lon="-3.8529000">
        <ele>694.4</ele>
        <time>2021-02-20T10:32:52Z</time>
      </trkpt>
      <trkpt lat="40.2432360" lon="-3.8529680">
        <ele>693.8</ele>
        <time>2021-02-20T10:32:53Z</time>
      </trkpt>
      <trkpt lat="40.2432600" lon="-3.8530430">
        <ele>693.2</ele>
        <time>2021-02-20T10:32:54Z</time>
      </trkpt>
      <trkpt lat="40.2432230" lon="-3.8531960">
        <ele>692.2</ele>
        <time>2021-02-20T10:32:56Z</time>
      </trkpt>
      <trkpt lat="40.2431650" lon="-3.8532410">
        <ele>691.6</ele>
        <time>2021-02-20T10:32:57Z</time>
      </trkpt>
      <trkpt lat="40.2430920" lon="-3.8532600">
        <ele>691.4</ele>
        <time>2021-02-20T10:32:58Z</time>
      </trkpt>
      <trkpt lat="40.2428840" lon="-3.8532320">
        <ele>690.4</ele>
        <time>2021-02-20T10:33:01Z</time>
      </trkpt>
      <trkpt lat="40.2427510" lon="-3.8531710">
        <ele>690.2</ele>
        <time>2021-02-20T10:33:03Z</time>
      </trkpt>
      <trkpt lat="40.2426190" lon="-3.8531210">
        <ele>689.4</ele>
        <time>2021-02-20T10:33:05Z</time>
      </trkpt>
      <trkpt lat="40.2425520" lon="-3.8531120">
        <ele>689.4</ele>
        <time>2021-02-20T10:33:06Z</time>
      </trkpt>
      <trkpt lat="40.2422860" lon="-3.8530910">
        <ele>689.0</ele>
        <time>2021-02-20T10:33:10Z</time>
      </trkpt>
      <trkpt lat="40.2421540" lon="-3.8530880">
        <ele>689.0</ele>
        <time>2021-02-20T10:33:12Z</time>
      </trkpt>
      <trkpt lat="40.2416520" lon="-3.8530060">
        <ele>688.6</ele>
        <time>2021-02-20T10:33:20Z</time>
      </trkpt>
      <trkpt lat="40.2414070" lon="-3.8529320">
        <ele>688.8</ele>
        <time>2021-02-20T10:33:24Z</time>
      </trkpt>
      <trkpt lat="40.2412780" lon="-3.8529240">
        <ele>688.8</ele>
        <time>2021-02-20T10:33:26Z</time>
      </trkpt>
      <trkpt lat="40.2411060" lon="-3.8528450">
        <ele>689.0</ele>
        <time>2021-02-20T10:33:29Z</time>
      </trkpt>
      <trkpt lat="40.2410510" lon="-3.8528200">
        <ele>689.0</ele>
        <time>2021-02-20T10:33:30Z</time>
      </trkpt>
      <trkpt lat="40.2406350" lon="-3.8525490">
        <ele>689.0</ele>
        <time>2021-02-20T10:33:38Z</time>
      </trkpt>
      <trkpt lat="40.2403170" lon="-3.8523320">
        <ele>689.0</ele>
        <time>2021-02-20T10:33:44Z</time>
      </trkpt>
      <trkpt lat="40.2399340" lon="-3.8521240">
        <ele>689.4</ele>
        <time>2021-02-20T10:33:51Z</time>
      </trkpt>
      <trkpt lat="40.2393850" lon="-3.8518730">
        <ele>689.8</ele>
        <time>2021-02-20T10:34:01Z</time>
      </trkpt>
      <trkpt lat="40.2393290" lon="-3.8518590">
        <ele>689.8</ele>
        <time>2021-02-20T10:34:02Z</time>
      </trkpt>
      <trkpt lat="40.2391000" lon="-3.8518210">
        <ele>690.0</ele>
        <time>2021-02-20T10:34:06Z</time>
      </trkpt>
      <trkpt lat="40.2388060" lon="-3.8517930">
        <ele>690.4</ele>
        <time>2021-02-20T10:34:11Z</time>
      </trkpt>
      <trkpt lat="40.2386850" lon="-3.8517980">
        <ele>690.6</ele>
        <time>2021-02-20T10:34:13Z</time>
      </trkpt>
      <trkpt lat="40.2384340" lon="-3.8517680">
        <ele>690.0</ele>
        <time>2021-02-20T10:34:17Z</time>
      </trkpt>
      <trkpt lat="40.2383010" lon="-3.8517560">
        <ele>689.6</ele>
        <time>2021-02-20T10:34:19Z</time>
      </trkpt>
      <trkpt lat="40.2380970" lon="-3.8517590">
        <ele>689.4</ele>
        <time>2021-02-20T10:34:22Z</time>
      </trkpt>
      <trkpt lat="40.2378900" lon="-3.8517390">
        <ele>689.0</ele>
        <time>2021-02-20T10:34:25Z</time>
      </trkpt>
      <trkpt lat="40.2374790" lon="-3.8516830">
        <ele>688.4</ele>
        <time>2021-02-20T10:34:31Z</time>
      </trkpt>
      <trkpt lat="40.2372020" lon="-3.8516210">
        <ele>687.8</ele>
        <time>2021-02-20T10:34:35Z</time>
      </trkpt>
      <trkpt lat="40.2368480" lon="-3.8515450">
        <ele>687.2</ele>
        <time>2021-02-20T10:34:40Z</time>
      </trkpt>
      <trkpt lat="40.2367140" lon="-3.8515070">
        <ele>687.0</ele>
        <time>2021-02-20T10:34:42Z</time>
      </trkpt>
      <trkpt lat="40.2365780" lon="-3.8514740">
        <ele>686.6</ele>
        <time>2021-02-20T10:34:44Z</time>
      </trkpt>
      <trkpt lat="40.2363670" lon="-3.8514580">
        <ele>686.2</ele>
        <time>2021-02-20T10:34:47Z</time>
      </trkpt>
      <trkpt lat="40.2359530" lon="-3.8513380">
        <ele>685.4</ele>
        <time>2021-02-20T10:34:53Z</time>
      </trkpt>
      <trkpt lat="40.2357550" lon="-3.8512640">
        <ele>685.2</ele>
        <time>2021-02-20T10:34:56Z</time>
      </trkpt>
      <trkpt lat="40.2356190" lon="-3.8512310">
        <ele>685.0</ele>
        <time>2021-02-20T10:34:58Z</time>
      </trkpt>
      <trkpt lat="40.2352140" lon="-3.8511360">
        <ele>684.8</ele>
        <time>2021-02-20T10:35:04Z</time>
      </trkpt>
      <trkpt lat="40.2349580" lon="-3.8510440">
        <ele>684.4</ele>
        <time>2021-02-20T10:35:08Z</time>
      </trkpt>
      <trkpt lat="40.2348340" lon="-3.8509890">
        <ele>684.4</ele>
        <time>2021-02-20T10:35:10Z</time>
      </trkpt>
      <trkpt lat="40.2344590" lon="-3.8508880">
        <ele>684.4</ele>
        <time>2021-02-20T10:35:16Z</time>
      </trkpt>
      <trkpt lat="40.2342230" lon="-3.8507990">
        <ele>684.2</ele>
        <time>2021-02-20T10:35:20Z</time>
      </trkpt>
      <trkpt lat="40.2340450" lon="-3.8507600">
        <ele>684.4</ele>
        <time>2021-02-20T10:35:23Z</time>
      </trkpt>
      <trkpt lat="40.2338060" lon="-3.8507230">
        <ele>684.0</ele>
        <time>2021-02-20T10:35:27Z</time>
      </trkpt>
      <trkpt lat="40.2336880" lon="-3.8507050">
        <ele>684.4</ele>
        <time>2021-02-20T10:35:29Z</time>
      </trkpt>
      <trkpt lat="40.2333460" lon="-3.8506140">
        <ele>684.2</ele>
        <time>2021-02-20T10:35:35Z</time>
      </trkpt>
      <trkpt lat="40.2330070" lon="-3.8505470">
        <ele>684.8</ele>
        <time>2021-02-20T10:35:41Z</time>
      </trkpt>
      <trkpt lat="40.2327440" lon="-3.8504470">
        <ele>684.8</ele>
        <time>2021-02-20T10:35:46Z</time>
      </trkpt>
      <trkpt lat="40.2326390" lon="-3.8504090">
        <ele>684.8</ele>
        <time>2021-02-20T10:35:48Z</time>
      </trkpt>
      <trkpt lat="40.2323750" lon="-3.8502940">
        <ele>685.2</ele>
        <time>2021-02-20T10:35:53Z</time>
      </trkpt>
      <trkpt lat="40.2322720" lon="-3.8502610">
        <ele>685.2</ele>
        <time>2021-02-20T10:35:55Z</time>
      </trkpt>
      <trkpt lat="40.2322170" lon="-3.8502450">
        <ele>685.0</ele>
        <time>2021-02-20T10:35:56Z</time>
      </trkpt>
      <trkpt lat="40.2317960" lon="-3.8501010">
        <ele>685.4</ele>
        <time>2021-02-20T10:36:04Z</time>
      </trkpt>
      <trkpt lat="40.2312960" lon="-3.8499100">
        <ele>686.0</ele>
        <time>2021-02-20T10:36:14Z</time>
      </trkpt>
      <trkpt lat="40.2309720" lon="-3.8498670">
        <ele>685.8</ele>
        <time>2021-02-20T10:36:20Z</time>
      </trkpt>
      <trkpt lat="40.2306920" lon="-3.8498710">
        <ele>685.8</ele>
        <time>2021-02-20T10:36:25Z</time>
      </trkpt>
      <trkpt lat="40.2305830" lon="-3.8499080">
        <ele>685.4</ele>
        <time>2021-02-20T10:36:27Z</time>
      </trkpt>
      <trkpt lat="40.2304190" lon="-3.8499690">
        <ele>685.2</ele>
        <time>2021-02-20T10:36:30Z</time>
      </trkpt>
      <trkpt lat="40.2302090" lon="-3.8500770">
        <ele>685.2</ele>
        <time>2021-02-20T10:36:34Z</time>
      </trkpt>
      <trkpt lat="40.2298520" lon="-3.8502330">
        <ele>685.6</ele>
        <time>2021-02-20T10:36:41Z</time>
      </trkpt>
      <trkpt lat="40.2296430" lon="-3.8502990">
        <ele>685.6</ele>
        <time>2021-02-20T10:36:45Z</time>
      </trkpt>
      <trkpt lat="40.2295910" lon="-3.8503110">
        <ele>685.6</ele>
        <time>2021-02-20T10:36:46Z</time>
      </trkpt>
      <trkpt lat="40.2293840" lon="-3.8504110">
        <ele>685.4</ele>
        <time>2021-02-20T10:36:50Z</time>
      </trkpt>
      <trkpt lat="40.2292910" lon="-3.8504860">
        <ele>685.4</ele>
        <time>2021-02-20T10:36:52Z</time>
      </trkpt>
      <trkpt lat="40.2291900" lon="-3.8505290">
        <ele>685.4</ele>
        <time>2021-02-20T10:36:54Z</time>
      </trkpt>
      <trkpt lat="40.2289360" lon="-3.8506410">
        <ele>685.0</ele>
        <time>2021-02-20T10:36:59Z</time>
      </trkpt>
      <trkpt lat="40.2285610" lon="-3.8507910">
        <ele>684.2</ele>
        <time>2021-02-20T10:37:06Z</time>
      </trkpt>
      <trkpt lat="40.2281610" lon="-3.8509340">
        <ele>683.2</ele>
        <time>2021-02-20T10:37:13Z</time>
      </trkpt>
      <trkpt lat="40.2281050" lon="-3.8509530">
        <ele>683.0</ele>
        <time>2021-02-20T10:37:14Z</time>
      </trkpt>
      <trkpt lat="40.2278270" lon="-3.8510580">
        <ele>682.4</ele>
        <time>2021-02-20T10:37:19Z</time>
      </trkpt>
      <trkpt lat="40.2275590" lon="-3.8511810">
        <ele>682.2</ele>
        <time>2021-02-20T10:37:24Z</time>
      </trkpt>
      <trkpt lat="40.2274000" lon="-3.8512480">
        <ele>682.2</ele>
        <time>2021-02-20T10:37:27Z</time>
      </trkpt>
      <trkpt lat="40.2272930" lon="-3.8512880">
        <ele>682.0</ele>
        <time>2021-02-20T10:37:29Z</time>
      </trkpt>
      <trkpt lat="40.2272400" lon="-3.8513140">
        <ele>681.8</ele>
        <time>2021-02-20T10:37:30Z</time>
      </trkpt>
      <trkpt lat="40.2269230" lon="-3.8514590">
        <ele>682.0</ele>
        <time>2021-02-20T10:37:36Z</time>
      </trkpt>
      <trkpt lat="40.2265990" lon="-3.8516270">
        <ele>681.6</ele>
        <time>2021-02-20T10:37:42Z</time>
      </trkpt>
      <trkpt lat="40.2265410" lon="-3.8516460">
        <ele>681.8</ele>
        <time>2021-02-20T10:37:43Z</time>
      </trkpt>
      <trkpt lat="40.2263150" lon="-3.8517390">
        <ele>681.2</ele>
        <time>2021-02-20T10:37:47Z</time>
      </trkpt>
      <trkpt lat="40.2260210" lon="-3.8518600">
        <ele>680.6</ele>
        <time>2021-02-20T10:37:52Z</time>
      </trkpt>
      <trkpt lat="40.2258430" lon="-3.8519490">
        <ele>680.4</ele>
        <time>2021-02-20T10:37:55Z</time>
      </trkpt>
      <trkpt lat="40.2256050" lon="-3.8520630">
        <ele>680.0</ele>
        <time>2021-02-20T10:37:59Z</time>
      </trkpt>
      <trkpt lat="40.2254850" lon="-3.8521100">
        <ele>679.6</ele>
        <time>2021-02-20T10:38:01Z</time>
      </trkpt>
      <trkpt lat="40.2254290" lon="-3.8521420">
        <ele>679.6</ele>
        <time>2021-02-20T10:38:02Z</time>
      </trkpt>
      <trkpt lat="40.2253120" lon="-3.8521910">
        <ele>679.4</ele>
        <time>2021-02-20T10:38:04Z</time>
      </trkpt>
      <trkpt lat="40.2252550" lon="-3.8522120">
        <ele>679.4</ele>
        <time>2021-02-20T10:38:05Z</time>
      </trkpt>
      <trkpt lat="40.2251980" lon="-3.8522340">
        <ele>679.2</ele>
        <time>2021-02-20T10:38:06Z</time>
      </trkpt>
      <trkpt lat="40.2251430" lon="-3.8522580">
        <ele>679.2</ele>
        <time>2021-02-20T10:38:07Z</time>
      </trkpt>
      <trkpt lat="40.2250860" lon="-3.8522800">
        <ele>679.2</ele>
        <time>2021-02-20T10:38:08Z</time>
      </trkpt>
      <trkpt lat="40.2249750" lon="-3.8523210">
        <ele>679.4</ele>
        <time>2021-02-20T10:38:10Z</time>
      </trkpt>
      <trkpt lat="40.2249200" lon="-3.8523480">
        <ele>679.4</ele>
        <time>2021-02-20T10:38:11Z</time>
      </trkpt>
      <trkpt lat="40.2248150" lon="-3.8524090">
        <ele>679.2</ele>
        <time>2021-02-20T10:38:13Z</time>
      </trkpt>
      <trkpt lat="40.2247110" lon="-3.8524650">
        <ele>679.2</ele>
        <time>2021-02-20T10:38:15Z</time>
      </trkpt>
      <trkpt lat="40.2245510" lon="-3.8525340">
        <ele>679.2</ele>
        <time>2021-02-20T10:38:18Z</time>
      </trkpt>
      <trkpt lat="40.2244980" lon="-3.8525650">
        <ele>679.2</ele>
        <time>2021-02-20T10:38:19Z</time>
      </trkpt>
      <trkpt lat="40.2243940" lon="-3.8526210">
        <ele>679.0</ele>
        <time>2021-02-20T10:38:21Z</time>
      </trkpt>
      <trkpt lat="40.2240680" lon="-3.8527870">
        <ele>679.2</ele>
        <time>2021-02-20T10:38:27Z</time>
      </trkpt>
      <trkpt lat="40.2238060" lon="-3.8529110">
        <ele>679.4</ele>
        <time>2021-02-20T10:38:32Z</time>
      </trkpt>
      <trkpt lat="40.2237560" lon="-3.8529400">
        <ele>679.4</ele>
        <time>2021-02-20T10:38:33Z</time>
      </trkpt>
      <trkpt lat="40.2235090" lon="-3.8531090">
        <ele>679.4</ele>
        <time>2021-02-20T10:38:38Z</time>
      </trkpt>
      <trkpt lat="40.2234120" lon="-3.8531840">
        <ele>679.2</ele>
        <time>2021-02-20T10:38:40Z</time>
      </trkpt>
      <trkpt lat="40.2231190" lon="-3.8534220">
        <ele>678.8</ele>
        <time>2021-02-20T10:38:46Z</time>
      </trkpt>
      <trkpt lat="40.2230680" lon="-3.8534470">
        <ele>678.8</ele>
        <time>2021-02-20T10:38:47Z</time>
      </trkpt>
      <trkpt lat="40.2227480" lon="-3.8535700">
        <ele>679.0</ele>
        <time>2021-02-20T10:38:53Z</time>
      </trkpt>
      <trkpt lat="40.2223710" lon="-3.8536460">
        <ele>679.4</ele>
        <time>2021-02-20T10:39:00Z</time>
      </trkpt>
      <trkpt lat="40.2222660" lon="-3.8536680">
        <ele>679.0</ele>
        <time>2021-02-20T10:39:02Z</time>
      </trkpt>
      <trkpt lat="40.2218220" lon="-3.8537360">
        <ele>679.4</ele>
        <time>2021-02-20T10:39:10Z</time>
      </trkpt>
      <trkpt lat="40.2214580" lon="-3.8538340">
        <ele>679.6</ele>
        <time>2021-02-20T10:39:17Z</time>
      </trkpt>
      <trkpt lat="40.2209690" lon="-3.8540190">
        <ele>679.8</ele>
        <time>2021-02-20T10:39:27Z</time>
      </trkpt>
      <trkpt lat="40.2205790" lon="-3.8542210">
        <ele>680.2</ele>
        <time>2021-02-20T10:39:35Z</time>
      </trkpt>
      <trkpt lat="40.2204360" lon="-3.8543170">
        <ele>680.8</ele>
        <time>2021-02-20T10:39:38Z</time>
      </trkpt>
      <trkpt lat="40.2203490" lon="-3.8544030">
        <ele>680.8</ele>
        <time>2021-02-20T10:39:40Z</time>
      </trkpt>
      <trkpt lat="40.2200180" lon="-3.8547690">
        <ele>680.6</ele>
        <time>2021-02-20T10:39:48Z</time>
      </trkpt>
      <trkpt lat="40.2196330" lon="-3.8551760">
        <ele>681.0</ele>
        <time>2021-02-20T10:39:57Z</time>
      </trkpt>
      <trkpt lat="40.2192320" lon="-3.8555500">
        <ele>681.2</ele>
        <time>2021-02-20T10:40:06Z</time>
      </trkpt>
      <trkpt lat="40.2189090" lon="-3.8557910">
        <ele>681.6</ele>
        <time>2021-02-20T10:40:13Z</time>
      </trkpt>
      <trkpt lat="40.2188620" lon="-3.8558260">
        <ele>681.8</ele>
        <time>2021-02-20T10:40:14Z</time>
      </trkpt>
      <trkpt lat="40.2185890" lon="-3.8560110">
        <ele>680.4</ele>
        <time>2021-02-20T10:40:19Z</time>
      </trkpt>
      <trkpt lat="40.2182310" lon="-3.8562550">
        <ele>680.0</ele>
        <time>2021-02-20T10:40:25Z</time>
      </trkpt>
      <trkpt lat="40.2178380" lon="-3.8565180">
        <ele>679.6</ele>
        <time>2021-02-20T10:40:32Z</time>
      </trkpt>
      <trkpt lat="40.2177820" lon="-3.8565550">
        <ele>679.6</ele>
        <time>2021-02-20T10:40:33Z</time>
      </trkpt>
      <trkpt lat="40.2176680" lon="-3.8566250">
        <ele>679.4</ele>
        <time>2021-02-20T10:40:35Z</time>
      </trkpt>
      <trkpt lat="40.2172780" lon="-3.8568770">
        <ele>679.0</ele>
        <time>2021-02-20T10:40:42Z</time>
      </trkpt>
      <trkpt lat="40.2169410" lon="-3.8570720">
        <ele>678.8</ele>
        <time>2021-02-20T10:40:48Z</time>
      </trkpt>
      <trkpt lat="40.2167660" lon="-3.8571720">
        <ele>678.2</ele>
        <time>2021-02-20T10:40:51Z</time>
      </trkpt>
      <trkpt lat="40.2164680" lon="-3.8573500">
        <ele>678.0</ele>
        <time>2021-02-20T10:40:56Z</time>
      </trkpt>
      <trkpt lat="40.2159920" lon="-3.8576150">
        <ele>677.6</ele>
        <time>2021-02-20T10:41:04Z</time>
      </trkpt>
      <trkpt lat="40.2154430" lon="-3.8579070">
        <ele>677.4</ele>
        <time>2021-02-20T10:41:13Z</time>
      </trkpt>
      <trkpt lat="40.2153810" lon="-3.8579320">
        <ele>677.2</ele>
        <time>2021-02-20T10:41:14Z</time>
      </trkpt>
      <trkpt lat="40.2150220" lon="-3.8580830">
        <ele>677.4</ele>
        <time>2021-02-20T10:41:20Z</time>
      </trkpt>
      <trkpt lat="40.2149660" lon="-3.8581200">
        <ele>677.4</ele>
        <time>2021-02-20T10:41:21Z</time>
      </trkpt>
      <trkpt lat="40.2145850" lon="-3.8583540">
        <ele>678.2</ele>
        <time>2021-02-20T10:41:28Z</time>
      </trkpt>
      <trkpt lat="40.2142380" lon="-3.8585580">
        <ele>678.6</ele>
        <time>2021-02-20T10:41:35Z</time>
      </trkpt>
      <trkpt lat="40.2140910" lon="-3.8586450">
        <ele>678.8</ele>
        <time>2021-02-20T10:41:38Z</time>
      </trkpt>
      <trkpt lat="40.2140030" lon="-3.8587230">
        <ele>679.4</ele>
        <time>2021-02-20T10:41:40Z</time>
      </trkpt>
      <trkpt lat="40.2139630" lon="-3.8587650">
        <ele>679.4</ele>
        <time>2021-02-20T10:41:41Z</time>
      </trkpt>
      <trkpt lat="40.2137860" lon="-3.8589210">
        <ele>679.6</ele>
        <time>2021-02-20T10:41:45Z</time>
      </trkpt>
      <trkpt lat="40.2136890" lon="-3.8589740">
        <ele>679.6</ele>
        <time>2021-02-20T10:41:47Z</time>
      </trkpt>
      <trkpt lat="40.2132410" lon="-3.8591850">
        <ele>680.2</ele>
        <time>2021-02-20T10:41:56Z</time>
      </trkpt>
      <trkpt lat="40.2128470" lon="-3.8593540">
        <ele>679.6</ele>
        <time>2021-02-20T10:42:03Z</time>
      </trkpt>
      <trkpt lat="40.2126030" lon="-3.8593580">
        <ele>679.0</ele>
        <time>2021-02-20T10:42:07Z</time>
      </trkpt>
      <trkpt lat="40.2125400" lon="-3.8593580">
        <ele>679.0</ele>
        <time>2021-02-20T10:42:08Z</time>
      </trkpt>
      <trkpt lat="40.2124210" lon="-3.8594050">
        <ele>678.8</ele>
        <time>2021-02-20T10:42:10Z</time>
      </trkpt>
      <trkpt lat="40.2123130" lon="-3.8594810">
        <ele>678.4</ele>
        <time>2021-02-20T10:42:12Z</time>
      </trkpt>
      <trkpt lat="40.2122590" lon="-3.8595220">
        <ele>678.4</ele>
        <time>2021-02-20T10:42:13Z</time>
      </trkpt>
      <trkpt lat="40.2120390" lon="-3.8596790">
        <ele>678.2</ele>
        <time>2021-02-20T10:42:17Z</time>
      </trkpt>
      <trkpt lat="40.2115600" lon="-3.8600150">
        <ele>678.0</ele>
        <time>2021-02-20T10:42:26Z</time>
      </trkpt>
      <trkpt lat="40.2111890" lon="-3.8602730">
        <ele>677.8</ele>
        <time>2021-02-20T10:42:33Z</time>
      </trkpt>
      <trkpt lat="40.2110130" lon="-3.8603430">
        <ele>677.6</ele>
        <time>2021-02-20T10:42:36Z</time>
      </trkpt>
      <trkpt lat="40.2108940" lon="-3.8603420">
        <ele>677.8</ele>
        <time>2021-02-20T10:42:38Z</time>
      </trkpt>
      <trkpt lat="40.2107740" lon="-3.8603180">
        <ele>677.6</ele>
        <time>2021-02-20T10:42:40Z</time>
      </trkpt>
      <trkpt lat="40.2106550" lon="-3.8603410">
        <ele>677.4</ele>
        <time>2021-02-20T10:42:42Z</time>
      </trkpt>
      <trkpt lat="40.2105400" lon="-3.8603880">
        <ele>677.4</ele>
        <time>2021-02-20T10:42:44Z</time>
      </trkpt>
      <trkpt lat="40.2103620" lon="-3.8604370">
        <ele>677.2</ele>
        <time>2021-02-20T10:42:47Z</time>
      </trkpt>
      <trkpt lat="40.2103020" lon="-3.8604430">
        <ele>677.0</ele>
        <time>2021-02-20T10:42:48Z</time>
      </trkpt>
      <trkpt lat="40.2098140" lon="-3.8604550">
        <ele>676.6</ele>
        <time>2021-02-20T10:42:56Z</time>
      </trkpt>
      <trkpt lat="40.2093850" lon="-3.8604810">
        <ele>677.2</ele>
        <time>2021-02-20T10:43:04Z</time>
      </trkpt>
      <trkpt lat="40.2089010" lon="-3.8605770">
        <ele>677.4</ele>
        <time>2021-02-20T10:43:13Z</time>
      </trkpt>
      <trkpt lat="40.2083760" lon="-3.8607940">
        <ele>677.8</ele>
        <time>2021-02-20T10:43:23Z</time>
      </trkpt>
      <trkpt lat="40.2079720" lon="-3.8610330">
        <ele>678.2</ele>
        <time>2021-02-20T10:43:31Z</time>
      </trkpt>
      <trkpt lat="40.2079230" lon="-3.8610630">
        <ele>678.2</ele>
        <time>2021-02-20T10:43:32Z</time>
      </trkpt>
      <trkpt lat="40.2078730" lon="-3.8610940">
        <ele>678.4</ele>
        <time>2021-02-20T10:43:33Z</time>
      </trkpt>
      <trkpt lat="40.2077890" lon="-3.8611840">
        <ele>678.4</ele>
        <time>2021-02-20T10:43:35Z</time>
      </trkpt>
      <trkpt lat="40.2077150" lon="-3.8612920">
        <ele>678.6</ele>
        <time>2021-02-20T10:43:37Z</time>
      </trkpt>
      <trkpt lat="40.2075320" lon="-3.8615520">
        <ele>678.8</ele>
        <time>2021-02-20T10:43:42Z</time>
      </trkpt>
      <trkpt lat="40.2073750" lon="-3.8617260">
        <ele>679.4</ele>
        <time>2021-02-20T10:43:46Z</time>
      </trkpt>
      <trkpt lat="40.2072680" lon="-3.8618720">
        <ele>679.8</ele>
        <time>2021-02-20T10:43:49Z</time>
      </trkpt>
      <trkpt lat="40.2071660" lon="-3.8620100">
        <ele>680.4</ele>
        <time>2021-02-20T10:43:52Z</time>
      </trkpt>
      <trkpt lat="40.2070790" lon="-3.8621470">
        <ele>680.8</ele>
        <time>2021-02-20T10:43:55Z</time>
      </trkpt>
      <trkpt lat="40.2070540" lon="-3.8621920">
        <ele>681.0</ele>
        <time>2021-02-20T10:43:56Z</time>
      </trkpt>
      <trkpt lat="40.2070100" lon="-3.8622820">
        <ele>681.4</ele>
        <time>2021-02-20T10:43:58Z</time>
      </trkpt>
      <trkpt lat="40.2069980" lon="-3.8623300">
        <ele>681.6</ele>
        <time>2021-02-20T10:43:59Z</time>
      </trkpt>
      <trkpt lat="40.2069810" lon="-3.8623920">
        <ele>681.8</ele>
        <time>2021-02-20T10:44:01Z</time>
      </trkpt>
      <trkpt lat="40.2068890" lon="-3.8625080">
        <ele>682.0</ele>
        <time>2021-02-20T10:44:05Z</time>
      </trkpt>
      <trkpt lat="40.2067260" lon="-3.8626560">
        <ele>680.6</ele>
        <time>2021-02-20T10:44:09Z</time>
      </trkpt>
      <trkpt lat="40.2063970" lon="-3.8629900">
        <ele>679.4</ele>
        <time>2021-02-20T10:44:16Z</time>
      </trkpt>
      <trkpt lat="40.2060330" lon="-3.8633590">
        <ele>678.8</ele>
        <time>2021-02-20T10:44:24Z</time>
      </trkpt>
      <trkpt lat="40.2057900" lon="-3.8635740">
        <ele>678.6</ele>
        <time>2021-02-20T10:44:29Z</time>
      </trkpt>
      <trkpt lat="40.2056890" lon="-3.8636520">
        <ele>678.4</ele>
        <time>2021-02-20T10:44:31Z</time>
      </trkpt>
      <trkpt lat="40.2053390" lon="-3.8639440">
        <ele>678.4</ele>
        <time>2021-02-20T10:44:38Z</time>
      </trkpt>
      <trkpt lat="40.2051610" lon="-3.8641360">
        <ele>678.4</ele>
        <time>2021-02-20T10:44:42Z</time>
      </trkpt>
      <trkpt lat="40.2048150" lon="-3.8644080">
        <ele>678.2</ele>
        <time>2021-02-20T10:44:49Z</time>
      </trkpt>
      <trkpt lat="40.2046630" lon="-3.8645120">
        <ele>678.4</ele>
        <time>2021-02-20T10:44:52Z</time>
      </trkpt>
      <trkpt lat="40.2045560" lon="-3.8645740">
        <ele>678.6</ele>
        <time>2021-02-20T10:44:54Z</time>
      </trkpt>
      <trkpt lat="40.2041960" lon="-3.8648380">
        <ele>678.4</ele>
        <time>2021-02-20T10:45:01Z</time>
      </trkpt>
      <trkpt lat="40.2039210" lon="-3.8651110">
        <ele>678.6</ele>
        <time>2021-02-20T10:45:07Z</time>
      </trkpt>
      <trkpt lat="40.2037090" lon="-3.8654600">
        <ele>678.8</ele>
        <time>2021-02-20T10:45:13Z</time>
      </trkpt>
      <trkpt lat="40.2036460" lon="-3.8655740">
        <ele>678.6</ele>
        <time>2021-02-20T10:45:15Z</time>
      </trkpt>
      <trkpt lat="40.2034990" lon="-3.8657890">
        <ele>679.0</ele>
        <time>2021-02-20T10:45:19Z</time>
      </trkpt>
      <trkpt lat="40.2032930" lon="-3.8660160">
        <ele>678.8</ele>
        <time>2021-02-20T10:45:24Z</time>
      </trkpt>
      <trkpt lat="40.2032530" lon="-3.8660590">
        <ele>678.8</ele>
        <time>2021-02-20T10:45:25Z</time>
      </trkpt>
      <trkpt lat="40.2029700" lon="-3.8663830">
        <ele>679.0</ele>
        <time>2021-02-20T10:45:32Z</time>
      </trkpt>
      <trkpt lat="40.2026860" lon="-3.8667820">
        <ele>679.4</ele>
        <time>2021-02-20T10:45:40Z</time>
      </trkpt>
      <trkpt lat="40.2026180" lon="-3.8668820">
        <ele>679.4</ele>
        <time>2021-02-20T10:45:42Z</time>
      </trkpt>
      <trkpt lat="40.2025840" lon="-3.8669310">
        <ele>679.6</ele>
        <time>2021-02-20T10:45:43Z</time>
      </trkpt>
      <trkpt lat="40.2025130" lon="-3.8670240">
        <ele>679.8</ele>
        <time>2021-02-20T10:45:45Z</time>
      </trkpt>
      <trkpt lat="40.2024820" lon="-3.8670730">
        <ele>680.0</ele>
        <time>2021-02-20T10:45:46Z</time>
      </trkpt>
      <trkpt lat="40.2024560" lon="-3.8671250">
        <ele>680.0</ele>
        <time>2021-02-20T10:45:47Z</time>
      </trkpt>
      <trkpt lat="40.2023730" lon="-3.8672860">
        <ele>679.8</ele>
        <time>2021-02-20T10:45:50Z</time>
      </trkpt>
      <trkpt lat="40.2023390" lon="-3.8673340">
        <ele>679.8</ele>
        <time>2021-02-20T10:45:51Z</time>
      </trkpt>
      <trkpt lat="40.2021740" lon="-3.8675790">
        <ele>680.6</ele>
        <time>2021-02-20T10:45:56Z</time>
      </trkpt>
      <trkpt lat="40.2020730" lon="-3.8677320">
        <ele>680.8</ele>
        <time>2021-02-20T10:45:59Z</time>
      </trkpt>
      <trkpt lat="40.2017570" lon="-3.8682410">
        <ele>681.4</ele>
        <time>2021-02-20T10:46:09Z</time>
      </trkpt>
      <trkpt lat="40.2016530" lon="-3.8683800">
        <ele>681.6</ele>
        <time>2021-02-20T10:46:12Z</time>
      </trkpt>
      <trkpt lat="40.2014750" lon="-3.8686120">
        <ele>682.4</ele>
        <time>2021-02-20T10:46:17Z</time>
      </trkpt>
      <trkpt lat="40.2013350" lon="-3.8688030">
        <ele>682.6</ele>
        <time>2021-02-20T10:46:21Z</time>
      </trkpt>
      <trkpt lat="40.2012360" lon="-3.8689520">
        <ele>683.2</ele>
        <time>2021-02-20T10:46:24Z</time>
      </trkpt>
      <trkpt lat="40.2009550" lon="-3.8692850">
        <ele>683.2</ele>
        <time>2021-02-20T10:46:31Z</time>
      </trkpt>
      <trkpt lat="40.2005560" lon="-3.8695990">
        <ele>683.0</ele>
        <time>2021-02-20T10:46:39Z</time>
      </trkpt>
      <trkpt lat="40.2002240" lon="-3.8699370">
        <ele>682.4</ele>
        <time>2021-02-20T10:46:46Z</time>
      </trkpt>
      <trkpt lat="40.1999650" lon="-3.8702600">
        <ele>682.4</ele>
        <time>2021-02-20T10:46:52Z</time>
      </trkpt>
      <trkpt lat="40.1995700" lon="-3.8707740">
        <ele>682.0</ele>
        <time>2021-02-20T10:47:01Z</time>
      </trkpt>
      <trkpt lat="40.1992180" lon="-3.8712460">
        <ele>682.0</ele>
        <time>2021-02-20T10:47:09Z</time>
      </trkpt>
      <trkpt lat="40.1990130" lon="-3.8714590">
        <ele>681.6</ele>
        <time>2021-02-20T10:47:13Z</time>
      </trkpt>
      <trkpt lat="40.1988930" lon="-3.8715550">
        <ele>681.2</ele>
        <time>2021-02-20T10:47:15Z</time>
      </trkpt>
      <trkpt lat="40.1987020" lon="-3.8716850">
        <ele>680.4</ele>
        <time>2021-02-20T10:47:18Z</time>
      </trkpt>
      <trkpt lat="40.1984350" lon="-3.8718650">
        <ele>679.6</ele>
        <time>2021-02-20T10:47:22Z</time>
      </trkpt>
      <trkpt lat="40.1983700" lon="-3.8719080">
        <ele>679.4</ele>
        <time>2021-02-20T10:47:23Z</time>
      </trkpt>
      <trkpt lat="40.1979270" lon="-3.8722180">
        <ele>678.6</ele>
        <time>2021-02-20T10:47:30Z</time>
      </trkpt>
      <trkpt lat="40.1977320" lon="-3.8723530">
        <ele>678.2</ele>
        <time>2021-02-20T10:47:33Z</time>
      </trkpt>
      <trkpt lat="40.1973400" lon="-3.8726170">
        <ele>677.0</ele>
        <time>2021-02-20T10:47:39Z</time>
      </trkpt>
      <trkpt lat="40.1970670" lon="-3.8727970">
        <ele>675.8</ele>
        <time>2021-02-20T10:47:43Z</time>
      </trkpt>
      <trkpt lat="40.1967080" lon="-3.8730290">
        <ele>674.8</ele>
        <time>2021-02-20T10:47:48Z</time>
      </trkpt>
      <trkpt lat="40.1964880" lon="-3.8731710">
        <ele>673.6</ele>
        <time>2021-02-20T10:47:51Z</time>
      </trkpt>
      <trkpt lat="40.1961210" lon="-3.8734360">
        <ele>673.0</ele>
        <time>2021-02-20T10:47:56Z</time>
      </trkpt>
      <trkpt lat="40.1959030" lon="-3.8735750">
        <ele>672.4</ele>
        <time>2021-02-20T10:47:59Z</time>
      </trkpt>
      <trkpt lat="40.1955330" lon="-3.8738140">
        <ele>671.6</ele>
        <time>2021-02-20T10:48:04Z</time>
      </trkpt>
      <trkpt lat="40.1954600" lon="-3.8738620">
        <ele>671.4</ele>
        <time>2021-02-20T10:48:05Z</time>
      </trkpt>
      <trkpt lat="40.1951670" lon="-3.8740400">
        <ele>670.4</ele>
        <time>2021-02-20T10:48:09Z</time>
      </trkpt>
      <trkpt lat="40.1949310" lon="-3.8741820">
        <ele>669.0</ele>
        <time>2021-02-20T10:48:12Z</time>
      </trkpt>
      <trkpt lat="40.1944800" lon="-3.8745130">
        <ele>668.8</ele>
        <time>2021-02-20T10:48:18Z</time>
      </trkpt>
      <trkpt lat="40.1941850" lon="-3.8747160">
        <ele>670.2</ele>
        <time>2021-02-20T10:48:23Z</time>
      </trkpt>
      <trkpt lat="40.1937100" lon="-3.8750310">
        <ele>671.2</ele>
        <time>2021-02-20T10:48:32Z</time>
      </trkpt>
      <trkpt lat="40.1936600" lon="-3.8750680">
        <ele>671.4</ele>
        <time>2021-02-20T10:48:33Z</time>
      </trkpt>
      <trkpt lat="40.1933520" lon="-3.8752830">
        <ele>671.4</ele>
        <time>2021-02-20T10:48:39Z</time>
      </trkpt>
      <trkpt lat="40.1931560" lon="-3.8753980">
        <ele>672.0</ele>
        <time>2021-02-20T10:48:43Z</time>
      </trkpt>
      <trkpt lat="40.1927340" lon="-3.8755610">
        <ele>672.0</ele>
        <time>2021-02-20T10:48:51Z</time>
      </trkpt>
      <trkpt lat="40.1922930" lon="-3.8757520">
        <ele>671.6</ele>
        <time>2021-02-20T10:48:59Z</time>
      </trkpt>
      <trkpt lat="40.1918450" lon="-3.8759320">
        <ele>671.4</ele>
        <time>2021-02-20T10:49:07Z</time>
      </trkpt>
      <trkpt lat="40.1914790" lon="-3.8761680">
        <ele>672.2</ele>
        <time>2021-02-20T10:49:14Z</time>
      </trkpt>
      <trkpt lat="40.1912220" lon="-3.8763190">
        <ele>672.6</ele>
        <time>2021-02-20T10:49:19Z</time>
      </trkpt>
      <trkpt lat="40.1911230" lon="-3.8763650">
        <ele>673.0</ele>
        <time>2021-02-20T10:49:21Z</time>
      </trkpt>
      <trkpt lat="40.1909880" lon="-3.8764670">
        <ele>672.6</ele>
        <time>2021-02-20T10:49:24Z</time>
      </trkpt>
      <trkpt lat="40.1908890" lon="-3.8765260">
        <ele>672.8</ele>
        <time>2021-02-20T10:49:26Z</time>
      </trkpt>
      <trkpt lat="40.1906950" lon="-3.8766450">
        <ele>673.0</ele>
        <time>2021-02-20T10:49:30Z</time>
      </trkpt>
      <trkpt lat="40.1905020" lon="-3.8767440">
        <ele>673.6</ele>
        <time>2021-02-20T10:49:34Z</time>
      </trkpt>
      <trkpt lat="40.1904540" lon="-3.8767710">
        <ele>673.6</ele>
        <time>2021-02-20T10:49:35Z</time>
      </trkpt>
      <trkpt lat="40.1901310" lon="-3.8769620">
        <ele>674.4</ele>
        <time>2021-02-20T10:49:42Z</time>
      </trkpt>
      <trkpt lat="40.1900000" lon="-3.8770390">
        <ele>674.6</ele>
        <time>2021-02-20T10:49:45Z</time>
      </trkpt>
      <trkpt lat="40.1897820" lon="-3.8771460">
        <ele>675.2</ele>
        <time>2021-02-20T10:49:50Z</time>
      </trkpt>
      <trkpt lat="40.1896570" lon="-3.8772020">
        <ele>675.8</ele>
        <time>2021-02-20T10:49:53Z</time>
      </trkpt>
      <trkpt lat="40.1893640" lon="-3.8773410">
        <ele>676.2</ele>
        <time>2021-02-20T10:50:00Z</time>
      </trkpt>
      <trkpt lat="40.1890720" lon="-3.8774920">
        <ele>676.8</ele>
        <time>2021-02-20T10:50:07Z</time>
      </trkpt>
      <trkpt lat="40.1890280" lon="-3.8775130">
        <ele>676.8</ele>
        <time>2021-02-20T10:50:08Z</time>
      </trkpt>
      <trkpt lat="40.1888160" lon="-3.8776380">
        <ele>677.0</ele>
        <time>2021-02-20T10:50:13Z</time>
      </trkpt>
      <trkpt lat="40.1887270" lon="-3.8776780">
        <ele>677.0</ele>
        <time>2021-02-20T10:50:15Z</time>
      </trkpt>
      <trkpt lat="40.1884850" lon="-3.8778020">
        <ele>677.2</ele>
        <time>2021-02-20T10:50:20Z</time>
      </trkpt>
      <trkpt lat="40.1882280" lon="-3.8778860">
        <ele>677.2</ele>
        <time>2021-02-20T10:50:25Z</time>
      </trkpt>
      <trkpt lat="40.1881190" lon="-3.8779080">
        <ele>677.2</ele>
        <time>2021-02-20T10:50:27Z</time>
      </trkpt>
      <trkpt lat="40.1877610" lon="-3.8780520">
        <ele>677.0</ele>
        <time>2021-02-20T10:50:34Z</time>
      </trkpt>
      <trkpt lat="40.1873120" lon="-3.8782520">
        <ele>677.4</ele>
        <time>2021-02-20T10:50:43Z</time>
      </trkpt>
      <trkpt lat="40.1869000" lon="-3.8784120">
        <ele>677.0</ele>
        <time>2021-02-20T10:50:51Z</time>
      </trkpt>
      <trkpt lat="40.1866060" lon="-3.8785620">
        <ele>677.0</ele>
        <time>2021-02-20T10:50:57Z</time>
      </trkpt>
      <trkpt lat="40.1865590" lon="-3.8785950">
        <ele>677.0</ele>
        <time>2021-02-20T10:50:58Z</time>
      </trkpt>
      <trkpt lat="40.1861780" lon="-3.8788210">
        <ele>677.4</ele>
        <time>2021-02-20T10:51:06Z</time>
      </trkpt>
      <trkpt lat="40.1858170" lon="-3.8790380">
        <ele>676.8</ele>
        <time>2021-02-20T10:51:13Z</time>
      </trkpt>
      <trkpt lat="40.1856580" lon="-3.8791420">
        <ele>676.4</ele>
        <time>2021-02-20T10:51:16Z</time>
      </trkpt>
      <trkpt lat="40.1855430" lon="-3.8791900">
        <ele>676.0</ele>
        <time>2021-02-20T10:51:18Z</time>
      </trkpt>
      <trkpt lat="40.1851560" lon="-3.8794080">
        <ele>675.6</ele>
        <time>2021-02-20T10:51:25Z</time>
      </trkpt>
      <trkpt lat="40.1851060" lon="-3.8794510">
        <ele>675.6</ele>
        <time>2021-02-20T10:51:26Z</time>
      </trkpt>
      <trkpt lat="40.1848400" lon="-3.8796360">
        <ele>675.4</ele>
        <time>2021-02-20T10:51:31Z</time>
      </trkpt>
      <trkpt lat="40.1847860" lon="-3.8796670">
        <ele>675.6</ele>
        <time>2021-02-20T10:51:32Z</time>
      </trkpt>
      <trkpt lat="40.1845190" lon="-3.8798080">
        <ele>675.6</ele>
        <time>2021-02-20T10:51:37Z</time>
      </trkpt>
      <trkpt lat="40.1844150" lon="-3.8798610">
        <ele>675.6</ele>
        <time>2021-02-20T10:51:39Z</time>
      </trkpt>
      <trkpt lat="40.1840990" lon="-3.8799950">
        <ele>676.0</ele>
        <time>2021-02-20T10:51:45Z</time>
      </trkpt>
      <trkpt lat="40.1836800" lon="-3.8802180">
        <ele>676.2</ele>
        <time>2021-02-20T10:51:53Z</time>
      </trkpt>
      <trkpt lat="40.1833490" lon="-3.8804550">
        <ele>676.4</ele>
        <time>2021-02-20T10:52:00Z</time>
      </trkpt>
      <trkpt lat="40.1833050" lon="-3.8805010">
        <ele>676.4</ele>
        <time>2021-02-20T10:52:01Z</time>
      </trkpt>
      <trkpt lat="40.1831680" lon="-3.8806190">
        <ele>676.6</ele>
        <time>2021-02-20T10:52:04Z</time>
      </trkpt>
      <trkpt lat="40.1830310" lon="-3.8807400">
        <ele>676.2</ele>
        <time>2021-02-20T10:52:07Z</time>
      </trkpt>
      <trkpt lat="40.1827960" lon="-3.8809670">
        <ele>675.4</ele>
        <time>2021-02-20T10:52:12Z</time>
      </trkpt>
      <trkpt lat="40.1826930" lon="-3.8810480">
        <ele>675.2</ele>
        <time>2021-02-20T10:52:14Z</time>
      </trkpt>
      <trkpt lat="40.1824470" lon="-3.8812610">
        <ele>674.4</ele>
        <time>2021-02-20T10:52:19Z</time>
      </trkpt>
      <trkpt lat="40.1822430" lon="-3.8814390">
        <ele>674.0</ele>
        <time>2021-02-20T10:52:23Z</time>
      </trkpt>
      <trkpt lat="40.1818990" lon="-3.8817770">
        <ele>673.4</ele>
        <time>2021-02-20T10:52:30Z</time>
      </trkpt>
      <trkpt lat="40.1818600" lon="-3.8818340">
        <ele>673.4</ele>
        <time>2021-02-20T10:52:31Z</time>
      </trkpt>
      <trkpt lat="40.1818170" lon="-3.8818830">
        <ele>673.2</ele>
        <time>2021-02-20T10:52:32Z</time>
      </trkpt>
      <trkpt lat="40.1816780" lon="-3.8820330">
        <ele>673.2</ele>
        <time>2021-02-20T10:52:35Z</time>
      </trkpt>
      <trkpt lat="40.1815240" lon="-3.8821650">
        <ele>672.6</ele>
        <time>2021-02-20T10:52:38Z</time>
      </trkpt>
      <trkpt lat="40.1814300" lon="-3.8822680">
        <ele>672.6</ele>
        <time>2021-02-20T10:52:40Z</time>
      </trkpt>
      <trkpt lat="40.1813790" lon="-3.8823150">
        <ele>672.4</ele>
        <time>2021-02-20T10:52:41Z</time>
      </trkpt>
      <trkpt lat="40.1811810" lon="-3.8825160">
        <ele>672.0</ele>
        <time>2021-02-20T10:52:45Z</time>
      </trkpt>
      <trkpt lat="40.1809730" lon="-3.8826970">
        <ele>671.8</ele>
        <time>2021-02-20T10:52:49Z</time>
      </trkpt>
      <trkpt lat="40.1808590" lon="-3.8827680">
        <ele>671.8</ele>
        <time>2021-02-20T10:52:51Z</time>
      </trkpt>
      <trkpt lat="40.1806760" lon="-3.8828680">
        <ele>671.0</ele>
        <time>2021-02-20T10:52:54Z</time>
      </trkpt>
      <trkpt lat="40.1804820" lon="-3.8829720">
        <ele>670.6</ele>
        <time>2021-02-20T10:52:57Z</time>
      </trkpt>
      <trkpt lat="40.1802880" lon="-3.8830720">
        <ele>670.0</ele>
        <time>2021-02-20T10:53:00Z</time>
      </trkpt>
      <trkpt lat="40.1798990" lon="-3.8832740">
        <ele>669.4</ele>
        <time>2021-02-20T10:53:06Z</time>
      </trkpt>
      <trkpt lat="40.1797100" lon="-3.8833850">
        <ele>669.0</ele>
        <time>2021-02-20T10:53:09Z</time>
      </trkpt>
      <trkpt lat="40.1793930" lon="-3.8835530">
        <ele>668.6</ele>
        <time>2021-02-20T10:53:14Z</time>
      </trkpt>
      <trkpt lat="40.1789280" lon="-3.8837110">
        <ele>668.4</ele>
        <time>2021-02-20T10:53:21Z</time>
      </trkpt>
      <trkpt lat="40.1784780" lon="-3.8837940">
        <ele>668.4</ele>
        <time>2021-02-20T10:53:28Z</time>
      </trkpt>
      <trkpt lat="40.1779910" lon="-3.8839380">
        <ele>668.0</ele>
        <time>2021-02-20T10:53:36Z</time>
      </trkpt>
      <trkpt lat="40.1778750" lon="-3.8839890">
        <ele>668.0</ele>
        <time>2021-02-20T10:53:38Z</time>
      </trkpt>
      <trkpt lat="40.1777240" lon="-3.8841110">
        <ele>668.2</ele>
        <time>2021-02-20T10:53:41Z</time>
      </trkpt>
      <trkpt lat="40.1776710" lon="-3.8841460">
        <ele>668.0</ele>
        <time>2021-02-20T10:53:42Z</time>
      </trkpt>
      <trkpt lat="40.1776190" lon="-3.8841820">
        <ele>668.0</ele>
        <time>2021-02-20T10:53:43Z</time>
      </trkpt>
      <trkpt lat="40.1774670" lon="-3.8843030">
        <ele>668.2</ele>
        <time>2021-02-20T10:53:46Z</time>
      </trkpt>
      <trkpt lat="40.1770160" lon="-3.8846580">
        <ele>668.4</ele>
        <time>2021-02-20T10:53:55Z</time>
      </trkpt>
      <trkpt lat="40.1765190" lon="-3.8850450">
        <ele>668.8</ele>
        <time>2021-02-20T10:54:05Z</time>
      </trkpt>
      <trkpt lat="40.1764230" lon="-3.8851230">
        <ele>669.0</ele>
        <time>2021-02-20T10:54:07Z</time>
      </trkpt>
      <trkpt lat="40.1761420" lon="-3.8853520">
        <ele>669.2</ele>
        <time>2021-02-20T10:54:13Z</time>
      </trkpt>
      <trkpt lat="40.1758250" lon="-3.8856100">
        <ele>669.8</ele>
        <time>2021-02-20T10:54:20Z</time>
      </trkpt>
      <trkpt lat="40.1756500" lon="-3.8857680">
        <ele>670.2</ele>
        <time>2021-02-20T10:54:24Z</time>
      </trkpt>
      <trkpt lat="40.1754750" lon="-3.8859080">
        <ele>670.8</ele>
        <time>2021-02-20T10:54:28Z</time>
      </trkpt>
      <trkpt lat="40.1752000" lon="-3.8861690">
        <ele>671.0</ele>
        <time>2021-02-20T10:54:35Z</time>
      </trkpt>
      <trkpt lat="40.1750810" lon="-3.8862750">
        <ele>671.4</ele>
        <time>2021-02-20T10:54:38Z</time>
      </trkpt>
      <trkpt lat="40.1748930" lon="-3.8864580">
        <ele>672.2</ele>
        <time>2021-02-20T10:54:43Z</time>
      </trkpt>
      <trkpt lat="40.1748560" lon="-3.8864940">
        <ele>672.4</ele>
        <time>2021-02-20T10:54:44Z</time>
      </trkpt>
      <trkpt lat="40.1745670" lon="-3.8867910">
        <ele>673.4</ele>
        <time>2021-02-20T10:54:52Z</time>
      </trkpt>
      <trkpt lat="40.1744600" lon="-3.8869160">
        <ele>673.4</ele>
        <time>2021-02-20T10:54:55Z</time>
      </trkpt>
      <trkpt lat="40.1742500" lon="-3.8872020">
        <ele>673.8</ele>
        <time>2021-02-20T10:55:01Z</time>
      </trkpt>
      <trkpt lat="40.1742150" lon="-3.8872490">
        <ele>673.8</ele>
        <time>2021-02-20T10:55:02Z</time>
      </trkpt>
      <trkpt lat="40.1740460" lon="-3.8873930">
        <ele>674.0</ele>
        <time>2021-02-20T10:55:06Z</time>
      </trkpt>
      <trkpt lat="40.1736770" lon="-3.8876380">
        <ele>674.0</ele>
        <time>2021-02-20T10:55:14Z</time>
      </trkpt>
      <trkpt lat="40.1732510" lon="-3.8879290">
        <ele>674.2</ele>
        <time>2021-02-20T10:55:23Z</time>
      </trkpt>
      <trkpt lat="40.1729590" lon="-3.8881420">
        <ele>674.0</ele>
        <time>2021-02-20T10:55:29Z</time>
      </trkpt>
      <trkpt lat="40.1729130" lon="-3.8881850">
        <ele>673.8</ele>
        <time>2021-02-20T10:55:30Z</time>
      </trkpt>
      <trkpt lat="40.1728700" lon="-3.8882340">
        <ele>673.8</ele>
        <time>2021-02-20T10:55:31Z</time>
      </trkpt>
      <trkpt lat="40.1727270" lon="-3.8884480">
        <ele>674.2</ele>
        <time>2021-02-20T10:55:35Z</time>
      </trkpt>
      <trkpt lat="40.1725900" lon="-3.8886640">
        <ele>674.2</ele>
        <time>2021-02-20T10:55:39Z</time>
      </trkpt>
      <trkpt lat="40.1725460" lon="-3.8887830">
        <ele>674.2</ele>
        <time>2021-02-20T10:55:41Z</time>
      </trkpt>
      <trkpt lat="40.1724990" lon="-3.8889730">
        <ele>674.4</ele>
        <time>2021-02-20T10:55:44Z</time>
      </trkpt>
      <trkpt lat="40.1724710" lon="-3.8891000">
        <ele>674.8</ele>
        <time>2021-02-20T10:55:46Z</time>
      </trkpt>
      <trkpt lat="40.1722990" lon="-3.8896710">
        <ele>675.0</ele>
        <time>2021-02-20T10:55:55Z</time>
      </trkpt>
      <trkpt lat="40.1721930" lon="-3.8899930">
        <ele>675.2</ele>
        <time>2021-02-20T10:56:00Z</time>
      </trkpt>
      <trkpt lat="40.1721150" lon="-3.8902360">
        <ele>675.2</ele>
        <time>2021-02-20T10:56:04Z</time>
      </trkpt>
      <trkpt lat="40.1720160" lon="-3.8906040">
        <ele>675.0</ele>
        <time>2021-02-20T10:56:10Z</time>
      </trkpt>
      <trkpt lat="40.1719830" lon="-3.8907390">
        <ele>674.8</ele>
        <time>2021-02-20T10:56:12Z</time>
      </trkpt>
      <trkpt lat="40.1718960" lon="-3.8910050">
        <ele>675.0</ele>
        <time>2021-02-20T10:56:16Z</time>
      </trkpt>
      <trkpt lat="40.1717950" lon="-3.8915110">
        <ele>675.2</ele>
        <time>2021-02-20T10:56:23Z</time>
      </trkpt>
      <trkpt lat="40.1717010" lon="-3.8920400">
        <ele>674.6</ele>
        <time>2021-02-20T10:56:30Z</time>
      </trkpt>
      <trkpt lat="40.1716740" lon="-3.8921960">
        <ele>674.6</ele>
        <time>2021-02-20T10:56:32Z</time>
      </trkpt>
      <trkpt lat="40.1716000" lon="-3.8925840">
        <ele>674.2</ele>
        <time>2021-02-20T10:56:37Z</time>
      </trkpt>
      <trkpt lat="40.1715580" lon="-3.8928220">
        <ele>674.2</ele>
        <time>2021-02-20T10:56:40Z</time>
      </trkpt>
      <trkpt lat="40.1714880" lon="-3.8933600">
        <ele>674.4</ele>
        <time>2021-02-20T10:56:47Z</time>
      </trkpt>
      <trkpt lat="40.1713940" lon="-3.8940910">
        <ele>674.8</ele>
        <time>2021-02-20T10:56:57Z</time>
      </trkpt>
      <trkpt lat="40.1713830" lon="-3.8941640">
        <ele>674.8</ele>
        <time>2021-02-20T10:56:58Z</time>
      </trkpt>
      <trkpt lat="40.1712470" lon="-3.8946880">
        <ele>674.4</ele>
        <time>2021-02-20T10:57:05Z</time>
      </trkpt>
      <trkpt lat="40.1710730" lon="-3.8950930">
        <ele>674.6</ele>
        <time>2021-02-20T10:57:11Z</time>
      </trkpt>
      <trkpt lat="40.1708950" lon="-3.8955660">
        <ele>674.4</ele>
        <time>2021-02-20T10:57:18Z</time>
      </trkpt>
      <trkpt lat="40.1706850" lon="-3.8961140">
        <ele>674.6</ele>
        <time>2021-02-20T10:57:26Z</time>
      </trkpt>
      <trkpt lat="40.1705560" lon="-3.8965380">
        <ele>673.8</ele>
        <time>2021-02-20T10:57:32Z</time>
      </trkpt>
      <trkpt lat="40.1705010" lon="-3.8966530">
        <ele>673.2</ele>
        <time>2021-02-20T10:57:34Z</time>
      </trkpt>
      <trkpt lat="40.1703810" lon="-3.8968120">
        <ele>672.6</ele>
        <time>2021-02-20T10:57:37Z</time>
      </trkpt>
      <trkpt lat="40.1702630" lon="-3.8969810">
        <ele>672.2</ele>
        <time>2021-02-20T10:57:40Z</time>
      </trkpt>
      <trkpt lat="40.1700580" lon="-3.8972760">
        <ele>671.2</ele>
        <time>2021-02-20T10:57:45Z</time>
      </trkpt>
      <trkpt lat="40.1700160" lon="-3.8973380">
        <ele>671.0</ele>
        <time>2021-02-20T10:57:46Z</time>
      </trkpt>
      <trkpt lat="40.1697880" lon="-3.8976370">
        <ele>670.2</ele>
        <time>2021-02-20T10:57:51Z</time>
      </trkpt>
      <trkpt lat="40.1696930" lon="-3.8977720">
        <ele>669.6</ele>
        <time>2021-02-20T10:57:53Z</time>
      </trkpt>
      <trkpt lat="40.1695560" lon="-3.8979860">
        <ele>669.0</ele>
        <time>2021-02-20T10:57:56Z</time>
      </trkpt>
      <trkpt lat="40.1694700" lon="-3.8981360">
        <ele>668.6</ele>
        <time>2021-02-20T10:57:58Z</time>
      </trkpt>
      <trkpt lat="40.1694300" lon="-3.8982090">
        <ele>668.4</ele>
        <time>2021-02-20T10:57:59Z</time>
      </trkpt>
      <trkpt lat="40.1693090" lon="-3.8984620">
        <ele>667.8</ele>
        <time>2021-02-20T10:58:03Z</time>
      </trkpt>
      <trkpt lat="40.1692790" lon="-3.8985020">
        <ele>667.4</ele>
        <time>2021-02-20T10:58:04Z</time>
      </trkpt>
      <trkpt lat="40.1692280" lon="-3.8986070">
        <ele>667.2</ele>
        <time>2021-02-20T10:58:06Z</time>
      </trkpt>
      <trkpt lat="40.1692010" lon="-3.8986710">
        <ele>667.0</ele>
        <time>2021-02-20T10:58:07Z</time>
      </trkpt>
      <trkpt lat="40.1690240" lon="-3.8990600">
        <ele>666.2</ele>
        <time>2021-02-20T10:58:13Z</time>
      </trkpt>
      <trkpt lat="40.1689890" lon="-3.8991240">
        <ele>666.2</ele>
        <time>2021-02-20T10:58:14Z</time>
      </trkpt>
      <trkpt lat="40.1688740" lon="-3.8993300">
        <ele>664.8</ele>
        <time>2021-02-20T10:58:17Z</time>
      </trkpt>
      <trkpt lat="40.1688080" lon="-3.8994910">
        <ele>664.4</ele>
        <time>2021-02-20T10:58:19Z</time>
      </trkpt>
      <trkpt lat="40.1687780" lon="-3.8995950">
        <ele>664.0</ele>
        <time>2021-02-20T10:58:20Z</time>
      </trkpt>
      <trkpt lat="40.1687520" lon="-3.8996930">
        <ele>663.8</ele>
        <time>2021-02-20T10:58:21Z</time>
      </trkpt>
      <trkpt lat="40.1686620" lon="-3.8999930">
        <ele>662.4</ele>
        <time>2021-02-20T10:58:24Z</time>
      </trkpt>
      <trkpt lat="40.1685840" lon="-3.9002000">
        <ele>661.4</ele>
        <time>2021-02-20T10:58:26Z</time>
      </trkpt>
      <trkpt lat="40.1684630" lon="-3.9005240">
        <ele>660.2</ele>
        <time>2021-02-20T10:58:29Z</time>
      </trkpt>
      <trkpt lat="40.1683940" lon="-3.9007420">
        <ele>659.2</ele>
        <time>2021-02-20T10:58:31Z</time>
      </trkpt>
      <trkpt lat="40.1683350" lon="-3.9009670">
        <ele>658.2</ele>
        <time>2021-02-20T10:58:33Z</time>
      </trkpt>
      <trkpt lat="40.1683040" lon="-3.9010820">
        <ele>657.8</ele>
        <time>2021-02-20T10:58:34Z</time>
      </trkpt>
      <trkpt lat="40.1681930" lon="-3.9014220">
        <ele>657.2</ele>
        <time>2021-02-20T10:58:37Z</time>
      </trkpt>
      <trkpt lat="40.1681370" lon="-3.9015100">
        <ele>657.2</ele>
        <time>2021-02-20T10:58:38Z</time>
      </trkpt>
      <trkpt lat="40.1679300" lon="-3.9016860">
        <ele>657.0</ele>
        <time>2021-02-20T10:58:41Z</time>
      </trkpt>
      <trkpt lat="40.1677440" lon="-3.9017420">
        <ele>657.2</ele>
        <time>2021-02-20T10:58:44Z</time>
      </trkpt>
      <trkpt lat="40.1675700" lon="-3.9016990">
        <ele>658.2</ele>
        <time>2021-02-20T10:58:48Z</time>
      </trkpt>
      <trkpt lat="40.1675390" lon="-3.9016860">
        <ele>658.4</ele>
        <time>2021-02-20T10:58:49Z</time>
      </trkpt>
      <trkpt lat="40.1674630" lon="-3.9016430">
        <ele>658.8</ele>
        <time>2021-02-20T10:58:52Z</time>
      </trkpt>
      <trkpt lat="40.1675170" lon="-3.9016070">
        <ele>659.2</ele>
        <time>2021-02-20T10:58:55Z</time>
      </trkpt>
      <trkpt lat="40.1676820" lon="-3.9015840">
        <ele>658.6</ele>
        <time>2021-02-20T10:58:59Z</time>
      </trkpt>
      <trkpt lat="40.1677500" lon="-3.9014170">
        <ele>658.4</ele>
        <time>2021-02-20T10:59:02Z</time>
      </trkpt>
      <trkpt lat="40.1677110" lon="-3.9011950">
        <ele>659.4</ele>
        <time>2021-02-20T10:59:06Z</time>
      </trkpt>
      <trkpt lat="40.1676900" lon="-3.9010920">
        <ele>660.2</ele>
        <time>2021-02-20T10:59:08Z</time>
      </trkpt>
      <trkpt lat="40.1676490" lon="-3.9009460">
        <ele>661.2</ele>
        <time>2021-02-20T10:59:11Z</time>
      </trkpt>
      <trkpt lat="40.1676370" lon="-3.9009000">
        <ele>661.4</ele>
        <time>2021-02-20T10:59:12Z</time>
      </trkpt>
      <trkpt lat="40.1675960" lon="-3.9007690">
        <ele>662.4</ele>
        <time>2021-02-20T10:59:15Z</time>
      </trkpt>
      <trkpt lat="40.1675740" lon="-3.9006830">
        <ele>663.0</ele>
        <time>2021-02-20T10:59:17Z</time>
      </trkpt>
      <trkpt lat="40.1675570" lon="-3.9005970">
        <ele>663.2</ele>
        <time>2021-02-20T10:59:19Z</time>
      </trkpt>
      <trkpt lat="40.1675340" lon="-3.9004290">
        <ele>663.4</ele>
        <time>2021-02-20T10:59:23Z</time>
      </trkpt>
      <trkpt lat="40.1675100" lon="-3.9003060">
        <ele>663.4</ele>
        <time>2021-02-20T10:59:26Z</time>
      </trkpt>
      <trkpt lat="40.1674990" lon="-3.9002680">
        <ele>663.4</ele>
        <time>2021-02-20T10:59:27Z</time>
      </trkpt>
      <trkpt lat="40.1673930" lon="-3.8999110">
        <ele>663.6</ele>
        <time>2021-02-20T10:59:36Z</time>
      </trkpt>
      <trkpt lat="40.1674170" lon="-3.8998080">
        <ele>663.8</ele>
        <time>2021-02-20T10:59:40Z</time>
      </trkpt>
      <trkpt lat="40.1674230" lon="-3.8998070">
        <ele>663.6</ele>
        <time>2021-02-20T10:59:47Z</time>
      </trkpt>
      <trkpt lat="40.1674260" lon="-3.8998060">
        <ele>664.0</ele>
        <time>2021-02-20T10:59:49Z</time>
      </trkpt>
      <trkpt lat="40.1674540" lon="-3.8997970">
        <ele>663.8</ele>
        <time>2021-02-20T11:08:52Z</time>
      </trkpt>
      <trkpt lat="40.1674490" lon="-3.8998190">
        <ele>663.8</ele>
        <time>2021-02-20T11:08:53Z</time>
      </trkpt>
      <trkpt lat="40.1674470" lon="-3.8998450">
        <ele>663.6</ele>
        <time>2021-02-20T11:08:54Z</time>
      </trkpt>
      <trkpt lat="40.1674860" lon="-3.8999880">
        <ele>663.8</ele>
        <time>2021-02-20T11:08:58Z</time>
      </trkpt>
      <trkpt lat="40.1675320" lon="-3.9001950">
        <ele>663.6</ele>
        <time>2021-02-20T11:09:02Z</time>
      </trkpt>
      <trkpt lat="40.1675480" lon="-3.9002520">
        <ele>663.8</ele>
        <time>2021-02-20T11:09:03Z</time>
      </trkpt>
      <trkpt lat="40.1676540" lon="-3.9007950">
        <ele>663.4</ele>
        <time>2021-02-20T11:09:12Z</time>
      </trkpt>
      <trkpt lat="40.1677190" lon="-3.9010900">
        <ele>662.4</ele>
        <time>2021-02-20T11:09:16Z</time>
      </trkpt>
      <trkpt lat="40.1677380" lon="-3.9011800">
        <ele>662.0</ele>
        <time>2021-02-20T11:09:17Z</time>
      </trkpt>
      <trkpt lat="40.1677780" lon="-3.9013480">
        <ele>660.8</ele>
        <time>2021-02-20T11:09:19Z</time>
      </trkpt>
      <trkpt lat="40.1678200" lon="-3.9014630">
        <ele>659.8</ele>
        <time>2021-02-20T11:09:21Z</time>
      </trkpt>
      <trkpt lat="40.1679200" lon="-3.9015290">
        <ele>658.8</ele>
        <time>2021-02-20T11:09:23Z</time>
      </trkpt>
      <trkpt lat="40.1679820" lon="-3.9015220">
        <ele>658.4</ele>
        <time>2021-02-20T11:09:24Z</time>
      </trkpt>
      <trkpt lat="40.1681420" lon="-3.9013830">
        <ele>657.8</ele>
        <time>2021-02-20T11:09:27Z</time>
      </trkpt>
      <trkpt lat="40.1682180" lon="-3.9011740">
        <ele>657.6</ele>
        <time>2021-02-20T11:09:30Z</time>
      </trkpt>
      <trkpt lat="40.1682410" lon="-3.9010440">
        <ele>658.0</ele>
        <time>2021-02-20T11:09:32Z</time>
      </trkpt>
      <trkpt lat="40.1682590" lon="-3.9009830">
        <ele>658.2</ele>
        <time>2021-02-20T11:09:33Z</time>
      </trkpt>
      <trkpt lat="40.1682890" lon="-3.9008700">
        <ele>658.6</ele>
        <time>2021-02-20T11:09:35Z</time>
      </trkpt>
      <trkpt lat="40.1683590" lon="-3.9005970">
        <ele>659.0</ele>
        <time>2021-02-20T11:09:40Z</time>
      </trkpt>
      <trkpt lat="40.1683750" lon="-3.9005450">
        <ele>659.4</ele>
        <time>2021-02-20T11:09:41Z</time>
      </trkpt>
      <trkpt lat="40.1684260" lon="-3.9003910">
        <ele>660.0</ele>
        <time>2021-02-20T11:09:44Z</time>
      </trkpt>
      <trkpt lat="40.1684630" lon="-3.9002900">
        <ele>660.4</ele>
        <time>2021-02-20T11:09:46Z</time>
      </trkpt>
      <trkpt lat="40.1685130" lon="-3.9001410">
        <ele>661.0</ele>
        <time>2021-02-20T11:09:49Z</time>
      </trkpt>
      <trkpt lat="40.1685440" lon="-3.9000420">
        <ele>661.4</ele>
        <time>2021-02-20T11:09:51Z</time>
      </trkpt>
      <trkpt lat="40.1685700" lon="-3.8999490">
        <ele>662.0</ele>
        <time>2021-02-20T11:09:53Z</time>
      </trkpt>
      <trkpt lat="40.1686180" lon="-3.8998180">
        <ele>662.8</ele>
        <time>2021-02-20T11:09:56Z</time>
      </trkpt>
      <trkpt lat="40.1686400" lon="-3.8997310">
        <ele>663.2</ele>
        <time>2021-02-20T11:09:58Z</time>
      </trkpt>
      <trkpt lat="40.1686640" lon="-3.8996410">
        <ele>663.6</ele>
        <time>2021-02-20T11:10:00Z</time>
      </trkpt>
      <trkpt lat="40.1686850" lon="-3.8995440">
        <ele>663.8</ele>
        <time>2021-02-20T11:10:02Z</time>
      </trkpt>
      <trkpt lat="40.1687400" lon="-3.8993630">
        <ele>664.6</ele>
        <time>2021-02-20T11:10:06Z</time>
      </trkpt>
      <trkpt lat="40.1687550" lon="-3.8993170">
        <ele>664.8</ele>
        <time>2021-02-20T11:10:07Z</time>
      </trkpt>
      <trkpt lat="40.1687730" lon="-3.8992730">
        <ele>665.0</ele>
        <time>2021-02-20T11:10:08Z</time>
      </trkpt>
      <trkpt lat="40.1688100" lon="-3.8991950">
        <ele>665.4</ele>
        <time>2021-02-20T11:10:10Z</time>
      </trkpt>
      <trkpt lat="40.1688310" lon="-3.8991570">
        <ele>665.6</ele>
        <time>2021-02-20T11:10:11Z</time>
      </trkpt>
      <trkpt lat="40.1688700" lon="-3.8990810">
        <ele>665.8</ele>
        <time>2021-02-20T11:10:13Z</time>
      </trkpt>
      <trkpt lat="40.1689100" lon="-3.8990050">
        <ele>666.4</ele>
        <time>2021-02-20T11:10:15Z</time>
      </trkpt>
      <trkpt lat="40.1689520" lon="-3.8989260">
        <ele>667.0</ele>
        <time>2021-02-20T11:10:17Z</time>
      </trkpt>
      <trkpt lat="40.1689930" lon="-3.8988420">
        <ele>667.2</ele>
        <time>2021-02-20T11:10:19Z</time>
      </trkpt>
      <trkpt lat="40.1690140" lon="-3.8987970">
        <ele>667.4</ele>
        <time>2021-02-20T11:10:20Z</time>
      </trkpt>
      <trkpt lat="40.1690890" lon="-3.8986630">
        <ele>667.4</ele>
        <time>2021-02-20T11:10:23Z</time>
      </trkpt>
      <trkpt lat="40.1691710" lon="-3.8984810">
        <ele>668.0</ele>
        <time>2021-02-20T11:10:27Z</time>
      </trkpt>
      <trkpt lat="40.1691900" lon="-3.8984360">
        <ele>668.0</ele>
        <time>2021-02-20T11:10:28Z</time>
      </trkpt>
      <trkpt lat="40.1693150" lon="-3.8981710">
        <ele>668.8</ele>
        <time>2021-02-20T11:10:34Z</time>
      </trkpt>
      <trkpt lat="40.1694150" lon="-3.8980080">
        <ele>669.2</ele>
        <time>2021-02-20T11:10:38Z</time>
      </trkpt>
      <trkpt lat="40.1695040" lon="-3.8979090">
        <ele>669.8</ele>
        <time>2021-02-20T11:10:41Z</time>
      </trkpt>
      <trkpt lat="40.1695920" lon="-3.8978080">
        <ele>670.4</ele>
        <time>2021-02-20T11:10:44Z</time>
      </trkpt>
      <trkpt lat="40.1696930" lon="-3.8976670">
        <ele>670.6</ele>
        <time>2021-02-20T11:10:48Z</time>
      </trkpt>
      <trkpt lat="40.1698810" lon="-3.8974030">
        <ele>671.4</ele>
        <time>2021-02-20T11:10:55Z</time>
      </trkpt>
      <trkpt lat="40.1699360" lon="-3.8973340">
        <ele>671.4</ele>
        <time>2021-02-20T11:10:57Z</time>
      </trkpt>
      <trkpt lat="40.1701150" lon="-3.8970740">
        <ele>672.4</ele>
        <time>2021-02-20T11:11:04Z</time>
      </trkpt>
      <trkpt lat="40.1702890" lon="-3.8968130">
        <ele>673.4</ele>
        <time>2021-02-20T11:11:11Z</time>
      </trkpt>
      <trkpt lat="40.1703430" lon="-3.8967390">
        <ele>673.6</ele>
        <time>2021-02-20T11:11:13Z</time>
      </trkpt>
      <trkpt lat="40.1705180" lon="-3.8965140">
        <ele>674.4</ele>
        <time>2021-02-20T11:11:19Z</time>
      </trkpt>
      <trkpt lat="40.1705420" lon="-3.8964750">
        <ele>674.6</ele>
        <time>2021-02-20T11:11:20Z</time>
      </trkpt>
      <trkpt lat="40.1706260" lon="-3.8962540">
        <ele>674.6</ele>
        <time>2021-02-20T11:11:25Z</time>
      </trkpt>
      <trkpt lat="40.1706770" lon="-3.8960010">
        <ele>675.4</ele>
        <time>2021-02-20T11:11:30Z</time>
      </trkpt>
      <trkpt lat="40.1706980" lon="-3.8959520">
        <ele>675.8</ele>
        <time>2021-02-20T11:11:31Z</time>
      </trkpt>
      <trkpt lat="40.1707200" lon="-3.8959060">
        <ele>676.0</ele>
        <time>2021-02-20T11:11:32Z</time>
      </trkpt>
      <trkpt lat="40.1708970" lon="-3.8954770">
        <ele>675.8</ele>
        <time>2021-02-20T11:11:40Z</time>
      </trkpt>
      <trkpt lat="40.1710730" lon="-3.8949870">
        <ele>676.2</ele>
        <time>2021-02-20T11:11:48Z</time>
      </trkpt>
      <trkpt lat="40.1712340" lon="-3.8946320">
        <ele>676.0</ele>
        <time>2021-02-20T11:11:54Z</time>
      </trkpt>
      <trkpt lat="40.1712530" lon="-3.8945680">
        <ele>676.2</ele>
        <time>2021-02-20T11:11:55Z</time>
      </trkpt>
      <trkpt lat="40.1713380" lon="-3.8941180">
        <ele>676.2</ele>
        <time>2021-02-20T11:12:02Z</time>
      </trkpt>
      <trkpt lat="40.1714040" lon="-3.8934930">
        <ele>676.4</ele>
        <time>2021-02-20T11:12:11Z</time>
      </trkpt>
      <trkpt lat="40.1714980" lon="-3.8927650">
        <ele>676.0</ele>
        <time>2021-02-20T11:12:21Z</time>
      </trkpt>
      <trkpt lat="40.1716020" lon="-3.8921650">
        <ele>676.2</ele>
        <time>2021-02-20T11:12:30Z</time>
      </trkpt>
      <trkpt lat="40.1717220" lon="-3.8915730">
        <ele>676.6</ele>
        <time>2021-02-20T11:12:39Z</time>
      </trkpt>
      <trkpt lat="40.1717480" lon="-3.8914340">
        <ele>676.8</ele>
        <time>2021-02-20T11:12:41Z</time>
      </trkpt>
      <trkpt lat="40.1718360" lon="-3.8910300">
        <ele>677.2</ele>
        <time>2021-02-20T11:12:47Z</time>
      </trkpt>
      <trkpt lat="40.1718580" lon="-3.8909650">
        <ele>677.0</ele>
        <time>2021-02-20T11:12:48Z</time>
      </trkpt>
      <trkpt lat="40.1719390" lon="-3.8906380">
        <ele>676.8</ele>
        <time>2021-02-20T11:12:53Z</time>
      </trkpt>
      <trkpt lat="40.1719750" lon="-3.8905220">
        <ele>676.8</ele>
        <time>2021-02-20T11:12:57Z</time>
      </trkpt>
      <trkpt lat="40.1720300" lon="-3.8904170">
        <ele>676.8</ele>
        <time>2021-02-20T11:13:01Z</time>
      </trkpt>
      <trkpt lat="40.1720430" lon="-3.8903600">
        <ele>676.8</ele>
        <time>2021-02-20T11:13:02Z</time>
      </trkpt>
      <trkpt lat="40.1720950" lon="-3.8901700">
        <ele>677.0</ele>
        <time>2021-02-20T11:13:05Z</time>
      </trkpt>
      <trkpt lat="40.1722130" lon="-3.8897960">
        <ele>677.2</ele>
        <time>2021-02-20T11:13:11Z</time>
      </trkpt>
      <trkpt lat="40.1722980" lon="-3.8895340">
        <ele>677.2</ele>
        <time>2021-02-20T11:13:15Z</time>
      </trkpt>
      <trkpt lat="40.1725010" lon="-3.8888330">
        <ele>676.8</ele>
        <time>2021-02-20T11:13:25Z</time>
      </trkpt>
      <trkpt lat="40.1726690" lon="-3.8884850">
        <ele>676.2</ele>
        <time>2021-02-20T11:13:30Z</time>
      </trkpt>
      <trkpt lat="40.1728750" lon="-3.8881880">
        <ele>676.0</ele>
        <time>2021-02-20T11:13:35Z</time>
      </trkpt>
      <trkpt lat="40.1729710" lon="-3.8880920">
        <ele>675.8</ele>
        <time>2021-02-20T11:13:37Z</time>
      </trkpt>
      <trkpt lat="40.1732920" lon="-3.8878760">
        <ele>676.0</ele>
        <time>2021-02-20T11:13:43Z</time>
      </trkpt>
      <trkpt lat="40.1737780" lon="-3.8875480">
        <ele>676.2</ele>
        <time>2021-02-20T11:13:52Z</time>
      </trkpt>
      <trkpt lat="40.1740040" lon="-3.8874000">
        <ele>676.4</ele>
        <time>2021-02-20T11:13:56Z</time>
      </trkpt>
      <trkpt lat="40.1740600" lon="-3.8873570">
        <ele>676.4</ele>
        <time>2021-02-20T11:13:57Z</time>
      </trkpt>
      <trkpt lat="40.1742200" lon="-3.8872100">
        <ele>676.2</ele>
        <time>2021-02-20T11:14:00Z</time>
      </trkpt>
      <trkpt lat="40.1743680" lon="-3.8870400">
        <ele>676.2</ele>
        <time>2021-02-20T11:14:03Z</time>
      </trkpt>
      <trkpt lat="40.1746170" lon="-3.8867590">
        <ele>675.8</ele>
        <time>2021-02-20T11:14:08Z</time>
      </trkpt>
      <trkpt lat="40.1748230" lon="-3.8865290">
        <ele>675.4</ele>
        <time>2021-02-20T11:14:12Z</time>
      </trkpt>
      <trkpt lat="40.1750460" lon="-3.8862950">
        <ele>674.6</ele>
        <time>2021-02-20T11:14:16Z</time>
      </trkpt>
      <trkpt lat="40.1751650" lon="-3.8861810">
        <ele>674.2</ele>
        <time>2021-02-20T11:14:18Z</time>
      </trkpt>
      <trkpt lat="40.1753440" lon="-3.8860070">
        <ele>673.6</ele>
        <time>2021-02-20T11:14:21Z</time>
      </trkpt>
      <trkpt lat="40.1757100" lon="-3.8856980">
        <ele>672.6</ele>
        <time>2021-02-20T11:14:27Z</time>
      </trkpt>
      <trkpt lat="40.1761910" lon="-3.8852990">
        <ele>671.6</ele>
        <time>2021-02-20T11:14:35Z</time>
      </trkpt>
      <trkpt lat="40.1762490" lon="-3.8852520">
        <ele>671.4</ele>
        <time>2021-02-20T11:14:36Z</time>
      </trkpt>
      <trkpt lat="40.1767200" lon="-3.8848780">
        <ele>671.0</ele>
        <time>2021-02-20T11:14:44Z</time>
      </trkpt>
      <trkpt lat="40.1767800" lon="-3.8848330">
        <ele>670.8</ele>
        <time>2021-02-20T11:14:45Z</time>
      </trkpt>
      <trkpt lat="40.1772590" lon="-3.8844740">
        <ele>670.4</ele>
        <time>2021-02-20T11:14:53Z</time>
      </trkpt>
      <trkpt lat="40.1773170" lon="-3.8844290">
        <ele>670.4</ele>
        <time>2021-02-20T11:14:54Z</time>
      </trkpt>
      <trkpt lat="40.1773760" lon="-3.8843850">
        <ele>670.4</ele>
        <time>2021-02-20T11:14:55Z</time>
      </trkpt>
      <trkpt lat="40.1777830" lon="-3.8840680">
        <ele>670.2</ele>
        <time>2021-02-20T11:15:02Z</time>
      </trkpt>
      <trkpt lat="40.1780180" lon="-3.8839290">
        <ele>670.4</ele>
        <time>2021-02-20T11:15:06Z</time>
      </trkpt>
      <trkpt lat="40.1781440" lon="-3.8838840">
        <ele>670.2</ele>
        <time>2021-02-20T11:15:08Z</time>
      </trkpt>
      <trkpt lat="40.1786600" lon="-3.8837580">
        <ele>670.2</ele>
        <time>2021-02-20T11:15:16Z</time>
      </trkpt>
      <trkpt lat="40.1790910" lon="-3.8836570">
        <ele>670.6</ele>
        <time>2021-02-20T11:15:23Z</time>
      </trkpt>
      <trkpt lat="40.1794950" lon="-3.8834910">
        <ele>670.8</ele>
        <time>2021-02-20T11:15:30Z</time>
      </trkpt>
      <trkpt lat="40.1799250" lon="-3.8832550">
        <ele>671.0</ele>
        <time>2021-02-20T11:15:38Z</time>
      </trkpt>
      <trkpt lat="40.1801410" lon="-3.8831340">
        <ele>671.4</ele>
        <time>2021-02-20T11:15:42Z</time>
      </trkpt>
      <trkpt lat="40.1804030" lon="-3.8829860">
        <ele>672.0</ele>
        <time>2021-02-20T11:15:47Z</time>
      </trkpt>
      <trkpt lat="40.1806180" lon="-3.8828800">
        <ele>672.4</ele>
        <time>2021-02-20T11:15:51Z</time>
      </trkpt>
      <trkpt lat="40.1808680" lon="-3.8827520">
        <ele>673.4</ele>
        <time>2021-02-20T11:15:56Z</time>
      </trkpt>
      <trkpt lat="40.1809180" lon="-3.8827300">
        <ele>673.6</ele>
        <time>2021-02-20T11:15:57Z</time>
      </trkpt>
      <trkpt lat="40.1810550" lon="-3.8826290">
        <ele>674.0</ele>
        <time>2021-02-20T11:16:00Z</time>
      </trkpt>
      <trkpt lat="40.1811400" lon="-3.8825440">
        <ele>674.2</ele>
        <time>2021-02-20T11:16:02Z</time>
      </trkpt>
      <trkpt lat="40.1813040" lon="-3.8823580">
        <ele>674.4</ele>
        <time>2021-02-20T11:16:06Z</time>
      </trkpt>
      <trkpt lat="40.1814100" lon="-3.8822050">
        <ele>674.6</ele>
        <time>2021-02-20T11:16:09Z</time>
      </trkpt>
      <trkpt lat="40.1815320" lon="-3.8820660">
        <ele>675.0</ele>
        <time>2021-02-20T11:16:12Z</time>
      </trkpt>
      <trkpt lat="40.1816690" lon="-3.8819460">
        <ele>675.2</ele>
        <time>2021-02-20T11:16:15Z</time>
      </trkpt>
      <trkpt lat="40.1818930" lon="-3.8817450">
        <ele>675.8</ele>
        <time>2021-02-20T11:16:20Z</time>
      </trkpt>
      <trkpt lat="40.1819780" lon="-3.8816650">
        <ele>675.8</ele>
        <time>2021-02-20T11:16:22Z</time>
      </trkpt>
      <trkpt lat="40.1824260" lon="-3.8812910">
        <ele>676.6</ele>
        <time>2021-02-20T11:16:32Z</time>
      </trkpt>
      <trkpt lat="40.1825180" lon="-3.8812110">
        <ele>676.8</ele>
        <time>2021-02-20T11:16:34Z</time>
      </trkpt>
      <trkpt lat="40.1828420" lon="-3.8809380">
        <ele>677.4</ele>
        <time>2021-02-20T11:16:41Z</time>
      </trkpt>
      <trkpt lat="40.1829750" lon="-3.8808170">
        <ele>677.8</ele>
        <time>2021-02-20T11:16:44Z</time>
      </trkpt>
      <trkpt lat="40.1831720" lon="-3.8805990">
        <ele>678.6</ele>
        <time>2021-02-20T11:16:49Z</time>
      </trkpt>
      <trkpt lat="40.1832980" lon="-3.8804680">
        <ele>679.0</ele>
        <time>2021-02-20T11:16:52Z</time>
      </trkpt>
      <trkpt lat="40.1833780" lon="-3.8803810">
        <ele>679.0</ele>
        <time>2021-02-20T11:16:54Z</time>
      </trkpt>
      <trkpt lat="40.1834260" lon="-3.8803480">
        <ele>679.0</ele>
        <time>2021-02-20T11:16:55Z</time>
      </trkpt>
      <trkpt lat="40.1838380" lon="-3.8800910">
        <ele>679.0</ele>
        <time>2021-02-20T11:17:03Z</time>
      </trkpt>
      <trkpt lat="40.1843400" lon="-3.8798600">
        <ele>678.4</ele>
        <time>2021-02-20T11:17:12Z</time>
      </trkpt>
      <trkpt lat="40.1845670" lon="-3.8797650">
        <ele>678.2</ele>
        <time>2021-02-20T11:17:16Z</time>
      </trkpt>
      <trkpt lat="40.1846770" lon="-3.8797160">
        <ele>678.2</ele>
        <time>2021-02-20T11:17:18Z</time>
      </trkpt>
      <trkpt lat="40.1849960" lon="-3.8795180">
        <ele>678.4</ele>
        <time>2021-02-20T11:17:24Z</time>
      </trkpt>
      <trkpt lat="40.1851950" lon="-3.8793840">
        <ele>678.2</ele>
        <time>2021-02-20T11:17:28Z</time>
      </trkpt>
      <trkpt lat="40.1852400" lon="-3.8793390">
        <ele>678.4</ele>
        <time>2021-02-20T11:17:29Z</time>
      </trkpt>
      <trkpt lat="40.1853360" lon="-3.8792690">
        <ele>678.4</ele>
        <time>2021-02-20T11:17:31Z</time>
      </trkpt>
      <trkpt lat="40.1854940" lon="-3.8791950">
        <ele>678.6</ele>
        <time>2021-02-20T11:17:34Z</time>
      </trkpt>
      <trkpt lat="40.1858060" lon="-3.8790440">
        <ele>679.0</ele>
        <time>2021-02-20T11:17:40Z</time>
      </trkpt>
      <trkpt lat="40.1861530" lon="-3.8788270">
        <ele>680.0</ele>
        <time>2021-02-20T11:17:47Z</time>
      </trkpt>
      <trkpt lat="40.1863040" lon="-3.8787390">
        <ele>680.2</ele>
        <time>2021-02-20T11:17:50Z</time>
      </trkpt>
      <trkpt lat="40.1866420" lon="-3.8785350">
        <ele>680.0</ele>
        <time>2021-02-20T11:17:56Z</time>
      </trkpt>
      <trkpt lat="40.1869810" lon="-3.8783710">
        <ele>679.8</ele>
        <time>2021-02-20T11:18:02Z</time>
      </trkpt>
      <trkpt lat="40.1871000" lon="-3.8783240">
        <ele>679.8</ele>
        <time>2021-02-20T11:18:04Z</time>
      </trkpt>
      <trkpt lat="40.1872720" lon="-3.8782660">
        <ele>679.8</ele>
        <time>2021-02-20T11:18:07Z</time>
      </trkpt>
      <trkpt lat="40.1877310" lon="-3.8780600">
        <ele>680.0</ele>
        <time>2021-02-20T11:18:15Z</time>
      </trkpt>
      <trkpt lat="40.1882190" lon="-3.8778730">
        <ele>679.6</ele>
        <time>2021-02-20T11:18:23Z</time>
      </trkpt>
      <trkpt lat="40.1886320" lon="-3.8776740">
        <ele>679.6</ele>
        <time>2021-02-20T11:18:30Z</time>
      </trkpt>
      <trkpt lat="40.1891630" lon="-3.8773750">
        <ele>679.6</ele>
        <time>2021-02-20T11:18:39Z</time>
      </trkpt>
      <trkpt lat="40.1895030" lon="-3.8772260">
        <ele>678.8</ele>
        <time>2021-02-20T11:18:44Z</time>
      </trkpt>
      <trkpt lat="40.1897200" lon="-3.8771320">
        <ele>678.2</ele>
        <time>2021-02-20T11:18:47Z</time>
      </trkpt>
      <trkpt lat="40.1898680" lon="-3.8770630">
        <ele>677.8</ele>
        <time>2021-02-20T11:18:49Z</time>
      </trkpt>
      <trkpt lat="40.1903240" lon="-3.8768170">
        <ele>676.8</ele>
        <time>2021-02-20T11:18:55Z</time>
      </trkpt>
      <trkpt lat="40.1908520" lon="-3.8765030">
        <ele>676.2</ele>
        <time>2021-02-20T11:19:02Z</time>
      </trkpt>
      <trkpt lat="40.1910010" lon="-3.8764120">
        <ele>676.0</ele>
        <time>2021-02-20T11:19:04Z</time>
      </trkpt>
      <trkpt lat="40.1911380" lon="-3.8763310">
        <ele>675.8</ele>
        <time>2021-02-20T11:19:06Z</time>
      </trkpt>
      <trkpt lat="40.1913440" lon="-3.8762430">
        <ele>675.4</ele>
        <time>2021-02-20T11:19:09Z</time>
      </trkpt>
      <trkpt lat="40.1914090" lon="-3.8761990">
        <ele>675.2</ele>
        <time>2021-02-20T11:19:10Z</time>
      </trkpt>
      <trkpt lat="40.1914750" lon="-3.8761590">
        <ele>674.8</ele>
        <time>2021-02-20T11:19:11Z</time>
      </trkpt>
      <trkpt lat="40.1916720" lon="-3.8760370">
        <ele>674.8</ele>
        <time>2021-02-20T11:19:14Z</time>
      </trkpt>
      <trkpt lat="40.1920600" lon="-3.8758310">
        <ele>674.4</ele>
        <time>2021-02-20T11:19:20Z</time>
      </trkpt>
      <trkpt lat="40.1921220" lon="-3.8757960">
        <ele>674.4</ele>
        <time>2021-02-20T11:19:21Z</time>
      </trkpt>
      <trkpt lat="40.1925110" lon="-3.8756420">
        <ele>674.6</ele>
        <time>2021-02-20T11:19:27Z</time>
      </trkpt>
      <trkpt lat="40.1928220" lon="-3.8755050">
        <ele>675.0</ele>
        <time>2021-02-20T11:19:32Z</time>
      </trkpt>
      <trkpt lat="40.1930650" lon="-3.8754060">
        <ele>675.2</ele>
        <time>2021-02-20T11:19:36Z</time>
      </trkpt>
      <trkpt lat="40.1934870" lon="-3.8751730">
        <ele>675.0</ele>
        <time>2021-02-20T11:19:43Z</time>
      </trkpt>
      <trkpt lat="40.1939800" lon="-3.8748320">
        <ele>674.2</ele>
        <time>2021-02-20T11:19:51Z</time>
      </trkpt>
      <trkpt lat="40.1943620" lon="-3.8745810">
        <ele>673.6</ele>
        <time>2021-02-20T11:19:57Z</time>
      </trkpt>
      <trkpt lat="40.1946260" lon="-3.8743890">
        <ele>672.6</ele>
        <time>2021-02-20T11:20:01Z</time>
      </trkpt>
      <trkpt lat="40.1948360" lon="-3.8742280">
        <ele>671.6</ele>
        <time>2021-02-20T11:20:04Z</time>
      </trkpt>
      <trkpt lat="40.1950290" lon="-3.8740960">
        <ele>671.6</ele>
        <time>2021-02-20T11:20:07Z</time>
      </trkpt>
      <trkpt lat="40.1952460" lon="-3.8739590">
        <ele>672.6</ele>
        <time>2021-02-20T11:20:11Z</time>
      </trkpt>
      <trkpt lat="40.1953360" lon="-3.8738990">
        <ele>673.0</ele>
        <time>2021-02-20T11:20:13Z</time>
      </trkpt>
      <trkpt lat="40.1954700" lon="-3.8738040">
        <ele>673.8</ele>
        <time>2021-02-20T11:20:16Z</time>
      </trkpt>
      <trkpt lat="40.1957330" lon="-3.8736160">
        <ele>674.4</ele>
        <time>2021-02-20T11:20:22Z</time>
      </trkpt>
      <trkpt lat="40.1959140" lon="-3.8734940">
        <ele>674.8</ele>
        <time>2021-02-20T11:20:26Z</time>
      </trkpt>
      <trkpt lat="40.1961760" lon="-3.8733210">
        <ele>675.8</ele>
        <time>2021-02-20T11:20:32Z</time>
      </trkpt>
      <trkpt lat="40.1962210" lon="-3.8732900">
        <ele>675.8</ele>
        <time>2021-02-20T11:20:33Z</time>
      </trkpt>
      <trkpt lat="40.1964080" lon="-3.8731720">
        <ele>675.8</ele>
        <time>2021-02-20T11:20:37Z</time>
      </trkpt>
      <trkpt lat="40.1965420" lon="-3.8730810">
        <ele>675.8</ele>
        <time>2021-02-20T11:20:40Z</time>
      </trkpt>
      <trkpt lat="40.1967240" lon="-3.8729770">
        <ele>676.8</ele>
        <time>2021-02-20T11:20:44Z</time>
      </trkpt>
      <trkpt lat="40.1968110" lon="-3.8729240">
        <ele>677.2</ele>
        <time>2021-02-20T11:20:46Z</time>
      </trkpt>
      <trkpt lat="40.1968960" lon="-3.8728690">
        <ele>677.6</ele>
        <time>2021-02-20T11:20:48Z</time>
      </trkpt>
      <trkpt lat="40.1969430" lon="-3.8728520">
        <ele>677.8</ele>
        <time>2021-02-20T11:20:49Z</time>
      </trkpt>
      <trkpt lat="40.1969850" lon="-3.8728240">
        <ele>678.0</ele>
        <time>2021-02-20T11:20:50Z</time>
      </trkpt>
      <trkpt lat="40.1971160" lon="-3.8727500">
        <ele>678.4</ele>
        <time>2021-02-20T11:20:53Z</time>
      </trkpt>
      <trkpt lat="40.1972360" lon="-3.8726780">
        <ele>679.0</ele>
        <time>2021-02-20T11:20:56Z</time>
      </trkpt>
      <trkpt lat="40.1974280" lon="-3.8725470">
        <ele>679.6</ele>
        <time>2021-02-20T11:21:01Z</time>
      </trkpt>
      <trkpt lat="40.1975460" lon="-3.8724670">
        <ele>680.2</ele>
        <time>2021-02-20T11:21:04Z</time>
      </trkpt>
      <trkpt lat="40.1976640" lon="-3.8723840">
        <ele>680.6</ele>
        <time>2021-02-20T11:21:07Z</time>
      </trkpt>
      <trkpt lat="40.1977430" lon="-3.8723300">
        <ele>680.8</ele>
        <time>2021-02-20T11:21:09Z</time>
      </trkpt>
      <trkpt lat="40.1978230" lon="-3.8722780">
        <ele>681.0</ele>
        <time>2021-02-20T11:21:11Z</time>
      </trkpt>
      <trkpt lat="40.1978620" lon="-3.8722530">
        <ele>681.2</ele>
        <time>2021-02-20T11:21:12Z</time>
      </trkpt>
      <trkpt lat="40.1979390" lon="-3.8721970">
        <ele>681.8</ele>
        <time>2021-02-20T11:21:14Z</time>
      </trkpt>
      <trkpt lat="40.1980980" lon="-3.8720890">
        <ele>682.0</ele>
        <time>2021-02-20T11:21:18Z</time>
      </trkpt>
      <trkpt lat="40.1981350" lon="-3.8720510">
        <ele>682.0</ele>
        <time>2021-02-20T11:21:19Z</time>
      </trkpt>
      <trkpt lat="40.1981750" lon="-3.8720200">
        <ele>682.2</ele>
        <time>2021-02-20T11:21:20Z</time>
      </trkpt>
      <trkpt lat="40.1982520" lon="-3.8719460">
        <ele>682.2</ele>
        <time>2021-02-20T11:21:22Z</time>
      </trkpt>
      <trkpt lat="40.1982950" lon="-3.8719200">
        <ele>682.2</ele>
        <time>2021-02-20T11:21:23Z</time>
      </trkpt>
      <trkpt lat="40.1983360" lon="-3.8718910">
        <ele>682.4</ele>
        <time>2021-02-20T11:21:24Z</time>
      </trkpt>
      <trkpt lat="40.1984640" lon="-3.8718020">
        <ele>682.8</ele>
        <time>2021-02-20T11:21:27Z</time>
      </trkpt>
      <trkpt lat="40.1985490" lon="-3.8717450">
        <ele>682.6</ele>
        <time>2021-02-20T11:21:29Z</time>
      </trkpt>
      <trkpt lat="40.1986710" lon="-3.8716590">
        <ele>683.0</ele>
        <time>2021-02-20T11:21:32Z</time>
      </trkpt>
      <trkpt lat="40.1987140" lon="-3.8716380">
        <ele>683.2</ele>
        <time>2021-02-20T11:21:33Z</time>
      </trkpt>
      <trkpt lat="40.1987560" lon="-3.8716150">
        <ele>683.4</ele>
        <time>2021-02-20T11:21:34Z</time>
      </trkpt>
      <trkpt lat="40.1989620" lon="-3.8714830">
        <ele>684.2</ele>
        <time>2021-02-20T11:21:39Z</time>
      </trkpt>
      <trkpt lat="40.1990390" lon="-3.8714220">
        <ele>684.6</ele>
        <time>2021-02-20T11:21:41Z</time>
      </trkpt>
      <trkpt lat="40.1991810" lon="-3.8712760">
        <ele>685.0</ele>
        <time>2021-02-20T11:21:45Z</time>
      </trkpt>
      <trkpt lat="40.1992850" lon="-3.8711590">
        <ele>685.6</ele>
        <time>2021-02-20T11:21:48Z</time>
      </trkpt>
      <trkpt lat="40.1994810" lon="-3.8708910">
        <ele>685.8</ele>
        <time>2021-02-20T11:21:54Z</time>
      </trkpt>
      <trkpt lat="40.1997070" lon="-3.8705740">
        <ele>686.0</ele>
        <time>2021-02-20T11:22:01Z</time>
      </trkpt>
      <trkpt lat="40.1997390" lon="-3.8705270">
        <ele>685.8</ele>
        <time>2021-02-20T11:22:02Z</time>
      </trkpt>
      <trkpt lat="40.1998140" lon="-3.8704390">
        <ele>685.8</ele>
        <time>2021-02-20T11:22:04Z</time>
      </trkpt>
      <trkpt lat="40.1999890" lon="-3.8702110">
        <ele>686.2</ele>
        <time>2021-02-20T11:22:09Z</time>
      </trkpt>
      <trkpt lat="40.2002710" lon="-3.8698710">
        <ele>686.0</ele>
        <time>2021-02-20T11:22:17Z</time>
      </trkpt>
      <trkpt lat="40.2004980" lon="-3.8696300">
        <ele>686.4</ele>
        <time>2021-02-20T11:22:23Z</time>
      </trkpt>
      <trkpt lat="40.2008570" lon="-3.8693330">
        <ele>686.8</ele>
        <time>2021-02-20T11:22:31Z</time>
      </trkpt>
      <trkpt lat="40.2010440" lon="-3.8691800">
        <ele>687.0</ele>
        <time>2021-02-20T11:22:35Z</time>
      </trkpt>
      <trkpt lat="40.2011600" lon="-3.8690350">
        <ele>687.2</ele>
        <time>2021-02-20T11:22:38Z</time>
      </trkpt>
      <trkpt lat="40.2014540" lon="-3.8686010">
        <ele>686.4</ele>
        <time>2021-02-20T11:22:46Z</time>
      </trkpt>
      <trkpt lat="40.2014970" lon="-3.8685570">
        <ele>686.4</ele>
        <time>2021-02-20T11:22:47Z</time>
      </trkpt>
      <trkpt lat="40.2016690" lon="-3.8683440">
        <ele>686.0</ele>
        <time>2021-02-20T11:22:51Z</time>
      </trkpt>
      <trkpt lat="40.2017920" lon="-3.8681530">
        <ele>685.6</ele>
        <time>2021-02-20T11:22:54Z</time>
      </trkpt>
      <trkpt lat="40.2019690" lon="-3.8678910">
        <ele>685.6</ele>
        <time>2021-02-20T11:22:58Z</time>
      </trkpt>
      <trkpt lat="40.2022190" lon="-3.8674930">
        <ele>684.8</ele>
        <time>2021-02-20T11:23:04Z</time>
      </trkpt>
      <trkpt lat="40.2023390" lon="-3.8673030">
        <ele>684.6</ele>
        <time>2021-02-20T11:23:07Z</time>
      </trkpt>
      <trkpt lat="40.2024540" lon="-3.8671270">
        <ele>684.2</ele>
        <time>2021-02-20T11:23:10Z</time>
      </trkpt>
      <trkpt lat="40.2025890" lon="-3.8668580">
        <ele>684.0</ele>
        <time>2021-02-20T11:23:14Z</time>
      </trkpt>
      <trkpt lat="40.2026240" lon="-3.8667910">
        <ele>684.0</ele>
        <time>2021-02-20T11:23:15Z</time>
      </trkpt>
      <trkpt lat="40.2026650" lon="-3.8667340">
        <ele>684.0</ele>
        <time>2021-02-20T11:23:16Z</time>
      </trkpt>
      <trkpt lat="40.2028390" lon="-3.8664960">
        <ele>683.8</ele>
        <time>2021-02-20T11:23:20Z</time>
      </trkpt>
      <trkpt lat="40.2031220" lon="-3.8661370">
        <ele>683.6</ele>
        <time>2021-02-20T11:23:26Z</time>
      </trkpt>
      <trkpt lat="40.2033230" lon="-3.8659090">
        <ele>683.2</ele>
        <time>2021-02-20T11:23:30Z</time>
      </trkpt>
      <trkpt lat="40.2037060" lon="-3.8654600">
        <ele>683.2</ele>
        <time>2021-02-20T11:23:38Z</time>
      </trkpt>
      <trkpt lat="40.2039370" lon="-3.8650930">
        <ele>683.4</ele>
        <time>2021-02-20T11:23:44Z</time>
      </trkpt>
      <trkpt lat="40.2042160" lon="-3.8647910">
        <ele>683.0</ele>
        <time>2021-02-20T11:23:50Z</time>
      </trkpt>
      <trkpt lat="40.2042700" lon="-3.8647610">
        <ele>683.0</ele>
        <time>2021-02-20T11:23:51Z</time>
      </trkpt>
      <trkpt lat="40.2044850" lon="-3.8646050">
        <ele>683.0</ele>
        <time>2021-02-20T11:23:55Z</time>
      </trkpt>
      <trkpt lat="40.2046000" lon="-3.8645440">
        <ele>683.0</ele>
        <time>2021-02-20T11:23:57Z</time>
      </trkpt>
      <trkpt lat="40.2047620" lon="-3.8644140">
        <ele>683.0</ele>
        <time>2021-02-20T11:24:00Z</time>
      </trkpt>
      <trkpt lat="40.2048580" lon="-3.8643120">
        <ele>683.0</ele>
        <time>2021-02-20T11:24:02Z</time>
      </trkpt>
      <trkpt lat="40.2050160" lon="-3.8641860">
        <ele>682.8</ele>
        <time>2021-02-20T11:24:05Z</time>
      </trkpt>
      <trkpt lat="40.2054860" lon="-3.8638080">
        <ele>683.2</ele>
        <time>2021-02-20T11:24:14Z</time>
      </trkpt>
      <trkpt lat="40.2059000" lon="-3.8634610">
        <ele>683.0</ele>
        <time>2021-02-20T11:24:22Z</time>
      </trkpt>
      <trkpt lat="40.2063280" lon="-3.8630540">
        <ele>683.6</ele>
        <time>2021-02-20T11:24:31Z</time>
      </trkpt>
      <trkpt lat="40.2067780" lon="-3.8625780">
        <ele>684.4</ele>
        <time>2021-02-20T11:24:41Z</time>
      </trkpt>
      <trkpt lat="40.2068160" lon="-3.8625270">
        <ele>684.6</ele>
        <time>2021-02-20T11:24:42Z</time>
      </trkpt>
      <trkpt lat="40.2068240" lon="-3.8624330">
        <ele>685.6</ele>
        <time>2021-02-20T11:24:44Z</time>
      </trkpt>
      <trkpt lat="40.2068220" lon="-3.8624000">
        <ele>686.4</ele>
        <time>2021-02-20T11:24:45Z</time>
      </trkpt>
      <trkpt lat="40.2068860" lon="-3.8622960">
        <ele>686.2</ele>
        <time>2021-02-20T11:24:48Z</time>
      </trkpt>
      <trkpt lat="40.2069280" lon="-3.8622660">
        <ele>686.2</ele>
        <time>2021-02-20T11:24:49Z</time>
      </trkpt>
      <trkpt lat="40.2070480" lon="-3.8621430">
        <ele>686.2</ele>
        <time>2021-02-20T11:24:52Z</time>
      </trkpt>
      <trkpt lat="40.2072040" lon="-3.8619250">
        <ele>685.2</ele>
        <time>2021-02-20T11:24:56Z</time>
      </trkpt>
      <trkpt lat="40.2073350" lon="-3.8617530">
        <ele>684.6</ele>
        <time>2021-02-20T11:24:59Z</time>
      </trkpt>
      <trkpt lat="40.2074810" lon="-3.8615780">
        <ele>684.0</ele>
        <time>2021-02-20T11:25:02Z</time>
      </trkpt>
      <trkpt lat="40.2077210" lon="-3.8612720">
        <ele>683.4</ele>
        <time>2021-02-20T11:25:07Z</time>
      </trkpt>
      <trkpt lat="40.2078760" lon="-3.8611060">
        <ele>683.2</ele>
        <time>2021-02-20T11:25:10Z</time>
      </trkpt>
      <trkpt lat="40.2079360" lon="-3.8610630">
        <ele>683.0</ele>
        <time>2021-02-20T11:25:11Z</time>
      </trkpt>
      <trkpt lat="40.2079940" lon="-3.8610170">
        <ele>682.8</ele>
        <time>2021-02-20T11:25:12Z</time>
      </trkpt>
      <trkpt lat="40.2082210" lon="-3.8608350">
        <ele>682.4</ele>
        <time>2021-02-20T11:25:16Z</time>
      </trkpt>
      <trkpt lat="40.2084720" lon="-3.8607100">
        <ele>682.2</ele>
        <time>2021-02-20T11:25:20Z</time>
      </trkpt>
      <trkpt lat="40.2088850" lon="-3.8605600">
        <ele>681.8</ele>
        <time>2021-02-20T11:25:26Z</time>
      </trkpt>
      <trkpt lat="40.2090260" lon="-3.8605200">
        <ele>681.6</ele>
        <time>2021-02-20T11:25:28Z</time>
      </trkpt>
      <trkpt lat="40.2096070" lon="-3.8604380">
        <ele>681.0</ele>
        <time>2021-02-20T11:25:36Z</time>
      </trkpt>
      <trkpt lat="40.2099730" lon="-3.8604270">
        <ele>680.6</ele>
        <time>2021-02-20T11:25:41Z</time>
      </trkpt>
      <trkpt lat="40.2102580" lon="-3.8604250">
        <ele>680.4</ele>
        <time>2021-02-20T11:25:45Z</time>
      </trkpt>
      <trkpt lat="40.2106090" lon="-3.8603550">
        <ele>681.0</ele>
        <time>2021-02-20T11:25:50Z</time>
      </trkpt>
      <trkpt lat="40.2110950" lon="-3.8602350">
        <ele>681.0</ele>
        <time>2021-02-20T11:25:57Z</time>
      </trkpt>
      <trkpt lat="40.2111610" lon="-3.8602060">
        <ele>681.0</ele>
        <time>2021-02-20T11:25:58Z</time>
      </trkpt>
      <trkpt lat="40.2114160" lon="-3.8600530">
        <ele>681.8</ele>
        <time>2021-02-20T11:26:02Z</time>
      </trkpt>
      <trkpt lat="40.2119190" lon="-3.8596890">
        <ele>682.2</ele>
        <time>2021-02-20T11:26:10Z</time>
      </trkpt>
      <trkpt lat="40.2124430" lon="-3.8593690">
        <ele>682.2</ele>
        <time>2021-02-20T11:26:18Z</time>
      </trkpt>
      <trkpt lat="40.2125790" lon="-3.8593270">
        <ele>682.4</ele>
        <time>2021-02-20T11:26:20Z</time>
      </trkpt>
      <trkpt lat="40.2127150" lon="-3.8593370">
        <ele>682.8</ele>
        <time>2021-02-20T11:26:22Z</time>
      </trkpt>
      <trkpt lat="40.2127850" lon="-3.8593390">
        <ele>682.8</ele>
        <time>2021-02-20T11:26:23Z</time>
      </trkpt>
      <trkpt lat="40.2129180" lon="-3.8593020">
        <ele>683.0</ele>
        <time>2021-02-20T11:26:25Z</time>
      </trkpt>
      <trkpt lat="40.2132190" lon="-3.8591600">
        <ele>683.8</ele>
        <time>2021-02-20T11:26:30Z</time>
      </trkpt>
      <trkpt lat="40.2133930" lon="-3.8590940">
        <ele>684.0</ele>
        <time>2021-02-20T11:26:33Z</time>
      </trkpt>
      <trkpt lat="40.2138760" lon="-3.8588670">
        <ele>684.0</ele>
        <time>2021-02-20T11:26:41Z</time>
      </trkpt>
      <trkpt lat="40.2139280" lon="-3.8588110">
        <ele>683.8</ele>
        <time>2021-02-20T11:26:42Z</time>
      </trkpt>
      <trkpt lat="40.2142110" lon="-3.8584540">
        <ele>683.2</ele>
        <time>2021-02-20T11:26:48Z</time>
      </trkpt>
      <trkpt lat="40.2142610" lon="-3.8584060">
        <ele>683.0</ele>
        <time>2021-02-20T11:26:49Z</time>
      </trkpt>
      <trkpt lat="40.2143820" lon="-3.8583810">
        <ele>683.0</ele>
        <time>2021-02-20T11:26:51Z</time>
      </trkpt>
      <trkpt lat="40.2145660" lon="-3.8583290">
        <ele>683.0</ele>
        <time>2021-02-20T11:26:54Z</time>
      </trkpt>
      <trkpt lat="40.2146290" lon="-3.8582900">
        <ele>683.0</ele>
        <time>2021-02-20T11:26:55Z</time>
      </trkpt>
      <trkpt lat="40.2146910" lon="-3.8582500">
        <ele>682.8</ele>
        <time>2021-02-20T11:26:56Z</time>
      </trkpt>
      <trkpt lat="40.2148840" lon="-3.8581350">
        <ele>682.6</ele>
        <time>2021-02-20T11:26:59Z</time>
      </trkpt>
      <trkpt lat="40.2152860" lon="-3.8579270">
        <ele>681.8</ele>
        <time>2021-02-20T11:27:05Z</time>
      </trkpt>
      <trkpt lat="40.2153530" lon="-3.8578960">
        <ele>681.6</ele>
        <time>2021-02-20T11:27:06Z</time>
      </trkpt>
      <trkpt lat="40.2158730" lon="-3.8576280">
        <ele>681.6</ele>
        <time>2021-02-20T11:27:14Z</time>
      </trkpt>
      <trkpt lat="40.2164290" lon="-3.8573230">
        <ele>682.2</ele>
        <time>2021-02-20T11:27:23Z</time>
      </trkpt>
      <trkpt lat="40.2164910" lon="-3.8572860">
        <ele>682.0</ele>
        <time>2021-02-20T11:27:24Z</time>
      </trkpt>
      <trkpt lat="40.2169730" lon="-3.8569860">
        <ele>682.4</ele>
        <time>2021-02-20T11:27:32Z</time>
      </trkpt>
      <trkpt lat="40.2170950" lon="-3.8569120">
        <ele>682.8</ele>
        <time>2021-02-20T11:27:34Z</time>
      </trkpt>
      <trkpt lat="40.2174600" lon="-3.8566800">
        <ele>683.2</ele>
        <time>2021-02-20T11:27:40Z</time>
      </trkpt>
      <trkpt lat="40.2178880" lon="-3.8564110">
        <ele>683.8</ele>
        <time>2021-02-20T11:27:47Z</time>
      </trkpt>
      <trkpt lat="40.2180710" lon="-3.8562980">
        <ele>683.8</ele>
        <time>2021-02-20T11:27:50Z</time>
      </trkpt>
      <trkpt lat="40.2185530" lon="-3.8560010">
        <ele>684.4</ele>
        <time>2021-02-20T11:27:58Z</time>
      </trkpt>
      <trkpt lat="40.2187900" lon="-3.8558700">
        <ele>685.0</ele>
        <time>2021-02-20T11:28:02Z</time>
      </trkpt>
      <trkpt lat="40.2189980" lon="-3.8557350">
        <ele>686.0</ele>
        <time>2021-02-20T11:28:06Z</time>
      </trkpt>
      <trkpt lat="40.2190480" lon="-3.8556940">
        <ele>686.2</ele>
        <time>2021-02-20T11:28:07Z</time>
      </trkpt>
      <trkpt lat="40.2193640" lon="-3.8554360">
        <ele>685.8</ele>
        <time>2021-02-20T11:28:13Z</time>
      </trkpt>
      <trkpt lat="40.2197410" lon="-3.8550670">
        <ele>685.4</ele>
        <time>2021-02-20T11:28:20Z</time>
      </trkpt>
      <trkpt lat="40.2197940" lon="-3.8550160">
        <ele>685.2</ele>
        <time>2021-02-20T11:28:21Z</time>
      </trkpt>
      <trkpt lat="40.2202100" lon="-3.8545730">
        <ele>685.0</ele>
        <time>2021-02-20T11:28:29Z</time>
      </trkpt>
      <trkpt lat="40.2206530" lon="-3.8541740">
        <ele>685.0</ele>
        <time>2021-02-20T11:28:37Z</time>
      </trkpt>
      <trkpt lat="40.2211050" lon="-3.8539330">
        <ele>684.2</ele>
        <time>2021-02-20T11:28:44Z</time>
      </trkpt>
      <trkpt lat="40.2213100" lon="-3.8538580">
        <ele>684.2</ele>
        <time>2021-02-20T11:28:47Z</time>
      </trkpt>
      <trkpt lat="40.2217170" lon="-3.8537330">
        <ele>683.8</ele>
        <time>2021-02-20T11:28:53Z</time>
      </trkpt>
      <trkpt lat="40.2220650" lon="-3.8536810">
        <ele>683.4</ele>
        <time>2021-02-20T11:28:58Z</time>
      </trkpt>
      <trkpt lat="40.2225410" lon="-3.8536130">
        <ele>683.4</ele>
        <time>2021-02-20T11:29:05Z</time>
      </trkpt>
      <trkpt lat="40.2229370" lon="-3.8535080">
        <ele>683.4</ele>
        <time>2021-02-20T11:29:11Z</time>
      </trkpt>
      <trkpt lat="40.2229980" lon="-3.8534740">
        <ele>683.4</ele>
        <time>2021-02-20T11:29:12Z</time>
      </trkpt>
      <trkpt lat="40.2231680" lon="-3.8533430">
        <ele>683.4</ele>
        <time>2021-02-20T11:29:15Z</time>
      </trkpt>
      <trkpt lat="40.2232260" lon="-3.8532990">
        <ele>683.2</ele>
        <time>2021-02-20T11:29:16Z</time>
      </trkpt>
      <trkpt lat="40.2236080" lon="-3.8529880">
        <ele>683.6</ele>
        <time>2021-02-20T11:29:23Z</time>
      </trkpt>
      <trkpt lat="40.2237720" lon="-3.8528760">
        <ele>683.6</ele>
        <time>2021-02-20T11:29:26Z</time>
      </trkpt>
      <trkpt lat="40.2238940" lon="-3.8528230">
        <ele>683.4</ele>
        <time>2021-02-20T11:29:28Z</time>
      </trkpt>
      <trkpt lat="40.2242600" lon="-3.8526620">
        <ele>683.4</ele>
        <time>2021-02-20T11:29:34Z</time>
      </trkpt>
      <trkpt lat="40.2245580" lon="-3.8525080">
        <ele>683.4</ele>
        <time>2021-02-20T11:29:39Z</time>
      </trkpt>
      <trkpt lat="40.2246160" lon="-3.8524790">
        <ele>683.4</ele>
        <time>2021-02-20T11:29:40Z</time>
      </trkpt>
      <trkpt lat="40.2249760" lon="-3.8523160">
        <ele>683.6</ele>
        <time>2021-02-20T11:29:46Z</time>
      </trkpt>
      <trkpt lat="40.2253390" lon="-3.8521810">
        <ele>683.6</ele>
        <time>2021-02-20T11:29:52Z</time>
      </trkpt>
      <trkpt lat="40.2256900" lon="-3.8520290">
        <ele>684.0</ele>
        <time>2021-02-20T11:29:58Z</time>
      </trkpt>
      <trkpt lat="40.2260150" lon="-3.8518380">
        <ele>684.4</ele>
        <time>2021-02-20T11:30:04Z</time>
      </trkpt>
      <trkpt lat="40.2263800" lon="-3.8516700">
        <ele>685.2</ele>
        <time>2021-02-20T11:30:11Z</time>
      </trkpt>
      <trkpt lat="40.2264870" lon="-3.8516240">
        <ele>685.6</ele>
        <time>2021-02-20T11:30:13Z</time>
      </trkpt>
      <trkpt lat="40.2268740" lon="-3.8514720">
        <ele>685.8</ele>
        <time>2021-02-20T11:30:20Z</time>
      </trkpt>
      <trkpt lat="40.2270970" lon="-3.8513630">
        <ele>686.2</ele>
        <time>2021-02-20T11:30:24Z</time>
      </trkpt>
      <trkpt lat="40.2273890" lon="-3.8512290">
        <ele>686.0</ele>
        <time>2021-02-20T11:30:29Z</time>
      </trkpt>
      <trkpt lat="40.2279020" lon="-3.8510010">
        <ele>686.4</ele>
        <time>2021-02-20T11:30:38Z</time>
      </trkpt>
      <trkpt lat="40.2283040" lon="-3.8508820">
        <ele>687.0</ele>
        <time>2021-02-20T11:30:45Z</time>
      </trkpt>
      <trkpt lat="40.2284160" lon="-3.8508460">
        <ele>687.2</ele>
        <time>2021-02-20T11:30:47Z</time>
      </trkpt>
      <trkpt lat="40.2286280" lon="-3.8507560">
        <ele>687.8</ele>
        <time>2021-02-20T11:30:51Z</time>
      </trkpt>
      <trkpt lat="40.2288360" lon="-3.8506480">
        <ele>688.4</ele>
        <time>2021-02-20T11:30:55Z</time>
      </trkpt>
      <trkpt lat="40.2289430" lon="-3.8506070">
        <ele>688.8</ele>
        <time>2021-02-20T11:30:57Z</time>
      </trkpt>
      <trkpt lat="40.2290530" lon="-3.8505630">
        <ele>688.6</ele>
        <time>2021-02-20T11:30:59Z</time>
      </trkpt>
      <trkpt lat="40.2291590" lon="-3.8505070">
        <ele>688.8</ele>
        <time>2021-02-20T11:31:01Z</time>
      </trkpt>
      <trkpt lat="40.2292130" lon="-3.8504850">
        <ele>689.0</ele>
        <time>2021-02-20T11:31:02Z</time>
      </trkpt>
      <trkpt lat="40.2295910" lon="-3.8503260">
        <ele>689.4</ele>
        <time>2021-02-20T11:31:09Z</time>
      </trkpt>
      <trkpt lat="40.2296450" lon="-3.8503040">
        <ele>689.4</ele>
        <time>2021-02-20T11:31:10Z</time>
      </trkpt>
      <trkpt lat="40.2296980" lon="-3.8502770">
        <ele>689.6</ele>
        <time>2021-02-20T11:31:11Z</time>
      </trkpt>
      <trkpt lat="40.2298560" lon="-3.8502080">
        <ele>689.6</ele>
        <time>2021-02-20T11:31:14Z</time>
      </trkpt>
      <trkpt lat="40.2303200" lon="-3.8499900">
        <ele>689.2</ele>
        <time>2021-02-20T11:31:22Z</time>
      </trkpt>
      <trkpt lat="40.2307350" lon="-3.8498220">
        <ele>689.0</ele>
        <time>2021-02-20T11:31:29Z</time>
      </trkpt>
      <trkpt lat="40.2309770" lon="-3.8498530">
        <ele>689.4</ele>
        <time>2021-02-20T11:31:33Z</time>
      </trkpt>
      <trkpt lat="40.2314640" lon="-3.8499650">
        <ele>689.4</ele>
        <time>2021-02-20T11:31:41Z</time>
      </trkpt>
      <trkpt lat="40.2319800" lon="-3.8501640">
        <ele>689.0</ele>
        <time>2021-02-20T11:31:49Z</time>
      </trkpt>
      <trkpt lat="40.2322810" lon="-3.8502810">
        <ele>688.8</ele>
        <time>2021-02-20T11:31:54Z</time>
      </trkpt>
      <trkpt lat="40.2323900" lon="-3.8503280">
        <ele>688.6</ele>
        <time>2021-02-20T11:31:56Z</time>
      </trkpt>
      <trkpt lat="40.2326370" lon="-3.8503930">
        <ele>688.6</ele>
        <time>2021-02-20T11:32:00Z</time>
      </trkpt>
      <trkpt lat="40.2330770" lon="-3.8505610">
        <ele>688.4</ele>
        <time>2021-02-20T11:32:07Z</time>
      </trkpt>
      <trkpt lat="40.2332830" lon="-3.8506090">
        <ele>688.4</ele>
        <time>2021-02-20T11:32:10Z</time>
      </trkpt>
      <trkpt lat="40.2334900" lon="-3.8506380">
        <ele>688.2</ele>
        <time>2021-02-20T11:32:13Z</time>
      </trkpt>
      <trkpt lat="40.2339740" lon="-3.8507130">
        <ele>688.0</ele>
        <time>2021-02-20T11:32:20Z</time>
      </trkpt>
      <trkpt lat="40.2345340" lon="-3.8508550">
        <ele>687.6</ele>
        <time>2021-02-20T11:32:28Z</time>
      </trkpt>
      <trkpt lat="40.2348770" lon="-3.8509960">
        <ele>687.8</ele>
        <time>2021-02-20T11:32:33Z</time>
      </trkpt>
      <trkpt lat="40.2350110" lon="-3.8510580">
        <ele>688.0</ele>
        <time>2021-02-20T11:32:35Z</time>
      </trkpt>
      <trkpt lat="40.2352120" lon="-3.8510980">
        <ele>688.0</ele>
        <time>2021-02-20T11:32:38Z</time>
      </trkpt>
      <trkpt lat="40.2352780" lon="-3.8511140">
        <ele>688.0</ele>
        <time>2021-02-20T11:32:39Z</time>
      </trkpt>
      <trkpt lat="40.2355410" lon="-3.8511900">
        <ele>688.2</ele>
        <time>2021-02-20T11:32:43Z</time>
      </trkpt>
      <trkpt lat="40.2360660" lon="-3.8513480">
        <ele>688.8</ele>
        <time>2021-02-20T11:32:51Z</time>
      </trkpt>
      <trkpt lat="40.2364520" lon="-3.8514650">
        <ele>689.4</ele>
        <time>2021-02-20T11:32:57Z</time>
      </trkpt>
      <trkpt lat="40.2368260" lon="-3.8515320">
        <ele>690.2</ele>
        <time>2021-02-20T11:33:03Z</time>
      </trkpt>
      <trkpt lat="40.2369450" lon="-3.8515530">
        <ele>690.4</ele>
        <time>2021-02-20T11:33:05Z</time>
      </trkpt>
      <trkpt lat="40.2372380" lon="-3.8516150">
        <ele>691.0</ele>
        <time>2021-02-20T11:33:10Z</time>
      </trkpt>
      <trkpt lat="40.2375230" lon="-3.8516720">
        <ele>691.4</ele>
        <time>2021-02-20T11:33:15Z</time>
      </trkpt>
      <trkpt lat="40.2375790" lon="-3.8516780">
        <ele>691.6</ele>
        <time>2021-02-20T11:33:16Z</time>
      </trkpt>
      <trkpt lat="40.2378030" lon="-3.8517050">
        <ele>692.0</ele>
        <time>2021-02-20T11:33:20Z</time>
      </trkpt>
      <trkpt lat="40.2381450" lon="-3.8517350">
        <ele>692.6</ele>
        <time>2021-02-20T11:33:26Z</time>
      </trkpt>
      <trkpt lat="40.2384300" lon="-3.8517560">
        <ele>693.2</ele>
        <time>2021-02-20T11:33:31Z</time>
      </trkpt>
      <trkpt lat="40.2386030" lon="-3.8517770">
        <ele>693.6</ele>
        <time>2021-02-20T11:33:34Z</time>
      </trkpt>
      <trkpt lat="40.2388960" lon="-3.8517790">
        <ele>694.2</ele>
        <time>2021-02-20T11:33:39Z</time>
      </trkpt>
      <trkpt lat="40.2394050" lon="-3.8518600">
        <ele>693.8</ele>
        <time>2021-02-20T11:33:47Z</time>
      </trkpt>
      <trkpt lat="40.2398020" lon="-3.8520260">
        <ele>693.2</ele>
        <time>2021-02-20T11:33:53Z</time>
      </trkpt>
      <trkpt lat="40.2403340" lon="-3.8522900">
        <ele>692.6</ele>
        <time>2021-02-20T11:34:01Z</time>
      </trkpt>
      <trkpt lat="40.2404670" lon="-3.8523600">
        <ele>692.4</ele>
        <time>2021-02-20T11:34:03Z</time>
      </trkpt>
      <trkpt lat="40.2405930" lon="-3.8524600">
        <ele>692.4</ele>
        <time>2021-02-20T11:34:05Z</time>
      </trkpt>
      <trkpt lat="40.2406520" lon="-3.8525160">
        <ele>692.4</ele>
        <time>2021-02-20T11:34:06Z</time>
      </trkpt>
      <trkpt lat="40.2410270" lon="-3.8527920">
        <ele>692.4</ele>
        <time>2021-02-20T11:34:12Z</time>
      </trkpt>
      <trkpt lat="40.2410920" lon="-3.8528250">
        <ele>692.4</ele>
        <time>2021-02-20T11:34:13Z</time>
      </trkpt>
      <trkpt lat="40.2413640" lon="-3.8529350">
        <ele>692.2</ele>
        <time>2021-02-20T11:34:17Z</time>
      </trkpt>
      <trkpt lat="40.2415080" lon="-3.8529560">
        <ele>692.0</ele>
        <time>2021-02-20T11:34:19Z</time>
      </trkpt>
      <trkpt lat="40.2416510" lon="-3.8529760">
        <ele>692.0</ele>
        <time>2021-02-20T11:34:21Z</time>
      </trkpt>
      <trkpt lat="40.2418610" lon="-3.8530200">
        <ele>692.0</ele>
        <time>2021-02-20T11:34:24Z</time>
      </trkpt>
      <trkpt lat="40.2420640" lon="-3.8530630">
        <ele>692.2</ele>
        <time>2021-02-20T11:34:27Z</time>
      </trkpt>
      <trkpt lat="40.2422020" lon="-3.8530760">
        <ele>692.2</ele>
        <time>2021-02-20T11:34:29Z</time>
      </trkpt>
      <trkpt lat="40.2427420" lon="-3.8531310">
        <ele>692.8</ele>
        <time>2021-02-20T11:34:37Z</time>
      </trkpt>
      <trkpt lat="40.2429270" lon="-3.8532040">
        <ele>692.8</ele>
        <time>2021-02-20T11:34:40Z</time>
      </trkpt>
      <trkpt lat="40.2430520" lon="-3.8532270">
        <ele>693.2</ele>
        <time>2021-02-20T11:34:42Z</time>
      </trkpt>
      <trkpt lat="40.2431750" lon="-3.8532110">
        <ele>693.4</ele>
        <time>2021-02-20T11:34:44Z</time>
      </trkpt>
      <trkpt lat="40.2432610" lon="-3.8531160">
        <ele>694.4</ele>
        <time>2021-02-20T11:34:46Z</time>
      </trkpt>
      <trkpt lat="40.2432790" lon="-3.8530510">
        <ele>694.8</ele>
        <time>2021-02-20T11:34:47Z</time>
      </trkpt>
      <trkpt lat="40.2432540" lon="-3.8529280">
        <ele>695.6</ele>
        <time>2021-02-20T11:34:49Z</time>
      </trkpt>
      <trkpt lat="40.2432260" lon="-3.8528820">
        <ele>696.0</ele>
        <time>2021-02-20T11:34:50Z</time>
      </trkpt>
      <trkpt lat="40.2431530" lon="-3.8528160">
        <ele>696.8</ele>
        <time>2021-02-20T11:34:52Z</time>
      </trkpt>
      <trkpt lat="40.2431230" lon="-3.8527750">
        <ele>697.2</ele>
        <time>2021-02-20T11:34:53Z</time>
      </trkpt>
      <trkpt lat="40.2430700" lon="-3.8526410">
        <ele>698.4</ele>
        <time>2021-02-20T11:34:56Z</time>
      </trkpt>
      <trkpt lat="40.2430750" lon="-3.8524930">
        <ele>699.6</ele>
        <time>2021-02-20T11:34:59Z</time>
      </trkpt>
      <trkpt lat="40.2430880" lon="-3.8524450">
        <ele>700.0</ele>
        <time>2021-02-20T11:35:00Z</time>
      </trkpt>
      <trkpt lat="40.2431030" lon="-3.8523990">
        <ele>700.2</ele>
        <time>2021-02-20T11:35:01Z</time>
      </trkpt>
      <trkpt lat="40.2431740" lon="-3.8522850">
        <ele>701.0</ele>
        <time>2021-02-20T11:35:04Z</time>
      </trkpt>
      <trkpt lat="40.2432090" lon="-3.8522590">
        <ele>701.2</ele>
        <time>2021-02-20T11:35:05Z</time>
      </trkpt>
      <trkpt lat="40.2433980" lon="-3.8521710">
        <ele>702.4</ele>
        <time>2021-02-20T11:35:10Z</time>
      </trkpt>
      <trkpt lat="40.2434760" lon="-3.8521420">
        <ele>702.6</ele>
        <time>2021-02-20T11:35:12Z</time>
      </trkpt>
      <trkpt lat="40.2437870" lon="-3.8520730">
        <ele>702.8</ele>
        <time>2021-02-20T11:35:19Z</time>
      </trkpt>
      <trkpt lat="40.2438420" lon="-3.8520840">
        <ele>702.6</ele>
        <time>2021-02-20T11:35:20Z</time>
      </trkpt>
      <trkpt lat="40.2439810" lon="-3.8522370">
        <ele>701.6</ele>
        <time>2021-02-20T11:35:23Z</time>
      </trkpt>
      <trkpt lat="40.2440000" lon="-3.8523160">
        <ele>701.4</ele>
        <time>2021-02-20T11:35:24Z</time>
      </trkpt>
      <trkpt lat="40.2440090" lon="-3.8524940">
        <ele>700.8</ele>
        <time>2021-02-20T11:35:26Z</time>
      </trkpt>
      <trkpt lat="40.2440120" lon="-3.8525880">
        <ele>700.4</ele>
        <time>2021-02-20T11:35:27Z</time>
      </trkpt>
      <trkpt lat="40.2440540" lon="-3.8527750">
        <ele>699.6</ele>
        <time>2021-02-20T11:35:29Z</time>
      </trkpt>
      <trkpt lat="40.2440970" lon="-3.8528590">
        <ele>699.2</ele>
        <time>2021-02-20T11:35:30Z</time>
      </trkpt>
      <trkpt lat="40.2442150" lon="-3.8530010">
        <ele>698.4</ele>
        <time>2021-02-20T11:35:32Z</time>
      </trkpt>
      <trkpt lat="40.2442810" lon="-3.8530610">
        <ele>698.0</ele>
        <time>2021-02-20T11:35:33Z</time>
      </trkpt>
      <trkpt lat="40.2443450" lon="-3.8531150">
        <ele>697.4</ele>
        <time>2021-02-20T11:35:34Z</time>
      </trkpt>
      <trkpt lat="40.2444070" lon="-3.8531670">
        <ele>696.8</ele>
        <time>2021-02-20T11:35:35Z</time>
      </trkpt>
      <trkpt lat="40.2444730" lon="-3.8532070">
        <ele>696.6</ele>
        <time>2021-02-20T11:35:36Z</time>
      </trkpt>
      <trkpt lat="40.2446150" lon="-3.8532710">
        <ele>695.8</ele>
        <time>2021-02-20T11:35:38Z</time>
      </trkpt>
      <trkpt lat="40.2448970" lon="-3.8534170">
        <ele>695.0</ele>
        <time>2021-02-20T11:35:42Z</time>
      </trkpt>
      <trkpt lat="40.2449680" lon="-3.8534610">
        <ele>694.8</ele>
        <time>2021-02-20T11:35:43Z</time>
      </trkpt>
      <trkpt lat="40.2451160" lon="-3.8535290">
        <ele>694.2</ele>
        <time>2021-02-20T11:35:45Z</time>
      </trkpt>
      <trkpt lat="40.2452710" lon="-3.8535540">
        <ele>693.8</ele>
        <time>2021-02-20T11:35:47Z</time>
      </trkpt>
      <trkpt lat="40.2454220" lon="-3.8535560">
        <ele>693.8</ele>
        <time>2021-02-20T11:35:49Z</time>
      </trkpt>
      <trkpt lat="40.2456980" lon="-3.8535290">
        <ele>693.4</ele>
        <time>2021-02-20T11:35:53Z</time>
      </trkpt>
      <trkpt lat="40.2458870" lon="-3.8535230">
        <ele>693.4</ele>
        <time>2021-02-20T11:35:56Z</time>
      </trkpt>
      <trkpt lat="40.2460110" lon="-3.8535420">
        <ele>693.8</ele>
        <time>2021-02-20T11:35:58Z</time>
      </trkpt>
      <trkpt lat="40.2463620" lon="-3.8536160">
        <ele>694.6</ele>
        <time>2021-02-20T11:36:04Z</time>
      </trkpt>
      <trkpt lat="40.2464740" lon="-3.8536380">
        <ele>694.6</ele>
        <time>2021-02-20T11:36:06Z</time>
      </trkpt>
      <trkpt lat="40.2465320" lon="-3.8536500">
        <ele>694.8</ele>
        <time>2021-02-20T11:36:07Z</time>
      </trkpt>
      <trkpt lat="40.2468110" lon="-3.8537340">
        <ele>695.2</ele>
        <time>2021-02-20T11:36:12Z</time>
      </trkpt>
      <trkpt lat="40.2468590" lon="-3.8537610">
        <ele>695.4</ele>
        <time>2021-02-20T11:36:13Z</time>
      </trkpt>
      <trkpt lat="40.2468990" lon="-3.8537940">
        <ele>695.8</ele>
        <time>2021-02-20T11:36:14Z</time>
      </trkpt>
      <trkpt lat="40.2469480" lon="-3.8538820">
        <ele>696.6</ele>
        <time>2021-02-20T11:36:16Z</time>
      </trkpt>
      <trkpt lat="40.2469590" lon="-3.8539330">
        <ele>696.8</ele>
        <time>2021-02-20T11:36:17Z</time>
      </trkpt>
      <trkpt lat="40.2469710" lon="-3.8540330">
        <ele>697.6</ele>
        <time>2021-02-20T11:36:19Z</time>
      </trkpt>
      <trkpt lat="40.2469770" lon="-3.8540820">
        <ele>698.0</ele>
        <time>2021-02-20T11:36:20Z</time>
      </trkpt>
      <trkpt lat="40.2469820" lon="-3.8541320">
        <ele>698.4</ele>
        <time>2021-02-20T11:36:21Z</time>
      </trkpt>
      <trkpt lat="40.2469870" lon="-3.8541830">
        <ele>699.2</ele>
        <time>2021-02-20T11:36:22Z</time>
      </trkpt>
      <trkpt lat="40.2470030" lon="-3.8543460">
        <ele>699.8</ele>
        <time>2021-02-20T11:36:25Z</time>
      </trkpt>
      <trkpt lat="40.2470140" lon="-3.8545120">
        <ele>700.2</ele>
        <time>2021-02-20T11:36:28Z</time>
      </trkpt>
      <trkpt lat="40.2470190" lon="-3.8545680">
        <ele>700.2</ele>
        <time>2021-02-20T11:36:29Z</time>
      </trkpt>
      <trkpt lat="40.2470420" lon="-3.8548050">
        <ele>700.6</ele>
        <time>2021-02-20T11:36:33Z</time>
      </trkpt>
      <trkpt lat="40.2470620" lon="-3.8550750">
        <ele>700.6</ele>
        <time>2021-02-20T11:36:37Z</time>
      </trkpt>
      <trkpt lat="40.2470590" lon="-3.8551420">
        <ele>700.4</ele>
        <time>2021-02-20T11:36:38Z</time>
      </trkpt>
      <trkpt lat="40.2469760" lon="-3.8552730">
        <ele>700.2</ele>
        <time>2021-02-20T11:36:41Z</time>
      </trkpt>
      <trkpt lat="40.2468800" lon="-3.8552420">
        <ele>699.8</ele>
        <time>2021-02-20T11:36:43Z</time>
      </trkpt>
      <trkpt lat="40.2468300" lon="-3.8552240">
        <ele>699.6</ele>
        <time>2021-02-20T11:36:44Z</time>
      </trkpt>
      <trkpt lat="40.2466050" lon="-3.8551990">
        <ele>699.4</ele>
        <time>2021-02-20T11:36:48Z</time>
      </trkpt>
      <trkpt lat="40.2465460" lon="-3.8552110">
        <ele>699.4</ele>
        <time>2021-02-20T11:36:49Z</time>
      </trkpt>
      <trkpt lat="40.2463740" lon="-3.8553150">
        <ele>699.2</ele>
        <time>2021-02-20T11:36:52Z</time>
      </trkpt>
      <trkpt lat="40.2463240" lon="-3.8553710">
        <ele>699.2</ele>
        <time>2021-02-20T11:36:53Z</time>
      </trkpt>
      <trkpt lat="40.2461720" lon="-3.8556570">
        <ele>698.6</ele>
        <time>2021-02-20T11:36:57Z</time>
      </trkpt>
      <trkpt lat="40.2461400" lon="-3.8557400">
        <ele>698.2</ele>
        <time>2021-02-20T11:36:58Z</time>
      </trkpt>
      <trkpt lat="40.2460430" lon="-3.8560170">
        <ele>696.8</ele>
        <time>2021-02-20T11:37:01Z</time>
      </trkpt>
      <trkpt lat="40.2460090" lon="-3.8561160">
        <ele>696.4</ele>
        <time>2021-02-20T11:37:02Z</time>
      </trkpt>
      <trkpt lat="40.2459460" lon="-3.8563200">
        <ele>695.6</ele>
        <time>2021-02-20T11:37:04Z</time>
      </trkpt>
      <trkpt lat="40.2458690" lon="-3.8566010">
        <ele>695.2</ele>
        <time>2021-02-20T11:37:07Z</time>
      </trkpt>
      <trkpt lat="40.2458540" lon="-3.8566880">
        <ele>695.6</ele>
        <time>2021-02-20T11:37:08Z</time>
      </trkpt>
      <trkpt lat="40.2458520" lon="-3.8568510">
        <ele>696.8</ele>
        <time>2021-02-20T11:37:10Z</time>
      </trkpt>
      <trkpt lat="40.2458680" lon="-3.8570040">
        <ele>697.2</ele>
        <time>2021-02-20T11:37:12Z</time>
      </trkpt>
      <trkpt lat="40.2459190" lon="-3.8572110">
        <ele>698.0</ele>
        <time>2021-02-20T11:37:15Z</time>
      </trkpt>
      <trkpt lat="40.2459700" lon="-3.8573340">
        <ele>698.4</ele>
        <time>2021-02-20T11:37:17Z</time>
      </trkpt>
      <trkpt lat="40.2460000" lon="-3.8573890">
        <ele>698.6</ele>
        <time>2021-02-20T11:37:18Z</time>
      </trkpt>
      <trkpt lat="40.2461070" lon="-3.8575340">
        <ele>699.2</ele>
        <time>2021-02-20T11:37:21Z</time>
      </trkpt>
      <trkpt lat="40.2461450" lon="-3.8575810">
        <ele>699.4</ele>
        <time>2021-02-20T11:37:22Z</time>
      </trkpt>
      <trkpt lat="40.2464210" lon="-3.8579190">
        <ele>700.2</ele>
        <time>2021-02-20T11:37:29Z</time>
      </trkpt>
      <trkpt lat="40.2464660" lon="-3.8579670">
        <ele>700.4</ele>
        <time>2021-02-20T11:37:30Z</time>
      </trkpt>
      <trkpt lat="40.2466720" lon="-3.8581820">
        <ele>699.0</ele>
        <time>2021-02-20T11:37:34Z</time>
      </trkpt>
      <trkpt lat="40.2467280" lon="-3.8582520">
        <ele>698.6</ele>
        <time>2021-02-20T11:37:35Z</time>
      </trkpt>
      <trkpt lat="40.2467860" lon="-3.8583260">
        <ele>697.8</ele>
        <time>2021-02-20T11:37:36Z</time>
      </trkpt>
      <trkpt lat="40.2468520" lon="-3.8583930">
        <ele>697.4</ele>
        <time>2021-02-20T11:37:37Z</time>
      </trkpt>
      <trkpt lat="40.2469680" lon="-3.8585160">
        <ele>697.6</ele>
        <time>2021-02-20T11:37:39Z</time>
      </trkpt>
      <trkpt lat="40.2471670" lon="-3.8587260">
        <ele>698.8</ele>
        <time>2021-02-20T11:37:43Z</time>
      </trkpt>
      <trkpt lat="40.2472580" lon="-3.8588060">
        <ele>699.6</ele>
        <time>2021-02-20T11:37:45Z</time>
      </trkpt>
      <trkpt lat="40.2473930" lon="-3.8589170">
        <ele>700.0</ele>
        <time>2021-02-20T11:37:48Z</time>
      </trkpt>
      <trkpt lat="40.2475680" lon="-3.8590510">
        <ele>701.2</ele>
        <time>2021-02-20T11:37:52Z</time>
      </trkpt>
      <trkpt lat="40.2476110" lon="-3.8590830">
        <ele>701.4</ele>
        <time>2021-02-20T11:37:53Z</time>
      </trkpt>
      <trkpt lat="40.2477400" lon="-3.8591810">
        <ele>702.4</ele>
        <time>2021-02-20T11:37:56Z</time>
      </trkpt>
      <trkpt lat="40.2478730" lon="-3.8592810">
        <ele>703.4</ele>
        <time>2021-02-20T11:37:59Z</time>
      </trkpt>
      <trkpt lat="40.2480640" lon="-3.8594220">
        <ele>703.8</ele>
        <time>2021-02-20T11:38:03Z</time>
      </trkpt>
      <trkpt lat="40.2483340" lon="-3.8596870">
        <ele>704.2</ele>
        <time>2021-02-20T11:38:09Z</time>
      </trkpt>
      <trkpt lat="40.2485090" lon="-3.8599000">
        <ele>704.6</ele>
        <time>2021-02-20T11:38:13Z</time>
      </trkpt>
      <trkpt lat="40.2485550" lon="-3.8599510">
        <ele>704.4</ele>
        <time>2021-02-20T11:38:14Z</time>
      </trkpt>
      <trkpt lat="40.2486530" lon="-3.8600490">
        <ele>704.4</ele>
        <time>2021-02-20T11:38:16Z</time>
      </trkpt>
      <trkpt lat="40.2489860" lon="-3.8604190">
        <ele>704.4</ele>
        <time>2021-02-20T11:38:23Z</time>
      </trkpt>
      <trkpt lat="40.2493960" lon="-3.8608440">
        <ele>703.8</ele>
        <time>2021-02-20T11:38:31Z</time>
      </trkpt>
      <trkpt lat="40.2494550" lon="-3.8609110">
        <ele>703.2</ele>
        <time>2021-02-20T11:38:32Z</time>
      </trkpt>
      <trkpt lat="40.2495730" lon="-3.8610650">
        <ele>702.2</ele>
        <time>2021-02-20T11:38:34Z</time>
      </trkpt>
      <trkpt lat="40.2496880" lon="-3.8612270">
        <ele>701.4</ele>
        <time>2021-02-20T11:38:36Z</time>
      </trkpt>
      <trkpt lat="40.2497440" lon="-3.8613130">
        <ele>701.0</ele>
        <time>2021-02-20T11:38:37Z</time>
      </trkpt>
      <trkpt lat="40.2499130" lon="-3.8615900">
        <ele>700.0</ele>
        <time>2021-02-20T11:38:40Z</time>
      </trkpt>
      <trkpt lat="40.2500310" lon="-3.8617930">
        <ele>698.8</ele>
        <time>2021-02-20T11:38:42Z</time>
      </trkpt>
      <trkpt lat="40.2501660" lon="-3.8620070">
        <ele>697.4</ele>
        <time>2021-02-20T11:38:44Z</time>
      </trkpt>
      <trkpt lat="40.2503160" lon="-3.8622080">
        <ele>694.2</ele>
        <time>2021-02-20T11:38:46Z</time>
      </trkpt>
      <trkpt lat="40.2503890" lon="-3.8622920">
        <ele>693.0</ele>
        <time>2021-02-20T11:38:47Z</time>
      </trkpt>
      <trkpt lat="40.2504540" lon="-3.8623650">
        <ele>692.0</ele>
        <time>2021-02-20T11:38:48Z</time>
      </trkpt>
      <trkpt lat="40.2505070" lon="-3.8624240">
        <ele>691.0</ele>
        <time>2021-02-20T11:38:49Z</time>
      </trkpt>
      <trkpt lat="40.2505520" lon="-3.8624720">
        <ele>690.4</ele>
        <time>2021-02-20T11:38:50Z</time>
      </trkpt>
      <trkpt lat="40.2505990" lon="-3.8625030">
        <ele>690.2</ele>
        <time>2021-02-20T11:38:51Z</time>
      </trkpt>
      <trkpt lat="40.2506480" lon="-3.8625140">
        <ele>690.0</ele>
        <time>2021-02-20T11:38:52Z</time>
      </trkpt>
      <trkpt lat="40.2507650" lon="-3.8624990">
        <ele>690.8</ele>
        <time>2021-02-20T11:38:55Z</time>
      </trkpt>
      <trkpt lat="40.2508620" lon="-3.8625080">
        <ele>691.8</ele>
        <time>2021-02-20T11:38:58Z</time>
      </trkpt>
      <trkpt lat="40.2509260" lon="-3.8625270">
        <ele>692.2</ele>
        <time>2021-02-20T11:39:00Z</time>
      </trkpt>
      <trkpt lat="40.2510260" lon="-3.8625430">
        <ele>693.2</ele>
        <time>2021-02-20T11:39:03Z</time>
      </trkpt>
      <trkpt lat="40.2511370" lon="-3.8625260">
        <ele>694.0</ele>
        <time>2021-02-20T11:39:06Z</time>
      </trkpt>
      <trkpt lat="40.2511770" lon="-3.8625190">
        <ele>694.4</ele>
        <time>2021-02-20T11:39:07Z</time>
      </trkpt>
      <trkpt lat="40.2512880" lon="-3.8624740">
        <ele>695.4</ele>
        <time>2021-02-20T11:39:10Z</time>
      </trkpt>
      <trkpt lat="40.2513220" lon="-3.8624560">
        <ele>695.8</ele>
        <time>2021-02-20T11:39:11Z</time>
      </trkpt>
      <trkpt lat="40.2514210" lon="-3.8623920">
        <ele>696.6</ele>
        <time>2021-02-20T11:39:14Z</time>
      </trkpt>
      <trkpt lat="40.2515150" lon="-3.8623210">
        <ele>697.2</ele>
        <time>2021-02-20T11:39:17Z</time>
      </trkpt>
      <trkpt lat="40.2516120" lon="-3.8622440">
        <ele>697.6</ele>
        <time>2021-02-20T11:39:20Z</time>
      </trkpt>
      <trkpt lat="40.2516490" lon="-3.8622190">
        <ele>697.6</ele>
        <time>2021-02-20T11:39:21Z</time>
      </trkpt>
      <trkpt lat="40.2518680" lon="-3.8620820">
        <ele>697.2</ele>
        <time>2021-02-20T11:39:26Z</time>
      </trkpt>
      <trkpt lat="40.2521310" lon="-3.8619970">
        <ele>696.6</ele>
        <time>2021-02-20T11:39:31Z</time>
      </trkpt>
      <trkpt lat="40.2522370" lon="-3.8619830">
        <ele>696.6</ele>
        <time>2021-02-20T11:39:33Z</time>
      </trkpt>
      <trkpt lat="40.2525270" lon="-3.8619550">
        <ele>697.6</ele>
        <time>2021-02-20T11:39:39Z</time>
      </trkpt>
      <trkpt lat="40.2525730" lon="-3.8619520">
        <ele>697.8</ele>
        <time>2021-02-20T11:39:40Z</time>
      </trkpt>
      <trkpt lat="40.2527490" lon="-3.8619550">
        <ele>698.8</ele>
        <time>2021-02-20T11:39:44Z</time>
      </trkpt>
      <trkpt lat="40.2527920" lon="-3.8619520">
        <ele>699.2</ele>
        <time>2021-02-20T11:39:45Z</time>
      </trkpt>
      <trkpt lat="40.2528760" lon="-3.8619330">
        <ele>699.8</ele>
        <time>2021-02-20T11:39:47Z</time>
      </trkpt>
      <trkpt lat="40.2529170" lon="-3.8619140">
        <ele>700.0</ele>
        <time>2021-02-20T11:39:48Z</time>
      </trkpt>
      <trkpt lat="40.2530870" lon="-3.8618550">
        <ele>701.2</ele>
        <time>2021-02-20T11:39:52Z</time>
      </trkpt>
      <trkpt lat="40.2533520" lon="-3.8617650">
        <ele>701.6</ele>
        <time>2021-02-20T11:39:58Z</time>
      </trkpt>
      <trkpt lat="40.2534530" lon="-3.8617220">
        <ele>701.4</ele>
        <time>2021-02-20T11:40:00Z</time>
      </trkpt>
      <trkpt lat="40.2536080" lon="-3.8616260">
        <ele>700.8</ele>
        <time>2021-02-20T11:40:03Z</time>
      </trkpt>
      <trkpt lat="40.2537780" lon="-3.8615220">
        <ele>700.0</ele>
        <time>2021-02-20T11:40:06Z</time>
      </trkpt>
      <trkpt lat="40.2540640" lon="-3.8613360">
        <ele>699.0</ele>
        <time>2021-02-20T11:40:11Z</time>
      </trkpt>
      <trkpt lat="40.2541220" lon="-3.8612950">
        <ele>698.8</ele>
        <time>2021-02-20T11:40:12Z</time>
      </trkpt>
      <trkpt lat="40.2544190" lon="-3.8610870">
        <ele>697.8</ele>
        <time>2021-02-20T11:40:17Z</time>
      </trkpt>
      <trkpt lat="40.2545420" lon="-3.8609990">
        <ele>697.2</ele>
        <time>2021-02-20T11:40:19Z</time>
      </trkpt>
      <trkpt lat="40.2546660" lon="-3.8609090">
        <ele>696.8</ele>
        <time>2021-02-20T11:40:21Z</time>
      </trkpt>
      <trkpt lat="40.2548520" lon="-3.8607690">
        <ele>695.8</ele>
        <time>2021-02-20T11:40:24Z</time>
      </trkpt>
      <trkpt lat="40.2550520" lon="-3.8606250">
        <ele>695.0</ele>
        <time>2021-02-20T11:40:27Z</time>
      </trkpt>
      <trkpt lat="40.2551840" lon="-3.8605220">
        <ele>694.6</ele>
        <time>2021-02-20T11:40:29Z</time>
      </trkpt>
      <trkpt lat="40.2553780" lon="-3.8603530">
        <ele>693.8</ele>
        <time>2021-02-20T11:40:32Z</time>
      </trkpt>
      <trkpt lat="40.2554420" lon="-3.8602910">
        <ele>693.4</ele>
        <time>2021-02-20T11:40:33Z</time>
      </trkpt>
      <trkpt lat="40.2556380" lon="-3.8601080">
        <ele>692.4</ele>
        <time>2021-02-20T11:40:36Z</time>
      </trkpt>
      <trkpt lat="40.2557020" lon="-3.8600430">
        <ele>692.0</ele>
        <time>2021-02-20T11:40:37Z</time>
      </trkpt>
      <trkpt lat="40.2559050" lon="-3.8598690">
        <ele>691.2</ele>
        <time>2021-02-20T11:40:40Z</time>
      </trkpt>
      <trkpt lat="40.2559700" lon="-3.8598050">
        <ele>691.0</ele>
        <time>2021-02-20T11:40:41Z</time>
      </trkpt>
      <trkpt lat="40.2560560" lon="-3.8596350">
        <ele>690.2</ele>
        <time>2021-02-20T11:40:43Z</time>
      </trkpt>
      <trkpt lat="40.2560680" lon="-3.8595350">
        <ele>689.8</ele>
        <time>2021-02-20T11:40:44Z</time>
      </trkpt>
      <trkpt lat="40.2561200" lon="-3.8593490">
        <ele>689.2</ele>
        <time>2021-02-20T11:40:46Z</time>
      </trkpt>
      <trkpt lat="40.2561680" lon="-3.8592750">
        <ele>688.8</ele>
        <time>2021-02-20T11:40:47Z</time>
      </trkpt>
      <trkpt lat="40.2562820" lon="-3.8591800">
        <ele>688.4</ele>
        <time>2021-02-20T11:40:49Z</time>
      </trkpt>
      <trkpt lat="40.2563450" lon="-3.8591410">
        <ele>688.2</ele>
        <time>2021-02-20T11:40:50Z</time>
      </trkpt>
      <trkpt lat="40.2566580" lon="-3.8589420">
        <ele>687.6</ele>
        <time>2021-02-20T11:40:55Z</time>
      </trkpt>
      <trkpt lat="40.2567230" lon="-3.8588980">
        <ele>687.2</ele>
        <time>2021-02-20T11:40:56Z</time>
      </trkpt>
      <trkpt lat="40.2569800" lon="-3.8587460">
        <ele>686.6</ele>
        <time>2021-02-20T11:41:00Z</time>
      </trkpt>
      <trkpt lat="40.2570470" lon="-3.8587250">
        <ele>686.4</ele>
        <time>2021-02-20T11:41:01Z</time>
      </trkpt>
      <trkpt lat="40.2572420" lon="-3.8586720">
        <ele>686.2</ele>
        <time>2021-02-20T11:41:04Z</time>
      </trkpt>
      <trkpt lat="40.2573730" lon="-3.8586830">
        <ele>686.0</ele>
        <time>2021-02-20T11:41:06Z</time>
      </trkpt>
      <trkpt lat="40.2575700" lon="-3.8587320">
        <ele>685.8</ele>
        <time>2021-02-20T11:41:09Z</time>
      </trkpt>
      <trkpt lat="40.2576950" lon="-3.8587980">
        <ele>685.8</ele>
        <time>2021-02-20T11:41:11Z</time>
      </trkpt>
      <trkpt lat="40.2577540" lon="-3.8588430">
        <ele>685.8</ele>
        <time>2021-02-20T11:41:12Z</time>
      </trkpt>
      <trkpt lat="40.2579300" lon="-3.8589860">
        <ele>685.8</ele>
        <time>2021-02-20T11:41:15Z</time>
      </trkpt>
      <trkpt lat="40.2579900" lon="-3.8590200">
        <ele>685.8</ele>
        <time>2021-02-20T11:41:16Z</time>
      </trkpt>
      <trkpt lat="40.2581160" lon="-3.8590570">
        <ele>685.8</ele>
        <time>2021-02-20T11:41:18Z</time>
      </trkpt>
      <trkpt lat="40.2581780" lon="-3.8590750">
        <ele>686.0</ele>
        <time>2021-02-20T11:41:19Z</time>
      </trkpt>
      <trkpt lat="40.2582380" lon="-3.8590930">
        <ele>686.2</ele>
        <time>2021-02-20T11:41:20Z</time>
      </trkpt>
      <trkpt lat="40.2583540" lon="-3.8591370">
        <ele>686.2</ele>
        <time>2021-02-20T11:41:22Z</time>
      </trkpt>
      <trkpt lat="40.2584740" lon="-3.8591980">
        <ele>686.0</ele>
        <time>2021-02-20T11:41:24Z</time>
      </trkpt>
      <trkpt lat="40.2586070" lon="-3.8592790">
        <ele>685.0</ele>
        <time>2021-02-20T11:41:26Z</time>
      </trkpt>
      <trkpt lat="40.2587490" lon="-3.8593770">
        <ele>684.0</ele>
        <time>2021-02-20T11:41:28Z</time>
      </trkpt>
      <trkpt lat="40.2588150" lon="-3.8594320">
        <ele>683.6</ele>
        <time>2021-02-20T11:41:29Z</time>
      </trkpt>
      <trkpt lat="40.2592950" lon="-3.8598890">
        <ele>683.6</ele>
        <time>2021-02-20T11:41:37Z</time>
      </trkpt>
      <trkpt lat="40.2595600" lon="-3.8602760">
        <ele>684.4</ele>
        <time>2021-02-20T11:41:44Z</time>
      </trkpt>
      <trkpt lat="40.2596310" lon="-3.8604170">
        <ele>684.6</ele>
        <time>2021-02-20T11:41:47Z</time>
      </trkpt>
      <trkpt lat="40.2596570" lon="-3.8605520">
        <ele>684.2</ele>
        <time>2021-02-20T11:41:49Z</time>
      </trkpt>
      <trkpt lat="40.2596590" lon="-3.8607060">
        <ele>683.8</ele>
        <time>2021-02-20T11:41:51Z</time>
      </trkpt>
      <trkpt lat="40.2596500" lon="-3.8609590">
        <ele>683.0</ele>
        <time>2021-02-20T11:41:54Z</time>
      </trkpt>
      <trkpt lat="40.2596410" lon="-3.8610450">
        <ele>682.8</ele>
        <time>2021-02-20T11:41:55Z</time>
      </trkpt>
      <trkpt lat="40.2596010" lon="-3.8614470">
        <ele>682.4</ele>
        <time>2021-02-20T11:42:00Z</time>
      </trkpt>
      <trkpt lat="40.2596160" lon="-3.8619290">
        <ele>682.6</ele>
        <time>2021-02-20T11:42:06Z</time>
      </trkpt>
      <trkpt lat="40.2596820" lon="-3.8622620">
        <ele>681.6</ele>
        <time>2021-02-20T11:42:10Z</time>
      </trkpt>
      <trkpt lat="40.2597360" lon="-3.8624280">
        <ele>681.0</ele>
        <time>2021-02-20T11:42:12Z</time>
      </trkpt>
      <trkpt lat="40.2598020" lon="-3.8625960">
        <ele>680.4</ele>
        <time>2021-02-20T11:42:14Z</time>
      </trkpt>
      <trkpt lat="40.2599960" lon="-3.8630050">
        <ele>679.8</ele>
        <time>2021-02-20T11:42:19Z</time>
      </trkpt>
      <trkpt lat="40.2600290" lon="-3.8630910">
        <ele>679.8</ele>
        <time>2021-02-20T11:42:20Z</time>
      </trkpt>
      <trkpt lat="40.2600920" lon="-3.8633550">
        <ele>679.6</ele>
        <time>2021-02-20T11:42:23Z</time>
      </trkpt>
      <trkpt lat="40.2601020" lon="-3.8634490">
        <ele>679.2</ele>
        <time>2021-02-20T11:42:24Z</time>
      </trkpt>
      <trkpt lat="40.2601100" lon="-3.8635440">
        <ele>679.0</ele>
        <time>2021-02-20T11:42:25Z</time>
      </trkpt>
      <trkpt lat="40.2601340" lon="-3.8638460">
        <ele>678.0</ele>
        <time>2021-02-20T11:42:28Z</time>
      </trkpt>
      <trkpt lat="40.2601420" lon="-3.8639510">
        <ele>677.6</ele>
        <time>2021-02-20T11:42:29Z</time>
      </trkpt>
      <trkpt lat="40.2601590" lon="-3.8641750">
        <ele>676.6</ele>
        <time>2021-02-20T11:42:31Z</time>
      </trkpt>
      <trkpt lat="40.2601760" lon="-3.8644130">
        <ele>675.6</ele>
        <time>2021-02-20T11:42:33Z</time>
      </trkpt>
      <trkpt lat="40.2601920" lon="-3.8646640">
        <ele>674.4</ele>
        <time>2021-02-20T11:42:35Z</time>
      </trkpt>
      <trkpt lat="40.2602070" lon="-3.8649200">
        <ele>673.2</ele>
        <time>2021-02-20T11:42:37Z</time>
      </trkpt>
      <trkpt lat="40.2602280" lon="-3.8652940">
        <ele>671.8</ele>
        <time>2021-02-20T11:42:40Z</time>
      </trkpt>
      <trkpt lat="40.2602560" lon="-3.8657810">
        <ele>670.6</ele>
        <time>2021-02-20T11:42:44Z</time>
      </trkpt>
      <trkpt lat="40.2602640" lon="-3.8658960">
        <ele>670.6</ele>
        <time>2021-02-20T11:42:45Z</time>
      </trkpt>
      <trkpt lat="40.2603130" lon="-3.8663230">
        <ele>670.0</ele>
        <time>2021-02-20T11:42:49Z</time>
      </trkpt>
      <trkpt lat="40.2603420" lon="-3.8664180">
        <ele>669.8</ele>
        <time>2021-02-20T11:42:50Z</time>
      </trkpt>
      <trkpt lat="40.2603680" lon="-3.8665140">
        <ele>669.6</ele>
        <time>2021-02-20T11:42:51Z</time>
      </trkpt>
      <trkpt lat="40.2603390" lon="-3.8667940">
        <ele>669.2</ele>
        <time>2021-02-20T11:42:54Z</time>
      </trkpt>
      <trkpt lat="40.2602530" lon="-3.8669400">
        <ele>669.2</ele>
        <time>2021-02-20T11:42:56Z</time>
      </trkpt>
      <trkpt lat="40.2601770" lon="-3.8670870">
        <ele>669.2</ele>
        <time>2021-02-20T11:42:58Z</time>
      </trkpt>
      <trkpt lat="40.2600810" lon="-3.8673160">
        <ele>669.2</ele>
        <time>2021-02-20T11:43:01Z</time>
      </trkpt>
      <trkpt lat="40.2600000" lon="-3.8675690">
        <ele>669.2</ele>
        <time>2021-02-20T11:43:04Z</time>
      </trkpt>
      <trkpt lat="40.2597860" lon="-3.8680410">
        <ele>668.8</ele>
        <time>2021-02-20T11:43:10Z</time>
      </trkpt>
      <trkpt lat="40.2595890" lon="-3.8684800">
        <ele>668.8</ele>
        <time>2021-02-20T11:43:16Z</time>
      </trkpt>
      <trkpt lat="40.2595550" lon="-3.8685500">
        <ele>668.8</ele>
        <time>2021-02-20T11:43:17Z</time>
      </trkpt>
      <trkpt lat="40.2594580" lon="-3.8687600">
        <ele>669.2</ele>
        <time>2021-02-20T11:43:20Z</time>
      </trkpt>
      <trkpt lat="40.2593620" lon="-3.8689670">
        <ele>669.6</ele>
        <time>2021-02-20T11:43:23Z</time>
      </trkpt>
      <trkpt lat="40.2592990" lon="-3.8691070">
        <ele>669.6</ele>
        <time>2021-02-20T11:43:25Z</time>
      </trkpt>
      <trkpt lat="40.2591710" lon="-3.8693880">
        <ele>670.0</ele>
        <time>2021-02-20T11:43:29Z</time>
      </trkpt>
      <trkpt lat="40.2590500" lon="-3.8696610">
        <ele>670.4</ele>
        <time>2021-02-20T11:43:33Z</time>
      </trkpt>
      <trkpt lat="40.2590210" lon="-3.8697290">
        <ele>670.6</ele>
        <time>2021-02-20T11:43:34Z</time>
      </trkpt>
      <trkpt lat="40.2588040" lon="-3.8703030">
        <ele>671.0</ele>
        <time>2021-02-20T11:43:42Z</time>
      </trkpt>
      <trkpt lat="40.2587130" lon="-3.8707910">
        <ele>670.8</ele>
        <time>2021-02-20T11:43:48Z</time>
      </trkpt>
      <trkpt lat="40.2586770" lon="-3.8714140">
        <ele>670.4</ele>
        <time>2021-02-20T11:43:55Z</time>
      </trkpt>
      <trkpt lat="40.2586450" lon="-3.8720520">
        <ele>670.2</ele>
        <time>2021-02-20T11:44:02Z</time>
      </trkpt>
      <trkpt lat="40.2586320" lon="-3.8722280">
        <ele>670.2</ele>
        <time>2021-02-20T11:44:04Z</time>
      </trkpt>
      <trkpt lat="40.2586110" lon="-3.8726250">
        <ele>671.6</ele>
        <time>2021-02-20T11:44:09Z</time>
      </trkpt>
      <trkpt lat="40.2586040" lon="-3.8727630">
        <ele>672.2</ele>
        <time>2021-02-20T11:44:11Z</time>
      </trkpt>
      <trkpt lat="40.2585960" lon="-3.8728920">
        <ele>672.8</ele>
        <time>2021-02-20T11:44:13Z</time>
      </trkpt>
      <trkpt lat="40.2585830" lon="-3.8731380">
        <ele>673.8</ele>
        <time>2021-02-20T11:44:17Z</time>
      </trkpt>
      <trkpt lat="40.2585780" lon="-3.8733150">
        <ele>674.2</ele>
        <time>2021-02-20T11:44:20Z</time>
      </trkpt>
      <trkpt lat="40.2585710" lon="-3.8734880">
        <ele>675.0</ele>
        <time>2021-02-20T11:44:23Z</time>
      </trkpt>
      <trkpt lat="40.2585580" lon="-3.8737710">
        <ele>676.0</ele>
        <time>2021-02-20T11:44:28Z</time>
      </trkpt>
      <trkpt lat="40.2585540" lon="-3.8738840">
        <ele>676.4</ele>
        <time>2021-02-20T11:44:30Z</time>
      </trkpt>
      <trkpt lat="40.2585450" lon="-3.8741110">
        <ele>677.0</ele>
        <time>2021-02-20T11:44:34Z</time>
      </trkpt>
      <trkpt lat="40.2585330" lon="-3.8743390">
        <ele>678.0</ele>
        <time>2021-02-20T11:44:38Z</time>
      </trkpt>
      <trkpt lat="40.2585320" lon="-3.8745140">
        <ele>678.8</ele>
        <time>2021-02-20T11:44:41Z</time>
      </trkpt>
      <trkpt lat="40.2585470" lon="-3.8747580">
        <ele>679.0</ele>
        <time>2021-02-20T11:44:45Z</time>
      </trkpt>
      <trkpt lat="40.2585760" lon="-3.8750680">
        <ele>679.6</ele>
        <time>2021-02-20T11:44:50Z</time>
      </trkpt>
      <trkpt lat="40.2585990" lon="-3.8751930">
        <ele>679.6</ele>
        <time>2021-02-20T11:44:52Z</time>
      </trkpt>
      <trkpt lat="40.2586730" lon="-3.8755220">
        <ele>679.8</ele>
        <time>2021-02-20T11:44:57Z</time>
      </trkpt>
      <trkpt lat="40.2588120" lon="-3.8760850">
        <ele>679.6</ele>
        <time>2021-02-20T11:45:05Z</time>
      </trkpt>
      <trkpt lat="40.2589420" lon="-3.8766110">
        <ele>679.4</ele>
        <time>2021-02-20T11:45:12Z</time>
      </trkpt>
      <trkpt lat="40.2589790" lon="-3.8767680">
        <ele>679.4</ele>
        <time>2021-02-20T11:45:14Z</time>
      </trkpt>
      <trkpt lat="40.2591560" lon="-3.8775000">
        <ele>679.2</ele>
        <time>2021-02-20T11:45:23Z</time>
      </trkpt>
      <trkpt lat="40.2592090" lon="-3.8780250">
        <ele>679.0</ele>
        <time>2021-02-20T11:45:29Z</time>
      </trkpt>
      <trkpt lat="40.2592260" lon="-3.8782090">
        <ele>678.6</ele>
        <time>2021-02-20T11:45:31Z</time>
      </trkpt>
      <trkpt lat="40.2592750" lon="-3.8783900">
        <ele>678.2</ele>
        <time>2021-02-20T11:45:33Z</time>
      </trkpt>
      <trkpt lat="40.2593020" lon="-3.8784790">
        <ele>677.8</ele>
        <time>2021-02-20T11:45:34Z</time>
      </trkpt>
      <trkpt lat="40.2593190" lon="-3.8785720">
        <ele>677.8</ele>
        <time>2021-02-20T11:45:35Z</time>
      </trkpt>
      <trkpt lat="40.2593550" lon="-3.8788530">
        <ele>677.6</ele>
        <time>2021-02-20T11:45:38Z</time>
      </trkpt>
      <trkpt lat="40.2594430" lon="-3.8796140">
        <ele>677.0</ele>
        <time>2021-02-20T11:45:46Z</time>
      </trkpt>
      <trkpt lat="40.2595600" lon="-3.8801420">
        <ele>677.6</ele>
        <time>2021-02-20T11:45:52Z</time>
      </trkpt>
      <trkpt lat="40.2596730" lon="-3.8805010">
        <ele>678.2</ele>
        <time>2021-02-20T11:45:57Z</time>
      </trkpt>
      <trkpt lat="40.2597000" lon="-3.8805640">
        <ele>678.6</ele>
        <time>2021-02-20T11:45:58Z</time>
      </trkpt>
      <trkpt lat="40.2597320" lon="-3.8806220">
        <ele>679.0</ele>
        <time>2021-02-20T11:45:59Z</time>
      </trkpt>
      <trkpt lat="40.2598760" lon="-3.8808810">
        <ele>678.0</ele>
        <time>2021-02-20T11:46:03Z</time>
      </trkpt>
      <trkpt lat="40.2600110" lon="-3.8811250">
        <ele>676.6</ele>
        <time>2021-02-20T11:46:06Z</time>
      </trkpt>
      <trkpt lat="40.2601090" lon="-3.8812960">
        <ele>675.4</ele>
        <time>2021-02-20T11:46:08Z</time>
      </trkpt>
      <trkpt lat="40.2602790" lon="-3.8815350">
        <ele>674.6</ele>
        <time>2021-02-20T11:46:11Z</time>
      </trkpt>
      <trkpt lat="40.2603460" lon="-3.8816110">
        <ele>674.0</ele>
        <time>2021-02-20T11:46:12Z</time>
      </trkpt>
      <trkpt lat="40.2604190" lon="-3.8816800">
        <ele>673.4</ele>
        <time>2021-02-20T11:46:13Z</time>
      </trkpt>
      <trkpt lat="40.2604920" lon="-3.8817540">
        <ele>672.8</ele>
        <time>2021-02-20T11:46:14Z</time>
      </trkpt>
      <trkpt lat="40.2606370" lon="-3.8819070">
        <ele>671.6</ele>
        <time>2021-02-20T11:46:16Z</time>
      </trkpt>
      <trkpt lat="40.2608340" lon="-3.8821510">
        <ele>670.6</ele>
        <time>2021-02-20T11:46:19Z</time>
      </trkpt>
      <trkpt lat="40.2608940" lon="-3.8822360">
        <ele>670.4</ele>
        <time>2021-02-20T11:46:20Z</time>
      </trkpt>
      <trkpt lat="40.2611020" lon="-3.8825860">
        <ele>669.4</ele>
        <time>2021-02-20T11:46:24Z</time>
      </trkpt>
      <trkpt lat="40.2611540" lon="-3.8826650">
        <ele>669.2</ele>
        <time>2021-02-20T11:46:25Z</time>
      </trkpt>
      <trkpt lat="40.2613450" lon="-3.8829360">
        <ele>669.2</ele>
        <time>2021-02-20T11:46:29Z</time>
      </trkpt>
      <trkpt lat="40.2614330" lon="-3.8831530">
        <ele>669.4</ele>
        <time>2021-02-20T11:46:32Z</time>
      </trkpt>
      <trkpt lat="40.2614700" lon="-3.8833060">
        <ele>669.6</ele>
        <time>2021-02-20T11:46:34Z</time>
      </trkpt>
      <trkpt lat="40.2614910" lon="-3.8834580">
        <ele>670.0</ele>
        <time>2021-02-20T11:46:36Z</time>
      </trkpt>
      <trkpt lat="40.2614960" lon="-3.8835330">
        <ele>670.4</ele>
        <time>2021-02-20T11:46:37Z</time>
      </trkpt>
      <trkpt lat="40.2614990" lon="-3.8837550">
        <ele>671.2</ele>
        <time>2021-02-20T11:46:40Z</time>
      </trkpt>
      <trkpt lat="40.2615030" lon="-3.8838260">
        <ele>671.4</ele>
        <time>2021-02-20T11:46:41Z</time>
      </trkpt>
      <trkpt lat="40.2615300" lon="-3.8839750">
        <ele>671.6</ele>
        <time>2021-02-20T11:46:43Z</time>
      </trkpt>
      <trkpt lat="40.2615680" lon="-3.8841360">
        <ele>671.4</ele>
        <time>2021-02-20T11:46:45Z</time>
      </trkpt>
      <trkpt lat="40.2616340" lon="-3.8843950">
        <ele>670.2</ele>
        <time>2021-02-20T11:46:48Z</time>
      </trkpt>
      <trkpt lat="40.2617290" lon="-3.8846540">
        <ele>669.6</ele>
        <time>2021-02-20T11:46:51Z</time>
      </trkpt>
      <trkpt lat="40.2618470" lon="-3.8849160">
        <ele>669.0</ele>
        <time>2021-02-20T11:46:54Z</time>
      </trkpt>
      <trkpt lat="40.2619890" lon="-3.8852690">
        <ele>668.4</ele>
        <time>2021-02-20T11:46:58Z</time>
      </trkpt>
      <trkpt lat="40.2620360" lon="-3.8854590">
        <ele>668.0</ele>
        <time>2021-02-20T11:47:00Z</time>
      </trkpt>
      <trkpt lat="40.2620910" lon="-3.8856120">
        <ele>667.4</ele>
        <time>2021-02-20T11:47:02Z</time>
      </trkpt>
      <trkpt lat="40.2621320" lon="-3.8856670">
        <ele>667.2</ele>
        <time>2021-02-20T11:47:03Z</time>
      </trkpt>
      <trkpt lat="40.2622860" lon="-3.8857430">
        <ele>667.4</ele>
        <time>2021-02-20T11:47:06Z</time>
      </trkpt>
      <trkpt lat="40.2623390" lon="-3.8857590">
        <ele>667.8</ele>
        <time>2021-02-20T11:47:07Z</time>
      </trkpt>
      <trkpt lat="40.2624980" lon="-3.8857990">
        <ele>669.2</ele>
        <time>2021-02-20T11:47:10Z</time>
      </trkpt>
      <trkpt lat="40.2625450" lon="-3.8858370">
        <ele>669.6</ele>
        <time>2021-02-20T11:47:11Z</time>
      </trkpt>
      <trkpt lat="40.2627130" lon="-3.8860570">
        <ele>670.4</ele>
        <time>2021-02-20T11:47:15Z</time>
      </trkpt>
      <trkpt lat="40.2627500" lon="-3.8861210">
        <ele>670.6</ele>
        <time>2021-02-20T11:47:16Z</time>
      </trkpt>
      <trkpt lat="40.2629070" lon="-3.8864690">
        <ele>670.6</ele>
        <time>2021-02-20T11:47:22Z</time>
      </trkpt>
      <trkpt lat="40.2629210" lon="-3.8865460">
        <ele>670.6</ele>
        <time>2021-02-20T11:47:23Z</time>
      </trkpt>
      <trkpt lat="40.2630290" lon="-3.8869620">
        <ele>670.0</ele>
        <time>2021-02-20T11:47:28Z</time>
      </trkpt>
      <trkpt lat="40.2630650" lon="-3.8870370">
        <ele>669.6</ele>
        <time>2021-02-20T11:47:29Z</time>
      </trkpt>
      <trkpt lat="40.2632180" lon="-3.8872920">
        <ele>669.8</ele>
        <time>2021-02-20T11:47:33Z</time>
      </trkpt>
      <trkpt lat="40.2633120" lon="-3.8873910">
        <ele>670.4</ele>
        <time>2021-02-20T11:47:35Z</time>
      </trkpt>
      <trkpt lat="40.2634660" lon="-3.8875710">
        <ele>669.4</ele>
        <time>2021-02-20T11:47:38Z</time>
      </trkpt>
      <trkpt lat="40.2635180" lon="-3.8876420">
        <ele>669.0</ele>
        <time>2021-02-20T11:47:39Z</time>
      </trkpt>
      <trkpt lat="40.2636450" lon="-3.8878910">
        <ele>668.4</ele>
        <time>2021-02-20T11:47:42Z</time>
      </trkpt>
      <trkpt lat="40.2637300" lon="-3.8881700">
        <ele>668.0</ele>
        <time>2021-02-20T11:47:45Z</time>
      </trkpt>
      <trkpt lat="40.2637710" lon="-3.8883660">
        <ele>667.8</ele>
        <time>2021-02-20T11:47:47Z</time>
      </trkpt>
      <trkpt lat="40.2637930" lon="-3.8885570">
        <ele>667.4</ele>
        <time>2021-02-20T11:47:49Z</time>
      </trkpt>
      <trkpt lat="40.2637630" lon="-3.8887060">
        <ele>667.8</ele>
        <time>2021-02-20T11:47:51Z</time>
      </trkpt>
      <trkpt lat="40.2637380" lon="-3.8889110">
        <ele>668.8</ele>
        <time>2021-02-20T11:47:55Z</time>
      </trkpt>
      <trkpt lat="40.2637500" lon="-3.8890080">
        <ele>669.2</ele>
        <time>2021-02-20T11:47:57Z</time>
      </trkpt>
      <trkpt lat="40.2637540" lon="-3.8891270">
        <ele>670.0</ele>
        <time>2021-02-20T11:47:59Z</time>
      </trkpt>
      <trkpt lat="40.2637560" lon="-3.8891950">
        <ele>670.0</ele>
        <time>2021-02-20T11:48:00Z</time>
      </trkpt>
      <trkpt lat="40.2637500" lon="-3.8894820">
        <ele>669.8</ele>
        <time>2021-02-20T11:48:04Z</time>
      </trkpt>
      <trkpt lat="40.2637480" lon="-3.8896760">
        <ele>669.8</ele>
        <time>2021-02-20T11:48:07Z</time>
      </trkpt>
      <trkpt lat="40.2638120" lon="-3.8897870">
        <ele>669.2</ele>
        <time>2021-02-20T11:48:10Z</time>
      </trkpt>
      <trkpt lat="40.2638740" lon="-3.8898960">
        <ele>668.2</ele>
        <time>2021-02-20T11:48:12Z</time>
      </trkpt>
      <trkpt lat="40.2638990" lon="-3.8899580">
        <ele>667.8</ele>
        <time>2021-02-20T11:48:13Z</time>
      </trkpt>
      <trkpt lat="40.2639610" lon="-3.8900750">
        <ele>667.6</ele>
        <time>2021-02-20T11:48:15Z</time>
      </trkpt>
      <trkpt lat="40.2640210" lon="-3.8902110">
        <ele>667.2</ele>
        <time>2021-02-20T11:48:17Z</time>
      </trkpt>
      <trkpt lat="40.2640650" lon="-3.8902620">
        <ele>667.0</ele>
        <time>2021-02-20T11:48:18Z</time>
      </trkpt>
      <trkpt lat="40.2642190" lon="-3.8902940">
        <ele>667.2</ele>
        <time>2021-02-20T11:48:21Z</time>
      </trkpt>
      <trkpt lat="40.2643170" lon="-3.8903170">
        <ele>668.2</ele>
        <time>2021-02-20T11:48:23Z</time>
      </trkpt>
      <trkpt lat="40.2643670" lon="-3.8903340">
        <ele>668.4</ele>
        <time>2021-02-20T11:48:24Z</time>
      </trkpt>
      <trkpt lat="40.2644730" lon="-3.8903630">
        <ele>668.8</ele>
        <time>2021-02-20T11:48:26Z</time>
      </trkpt>
      <trkpt lat="40.2645280" lon="-3.8903640">
        <ele>668.6</ele>
        <time>2021-02-20T11:48:27Z</time>
      </trkpt>
      <trkpt lat="40.2646840" lon="-3.8902730">
        <ele>668.2</ele>
        <time>2021-02-20T11:48:30Z</time>
      </trkpt>
      <trkpt lat="40.2649760" lon="-3.8901490">
        <ele>668.0</ele>
        <time>2021-02-20T11:48:35Z</time>
      </trkpt>
      <trkpt lat="40.2654330" lon="-3.8900700">
        <ele>667.4</ele>
        <time>2021-02-20T11:48:42Z</time>
      </trkpt>
      <trkpt lat="40.2655100" lon="-3.8900600">
        <ele>666.8</ele>
        <time>2021-02-20T11:48:43Z</time>
      </trkpt>
      <trkpt lat="40.2656800" lon="-3.8900390">
        <ele>665.6</ele>
        <time>2021-02-20T11:48:45Z</time>
      </trkpt>
      <trkpt lat="40.2658580" lon="-3.8900320">
        <ele>664.6</ele>
        <time>2021-02-20T11:48:47Z</time>
      </trkpt>
      <trkpt lat="40.2661680" lon="-3.8900180">
        <ele>664.8</ele>
        <time>2021-02-20T11:48:51Z</time>
      </trkpt>
      <trkpt lat="40.2662370" lon="-3.8900080">
        <ele>665.2</ele>
        <time>2021-02-20T11:48:52Z</time>
      </trkpt>
      <trkpt lat="40.2663620" lon="-3.8899910">
        <ele>666.0</ele>
        <time>2021-02-20T11:48:54Z</time>
      </trkpt>
      <trkpt lat="40.2666210" lon="-3.8899440">
        <ele>666.2</ele>
        <time>2021-02-20T11:48:58Z</time>
      </trkpt>
      <trkpt lat="40.2667960" lon="-3.8899120">
        <ele>664.6</ele>
        <time>2021-02-20T11:49:00Z</time>
      </trkpt>
      <trkpt lat="40.2668970" lon="-3.8899000">
        <ele>663.4</ele>
        <time>2021-02-20T11:49:01Z</time>
      </trkpt>
      <trkpt lat="40.2670000" lon="-3.8898830">
        <ele>662.2</ele>
        <time>2021-02-20T11:49:02Z</time>
      </trkpt>
      <trkpt lat="40.2672060" lon="-3.8898310">
        <ele>660.8</ele>
        <time>2021-02-20T11:49:04Z</time>
      </trkpt>
      <trkpt lat="40.2674190" lon="-3.8897670">
        <ele>659.4</ele>
        <time>2021-02-20T11:49:06Z</time>
      </trkpt>
      <trkpt lat="40.2676410" lon="-3.8897080">
        <ele>657.6</ele>
        <time>2021-02-20T11:49:08Z</time>
      </trkpt>
      <trkpt lat="40.2678650" lon="-3.8896460">
        <ele>656.2</ele>
        <time>2021-02-20T11:49:10Z</time>
      </trkpt>
      <trkpt lat="40.2680980" lon="-3.8895950">
        <ele>654.4</ele>
        <time>2021-02-20T11:49:12Z</time>
      </trkpt>
      <trkpt lat="40.2682120" lon="-3.8895670">
        <ele>653.6</ele>
        <time>2021-02-20T11:49:13Z</time>
      </trkpt>
      <trkpt lat="40.2683240" lon="-3.8895480">
        <ele>653.0</ele>
        <time>2021-02-20T11:49:14Z</time>
      </trkpt>
      <trkpt lat="40.2685280" lon="-3.8895360">
        <ele>651.8</ele>
        <time>2021-02-20T11:49:16Z</time>
      </trkpt>
      <trkpt lat="40.2686230" lon="-3.8895450">
        <ele>651.0</ele>
        <time>2021-02-20T11:49:17Z</time>
      </trkpt>
      <trkpt lat="40.2687160" lon="-3.8895570">
        <ele>650.6</ele>
        <time>2021-02-20T11:49:18Z</time>
      </trkpt>
      <trkpt lat="40.2689570" lon="-3.8896280">
        <ele>650.6</ele>
        <time>2021-02-20T11:49:21Z</time>
      </trkpt>
      <trkpt lat="40.2690870" lon="-3.8896710">
        <ele>651.8</ele>
        <time>2021-02-20T11:49:23Z</time>
      </trkpt>
      <trkpt lat="40.2691430" lon="-3.8896970">
        <ele>652.4</ele>
        <time>2021-02-20T11:49:24Z</time>
      </trkpt>
      <trkpt lat="40.2691930" lon="-3.8897220">
        <ele>653.0</ele>
        <time>2021-02-20T11:49:25Z</time>
      </trkpt>
      <trkpt lat="40.2692760" lon="-3.8897660">
        <ele>654.4</ele>
        <time>2021-02-20T11:49:27Z</time>
      </trkpt>
      <trkpt lat="40.2693550" lon="-3.8898050">
        <ele>655.6</ele>
        <time>2021-02-20T11:49:29Z</time>
      </trkpt>
      <trkpt lat="40.2693900" lon="-3.8898290">
        <ele>656.2</ele>
        <time>2021-02-20T11:49:30Z</time>
      </trkpt>
      <trkpt lat="40.2694280" lon="-3.8898560">
        <ele>656.6</ele>
        <time>2021-02-20T11:49:31Z</time>
      </trkpt>
      <trkpt lat="40.2695660" lon="-3.8899600">
        <ele>657.0</ele>
        <time>2021-02-20T11:49:34Z</time>
      </trkpt>
      <trkpt lat="40.2696220" lon="-3.8900200">
        <ele>656.4</ele>
        <time>2021-02-20T11:49:35Z</time>
      </trkpt>
      <trkpt lat="40.2696780" lon="-3.8900880">
        <ele>655.2</ele>
        <time>2021-02-20T11:49:36Z</time>
      </trkpt>
      <trkpt lat="40.2697980" lon="-3.8902330">
        <ele>653.8</ele>
        <time>2021-02-20T11:49:38Z</time>
      </trkpt>
      <trkpt lat="40.2699110" lon="-3.8903860">
        <ele>652.6</ele>
        <time>2021-02-20T11:49:40Z</time>
      </trkpt>
      <trkpt lat="40.2699820" lon="-3.8905020">
        <ele>651.2</ele>
        <time>2021-02-20T11:49:42Z</time>
      </trkpt>
      <trkpt lat="40.2700090" lon="-3.8905240">
        <ele>650.8</ele>
        <time>2021-02-20T11:49:43Z</time>
      </trkpt>
      <trkpt lat="40.2700390" lon="-3.8905330">
        <ele>650.6</ele>
        <time>2021-02-20T11:49:44Z</time>
      </trkpt>
      <trkpt lat="40.2700660" lon="-3.8905490">
        <ele>650.2</ele>
        <time>2021-02-20T11:49:45Z</time>
      </trkpt>
      <trkpt lat="40.2701020" lon="-3.8905840">
        <ele>650.0</ele>
        <time>2021-02-20T11:49:47Z</time>
      </trkpt>
      <trkpt lat="40.2701230" lon="-3.8906830">
        <ele>650.2</ele>
        <time>2021-02-20T11:49:50Z</time>
      </trkpt>
      <trkpt lat="40.2701290" lon="-3.8907320">
        <ele>650.2</ele>
        <time>2021-02-20T11:49:51Z</time>
      </trkpt>
      <trkpt lat="40.2702000" lon="-3.8909750">
        <ele>650.8</ele>
        <time>2021-02-20T11:49:56Z</time>
      </trkpt>
      <trkpt lat="40.2702610" lon="-3.8911590">
        <ele>651.6</ele>
        <time>2021-02-20T11:50:00Z</time>
      </trkpt>
      <trkpt lat="40.2702910" lon="-3.8913500">
        <ele>652.8</ele>
        <time>2021-02-20T11:50:04Z</time>
      </trkpt>
      <trkpt lat="40.2703030" lon="-3.8915160">
        <ele>654.0</ele>
        <time>2021-02-20T11:50:08Z</time>
      </trkpt>
      <trkpt lat="40.2703130" lon="-3.8916380">
        <ele>655.2</ele>
        <time>2021-02-20T11:50:11Z</time>
      </trkpt>
      <trkpt lat="40.2703180" lon="-3.8917610">
        <ele>656.2</ele>
        <time>2021-02-20T11:50:14Z</time>
      </trkpt>
      <trkpt lat="40.2703080" lon="-3.8919620">
        <ele>657.4</ele>
        <time>2021-02-20T11:50:19Z</time>
      </trkpt>
      <trkpt lat="40.2703040" lon="-3.8920020">
        <ele>657.6</ele>
        <time>2021-02-20T11:50:20Z</time>
      </trkpt>
      <trkpt lat="40.2702900" lon="-3.8921270">
        <ele>658.4</ele>
        <time>2021-02-20T11:50:23Z</time>
      </trkpt>
      <trkpt lat="40.2702700" lon="-3.8922830">
        <ele>659.6</ele>
        <time>2021-02-20T11:50:27Z</time>
      </trkpt>
      <trkpt lat="40.2702570" lon="-3.8923570">
        <ele>660.2</ele>
        <time>2021-02-20T11:50:29Z</time>
      </trkpt>
      <trkpt lat="40.2702380" lon="-3.8924300">
        <ele>660.8</ele>
        <time>2021-02-20T11:50:31Z</time>
      </trkpt>
      <trkpt lat="40.2701880" lon="-3.8926220">
        <ele>661.8</ele>
        <time>2021-02-20T11:50:36Z</time>
      </trkpt>
      <trkpt lat="40.2701620" lon="-3.8927010">
        <ele>662.2</ele>
        <time>2021-02-20T11:50:38Z</time>
      </trkpt>
      <trkpt lat="40.2700740" lon="-3.8928920">
        <ele>662.8</ele>
        <time>2021-02-20T11:50:43Z</time>
      </trkpt>
      <trkpt lat="40.2700130" lon="-3.8930000">
        <ele>663.2</ele>
        <time>2021-02-20T11:50:46Z</time>
      </trkpt>
      <trkpt lat="40.2699310" lon="-3.8931390">
        <ele>664.0</ele>
        <time>2021-02-20T11:50:50Z</time>
      </trkpt>
      <trkpt lat="40.2698350" lon="-3.8932700">
        <ele>664.2</ele>
        <time>2021-02-20T11:50:54Z</time>
      </trkpt>
      <trkpt lat="40.2696170" lon="-3.8935650">
        <ele>665.0</ele>
        <time>2021-02-20T11:51:03Z</time>
      </trkpt>
      <trkpt lat="40.2695920" lon="-3.8935970">
        <ele>665.0</ele>
        <time>2021-02-20T11:51:04Z</time>
      </trkpt>
      <trkpt lat="40.2694300" lon="-3.8938280">
        <ele>666.0</ele>
        <time>2021-02-20T11:51:11Z</time>
      </trkpt>
      <trkpt lat="40.2693820" lon="-3.8938970">
        <ele>666.4</ele>
        <time>2021-02-20T11:51:13Z</time>
      </trkpt>
      <trkpt lat="40.2691880" lon="-3.8941650">
        <ele>665.2</ele>
        <time>2021-02-20T11:51:19Z</time>
      </trkpt>
      <trkpt lat="40.2691370" lon="-3.8942340">
        <ele>664.4</ele>
        <time>2021-02-20T11:51:20Z</time>
      </trkpt>
      <trkpt lat="40.2690840" lon="-3.8943090">
        <ele>663.4</ele>
        <time>2021-02-20T11:51:21Z</time>
      </trkpt>
      <trkpt lat="40.2690230" lon="-3.8943860">
        <ele>662.2</ele>
        <time>2021-02-20T11:51:22Z</time>
      </trkpt>
      <trkpt lat="40.2689610" lon="-3.8944640">
        <ele>661.2</ele>
        <time>2021-02-20T11:51:23Z</time>
      </trkpt>
      <trkpt lat="40.2689010" lon="-3.8945370">
        <ele>660.6</ele>
        <time>2021-02-20T11:51:24Z</time>
      </trkpt>
      <trkpt lat="40.2687000" lon="-3.8947890">
        <ele>660.2</ele>
        <time>2021-02-20T11:51:28Z</time>
      </trkpt>
      <trkpt lat="40.2685570" lon="-3.8949830">
        <ele>659.2</ele>
        <time>2021-02-20T11:51:31Z</time>
      </trkpt>
      <trkpt lat="40.2684400" lon="-3.8951130">
        <ele>657.6</ele>
        <time>2021-02-20T11:51:33Z</time>
      </trkpt>
      <trkpt lat="40.2683360" lon="-3.8952540">
        <ele>656.6</ele>
        <time>2021-02-20T11:51:35Z</time>
      </trkpt>
      <trkpt lat="40.2682910" lon="-3.8953160">
        <ele>656.6</ele>
        <time>2021-02-20T11:51:36Z</time>
      </trkpt>
      <trkpt lat="40.2682490" lon="-3.8953720">
        <ele>656.6</ele>
        <time>2021-02-20T11:51:37Z</time>
      </trkpt>
      <trkpt lat="40.2681450" lon="-3.8955080">
        <ele>658.0</ele>
        <time>2021-02-20T11:51:40Z</time>
      </trkpt>
      <trkpt lat="40.2680780" lon="-3.8955850">
        <ele>658.2</ele>
        <time>2021-02-20T11:51:42Z</time>
      </trkpt>
      <trkpt lat="40.2679760" lon="-3.8957110">
        <ele>659.0</ele>
        <time>2021-02-20T11:51:45Z</time>
      </trkpt>
      <trkpt lat="40.2678830" lon="-3.8958270">
        <ele>660.4</ele>
        <time>2021-02-20T11:51:48Z</time>
      </trkpt>
      <trkpt lat="40.2677630" lon="-3.8959710">
        <ele>661.4</ele>
        <time>2021-02-20T11:51:52Z</time>
      </trkpt>
      <trkpt lat="40.2675780" lon="-3.8961930">
        <ele>662.6</ele>
        <time>2021-02-20T11:51:58Z</time>
      </trkpt>
      <trkpt lat="40.2674610" lon="-3.8963370">
        <ele>663.6</ele>
        <time>2021-02-20T11:52:02Z</time>
      </trkpt>
      <trkpt lat="40.2673560" lon="-3.8964660">
        <ele>664.4</ele>
        <time>2021-02-20T11:52:06Z</time>
      </trkpt>
      <trkpt lat="40.2673300" lon="-3.8964940">
        <ele>664.8</ele>
        <time>2021-02-20T11:52:07Z</time>
      </trkpt>
      <trkpt lat="40.2672490" lon="-3.8965870">
        <ele>666.0</ele>
        <time>2021-02-20T11:52:10Z</time>
      </trkpt>
      <trkpt lat="40.2671570" lon="-3.8967190">
        <ele>666.2</ele>
        <time>2021-02-20T11:52:13Z</time>
      </trkpt>
      <trkpt lat="40.2670670" lon="-3.8968350">
        <ele>665.0</ele>
        <time>2021-02-20T11:52:15Z</time>
      </trkpt>
      <trkpt lat="40.2669590" lon="-3.8969770">
        <ele>663.2</ele>
        <time>2021-02-20T11:52:17Z</time>
      </trkpt>
      <trkpt lat="40.2668360" lon="-3.8971350">
        <ele>661.4</ele>
        <time>2021-02-20T11:52:19Z</time>
      </trkpt>
      <trkpt lat="40.2666550" lon="-3.8973750">
        <ele>660.2</ele>
        <time>2021-02-20T11:52:22Z</time>
      </trkpt>
      <trkpt lat="40.2666070" lon="-3.8974530">
        <ele>660.0</ele>
        <time>2021-02-20T11:52:23Z</time>
      </trkpt>
      <trkpt lat="40.2665730" lon="-3.8975290">
        <ele>660.0</ele>
        <time>2021-02-20T11:52:24Z</time>
      </trkpt>
      <trkpt lat="40.2665590" lon="-3.8976600">
        <ele>660.8</ele>
        <time>2021-02-20T11:52:26Z</time>
      </trkpt>
      <trkpt lat="40.2665720" lon="-3.8977630">
        <ele>661.6</ele>
        <time>2021-02-20T11:52:28Z</time>
      </trkpt>
      <trkpt lat="40.2665810" lon="-3.8978110">
        <ele>661.8</ele>
        <time>2021-02-20T11:52:29Z</time>
      </trkpt>
      <trkpt lat="40.2665950" lon="-3.8978610">
        <ele>662.0</ele>
        <time>2021-02-20T11:52:30Z</time>
      </trkpt>
      <trkpt lat="40.2667000" lon="-3.8980280">
        <ele>662.6</ele>
        <time>2021-02-20T11:52:34Z</time>
      </trkpt>
      <trkpt lat="40.2669670" lon="-3.8983840">
        <ele>662.6</ele>
        <time>2021-02-20T11:52:42Z</time>
      </trkpt>
      <trkpt lat="40.2671750" lon="-3.8986990">
        <ele>662.2</ele>
        <time>2021-02-20T11:52:48Z</time>
      </trkpt>
      <trkpt lat="40.2672040" lon="-3.8987700">
        <ele>661.8</ele>
        <time>2021-02-20T11:52:49Z</time>
      </trkpt>
      <trkpt lat="40.2672260" lon="-3.8988530">
        <ele>661.4</ele>
        <time>2021-02-20T11:52:50Z</time>
      </trkpt>
      <trkpt lat="40.2671920" lon="-3.8991330">
        <ele>660.8</ele>
        <time>2021-02-20T11:52:53Z</time>
      </trkpt>
      <trkpt lat="40.2670750" lon="-3.8992970">
        <ele>661.0</ele>
        <time>2021-02-20T11:52:56Z</time>
      </trkpt>
      <trkpt lat="40.2670380" lon="-3.8993380">
        <ele>661.4</ele>
        <time>2021-02-20T11:52:57Z</time>
      </trkpt>
      <trkpt lat="40.2668390" lon="-3.8995880">
        <ele>661.2</ele>
        <time>2021-02-20T11:53:02Z</time>
      </trkpt>
      <trkpt lat="40.2667490" lon="-3.8997140">
        <ele>660.4</ele>
        <time>2021-02-20T11:53:04Z</time>
      </trkpt>
      <trkpt lat="40.2665950" lon="-3.8999090">
        <ele>659.4</ele>
        <time>2021-02-20T11:53:07Z</time>
      </trkpt>
      <trkpt lat="40.2664320" lon="-3.9001020">
        <ele>658.0</ele>
        <time>2021-02-20T11:53:10Z</time>
      </trkpt>
      <trkpt lat="40.2663210" lon="-3.9002410">
        <ele>656.8</ele>
        <time>2021-02-20T11:53:12Z</time>
      </trkpt>
      <trkpt lat="40.2662070" lon="-3.9003810">
        <ele>655.8</ele>
        <time>2021-02-20T11:53:14Z</time>
      </trkpt>
      <trkpt lat="40.2661500" lon="-3.9004540">
        <ele>655.2</ele>
        <time>2021-02-20T11:53:15Z</time>
      </trkpt>
      <trkpt lat="40.2659330" lon="-3.9007410">
        <ele>654.2</ele>
        <time>2021-02-20T11:53:19Z</time>
      </trkpt>
      <trkpt lat="40.2658200" lon="-3.9008820">
        <ele>653.4</ele>
        <time>2021-02-20T11:53:21Z</time>
      </trkpt>
      <trkpt lat="40.2657630" lon="-3.9009550">
        <ele>653.0</ele>
        <time>2021-02-20T11:53:22Z</time>
      </trkpt>
      <trkpt lat="40.2656470" lon="-3.9010970">
        <ele>652.2</ele>
        <time>2021-02-20T11:53:24Z</time>
      </trkpt>
      <trkpt lat="40.2655860" lon="-3.9011650">
        <ele>651.8</ele>
        <time>2021-02-20T11:53:25Z</time>
      </trkpt>
      <trkpt lat="40.2654700" lon="-3.9012820">
        <ele>651.2</ele>
        <time>2021-02-20T11:53:27Z</time>
      </trkpt>
      <trkpt lat="40.2653990" lon="-3.9013410">
        <ele>650.4</ele>
        <time>2021-02-20T11:53:29Z</time>
      </trkpt>
      <trkpt lat="40.2653760" lon="-3.9013540">
        <ele>650.0</ele>
        <time>2021-02-20T11:53:30Z</time>
      </trkpt>
      <trkpt lat="40.2653320" lon="-3.9013800">
        <ele>649.2</ele>
        <time>2021-02-20T11:53:33Z</time>
      </trkpt>
      <trkpt lat="40.2653300" lon="-3.9013820">
        <ele>648.6</ele>
        <time>2021-02-20T11:53:35Z</time>
      </trkpt>
      <trkpt lat="40.2653180" lon="-3.9014030">
        <ele>648.2</ele>
        <time>2021-02-20T11:53:39Z</time>
      </trkpt>
      <trkpt lat="40.2653220" lon="-3.9014510">
        <ele>647.0</ele>
        <time>2021-02-20T11:53:41Z</time>
      </trkpt>
      <trkpt lat="40.2653450" lon="-3.9014710">
        <ele>646.2</ele>
        <time>2021-02-20T11:53:44Z</time>
      </trkpt>
      <trkpt lat="40.2653600" lon="-3.9014780">
        <ele>646.2</ele>
        <time>2021-02-20T11:53:45Z</time>
      </trkpt>
      <trkpt lat="40.2653820" lon="-3.9014710">
        <ele>646.2</ele>
        <time>2021-02-20T11:53:46Z</time>
      </trkpt>
      <trkpt lat="40.2654290" lon="-3.9014500">
        <ele>646.4</ele>
        <time>2021-02-20T11:53:49Z</time>
      </trkpt>
      <trkpt lat="40.2655220" lon="-3.9015610">
        <ele>646.4</ele>
        <time>2021-02-20T11:53:54Z</time>
      </trkpt>
      <trkpt lat="40.2655840" lon="-3.9017300">
        <ele>646.4</ele>
        <time>2021-02-20T11:53:57Z</time>
      </trkpt>
      <trkpt lat="40.2655930" lon="-3.9017950">
        <ele>646.4</ele>
        <time>2021-02-20T11:53:58Z</time>
      </trkpt>
      <trkpt lat="40.2656610" lon="-3.9020410">
        <ele>646.2</ele>
        <time>2021-02-20T11:54:02Z</time>
      </trkpt>
      <trkpt lat="40.2657450" lon="-3.9021310">
        <ele>646.4</ele>
        <time>2021-02-20T11:54:04Z</time>
      </trkpt>
      <trkpt lat="40.2658780" lon="-3.9022710">
        <ele>646.8</ele>
        <time>2021-02-20T11:54:07Z</time>
      </trkpt>
      <trkpt lat="40.2662920" lon="-3.9027180">
        <ele>647.6</ele>
        <time>2021-02-20T11:54:17Z</time>
      </trkpt>
      <trkpt lat="40.2664150" lon="-3.9028540">
        <ele>648.0</ele>
        <time>2021-02-20T11:54:20Z</time>
      </trkpt>
      <trkpt lat="40.2667480" lon="-3.9032050">
        <ele>649.0</ele>
        <time>2021-02-20T11:54:28Z</time>
      </trkpt>
      <trkpt lat="40.2668300" lon="-3.9032950">
        <ele>649.0</ele>
        <time>2021-02-20T11:54:30Z</time>
      </trkpt>
      <trkpt lat="40.2672510" lon="-3.9037300">
        <ele>650.0</ele>
        <time>2021-02-20T11:54:40Z</time>
      </trkpt>
      <trkpt lat="40.2673330" lon="-3.9038180">
        <ele>650.0</ele>
        <time>2021-02-20T11:54:42Z</time>
      </trkpt>
      <trkpt lat="40.2675410" lon="-3.9040230">
        <ele>650.6</ele>
        <time>2021-02-20T11:54:47Z</time>
      </trkpt>
      <trkpt lat="40.2676390" lon="-3.9040610">
        <ele>651.2</ele>
        <time>2021-02-20T11:54:49Z</time>
      </trkpt>
      <trkpt lat="40.2677340" lon="-3.9041110">
        <ele>651.4</ele>
        <time>2021-02-20T11:54:51Z</time>
      </trkpt>
      <trkpt lat="40.2678620" lon="-3.9042420">
        <ele>651.6</ele>
        <time>2021-02-20T11:54:54Z</time>
      </trkpt>
      <trkpt lat="40.2679000" lon="-3.9042950">
        <ele>651.6</ele>
        <time>2021-02-20T11:54:55Z</time>
      </trkpt>
      <trkpt lat="40.2682110" lon="-3.9046570">
        <ele>651.4</ele>
        <time>2021-02-20T11:55:02Z</time>
      </trkpt>
      <trkpt lat="40.2685290" lon="-3.9050010">
        <ele>650.0</ele>
        <time>2021-02-20T11:55:08Z</time>
      </trkpt>
      <trkpt lat="40.2687610" lon="-3.9052500">
        <ele>648.8</ele>
        <time>2021-02-20T11:55:12Z</time>
      </trkpt>
      <trkpt lat="40.2689400" lon="-3.9054440">
        <ele>648.0</ele>
        <time>2021-02-20T11:55:15Z</time>
      </trkpt>
      <trkpt lat="40.2689990" lon="-3.9055110">
        <ele>647.6</ele>
        <time>2021-02-20T11:55:16Z</time>
      </trkpt>
      <trkpt lat="40.2690600" lon="-3.9055800">
        <ele>647.4</ele>
        <time>2021-02-20T11:55:17Z</time>
      </trkpt>
      <trkpt lat="40.2692460" lon="-3.9057900">
        <ele>646.6</ele>
        <time>2021-02-20T11:55:20Z</time>
      </trkpt>
      <trkpt lat="40.2694390" lon="-3.9060030">
        <ele>645.6</ele>
        <time>2021-02-20T11:55:23Z</time>
      </trkpt>
      <trkpt lat="40.2695060" lon="-3.9060730">
        <ele>645.4</ele>
        <time>2021-02-20T11:55:24Z</time>
      </trkpt>
      <trkpt lat="40.2697720" lon="-3.9063710">
        <ele>644.4</ele>
        <time>2021-02-20T11:55:28Z</time>
      </trkpt>
      <trkpt lat="40.2699930" lon="-3.9065610">
        <ele>643.4</ele>
        <time>2021-02-20T11:55:31Z</time>
      </trkpt>
      <trkpt lat="40.2701320" lon="-3.9066760">
        <ele>643.2</ele>
        <time>2021-02-20T11:55:33Z</time>
      </trkpt>
      <trkpt lat="40.2701770" lon="-3.9067550">
        <ele>643.0</ele>
        <time>2021-02-20T11:55:34Z</time>
      </trkpt>
      <trkpt lat="40.2701940" lon="-3.9069400">
        <ele>642.8</ele>
        <time>2021-02-20T11:55:36Z</time>
      </trkpt>
      <trkpt lat="40.2701140" lon="-3.9070870">
        <ele>642.6</ele>
        <time>2021-02-20T11:55:38Z</time>
      </trkpt>
      <trkpt lat="40.2699240" lon="-3.9071420">
        <ele>642.6</ele>
        <time>2021-02-20T11:55:41Z</time>
      </trkpt>
      <trkpt lat="40.2697570" lon="-3.9072390">
        <ele>642.4</ele>
        <time>2021-02-20T11:55:44Z</time>
      </trkpt>
      <trkpt lat="40.2696780" lon="-3.9073710">
        <ele>642.0</ele>
        <time>2021-02-20T11:55:46Z</time>
      </trkpt>
      <trkpt lat="40.2695900" lon="-3.9075070">
        <ele>641.6</ele>
        <time>2021-02-20T11:55:48Z</time>
      </trkpt>
      <trkpt lat="40.2692810" lon="-3.9080050">
        <ele>640.8</ele>
        <time>2021-02-20T11:55:55Z</time>
      </trkpt>
      <trkpt lat="40.2691850" lon="-3.9081450">
        <ele>640.6</ele>
        <time>2021-02-20T11:55:57Z</time>
      </trkpt>
      <trkpt lat="40.2688640" lon="-3.9086320">
        <ele>639.8</ele>
        <time>2021-02-20T11:56:04Z</time>
      </trkpt>
      <trkpt lat="40.2687260" lon="-3.9088330">
        <ele>639.2</ele>
        <time>2021-02-20T11:56:07Z</time>
      </trkpt>
      <trkpt lat="40.2685880" lon="-3.9090440">
        <ele>638.4</ele>
        <time>2021-02-20T11:56:10Z</time>
      </trkpt>
      <trkpt lat="40.2683950" lon="-3.9093410">
        <ele>637.2</ele>
        <time>2021-02-20T11:56:14Z</time>
      </trkpt>
      <trkpt lat="40.2682520" lon="-3.9095790">
        <ele>636.2</ele>
        <time>2021-02-20T11:56:17Z</time>
      </trkpt>
      <trkpt lat="40.2681200" lon="-3.9098680">
        <ele>635.4</ele>
        <time>2021-02-20T11:56:21Z</time>
      </trkpt>
      <trkpt lat="40.2681450" lon="-3.9099150">
        <ele>635.0</ele>
        <time>2021-02-20T11:56:22Z</time>
      </trkpt>
      <trkpt lat="40.2681960" lon="-3.9099470">
        <ele>634.8</ele>
        <time>2021-02-20T11:56:23Z</time>
      </trkpt>
      <trkpt lat="40.2683110" lon="-3.9099920">
        <ele>634.6</ele>
        <time>2021-02-20T11:56:25Z</time>
      </trkpt>
      <trkpt lat="40.2684320" lon="-3.9100520">
        <ele>634.4</ele>
        <time>2021-02-20T11:56:27Z</time>
      </trkpt>
      <trkpt lat="40.2686210" lon="-3.9101570">
        <ele>633.8</ele>
        <time>2021-02-20T11:56:30Z</time>
      </trkpt>
      <trkpt lat="40.2688850" lon="-3.9103280">
        <ele>632.8</ele>
        <time>2021-02-20T11:56:34Z</time>
      </trkpt>
      <trkpt lat="40.2692120" lon="-3.9106160">
        <ele>631.6</ele>
        <time>2021-02-20T11:56:39Z</time>
      </trkpt>
      <trkpt lat="40.2692810" lon="-3.9106810">
        <ele>631.2</ele>
        <time>2021-02-20T11:56:40Z</time>
      </trkpt>
      <trkpt lat="40.2694190" lon="-3.9108180">
        <ele>630.4</ele>
        <time>2021-02-20T11:56:42Z</time>
      </trkpt>
      <trkpt lat="40.2696250" lon="-3.9110570">
        <ele>629.2</ele>
        <time>2021-02-20T11:56:45Z</time>
      </trkpt>
      <trkpt lat="40.2696870" lon="-3.9111490">
        <ele>628.8</ele>
        <time>2021-02-20T11:56:46Z</time>
      </trkpt>
      <trkpt lat="40.2698090" lon="-3.9113390">
        <ele>627.8</ele>
        <time>2021-02-20T11:56:48Z</time>
      </trkpt>
      <trkpt lat="40.2699780" lon="-3.9116520">
        <ele>626.6</ele>
        <time>2021-02-20T11:56:51Z</time>
      </trkpt>
      <trkpt lat="40.2700370" lon="-3.9117550">
        <ele>626.2</ele>
        <time>2021-02-20T11:56:52Z</time>
      </trkpt>
      <trkpt lat="40.2701650" lon="-3.9119520">
        <ele>625.4</ele>
        <time>2021-02-20T11:56:54Z</time>
      </trkpt>
      <trkpt lat="40.2703600" lon="-3.9122280">
        <ele>624.6</ele>
        <time>2021-02-20T11:56:57Z</time>
      </trkpt>
      <trkpt lat="40.2704280" lon="-3.9123100">
        <ele>624.4</ele>
        <time>2021-02-20T11:56:58Z</time>
      </trkpt>
      <trkpt lat="40.2706440" lon="-3.9125050">
        <ele>623.6</ele>
        <time>2021-02-20T11:57:01Z</time>
      </trkpt>
      <trkpt lat="40.2707180" lon="-3.9125180">
        <ele>623.4</ele>
        <time>2021-02-20T11:57:02Z</time>
      </trkpt>
      <trkpt lat="40.2708490" lon="-3.9124380">
        <ele>622.6</ele>
        <time>2021-02-20T11:57:04Z</time>
      </trkpt>
      <trkpt lat="40.2708950" lon="-3.9123660">
        <ele>622.2</ele>
        <time>2021-02-20T11:57:05Z</time>
      </trkpt>
      <trkpt lat="40.2709740" lon="-3.9122090">
        <ele>622.0</ele>
        <time>2021-02-20T11:57:07Z</time>
      </trkpt>
      <trkpt lat="40.2710970" lon="-3.9119660">
        <ele>621.8</ele>
        <time>2021-02-20T11:57:10Z</time>
      </trkpt>
      <trkpt lat="40.2713120" lon="-3.9115730">
        <ele>621.4</ele>
        <time>2021-02-20T11:57:15Z</time>
      </trkpt>
      <trkpt lat="40.2714000" lon="-3.9114340">
        <ele>621.2</ele>
        <time>2021-02-20T11:57:17Z</time>
      </trkpt>
      <trkpt lat="40.2715630" lon="-3.9111430">
        <ele>621.2</ele>
        <time>2021-02-20T11:57:21Z</time>
      </trkpt>
      <trkpt lat="40.2717240" lon="-3.9108620">
        <ele>621.0</ele>
        <time>2021-02-20T11:57:25Z</time>
      </trkpt>
      <trkpt lat="40.2719210" lon="-3.9105210">
        <ele>621.0</ele>
        <time>2021-02-20T11:57:30Z</time>
      </trkpt>
      <trkpt lat="40.2720840" lon="-3.9102590">
        <ele>621.2</ele>
        <time>2021-02-20T11:57:34Z</time>
      </trkpt>
      <trkpt lat="40.2722000" lon="-3.9100610">
        <ele>621.4</ele>
        <time>2021-02-20T11:57:37Z</time>
      </trkpt>
      <trkpt lat="40.2722730" lon="-3.9099270">
        <ele>621.8</ele>
        <time>2021-02-20T11:57:39Z</time>
      </trkpt>
      <trkpt lat="40.2723880" lon="-3.9097310">
        <ele>622.0</ele>
        <time>2021-02-20T11:57:42Z</time>
      </trkpt>
      <trkpt lat="40.2725350" lon="-3.9094970">
        <ele>622.2</ele>
        <time>2021-02-20T11:57:46Z</time>
      </trkpt>
      <trkpt lat="40.2726020" lon="-3.9093960">
        <ele>622.2</ele>
        <time>2021-02-20T11:57:48Z</time>
      </trkpt>
      <trkpt lat="40.2726910" lon="-3.9093560">
        <ele>622.2</ele>
        <time>2021-02-20T11:57:50Z</time>
      </trkpt>
      <trkpt lat="40.2728870" lon="-3.9092940">
        <ele>621.8</ele>
        <time>2021-02-20T11:57:54Z</time>
      </trkpt>
      <trkpt lat="40.2729500" lon="-3.9093000">
        <ele>621.6</ele>
        <time>2021-02-20T11:57:55Z</time>
      </trkpt>
      <trkpt lat="40.2730160" lon="-3.9093070">
        <ele>621.2</ele>
        <time>2021-02-20T11:57:56Z</time>
      </trkpt>
      <trkpt lat="40.2731550" lon="-3.9093060">
        <ele>620.4</ele>
        <time>2021-02-20T11:57:58Z</time>
      </trkpt>
      <trkpt lat="40.2732270" lon="-3.9092990">
        <ele>620.0</ele>
        <time>2021-02-20T11:57:59Z</time>
      </trkpt>
      <trkpt lat="40.2734360" lon="-3.9092780">
        <ele>618.8</ele>
        <time>2021-02-20T11:58:02Z</time>
      </trkpt>
      <trkpt lat="40.2734880" lon="-3.9092880">
        <ele>618.6</ele>
        <time>2021-02-20T11:58:03Z</time>
      </trkpt>
      <trkpt lat="40.2735260" lon="-3.9093340">
        <ele>618.4</ele>
        <time>2021-02-20T11:58:04Z</time>
      </trkpt>
      <trkpt lat="40.2736020" lon="-3.9095150">
        <ele>617.8</ele>
        <time>2021-02-20T11:58:07Z</time>
      </trkpt>
      <trkpt lat="40.2736290" lon="-3.9095820">
        <ele>617.6</ele>
        <time>2021-02-20T11:58:08Z</time>
      </trkpt>
      <trkpt lat="40.2737600" lon="-3.9098730">
        <ele>616.4</ele>
        <time>2021-02-20T11:58:12Z</time>
      </trkpt>
      <trkpt lat="40.2737990" lon="-3.9099560">
        <ele>616.0</ele>
        <time>2021-02-20T11:58:13Z</time>
      </trkpt>
      <trkpt lat="40.2738810" lon="-3.9101270">
        <ele>615.0</ele>
        <time>2021-02-20T11:58:15Z</time>
      </trkpt>
      <trkpt lat="40.2740110" lon="-3.9104000">
        <ele>613.6</ele>
        <time>2021-02-20T11:58:18Z</time>
      </trkpt>
      <trkpt lat="40.2740570" lon="-3.9104970">
        <ele>613.2</ele>
        <time>2021-02-20T11:58:19Z</time>
      </trkpt>
      <trkpt lat="40.2741510" lon="-3.9107010">
        <ele>612.2</ele>
        <time>2021-02-20T11:58:21Z</time>
      </trkpt>
      <trkpt lat="40.2742330" lon="-3.9108790">
        <ele>611.0</ele>
        <time>2021-02-20T11:58:23Z</time>
      </trkpt>
      <trkpt lat="40.2742660" lon="-3.9109410">
        <ele>610.4</ele>
        <time>2021-02-20T11:58:24Z</time>
      </trkpt>
      <trkpt lat="40.2742950" lon="-3.9109740">
        <ele>609.4</ele>
        <time>2021-02-20T11:58:25Z</time>
      </trkpt>
      <trkpt lat="40.2743650" lon="-3.9109600">
        <ele>608.8</ele>
        <time>2021-02-20T11:58:27Z</time>
      </trkpt>
      <trkpt lat="40.2744600" lon="-3.9109640">
        <ele>609.0</ele>
        <time>2021-02-20T11:58:30Z</time>
      </trkpt>
      <trkpt lat="40.2744810" lon="-3.9109990">
        <ele>608.8</ele>
        <time>2021-02-20T11:58:31Z</time>
      </trkpt>
      <trkpt lat="40.2746000" lon="-3.9110370">
        <ele>608.6</ele>
        <time>2021-02-20T11:58:34Z</time>
      </trkpt>
      <trkpt lat="40.2747110" lon="-3.9109080">
        <ele>608.8</ele>
        <time>2021-02-20T11:58:37Z</time>
      </trkpt>
      <trkpt lat="40.2747540" lon="-3.9107870">
        <ele>608.8</ele>
        <time>2021-02-20T11:58:39Z</time>
      </trkpt>
      <trkpt lat="40.2748290" lon="-3.9106150">
        <ele>609.2</ele>
        <time>2021-02-20T11:58:42Z</time>
      </trkpt>
      <trkpt lat="40.2749600" lon="-3.9103310">
        <ele>609.6</ele>
        <time>2021-02-20T11:58:47Z</time>
      </trkpt>
      <trkpt lat="40.2750960" lon="-3.9100530">
        <ele>610.4</ele>
        <time>2021-02-20T11:58:52Z</time>
      </trkpt>
      <trkpt lat="40.2752310" lon="-3.9097750">
        <ele>611.0</ele>
        <time>2021-02-20T11:58:57Z</time>
      </trkpt>
      <trkpt lat="40.2753400" lon="-3.9095510">
        <ele>611.4</ele>
        <time>2021-02-20T11:59:01Z</time>
      </trkpt>
      <trkpt lat="40.2753930" lon="-3.9094390">
        <ele>611.6</ele>
        <time>2021-02-20T11:59:03Z</time>
      </trkpt>
      <trkpt lat="40.2755320" lon="-3.9091630">
        <ele>612.2</ele>
        <time>2021-02-20T11:59:08Z</time>
      </trkpt>
      <trkpt lat="40.2756000" lon="-3.9089820">
        <ele>612.6</ele>
        <time>2021-02-20T11:59:11Z</time>
      </trkpt>
      <trkpt lat="40.2756230" lon="-3.9089210">
        <ele>612.6</ele>
        <time>2021-02-20T11:59:12Z</time>
      </trkpt>
      <trkpt lat="40.2758220" lon="-3.9083830">
        <ele>613.8</ele>
        <time>2021-02-20T11:59:21Z</time>
      </trkpt>
      <trkpt lat="40.2758420" lon="-3.9083210">
        <ele>614.0</ele>
        <time>2021-02-20T11:59:22Z</time>
      </trkpt>
      <trkpt lat="40.2759810" lon="-3.9079710">
        <ele>614.8</ele>
        <time>2021-02-20T11:59:28Z</time>
      </trkpt>
      <trkpt lat="40.2760230" lon="-3.9078560">
        <ele>615.0</ele>
        <time>2021-02-20T11:59:30Z</time>
      </trkpt>
      <trkpt lat="40.2761820" lon="-3.9074420">
        <ele>615.8</ele>
        <time>2021-02-20T11:59:37Z</time>
      </trkpt>
      <trkpt lat="40.2762050" lon="-3.9073830">
        <ele>616.0</ele>
        <time>2021-02-20T11:59:38Z</time>
      </trkpt>
      <trkpt lat="40.2763820" lon="-3.9069140">
        <ele>616.8</ele>
        <time>2021-02-20T11:59:46Z</time>
      </trkpt>
      <trkpt lat="40.2764230" lon="-3.9067950">
        <ele>617.0</ele>
        <time>2021-02-20T11:59:48Z</time>
      </trkpt>
      <trkpt lat="40.2765370" lon="-3.9063910">
        <ele>618.0</ele>
        <time>2021-02-20T11:59:55Z</time>
      </trkpt>
      <trkpt lat="40.2765500" lon="-3.9063340">
        <ele>618.2</ele>
        <time>2021-02-20T11:59:56Z</time>
      </trkpt>
      <trkpt lat="40.2765970" lon="-3.9060470">
        <ele>619.6</ele>
        <time>2021-02-20T12:00:01Z</time>
      </trkpt>
      <trkpt lat="40.2766120" lon="-3.9058780">
        <ele>620.0</ele>
        <time>2021-02-20T12:00:04Z</time>
      </trkpt>
      <trkpt lat="40.2766210" lon="-3.9057150">
        <ele>620.8</ele>
        <time>2021-02-20T12:00:07Z</time>
      </trkpt>
      <trkpt lat="40.2766160" lon="-3.9054080">
        <ele>621.8</ele>
        <time>2021-02-20T12:00:13Z</time>
      </trkpt>
      <trkpt lat="40.2765920" lon="-3.9051280">
        <ele>623.0</ele>
        <time>2021-02-20T12:00:19Z</time>
      </trkpt>
      <trkpt lat="40.2765490" lon="-3.9049940">
        <ele>623.4</ele>
        <time>2021-02-20T12:00:22Z</time>
      </trkpt>
      <trkpt lat="40.2765200" lon="-3.9049680">
        <ele>623.4</ele>
        <time>2021-02-20T12:00:23Z</time>
      </trkpt>
      <trkpt lat="40.2764500" lon="-3.9049390">
        <ele>623.8</ele>
        <time>2021-02-20T12:00:25Z</time>
      </trkpt>
      <trkpt lat="40.2764150" lon="-3.9049230">
        <ele>624.2</ele>
        <time>2021-02-20T12:00:26Z</time>
      </trkpt>
      <trkpt lat="40.2762850" lon="-3.9048230">
        <ele>625.2</ele>
        <time>2021-02-20T12:00:30Z</time>
      </trkpt>
      <trkpt lat="40.2762640" lon="-3.9047820">
        <ele>625.4</ele>
        <time>2021-02-20T12:00:31Z</time>
      </trkpt>
      <trkpt lat="40.2762290" lon="-3.9045820">
        <ele>626.0</ele>
        <time>2021-02-20T12:00:35Z</time>
      </trkpt>
      <trkpt lat="40.2762490" lon="-3.9044270">
        <ele>626.4</ele>
        <time>2021-02-20T12:00:38Z</time>
      </trkpt>
      <trkpt lat="40.2762770" lon="-3.9043290">
        <ele>626.6</ele>
        <time>2021-02-20T12:00:40Z</time>
      </trkpt>
      <trkpt lat="40.2762470" lon="-3.9040940">
        <ele>627.0</ele>
        <time>2021-02-20T12:00:45Z</time>
      </trkpt>
      <trkpt lat="40.2761970" lon="-3.9040210">
        <ele>627.4</ele>
        <time>2021-02-20T12:00:47Z</time>
      </trkpt>
      <trkpt lat="40.2760610" lon="-3.9038430">
        <ele>628.4</ele>
        <time>2021-02-20T12:00:52Z</time>
      </trkpt>
      <trkpt lat="40.2759190" lon="-3.9036710">
        <ele>629.4</ele>
        <time>2021-02-20T12:00:57Z</time>
      </trkpt>
      <trkpt lat="40.2757730" lon="-3.9035190">
        <ele>630.4</ele>
        <time>2021-02-20T12:01:02Z</time>
      </trkpt>
      <trkpt lat="40.2757430" lon="-3.9034900">
        <ele>630.4</ele>
        <time>2021-02-20T12:01:03Z</time>
      </trkpt>
      <trkpt lat="40.2755530" lon="-3.9033140">
        <ele>631.6</ele>
        <time>2021-02-20T12:01:09Z</time>
      </trkpt>
      <trkpt lat="40.2754200" lon="-3.9032220">
        <ele>632.6</ele>
        <time>2021-02-20T12:01:13Z</time>
      </trkpt>
      <trkpt lat="40.2753860" lon="-3.9032020">
        <ele>632.8</ele>
        <time>2021-02-20T12:01:14Z</time>
      </trkpt>
      <trkpt lat="40.2751780" lon="-3.9030900">
        <ele>634.0</ele>
        <time>2021-02-20T12:01:20Z</time>
      </trkpt>
      <trkpt lat="40.2750350" lon="-3.9030200">
        <ele>634.8</ele>
        <time>2021-02-20T12:01:24Z</time>
      </trkpt>
      <trkpt lat="40.2749980" lon="-3.9030030">
        <ele>635.0</ele>
        <time>2021-02-20T12:01:25Z</time>
      </trkpt>
      <trkpt lat="40.2747720" lon="-3.9028970">
        <ele>636.0</ele>
        <time>2021-02-20T12:01:31Z</time>
      </trkpt>
      <trkpt lat="40.2746960" lon="-3.9028580">
        <ele>636.4</ele>
        <time>2021-02-20T12:01:33Z</time>
      </trkpt>
      <trkpt lat="40.2745820" lon="-3.9028010">
        <ele>637.0</ele>
        <time>2021-02-20T12:01:36Z</time>
      </trkpt>
      <trkpt lat="40.2743860" lon="-3.9026990">
        <ele>638.2</ele>
        <time>2021-02-20T12:01:41Z</time>
      </trkpt>
      <trkpt lat="40.2742990" lon="-3.9026660">
        <ele>638.4</ele>
        <time>2021-02-20T12:01:43Z</time>
      </trkpt>
      <trkpt lat="40.2740790" lon="-3.9025730">
        <ele>639.2</ele>
        <time>2021-02-20T12:01:48Z</time>
      </trkpt>
      <trkpt lat="40.2737540" lon="-3.9024320">
        <ele>639.6</ele>
        <time>2021-02-20T12:01:55Z</time>
      </trkpt>
      <trkpt lat="40.2733300" lon="-3.9022380">
        <ele>640.4</ele>
        <time>2021-02-20T12:02:04Z</time>
      </trkpt>
      <trkpt lat="40.2731910" lon="-3.9021710">
        <ele>640.6</ele>
        <time>2021-02-20T12:02:07Z</time>
      </trkpt>
      <trkpt lat="40.2729280" lon="-3.9020480">
        <ele>641.4</ele>
        <time>2021-02-20T12:02:13Z</time>
      </trkpt>
      <trkpt lat="40.2728070" lon="-3.9019920">
        <ele>642.6</ele>
        <time>2021-02-20T12:02:16Z</time>
      </trkpt>
      <trkpt lat="40.2727300" lon="-3.9019560">
        <ele>642.4</ele>
        <time>2021-02-20T12:02:18Z</time>
      </trkpt>
      <trkpt lat="40.2724460" lon="-3.9018230">
        <ele>644.0</ele>
        <time>2021-02-20T12:02:25Z</time>
      </trkpt>
      <trkpt lat="40.2723620" lon="-3.9017850">
        <ele>644.6</ele>
        <time>2021-02-20T12:02:27Z</time>
      </trkpt>
      <trkpt lat="40.2723240" lon="-3.9017670">
        <ele>645.0</ele>
        <time>2021-02-20T12:02:28Z</time>
      </trkpt>
      <trkpt lat="40.2722070" lon="-3.9017120">
        <ele>646.4</ele>
        <time>2021-02-20T12:02:31Z</time>
      </trkpt>
      <trkpt lat="40.2721320" lon="-3.9016820">
        <ele>646.8</ele>
        <time>2021-02-20T12:02:33Z</time>
      </trkpt>
      <trkpt lat="40.2720280" lon="-3.9016380">
        <ele>647.6</ele>
        <time>2021-02-20T12:02:36Z</time>
      </trkpt>
      <trkpt lat="40.2719310" lon="-3.9016480">
        <ele>648.0</ele>
        <time>2021-02-20T12:02:39Z</time>
      </trkpt>
      <trkpt lat="40.2719090" lon="-3.9016950">
        <ele>648.0</ele>
        <time>2021-02-20T12:02:40Z</time>
      </trkpt>
      <trkpt lat="40.2718690" lon="-3.9018580">
        <ele>648.2</ele>
        <time>2021-02-20T12:02:43Z</time>
      </trkpt>
      <trkpt lat="40.2718540" lon="-3.9019150">
        <ele>648.2</ele>
        <time>2021-02-20T12:02:44Z</time>
      </trkpt>
      <trkpt lat="40.2717040" lon="-3.9024760">
        <ele>647.6</ele>
        <time>2021-02-20T12:02:53Z</time>
      </trkpt>
      <trkpt lat="40.2715560" lon="-3.9029790">
        <ele>646.8</ele>
        <time>2021-02-20T12:03:00Z</time>
      </trkpt>
      <trkpt lat="40.2715330" lon="-3.9030550">
        <ele>646.4</ele>
        <time>2021-02-20T12:03:01Z</time>
      </trkpt>
      <trkpt lat="40.2715000" lon="-3.9033000">
        <ele>645.4</ele>
        <time>2021-02-20T12:03:04Z</time>
      </trkpt>
      <trkpt lat="40.2715320" lon="-3.9033740">
        <ele>645.2</ele>
        <time>2021-02-20T12:03:05Z</time>
      </trkpt>
      <trkpt lat="40.2716410" lon="-3.9034440">
        <ele>644.6</ele>
        <time>2021-02-20T12:03:07Z</time>
      </trkpt>
      <trkpt lat="40.2717630" lon="-3.9034760">
        <ele>644.4</ele>
        <time>2021-02-20T12:03:09Z</time>
      </trkpt>
      <trkpt lat="40.2718940" lon="-3.9035190">
        <ele>644.0</ele>
        <time>2021-02-20T12:03:11Z</time>
      </trkpt>
      <trkpt lat="40.2721130" lon="-3.9035950">
        <ele>642.8</ele>
        <time>2021-02-20T12:03:14Z</time>
      </trkpt>
      <trkpt lat="40.2723430" lon="-3.9037000">
        <ele>642.0</ele>
        <time>2021-02-20T12:03:17Z</time>
      </trkpt>
      <trkpt lat="40.2724210" lon="-3.9037320">
        <ele>641.6</ele>
        <time>2021-02-20T12:03:18Z</time>
      </trkpt>
      <trkpt lat="40.2726710" lon="-3.9038460">
        <ele>640.4</ele>
        <time>2021-02-20T12:03:21Z</time>
      </trkpt>
      <trkpt lat="40.2728450" lon="-3.9039220">
        <ele>639.6</ele>
        <time>2021-02-20T12:03:23Z</time>
      </trkpt>
      <trkpt lat="40.2729320" lon="-3.9039650">
        <ele>639.4</ele>
        <time>2021-02-20T12:03:24Z</time>
      </trkpt>
      <trkpt lat="40.2731090" lon="-3.9040470">
        <ele>638.6</ele>
        <time>2021-02-20T12:03:26Z</time>
      </trkpt>
      <trkpt lat="40.2732000" lon="-3.9040920">
        <ele>638.2</ele>
        <time>2021-02-20T12:03:27Z</time>
      </trkpt>
      <trkpt lat="40.2734820" lon="-3.9042230">
        <ele>637.0</ele>
        <time>2021-02-20T12:03:30Z</time>
      </trkpt>
      <trkpt lat="40.2735770" lon="-3.9042670">
        <ele>636.6</ele>
        <time>2021-02-20T12:03:31Z</time>
      </trkpt>
      <trkpt lat="40.2737760" lon="-3.9043490">
        <ele>635.8</ele>
        <time>2021-02-20T12:03:33Z</time>
      </trkpt>
      <trkpt lat="40.2740740" lon="-3.9044930">
        <ele>634.4</ele>
        <time>2021-02-20T12:03:36Z</time>
      </trkpt>
      <trkpt lat="40.2741760" lon="-3.9045380">
        <ele>633.2</ele>
        <time>2021-02-20T12:03:37Z</time>
      </trkpt>
      <trkpt lat="40.2744610" lon="-3.9046710">
        <ele>632.0</ele>
        <time>2021-02-20T12:03:40Z</time>
      </trkpt>
      <trkpt lat="40.2745850" lon="-3.9047030">
        <ele>631.0</ele>
        <time>2021-02-20T12:03:42Z</time>
      </trkpt>
      <trkpt lat="40.2746250" lon="-3.9046650">
        <ele>630.8</ele>
        <time>2021-02-20T12:03:43Z</time>
      </trkpt>
      <trkpt lat="40.2746480" lon="-3.9046120">
        <ele>630.8</ele>
        <time>2021-02-20T12:03:44Z</time>
      </trkpt>
      <trkpt lat="40.2746840" lon="-3.9043880">
        <ele>631.0</ele>
        <time>2021-02-20T12:03:48Z</time>
      </trkpt>
      <trkpt lat="40.2746910" lon="-3.9042360">
        <ele>632.0</ele>
        <time>2021-02-20T12:03:51Z</time>
      </trkpt>
      <trkpt lat="40.2746910" lon="-3.9041310">
        <ele>632.4</ele>
        <time>2021-02-20T12:03:54Z</time>
      </trkpt>
    </trkseg>
  </trk>
</gpx>
